<?xml version="1.0" encoding="UTF-8" standalone="no" ?>
<gpx xmlns="http://www.topografix.com/GPX/1/1" xmlns:xsi="http://www.w3.org/2001/XMLSchema-instance" xsi:schemaLocation="http://www.topografix.com/GPX/1/1 http://www.topografix.com/GPX/1/1/gpx.xsd" version="1.1" creator="VisuGPX - https://www.visugpx.com">
  <metadata>
    <name>Platte taille 12 km</name>
    <desc><![CDATA[Petit circuit boucle bucolique 
Point de depart parking platte taille.
Barrages de l'eau d'heure]]></desc>
  </metadata>
  <trk>
    <name><![CDATA[07-08-16_09_36_55]]></name>
    <trkseg>
      <trkpt lat="50.19223" lon="4.38002">
        <ele>260.5</ele>
        <time>2016-8-7T9:38:56.000Z</time>
      </trkpt>
      <trkpt lat="50.19223" lon="4.38002">
        <ele>260.5</ele>
        <time>2016-8-7T9:38:56.000Z</time>
      </trkpt>
      <trkpt lat="50.19222" lon="4.38">
        <ele>260.5</ele>
        <time>2016-8-7T9:38:56.000Z</time>
      </trkpt>
      <trkpt lat="50.19222" lon="4.38">
        <ele>260.5</ele>
        <time>2016-8-7T9:38:56.000Z</time>
      </trkpt>
      <trkpt lat="50.1922" lon="4.38001">
        <ele>261.5</ele>
        <time>2016-8-7T9:38:56.000Z</time>
      </trkpt>
      <trkpt lat="50.1922" lon="4.38001">
        <ele>261.5</ele>
        <time>2016-8-7T9:38:56.000Z</time>
      </trkpt>
      <trkpt lat="50.19218" lon="4.38004">
        <ele>261.5</ele>
        <time>2016-8-7T9:38:56.000Z</time>
      </trkpt>
      <trkpt lat="50.19218" lon="4.38004">
        <ele>261.5</ele>
        <time>2016-8-7T9:38:56.000Z</time>
      </trkpt>
      <trkpt lat="50.19218" lon="4.38006">
        <ele>261.5</ele>
        <time>2016-8-7T9:38:56.000Z</time>
      </trkpt>
      <trkpt lat="50.19218" lon="4.38006">
        <ele>261.5</ele>
        <time>2016-8-7T9:38:56.000Z</time>
      </trkpt>
      <trkpt lat="50.19217" lon="4.3801">
        <ele>261.5</ele>
        <time>2016-8-7T9:38:56.000Z</time>
      </trkpt>
      <trkpt lat="50.19217" lon="4.3801">
        <ele>261.5</ele>
        <time>2016-8-7T9:38:56.000Z</time>
      </trkpt>
      <trkpt lat="50.19216" lon="4.38014">
        <ele>259.5</ele>
        <time>2016-8-7T9:38:56.000Z</time>
      </trkpt>
      <trkpt lat="50.19216" lon="4.38014">
        <ele>259.5</ele>
        <time>2016-8-7T9:38:56.000Z</time>
      </trkpt>
      <trkpt lat="50.19215" lon="4.38016">
        <ele>259.5</ele>
        <time>2016-8-7T9:38:56.000Z</time>
      </trkpt>
      <trkpt lat="50.19215" lon="4.38016">
        <ele>259.5</ele>
        <time>2016-8-7T9:38:56.000Z</time>
      </trkpt>
      <trkpt lat="50.19214" lon="4.38018">
        <ele>258.5</ele>
        <time>2016-8-7T9:38:56.000Z</time>
      </trkpt>
      <trkpt lat="50.19214" lon="4.38018">
        <ele>258.5</ele>
        <time>2016-8-7T9:38:56.000Z</time>
      </trkpt>
      <trkpt lat="50.19212" lon="4.38018">
        <ele>258.5</ele>
        <time>2016-8-7T9:38:56.000Z</time>
      </trkpt>
      <trkpt lat="50.19212" lon="4.38018">
        <ele>258.5</ele>
        <time>2016-8-7T9:38:56.000Z</time>
      </trkpt>
      <trkpt lat="50.1921" lon="4.38019">
        <ele>258.5</ele>
        <time>2016-8-7T9:38:56.000Z</time>
      </trkpt>
      <trkpt lat="50.1921" lon="4.38019">
        <ele>258.5</ele>
        <time>2016-8-7T9:38:56.000Z</time>
      </trkpt>
      <trkpt lat="50.19208" lon="4.38019">
        <ele>258</ele>
        <time>2016-8-7T9:38:56.000Z</time>
      </trkpt>
      <trkpt lat="50.19208" lon="4.38019">
        <ele>258</ele>
        <time>2016-8-7T9:38:56.000Z</time>
      </trkpt>
      <trkpt lat="50.19206" lon="4.38018">
        <ele>258</ele>
        <time>2016-8-7T9:38:56.000Z</time>
      </trkpt>
      <trkpt lat="50.19206" lon="4.38018">
        <ele>258</ele>
        <time>2016-8-7T9:38:56.000Z</time>
      </trkpt>
      <trkpt lat="50.19204" lon="4.38016">
        <ele>257.5</ele>
        <time>2016-8-7T9:38:56.000Z</time>
      </trkpt>
      <trkpt lat="50.19204" lon="4.38016">
        <ele>257.5</ele>
        <time>2016-8-7T9:38:56.000Z</time>
      </trkpt>
      <trkpt lat="50.19203" lon="4.38014">
        <ele>257.5</ele>
        <time>2016-8-7T9:38:56.000Z</time>
      </trkpt>
      <trkpt lat="50.19203" lon="4.38014">
        <ele>257.5</ele>
        <time>2016-8-7T9:38:56.000Z</time>
      </trkpt>
      <trkpt lat="50.19202" lon="4.38013">
        <ele>257.5</ele>
        <time>2016-8-7T9:38:56.000Z</time>
      </trkpt>
      <trkpt lat="50.19202" lon="4.38013">
        <ele>257.5</ele>
        <time>2016-8-7T9:38:56.000Z</time>
      </trkpt>
      <trkpt lat="50.19201" lon="4.3801">
        <ele>257.5</ele>
        <time>2016-8-7T9:38:56.000Z</time>
      </trkpt>
      <trkpt lat="50.19201" lon="4.3801">
        <ele>257.5</ele>
        <time>2016-8-7T9:38:56.000Z</time>
      </trkpt>
      <trkpt lat="50.192" lon="4.38007">
        <ele>258</ele>
        <time>2016-8-7T9:38:56.000Z</time>
      </trkpt>
      <trkpt lat="50.192" lon="4.38007">
        <ele>258</ele>
        <time>2016-8-7T9:38:56.000Z</time>
      </trkpt>
      <trkpt lat="50.192" lon="4.38005">
        <ele>258</ele>
        <time>2016-8-7T9:38:56.000Z</time>
      </trkpt>
      <trkpt lat="50.192" lon="4.38005">
        <ele>258</ele>
        <time>2016-8-7T9:38:56.000Z</time>
      </trkpt>
      <trkpt lat="50.19199" lon="4.38002">
        <ele>258.5</ele>
        <time>2016-8-7T9:38:56.000Z</time>
      </trkpt>
      <trkpt lat="50.19199" lon="4.38002">
        <ele>258.5</ele>
        <time>2016-8-7T9:38:56.000Z</time>
      </trkpt>
      <trkpt lat="50.19199" lon="4.37998">
        <ele>258.5</ele>
        <time>2016-8-7T9:38:56.000Z</time>
      </trkpt>
      <trkpt lat="50.19199" lon="4.37998">
        <ele>258.5</ele>
        <time>2016-8-7T9:38:56.000Z</time>
      </trkpt>
      <trkpt lat="50.19199" lon="4.37996">
        <ele>259</ele>
        <time>2016-8-7T9:38:56.000Z</time>
      </trkpt>
      <trkpt lat="50.19199" lon="4.37996">
        <ele>259</ele>
        <time>2016-8-7T9:38:56.000Z</time>
      </trkpt>
      <trkpt lat="50.19198" lon="4.37993">
        <ele>259</ele>
        <time>2016-8-7T9:38:56.000Z</time>
      </trkpt>
      <trkpt lat="50.19198" lon="4.37993">
        <ele>259</ele>
        <time>2016-8-7T9:38:56.000Z</time>
      </trkpt>
      <trkpt lat="50.19198" lon="4.3799">
        <ele>259.5</ele>
        <time>2016-8-7T9:38:56.000Z</time>
      </trkpt>
      <trkpt lat="50.19198" lon="4.3799">
        <ele>259.5</ele>
        <time>2016-8-7T9:38:56.000Z</time>
      </trkpt>
      <trkpt lat="50.19198" lon="4.37987">
        <ele>259.5</ele>
        <time>2016-8-7T9:38:56.000Z</time>
      </trkpt>
      <trkpt lat="50.19198" lon="4.37987">
        <ele>259.5</ele>
        <time>2016-8-7T9:38:56.000Z</time>
      </trkpt>
      <trkpt lat="50.19198" lon="4.37986">
        <ele>259.5</ele>
        <time>2016-8-7T9:38:56.000Z</time>
      </trkpt>
      <trkpt lat="50.19198" lon="4.37986">
        <ele>259.5</ele>
        <time>2016-8-7T9:38:56.000Z</time>
      </trkpt>
      <trkpt lat="50.19197" lon="4.37983">
        <ele>259.5</ele>
        <time>2016-8-7T9:38:56.000Z</time>
      </trkpt>
      <trkpt lat="50.19197" lon="4.37983">
        <ele>259.5</ele>
        <time>2016-8-7T9:38:56.000Z</time>
      </trkpt>
      <trkpt lat="50.19197" lon="4.37982">
        <ele>260</ele>
        <time>2016-8-7T9:38:56.000Z</time>
      </trkpt>
      <trkpt lat="50.19197" lon="4.37982">
        <ele>260</ele>
        <time>2016-8-7T9:38:56.000Z</time>
      </trkpt>
      <trkpt lat="50.19197" lon="4.3798">
        <ele>260</ele>
        <time>2016-8-7T9:38:56.000Z</time>
      </trkpt>
      <trkpt lat="50.19197" lon="4.3798">
        <ele>260</ele>
        <time>2016-8-7T9:38:56.000Z</time>
      </trkpt>
      <trkpt lat="50.19195" lon="4.3798">
        <ele>260</ele>
        <time>2016-8-7T9:38:56.000Z</time>
      </trkpt>
      <trkpt lat="50.19195" lon="4.3798">
        <ele>260</ele>
        <time>2016-8-7T9:38:56.000Z</time>
      </trkpt>
      <trkpt lat="50.19194" lon="4.3798">
        <ele>260</ele>
        <time>2016-8-7T9:38:56.000Z</time>
      </trkpt>
      <trkpt lat="50.19194" lon="4.3798">
        <ele>260</ele>
        <time>2016-8-7T9:38:56.000Z</time>
      </trkpt>
      <trkpt lat="50.19192" lon="4.37981">
        <ele>260</ele>
        <time>2016-8-7T9:38:56.000Z</time>
      </trkpt>
      <trkpt lat="50.19192" lon="4.37981">
        <ele>260</ele>
        <time>2016-8-7T9:38:56.000Z</time>
      </trkpt>
      <trkpt lat="50.1919" lon="4.37982">
        <ele>260</ele>
        <time>2016-8-7T9:38:56.000Z</time>
      </trkpt>
      <trkpt lat="50.1919" lon="4.37982">
        <ele>260</ele>
        <time>2016-8-7T9:38:56.000Z</time>
      </trkpt>
      <trkpt lat="50.19188" lon="4.37982">
        <ele>259.5</ele>
        <time>2016-8-7T9:38:56.000Z</time>
      </trkpt>
      <trkpt lat="50.19188" lon="4.37982">
        <ele>259.5</ele>
        <time>2016-8-7T9:38:56.000Z</time>
      </trkpt>
      <trkpt lat="50.19186" lon="4.37982">
        <ele>258.5</ele>
        <time>2016-8-7T9:38:56.000Z</time>
      </trkpt>
      <trkpt lat="50.19186" lon="4.37982">
        <ele>258.5</ele>
        <time>2016-8-7T9:38:56.000Z</time>
      </trkpt>
      <trkpt lat="50.19184" lon="4.37982">
        <ele>258</ele>
        <time>2016-8-7T9:38:56.000Z</time>
      </trkpt>
      <trkpt lat="50.19184" lon="4.37982">
        <ele>258</ele>
        <time>2016-8-7T9:38:56.000Z</time>
      </trkpt>
      <trkpt lat="50.19183" lon="4.37981">
        <ele>258</ele>
        <time>2016-8-7T9:38:56.000Z</time>
      </trkpt>
      <trkpt lat="50.19183" lon="4.37981">
        <ele>258</ele>
        <time>2016-8-7T9:38:56.000Z</time>
      </trkpt>
      <trkpt lat="50.19181" lon="4.37983">
        <ele>258.5</ele>
        <time>2016-8-7T9:38:56.000Z</time>
      </trkpt>
      <trkpt lat="50.19181" lon="4.37983">
        <ele>258.5</ele>
        <time>2016-8-7T9:38:56.000Z</time>
      </trkpt>
      <trkpt lat="50.19178" lon="4.37985">
        <ele>258.5</ele>
        <time>2016-8-7T9:38:56.000Z</time>
      </trkpt>
      <trkpt lat="50.19178" lon="4.37985">
        <ele>258.5</ele>
        <time>2016-8-7T9:38:56.000Z</time>
      </trkpt>
      <trkpt lat="50.19177" lon="4.37987">
        <ele>257.5</ele>
        <time>2016-8-7T9:38:56.000Z</time>
      </trkpt>
      <trkpt lat="50.19177" lon="4.37987">
        <ele>257.5</ele>
        <time>2016-8-7T9:38:56.000Z</time>
      </trkpt>
      <trkpt lat="50.19176" lon="4.37989">
        <ele>257.5</ele>
        <time>2016-8-7T9:38:56.000Z</time>
      </trkpt>
      <trkpt lat="50.19176" lon="4.37989">
        <ele>257.5</ele>
        <time>2016-8-7T9:38:56.000Z</time>
      </trkpt>
      <trkpt lat="50.19176" lon="4.37992">
        <ele>257.5</ele>
        <time>2016-8-7T9:38:56.000Z</time>
      </trkpt>
      <trkpt lat="50.19176" lon="4.37992">
        <ele>257.5</ele>
        <time>2016-8-7T9:38:56.000Z</time>
      </trkpt>
      <trkpt lat="50.19174" lon="4.37992">
        <ele>256.5</ele>
        <time>2016-8-7T9:38:56.000Z</time>
      </trkpt>
      <trkpt lat="50.19174" lon="4.37992">
        <ele>256.5</ele>
        <time>2016-8-7T9:38:56.000Z</time>
      </trkpt>
      <trkpt lat="50.19172" lon="4.3799">
        <ele>255.5</ele>
        <time>2016-8-7T9:38:56.000Z</time>
      </trkpt>
      <trkpt lat="50.19172" lon="4.3799">
        <ele>255.5</ele>
        <time>2016-8-7T9:38:56.000Z</time>
      </trkpt>
      <trkpt lat="50.19171" lon="4.37989">
        <ele>256.5</ele>
        <time>2016-8-7T9:38:56.000Z</time>
      </trkpt>
      <trkpt lat="50.19171" lon="4.37989">
        <ele>256.5</ele>
        <time>2016-8-7T9:38:56.000Z</time>
      </trkpt>
      <trkpt lat="50.1917" lon="4.37987">
        <ele>255.5</ele>
        <time>2016-8-7T9:38:56.000Z</time>
      </trkpt>
      <trkpt lat="50.1917" lon="4.37987">
        <ele>255.5</ele>
        <time>2016-8-7T9:38:56.000Z</time>
      </trkpt>
      <trkpt lat="50.19168" lon="4.37984">
        <ele>255.5</ele>
        <time>2016-8-7T9:38:56.000Z</time>
      </trkpt>
      <trkpt lat="50.19168" lon="4.37984">
        <ele>255.5</ele>
        <time>2016-8-7T9:38:56.000Z</time>
      </trkpt>
      <trkpt lat="50.19166" lon="4.37982">
        <ele>257.5</ele>
        <time>2016-8-7T9:38:56.000Z</time>
      </trkpt>
      <trkpt lat="50.19166" lon="4.37982">
        <ele>257.5</ele>
        <time>2016-8-7T9:38:56.000Z</time>
      </trkpt>
      <trkpt lat="50.19165" lon="4.3798">
        <ele>259.5</ele>
        <time>2016-8-7T9:38:56.000Z</time>
      </trkpt>
      <trkpt lat="50.19165" lon="4.3798">
        <ele>259.5</ele>
        <time>2016-8-7T9:38:56.000Z</time>
      </trkpt>
      <trkpt lat="50.19164" lon="4.37978">
        <ele>259.5</ele>
        <time>2016-8-7T9:38:56.000Z</time>
      </trkpt>
      <trkpt lat="50.19164" lon="4.37978">
        <ele>259.5</ele>
        <time>2016-8-7T9:38:56.000Z</time>
      </trkpt>
      <trkpt lat="50.19163" lon="4.37976">
        <ele>259.5</ele>
        <time>2016-8-7T9:38:56.000Z</time>
      </trkpt>
      <trkpt lat="50.19163" lon="4.37976">
        <ele>259.5</ele>
        <time>2016-8-7T9:40:6.000Z</time>
      </trkpt>
      <trkpt lat="50.19162" lon="4.37973">
        <ele>259.5</ele>
        <time>2016-8-7T9:40:6.000Z</time>
      </trkpt>
      <trkpt lat="50.19162" lon="4.37973">
        <ele>259.5</ele>
        <time>2016-8-7T9:40:6.000Z</time>
      </trkpt>
      <trkpt lat="50.19161" lon="4.3797">
        <ele>259.5</ele>
        <time>2016-8-7T9:40:6.000Z</time>
      </trkpt>
      <trkpt lat="50.19161" lon="4.3797">
        <ele>259.5</ele>
        <time>2016-8-7T9:40:6.000Z</time>
      </trkpt>
      <trkpt lat="50.1916" lon="4.37966">
        <ele>258</ele>
        <time>2016-8-7T9:40:6.000Z</time>
      </trkpt>
      <trkpt lat="50.1916" lon="4.37966">
        <ele>258</ele>
        <time>2016-8-7T9:40:6.000Z</time>
      </trkpt>
      <trkpt lat="50.19159" lon="4.37963">
        <ele>258</ele>
        <time>2016-8-7T9:40:6.000Z</time>
      </trkpt>
      <trkpt lat="50.19159" lon="4.37963">
        <ele>258</ele>
        <time>2016-8-7T9:40:6.000Z</time>
      </trkpt>
      <trkpt lat="50.19159" lon="4.37962">
        <ele>259</ele>
        <time>2016-8-7T9:40:6.000Z</time>
      </trkpt>
      <trkpt lat="50.19159" lon="4.37962">
        <ele>259</ele>
        <time>2016-8-7T9:40:6.000Z</time>
      </trkpt>
      <trkpt lat="50.19156" lon="4.37962">
        <ele>259</ele>
        <time>2016-8-7T9:40:6.000Z</time>
      </trkpt>
      <trkpt lat="50.19156" lon="4.37962">
        <ele>259</ele>
        <time>2016-8-7T9:40:6.000Z</time>
      </trkpt>
      <trkpt lat="50.19155" lon="4.37964">
        <ele>257.5</ele>
        <time>2016-8-7T9:40:6.000Z</time>
      </trkpt>
      <trkpt lat="50.19155" lon="4.37964">
        <ele>257.5</ele>
        <time>2016-8-7T9:40:6.000Z</time>
      </trkpt>
      <trkpt lat="50.19155" lon="4.37966">
        <ele>257.5</ele>
        <time>2016-8-7T9:40:6.000Z</time>
      </trkpt>
      <trkpt lat="50.19155" lon="4.37966">
        <ele>257.5</ele>
        <time>2016-8-7T9:40:6.000Z</time>
      </trkpt>
      <trkpt lat="50.19155" lon="4.37969">
        <ele>257.5</ele>
        <time>2016-8-7T9:40:6.000Z</time>
      </trkpt>
      <trkpt lat="50.19155" lon="4.37969">
        <ele>257.5</ele>
        <time>2016-8-7T9:40:6.000Z</time>
      </trkpt>
      <trkpt lat="50.19154" lon="4.37972">
        <ele>256.5</ele>
        <time>2016-8-7T9:40:6.000Z</time>
      </trkpt>
      <trkpt lat="50.19154" lon="4.37972">
        <ele>256.5</ele>
        <time>2016-8-7T9:40:6.000Z</time>
      </trkpt>
      <trkpt lat="50.19154" lon="4.37975">
        <ele>256</ele>
        <time>2016-8-7T9:40:6.000Z</time>
      </trkpt>
      <trkpt lat="50.19154" lon="4.37975">
        <ele>256</ele>
        <time>2016-8-7T9:40:6.000Z</time>
      </trkpt>
      <trkpt lat="50.19154" lon="4.37978">
        <ele>255.5</ele>
        <time>2016-8-7T9:40:6.000Z</time>
      </trkpt>
      <trkpt lat="50.19154" lon="4.37978">
        <ele>255.5</ele>
        <time>2016-8-7T9:40:6.000Z</time>
      </trkpt>
      <trkpt lat="50.19152" lon="4.37981">
        <ele>254.5</ele>
        <time>2016-8-7T9:40:6.000Z</time>
      </trkpt>
      <trkpt lat="50.19152" lon="4.37981">
        <ele>254.5</ele>
        <time>2016-8-7T9:40:6.000Z</time>
      </trkpt>
      <trkpt lat="50.19151" lon="4.37979">
        <ele>254.5</ele>
        <time>2016-8-7T9:40:6.000Z</time>
      </trkpt>
      <trkpt lat="50.19151" lon="4.37979">
        <ele>254.5</ele>
        <time>2016-8-7T9:40:6.000Z</time>
      </trkpt>
      <trkpt lat="50.19149" lon="4.37977">
        <ele>254.5</ele>
        <time>2016-8-7T9:40:6.000Z</time>
      </trkpt>
      <trkpt lat="50.19149" lon="4.37977">
        <ele>254.5</ele>
        <time>2016-8-7T9:40:6.000Z</time>
      </trkpt>
      <trkpt lat="50.19148" lon="4.37975">
        <ele>255.5</ele>
        <time>2016-8-7T9:40:6.000Z</time>
      </trkpt>
      <trkpt lat="50.19148" lon="4.37975">
        <ele>255.5</ele>
        <time>2016-8-7T9:40:6.000Z</time>
      </trkpt>
      <trkpt lat="50.19148" lon="4.37973">
        <ele>255.5</ele>
        <time>2016-8-7T9:40:6.000Z</time>
      </trkpt>
      <trkpt lat="50.19148" lon="4.37973">
        <ele>255.5</ele>
        <time>2016-8-7T9:40:6.000Z</time>
      </trkpt>
      <trkpt lat="50.19147" lon="4.37971">
        <ele>256.5</ele>
        <time>2016-8-7T9:40:6.000Z</time>
      </trkpt>
      <trkpt lat="50.19147" lon="4.37971">
        <ele>256.5</ele>
        <time>2016-8-7T9:40:6.000Z</time>
      </trkpt>
      <trkpt lat="50.19145" lon="4.37969">
        <ele>255.5</ele>
        <time>2016-8-7T9:40:6.000Z</time>
      </trkpt>
      <trkpt lat="50.19145" lon="4.37969">
        <ele>255.5</ele>
        <time>2016-8-7T9:40:6.000Z</time>
      </trkpt>
      <trkpt lat="50.19144" lon="4.37968">
        <ele>255</ele>
        <time>2016-8-7T9:40:6.000Z</time>
      </trkpt>
      <trkpt lat="50.19144" lon="4.37968">
        <ele>255</ele>
        <time>2016-8-7T9:40:6.000Z</time>
      </trkpt>
      <trkpt lat="50.19144" lon="4.37966">
        <ele>255.5</ele>
        <time>2016-8-7T9:40:6.000Z</time>
      </trkpt>
      <trkpt lat="50.19144" lon="4.37966">
        <ele>255.5</ele>
        <time>2016-8-7T9:40:6.000Z</time>
      </trkpt>
      <trkpt lat="50.19143" lon="4.37962">
        <ele>255.5</ele>
        <time>2016-8-7T9:40:6.000Z</time>
      </trkpt>
      <trkpt lat="50.19143" lon="4.37962">
        <ele>255.5</ele>
        <time>2016-8-7T9:40:6.000Z</time>
      </trkpt>
      <trkpt lat="50.19142" lon="4.37959">
        <ele>255.5</ele>
        <time>2016-8-7T9:40:6.000Z</time>
      </trkpt>
      <trkpt lat="50.19142" lon="4.37959">
        <ele>255.5</ele>
        <time>2016-8-7T9:40:6.000Z</time>
      </trkpt>
      <trkpt lat="50.19142" lon="4.37955">
        <ele>256</ele>
        <time>2016-8-7T9:40:6.000Z</time>
      </trkpt>
      <trkpt lat="50.19142" lon="4.37955">
        <ele>256</ele>
        <time>2016-8-7T9:40:6.000Z</time>
      </trkpt>
      <trkpt lat="50.19141" lon="4.3795">
        <ele>256.5</ele>
        <time>2016-8-7T9:40:6.000Z</time>
      </trkpt>
      <trkpt lat="50.19141" lon="4.3795">
        <ele>256.5</ele>
        <time>2016-8-7T9:40:6.000Z</time>
      </trkpt>
      <trkpt lat="50.19142" lon="4.37948">
        <ele>257</ele>
        <time>2016-8-7T9:40:6.000Z</time>
      </trkpt>
      <trkpt lat="50.19142" lon="4.37948">
        <ele>257</ele>
        <time>2016-8-7T9:40:6.000Z</time>
      </trkpt>
      <trkpt lat="50.19142" lon="4.37945">
        <ele>258</ele>
        <time>2016-8-7T9:40:6.000Z</time>
      </trkpt>
      <trkpt lat="50.19142" lon="4.37945">
        <ele>258</ele>
        <time>2016-8-7T9:40:6.000Z</time>
      </trkpt>
      <trkpt lat="50.19141" lon="4.37941">
        <ele>258.5</ele>
        <time>2016-8-7T9:40:6.000Z</time>
      </trkpt>
      <trkpt lat="50.19141" lon="4.37941">
        <ele>258.5</ele>
        <time>2016-8-7T9:40:6.000Z</time>
      </trkpt>
      <trkpt lat="50.19142" lon="4.37937">
        <ele>259</ele>
        <time>2016-8-7T9:40:6.000Z</time>
      </trkpt>
      <trkpt lat="50.19142" lon="4.37937">
        <ele>259</ele>
        <time>2016-8-7T9:40:6.000Z</time>
      </trkpt>
      <trkpt lat="50.19142" lon="4.37935">
        <ele>259.5</ele>
        <time>2016-8-7T9:40:6.000Z</time>
      </trkpt>
      <trkpt lat="50.19142" lon="4.37935">
        <ele>259.5</ele>
        <time>2016-8-7T9:40:6.000Z</time>
      </trkpt>
      <trkpt lat="50.19141" lon="4.37931">
        <ele>260.5</ele>
        <time>2016-8-7T9:40:6.000Z</time>
      </trkpt>
      <trkpt lat="50.19141" lon="4.37931">
        <ele>260.5</ele>
        <time>2016-8-7T9:40:6.000Z</time>
      </trkpt>
      <trkpt lat="50.1914" lon="4.37928">
        <ele>261</ele>
        <time>2016-8-7T9:40:6.000Z</time>
      </trkpt>
      <trkpt lat="50.1914" lon="4.37928">
        <ele>261</ele>
        <time>2016-8-7T9:40:6.000Z</time>
      </trkpt>
      <trkpt lat="50.1914" lon="4.37926">
        <ele>262</ele>
        <time>2016-8-7T9:40:6.000Z</time>
      </trkpt>
      <trkpt lat="50.1914" lon="4.37926">
        <ele>262</ele>
        <time>2016-8-7T9:40:6.000Z</time>
      </trkpt>
      <trkpt lat="50.1914" lon="4.37923">
        <ele>262.5</ele>
        <time>2016-8-7T9:40:6.000Z</time>
      </trkpt>
      <trkpt lat="50.1914" lon="4.37923">
        <ele>262.5</ele>
        <time>2016-8-7T9:40:6.000Z</time>
      </trkpt>
      <trkpt lat="50.19139" lon="4.37919">
        <ele>263.5</ele>
        <time>2016-8-7T9:40:6.000Z</time>
      </trkpt>
      <trkpt lat="50.19139" lon="4.37919">
        <ele>263.5</ele>
        <time>2016-8-7T9:40:6.000Z</time>
      </trkpt>
      <trkpt lat="50.19138" lon="4.37917">
        <ele>264</ele>
        <time>2016-8-7T9:40:6.000Z</time>
      </trkpt>
      <trkpt lat="50.19138" lon="4.37917">
        <ele>264</ele>
        <time>2016-8-7T9:40:6.000Z</time>
      </trkpt>
      <trkpt lat="50.19138" lon="4.37914">
        <ele>265.5</ele>
        <time>2016-8-7T9:40:6.000Z</time>
      </trkpt>
      <trkpt lat="50.19138" lon="4.37914">
        <ele>265.5</ele>
        <time>2016-8-7T9:40:6.000Z</time>
      </trkpt>
      <trkpt lat="50.19135" lon="4.37907">
        <ele>266.5</ele>
        <time>2016-8-7T9:40:6.000Z</time>
      </trkpt>
      <trkpt lat="50.19135" lon="4.37907">
        <ele>266.5</ele>
        <time>2016-8-7T9:40:6.000Z</time>
      </trkpt>
      <trkpt lat="50.19134" lon="4.37904">
        <ele>266.5</ele>
        <time>2016-8-7T9:40:6.000Z</time>
      </trkpt>
      <trkpt lat="50.19134" lon="4.37904">
        <ele>266.5</ele>
        <time>2016-8-7T9:40:6.000Z</time>
      </trkpt>
      <trkpt lat="50.19132" lon="4.379">
        <ele>267</ele>
        <time>2016-8-7T9:40:6.000Z</time>
      </trkpt>
      <trkpt lat="50.19132" lon="4.379">
        <ele>267</ele>
        <time>2016-8-7T9:40:6.000Z</time>
      </trkpt>
      <trkpt lat="50.1913" lon="4.37898">
        <ele>267</ele>
        <time>2016-8-7T9:40:6.000Z</time>
      </trkpt>
      <trkpt lat="50.1913" lon="4.37898">
        <ele>267</ele>
        <time>2016-8-7T9:40:6.000Z</time>
      </trkpt>
      <trkpt lat="50.1913" lon="4.37896">
        <ele>267</ele>
        <time>2016-8-7T9:40:6.000Z</time>
      </trkpt>
      <trkpt lat="50.1913" lon="4.37896">
        <ele>267</ele>
        <time>2016-8-7T9:40:6.000Z</time>
      </trkpt>
      <trkpt lat="50.19129" lon="4.37894">
        <ele>267</ele>
        <time>2016-8-7T9:40:6.000Z</time>
      </trkpt>
      <trkpt lat="50.19129" lon="4.37894">
        <ele>267</ele>
        <time>2016-8-7T9:40:6.000Z</time>
      </trkpt>
      <trkpt lat="50.19127" lon="4.37889">
        <ele>266.5</ele>
        <time>2016-8-7T9:40:6.000Z</time>
      </trkpt>
      <trkpt lat="50.19127" lon="4.37889">
        <ele>266.5</ele>
        <time>2016-8-7T9:40:6.000Z</time>
      </trkpt>
      <trkpt lat="50.19127" lon="4.37886">
        <ele>266.5</ele>
        <time>2016-8-7T9:40:6.000Z</time>
      </trkpt>
      <trkpt lat="50.19127" lon="4.37886">
        <ele>266.5</ele>
        <time>2016-8-7T9:40:6.000Z</time>
      </trkpt>
      <trkpt lat="50.19127" lon="4.37884">
        <ele>266.5</ele>
        <time>2016-8-7T9:40:6.000Z</time>
      </trkpt>
      <trkpt lat="50.19127" lon="4.37884">
        <ele>266.5</ele>
        <time>2016-8-7T9:40:6.000Z</time>
      </trkpt>
      <trkpt lat="50.19126" lon="4.37882">
        <ele>266.5</ele>
        <time>2016-8-7T9:40:6.000Z</time>
      </trkpt>
      <trkpt lat="50.19126" lon="4.37882">
        <ele>266.5</ele>
        <time>2016-8-7T9:40:6.000Z</time>
      </trkpt>
      <trkpt lat="50.19126" lon="4.37879">
        <ele>266.5</ele>
        <time>2016-8-7T9:40:6.000Z</time>
      </trkpt>
      <trkpt lat="50.19126" lon="4.37879">
        <ele>266.5</ele>
        <time>2016-8-7T9:40:6.000Z</time>
      </trkpt>
      <trkpt lat="50.19126" lon="4.37877">
        <ele>267</ele>
        <time>2016-8-7T9:40:6.000Z</time>
      </trkpt>
      <trkpt lat="50.19126" lon="4.37877">
        <ele>267</ele>
        <time>2016-8-7T9:40:6.000Z</time>
      </trkpt>
      <trkpt lat="50.19125" lon="4.37875">
        <ele>267</ele>
        <time>2016-8-7T9:40:6.000Z</time>
      </trkpt>
      <trkpt lat="50.19125" lon="4.37875">
        <ele>267</ele>
        <time>2016-8-7T9:40:6.000Z</time>
      </trkpt>
      <trkpt lat="50.19124" lon="4.37871">
        <ele>267.5</ele>
        <time>2016-8-7T9:41:20.000Z</time>
      </trkpt>
      <trkpt lat="50.19124" lon="4.37871">
        <ele>267.5</ele>
        <time>2016-8-7T9:41:20.000Z</time>
      </trkpt>
      <trkpt lat="50.19123" lon="4.37867">
        <ele>268</ele>
        <time>2016-8-7T9:41:20.000Z</time>
      </trkpt>
      <trkpt lat="50.19123" lon="4.37867">
        <ele>268</ele>
        <time>2016-8-7T9:41:20.000Z</time>
      </trkpt>
      <trkpt lat="50.19122" lon="4.37864">
        <ele>268</ele>
        <time>2016-8-7T9:41:20.000Z</time>
      </trkpt>
      <trkpt lat="50.19122" lon="4.37864">
        <ele>268</ele>
        <time>2016-8-7T9:41:20.000Z</time>
      </trkpt>
      <trkpt lat="50.19122" lon="4.37862">
        <ele>269</ele>
        <time>2016-8-7T9:41:20.000Z</time>
      </trkpt>
      <trkpt lat="50.19122" lon="4.37862">
        <ele>269</ele>
        <time>2016-8-7T9:41:20.000Z</time>
      </trkpt>
      <trkpt lat="50.19121" lon="4.37859">
        <ele>270</ele>
        <time>2016-8-7T9:41:20.000Z</time>
      </trkpt>
      <trkpt lat="50.19121" lon="4.37859">
        <ele>270</ele>
        <time>2016-8-7T9:41:20.000Z</time>
      </trkpt>
      <trkpt lat="50.1912" lon="4.37856">
        <ele>270.5</ele>
        <time>2016-8-7T9:41:20.000Z</time>
      </trkpt>
      <trkpt lat="50.1912" lon="4.37856">
        <ele>270.5</ele>
        <time>2016-8-7T9:41:20.000Z</time>
      </trkpt>
      <trkpt lat="50.1912" lon="4.37852">
        <ele>271</ele>
        <time>2016-8-7T9:41:20.000Z</time>
      </trkpt>
      <trkpt lat="50.1912" lon="4.37852">
        <ele>271</ele>
        <time>2016-8-7T9:41:20.000Z</time>
      </trkpt>
      <trkpt lat="50.1912" lon="4.37848">
        <ele>271.5</ele>
        <time>2016-8-7T9:41:20.000Z</time>
      </trkpt>
      <trkpt lat="50.1912" lon="4.37848">
        <ele>271.5</ele>
        <time>2016-8-7T9:41:20.000Z</time>
      </trkpt>
      <trkpt lat="50.1912" lon="4.37845">
        <ele>272.5</ele>
        <time>2016-8-7T9:41:20.000Z</time>
      </trkpt>
      <trkpt lat="50.1912" lon="4.37845">
        <ele>272.5</ele>
        <time>2016-8-7T9:41:20.000Z</time>
      </trkpt>
      <trkpt lat="50.1912" lon="4.37842">
        <ele>272.5</ele>
        <time>2016-8-7T9:41:20.000Z</time>
      </trkpt>
      <trkpt lat="50.1912" lon="4.37842">
        <ele>272.5</ele>
        <time>2016-8-7T9:41:20.000Z</time>
      </trkpt>
      <trkpt lat="50.1912" lon="4.3784">
        <ele>272.5</ele>
        <time>2016-8-7T9:41:20.000Z</time>
      </trkpt>
      <trkpt lat="50.1912" lon="4.3784">
        <ele>272.5</ele>
        <time>2016-8-7T9:41:20.000Z</time>
      </trkpt>
      <trkpt lat="50.1912" lon="4.37836">
        <ele>273</ele>
        <time>2016-8-7T9:41:20.000Z</time>
      </trkpt>
      <trkpt lat="50.1912" lon="4.37836">
        <ele>273</ele>
        <time>2016-8-7T9:41:20.000Z</time>
      </trkpt>
      <trkpt lat="50.1912" lon="4.37834">
        <ele>273</ele>
        <time>2016-8-7T9:41:20.000Z</time>
      </trkpt>
      <trkpt lat="50.1912" lon="4.37834">
        <ele>273</ele>
        <time>2016-8-7T9:41:20.000Z</time>
      </trkpt>
      <trkpt lat="50.1912" lon="4.37831">
        <ele>273</ele>
        <time>2016-8-7T9:41:20.000Z</time>
      </trkpt>
      <trkpt lat="50.1912" lon="4.37831">
        <ele>273</ele>
        <time>2016-8-7T9:41:20.000Z</time>
      </trkpt>
      <trkpt lat="50.1912" lon="4.37829">
        <ele>273</ele>
        <time>2016-8-7T9:41:20.000Z</time>
      </trkpt>
      <trkpt lat="50.1912" lon="4.37829">
        <ele>273</ele>
        <time>2016-8-7T9:41:20.000Z</time>
      </trkpt>
      <trkpt lat="50.19119" lon="4.37826">
        <ele>273</ele>
        <time>2016-8-7T9:41:20.000Z</time>
      </trkpt>
      <trkpt lat="50.19119" lon="4.37826">
        <ele>273</ele>
        <time>2016-8-7T9:41:20.000Z</time>
      </trkpt>
      <trkpt lat="50.19119" lon="4.37825">
        <ele>273</ele>
        <time>2016-8-7T9:41:20.000Z</time>
      </trkpt>
      <trkpt lat="50.19119" lon="4.37825">
        <ele>273</ele>
        <time>2016-8-7T9:41:20.000Z</time>
      </trkpt>
      <trkpt lat="50.19119" lon="4.37822">
        <ele>273.5</ele>
        <time>2016-8-7T9:41:20.000Z</time>
      </trkpt>
      <trkpt lat="50.19119" lon="4.37822">
        <ele>273.5</ele>
        <time>2016-8-7T9:41:20.000Z</time>
      </trkpt>
      <trkpt lat="50.19118" lon="4.37818">
        <ele>273.5</ele>
        <time>2016-8-7T9:41:20.000Z</time>
      </trkpt>
      <trkpt lat="50.19118" lon="4.37818">
        <ele>273.5</ele>
        <time>2016-8-7T9:41:20.000Z</time>
      </trkpt>
      <trkpt lat="50.19117" lon="4.37813">
        <ele>273</ele>
        <time>2016-8-7T9:41:20.000Z</time>
      </trkpt>
      <trkpt lat="50.19117" lon="4.37813">
        <ele>273</ele>
        <time>2016-8-7T9:41:20.000Z</time>
      </trkpt>
      <trkpt lat="50.19117" lon="4.37811">
        <ele>273</ele>
        <time>2016-8-7T9:41:20.000Z</time>
      </trkpt>
      <trkpt lat="50.19117" lon="4.37811">
        <ele>273</ele>
        <time>2016-8-7T9:41:20.000Z</time>
      </trkpt>
      <trkpt lat="50.19117" lon="4.37809">
        <ele>273</ele>
        <time>2016-8-7T9:41:20.000Z</time>
      </trkpt>
      <trkpt lat="50.19117" lon="4.37809">
        <ele>273</ele>
        <time>2016-8-7T9:41:20.000Z</time>
      </trkpt>
      <trkpt lat="50.19117" lon="4.37805">
        <ele>273</ele>
        <time>2016-8-7T9:41:20.000Z</time>
      </trkpt>
      <trkpt lat="50.19117" lon="4.37805">
        <ele>273</ele>
        <time>2016-8-7T9:41:20.000Z</time>
      </trkpt>
      <trkpt lat="50.19118" lon="4.37802">
        <ele>272.5</ele>
        <time>2016-8-7T9:41:20.000Z</time>
      </trkpt>
      <trkpt lat="50.19118" lon="4.37802">
        <ele>272.5</ele>
        <time>2016-8-7T9:41:20.000Z</time>
      </trkpt>
      <trkpt lat="50.19118" lon="4.37799">
        <ele>272</ele>
        <time>2016-8-7T9:41:20.000Z</time>
      </trkpt>
      <trkpt lat="50.19118" lon="4.37799">
        <ele>272</ele>
        <time>2016-8-7T9:41:20.000Z</time>
      </trkpt>
      <trkpt lat="50.19118" lon="4.37797">
        <ele>271.5</ele>
        <time>2016-8-7T9:41:20.000Z</time>
      </trkpt>
      <trkpt lat="50.19118" lon="4.37797">
        <ele>271.5</ele>
        <time>2016-8-7T9:41:20.000Z</time>
      </trkpt>
      <trkpt lat="50.19118" lon="4.37794">
        <ele>271.5</ele>
        <time>2016-8-7T9:41:20.000Z</time>
      </trkpt>
      <trkpt lat="50.19118" lon="4.37794">
        <ele>271.5</ele>
        <time>2016-8-7T9:41:20.000Z</time>
      </trkpt>
      <trkpt lat="50.19118" lon="4.37791">
        <ele>271</ele>
        <time>2016-8-7T9:41:20.000Z</time>
      </trkpt>
      <trkpt lat="50.19118" lon="4.37791">
        <ele>271</ele>
        <time>2016-8-7T9:41:20.000Z</time>
      </trkpt>
      <trkpt lat="50.19117" lon="4.37788">
        <ele>271</ele>
        <time>2016-8-7T9:41:20.000Z</time>
      </trkpt>
      <trkpt lat="50.19117" lon="4.37788">
        <ele>271</ele>
        <time>2016-8-7T9:41:20.000Z</time>
      </trkpt>
      <trkpt lat="50.19117" lon="4.37783">
        <ele>271</ele>
        <time>2016-8-7T9:41:20.000Z</time>
      </trkpt>
      <trkpt lat="50.19117" lon="4.37783">
        <ele>271</ele>
        <time>2016-8-7T9:41:20.000Z</time>
      </trkpt>
      <trkpt lat="50.19116" lon="4.37779">
        <ele>271.5</ele>
        <time>2016-8-7T9:41:20.000Z</time>
      </trkpt>
      <trkpt lat="50.19116" lon="4.37779">
        <ele>271.5</ele>
        <time>2016-8-7T9:41:20.000Z</time>
      </trkpt>
      <trkpt lat="50.19116" lon="4.37775">
        <ele>271.5</ele>
        <time>2016-8-7T9:41:20.000Z</time>
      </trkpt>
      <trkpt lat="50.19116" lon="4.37775">
        <ele>271.5</ele>
        <time>2016-8-7T9:41:20.000Z</time>
      </trkpt>
      <trkpt lat="50.19115" lon="4.37771">
        <ele>271.5</ele>
        <time>2016-8-7T9:41:20.000Z</time>
      </trkpt>
      <trkpt lat="50.19115" lon="4.37771">
        <ele>271.5</ele>
        <time>2016-8-7T9:41:20.000Z</time>
      </trkpt>
      <trkpt lat="50.19115" lon="4.37768">
        <ele>271</ele>
        <time>2016-8-7T9:41:20.000Z</time>
      </trkpt>
      <trkpt lat="50.19115" lon="4.37768">
        <ele>271</ele>
        <time>2016-8-7T9:41:20.000Z</time>
      </trkpt>
      <trkpt lat="50.19115" lon="4.37765">
        <ele>271</ele>
        <time>2016-8-7T9:41:20.000Z</time>
      </trkpt>
      <trkpt lat="50.19115" lon="4.37765">
        <ele>271</ele>
        <time>2016-8-7T9:41:20.000Z</time>
      </trkpt>
      <trkpt lat="50.19115" lon="4.37763">
        <ele>270.5</ele>
        <time>2016-8-7T9:41:20.000Z</time>
      </trkpt>
      <trkpt lat="50.19115" lon="4.37763">
        <ele>270.5</ele>
        <time>2016-8-7T9:41:20.000Z</time>
      </trkpt>
      <trkpt lat="50.19115" lon="4.37759">
        <ele>270</ele>
        <time>2016-8-7T9:41:20.000Z</time>
      </trkpt>
      <trkpt lat="50.19115" lon="4.37759">
        <ele>270</ele>
        <time>2016-8-7T9:41:20.000Z</time>
      </trkpt>
      <trkpt lat="50.19114" lon="4.37756">
        <ele>270</ele>
        <time>2016-8-7T9:41:20.000Z</time>
      </trkpt>
      <trkpt lat="50.19114" lon="4.37756">
        <ele>270</ele>
        <time>2016-8-7T9:41:20.000Z</time>
      </trkpt>
      <trkpt lat="50.19112" lon="4.37754">
        <ele>269</ele>
        <time>2016-8-7T9:41:20.000Z</time>
      </trkpt>
      <trkpt lat="50.19112" lon="4.37754">
        <ele>269</ele>
        <time>2016-8-7T9:41:20.000Z</time>
      </trkpt>
      <trkpt lat="50.1911" lon="4.37752">
        <ele>268.5</ele>
        <time>2016-8-7T9:41:20.000Z</time>
      </trkpt>
      <trkpt lat="50.1911" lon="4.37752">
        <ele>268.5</ele>
        <time>2016-8-7T9:41:20.000Z</time>
      </trkpt>
      <trkpt lat="50.19109" lon="4.37751">
        <ele>268</ele>
        <time>2016-8-7T9:41:20.000Z</time>
      </trkpt>
      <trkpt lat="50.19109" lon="4.37751">
        <ele>268</ele>
        <time>2016-8-7T9:41:20.000Z</time>
      </trkpt>
      <trkpt lat="50.19108" lon="4.3775">
        <ele>268</ele>
        <time>2016-8-7T9:41:20.000Z</time>
      </trkpt>
      <trkpt lat="50.19108" lon="4.3775">
        <ele>268</ele>
        <time>2016-8-7T9:41:20.000Z</time>
      </trkpt>
      <trkpt lat="50.19106" lon="4.3775">
        <ele>267.5</ele>
        <time>2016-8-7T9:41:20.000Z</time>
      </trkpt>
      <trkpt lat="50.19106" lon="4.3775">
        <ele>267.5</ele>
        <time>2016-8-7T9:41:20.000Z</time>
      </trkpt>
      <trkpt lat="50.19104" lon="4.37749">
        <ele>266.5</ele>
        <time>2016-8-7T9:41:20.000Z</time>
      </trkpt>
      <trkpt lat="50.19104" lon="4.37749">
        <ele>266.5</ele>
        <time>2016-8-7T9:41:20.000Z</time>
      </trkpt>
      <trkpt lat="50.19101" lon="4.37747">
        <ele>266.5</ele>
        <time>2016-8-7T9:41:20.000Z</time>
      </trkpt>
      <trkpt lat="50.19101" lon="4.37747">
        <ele>266.5</ele>
        <time>2016-8-7T9:41:20.000Z</time>
      </trkpt>
      <trkpt lat="50.191" lon="4.37746">
        <ele>266</ele>
        <time>2016-8-7T9:41:20.000Z</time>
      </trkpt>
      <trkpt lat="50.191" lon="4.37746">
        <ele>266</ele>
        <time>2016-8-7T9:41:20.000Z</time>
      </trkpt>
      <trkpt lat="50.19098" lon="4.37743">
        <ele>266</ele>
        <time>2016-8-7T9:41:20.000Z</time>
      </trkpt>
      <trkpt lat="50.19098" lon="4.37743">
        <ele>266</ele>
        <time>2016-8-7T9:41:20.000Z</time>
      </trkpt>
      <trkpt lat="50.19097" lon="4.37741">
        <ele>266</ele>
        <time>2016-8-7T9:41:20.000Z</time>
      </trkpt>
      <trkpt lat="50.19097" lon="4.37741">
        <ele>266</ele>
        <time>2016-8-7T9:41:20.000Z</time>
      </trkpt>
      <trkpt lat="50.19095" lon="4.37738">
        <ele>265.5</ele>
        <time>2016-8-7T9:41:20.000Z</time>
      </trkpt>
      <trkpt lat="50.19095" lon="4.37738">
        <ele>265.5</ele>
        <time>2016-8-7T9:41:20.000Z</time>
      </trkpt>
      <trkpt lat="50.19094" lon="4.37736">
        <ele>265.5</ele>
        <time>2016-8-7T9:41:20.000Z</time>
      </trkpt>
      <trkpt lat="50.19094" lon="4.37736">
        <ele>265.5</ele>
        <time>2016-8-7T9:41:20.000Z</time>
      </trkpt>
      <trkpt lat="50.19092" lon="4.37735">
        <ele>265</ele>
        <time>2016-8-7T9:41:20.000Z</time>
      </trkpt>
      <trkpt lat="50.19092" lon="4.37735">
        <ele>265</ele>
        <time>2016-8-7T9:42:31.000Z</time>
      </trkpt>
      <trkpt lat="50.19091" lon="4.37733">
        <ele>265</ele>
        <time>2016-8-7T9:42:31.000Z</time>
      </trkpt>
      <trkpt lat="50.19091" lon="4.37733">
        <ele>265</ele>
        <time>2016-8-7T9:42:31.000Z</time>
      </trkpt>
      <trkpt lat="50.1909" lon="4.37732">
        <ele>264.5</ele>
        <time>2016-8-7T9:42:31.000Z</time>
      </trkpt>
      <trkpt lat="50.1909" lon="4.37732">
        <ele>264.5</ele>
        <time>2016-8-7T9:42:31.000Z</time>
      </trkpt>
      <trkpt lat="50.19089" lon="4.37731">
        <ele>264.5</ele>
        <time>2016-8-7T9:42:31.000Z</time>
      </trkpt>
      <trkpt lat="50.19089" lon="4.37731">
        <ele>264.5</ele>
        <time>2016-8-7T9:42:31.000Z</time>
      </trkpt>
      <trkpt lat="50.19088" lon="4.37729">
        <ele>264.5</ele>
        <time>2016-8-7T9:42:31.000Z</time>
      </trkpt>
      <trkpt lat="50.19088" lon="4.37729">
        <ele>264.5</ele>
        <time>2016-8-7T9:42:31.000Z</time>
      </trkpt>
      <trkpt lat="50.19085" lon="4.37727">
        <ele>264</ele>
        <time>2016-8-7T9:42:31.000Z</time>
      </trkpt>
      <trkpt lat="50.19085" lon="4.37727">
        <ele>264</ele>
        <time>2016-8-7T9:42:31.000Z</time>
      </trkpt>
      <trkpt lat="50.19084" lon="4.37726">
        <ele>264</ele>
        <time>2016-8-7T9:42:31.000Z</time>
      </trkpt>
      <trkpt lat="50.19084" lon="4.37726">
        <ele>264</ele>
        <time>2016-8-7T9:42:31.000Z</time>
      </trkpt>
      <trkpt lat="50.19082" lon="4.37724">
        <ele>263.5</ele>
        <time>2016-8-7T9:42:31.000Z</time>
      </trkpt>
      <trkpt lat="50.19082" lon="4.37724">
        <ele>263.5</ele>
        <time>2016-8-7T9:42:31.000Z</time>
      </trkpt>
      <trkpt lat="50.19081" lon="4.37723">
        <ele>263.5</ele>
        <time>2016-8-7T9:42:31.000Z</time>
      </trkpt>
      <trkpt lat="50.19081" lon="4.37723">
        <ele>263.5</ele>
        <time>2016-8-7T9:42:31.000Z</time>
      </trkpt>
      <trkpt lat="50.19079" lon="4.37722">
        <ele>262.5</ele>
        <time>2016-8-7T9:42:31.000Z</time>
      </trkpt>
      <trkpt lat="50.19079" lon="4.37722">
        <ele>262.5</ele>
        <time>2016-8-7T9:42:31.000Z</time>
      </trkpt>
      <trkpt lat="50.19078" lon="4.37722">
        <ele>261.5</ele>
        <time>2016-8-7T9:42:31.000Z</time>
      </trkpt>
      <trkpt lat="50.19078" lon="4.37722">
        <ele>261.5</ele>
        <time>2016-8-7T9:42:31.000Z</time>
      </trkpt>
      <trkpt lat="50.19076" lon="4.37721">
        <ele>261.5</ele>
        <time>2016-8-7T9:42:31.000Z</time>
      </trkpt>
      <trkpt lat="50.19076" lon="4.37721">
        <ele>261.5</ele>
        <time>2016-8-7T9:42:31.000Z</time>
      </trkpt>
      <trkpt lat="50.19075" lon="4.3772">
        <ele>261.5</ele>
        <time>2016-8-7T9:42:31.000Z</time>
      </trkpt>
      <trkpt lat="50.19075" lon="4.3772">
        <ele>261.5</ele>
        <time>2016-8-7T9:42:31.000Z</time>
      </trkpt>
      <trkpt lat="50.19073" lon="4.37718">
        <ele>261.5</ele>
        <time>2016-8-7T9:42:31.000Z</time>
      </trkpt>
      <trkpt lat="50.19073" lon="4.37718">
        <ele>261.5</ele>
        <time>2016-8-7T9:42:31.000Z</time>
      </trkpt>
      <trkpt lat="50.19072" lon="4.37718">
        <ele>261.5</ele>
        <time>2016-8-7T9:42:31.000Z</time>
      </trkpt>
      <trkpt lat="50.19072" lon="4.37718">
        <ele>261.5</ele>
        <time>2016-8-7T9:42:31.000Z</time>
      </trkpt>
      <trkpt lat="50.19071" lon="4.37715">
        <ele>261.5</ele>
        <time>2016-8-7T9:42:31.000Z</time>
      </trkpt>
      <trkpt lat="50.19071" lon="4.37715">
        <ele>261.5</ele>
        <time>2016-8-7T9:42:31.000Z</time>
      </trkpt>
      <trkpt lat="50.19069" lon="4.37713">
        <ele>262</ele>
        <time>2016-8-7T9:42:31.000Z</time>
      </trkpt>
      <trkpt lat="50.19069" lon="4.37713">
        <ele>262</ele>
        <time>2016-8-7T9:42:31.000Z</time>
      </trkpt>
      <trkpt lat="50.19067" lon="4.3771">
        <ele>262</ele>
        <time>2016-8-7T9:42:31.000Z</time>
      </trkpt>
      <trkpt lat="50.19067" lon="4.3771">
        <ele>262</ele>
        <time>2016-8-7T9:42:31.000Z</time>
      </trkpt>
      <trkpt lat="50.19065" lon="4.37709">
        <ele>261.5</ele>
        <time>2016-8-7T9:42:31.000Z</time>
      </trkpt>
      <trkpt lat="50.19065" lon="4.37709">
        <ele>261.5</ele>
        <time>2016-8-7T9:42:31.000Z</time>
      </trkpt>
      <trkpt lat="50.19063" lon="4.37707">
        <ele>261</ele>
        <time>2016-8-7T9:42:31.000Z</time>
      </trkpt>
      <trkpt lat="50.19063" lon="4.37707">
        <ele>261</ele>
        <time>2016-8-7T9:42:31.000Z</time>
      </trkpt>
      <trkpt lat="50.19061" lon="4.37704">
        <ele>260.5</ele>
        <time>2016-8-7T9:42:31.000Z</time>
      </trkpt>
      <trkpt lat="50.19061" lon="4.37704">
        <ele>260.5</ele>
        <time>2016-8-7T9:42:31.000Z</time>
      </trkpt>
      <trkpt lat="50.1906" lon="4.37703">
        <ele>260</ele>
        <time>2016-8-7T9:42:31.000Z</time>
      </trkpt>
      <trkpt lat="50.1906" lon="4.37703">
        <ele>260</ele>
        <time>2016-8-7T9:42:31.000Z</time>
      </trkpt>
      <trkpt lat="50.19058" lon="4.377">
        <ele>259.5</ele>
        <time>2016-8-7T9:42:31.000Z</time>
      </trkpt>
      <trkpt lat="50.19058" lon="4.377">
        <ele>259.5</ele>
        <time>2016-8-7T9:42:31.000Z</time>
      </trkpt>
      <trkpt lat="50.19056" lon="4.37698">
        <ele>259.5</ele>
        <time>2016-8-7T9:42:31.000Z</time>
      </trkpt>
      <trkpt lat="50.19056" lon="4.37698">
        <ele>259.5</ele>
        <time>2016-8-7T9:42:31.000Z</time>
      </trkpt>
      <trkpt lat="50.19054" lon="4.37696">
        <ele>259</ele>
        <time>2016-8-7T9:42:31.000Z</time>
      </trkpt>
      <trkpt lat="50.19054" lon="4.37696">
        <ele>259</ele>
        <time>2016-8-7T9:42:31.000Z</time>
      </trkpt>
      <trkpt lat="50.19054" lon="4.37695">
        <ele>259</ele>
        <time>2016-8-7T9:42:31.000Z</time>
      </trkpt>
      <trkpt lat="50.19054" lon="4.37695">
        <ele>259</ele>
        <time>2016-8-7T9:42:31.000Z</time>
      </trkpt>
      <trkpt lat="50.19052" lon="4.37693">
        <ele>259</ele>
        <time>2016-8-7T9:42:31.000Z</time>
      </trkpt>
      <trkpt lat="50.19052" lon="4.37693">
        <ele>259</ele>
        <time>2016-8-7T9:42:31.000Z</time>
      </trkpt>
      <trkpt lat="50.19049" lon="4.37691">
        <ele>258.5</ele>
        <time>2016-8-7T9:42:31.000Z</time>
      </trkpt>
      <trkpt lat="50.19049" lon="4.37691">
        <ele>258.5</ele>
        <time>2016-8-7T9:42:31.000Z</time>
      </trkpt>
      <trkpt lat="50.19048" lon="4.3769">
        <ele>258.5</ele>
        <time>2016-8-7T9:42:31.000Z</time>
      </trkpt>
      <trkpt lat="50.19048" lon="4.3769">
        <ele>258.5</ele>
        <time>2016-8-7T9:42:31.000Z</time>
      </trkpt>
      <trkpt lat="50.19045" lon="4.37688">
        <ele>258.5</ele>
        <time>2016-8-7T9:42:31.000Z</time>
      </trkpt>
      <trkpt lat="50.19045" lon="4.37688">
        <ele>258.5</ele>
        <time>2016-8-7T9:42:31.000Z</time>
      </trkpt>
      <trkpt lat="50.19044" lon="4.37687">
        <ele>258.5</ele>
        <time>2016-8-7T9:42:31.000Z</time>
      </trkpt>
      <trkpt lat="50.19044" lon="4.37687">
        <ele>258.5</ele>
        <time>2016-8-7T9:42:31.000Z</time>
      </trkpt>
      <trkpt lat="50.19042" lon="4.37685">
        <ele>258.5</ele>
        <time>2016-8-7T9:42:31.000Z</time>
      </trkpt>
      <trkpt lat="50.19042" lon="4.37685">
        <ele>258.5</ele>
        <time>2016-8-7T9:42:31.000Z</time>
      </trkpt>
      <trkpt lat="50.19041" lon="4.37684">
        <ele>258.5</ele>
        <time>2016-8-7T9:42:31.000Z</time>
      </trkpt>
      <trkpt lat="50.19041" lon="4.37684">
        <ele>258.5</ele>
        <time>2016-8-7T9:42:31.000Z</time>
      </trkpt>
      <trkpt lat="50.19038" lon="4.37682">
        <ele>258</ele>
        <time>2016-8-7T9:42:31.000Z</time>
      </trkpt>
      <trkpt lat="50.19038" lon="4.37682">
        <ele>258</ele>
        <time>2016-8-7T9:42:31.000Z</time>
      </trkpt>
      <trkpt lat="50.19036" lon="4.37681">
        <ele>257.5</ele>
        <time>2016-8-7T9:42:31.000Z</time>
      </trkpt>
      <trkpt lat="50.19036" lon="4.37681">
        <ele>257.5</ele>
        <time>2016-8-7T9:42:31.000Z</time>
      </trkpt>
      <trkpt lat="50.19034" lon="4.37679">
        <ele>257.5</ele>
        <time>2016-8-7T9:42:31.000Z</time>
      </trkpt>
      <trkpt lat="50.19034" lon="4.37679">
        <ele>257.5</ele>
        <time>2016-8-7T9:42:31.000Z</time>
      </trkpt>
      <trkpt lat="50.19032" lon="4.37678">
        <ele>258</ele>
        <time>2016-8-7T9:42:31.000Z</time>
      </trkpt>
      <trkpt lat="50.19032" lon="4.37678">
        <ele>258</ele>
        <time>2016-8-7T9:42:31.000Z</time>
      </trkpt>
      <trkpt lat="50.19029" lon="4.37677">
        <ele>258</ele>
        <time>2016-8-7T9:42:31.000Z</time>
      </trkpt>
      <trkpt lat="50.19029" lon="4.37677">
        <ele>258</ele>
        <time>2016-8-7T9:42:31.000Z</time>
      </trkpt>
      <trkpt lat="50.19027" lon="4.37677">
        <ele>257.5</ele>
        <time>2016-8-7T9:42:31.000Z</time>
      </trkpt>
      <trkpt lat="50.19027" lon="4.37677">
        <ele>257.5</ele>
        <time>2016-8-7T9:42:31.000Z</time>
      </trkpt>
      <trkpt lat="50.19026" lon="4.37677">
        <ele>257.5</ele>
        <time>2016-8-7T9:42:31.000Z</time>
      </trkpt>
      <trkpt lat="50.19026" lon="4.37677">
        <ele>257.5</ele>
        <time>2016-8-7T9:42:31.000Z</time>
      </trkpt>
      <trkpt lat="50.19025" lon="4.37677">
        <ele>257.5</ele>
        <time>2016-8-7T9:42:31.000Z</time>
      </trkpt>
      <trkpt lat="50.19025" lon="4.37677">
        <ele>257.5</ele>
        <time>2016-8-7T9:42:31.000Z</time>
      </trkpt>
      <trkpt lat="50.19023" lon="4.37676">
        <ele>257.5</ele>
        <time>2016-8-7T9:42:31.000Z</time>
      </trkpt>
      <trkpt lat="50.19023" lon="4.37676">
        <ele>257.5</ele>
        <time>2016-8-7T9:42:31.000Z</time>
      </trkpt>
      <trkpt lat="50.1902" lon="4.37676">
        <ele>257.5</ele>
        <time>2016-8-7T9:42:31.000Z</time>
      </trkpt>
      <trkpt lat="50.1902" lon="4.37676">
        <ele>257.5</ele>
        <time>2016-8-7T9:42:31.000Z</time>
      </trkpt>
      <trkpt lat="50.19018" lon="4.37675">
        <ele>257.5</ele>
        <time>2016-8-7T9:42:31.000Z</time>
      </trkpt>
      <trkpt lat="50.19018" lon="4.37675">
        <ele>257.5</ele>
        <time>2016-8-7T9:42:31.000Z</time>
      </trkpt>
      <trkpt lat="50.19017" lon="4.37675">
        <ele>257.5</ele>
        <time>2016-8-7T9:42:31.000Z</time>
      </trkpt>
      <trkpt lat="50.19017" lon="4.37675">
        <ele>257.5</ele>
        <time>2016-8-7T9:42:31.000Z</time>
      </trkpt>
      <trkpt lat="50.19015" lon="4.37674">
        <ele>257</ele>
        <time>2016-8-7T9:42:31.000Z</time>
      </trkpt>
      <trkpt lat="50.19015" lon="4.37674">
        <ele>257</ele>
        <time>2016-8-7T9:42:31.000Z</time>
      </trkpt>
      <trkpt lat="50.19013" lon="4.37673">
        <ele>257</ele>
        <time>2016-8-7T9:42:31.000Z</time>
      </trkpt>
      <trkpt lat="50.19013" lon="4.37673">
        <ele>257</ele>
        <time>2016-8-7T9:42:31.000Z</time>
      </trkpt>
      <trkpt lat="50.19011" lon="4.37673">
        <ele>257</ele>
        <time>2016-8-7T9:42:31.000Z</time>
      </trkpt>
      <trkpt lat="50.19011" lon="4.37673">
        <ele>257</ele>
        <time>2016-8-7T9:42:31.000Z</time>
      </trkpt>
      <trkpt lat="50.19009" lon="4.37671">
        <ele>257</ele>
        <time>2016-8-7T9:42:31.000Z</time>
      </trkpt>
      <trkpt lat="50.19009" lon="4.37671">
        <ele>257</ele>
        <time>2016-8-7T9:42:31.000Z</time>
      </trkpt>
      <trkpt lat="50.19007" lon="4.3767">
        <ele>256.5</ele>
        <time>2016-8-7T9:42:31.000Z</time>
      </trkpt>
      <trkpt lat="50.19007" lon="4.3767">
        <ele>256.5</ele>
        <time>2016-8-7T9:42:31.000Z</time>
      </trkpt>
      <trkpt lat="50.19005" lon="4.37668">
        <ele>256.5</ele>
        <time>2016-8-7T9:42:31.000Z</time>
      </trkpt>
      <trkpt lat="50.19005" lon="4.37668">
        <ele>256.5</ele>
        <time>2016-8-7T9:42:31.000Z</time>
      </trkpt>
      <trkpt lat="50.19004" lon="4.37666">
        <ele>256</ele>
        <time>2016-8-7T9:43:43.000Z</time>
      </trkpt>
      <trkpt lat="50.19004" lon="4.37666">
        <ele>256</ele>
        <time>2016-8-7T9:43:43.000Z</time>
      </trkpt>
      <trkpt lat="50.19002" lon="4.37663">
        <ele>256</ele>
        <time>2016-8-7T9:43:43.000Z</time>
      </trkpt>
      <trkpt lat="50.19002" lon="4.37663">
        <ele>256</ele>
        <time>2016-8-7T9:43:43.000Z</time>
      </trkpt>
      <trkpt lat="50.19001" lon="4.37661">
        <ele>256</ele>
        <time>2016-8-7T9:43:43.000Z</time>
      </trkpt>
      <trkpt lat="50.19001" lon="4.37661">
        <ele>256</ele>
        <time>2016-8-7T9:43:43.000Z</time>
      </trkpt>
      <trkpt lat="50.18999" lon="4.37658">
        <ele>255.5</ele>
        <time>2016-8-7T9:43:43.000Z</time>
      </trkpt>
      <trkpt lat="50.18999" lon="4.37658">
        <ele>255.5</ele>
        <time>2016-8-7T9:43:43.000Z</time>
      </trkpt>
      <trkpt lat="50.18999" lon="4.37656">
        <ele>255.5</ele>
        <time>2016-8-7T9:43:43.000Z</time>
      </trkpt>
      <trkpt lat="50.18999" lon="4.37656">
        <ele>255.5</ele>
        <time>2016-8-7T9:43:43.000Z</time>
      </trkpt>
      <trkpt lat="50.18998" lon="4.37653">
        <ele>255.5</ele>
        <time>2016-8-7T9:43:43.000Z</time>
      </trkpt>
      <trkpt lat="50.18998" lon="4.37653">
        <ele>255.5</ele>
        <time>2016-8-7T9:43:43.000Z</time>
      </trkpt>
      <trkpt lat="50.18997" lon="4.37649">
        <ele>256</ele>
        <time>2016-8-7T9:43:43.000Z</time>
      </trkpt>
      <trkpt lat="50.18997" lon="4.37649">
        <ele>256</ele>
        <time>2016-8-7T9:43:43.000Z</time>
      </trkpt>
      <trkpt lat="50.18997" lon="4.37648">
        <ele>256</ele>
        <time>2016-8-7T9:43:43.000Z</time>
      </trkpt>
      <trkpt lat="50.18997" lon="4.37648">
        <ele>256</ele>
        <time>2016-8-7T9:43:43.000Z</time>
      </trkpt>
      <trkpt lat="50.18997" lon="4.37647">
        <ele>256</ele>
        <time>2016-8-7T9:43:43.000Z</time>
      </trkpt>
      <trkpt lat="50.18997" lon="4.37647">
        <ele>256</ele>
        <time>2016-8-7T9:43:43.000Z</time>
      </trkpt>
      <trkpt lat="50.18996" lon="4.37645">
        <ele>256.5</ele>
        <time>2016-8-7T9:43:43.000Z</time>
      </trkpt>
      <trkpt lat="50.18996" lon="4.37645">
        <ele>256.5</ele>
        <time>2016-8-7T9:43:43.000Z</time>
      </trkpt>
      <trkpt lat="50.18995" lon="4.37643">
        <ele>256.5</ele>
        <time>2016-8-7T9:43:43.000Z</time>
      </trkpt>
      <trkpt lat="50.18995" lon="4.37643">
        <ele>256.5</ele>
        <time>2016-8-7T9:43:43.000Z</time>
      </trkpt>
      <trkpt lat="50.18995" lon="4.37641">
        <ele>257.5</ele>
        <time>2016-8-7T9:43:43.000Z</time>
      </trkpt>
      <trkpt lat="50.18995" lon="4.37641">
        <ele>257.5</ele>
        <time>2016-8-7T9:43:43.000Z</time>
      </trkpt>
      <trkpt lat="50.18994" lon="4.3764">
        <ele>257.5</ele>
        <time>2016-8-7T9:43:43.000Z</time>
      </trkpt>
      <trkpt lat="50.18994" lon="4.3764">
        <ele>257.5</ele>
        <time>2016-8-7T9:43:43.000Z</time>
      </trkpt>
      <trkpt lat="50.18993" lon="4.37637">
        <ele>257.5</ele>
        <time>2016-8-7T9:43:43.000Z</time>
      </trkpt>
      <trkpt lat="50.18993" lon="4.37637">
        <ele>257.5</ele>
        <time>2016-8-7T9:43:43.000Z</time>
      </trkpt>
      <trkpt lat="50.18992" lon="4.37634">
        <ele>258.5</ele>
        <time>2016-8-7T9:43:43.000Z</time>
      </trkpt>
      <trkpt lat="50.18992" lon="4.37634">
        <ele>258.5</ele>
        <time>2016-8-7T9:43:43.000Z</time>
      </trkpt>
      <trkpt lat="50.18991" lon="4.37632">
        <ele>259</ele>
        <time>2016-8-7T9:43:43.000Z</time>
      </trkpt>
      <trkpt lat="50.18991" lon="4.37632">
        <ele>259</ele>
        <time>2016-8-7T9:43:43.000Z</time>
      </trkpt>
      <trkpt lat="50.1899" lon="4.3763">
        <ele>259.5</ele>
        <time>2016-8-7T9:43:43.000Z</time>
      </trkpt>
      <trkpt lat="50.1899" lon="4.3763">
        <ele>259.5</ele>
        <time>2016-8-7T9:43:43.000Z</time>
      </trkpt>
      <trkpt lat="50.18989" lon="4.37629">
        <ele>260</ele>
        <time>2016-8-7T9:43:43.000Z</time>
      </trkpt>
      <trkpt lat="50.18989" lon="4.37629">
        <ele>260</ele>
        <time>2016-8-7T9:43:43.000Z</time>
      </trkpt>
      <trkpt lat="50.18987" lon="4.37628">
        <ele>260.5</ele>
        <time>2016-8-7T9:43:43.000Z</time>
      </trkpt>
      <trkpt lat="50.18987" lon="4.37628">
        <ele>260.5</ele>
        <time>2016-8-7T9:43:43.000Z</time>
      </trkpt>
      <trkpt lat="50.18985" lon="4.37627">
        <ele>261</ele>
        <time>2016-8-7T9:43:43.000Z</time>
      </trkpt>
      <trkpt lat="50.18985" lon="4.37627">
        <ele>261</ele>
        <time>2016-8-7T9:43:43.000Z</time>
      </trkpt>
      <trkpt lat="50.18983" lon="4.37625">
        <ele>261.5</ele>
        <time>2016-8-7T9:43:43.000Z</time>
      </trkpt>
      <trkpt lat="50.18983" lon="4.37625">
        <ele>261.5</ele>
        <time>2016-8-7T9:43:43.000Z</time>
      </trkpt>
      <trkpt lat="50.1898" lon="4.37623">
        <ele>261.5</ele>
        <time>2016-8-7T9:43:43.000Z</time>
      </trkpt>
      <trkpt lat="50.1898" lon="4.37623">
        <ele>261.5</ele>
        <time>2016-8-7T9:43:43.000Z</time>
      </trkpt>
      <trkpt lat="50.18978" lon="4.3762">
        <ele>261.5</ele>
        <time>2016-8-7T9:43:43.000Z</time>
      </trkpt>
      <trkpt lat="50.18978" lon="4.3762">
        <ele>261.5</ele>
        <time>2016-8-7T9:43:43.000Z</time>
      </trkpt>
      <trkpt lat="50.18977" lon="4.37619">
        <ele>261.5</ele>
        <time>2016-8-7T9:43:43.000Z</time>
      </trkpt>
      <trkpt lat="50.18977" lon="4.37619">
        <ele>261.5</ele>
        <time>2016-8-7T9:43:43.000Z</time>
      </trkpt>
      <trkpt lat="50.18975" lon="4.37618">
        <ele>261.5</ele>
        <time>2016-8-7T9:43:43.000Z</time>
      </trkpt>
      <trkpt lat="50.18975" lon="4.37618">
        <ele>261.5</ele>
        <time>2016-8-7T9:43:43.000Z</time>
      </trkpt>
      <trkpt lat="50.18974" lon="4.37617">
        <ele>261.5</ele>
        <time>2016-8-7T9:43:43.000Z</time>
      </trkpt>
      <trkpt lat="50.18974" lon="4.37617">
        <ele>261.5</ele>
        <time>2016-8-7T9:43:43.000Z</time>
      </trkpt>
      <trkpt lat="50.18972" lon="4.37616">
        <ele>261.5</ele>
        <time>2016-8-7T9:43:43.000Z</time>
      </trkpt>
      <trkpt lat="50.18972" lon="4.37616">
        <ele>261.5</ele>
        <time>2016-8-7T9:43:43.000Z</time>
      </trkpt>
      <trkpt lat="50.1897" lon="4.37615">
        <ele>261.5</ele>
        <time>2016-8-7T9:43:43.000Z</time>
      </trkpt>
      <trkpt lat="50.1897" lon="4.37615">
        <ele>261.5</ele>
        <time>2016-8-7T9:43:43.000Z</time>
      </trkpt>
      <trkpt lat="50.18968" lon="4.37615">
        <ele>261.5</ele>
        <time>2016-8-7T9:43:43.000Z</time>
      </trkpt>
      <trkpt lat="50.18968" lon="4.37615">
        <ele>261.5</ele>
        <time>2016-8-7T9:43:43.000Z</time>
      </trkpt>
      <trkpt lat="50.18966" lon="4.37615">
        <ele>261</ele>
        <time>2016-8-7T9:43:43.000Z</time>
      </trkpt>
      <trkpt lat="50.18966" lon="4.37615">
        <ele>261</ele>
        <time>2016-8-7T9:43:43.000Z</time>
      </trkpt>
      <trkpt lat="50.18965" lon="4.37615">
        <ele>261</ele>
        <time>2016-8-7T9:43:43.000Z</time>
      </trkpt>
      <trkpt lat="50.18965" lon="4.37615">
        <ele>261</ele>
        <time>2016-8-7T9:43:43.000Z</time>
      </trkpt>
      <trkpt lat="50.18962" lon="4.37615">
        <ele>261.5</ele>
        <time>2016-8-7T9:43:43.000Z</time>
      </trkpt>
      <trkpt lat="50.18962" lon="4.37615">
        <ele>261.5</ele>
        <time>2016-8-7T9:43:43.000Z</time>
      </trkpt>
      <trkpt lat="50.1896" lon="4.37615">
        <ele>261.5</ele>
        <time>2016-8-7T9:43:43.000Z</time>
      </trkpt>
      <trkpt lat="50.1896" lon="4.37615">
        <ele>261.5</ele>
        <time>2016-8-7T9:43:43.000Z</time>
      </trkpt>
      <trkpt lat="50.18959" lon="4.37615">
        <ele>261</ele>
        <time>2016-8-7T9:43:43.000Z</time>
      </trkpt>
      <trkpt lat="50.18959" lon="4.37615">
        <ele>261</ele>
        <time>2016-8-7T9:43:43.000Z</time>
      </trkpt>
      <trkpt lat="50.18957" lon="4.37615">
        <ele>261.5</ele>
        <time>2016-8-7T9:43:43.000Z</time>
      </trkpt>
      <trkpt lat="50.18957" lon="4.37615">
        <ele>261.5</ele>
        <time>2016-8-7T9:43:43.000Z</time>
      </trkpt>
      <trkpt lat="50.18955" lon="4.37616">
        <ele>261.5</ele>
        <time>2016-8-7T9:43:43.000Z</time>
      </trkpt>
      <trkpt lat="50.18955" lon="4.37616">
        <ele>261.5</ele>
        <time>2016-8-7T9:43:43.000Z</time>
      </trkpt>
      <trkpt lat="50.18953" lon="4.37616">
        <ele>261.5</ele>
        <time>2016-8-7T9:43:43.000Z</time>
      </trkpt>
      <trkpt lat="50.18953" lon="4.37616">
        <ele>261.5</ele>
        <time>2016-8-7T9:43:43.000Z</time>
      </trkpt>
      <trkpt lat="50.18951" lon="4.37617">
        <ele>261.5</ele>
        <time>2016-8-7T9:43:43.000Z</time>
      </trkpt>
      <trkpt lat="50.18951" lon="4.37617">
        <ele>261.5</ele>
        <time>2016-8-7T9:43:43.000Z</time>
      </trkpt>
      <trkpt lat="50.18949" lon="4.37618">
        <ele>261.5</ele>
        <time>2016-8-7T9:43:43.000Z</time>
      </trkpt>
      <trkpt lat="50.18949" lon="4.37618">
        <ele>261.5</ele>
        <time>2016-8-7T9:43:43.000Z</time>
      </trkpt>
      <trkpt lat="50.18948" lon="4.37619">
        <ele>261.5</ele>
        <time>2016-8-7T9:43:43.000Z</time>
      </trkpt>
      <trkpt lat="50.18948" lon="4.37619">
        <ele>261.5</ele>
        <time>2016-8-7T9:43:43.000Z</time>
      </trkpt>
      <trkpt lat="50.18946" lon="4.37621">
        <ele>261.5</ele>
        <time>2016-8-7T9:43:43.000Z</time>
      </trkpt>
      <trkpt lat="50.18946" lon="4.37621">
        <ele>261.5</ele>
        <time>2016-8-7T9:43:43.000Z</time>
      </trkpt>
      <trkpt lat="50.18945" lon="4.37623">
        <ele>262</ele>
        <time>2016-8-7T9:43:43.000Z</time>
      </trkpt>
      <trkpt lat="50.18945" lon="4.37623">
        <ele>262</ele>
        <time>2016-8-7T9:43:43.000Z</time>
      </trkpt>
      <trkpt lat="50.18943" lon="4.37625">
        <ele>262.5</ele>
        <time>2016-8-7T9:43:43.000Z</time>
      </trkpt>
      <trkpt lat="50.18943" lon="4.37625">
        <ele>262.5</ele>
        <time>2016-8-7T9:43:43.000Z</time>
      </trkpt>
      <trkpt lat="50.18942" lon="4.37626">
        <ele>262.5</ele>
        <time>2016-8-7T9:43:43.000Z</time>
      </trkpt>
      <trkpt lat="50.18942" lon="4.37626">
        <ele>262.5</ele>
        <time>2016-8-7T9:43:43.000Z</time>
      </trkpt>
      <trkpt lat="50.18941" lon="4.37628">
        <ele>262.5</ele>
        <time>2016-8-7T9:43:43.000Z</time>
      </trkpt>
      <trkpt lat="50.18941" lon="4.37628">
        <ele>262.5</ele>
        <time>2016-8-7T9:43:43.000Z</time>
      </trkpt>
      <trkpt lat="50.1894" lon="4.37631">
        <ele>262.5</ele>
        <time>2016-8-7T9:43:43.000Z</time>
      </trkpt>
      <trkpt lat="50.1894" lon="4.37631">
        <ele>262.5</ele>
        <time>2016-8-7T9:43:43.000Z</time>
      </trkpt>
      <trkpt lat="50.18939" lon="4.37635">
        <ele>262</ele>
        <time>2016-8-7T9:43:43.000Z</time>
      </trkpt>
      <trkpt lat="50.18939" lon="4.37635">
        <ele>262</ele>
        <time>2016-8-7T9:43:43.000Z</time>
      </trkpt>
      <trkpt lat="50.18938" lon="4.37638">
        <ele>262</ele>
        <time>2016-8-7T9:43:43.000Z</time>
      </trkpt>
      <trkpt lat="50.18938" lon="4.37638">
        <ele>262</ele>
        <time>2016-8-7T9:43:43.000Z</time>
      </trkpt>
      <trkpt lat="50.18937" lon="4.37641">
        <ele>262</ele>
        <time>2016-8-7T9:43:43.000Z</time>
      </trkpt>
      <trkpt lat="50.18937" lon="4.37641">
        <ele>262</ele>
        <time>2016-8-7T9:43:43.000Z</time>
      </trkpt>
      <trkpt lat="50.18936" lon="4.37643">
        <ele>261.5</ele>
        <time>2016-8-7T9:43:43.000Z</time>
      </trkpt>
      <trkpt lat="50.18936" lon="4.37643">
        <ele>261.5</ele>
        <time>2016-8-7T9:43:43.000Z</time>
      </trkpt>
      <trkpt lat="50.18935" lon="4.37646">
        <ele>261</ele>
        <time>2016-8-7T9:43:43.000Z</time>
      </trkpt>
      <trkpt lat="50.18935" lon="4.37646">
        <ele>261</ele>
        <time>2016-8-7T9:44:52.000Z</time>
      </trkpt>
      <trkpt lat="50.18933" lon="4.37649">
        <ele>261</ele>
        <time>2016-8-7T9:44:52.000Z</time>
      </trkpt>
      <trkpt lat="50.18933" lon="4.37649">
        <ele>261</ele>
        <time>2016-8-7T9:44:52.000Z</time>
      </trkpt>
      <trkpt lat="50.18932" lon="4.37652">
        <ele>260.5</ele>
        <time>2016-8-7T9:44:52.000Z</time>
      </trkpt>
      <trkpt lat="50.18932" lon="4.37652">
        <ele>260.5</ele>
        <time>2016-8-7T9:44:52.000Z</time>
      </trkpt>
      <trkpt lat="50.18931" lon="4.37655">
        <ele>260</ele>
        <time>2016-8-7T9:44:52.000Z</time>
      </trkpt>
      <trkpt lat="50.18931" lon="4.37655">
        <ele>260</ele>
        <time>2016-8-7T9:44:52.000Z</time>
      </trkpt>
      <trkpt lat="50.18931" lon="4.37656">
        <ele>260</ele>
        <time>2016-8-7T9:44:52.000Z</time>
      </trkpt>
      <trkpt lat="50.18931" lon="4.37656">
        <ele>260</ele>
        <time>2016-8-7T9:44:52.000Z</time>
      </trkpt>
      <trkpt lat="50.18929" lon="4.37659">
        <ele>260</ele>
        <time>2016-8-7T9:44:52.000Z</time>
      </trkpt>
      <trkpt lat="50.18929" lon="4.37659">
        <ele>260</ele>
        <time>2016-8-7T9:44:52.000Z</time>
      </trkpt>
      <trkpt lat="50.18929" lon="4.3766">
        <ele>260</ele>
        <time>2016-8-7T9:44:52.000Z</time>
      </trkpt>
      <trkpt lat="50.18929" lon="4.3766">
        <ele>260</ele>
        <time>2016-8-7T9:44:52.000Z</time>
      </trkpt>
      <trkpt lat="50.18927" lon="4.37663">
        <ele>260.5</ele>
        <time>2016-8-7T9:44:52.000Z</time>
      </trkpt>
      <trkpt lat="50.18927" lon="4.37663">
        <ele>260.5</ele>
        <time>2016-8-7T9:44:52.000Z</time>
      </trkpt>
      <trkpt lat="50.18926" lon="4.37665">
        <ele>260.5</ele>
        <time>2016-8-7T9:44:52.000Z</time>
      </trkpt>
      <trkpt lat="50.18926" lon="4.37665">
        <ele>260.5</ele>
        <time>2016-8-7T9:44:52.000Z</time>
      </trkpt>
      <trkpt lat="50.18926" lon="4.37667">
        <ele>260.5</ele>
        <time>2016-8-7T9:44:52.000Z</time>
      </trkpt>
      <trkpt lat="50.18926" lon="4.37667">
        <ele>260.5</ele>
        <time>2016-8-7T9:44:52.000Z</time>
      </trkpt>
      <trkpt lat="50.18924" lon="4.3767">
        <ele>260.5</ele>
        <time>2016-8-7T9:44:52.000Z</time>
      </trkpt>
      <trkpt lat="50.18924" lon="4.3767">
        <ele>260.5</ele>
        <time>2016-8-7T9:44:52.000Z</time>
      </trkpt>
      <trkpt lat="50.18924" lon="4.37673">
        <ele>261</ele>
        <time>2016-8-7T9:44:52.000Z</time>
      </trkpt>
      <trkpt lat="50.18924" lon="4.37673">
        <ele>261</ele>
        <time>2016-8-7T9:44:52.000Z</time>
      </trkpt>
      <trkpt lat="50.18923" lon="4.37676">
        <ele>261</ele>
        <time>2016-8-7T9:44:52.000Z</time>
      </trkpt>
      <trkpt lat="50.18923" lon="4.37676">
        <ele>261</ele>
        <time>2016-8-7T9:44:52.000Z</time>
      </trkpt>
      <trkpt lat="50.18921" lon="4.37678">
        <ele>261</ele>
        <time>2016-8-7T9:44:52.000Z</time>
      </trkpt>
      <trkpt lat="50.18921" lon="4.37678">
        <ele>261</ele>
        <time>2016-8-7T9:44:52.000Z</time>
      </trkpt>
      <trkpt lat="50.18921" lon="4.3768">
        <ele>261</ele>
        <time>2016-8-7T9:44:52.000Z</time>
      </trkpt>
      <trkpt lat="50.18921" lon="4.3768">
        <ele>261</ele>
        <time>2016-8-7T9:44:52.000Z</time>
      </trkpt>
      <trkpt lat="50.18919" lon="4.37682">
        <ele>261</ele>
        <time>2016-8-7T9:44:52.000Z</time>
      </trkpt>
      <trkpt lat="50.18919" lon="4.37682">
        <ele>261</ele>
        <time>2016-8-7T9:44:52.000Z</time>
      </trkpt>
      <trkpt lat="50.18917" lon="4.37684">
        <ele>261</ele>
        <time>2016-8-7T9:44:52.000Z</time>
      </trkpt>
      <trkpt lat="50.18917" lon="4.37684">
        <ele>261</ele>
        <time>2016-8-7T9:44:52.000Z</time>
      </trkpt>
      <trkpt lat="50.18915" lon="4.37686">
        <ele>261</ele>
        <time>2016-8-7T9:44:52.000Z</time>
      </trkpt>
      <trkpt lat="50.18915" lon="4.37686">
        <ele>261</ele>
        <time>2016-8-7T9:44:52.000Z</time>
      </trkpt>
      <trkpt lat="50.18913" lon="4.37688">
        <ele>261</ele>
        <time>2016-8-7T9:44:52.000Z</time>
      </trkpt>
      <trkpt lat="50.18913" lon="4.37688">
        <ele>261</ele>
        <time>2016-8-7T9:44:52.000Z</time>
      </trkpt>
      <trkpt lat="50.18911" lon="4.37689">
        <ele>261.5</ele>
        <time>2016-8-7T9:44:52.000Z</time>
      </trkpt>
      <trkpt lat="50.18911" lon="4.37689">
        <ele>261.5</ele>
        <time>2016-8-7T9:44:52.000Z</time>
      </trkpt>
      <trkpt lat="50.18909" lon="4.37694">
        <ele>262</ele>
        <time>2016-8-7T9:44:52.000Z</time>
      </trkpt>
      <trkpt lat="50.18909" lon="4.37694">
        <ele>262</ele>
        <time>2016-8-7T9:44:52.000Z</time>
      </trkpt>
      <trkpt lat="50.18908" lon="4.37694">
        <ele>262</ele>
        <time>2016-8-7T9:44:52.000Z</time>
      </trkpt>
      <trkpt lat="50.18908" lon="4.37694">
        <ele>262</ele>
        <time>2016-8-7T9:44:52.000Z</time>
      </trkpt>
      <trkpt lat="50.18907" lon="4.37694">
        <ele>262</ele>
        <time>2016-8-7T9:44:52.000Z</time>
      </trkpt>
      <trkpt lat="50.18907" lon="4.37694">
        <ele>262</ele>
        <time>2016-8-7T9:44:52.000Z</time>
      </trkpt>
      <trkpt lat="50.18906" lon="4.37697">
        <ele>262</ele>
        <time>2016-8-7T9:44:52.000Z</time>
      </trkpt>
      <trkpt lat="50.18906" lon="4.37697">
        <ele>262</ele>
        <time>2016-8-7T9:44:52.000Z</time>
      </trkpt>
      <trkpt lat="50.18905" lon="4.377">
        <ele>262.5</ele>
        <time>2016-8-7T9:44:52.000Z</time>
      </trkpt>
      <trkpt lat="50.18905" lon="4.377">
        <ele>262.5</ele>
        <time>2016-8-7T9:44:52.000Z</time>
      </trkpt>
      <trkpt lat="50.18904" lon="4.37701">
        <ele>262.5</ele>
        <time>2016-8-7T9:44:52.000Z</time>
      </trkpt>
      <trkpt lat="50.18904" lon="4.37701">
        <ele>262.5</ele>
        <time>2016-8-7T9:44:52.000Z</time>
      </trkpt>
      <trkpt lat="50.18901" lon="4.37703">
        <ele>263</ele>
        <time>2016-8-7T9:44:52.000Z</time>
      </trkpt>
      <trkpt lat="50.18901" lon="4.37703">
        <ele>263</ele>
        <time>2016-8-7T9:44:52.000Z</time>
      </trkpt>
      <trkpt lat="50.18899" lon="4.37705">
        <ele>263.5</ele>
        <time>2016-8-7T9:44:52.000Z</time>
      </trkpt>
      <trkpt lat="50.18899" lon="4.37705">
        <ele>263.5</ele>
        <time>2016-8-7T9:44:52.000Z</time>
      </trkpt>
      <trkpt lat="50.18897" lon="4.37706">
        <ele>264</ele>
        <time>2016-8-7T9:44:52.000Z</time>
      </trkpt>
      <trkpt lat="50.18897" lon="4.37706">
        <ele>264</ele>
        <time>2016-8-7T9:44:52.000Z</time>
      </trkpt>
      <trkpt lat="50.18895" lon="4.37708">
        <ele>264.5</ele>
        <time>2016-8-7T9:44:52.000Z</time>
      </trkpt>
      <trkpt lat="50.18895" lon="4.37708">
        <ele>264.5</ele>
        <time>2016-8-7T9:44:52.000Z</time>
      </trkpt>
      <trkpt lat="50.18892" lon="4.3771">
        <ele>265</ele>
        <time>2016-8-7T9:44:52.000Z</time>
      </trkpt>
      <trkpt lat="50.18892" lon="4.3771">
        <ele>265</ele>
        <time>2016-8-7T9:44:52.000Z</time>
      </trkpt>
      <trkpt lat="50.18892" lon="4.37713">
        <ele>267</ele>
        <time>2016-8-7T9:44:52.000Z</time>
      </trkpt>
      <trkpt lat="50.18892" lon="4.37713">
        <ele>267</ele>
        <time>2016-8-7T9:44:52.000Z</time>
      </trkpt>
      <trkpt lat="50.18889" lon="4.37714">
        <ele>266.5</ele>
        <time>2016-8-7T9:44:52.000Z</time>
      </trkpt>
      <trkpt lat="50.18889" lon="4.37714">
        <ele>266.5</ele>
        <time>2016-8-7T9:44:52.000Z</time>
      </trkpt>
      <trkpt lat="50.18886" lon="4.37715">
        <ele>266</ele>
        <time>2016-8-7T9:44:52.000Z</time>
      </trkpt>
      <trkpt lat="50.18886" lon="4.37715">
        <ele>266</ele>
        <time>2016-8-7T9:44:52.000Z</time>
      </trkpt>
      <trkpt lat="50.18884" lon="4.37716">
        <ele>265</ele>
        <time>2016-8-7T9:44:52.000Z</time>
      </trkpt>
      <trkpt lat="50.18884" lon="4.37716">
        <ele>265</ele>
        <time>2016-8-7T9:44:52.000Z</time>
      </trkpt>
      <trkpt lat="50.18883" lon="4.37716">
        <ele>265</ele>
        <time>2016-8-7T9:44:52.000Z</time>
      </trkpt>
      <trkpt lat="50.18883" lon="4.37716">
        <ele>265</ele>
        <time>2016-8-7T9:44:52.000Z</time>
      </trkpt>
      <trkpt lat="50.18879" lon="4.37716">
        <ele>261.5</ele>
        <time>2016-8-7T9:44:52.000Z</time>
      </trkpt>
      <trkpt lat="50.18879" lon="4.37716">
        <ele>261.5</ele>
        <time>2016-8-7T9:44:52.000Z</time>
      </trkpt>
      <trkpt lat="50.18877" lon="4.37716">
        <ele>261.5</ele>
        <time>2016-8-7T9:44:52.000Z</time>
      </trkpt>
      <trkpt lat="50.18877" lon="4.37716">
        <ele>261.5</ele>
        <time>2016-8-7T9:44:52.000Z</time>
      </trkpt>
      <trkpt lat="50.18875" lon="4.37717">
        <ele>264</ele>
        <time>2016-8-7T9:44:52.000Z</time>
      </trkpt>
      <trkpt lat="50.18875" lon="4.37717">
        <ele>264</ele>
        <time>2016-8-7T9:44:52.000Z</time>
      </trkpt>
      <trkpt lat="50.18873" lon="4.37717">
        <ele>263.5</ele>
        <time>2016-8-7T9:44:52.000Z</time>
      </trkpt>
      <trkpt lat="50.18873" lon="4.37717">
        <ele>263.5</ele>
        <time>2016-8-7T9:44:52.000Z</time>
      </trkpt>
      <trkpt lat="50.18872" lon="4.37717">
        <ele>263.5</ele>
        <time>2016-8-7T9:44:52.000Z</time>
      </trkpt>
      <trkpt lat="50.18872" lon="4.37717">
        <ele>263.5</ele>
        <time>2016-8-7T9:44:52.000Z</time>
      </trkpt>
      <trkpt lat="50.18871" lon="4.37717">
        <ele>263</ele>
        <time>2016-8-7T9:44:52.000Z</time>
      </trkpt>
      <trkpt lat="50.18871" lon="4.37717">
        <ele>263</ele>
        <time>2016-8-7T9:44:52.000Z</time>
      </trkpt>
      <trkpt lat="50.18868" lon="4.37717">
        <ele>262.5</ele>
        <time>2016-8-7T9:44:52.000Z</time>
      </trkpt>
      <trkpt lat="50.18868" lon="4.37717">
        <ele>262.5</ele>
        <time>2016-8-7T9:44:52.000Z</time>
      </trkpt>
      <trkpt lat="50.18867" lon="4.37716">
        <ele>262.5</ele>
        <time>2016-8-7T9:44:52.000Z</time>
      </trkpt>
      <trkpt lat="50.18867" lon="4.37716">
        <ele>262.5</ele>
        <time>2016-8-7T9:44:52.000Z</time>
      </trkpt>
      <trkpt lat="50.18865" lon="4.37716">
        <ele>262</ele>
        <time>2016-8-7T9:44:52.000Z</time>
      </trkpt>
      <trkpt lat="50.18865" lon="4.37716">
        <ele>262</ele>
        <time>2016-8-7T9:44:52.000Z</time>
      </trkpt>
      <trkpt lat="50.18863" lon="4.37716">
        <ele>262</ele>
        <time>2016-8-7T9:44:52.000Z</time>
      </trkpt>
      <trkpt lat="50.18863" lon="4.37716">
        <ele>262</ele>
        <time>2016-8-7T9:44:52.000Z</time>
      </trkpt>
      <trkpt lat="50.18861" lon="4.37715">
        <ele>262</ele>
        <time>2016-8-7T9:44:52.000Z</time>
      </trkpt>
      <trkpt lat="50.18861" lon="4.37715">
        <ele>262</ele>
        <time>2016-8-7T9:44:52.000Z</time>
      </trkpt>
      <trkpt lat="50.18859" lon="4.37715">
        <ele>261.5</ele>
        <time>2016-8-7T9:44:52.000Z</time>
      </trkpt>
      <trkpt lat="50.18859" lon="4.37715">
        <ele>261.5</ele>
        <time>2016-8-7T9:44:52.000Z</time>
      </trkpt>
      <trkpt lat="50.18856" lon="4.37714">
        <ele>261.5</ele>
        <time>2016-8-7T9:44:52.000Z</time>
      </trkpt>
      <trkpt lat="50.18856" lon="4.37714">
        <ele>261.5</ele>
        <time>2016-8-7T9:44:52.000Z</time>
      </trkpt>
      <trkpt lat="50.18853" lon="4.37714">
        <ele>261</ele>
        <time>2016-8-7T9:44:52.000Z</time>
      </trkpt>
      <trkpt lat="50.18853" lon="4.37714">
        <ele>261</ele>
        <time>2016-8-7T9:44:52.000Z</time>
      </trkpt>
      <trkpt lat="50.18852" lon="4.37714">
        <ele>261</ele>
        <time>2016-8-7T9:44:52.000Z</time>
      </trkpt>
      <trkpt lat="50.18852" lon="4.37714">
        <ele>261</ele>
        <time>2016-8-7T9:44:52.000Z</time>
      </trkpt>
      <trkpt lat="50.1885" lon="4.37714">
        <ele>261</ele>
        <time>2016-8-7T9:46:7.000Z</time>
      </trkpt>
      <trkpt lat="50.1885" lon="4.37714">
        <ele>261</ele>
        <time>2016-8-7T9:46:7.000Z</time>
      </trkpt>
      <trkpt lat="50.18849" lon="4.37714">
        <ele>260.5</ele>
        <time>2016-8-7T9:46:7.000Z</time>
      </trkpt>
      <trkpt lat="50.18849" lon="4.37714">
        <ele>260.5</ele>
        <time>2016-8-7T9:46:7.000Z</time>
      </trkpt>
      <trkpt lat="50.18846" lon="4.37714">
        <ele>260.5</ele>
        <time>2016-8-7T9:46:7.000Z</time>
      </trkpt>
      <trkpt lat="50.18846" lon="4.37714">
        <ele>260.5</ele>
        <time>2016-8-7T9:46:7.000Z</time>
      </trkpt>
      <trkpt lat="50.18843" lon="4.37714">
        <ele>260</ele>
        <time>2016-8-7T9:46:7.000Z</time>
      </trkpt>
      <trkpt lat="50.18843" lon="4.37714">
        <ele>260</ele>
        <time>2016-8-7T9:46:7.000Z</time>
      </trkpt>
      <trkpt lat="50.18841" lon="4.37713">
        <ele>259.5</ele>
        <time>2016-8-7T9:46:7.000Z</time>
      </trkpt>
      <trkpt lat="50.18841" lon="4.37713">
        <ele>259.5</ele>
        <time>2016-8-7T9:46:7.000Z</time>
      </trkpt>
      <trkpt lat="50.18839" lon="4.37713">
        <ele>259.5</ele>
        <time>2016-8-7T9:46:7.000Z</time>
      </trkpt>
      <trkpt lat="50.18839" lon="4.37713">
        <ele>259.5</ele>
        <time>2016-8-7T9:46:7.000Z</time>
      </trkpt>
      <trkpt lat="50.18837" lon="4.37713">
        <ele>259.5</ele>
        <time>2016-8-7T9:46:7.000Z</time>
      </trkpt>
      <trkpt lat="50.18837" lon="4.37713">
        <ele>259.5</ele>
        <time>2016-8-7T9:46:7.000Z</time>
      </trkpt>
      <trkpt lat="50.18835" lon="4.37713">
        <ele>259.5</ele>
        <time>2016-8-7T9:46:7.000Z</time>
      </trkpt>
      <trkpt lat="50.18835" lon="4.37713">
        <ele>259.5</ele>
        <time>2016-8-7T9:46:7.000Z</time>
      </trkpt>
      <trkpt lat="50.18833" lon="4.37713">
        <ele>259.5</ele>
        <time>2016-8-7T9:46:7.000Z</time>
      </trkpt>
      <trkpt lat="50.18833" lon="4.37713">
        <ele>259.5</ele>
        <time>2016-8-7T9:46:7.000Z</time>
      </trkpt>
      <trkpt lat="50.18831" lon="4.37713">
        <ele>259.5</ele>
        <time>2016-8-7T9:46:7.000Z</time>
      </trkpt>
      <trkpt lat="50.18831" lon="4.37713">
        <ele>259.5</ele>
        <time>2016-8-7T9:46:7.000Z</time>
      </trkpt>
      <trkpt lat="50.1883" lon="4.37713">
        <ele>260</ele>
        <time>2016-8-7T9:46:7.000Z</time>
      </trkpt>
      <trkpt lat="50.1883" lon="4.37713">
        <ele>260</ele>
        <time>2016-8-7T9:46:7.000Z</time>
      </trkpt>
      <trkpt lat="50.18827" lon="4.37712">
        <ele>260</ele>
        <time>2016-8-7T9:46:7.000Z</time>
      </trkpt>
      <trkpt lat="50.18827" lon="4.37712">
        <ele>260</ele>
        <time>2016-8-7T9:46:7.000Z</time>
      </trkpt>
      <trkpt lat="50.18826" lon="4.37712">
        <ele>260</ele>
        <time>2016-8-7T9:46:7.000Z</time>
      </trkpt>
      <trkpt lat="50.18826" lon="4.37712">
        <ele>260</ele>
        <time>2016-8-7T9:46:7.000Z</time>
      </trkpt>
      <trkpt lat="50.18824" lon="4.37712">
        <ele>260</ele>
        <time>2016-8-7T9:46:7.000Z</time>
      </trkpt>
      <trkpt lat="50.18824" lon="4.37712">
        <ele>260</ele>
        <time>2016-8-7T9:46:7.000Z</time>
      </trkpt>
      <trkpt lat="50.18823" lon="4.37712">
        <ele>260.5</ele>
        <time>2016-8-7T9:46:7.000Z</time>
      </trkpt>
      <trkpt lat="50.18823" lon="4.37712">
        <ele>260.5</ele>
        <time>2016-8-7T9:46:7.000Z</time>
      </trkpt>
      <trkpt lat="50.18821" lon="4.37713">
        <ele>261</ele>
        <time>2016-8-7T9:46:7.000Z</time>
      </trkpt>
      <trkpt lat="50.18821" lon="4.37713">
        <ele>261</ele>
        <time>2016-8-7T9:46:7.000Z</time>
      </trkpt>
      <trkpt lat="50.18821" lon="4.37712">
        <ele>260.5</ele>
        <time>2016-8-7T9:46:7.000Z</time>
      </trkpt>
      <trkpt lat="50.18821" lon="4.37712">
        <ele>260.5</ele>
        <time>2016-8-7T9:46:7.000Z</time>
      </trkpt>
      <trkpt lat="50.18818" lon="4.37712">
        <ele>258</ele>
        <time>2016-8-7T9:46:7.000Z</time>
      </trkpt>
      <trkpt lat="50.18818" lon="4.37712">
        <ele>258</ele>
        <time>2016-8-7T9:46:7.000Z</time>
      </trkpt>
      <trkpt lat="50.18816" lon="4.37711">
        <ele>257</ele>
        <time>2016-8-7T9:46:7.000Z</time>
      </trkpt>
      <trkpt lat="50.18816" lon="4.37711">
        <ele>257</ele>
        <time>2016-8-7T9:46:7.000Z</time>
      </trkpt>
      <trkpt lat="50.18814" lon="4.3771">
        <ele>258.5</ele>
        <time>2016-8-7T9:46:7.000Z</time>
      </trkpt>
      <trkpt lat="50.18814" lon="4.3771">
        <ele>258.5</ele>
        <time>2016-8-7T9:46:7.000Z</time>
      </trkpt>
      <trkpt lat="50.18812" lon="4.37709">
        <ele>259.5</ele>
        <time>2016-8-7T9:46:7.000Z</time>
      </trkpt>
      <trkpt lat="50.18812" lon="4.37709">
        <ele>259.5</ele>
        <time>2016-8-7T9:46:7.000Z</time>
      </trkpt>
      <trkpt lat="50.1881" lon="4.37708">
        <ele>259</ele>
        <time>2016-8-7T9:46:7.000Z</time>
      </trkpt>
      <trkpt lat="50.1881" lon="4.37708">
        <ele>259</ele>
        <time>2016-8-7T9:46:7.000Z</time>
      </trkpt>
      <trkpt lat="50.18808" lon="4.37707">
        <ele>259.5</ele>
        <time>2016-8-7T9:46:7.000Z</time>
      </trkpt>
      <trkpt lat="50.18808" lon="4.37707">
        <ele>259.5</ele>
        <time>2016-8-7T9:46:7.000Z</time>
      </trkpt>
      <trkpt lat="50.18805" lon="4.37706">
        <ele>260</ele>
        <time>2016-8-7T9:46:7.000Z</time>
      </trkpt>
      <trkpt lat="50.18805" lon="4.37706">
        <ele>260</ele>
        <time>2016-8-7T9:46:7.000Z</time>
      </trkpt>
      <trkpt lat="50.18803" lon="4.37705">
        <ele>260</ele>
        <time>2016-8-7T9:46:7.000Z</time>
      </trkpt>
      <trkpt lat="50.18803" lon="4.37705">
        <ele>260</ele>
        <time>2016-8-7T9:46:7.000Z</time>
      </trkpt>
      <trkpt lat="50.18802" lon="4.37704">
        <ele>260</ele>
        <time>2016-8-7T9:46:7.000Z</time>
      </trkpt>
      <trkpt lat="50.18802" lon="4.37704">
        <ele>260</ele>
        <time>2016-8-7T9:46:7.000Z</time>
      </trkpt>
      <trkpt lat="50.18801" lon="4.37703">
        <ele>260</ele>
        <time>2016-8-7T9:46:7.000Z</time>
      </trkpt>
      <trkpt lat="50.18801" lon="4.37703">
        <ele>260</ele>
        <time>2016-8-7T9:46:7.000Z</time>
      </trkpt>
      <trkpt lat="50.18798" lon="4.37701">
        <ele>260</ele>
        <time>2016-8-7T9:46:7.000Z</time>
      </trkpt>
      <trkpt lat="50.18798" lon="4.37701">
        <ele>260</ele>
        <time>2016-8-7T9:46:7.000Z</time>
      </trkpt>
      <trkpt lat="50.18796" lon="4.37698">
        <ele>260</ele>
        <time>2016-8-7T9:46:7.000Z</time>
      </trkpt>
      <trkpt lat="50.18796" lon="4.37698">
        <ele>260</ele>
        <time>2016-8-7T9:46:7.000Z</time>
      </trkpt>
      <trkpt lat="50.18795" lon="4.37697">
        <ele>260</ele>
        <time>2016-8-7T9:46:7.000Z</time>
      </trkpt>
      <trkpt lat="50.18795" lon="4.37697">
        <ele>260</ele>
        <time>2016-8-7T9:46:7.000Z</time>
      </trkpt>
      <trkpt lat="50.18794" lon="4.37696">
        <ele>260</ele>
        <time>2016-8-7T9:46:7.000Z</time>
      </trkpt>
      <trkpt lat="50.18794" lon="4.37696">
        <ele>260</ele>
        <time>2016-8-7T9:46:7.000Z</time>
      </trkpt>
      <trkpt lat="50.18792" lon="4.37694">
        <ele>260</ele>
        <time>2016-8-7T9:46:7.000Z</time>
      </trkpt>
      <trkpt lat="50.18792" lon="4.37694">
        <ele>260</ele>
        <time>2016-8-7T9:46:7.000Z</time>
      </trkpt>
      <trkpt lat="50.18792" lon="4.37692">
        <ele>260</ele>
        <time>2016-8-7T9:46:7.000Z</time>
      </trkpt>
      <trkpt lat="50.18792" lon="4.37692">
        <ele>260</ele>
        <time>2016-8-7T9:46:7.000Z</time>
      </trkpt>
      <trkpt lat="50.1879" lon="4.37687">
        <ele>261</ele>
        <time>2016-8-7T9:46:7.000Z</time>
      </trkpt>
      <trkpt lat="50.1879" lon="4.37687">
        <ele>261</ele>
        <time>2016-8-7T9:46:7.000Z</time>
      </trkpt>
      <trkpt lat="50.18789" lon="4.37682">
        <ele>261</ele>
        <time>2016-8-7T9:46:7.000Z</time>
      </trkpt>
      <trkpt lat="50.18789" lon="4.37682">
        <ele>261</ele>
        <time>2016-8-7T9:46:7.000Z</time>
      </trkpt>
      <trkpt lat="50.18788" lon="4.37677">
        <ele>262</ele>
        <time>2016-8-7T9:46:7.000Z</time>
      </trkpt>
      <trkpt lat="50.18788" lon="4.37677">
        <ele>262</ele>
        <time>2016-8-7T9:46:7.000Z</time>
      </trkpt>
      <trkpt lat="50.18788" lon="4.37676">
        <ele>262</ele>
        <time>2016-8-7T9:46:7.000Z</time>
      </trkpt>
      <trkpt lat="50.18788" lon="4.37676">
        <ele>262</ele>
        <time>2016-8-7T9:46:7.000Z</time>
      </trkpt>
      <trkpt lat="50.18788" lon="4.37678">
        <ele>262.5</ele>
        <time>2016-8-7T9:46:7.000Z</time>
      </trkpt>
      <trkpt lat="50.18788" lon="4.37678">
        <ele>262.5</ele>
        <time>2016-8-7T9:46:7.000Z</time>
      </trkpt>
      <trkpt lat="50.18787" lon="4.37676">
        <ele>262</ele>
        <time>2016-8-7T9:46:7.000Z</time>
      </trkpt>
      <trkpt lat="50.18787" lon="4.37676">
        <ele>262</ele>
        <time>2016-8-7T9:46:7.000Z</time>
      </trkpt>
      <trkpt lat="50.18785" lon="4.37674">
        <ele>262</ele>
        <time>2016-8-7T9:46:7.000Z</time>
      </trkpt>
      <trkpt lat="50.18785" lon="4.37674">
        <ele>262</ele>
        <time>2016-8-7T9:46:7.000Z</time>
      </trkpt>
      <trkpt lat="50.18784" lon="4.37672">
        <ele>262</ele>
        <time>2016-8-7T9:46:7.000Z</time>
      </trkpt>
      <trkpt lat="50.18784" lon="4.37672">
        <ele>262</ele>
        <time>2016-8-7T9:46:7.000Z</time>
      </trkpt>
      <trkpt lat="50.18783" lon="4.37669">
        <ele>262</ele>
        <time>2016-8-7T9:46:7.000Z</time>
      </trkpt>
      <trkpt lat="50.18783" lon="4.37669">
        <ele>262</ele>
        <time>2016-8-7T9:46:7.000Z</time>
      </trkpt>
      <trkpt lat="50.18783" lon="4.37668">
        <ele>261.5</ele>
        <time>2016-8-7T9:46:7.000Z</time>
      </trkpt>
      <trkpt lat="50.18783" lon="4.37668">
        <ele>261.5</ele>
        <time>2016-8-7T9:46:7.000Z</time>
      </trkpt>
      <trkpt lat="50.18784" lon="4.37664">
        <ele>261.5</ele>
        <time>2016-8-7T9:46:7.000Z</time>
      </trkpt>
      <trkpt lat="50.18784" lon="4.37664">
        <ele>261.5</ele>
        <time>2016-8-7T9:46:7.000Z</time>
      </trkpt>
      <trkpt lat="50.18783" lon="4.37661">
        <ele>261.5</ele>
        <time>2016-8-7T9:46:7.000Z</time>
      </trkpt>
      <trkpt lat="50.18783" lon="4.37661">
        <ele>261.5</ele>
        <time>2016-8-7T9:46:7.000Z</time>
      </trkpt>
      <trkpt lat="50.18783" lon="4.37658">
        <ele>264.5</ele>
        <time>2016-8-7T9:46:7.000Z</time>
      </trkpt>
      <trkpt lat="50.18783" lon="4.37658">
        <ele>264.5</ele>
        <time>2016-8-7T9:46:7.000Z</time>
      </trkpt>
      <trkpt lat="50.18783" lon="4.37655">
        <ele>265.5</ele>
        <time>2016-8-7T9:46:7.000Z</time>
      </trkpt>
      <trkpt lat="50.18783" lon="4.37655">
        <ele>265.5</ele>
        <time>2016-8-7T9:46:7.000Z</time>
      </trkpt>
      <trkpt lat="50.18783" lon="4.37652">
        <ele>265.5</ele>
        <time>2016-8-7T9:46:7.000Z</time>
      </trkpt>
      <trkpt lat="50.18783" lon="4.37652">
        <ele>265.5</ele>
        <time>2016-8-7T9:46:7.000Z</time>
      </trkpt>
      <trkpt lat="50.18782" lon="4.37649">
        <ele>264.5</ele>
        <time>2016-8-7T9:46:7.000Z</time>
      </trkpt>
      <trkpt lat="50.18782" lon="4.37649">
        <ele>264.5</ele>
        <time>2016-8-7T9:46:7.000Z</time>
      </trkpt>
      <trkpt lat="50.1878" lon="4.37646">
        <ele>263.5</ele>
        <time>2016-8-7T9:46:7.000Z</time>
      </trkpt>
      <trkpt lat="50.1878" lon="4.37646">
        <ele>263.5</ele>
        <time>2016-8-7T9:46:7.000Z</time>
      </trkpt>
      <trkpt lat="50.18779" lon="4.37644">
        <ele>263.5</ele>
        <time>2016-8-7T9:46:7.000Z</time>
      </trkpt>
      <trkpt lat="50.18779" lon="4.37644">
        <ele>263.5</ele>
        <time>2016-8-7T9:47:25.000Z</time>
      </trkpt>
      <trkpt lat="50.18778" lon="4.37643">
        <ele>262.5</ele>
        <time>2016-8-7T9:47:25.000Z</time>
      </trkpt>
      <trkpt lat="50.18778" lon="4.37643">
        <ele>262.5</ele>
        <time>2016-8-7T9:47:25.000Z</time>
      </trkpt>
      <trkpt lat="50.18776" lon="4.37641">
        <ele>261.5</ele>
        <time>2016-8-7T9:47:25.000Z</time>
      </trkpt>
      <trkpt lat="50.18776" lon="4.37641">
        <ele>261.5</ele>
        <time>2016-8-7T9:47:25.000Z</time>
      </trkpt>
      <trkpt lat="50.18774" lon="4.37639">
        <ele>260.5</ele>
        <time>2016-8-7T9:47:25.000Z</time>
      </trkpt>
      <trkpt lat="50.18774" lon="4.37639">
        <ele>260.5</ele>
        <time>2016-8-7T9:47:25.000Z</time>
      </trkpt>
      <trkpt lat="50.18772" lon="4.37637">
        <ele>263</ele>
        <time>2016-8-7T9:47:25.000Z</time>
      </trkpt>
      <trkpt lat="50.18772" lon="4.37637">
        <ele>263</ele>
        <time>2016-8-7T9:47:25.000Z</time>
      </trkpt>
      <trkpt lat="50.1877" lon="4.37634">
        <ele>263</ele>
        <time>2016-8-7T9:47:25.000Z</time>
      </trkpt>
      <trkpt lat="50.1877" lon="4.37634">
        <ele>263</ele>
        <time>2016-8-7T9:47:25.000Z</time>
      </trkpt>
      <trkpt lat="50.18768" lon="4.37632">
        <ele>262.5</ele>
        <time>2016-8-7T9:47:25.000Z</time>
      </trkpt>
      <trkpt lat="50.18768" lon="4.37632">
        <ele>262.5</ele>
        <time>2016-8-7T9:47:25.000Z</time>
      </trkpt>
      <trkpt lat="50.18766" lon="4.3763">
        <ele>262.5</ele>
        <time>2016-8-7T9:47:25.000Z</time>
      </trkpt>
      <trkpt lat="50.18766" lon="4.3763">
        <ele>262.5</ele>
        <time>2016-8-7T9:47:25.000Z</time>
      </trkpt>
      <trkpt lat="50.18765" lon="4.37628">
        <ele>262</ele>
        <time>2016-8-7T9:47:25.000Z</time>
      </trkpt>
      <trkpt lat="50.18765" lon="4.37628">
        <ele>262</ele>
        <time>2016-8-7T9:47:25.000Z</time>
      </trkpt>
      <trkpt lat="50.18764" lon="4.37627">
        <ele>262</ele>
        <time>2016-8-7T9:47:25.000Z</time>
      </trkpt>
      <trkpt lat="50.18764" lon="4.37627">
        <ele>262</ele>
        <time>2016-8-7T9:47:25.000Z</time>
      </trkpt>
      <trkpt lat="50.18762" lon="4.37624">
        <ele>262</ele>
        <time>2016-8-7T9:47:25.000Z</time>
      </trkpt>
      <trkpt lat="50.18762" lon="4.37624">
        <ele>262</ele>
        <time>2016-8-7T9:47:25.000Z</time>
      </trkpt>
      <trkpt lat="50.18762" lon="4.37622">
        <ele>262</ele>
        <time>2016-8-7T9:47:25.000Z</time>
      </trkpt>
      <trkpt lat="50.18762" lon="4.37622">
        <ele>262</ele>
        <time>2016-8-7T9:47:25.000Z</time>
      </trkpt>
      <trkpt lat="50.18762" lon="4.3762">
        <ele>262</ele>
        <time>2016-8-7T9:47:25.000Z</time>
      </trkpt>
      <trkpt lat="50.18762" lon="4.3762">
        <ele>262</ele>
        <time>2016-8-7T9:47:25.000Z</time>
      </trkpt>
      <trkpt lat="50.1876" lon="4.37617">
        <ele>262</ele>
        <time>2016-8-7T9:47:25.000Z</time>
      </trkpt>
      <trkpt lat="50.1876" lon="4.37617">
        <ele>262</ele>
        <time>2016-8-7T9:47:25.000Z</time>
      </trkpt>
      <trkpt lat="50.18759" lon="4.37613">
        <ele>261.5</ele>
        <time>2016-8-7T9:47:25.000Z</time>
      </trkpt>
      <trkpt lat="50.18759" lon="4.37613">
        <ele>261.5</ele>
        <time>2016-8-7T9:47:25.000Z</time>
      </trkpt>
      <trkpt lat="50.18758" lon="4.3761">
        <ele>262</ele>
        <time>2016-8-7T9:47:25.000Z</time>
      </trkpt>
      <trkpt lat="50.18758" lon="4.3761">
        <ele>262</ele>
        <time>2016-8-7T9:47:25.000Z</time>
      </trkpt>
      <trkpt lat="50.18757" lon="4.37608">
        <ele>262</ele>
        <time>2016-8-7T9:47:25.000Z</time>
      </trkpt>
      <trkpt lat="50.18757" lon="4.37608">
        <ele>262</ele>
        <time>2016-8-7T9:47:25.000Z</time>
      </trkpt>
      <trkpt lat="50.18757" lon="4.37607">
        <ele>261.5</ele>
        <time>2016-8-7T9:47:25.000Z</time>
      </trkpt>
      <trkpt lat="50.18757" lon="4.37607">
        <ele>261.5</ele>
        <time>2016-8-7T9:47:25.000Z</time>
      </trkpt>
      <trkpt lat="50.18756" lon="4.37605">
        <ele>262</ele>
        <time>2016-8-7T9:47:25.000Z</time>
      </trkpt>
      <trkpt lat="50.18756" lon="4.37605">
        <ele>262</ele>
        <time>2016-8-7T9:47:25.000Z</time>
      </trkpt>
      <trkpt lat="50.18754" lon="4.37602">
        <ele>262</ele>
        <time>2016-8-7T9:47:25.000Z</time>
      </trkpt>
      <trkpt lat="50.18754" lon="4.37602">
        <ele>262</ele>
        <time>2016-8-7T9:47:25.000Z</time>
      </trkpt>
      <trkpt lat="50.18753" lon="4.37598">
        <ele>262.5</ele>
        <time>2016-8-7T9:47:25.000Z</time>
      </trkpt>
      <trkpt lat="50.18753" lon="4.37598">
        <ele>262.5</ele>
        <time>2016-8-7T9:47:25.000Z</time>
      </trkpt>
      <trkpt lat="50.18752" lon="4.37595">
        <ele>262</ele>
        <time>2016-8-7T9:47:25.000Z</time>
      </trkpt>
      <trkpt lat="50.18752" lon="4.37595">
        <ele>262</ele>
        <time>2016-8-7T9:47:25.000Z</time>
      </trkpt>
      <trkpt lat="50.18751" lon="4.37593">
        <ele>262</ele>
        <time>2016-8-7T9:47:25.000Z</time>
      </trkpt>
      <trkpt lat="50.18751" lon="4.37593">
        <ele>262</ele>
        <time>2016-8-7T9:47:25.000Z</time>
      </trkpt>
      <trkpt lat="50.18751" lon="4.37591">
        <ele>262</ele>
        <time>2016-8-7T9:47:25.000Z</time>
      </trkpt>
      <trkpt lat="50.18751" lon="4.37591">
        <ele>262</ele>
        <time>2016-8-7T9:47:25.000Z</time>
      </trkpt>
      <trkpt lat="50.18752" lon="4.3759">
        <ele>262</ele>
        <time>2016-8-7T9:47:25.000Z</time>
      </trkpt>
      <trkpt lat="50.18752" lon="4.3759">
        <ele>262</ele>
        <time>2016-8-7T9:47:25.000Z</time>
      </trkpt>
      <trkpt lat="50.18752" lon="4.37587">
        <ele>262</ele>
        <time>2016-8-7T9:47:25.000Z</time>
      </trkpt>
      <trkpt lat="50.18752" lon="4.37587">
        <ele>262</ele>
        <time>2016-8-7T9:47:25.000Z</time>
      </trkpt>
      <trkpt lat="50.18752" lon="4.37586">
        <ele>261.5</ele>
        <time>2016-8-7T9:47:25.000Z</time>
      </trkpt>
      <trkpt lat="50.18752" lon="4.37586">
        <ele>261.5</ele>
        <time>2016-8-7T9:47:25.000Z</time>
      </trkpt>
      <trkpt lat="50.18756" lon="4.37575">
        <ele>249.5</ele>
        <time>2016-8-7T9:47:25.000Z</time>
      </trkpt>
      <trkpt lat="50.18756" lon="4.37575">
        <ele>249.5</ele>
        <time>2016-8-7T9:47:25.000Z</time>
      </trkpt>
      <trkpt lat="50.18754" lon="4.37573">
        <ele>259</ele>
        <time>2016-8-7T9:47:25.000Z</time>
      </trkpt>
      <trkpt lat="50.18754" lon="4.37573">
        <ele>259</ele>
        <time>2016-8-7T9:47:25.000Z</time>
      </trkpt>
      <trkpt lat="50.18754" lon="4.3757">
        <ele>257.5</ele>
        <time>2016-8-7T9:47:25.000Z</time>
      </trkpt>
      <trkpt lat="50.18754" lon="4.3757">
        <ele>257.5</ele>
        <time>2016-8-7T9:47:25.000Z</time>
      </trkpt>
      <trkpt lat="50.18754" lon="4.37568">
        <ele>256.5</ele>
        <time>2016-8-7T9:47:25.000Z</time>
      </trkpt>
      <trkpt lat="50.18754" lon="4.37568">
        <ele>256.5</ele>
        <time>2016-8-7T9:47:25.000Z</time>
      </trkpt>
      <trkpt lat="50.18754" lon="4.37565">
        <ele>256</ele>
        <time>2016-8-7T9:47:25.000Z</time>
      </trkpt>
      <trkpt lat="50.18754" lon="4.37565">
        <ele>256</ele>
        <time>2016-8-7T9:47:25.000Z</time>
      </trkpt>
      <trkpt lat="50.18754" lon="4.37562">
        <ele>254.5</ele>
        <time>2016-8-7T9:47:25.000Z</time>
      </trkpt>
      <trkpt lat="50.18754" lon="4.37562">
        <ele>254.5</ele>
        <time>2016-8-7T9:47:25.000Z</time>
      </trkpt>
      <trkpt lat="50.18753" lon="4.37559">
        <ele>253.5</ele>
        <time>2016-8-7T9:47:25.000Z</time>
      </trkpt>
      <trkpt lat="50.18753" lon="4.37559">
        <ele>253.5</ele>
        <time>2016-8-7T9:47:25.000Z</time>
      </trkpt>
      <trkpt lat="50.18753" lon="4.37557">
        <ele>253</ele>
        <time>2016-8-7T9:47:25.000Z</time>
      </trkpt>
      <trkpt lat="50.18753" lon="4.37557">
        <ele>253</ele>
        <time>2016-8-7T9:47:25.000Z</time>
      </trkpt>
      <trkpt lat="50.18752" lon="4.37555">
        <ele>252</ele>
        <time>2016-8-7T9:47:25.000Z</time>
      </trkpt>
      <trkpt lat="50.18752" lon="4.37555">
        <ele>252</ele>
        <time>2016-8-7T9:47:25.000Z</time>
      </trkpt>
      <trkpt lat="50.18752" lon="4.37552">
        <ele>251</ele>
        <time>2016-8-7T9:47:25.000Z</time>
      </trkpt>
      <trkpt lat="50.18752" lon="4.37552">
        <ele>251</ele>
        <time>2016-8-7T9:47:25.000Z</time>
      </trkpt>
      <trkpt lat="50.18751" lon="4.37549">
        <ele>250</ele>
        <time>2016-8-7T9:47:25.000Z</time>
      </trkpt>
      <trkpt lat="50.18751" lon="4.37549">
        <ele>250</ele>
        <time>2016-8-7T9:47:25.000Z</time>
      </trkpt>
      <trkpt lat="50.1875" lon="4.37548">
        <ele>250</ele>
        <time>2016-8-7T9:47:25.000Z</time>
      </trkpt>
      <trkpt lat="50.1875" lon="4.37548">
        <ele>250</ele>
        <time>2016-8-7T9:47:25.000Z</time>
      </trkpt>
      <trkpt lat="50.18749" lon="4.37544">
        <ele>249.5</ele>
        <time>2016-8-7T9:47:25.000Z</time>
      </trkpt>
      <trkpt lat="50.18749" lon="4.37544">
        <ele>249.5</ele>
        <time>2016-8-7T9:47:25.000Z</time>
      </trkpt>
      <trkpt lat="50.18747" lon="4.37541">
        <ele>249</ele>
        <time>2016-8-7T9:47:25.000Z</time>
      </trkpt>
      <trkpt lat="50.18747" lon="4.37541">
        <ele>249</ele>
        <time>2016-8-7T9:47:25.000Z</time>
      </trkpt>
      <trkpt lat="50.18747" lon="4.37539">
        <ele>249</ele>
        <time>2016-8-7T9:47:25.000Z</time>
      </trkpt>
      <trkpt lat="50.18747" lon="4.37539">
        <ele>249</ele>
        <time>2016-8-7T9:47:25.000Z</time>
      </trkpt>
      <trkpt lat="50.18746" lon="4.37538">
        <ele>248.5</ele>
        <time>2016-8-7T9:47:25.000Z</time>
      </trkpt>
      <trkpt lat="50.18746" lon="4.37538">
        <ele>248.5</ele>
        <time>2016-8-7T9:47:25.000Z</time>
      </trkpt>
      <trkpt lat="50.18744" lon="4.37534">
        <ele>248.5</ele>
        <time>2016-8-7T9:47:25.000Z</time>
      </trkpt>
      <trkpt lat="50.18744" lon="4.37534">
        <ele>248.5</ele>
        <time>2016-8-7T9:47:25.000Z</time>
      </trkpt>
      <trkpt lat="50.18743" lon="4.37532">
        <ele>248</ele>
        <time>2016-8-7T9:47:25.000Z</time>
      </trkpt>
      <trkpt lat="50.18743" lon="4.37532">
        <ele>248</ele>
        <time>2016-8-7T9:47:25.000Z</time>
      </trkpt>
      <trkpt lat="50.18742" lon="4.37529">
        <ele>248</ele>
        <time>2016-8-7T9:47:25.000Z</time>
      </trkpt>
      <trkpt lat="50.18742" lon="4.37529">
        <ele>248</ele>
        <time>2016-8-7T9:47:25.000Z</time>
      </trkpt>
      <trkpt lat="50.18742" lon="4.37528">
        <ele>248.5</ele>
        <time>2016-8-7T9:47:25.000Z</time>
      </trkpt>
      <trkpt lat="50.18742" lon="4.37528">
        <ele>248.5</ele>
        <time>2016-8-7T9:47:25.000Z</time>
      </trkpt>
      <trkpt lat="50.1874" lon="4.37525">
        <ele>248</ele>
        <time>2016-8-7T9:47:25.000Z</time>
      </trkpt>
      <trkpt lat="50.1874" lon="4.37525">
        <ele>248</ele>
        <time>2016-8-7T9:47:25.000Z</time>
      </trkpt>
      <trkpt lat="50.18738" lon="4.37521">
        <ele>246.5</ele>
        <time>2016-8-7T9:47:25.000Z</time>
      </trkpt>
      <trkpt lat="50.18738" lon="4.37521">
        <ele>246.5</ele>
        <time>2016-8-7T9:47:25.000Z</time>
      </trkpt>
      <trkpt lat="50.18737" lon="4.37517">
        <ele>246.5</ele>
        <time>2016-8-7T9:47:25.000Z</time>
      </trkpt>
      <trkpt lat="50.18737" lon="4.37517">
        <ele>246.5</ele>
        <time>2016-8-7T9:47:25.000Z</time>
      </trkpt>
      <trkpt lat="50.18736" lon="4.37513">
        <ele>248.5</ele>
        <time>2016-8-7T9:47:25.000Z</time>
      </trkpt>
      <trkpt lat="50.18736" lon="4.37513">
        <ele>248.5</ele>
        <time>2016-8-7T9:47:25.000Z</time>
      </trkpt>
      <trkpt lat="50.18735" lon="4.37509">
        <ele>248.5</ele>
        <time>2016-8-7T9:48:39.000Z</time>
      </trkpt>
      <trkpt lat="50.18735" lon="4.37509">
        <ele>248.5</ele>
        <time>2016-8-7T9:48:39.000Z</time>
      </trkpt>
      <trkpt lat="50.18735" lon="4.37506">
        <ele>248.5</ele>
        <time>2016-8-7T9:48:39.000Z</time>
      </trkpt>
      <trkpt lat="50.18735" lon="4.37506">
        <ele>248.5</ele>
        <time>2016-8-7T9:48:39.000Z</time>
      </trkpt>
      <trkpt lat="50.18736" lon="4.37504">
        <ele>248.5</ele>
        <time>2016-8-7T9:48:39.000Z</time>
      </trkpt>
      <trkpt lat="50.18736" lon="4.37504">
        <ele>248.5</ele>
        <time>2016-8-7T9:48:39.000Z</time>
      </trkpt>
      <trkpt lat="50.18736" lon="4.37501">
        <ele>246.5</ele>
        <time>2016-8-7T9:48:39.000Z</time>
      </trkpt>
      <trkpt lat="50.18736" lon="4.37501">
        <ele>246.5</ele>
        <time>2016-8-7T9:48:39.000Z</time>
      </trkpt>
      <trkpt lat="50.18736" lon="4.37499">
        <ele>246.5</ele>
        <time>2016-8-7T9:48:39.000Z</time>
      </trkpt>
      <trkpt lat="50.18736" lon="4.37499">
        <ele>246.5</ele>
        <time>2016-8-7T9:48:39.000Z</time>
      </trkpt>
      <trkpt lat="50.18735" lon="4.37496">
        <ele>246.5</ele>
        <time>2016-8-7T9:48:39.000Z</time>
      </trkpt>
      <trkpt lat="50.18735" lon="4.37496">
        <ele>246.5</ele>
        <time>2016-8-7T9:48:39.000Z</time>
      </trkpt>
      <trkpt lat="50.18735" lon="4.37493">
        <ele>247.5</ele>
        <time>2016-8-7T9:48:39.000Z</time>
      </trkpt>
      <trkpt lat="50.18735" lon="4.37493">
        <ele>247.5</ele>
        <time>2016-8-7T9:48:39.000Z</time>
      </trkpt>
      <trkpt lat="50.18735" lon="4.3749">
        <ele>246.5</ele>
        <time>2016-8-7T9:48:39.000Z</time>
      </trkpt>
      <trkpt lat="50.18735" lon="4.3749">
        <ele>246.5</ele>
        <time>2016-8-7T9:48:39.000Z</time>
      </trkpt>
      <trkpt lat="50.18734" lon="4.37488">
        <ele>246.5</ele>
        <time>2016-8-7T9:48:39.000Z</time>
      </trkpt>
      <trkpt lat="50.18734" lon="4.37488">
        <ele>246.5</ele>
        <time>2016-8-7T9:48:39.000Z</time>
      </trkpt>
      <trkpt lat="50.18734" lon="4.37485">
        <ele>245.5</ele>
        <time>2016-8-7T9:48:39.000Z</time>
      </trkpt>
      <trkpt lat="50.18734" lon="4.37485">
        <ele>245.5</ele>
        <time>2016-8-7T9:48:39.000Z</time>
      </trkpt>
      <trkpt lat="50.18734" lon="4.37483">
        <ele>245.5</ele>
        <time>2016-8-7T9:48:39.000Z</time>
      </trkpt>
      <trkpt lat="50.18734" lon="4.37483">
        <ele>245.5</ele>
        <time>2016-8-7T9:48:39.000Z</time>
      </trkpt>
      <trkpt lat="50.18733" lon="4.37481">
        <ele>246.5</ele>
        <time>2016-8-7T9:48:39.000Z</time>
      </trkpt>
      <trkpt lat="50.18733" lon="4.37481">
        <ele>246.5</ele>
        <time>2016-8-7T9:48:39.000Z</time>
      </trkpt>
      <trkpt lat="50.18733" lon="4.37478">
        <ele>246.5</ele>
        <time>2016-8-7T9:48:39.000Z</time>
      </trkpt>
      <trkpt lat="50.18733" lon="4.37478">
        <ele>246.5</ele>
        <time>2016-8-7T9:48:39.000Z</time>
      </trkpt>
      <trkpt lat="50.18733" lon="4.37476">
        <ele>244.5</ele>
        <time>2016-8-7T9:48:39.000Z</time>
      </trkpt>
      <trkpt lat="50.18733" lon="4.37476">
        <ele>244.5</ele>
        <time>2016-8-7T9:48:39.000Z</time>
      </trkpt>
      <trkpt lat="50.18732" lon="4.37471">
        <ele>245.5</ele>
        <time>2016-8-7T9:48:39.000Z</time>
      </trkpt>
      <trkpt lat="50.18732" lon="4.37471">
        <ele>245.5</ele>
        <time>2016-8-7T9:48:39.000Z</time>
      </trkpt>
      <trkpt lat="50.18731" lon="4.37468">
        <ele>246.5</ele>
        <time>2016-8-7T9:48:39.000Z</time>
      </trkpt>
      <trkpt lat="50.18731" lon="4.37468">
        <ele>246.5</ele>
        <time>2016-8-7T9:48:39.000Z</time>
      </trkpt>
      <trkpt lat="50.18731" lon="4.37466">
        <ele>246.5</ele>
        <time>2016-8-7T9:48:39.000Z</time>
      </trkpt>
      <trkpt lat="50.18731" lon="4.37466">
        <ele>246.5</ele>
        <time>2016-8-7T9:48:39.000Z</time>
      </trkpt>
      <trkpt lat="50.18731" lon="4.37463">
        <ele>246.5</ele>
        <time>2016-8-7T9:48:39.000Z</time>
      </trkpt>
      <trkpt lat="50.18731" lon="4.37463">
        <ele>246.5</ele>
        <time>2016-8-7T9:48:39.000Z</time>
      </trkpt>
      <trkpt lat="50.18731" lon="4.37461">
        <ele>245.5</ele>
        <time>2016-8-7T9:48:39.000Z</time>
      </trkpt>
      <trkpt lat="50.18731" lon="4.37461">
        <ele>245.5</ele>
        <time>2016-8-7T9:48:39.000Z</time>
      </trkpt>
      <trkpt lat="50.18731" lon="4.37457">
        <ele>245.5</ele>
        <time>2016-8-7T9:48:39.000Z</time>
      </trkpt>
      <trkpt lat="50.18731" lon="4.37457">
        <ele>245.5</ele>
        <time>2016-8-7T9:48:39.000Z</time>
      </trkpt>
      <trkpt lat="50.18731" lon="4.37453">
        <ele>245.5</ele>
        <time>2016-8-7T9:48:39.000Z</time>
      </trkpt>
      <trkpt lat="50.18731" lon="4.37453">
        <ele>245.5</ele>
        <time>2016-8-7T9:48:39.000Z</time>
      </trkpt>
      <trkpt lat="50.1873" lon="4.37452">
        <ele>245.5</ele>
        <time>2016-8-7T9:48:39.000Z</time>
      </trkpt>
      <trkpt lat="50.1873" lon="4.37452">
        <ele>245.5</ele>
        <time>2016-8-7T9:48:39.000Z</time>
      </trkpt>
      <trkpt lat="50.1873" lon="4.3745">
        <ele>245.5</ele>
        <time>2016-8-7T9:48:39.000Z</time>
      </trkpt>
      <trkpt lat="50.1873" lon="4.3745">
        <ele>245.5</ele>
        <time>2016-8-7T9:48:39.000Z</time>
      </trkpt>
      <trkpt lat="50.1873" lon="4.37446">
        <ele>245.5</ele>
        <time>2016-8-7T9:48:39.000Z</time>
      </trkpt>
      <trkpt lat="50.1873" lon="4.37446">
        <ele>245.5</ele>
        <time>2016-8-7T9:48:39.000Z</time>
      </trkpt>
      <trkpt lat="50.18729" lon="4.37442">
        <ele>246</ele>
        <time>2016-8-7T9:48:39.000Z</time>
      </trkpt>
      <trkpt lat="50.18729" lon="4.37442">
        <ele>246</ele>
        <time>2016-8-7T9:48:39.000Z</time>
      </trkpt>
      <trkpt lat="50.18729" lon="4.3744">
        <ele>245.5</ele>
        <time>2016-8-7T9:48:39.000Z</time>
      </trkpt>
      <trkpt lat="50.18729" lon="4.3744">
        <ele>245.5</ele>
        <time>2016-8-7T9:48:39.000Z</time>
      </trkpt>
      <trkpt lat="50.18729" lon="4.37437">
        <ele>245</ele>
        <time>2016-8-7T9:48:39.000Z</time>
      </trkpt>
      <trkpt lat="50.18729" lon="4.37437">
        <ele>245</ele>
        <time>2016-8-7T9:48:39.000Z</time>
      </trkpt>
      <trkpt lat="50.18728" lon="4.37433">
        <ele>245</ele>
        <time>2016-8-7T9:48:39.000Z</time>
      </trkpt>
      <trkpt lat="50.18728" lon="4.37433">
        <ele>245</ele>
        <time>2016-8-7T9:48:39.000Z</time>
      </trkpt>
      <trkpt lat="50.18728" lon="4.3743">
        <ele>244.5</ele>
        <time>2016-8-7T9:48:39.000Z</time>
      </trkpt>
      <trkpt lat="50.18728" lon="4.3743">
        <ele>244.5</ele>
        <time>2016-8-7T9:48:39.000Z</time>
      </trkpt>
      <trkpt lat="50.18728" lon="4.37427">
        <ele>244</ele>
        <time>2016-8-7T9:48:39.000Z</time>
      </trkpt>
      <trkpt lat="50.18728" lon="4.37427">
        <ele>244</ele>
        <time>2016-8-7T9:48:39.000Z</time>
      </trkpt>
      <trkpt lat="50.18728" lon="4.37425">
        <ele>244</ele>
        <time>2016-8-7T9:48:39.000Z</time>
      </trkpt>
      <trkpt lat="50.18728" lon="4.37425">
        <ele>244</ele>
        <time>2016-8-7T9:48:39.000Z</time>
      </trkpt>
      <trkpt lat="50.18728" lon="4.37422">
        <ele>243.5</ele>
        <time>2016-8-7T9:48:39.000Z</time>
      </trkpt>
      <trkpt lat="50.18728" lon="4.37422">
        <ele>243.5</ele>
        <time>2016-8-7T9:48:39.000Z</time>
      </trkpt>
      <trkpt lat="50.18728" lon="4.3742">
        <ele>242</ele>
        <time>2016-8-7T9:48:39.000Z</time>
      </trkpt>
      <trkpt lat="50.18728" lon="4.3742">
        <ele>242</ele>
        <time>2016-8-7T9:48:39.000Z</time>
      </trkpt>
      <trkpt lat="50.18728" lon="4.37417">
        <ele>241</ele>
        <time>2016-8-7T9:48:39.000Z</time>
      </trkpt>
      <trkpt lat="50.18728" lon="4.37417">
        <ele>241</ele>
        <time>2016-8-7T9:48:39.000Z</time>
      </trkpt>
      <trkpt lat="50.18729" lon="4.37415">
        <ele>240.5</ele>
        <time>2016-8-7T9:48:39.000Z</time>
      </trkpt>
      <trkpt lat="50.18729" lon="4.37415">
        <ele>240.5</ele>
        <time>2016-8-7T9:48:39.000Z</time>
      </trkpt>
      <trkpt lat="50.18729" lon="4.37411">
        <ele>240.5</ele>
        <time>2016-8-7T9:48:39.000Z</time>
      </trkpt>
      <trkpt lat="50.18729" lon="4.37411">
        <ele>240.5</ele>
        <time>2016-8-7T9:48:39.000Z</time>
      </trkpt>
      <trkpt lat="50.1873" lon="4.37407">
        <ele>240.5</ele>
        <time>2016-8-7T9:48:39.000Z</time>
      </trkpt>
      <trkpt lat="50.1873" lon="4.37407">
        <ele>240.5</ele>
        <time>2016-8-7T9:48:39.000Z</time>
      </trkpt>
      <trkpt lat="50.1873" lon="4.37404">
        <ele>240.5</ele>
        <time>2016-8-7T9:48:39.000Z</time>
      </trkpt>
      <trkpt lat="50.1873" lon="4.37404">
        <ele>240.5</ele>
        <time>2016-8-7T9:48:39.000Z</time>
      </trkpt>
      <trkpt lat="50.1873" lon="4.37402">
        <ele>240.5</ele>
        <time>2016-8-7T9:48:39.000Z</time>
      </trkpt>
      <trkpt lat="50.1873" lon="4.37402">
        <ele>240.5</ele>
        <time>2016-8-7T9:48:39.000Z</time>
      </trkpt>
      <trkpt lat="50.1873" lon="4.374">
        <ele>240.5</ele>
        <time>2016-8-7T9:48:39.000Z</time>
      </trkpt>
      <trkpt lat="50.1873" lon="4.374">
        <ele>240.5</ele>
        <time>2016-8-7T9:48:39.000Z</time>
      </trkpt>
      <trkpt lat="50.18729" lon="4.37387">
        <ele>241.5</ele>
        <time>2016-8-7T9:48:39.000Z</time>
      </trkpt>
      <trkpt lat="50.18729" lon="4.37387">
        <ele>241.5</ele>
        <time>2016-8-7T9:48:39.000Z</time>
      </trkpt>
      <trkpt lat="50.18728" lon="4.37384">
        <ele>242</ele>
        <time>2016-8-7T9:48:39.000Z</time>
      </trkpt>
      <trkpt lat="50.18728" lon="4.37384">
        <ele>242</ele>
        <time>2016-8-7T9:48:39.000Z</time>
      </trkpt>
      <trkpt lat="50.18729" lon="4.37382">
        <ele>242</ele>
        <time>2016-8-7T9:48:39.000Z</time>
      </trkpt>
      <trkpt lat="50.18729" lon="4.37382">
        <ele>242</ele>
        <time>2016-8-7T9:48:39.000Z</time>
      </trkpt>
      <trkpt lat="50.18731" lon="4.37362">
        <ele>242.5</ele>
        <time>2016-8-7T9:48:39.000Z</time>
      </trkpt>
      <trkpt lat="50.18731" lon="4.37362">
        <ele>242.5</ele>
        <time>2016-8-7T9:48:39.000Z</time>
      </trkpt>
      <trkpt lat="50.18732" lon="4.37361">
        <ele>243</ele>
        <time>2016-8-7T9:48:39.000Z</time>
      </trkpt>
      <trkpt lat="50.18732" lon="4.37361">
        <ele>243</ele>
        <time>2016-8-7T9:48:39.000Z</time>
      </trkpt>
      <trkpt lat="50.18732" lon="4.37359">
        <ele>243</ele>
        <time>2016-8-7T9:48:39.000Z</time>
      </trkpt>
      <trkpt lat="50.18732" lon="4.37359">
        <ele>243</ele>
        <time>2016-8-7T9:48:39.000Z</time>
      </trkpt>
      <trkpt lat="50.18732" lon="4.37356">
        <ele>244</ele>
        <time>2016-8-7T9:48:39.000Z</time>
      </trkpt>
      <trkpt lat="50.18732" lon="4.37356">
        <ele>244</ele>
        <time>2016-8-7T9:48:39.000Z</time>
      </trkpt>
      <trkpt lat="50.18732" lon="4.37354">
        <ele>246</ele>
        <time>2016-8-7T9:48:39.000Z</time>
      </trkpt>
      <trkpt lat="50.18732" lon="4.37354">
        <ele>246</ele>
        <time>2016-8-7T9:48:39.000Z</time>
      </trkpt>
      <trkpt lat="50.18733" lon="4.3735">
        <ele>250.5</ele>
        <time>2016-8-7T9:48:39.000Z</time>
      </trkpt>
      <trkpt lat="50.18733" lon="4.3735">
        <ele>250.5</ele>
        <time>2016-8-7T9:48:39.000Z</time>
      </trkpt>
      <trkpt lat="50.18734" lon="4.37347">
        <ele>254</ele>
        <time>2016-8-7T9:48:39.000Z</time>
      </trkpt>
      <trkpt lat="50.18734" lon="4.37347">
        <ele>254</ele>
        <time>2016-8-7T9:48:39.000Z</time>
      </trkpt>
      <trkpt lat="50.18735" lon="4.37345">
        <ele>256.5</ele>
        <time>2016-8-7T9:48:39.000Z</time>
      </trkpt>
      <trkpt lat="50.18735" lon="4.37345">
        <ele>256.5</ele>
        <time>2016-8-7T9:50:38.000Z</time>
      </trkpt>
      <trkpt lat="50.18736" lon="4.37343">
        <ele>257</ele>
        <time>2016-8-7T9:50:38.000Z</time>
      </trkpt>
      <trkpt lat="50.18736" lon="4.37343">
        <ele>257</ele>
        <time>2016-8-7T9:50:38.000Z</time>
      </trkpt>
      <trkpt lat="50.18738" lon="4.37338">
        <ele>259.5</ele>
        <time>2016-8-7T9:50:38.000Z</time>
      </trkpt>
      <trkpt lat="50.18738" lon="4.37338">
        <ele>259.5</ele>
        <time>2016-8-7T9:50:38.000Z</time>
      </trkpt>
      <trkpt lat="50.1874" lon="4.37337">
        <ele>260.5</ele>
        <time>2016-8-7T9:50:38.000Z</time>
      </trkpt>
      <trkpt lat="50.1874" lon="4.37337">
        <ele>260.5</ele>
        <time>2016-8-7T9:50:38.000Z</time>
      </trkpt>
      <trkpt lat="50.18741" lon="4.37336">
        <ele>261</ele>
        <time>2016-8-7T9:50:38.000Z</time>
      </trkpt>
      <trkpt lat="50.18741" lon="4.37336">
        <ele>261</ele>
        <time>2016-8-7T9:50:38.000Z</time>
      </trkpt>
      <trkpt lat="50.18743" lon="4.37335">
        <ele>261.5</ele>
        <time>2016-8-7T9:50:38.000Z</time>
      </trkpt>
      <trkpt lat="50.18743" lon="4.37335">
        <ele>261.5</ele>
        <time>2016-8-7T9:50:38.000Z</time>
      </trkpt>
      <trkpt lat="50.18744" lon="4.37334">
        <ele>262</ele>
        <time>2016-8-7T9:50:38.000Z</time>
      </trkpt>
      <trkpt lat="50.18744" lon="4.37334">
        <ele>262</ele>
        <time>2016-8-7T9:50:38.000Z</time>
      </trkpt>
      <trkpt lat="50.18745" lon="4.37333">
        <ele>263.5</ele>
        <time>2016-8-7T9:50:38.000Z</time>
      </trkpt>
      <trkpt lat="50.18745" lon="4.37333">
        <ele>263.5</ele>
        <time>2016-8-7T9:50:38.000Z</time>
      </trkpt>
      <trkpt lat="50.18747" lon="4.37331">
        <ele>263.5</ele>
        <time>2016-8-7T9:50:38.000Z</time>
      </trkpt>
      <trkpt lat="50.18747" lon="4.37331">
        <ele>263.5</ele>
        <time>2016-8-7T9:50:38.000Z</time>
      </trkpt>
      <trkpt lat="50.18749" lon="4.37329">
        <ele>263.5</ele>
        <time>2016-8-7T9:50:38.000Z</time>
      </trkpt>
      <trkpt lat="50.18749" lon="4.37329">
        <ele>263.5</ele>
        <time>2016-8-7T9:50:38.000Z</time>
      </trkpt>
      <trkpt lat="50.18769" lon="4.37316">
        <ele>265.5</ele>
        <time>2016-8-7T9:50:38.000Z</time>
      </trkpt>
      <trkpt lat="50.18769" lon="4.37316">
        <ele>265.5</ele>
        <time>2016-8-7T9:50:38.000Z</time>
      </trkpt>
      <trkpt lat="50.18771" lon="4.37315">
        <ele>266</ele>
        <time>2016-8-7T9:50:38.000Z</time>
      </trkpt>
      <trkpt lat="50.18771" lon="4.37315">
        <ele>266</ele>
        <time>2016-8-7T9:50:38.000Z</time>
      </trkpt>
      <trkpt lat="50.18774" lon="4.37313">
        <ele>267</ele>
        <time>2016-8-7T9:50:38.000Z</time>
      </trkpt>
      <trkpt lat="50.18774" lon="4.37313">
        <ele>267</ele>
        <time>2016-8-7T9:50:38.000Z</time>
      </trkpt>
      <trkpt lat="50.18777" lon="4.3731">
        <ele>268</ele>
        <time>2016-8-7T9:50:38.000Z</time>
      </trkpt>
      <trkpt lat="50.18777" lon="4.3731">
        <ele>268</ele>
        <time>2016-8-7T9:50:38.000Z</time>
      </trkpt>
      <trkpt lat="50.18784" lon="4.37304">
        <ele>269</ele>
        <time>2016-8-7T9:50:38.000Z</time>
      </trkpt>
      <trkpt lat="50.18784" lon="4.37304">
        <ele>269</ele>
        <time>2016-8-7T9:50:38.000Z</time>
      </trkpt>
      <trkpt lat="50.18785" lon="4.37302">
        <ele>269</ele>
        <time>2016-8-7T9:50:38.000Z</time>
      </trkpt>
      <trkpt lat="50.18785" lon="4.37302">
        <ele>269</ele>
        <time>2016-8-7T9:50:38.000Z</time>
      </trkpt>
      <trkpt lat="50.18786" lon="4.373">
        <ele>269.5</ele>
        <time>2016-8-7T9:50:38.000Z</time>
      </trkpt>
      <trkpt lat="50.18786" lon="4.373">
        <ele>269.5</ele>
        <time>2016-8-7T9:50:38.000Z</time>
      </trkpt>
      <trkpt lat="50.18787" lon="4.37297">
        <ele>270</ele>
        <time>2016-8-7T9:50:38.000Z</time>
      </trkpt>
      <trkpt lat="50.18787" lon="4.37297">
        <ele>270</ele>
        <time>2016-8-7T9:50:38.000Z</time>
      </trkpt>
      <trkpt lat="50.18789" lon="4.37293">
        <ele>276.5</ele>
        <time>2016-8-7T9:50:38.000Z</time>
      </trkpt>
      <trkpt lat="50.18789" lon="4.37293">
        <ele>276.5</ele>
        <time>2016-8-7T9:50:38.000Z</time>
      </trkpt>
      <trkpt lat="50.1879" lon="4.37291">
        <ele>277.5</ele>
        <time>2016-8-7T9:50:38.000Z</time>
      </trkpt>
      <trkpt lat="50.1879" lon="4.37291">
        <ele>277.5</ele>
        <time>2016-8-7T9:50:38.000Z</time>
      </trkpt>
      <trkpt lat="50.1879" lon="4.37289">
        <ele>276.5</ele>
        <time>2016-8-7T9:50:38.000Z</time>
      </trkpt>
      <trkpt lat="50.1879" lon="4.37289">
        <ele>276.5</ele>
        <time>2016-8-7T9:50:38.000Z</time>
      </trkpt>
      <trkpt lat="50.18791" lon="4.37286">
        <ele>275.5</ele>
        <time>2016-8-7T9:50:38.000Z</time>
      </trkpt>
      <trkpt lat="50.18791" lon="4.37286">
        <ele>275.5</ele>
        <time>2016-8-7T9:50:38.000Z</time>
      </trkpt>
      <trkpt lat="50.18791" lon="4.37284">
        <ele>274.5</ele>
        <time>2016-8-7T9:50:38.000Z</time>
      </trkpt>
      <trkpt lat="50.18791" lon="4.37284">
        <ele>274.5</ele>
        <time>2016-8-7T9:50:38.000Z</time>
      </trkpt>
      <trkpt lat="50.18793" lon="4.37279">
        <ele>271.5</ele>
        <time>2016-8-7T9:50:38.000Z</time>
      </trkpt>
      <trkpt lat="50.18793" lon="4.37279">
        <ele>271.5</ele>
        <time>2016-8-7T9:50:38.000Z</time>
      </trkpt>
      <trkpt lat="50.18794" lon="4.37276">
        <ele>267.5</ele>
        <time>2016-8-7T9:50:38.000Z</time>
      </trkpt>
      <trkpt lat="50.18794" lon="4.37276">
        <ele>267.5</ele>
        <time>2016-8-7T9:50:38.000Z</time>
      </trkpt>
      <trkpt lat="50.18795" lon="4.37272">
        <ele>265.5</ele>
        <time>2016-8-7T9:50:38.000Z</time>
      </trkpt>
      <trkpt lat="50.18795" lon="4.37272">
        <ele>265.5</ele>
        <time>2016-8-7T9:50:38.000Z</time>
      </trkpt>
      <trkpt lat="50.18796" lon="4.37269">
        <ele>265.5</ele>
        <time>2016-8-7T9:50:38.000Z</time>
      </trkpt>
      <trkpt lat="50.18796" lon="4.37269">
        <ele>265.5</ele>
        <time>2016-8-7T9:50:38.000Z</time>
      </trkpt>
      <trkpt lat="50.18799" lon="4.37244">
        <ele>255.5</ele>
        <time>2016-8-7T9:50:38.000Z</time>
      </trkpt>
      <trkpt lat="50.18799" lon="4.37244">
        <ele>255.5</ele>
        <time>2016-8-7T9:50:38.000Z</time>
      </trkpt>
      <trkpt lat="50.18798" lon="4.37242">
        <ele>255.5</ele>
        <time>2016-8-7T9:50:38.000Z</time>
      </trkpt>
      <trkpt lat="50.18798" lon="4.37242">
        <ele>255.5</ele>
        <time>2016-8-7T9:50:38.000Z</time>
      </trkpt>
      <trkpt lat="50.18798" lon="4.3724">
        <ele>255.5</ele>
        <time>2016-8-7T9:50:38.000Z</time>
      </trkpt>
      <trkpt lat="50.18798" lon="4.3724">
        <ele>255.5</ele>
        <time>2016-8-7T9:50:38.000Z</time>
      </trkpt>
      <trkpt lat="50.18798" lon="4.37237">
        <ele>258.5</ele>
        <time>2016-8-7T9:50:38.000Z</time>
      </trkpt>
      <trkpt lat="50.18798" lon="4.37237">
        <ele>258.5</ele>
        <time>2016-8-7T9:50:38.000Z</time>
      </trkpt>
      <trkpt lat="50.18798" lon="4.37234">
        <ele>259.5</ele>
        <time>2016-8-7T9:50:38.000Z</time>
      </trkpt>
      <trkpt lat="50.18798" lon="4.37234">
        <ele>259.5</ele>
        <time>2016-8-7T9:50:38.000Z</time>
      </trkpt>
      <trkpt lat="50.18798" lon="4.3723">
        <ele>262.5</ele>
        <time>2016-8-7T9:50:38.000Z</time>
      </trkpt>
      <trkpt lat="50.18798" lon="4.3723">
        <ele>262.5</ele>
        <time>2016-8-7T9:50:38.000Z</time>
      </trkpt>
      <trkpt lat="50.18792" lon="4.37208">
        <ele>258.5</ele>
        <time>2016-8-7T9:50:38.000Z</time>
      </trkpt>
      <trkpt lat="50.18792" lon="4.37208">
        <ele>258.5</ele>
        <time>2016-8-7T9:50:38.000Z</time>
      </trkpt>
      <trkpt lat="50.18791" lon="4.37206">
        <ele>258.5</ele>
        <time>2016-8-7T9:50:38.000Z</time>
      </trkpt>
      <trkpt lat="50.18791" lon="4.37206">
        <ele>258.5</ele>
        <time>2016-8-7T9:50:38.000Z</time>
      </trkpt>
      <trkpt lat="50.18791" lon="4.37202">
        <ele>257.5</ele>
        <time>2016-8-7T9:50:38.000Z</time>
      </trkpt>
      <trkpt lat="50.18791" lon="4.37202">
        <ele>257.5</ele>
        <time>2016-8-7T9:50:38.000Z</time>
      </trkpt>
      <trkpt lat="50.1879" lon="4.37198">
        <ele>259.5</ele>
        <time>2016-8-7T9:50:38.000Z</time>
      </trkpt>
      <trkpt lat="50.1879" lon="4.37198">
        <ele>259.5</ele>
        <time>2016-8-7T9:50:38.000Z</time>
      </trkpt>
      <trkpt lat="50.1879" lon="4.37197">
        <ele>260.5</ele>
        <time>2016-8-7T9:50:38.000Z</time>
      </trkpt>
      <trkpt lat="50.1879" lon="4.37197">
        <ele>260.5</ele>
        <time>2016-8-7T9:50:38.000Z</time>
      </trkpt>
      <trkpt lat="50.18789" lon="4.37194">
        <ele>262.5</ele>
        <time>2016-8-7T9:50:38.000Z</time>
      </trkpt>
      <trkpt lat="50.18789" lon="4.37194">
        <ele>262.5</ele>
        <time>2016-8-7T9:50:38.000Z</time>
      </trkpt>
      <trkpt lat="50.18789" lon="4.37191">
        <ele>262.5</ele>
        <time>2016-8-7T9:50:38.000Z</time>
      </trkpt>
      <trkpt lat="50.18789" lon="4.37191">
        <ele>262.5</ele>
        <time>2016-8-7T9:50:38.000Z</time>
      </trkpt>
      <trkpt lat="50.18788" lon="4.3719">
        <ele>263.5</ele>
        <time>2016-8-7T9:50:38.000Z</time>
      </trkpt>
      <trkpt lat="50.18788" lon="4.3719">
        <ele>263.5</ele>
        <time>2016-8-7T9:50:38.000Z</time>
      </trkpt>
      <trkpt lat="50.18787" lon="4.37188">
        <ele>264.5</ele>
        <time>2016-8-7T9:50:38.000Z</time>
      </trkpt>
      <trkpt lat="50.18787" lon="4.37188">
        <ele>264.5</ele>
        <time>2016-8-7T9:50:38.000Z</time>
      </trkpt>
      <trkpt lat="50.18786" lon="4.37186">
        <ele>264.5</ele>
        <time>2016-8-7T9:50:38.000Z</time>
      </trkpt>
      <trkpt lat="50.18786" lon="4.37186">
        <ele>264.5</ele>
        <time>2016-8-7T9:50:38.000Z</time>
      </trkpt>
      <trkpt lat="50.18785" lon="4.37183">
        <ele>264.5</ele>
        <time>2016-8-7T9:50:38.000Z</time>
      </trkpt>
      <trkpt lat="50.18785" lon="4.37183">
        <ele>264.5</ele>
        <time>2016-8-7T9:50:38.000Z</time>
      </trkpt>
      <trkpt lat="50.18784" lon="4.3718">
        <ele>264.5</ele>
        <time>2016-8-7T9:50:38.000Z</time>
      </trkpt>
      <trkpt lat="50.18784" lon="4.3718">
        <ele>264.5</ele>
        <time>2016-8-7T9:50:38.000Z</time>
      </trkpt>
      <trkpt lat="50.18783" lon="4.37176">
        <ele>264.5</ele>
        <time>2016-8-7T9:50:38.000Z</time>
      </trkpt>
      <trkpt lat="50.18783" lon="4.37176">
        <ele>264.5</ele>
        <time>2016-8-7T9:50:38.000Z</time>
      </trkpt>
      <trkpt lat="50.18781" lon="4.37172">
        <ele>265.5</ele>
        <time>2016-8-7T9:50:38.000Z</time>
      </trkpt>
      <trkpt lat="50.18781" lon="4.37172">
        <ele>265.5</ele>
        <time>2016-8-7T9:50:38.000Z</time>
      </trkpt>
      <trkpt lat="50.1878" lon="4.3717">
        <ele>265.5</ele>
        <time>2016-8-7T9:50:38.000Z</time>
      </trkpt>
      <trkpt lat="50.1878" lon="4.3717">
        <ele>265.5</ele>
        <time>2016-8-7T9:50:38.000Z</time>
      </trkpt>
      <trkpt lat="50.18779" lon="4.37168">
        <ele>264.5</ele>
        <time>2016-8-7T9:50:38.000Z</time>
      </trkpt>
      <trkpt lat="50.18779" lon="4.37168">
        <ele>264.5</ele>
        <time>2016-8-7T9:50:38.000Z</time>
      </trkpt>
      <trkpt lat="50.18779" lon="4.37166">
        <ele>263.5</ele>
        <time>2016-8-7T9:50:38.000Z</time>
      </trkpt>
      <trkpt lat="50.18779" lon="4.37166">
        <ele>263.5</ele>
        <time>2016-8-7T9:50:38.000Z</time>
      </trkpt>
      <trkpt lat="50.18778" lon="4.37162">
        <ele>262.5</ele>
        <time>2016-8-7T9:50:38.000Z</time>
      </trkpt>
      <trkpt lat="50.18778" lon="4.37162">
        <ele>262.5</ele>
        <time>2016-8-7T9:50:38.000Z</time>
      </trkpt>
      <trkpt lat="50.18777" lon="4.37159">
        <ele>262.5</ele>
        <time>2016-8-7T9:52:18.000Z</time>
      </trkpt>
      <trkpt lat="50.18777" lon="4.37159">
        <ele>262.5</ele>
        <time>2016-8-7T9:52:18.000Z</time>
      </trkpt>
      <trkpt lat="50.18776" lon="4.37157">
        <ele>261.5</ele>
        <time>2016-8-7T9:52:18.000Z</time>
      </trkpt>
      <trkpt lat="50.18776" lon="4.37157">
        <ele>261.5</ele>
        <time>2016-8-7T9:52:18.000Z</time>
      </trkpt>
      <trkpt lat="50.18775" lon="4.37153">
        <ele>260.5</ele>
        <time>2016-8-7T9:52:18.000Z</time>
      </trkpt>
      <trkpt lat="50.18775" lon="4.37153">
        <ele>260.5</ele>
        <time>2016-8-7T9:52:18.000Z</time>
      </trkpt>
      <trkpt lat="50.18774" lon="4.37151">
        <ele>260.5</ele>
        <time>2016-8-7T9:52:18.000Z</time>
      </trkpt>
      <trkpt lat="50.18774" lon="4.37151">
        <ele>260.5</ele>
        <time>2016-8-7T9:52:18.000Z</time>
      </trkpt>
      <trkpt lat="50.18773" lon="4.37148">
        <ele>261.5</ele>
        <time>2016-8-7T9:52:18.000Z</time>
      </trkpt>
      <trkpt lat="50.18773" lon="4.37148">
        <ele>261.5</ele>
        <time>2016-8-7T9:52:18.000Z</time>
      </trkpt>
      <trkpt lat="50.18772" lon="4.37145">
        <ele>259.5</ele>
        <time>2016-8-7T9:52:18.000Z</time>
      </trkpt>
      <trkpt lat="50.18772" lon="4.37145">
        <ele>259.5</ele>
        <time>2016-8-7T9:52:18.000Z</time>
      </trkpt>
      <trkpt lat="50.18771" lon="4.37143">
        <ele>259.5</ele>
        <time>2016-8-7T9:52:18.000Z</time>
      </trkpt>
      <trkpt lat="50.18771" lon="4.37143">
        <ele>259.5</ele>
        <time>2016-8-7T9:52:18.000Z</time>
      </trkpt>
      <trkpt lat="50.1877" lon="4.37141">
        <ele>260.5</ele>
        <time>2016-8-7T9:52:18.000Z</time>
      </trkpt>
      <trkpt lat="50.1877" lon="4.37141">
        <ele>260.5</ele>
        <time>2016-8-7T9:52:18.000Z</time>
      </trkpt>
      <trkpt lat="50.18769" lon="4.37139">
        <ele>260.5</ele>
        <time>2016-8-7T9:52:18.000Z</time>
      </trkpt>
      <trkpt lat="50.18769" lon="4.37139">
        <ele>260.5</ele>
        <time>2016-8-7T9:52:18.000Z</time>
      </trkpt>
      <trkpt lat="50.18768" lon="4.37137">
        <ele>260.5</ele>
        <time>2016-8-7T9:52:18.000Z</time>
      </trkpt>
      <trkpt lat="50.18768" lon="4.37137">
        <ele>260.5</ele>
        <time>2016-8-7T9:52:18.000Z</time>
      </trkpt>
      <trkpt lat="50.18767" lon="4.37135">
        <ele>259.5</ele>
        <time>2016-8-7T9:52:18.000Z</time>
      </trkpt>
      <trkpt lat="50.18767" lon="4.37135">
        <ele>259.5</ele>
        <time>2016-8-7T9:52:18.000Z</time>
      </trkpt>
      <trkpt lat="50.18765" lon="4.37133">
        <ele>259.5</ele>
        <time>2016-8-7T9:52:18.000Z</time>
      </trkpt>
      <trkpt lat="50.18765" lon="4.37133">
        <ele>259.5</ele>
        <time>2016-8-7T9:52:18.000Z</time>
      </trkpt>
      <trkpt lat="50.18763" lon="4.3713">
        <ele>260.5</ele>
        <time>2016-8-7T9:52:18.000Z</time>
      </trkpt>
      <trkpt lat="50.18763" lon="4.3713">
        <ele>260.5</ele>
        <time>2016-8-7T9:52:18.000Z</time>
      </trkpt>
      <trkpt lat="50.18762" lon="4.37126">
        <ele>262.5</ele>
        <time>2016-8-7T9:52:18.000Z</time>
      </trkpt>
      <trkpt lat="50.18762" lon="4.37126">
        <ele>262.5</ele>
        <time>2016-8-7T9:52:18.000Z</time>
      </trkpt>
      <trkpt lat="50.1876" lon="4.37124">
        <ele>261.5</ele>
        <time>2016-8-7T9:52:18.000Z</time>
      </trkpt>
      <trkpt lat="50.1876" lon="4.37124">
        <ele>261.5</ele>
        <time>2016-8-7T9:52:18.000Z</time>
      </trkpt>
      <trkpt lat="50.18758" lon="4.37121">
        <ele>263.5</ele>
        <time>2016-8-7T9:52:18.000Z</time>
      </trkpt>
      <trkpt lat="50.18758" lon="4.37121">
        <ele>263.5</ele>
        <time>2016-8-7T9:52:18.000Z</time>
      </trkpt>
      <trkpt lat="50.18757" lon="4.37119">
        <ele>264.5</ele>
        <time>2016-8-7T9:52:18.000Z</time>
      </trkpt>
      <trkpt lat="50.18757" lon="4.37119">
        <ele>264.5</ele>
        <time>2016-8-7T9:52:18.000Z</time>
      </trkpt>
      <trkpt lat="50.18755" lon="4.37116">
        <ele>264.5</ele>
        <time>2016-8-7T9:52:18.000Z</time>
      </trkpt>
      <trkpt lat="50.18755" lon="4.37116">
        <ele>264.5</ele>
        <time>2016-8-7T9:52:18.000Z</time>
      </trkpt>
      <trkpt lat="50.18753" lon="4.37113">
        <ele>266.5</ele>
        <time>2016-8-7T9:52:18.000Z</time>
      </trkpt>
      <trkpt lat="50.18753" lon="4.37113">
        <ele>266.5</ele>
        <time>2016-8-7T9:52:18.000Z</time>
      </trkpt>
      <trkpt lat="50.18752" lon="4.37111">
        <ele>266.5</ele>
        <time>2016-8-7T9:52:18.000Z</time>
      </trkpt>
      <trkpt lat="50.18752" lon="4.37111">
        <ele>266.5</ele>
        <time>2016-8-7T9:52:18.000Z</time>
      </trkpt>
      <trkpt lat="50.1875" lon="4.37107">
        <ele>265.5</ele>
        <time>2016-8-7T9:52:18.000Z</time>
      </trkpt>
      <trkpt lat="50.1875" lon="4.37107">
        <ele>265.5</ele>
        <time>2016-8-7T9:52:18.000Z</time>
      </trkpt>
      <trkpt lat="50.18749" lon="4.37105">
        <ele>265.5</ele>
        <time>2016-8-7T9:52:18.000Z</time>
      </trkpt>
      <trkpt lat="50.18749" lon="4.37105">
        <ele>265.5</ele>
        <time>2016-8-7T9:52:18.000Z</time>
      </trkpt>
      <trkpt lat="50.18748" lon="4.37102">
        <ele>265.5</ele>
        <time>2016-8-7T9:52:18.000Z</time>
      </trkpt>
      <trkpt lat="50.18748" lon="4.37102">
        <ele>265.5</ele>
        <time>2016-8-7T9:52:18.000Z</time>
      </trkpt>
      <trkpt lat="50.18747" lon="4.371">
        <ele>265.5</ele>
        <time>2016-8-7T9:52:18.000Z</time>
      </trkpt>
      <trkpt lat="50.18747" lon="4.371">
        <ele>265.5</ele>
        <time>2016-8-7T9:52:18.000Z</time>
      </trkpt>
      <trkpt lat="50.18746" lon="4.37096">
        <ele>265.5</ele>
        <time>2016-8-7T9:52:18.000Z</time>
      </trkpt>
      <trkpt lat="50.18746" lon="4.37096">
        <ele>265.5</ele>
        <time>2016-8-7T9:52:18.000Z</time>
      </trkpt>
      <trkpt lat="50.18745" lon="4.37094">
        <ele>265.5</ele>
        <time>2016-8-7T9:52:18.000Z</time>
      </trkpt>
      <trkpt lat="50.18745" lon="4.37094">
        <ele>265.5</ele>
        <time>2016-8-7T9:52:18.000Z</time>
      </trkpt>
      <trkpt lat="50.18743" lon="4.37091">
        <ele>266.5</ele>
        <time>2016-8-7T9:52:18.000Z</time>
      </trkpt>
      <trkpt lat="50.18743" lon="4.37091">
        <ele>266.5</ele>
        <time>2016-8-7T9:52:18.000Z</time>
      </trkpt>
      <trkpt lat="50.18743" lon="4.37089">
        <ele>265.5</ele>
        <time>2016-8-7T9:52:18.000Z</time>
      </trkpt>
      <trkpt lat="50.18743" lon="4.37089">
        <ele>265.5</ele>
        <time>2016-8-7T9:52:18.000Z</time>
      </trkpt>
      <trkpt lat="50.18742" lon="4.37087">
        <ele>263.5</ele>
        <time>2016-8-7T9:52:18.000Z</time>
      </trkpt>
      <trkpt lat="50.18742" lon="4.37087">
        <ele>263.5</ele>
        <time>2016-8-7T9:52:18.000Z</time>
      </trkpt>
      <trkpt lat="50.1874" lon="4.37083">
        <ele>262.5</ele>
        <time>2016-8-7T9:52:18.000Z</time>
      </trkpt>
      <trkpt lat="50.1874" lon="4.37083">
        <ele>262.5</ele>
        <time>2016-8-7T9:52:18.000Z</time>
      </trkpt>
      <trkpt lat="50.1874" lon="4.37082">
        <ele>262.5</ele>
        <time>2016-8-7T9:52:18.000Z</time>
      </trkpt>
      <trkpt lat="50.1874" lon="4.37082">
        <ele>262.5</ele>
        <time>2016-8-7T9:52:18.000Z</time>
      </trkpt>
      <trkpt lat="50.18739" lon="4.3708">
        <ele>262.5</ele>
        <time>2016-8-7T9:52:18.000Z</time>
      </trkpt>
      <trkpt lat="50.18739" lon="4.3708">
        <ele>262.5</ele>
        <time>2016-8-7T9:52:18.000Z</time>
      </trkpt>
      <trkpt lat="50.18738" lon="4.37062">
        <ele>259.5</ele>
        <time>2016-8-7T9:52:18.000Z</time>
      </trkpt>
      <trkpt lat="50.18738" lon="4.37062">
        <ele>259.5</ele>
        <time>2016-8-7T9:52:18.000Z</time>
      </trkpt>
      <trkpt lat="50.18737" lon="4.3706">
        <ele>259.5</ele>
        <time>2016-8-7T9:52:18.000Z</time>
      </trkpt>
      <trkpt lat="50.18737" lon="4.3706">
        <ele>259.5</ele>
        <time>2016-8-7T9:52:18.000Z</time>
      </trkpt>
      <trkpt lat="50.18733" lon="4.37034">
        <ele>261.5</ele>
        <time>2016-8-7T9:52:18.000Z</time>
      </trkpt>
      <trkpt lat="50.18733" lon="4.37034">
        <ele>261.5</ele>
        <time>2016-8-7T9:52:18.000Z</time>
      </trkpt>
      <trkpt lat="50.18733" lon="4.37031">
        <ele>261.5</ele>
        <time>2016-8-7T9:52:18.000Z</time>
      </trkpt>
      <trkpt lat="50.18733" lon="4.37031">
        <ele>261.5</ele>
        <time>2016-8-7T9:52:18.000Z</time>
      </trkpt>
      <trkpt lat="50.18732" lon="4.37027">
        <ele>261</ele>
        <time>2016-8-7T9:52:18.000Z</time>
      </trkpt>
      <trkpt lat="50.18732" lon="4.37027">
        <ele>261</ele>
        <time>2016-8-7T9:52:18.000Z</time>
      </trkpt>
      <trkpt lat="50.18732" lon="4.37024">
        <ele>260.5</ele>
        <time>2016-8-7T9:52:18.000Z</time>
      </trkpt>
      <trkpt lat="50.18732" lon="4.37024">
        <ele>260.5</ele>
        <time>2016-8-7T9:52:18.000Z</time>
      </trkpt>
      <trkpt lat="50.18732" lon="4.37022">
        <ele>260.5</ele>
        <time>2016-8-7T9:52:18.000Z</time>
      </trkpt>
      <trkpt lat="50.18732" lon="4.37022">
        <ele>260.5</ele>
        <time>2016-8-7T9:52:18.000Z</time>
      </trkpt>
      <trkpt lat="50.18732" lon="4.37017">
        <ele>260</ele>
        <time>2016-8-7T9:52:18.000Z</time>
      </trkpt>
      <trkpt lat="50.18732" lon="4.37017">
        <ele>260</ele>
        <time>2016-8-7T9:52:18.000Z</time>
      </trkpt>
      <trkpt lat="50.18732" lon="4.37013">
        <ele>259.5</ele>
        <time>2016-8-7T9:52:18.000Z</time>
      </trkpt>
      <trkpt lat="50.18732" lon="4.37013">
        <ele>259.5</ele>
        <time>2016-8-7T9:52:18.000Z</time>
      </trkpt>
      <trkpt lat="50.18733" lon="4.37012">
        <ele>259.5</ele>
        <time>2016-8-7T9:52:18.000Z</time>
      </trkpt>
      <trkpt lat="50.18733" lon="4.37012">
        <ele>259.5</ele>
        <time>2016-8-7T9:52:18.000Z</time>
      </trkpt>
      <trkpt lat="50.18733" lon="4.37009">
        <ele>259.5</ele>
        <time>2016-8-7T9:52:18.000Z</time>
      </trkpt>
      <trkpt lat="50.18733" lon="4.37009">
        <ele>259.5</ele>
        <time>2016-8-7T9:52:18.000Z</time>
      </trkpt>
      <trkpt lat="50.18735" lon="4.37006">
        <ele>255.5</ele>
        <time>2016-8-7T9:52:18.000Z</time>
      </trkpt>
      <trkpt lat="50.18735" lon="4.37006">
        <ele>255.5</ele>
        <time>2016-8-7T9:52:18.000Z</time>
      </trkpt>
      <trkpt lat="50.18735" lon="4.37004">
        <ele>254.5</ele>
        <time>2016-8-7T9:52:18.000Z</time>
      </trkpt>
      <trkpt lat="50.18735" lon="4.37004">
        <ele>254.5</ele>
        <time>2016-8-7T9:52:18.000Z</time>
      </trkpt>
      <trkpt lat="50.18735" lon="4.37">
        <ele>258.5</ele>
        <time>2016-8-7T9:52:18.000Z</time>
      </trkpt>
      <trkpt lat="50.18735" lon="4.37">
        <ele>258.5</ele>
        <time>2016-8-7T9:52:18.000Z</time>
      </trkpt>
      <trkpt lat="50.18737" lon="4.36991">
        <ele>257.5</ele>
        <time>2016-8-7T9:52:18.000Z</time>
      </trkpt>
      <trkpt lat="50.18737" lon="4.36991">
        <ele>257.5</ele>
        <time>2016-8-7T9:52:18.000Z</time>
      </trkpt>
      <trkpt lat="50.18738" lon="4.36987">
        <ele>257</ele>
        <time>2016-8-7T9:52:18.000Z</time>
      </trkpt>
      <trkpt lat="50.18738" lon="4.36987">
        <ele>257</ele>
        <time>2016-8-7T9:52:18.000Z</time>
      </trkpt>
      <trkpt lat="50.18738" lon="4.36983">
        <ele>256.5</ele>
        <time>2016-8-7T9:52:18.000Z</time>
      </trkpt>
      <trkpt lat="50.18738" lon="4.36983">
        <ele>256.5</ele>
        <time>2016-8-7T9:52:18.000Z</time>
      </trkpt>
      <trkpt lat="50.18738" lon="4.36979">
        <ele>256</ele>
        <time>2016-8-7T9:52:18.000Z</time>
      </trkpt>
      <trkpt lat="50.18738" lon="4.36979">
        <ele>256</ele>
        <time>2016-8-7T9:52:18.000Z</time>
      </trkpt>
      <trkpt lat="50.18738" lon="4.36958">
        <ele>259.5</ele>
        <time>2016-8-7T9:52:18.000Z</time>
      </trkpt>
      <trkpt lat="50.18738" lon="4.36958">
        <ele>259.5</ele>
        <time>2016-8-7T9:54:13.000Z</time>
      </trkpt>
      <trkpt lat="50.18738" lon="4.36954">
        <ele>260.5</ele>
        <time>2016-8-7T9:54:13.000Z</time>
      </trkpt>
      <trkpt lat="50.18738" lon="4.36954">
        <ele>260.5</ele>
        <time>2016-8-7T9:54:13.000Z</time>
      </trkpt>
      <trkpt lat="50.18738" lon="4.36952">
        <ele>260.5</ele>
        <time>2016-8-7T9:54:13.000Z</time>
      </trkpt>
      <trkpt lat="50.18738" lon="4.36952">
        <ele>260.5</ele>
        <time>2016-8-7T9:54:13.000Z</time>
      </trkpt>
      <trkpt lat="50.18738" lon="4.36948">
        <ele>259.5</ele>
        <time>2016-8-7T9:54:13.000Z</time>
      </trkpt>
      <trkpt lat="50.18738" lon="4.36948">
        <ele>259.5</ele>
        <time>2016-8-7T9:54:13.000Z</time>
      </trkpt>
      <trkpt lat="50.18738" lon="4.36945">
        <ele>259.5</ele>
        <time>2016-8-7T9:54:13.000Z</time>
      </trkpt>
      <trkpt lat="50.18738" lon="4.36945">
        <ele>259.5</ele>
        <time>2016-8-7T9:54:13.000Z</time>
      </trkpt>
      <trkpt lat="50.18738" lon="4.36942">
        <ele>260.5</ele>
        <time>2016-8-7T9:54:13.000Z</time>
      </trkpt>
      <trkpt lat="50.18738" lon="4.36942">
        <ele>260.5</ele>
        <time>2016-8-7T9:54:13.000Z</time>
      </trkpt>
      <trkpt lat="50.18737" lon="4.36939">
        <ele>257</ele>
        <time>2016-8-7T9:54:13.000Z</time>
      </trkpt>
      <trkpt lat="50.18737" lon="4.36939">
        <ele>257</ele>
        <time>2016-8-7T9:54:13.000Z</time>
      </trkpt>
      <trkpt lat="50.18736" lon="4.36926">
        <ele>258.5</ele>
        <time>2016-8-7T9:54:13.000Z</time>
      </trkpt>
      <trkpt lat="50.18736" lon="4.36926">
        <ele>258.5</ele>
        <time>2016-8-7T9:54:13.000Z</time>
      </trkpt>
      <trkpt lat="50.18736" lon="4.36924">
        <ele>259</ele>
        <time>2016-8-7T9:54:13.000Z</time>
      </trkpt>
      <trkpt lat="50.18736" lon="4.36924">
        <ele>259</ele>
        <time>2016-8-7T9:54:13.000Z</time>
      </trkpt>
      <trkpt lat="50.18736" lon="4.36921">
        <ele>259.5</ele>
        <time>2016-8-7T9:54:13.000Z</time>
      </trkpt>
      <trkpt lat="50.18736" lon="4.36921">
        <ele>259.5</ele>
        <time>2016-8-7T9:54:13.000Z</time>
      </trkpt>
      <trkpt lat="50.18736" lon="4.36917">
        <ele>260.5</ele>
        <time>2016-8-7T9:54:13.000Z</time>
      </trkpt>
      <trkpt lat="50.18736" lon="4.36917">
        <ele>260.5</ele>
        <time>2016-8-7T9:54:13.000Z</time>
      </trkpt>
      <trkpt lat="50.18735" lon="4.36913">
        <ele>261</ele>
        <time>2016-8-7T9:54:13.000Z</time>
      </trkpt>
      <trkpt lat="50.18735" lon="4.36913">
        <ele>261</ele>
        <time>2016-8-7T9:54:13.000Z</time>
      </trkpt>
      <trkpt lat="50.18733" lon="4.36903">
        <ele>261.5</ele>
        <time>2016-8-7T9:54:13.000Z</time>
      </trkpt>
      <trkpt lat="50.18733" lon="4.36903">
        <ele>261.5</ele>
        <time>2016-8-7T9:54:13.000Z</time>
      </trkpt>
      <trkpt lat="50.18733" lon="4.36901">
        <ele>261.5</ele>
        <time>2016-8-7T9:54:13.000Z</time>
      </trkpt>
      <trkpt lat="50.18733" lon="4.36901">
        <ele>261.5</ele>
        <time>2016-8-7T9:54:13.000Z</time>
      </trkpt>
      <trkpt lat="50.18733" lon="4.36898">
        <ele>261.5</ele>
        <time>2016-8-7T9:54:13.000Z</time>
      </trkpt>
      <trkpt lat="50.18733" lon="4.36898">
        <ele>261.5</ele>
        <time>2016-8-7T9:54:13.000Z</time>
      </trkpt>
      <trkpt lat="50.18733" lon="4.36894">
        <ele>261.5</ele>
        <time>2016-8-7T9:54:13.000Z</time>
      </trkpt>
      <trkpt lat="50.18733" lon="4.36894">
        <ele>261.5</ele>
        <time>2016-8-7T9:54:13.000Z</time>
      </trkpt>
      <trkpt lat="50.18732" lon="4.3689">
        <ele>261.5</ele>
        <time>2016-8-7T9:54:13.000Z</time>
      </trkpt>
      <trkpt lat="50.18732" lon="4.3689">
        <ele>261.5</ele>
        <time>2016-8-7T9:54:13.000Z</time>
      </trkpt>
      <trkpt lat="50.18732" lon="4.36885">
        <ele>261.5</ele>
        <time>2016-8-7T9:54:13.000Z</time>
      </trkpt>
      <trkpt lat="50.18732" lon="4.36885">
        <ele>261.5</ele>
        <time>2016-8-7T9:54:13.000Z</time>
      </trkpt>
      <trkpt lat="50.18732" lon="4.36882">
        <ele>261.5</ele>
        <time>2016-8-7T9:54:13.000Z</time>
      </trkpt>
      <trkpt lat="50.18732" lon="4.36882">
        <ele>261.5</ele>
        <time>2016-8-7T9:54:13.000Z</time>
      </trkpt>
      <trkpt lat="50.1874" lon="4.36849">
        <ele>262</ele>
        <time>2016-8-7T9:54:13.000Z</time>
      </trkpt>
      <trkpt lat="50.1874" lon="4.36849">
        <ele>262</ele>
        <time>2016-8-7T9:54:13.000Z</time>
      </trkpt>
      <trkpt lat="50.18741" lon="4.36846">
        <ele>262</ele>
        <time>2016-8-7T9:54:13.000Z</time>
      </trkpt>
      <trkpt lat="50.18741" lon="4.36846">
        <ele>262</ele>
        <time>2016-8-7T9:54:13.000Z</time>
      </trkpt>
      <trkpt lat="50.18742" lon="4.36842">
        <ele>262.5</ele>
        <time>2016-8-7T9:54:13.000Z</time>
      </trkpt>
      <trkpt lat="50.18742" lon="4.36842">
        <ele>262.5</ele>
        <time>2016-8-7T9:54:13.000Z</time>
      </trkpt>
      <trkpt lat="50.18745" lon="4.3683">
        <ele>263</ele>
        <time>2016-8-7T9:54:13.000Z</time>
      </trkpt>
      <trkpt lat="50.18745" lon="4.3683">
        <ele>263</ele>
        <time>2016-8-7T9:54:13.000Z</time>
      </trkpt>
      <trkpt lat="50.18746" lon="4.36827">
        <ele>263</ele>
        <time>2016-8-7T9:54:13.000Z</time>
      </trkpt>
      <trkpt lat="50.18746" lon="4.36827">
        <ele>263</ele>
        <time>2016-8-7T9:54:13.000Z</time>
      </trkpt>
      <trkpt lat="50.18747" lon="4.36822">
        <ele>262.5</ele>
        <time>2016-8-7T9:54:13.000Z</time>
      </trkpt>
      <trkpt lat="50.18747" lon="4.36822">
        <ele>262.5</ele>
        <time>2016-8-7T9:54:13.000Z</time>
      </trkpt>
      <trkpt lat="50.18747" lon="4.36818">
        <ele>262</ele>
        <time>2016-8-7T9:54:13.000Z</time>
      </trkpt>
      <trkpt lat="50.18747" lon="4.36818">
        <ele>262</ele>
        <time>2016-8-7T9:54:13.000Z</time>
      </trkpt>
      <trkpt lat="50.18747" lon="4.36814">
        <ele>261.5</ele>
        <time>2016-8-7T9:54:13.000Z</time>
      </trkpt>
      <trkpt lat="50.18747" lon="4.36814">
        <ele>261.5</ele>
        <time>2016-8-7T9:54:13.000Z</time>
      </trkpt>
      <trkpt lat="50.18747" lon="4.3681">
        <ele>261</ele>
        <time>2016-8-7T9:54:13.000Z</time>
      </trkpt>
      <trkpt lat="50.18747" lon="4.3681">
        <ele>261</ele>
        <time>2016-8-7T9:54:13.000Z</time>
      </trkpt>
      <trkpt lat="50.18747" lon="4.36807">
        <ele>260.5</ele>
        <time>2016-8-7T9:54:13.000Z</time>
      </trkpt>
      <trkpt lat="50.18747" lon="4.36807">
        <ele>260.5</ele>
        <time>2016-8-7T9:54:13.000Z</time>
      </trkpt>
      <trkpt lat="50.18748" lon="4.36803">
        <ele>260</ele>
        <time>2016-8-7T9:54:13.000Z</time>
      </trkpt>
      <trkpt lat="50.18748" lon="4.36803">
        <ele>260</ele>
        <time>2016-8-7T9:54:13.000Z</time>
      </trkpt>
      <trkpt lat="50.18748" lon="4.36801">
        <ele>260</ele>
        <time>2016-8-7T9:54:13.000Z</time>
      </trkpt>
      <trkpt lat="50.18748" lon="4.36801">
        <ele>260</ele>
        <time>2016-8-7T9:54:13.000Z</time>
      </trkpt>
      <trkpt lat="50.18748" lon="4.36798">
        <ele>260</ele>
        <time>2016-8-7T9:54:13.000Z</time>
      </trkpt>
      <trkpt lat="50.18748" lon="4.36798">
        <ele>260</ele>
        <time>2016-8-7T9:54:13.000Z</time>
      </trkpt>
      <trkpt lat="50.18748" lon="4.36796">
        <ele>259.5</ele>
        <time>2016-8-7T9:54:13.000Z</time>
      </trkpt>
      <trkpt lat="50.18748" lon="4.36796">
        <ele>259.5</ele>
        <time>2016-8-7T9:54:13.000Z</time>
      </trkpt>
      <trkpt lat="50.18748" lon="4.36794">
        <ele>259.5</ele>
        <time>2016-8-7T9:54:13.000Z</time>
      </trkpt>
      <trkpt lat="50.18748" lon="4.36794">
        <ele>259.5</ele>
        <time>2016-8-7T9:54:13.000Z</time>
      </trkpt>
      <trkpt lat="50.18747" lon="4.3679">
        <ele>259</ele>
        <time>2016-8-7T9:54:13.000Z</time>
      </trkpt>
      <trkpt lat="50.18747" lon="4.3679">
        <ele>259</ele>
        <time>2016-8-7T9:54:13.000Z</time>
      </trkpt>
      <trkpt lat="50.18747" lon="4.36786">
        <ele>259</ele>
        <time>2016-8-7T9:54:13.000Z</time>
      </trkpt>
      <trkpt lat="50.18747" lon="4.36786">
        <ele>259</ele>
        <time>2016-8-7T9:54:13.000Z</time>
      </trkpt>
      <trkpt lat="50.18747" lon="4.36782">
        <ele>258</ele>
        <time>2016-8-7T9:54:13.000Z</time>
      </trkpt>
      <trkpt lat="50.18747" lon="4.36782">
        <ele>258</ele>
        <time>2016-8-7T9:54:13.000Z</time>
      </trkpt>
      <trkpt lat="50.18747" lon="4.3678">
        <ele>258</ele>
        <time>2016-8-7T9:54:13.000Z</time>
      </trkpt>
      <trkpt lat="50.18747" lon="4.3678">
        <ele>258</ele>
        <time>2016-8-7T9:54:13.000Z</time>
      </trkpt>
      <trkpt lat="50.18746" lon="4.36776">
        <ele>257.5</ele>
        <time>2016-8-7T9:54:13.000Z</time>
      </trkpt>
      <trkpt lat="50.18746" lon="4.36776">
        <ele>257.5</ele>
        <time>2016-8-7T9:54:13.000Z</time>
      </trkpt>
      <trkpt lat="50.18746" lon="4.36774">
        <ele>257.5</ele>
        <time>2016-8-7T9:54:13.000Z</time>
      </trkpt>
      <trkpt lat="50.18746" lon="4.36774">
        <ele>257.5</ele>
        <time>2016-8-7T9:54:13.000Z</time>
      </trkpt>
      <trkpt lat="50.18745" lon="4.36771">
        <ele>257</ele>
        <time>2016-8-7T9:54:13.000Z</time>
      </trkpt>
      <trkpt lat="50.18745" lon="4.36771">
        <ele>257</ele>
        <time>2016-8-7T9:54:13.000Z</time>
      </trkpt>
      <trkpt lat="50.18745" lon="4.36769">
        <ele>256.5</ele>
        <time>2016-8-7T9:54:13.000Z</time>
      </trkpt>
      <trkpt lat="50.18745" lon="4.36769">
        <ele>256.5</ele>
        <time>2016-8-7T9:54:13.000Z</time>
      </trkpt>
      <trkpt lat="50.18744" lon="4.36766">
        <ele>256</ele>
        <time>2016-8-7T9:54:13.000Z</time>
      </trkpt>
      <trkpt lat="50.18744" lon="4.36766">
        <ele>256</ele>
        <time>2016-8-7T9:54:13.000Z</time>
      </trkpt>
      <trkpt lat="50.18743" lon="4.36764">
        <ele>256</ele>
        <time>2016-8-7T9:54:13.000Z</time>
      </trkpt>
      <trkpt lat="50.18743" lon="4.36764">
        <ele>256</ele>
        <time>2016-8-7T9:54:13.000Z</time>
      </trkpt>
      <trkpt lat="50.18742" lon="4.36763">
        <ele>255.5</ele>
        <time>2016-8-7T9:54:13.000Z</time>
      </trkpt>
      <trkpt lat="50.18742" lon="4.36763">
        <ele>255.5</ele>
        <time>2016-8-7T9:54:13.000Z</time>
      </trkpt>
      <trkpt lat="50.18741" lon="4.3676">
        <ele>255</ele>
        <time>2016-8-7T9:54:13.000Z</time>
      </trkpt>
      <trkpt lat="50.18741" lon="4.3676">
        <ele>255</ele>
        <time>2016-8-7T9:54:13.000Z</time>
      </trkpt>
      <trkpt lat="50.1874" lon="4.36757">
        <ele>254.5</ele>
        <time>2016-8-7T9:54:13.000Z</time>
      </trkpt>
      <trkpt lat="50.1874" lon="4.36757">
        <ele>254.5</ele>
        <time>2016-8-7T9:54:13.000Z</time>
      </trkpt>
      <trkpt lat="50.18739" lon="4.36754">
        <ele>254.5</ele>
        <time>2016-8-7T9:54:13.000Z</time>
      </trkpt>
      <trkpt lat="50.18739" lon="4.36754">
        <ele>254.5</ele>
        <time>2016-8-7T9:54:13.000Z</time>
      </trkpt>
      <trkpt lat="50.18738" lon="4.36751">
        <ele>254</ele>
        <time>2016-8-7T9:54:13.000Z</time>
      </trkpt>
      <trkpt lat="50.18738" lon="4.36751">
        <ele>254</ele>
        <time>2016-8-7T9:54:13.000Z</time>
      </trkpt>
      <trkpt lat="50.18741" lon="4.36708">
        <ele>253</ele>
        <time>2016-8-7T9:54:13.000Z</time>
      </trkpt>
      <trkpt lat="50.18741" lon="4.36708">
        <ele>253</ele>
        <time>2016-8-7T9:54:13.000Z</time>
      </trkpt>
      <trkpt lat="50.18741" lon="4.36706">
        <ele>253</ele>
        <time>2016-8-7T9:54:13.000Z</time>
      </trkpt>
      <trkpt lat="50.18741" lon="4.36706">
        <ele>253</ele>
        <time>2016-8-7T9:54:13.000Z</time>
      </trkpt>
      <trkpt lat="50.18741" lon="4.36703">
        <ele>252.5</ele>
        <time>2016-8-7T9:55:56.000Z</time>
      </trkpt>
      <trkpt lat="50.18741" lon="4.36703">
        <ele>252.5</ele>
        <time>2016-8-7T9:55:56.000Z</time>
      </trkpt>
      <trkpt lat="50.18741" lon="4.36696">
        <ele>251.5</ele>
        <time>2016-8-7T9:55:56.000Z</time>
      </trkpt>
      <trkpt lat="50.18741" lon="4.36696">
        <ele>251.5</ele>
        <time>2016-8-7T9:55:56.000Z</time>
      </trkpt>
      <trkpt lat="50.1874" lon="4.36691">
        <ele>252</ele>
        <time>2016-8-7T9:55:56.000Z</time>
      </trkpt>
      <trkpt lat="50.1874" lon="4.36691">
        <ele>252</ele>
        <time>2016-8-7T9:55:56.000Z</time>
      </trkpt>
      <trkpt lat="50.1874" lon="4.36687">
        <ele>253</ele>
        <time>2016-8-7T9:55:56.000Z</time>
      </trkpt>
      <trkpt lat="50.1874" lon="4.36687">
        <ele>253</ele>
        <time>2016-8-7T9:55:56.000Z</time>
      </trkpt>
      <trkpt lat="50.1874" lon="4.36685">
        <ele>253.5</ele>
        <time>2016-8-7T9:55:56.000Z</time>
      </trkpt>
      <trkpt lat="50.1874" lon="4.36685">
        <ele>253.5</ele>
        <time>2016-8-7T9:55:56.000Z</time>
      </trkpt>
      <trkpt lat="50.1874" lon="4.36682">
        <ele>254.5</ele>
        <time>2016-8-7T9:55:56.000Z</time>
      </trkpt>
      <trkpt lat="50.1874" lon="4.36682">
        <ele>254.5</ele>
        <time>2016-8-7T9:55:56.000Z</time>
      </trkpt>
      <trkpt lat="50.1874" lon="4.3668">
        <ele>255.5</ele>
        <time>2016-8-7T9:55:56.000Z</time>
      </trkpt>
      <trkpt lat="50.1874" lon="4.3668">
        <ele>255.5</ele>
        <time>2016-8-7T9:55:56.000Z</time>
      </trkpt>
      <trkpt lat="50.1874" lon="4.36677">
        <ele>257</ele>
        <time>2016-8-7T9:55:56.000Z</time>
      </trkpt>
      <trkpt lat="50.1874" lon="4.36677">
        <ele>257</ele>
        <time>2016-8-7T9:55:56.000Z</time>
      </trkpt>
      <trkpt lat="50.1874" lon="4.36673">
        <ele>258</ele>
        <time>2016-8-7T9:55:56.000Z</time>
      </trkpt>
      <trkpt lat="50.1874" lon="4.36673">
        <ele>258</ele>
        <time>2016-8-7T9:55:56.000Z</time>
      </trkpt>
      <trkpt lat="50.1874" lon="4.36671">
        <ele>258.5</ele>
        <time>2016-8-7T9:55:56.000Z</time>
      </trkpt>
      <trkpt lat="50.1874" lon="4.36671">
        <ele>258.5</ele>
        <time>2016-8-7T9:55:56.000Z</time>
      </trkpt>
      <trkpt lat="50.1874" lon="4.36668">
        <ele>259.5</ele>
        <time>2016-8-7T9:55:56.000Z</time>
      </trkpt>
      <trkpt lat="50.1874" lon="4.36668">
        <ele>259.5</ele>
        <time>2016-8-7T9:55:56.000Z</time>
      </trkpt>
      <trkpt lat="50.1874" lon="4.36665">
        <ele>260</ele>
        <time>2016-8-7T9:55:56.000Z</time>
      </trkpt>
      <trkpt lat="50.1874" lon="4.36665">
        <ele>260</ele>
        <time>2016-8-7T9:55:56.000Z</time>
      </trkpt>
      <trkpt lat="50.1874" lon="4.36663">
        <ele>260.5</ele>
        <time>2016-8-7T9:55:56.000Z</time>
      </trkpt>
      <trkpt lat="50.1874" lon="4.36663">
        <ele>260.5</ele>
        <time>2016-8-7T9:55:56.000Z</time>
      </trkpt>
      <trkpt lat="50.18741" lon="4.36659">
        <ele>261</ele>
        <time>2016-8-7T9:55:56.000Z</time>
      </trkpt>
      <trkpt lat="50.18741" lon="4.36659">
        <ele>261</ele>
        <time>2016-8-7T9:55:56.000Z</time>
      </trkpt>
      <trkpt lat="50.18741" lon="4.36656">
        <ele>262</ele>
        <time>2016-8-7T9:55:56.000Z</time>
      </trkpt>
      <trkpt lat="50.18741" lon="4.36656">
        <ele>262</ele>
        <time>2016-8-7T9:55:56.000Z</time>
      </trkpt>
      <trkpt lat="50.18742" lon="4.36654">
        <ele>262</ele>
        <time>2016-8-7T9:55:56.000Z</time>
      </trkpt>
      <trkpt lat="50.18742" lon="4.36654">
        <ele>262</ele>
        <time>2016-8-7T9:55:56.000Z</time>
      </trkpt>
      <trkpt lat="50.18742" lon="4.36652">
        <ele>262.5</ele>
        <time>2016-8-7T9:55:56.000Z</time>
      </trkpt>
      <trkpt lat="50.18742" lon="4.36652">
        <ele>262.5</ele>
        <time>2016-8-7T9:55:56.000Z</time>
      </trkpt>
      <trkpt lat="50.18743" lon="4.36651">
        <ele>262.5</ele>
        <time>2016-8-7T9:55:56.000Z</time>
      </trkpt>
      <trkpt lat="50.18743" lon="4.36651">
        <ele>262.5</ele>
        <time>2016-8-7T9:55:56.000Z</time>
      </trkpt>
      <trkpt lat="50.18744" lon="4.36648">
        <ele>263</ele>
        <time>2016-8-7T9:55:56.000Z</time>
      </trkpt>
      <trkpt lat="50.18744" lon="4.36648">
        <ele>263</ele>
        <time>2016-8-7T9:55:56.000Z</time>
      </trkpt>
      <trkpt lat="50.18746" lon="4.36645">
        <ele>264</ele>
        <time>2016-8-7T9:55:56.000Z</time>
      </trkpt>
      <trkpt lat="50.18746" lon="4.36645">
        <ele>264</ele>
        <time>2016-8-7T9:55:56.000Z</time>
      </trkpt>
      <trkpt lat="50.18748" lon="4.36643">
        <ele>264.5</ele>
        <time>2016-8-7T9:55:56.000Z</time>
      </trkpt>
      <trkpt lat="50.18748" lon="4.36643">
        <ele>264.5</ele>
        <time>2016-8-7T9:55:56.000Z</time>
      </trkpt>
      <trkpt lat="50.1875" lon="4.3664">
        <ele>265</ele>
        <time>2016-8-7T9:55:56.000Z</time>
      </trkpt>
      <trkpt lat="50.1875" lon="4.3664">
        <ele>265</ele>
        <time>2016-8-7T9:55:56.000Z</time>
      </trkpt>
      <trkpt lat="50.18751" lon="4.36638">
        <ele>265.5</ele>
        <time>2016-8-7T9:55:56.000Z</time>
      </trkpt>
      <trkpt lat="50.18751" lon="4.36638">
        <ele>265.5</ele>
        <time>2016-8-7T9:55:56.000Z</time>
      </trkpt>
      <trkpt lat="50.18752" lon="4.36637">
        <ele>266.5</ele>
        <time>2016-8-7T9:55:56.000Z</time>
      </trkpt>
      <trkpt lat="50.18752" lon="4.36637">
        <ele>266.5</ele>
        <time>2016-8-7T9:55:56.000Z</time>
      </trkpt>
      <trkpt lat="50.18771" lon="4.36615">
        <ele>271</ele>
        <time>2016-8-7T9:55:56.000Z</time>
      </trkpt>
      <trkpt lat="50.18771" lon="4.36615">
        <ele>271</ele>
        <time>2016-8-7T9:55:56.000Z</time>
      </trkpt>
      <trkpt lat="50.18772" lon="4.36613">
        <ele>271</ele>
        <time>2016-8-7T9:55:56.000Z</time>
      </trkpt>
      <trkpt lat="50.18772" lon="4.36613">
        <ele>271</ele>
        <time>2016-8-7T9:55:56.000Z</time>
      </trkpt>
      <trkpt lat="50.18777" lon="4.36609">
        <ele>272.5</ele>
        <time>2016-8-7T9:55:56.000Z</time>
      </trkpt>
      <trkpt lat="50.18777" lon="4.36609">
        <ele>272.5</ele>
        <time>2016-8-7T9:55:56.000Z</time>
      </trkpt>
      <trkpt lat="50.18778" lon="4.36608">
        <ele>272.5</ele>
        <time>2016-8-7T9:55:56.000Z</time>
      </trkpt>
      <trkpt lat="50.18778" lon="4.36608">
        <ele>272.5</ele>
        <time>2016-8-7T9:55:56.000Z</time>
      </trkpt>
      <trkpt lat="50.18779" lon="4.36606">
        <ele>273.5</ele>
        <time>2016-8-7T9:55:56.000Z</time>
      </trkpt>
      <trkpt lat="50.18779" lon="4.36606">
        <ele>273.5</ele>
        <time>2016-8-7T9:55:56.000Z</time>
      </trkpt>
      <trkpt lat="50.1878" lon="4.36604">
        <ele>274</ele>
        <time>2016-8-7T9:55:56.000Z</time>
      </trkpt>
      <trkpt lat="50.1878" lon="4.36604">
        <ele>274</ele>
        <time>2016-8-7T9:55:56.000Z</time>
      </trkpt>
      <trkpt lat="50.18782" lon="4.36603">
        <ele>276</ele>
        <time>2016-8-7T9:55:56.000Z</time>
      </trkpt>
      <trkpt lat="50.18782" lon="4.36603">
        <ele>276</ele>
        <time>2016-8-7T9:55:56.000Z</time>
      </trkpt>
      <trkpt lat="50.18785" lon="4.36601">
        <ele>277.5</ele>
        <time>2016-8-7T9:55:56.000Z</time>
      </trkpt>
      <trkpt lat="50.18785" lon="4.36601">
        <ele>277.5</ele>
        <time>2016-8-7T9:55:56.000Z</time>
      </trkpt>
      <trkpt lat="50.18787" lon="4.366">
        <ele>276.5</ele>
        <time>2016-8-7T9:55:56.000Z</time>
      </trkpt>
      <trkpt lat="50.18787" lon="4.366">
        <ele>276.5</ele>
        <time>2016-8-7T9:55:56.000Z</time>
      </trkpt>
      <trkpt lat="50.18789" lon="4.36599">
        <ele>277</ele>
        <time>2016-8-7T9:55:56.000Z</time>
      </trkpt>
      <trkpt lat="50.18789" lon="4.36599">
        <ele>277</ele>
        <time>2016-8-7T9:55:56.000Z</time>
      </trkpt>
      <trkpt lat="50.1879" lon="4.36599">
        <ele>277</ele>
        <time>2016-8-7T9:55:56.000Z</time>
      </trkpt>
      <trkpt lat="50.1879" lon="4.36599">
        <ele>277</ele>
        <time>2016-8-7T9:55:56.000Z</time>
      </trkpt>
      <trkpt lat="50.18792" lon="4.36598">
        <ele>277</ele>
        <time>2016-8-7T9:55:56.000Z</time>
      </trkpt>
      <trkpt lat="50.18792" lon="4.36598">
        <ele>277</ele>
        <time>2016-8-7T9:55:56.000Z</time>
      </trkpt>
      <trkpt lat="50.18795" lon="4.36597">
        <ele>277.5</ele>
        <time>2016-8-7T9:55:56.000Z</time>
      </trkpt>
      <trkpt lat="50.18795" lon="4.36597">
        <ele>277.5</ele>
        <time>2016-8-7T9:55:56.000Z</time>
      </trkpt>
      <trkpt lat="50.18796" lon="4.36596">
        <ele>277.5</ele>
        <time>2016-8-7T9:55:56.000Z</time>
      </trkpt>
      <trkpt lat="50.18796" lon="4.36596">
        <ele>277.5</ele>
        <time>2016-8-7T9:55:56.000Z</time>
      </trkpt>
      <trkpt lat="50.18798" lon="4.36595">
        <ele>277.5</ele>
        <time>2016-8-7T9:55:56.000Z</time>
      </trkpt>
      <trkpt lat="50.18798" lon="4.36595">
        <ele>277.5</ele>
        <time>2016-8-7T9:55:56.000Z</time>
      </trkpt>
      <trkpt lat="50.18804" lon="4.36593">
        <ele>278</ele>
        <time>2016-8-7T9:55:56.000Z</time>
      </trkpt>
      <trkpt lat="50.18804" lon="4.36593">
        <ele>278</ele>
        <time>2016-8-7T9:55:56.000Z</time>
      </trkpt>
      <trkpt lat="50.18805" lon="4.36593">
        <ele>278</ele>
        <time>2016-8-7T9:55:56.000Z</time>
      </trkpt>
      <trkpt lat="50.18805" lon="4.36593">
        <ele>278</ele>
        <time>2016-8-7T9:55:56.000Z</time>
      </trkpt>
      <trkpt lat="50.18807" lon="4.36593">
        <ele>278</ele>
        <time>2016-8-7T9:55:56.000Z</time>
      </trkpt>
      <trkpt lat="50.18807" lon="4.36593">
        <ele>278</ele>
        <time>2016-8-7T9:55:56.000Z</time>
      </trkpt>
      <trkpt lat="50.18809" lon="4.36593">
        <ele>278</ele>
        <time>2016-8-7T9:55:56.000Z</time>
      </trkpt>
      <trkpt lat="50.18809" lon="4.36593">
        <ele>278</ele>
        <time>2016-8-7T9:55:56.000Z</time>
      </trkpt>
      <trkpt lat="50.18811" lon="4.36593">
        <ele>278</ele>
        <time>2016-8-7T9:55:56.000Z</time>
      </trkpt>
      <trkpt lat="50.18811" lon="4.36593">
        <ele>278</ele>
        <time>2016-8-7T9:55:56.000Z</time>
      </trkpt>
      <trkpt lat="50.18814" lon="4.36593">
        <ele>278.5</ele>
        <time>2016-8-7T9:55:56.000Z</time>
      </trkpt>
      <trkpt lat="50.18814" lon="4.36593">
        <ele>278.5</ele>
        <time>2016-8-7T9:55:56.000Z</time>
      </trkpt>
      <trkpt lat="50.18816" lon="4.36593">
        <ele>278.5</ele>
        <time>2016-8-7T9:55:56.000Z</time>
      </trkpt>
      <trkpt lat="50.18816" lon="4.36593">
        <ele>278.5</ele>
        <time>2016-8-7T9:55:56.000Z</time>
      </trkpt>
      <trkpt lat="50.18818" lon="4.36593">
        <ele>278</ele>
        <time>2016-8-7T9:55:56.000Z</time>
      </trkpt>
      <trkpt lat="50.18818" lon="4.36593">
        <ele>278</ele>
        <time>2016-8-7T9:55:56.000Z</time>
      </trkpt>
      <trkpt lat="50.18819" lon="4.36593">
        <ele>278</ele>
        <time>2016-8-7T9:55:56.000Z</time>
      </trkpt>
      <trkpt lat="50.18819" lon="4.36593">
        <ele>278</ele>
        <time>2016-8-7T9:55:56.000Z</time>
      </trkpt>
      <trkpt lat="50.18821" lon="4.36593">
        <ele>278</ele>
        <time>2016-8-7T9:55:56.000Z</time>
      </trkpt>
      <trkpt lat="50.18821" lon="4.36593">
        <ele>278</ele>
        <time>2016-8-7T9:55:56.000Z</time>
      </trkpt>
      <trkpt lat="50.18822" lon="4.36594">
        <ele>278</ele>
        <time>2016-8-7T9:55:56.000Z</time>
      </trkpt>
      <trkpt lat="50.18822" lon="4.36594">
        <ele>278</ele>
        <time>2016-8-7T9:55:56.000Z</time>
      </trkpt>
      <trkpt lat="50.18824" lon="4.36595">
        <ele>278.5</ele>
        <time>2016-8-7T9:55:56.000Z</time>
      </trkpt>
      <trkpt lat="50.18824" lon="4.36595">
        <ele>278.5</ele>
        <time>2016-8-7T9:58:33.000Z</time>
      </trkpt>
      <trkpt lat="50.18825" lon="4.36596">
        <ele>278.5</ele>
        <time>2016-8-7T9:58:33.000Z</time>
      </trkpt>
      <trkpt lat="50.18825" lon="4.36596">
        <ele>278.5</ele>
        <time>2016-8-7T9:58:33.000Z</time>
      </trkpt>
      <trkpt lat="50.18827" lon="4.36596">
        <ele>278.5</ele>
        <time>2016-8-7T9:58:33.000Z</time>
      </trkpt>
      <trkpt lat="50.18827" lon="4.36596">
        <ele>278.5</ele>
        <time>2016-8-7T9:58:33.000Z</time>
      </trkpt>
      <trkpt lat="50.18828" lon="4.36598">
        <ele>277.5</ele>
        <time>2016-8-7T9:58:33.000Z</time>
      </trkpt>
      <trkpt lat="50.18828" lon="4.36598">
        <ele>277.5</ele>
        <time>2016-8-7T9:58:33.000Z</time>
      </trkpt>
      <trkpt lat="50.18838" lon="4.36595">
        <ele>277.5</ele>
        <time>2016-8-7T9:58:33.000Z</time>
      </trkpt>
      <trkpt lat="50.18838" lon="4.36595">
        <ele>277.5</ele>
        <time>2016-8-7T9:58:33.000Z</time>
      </trkpt>
      <trkpt lat="50.18839" lon="4.36598">
        <ele>275</ele>
        <time>2016-8-7T9:58:33.000Z</time>
      </trkpt>
      <trkpt lat="50.18839" lon="4.36598">
        <ele>275</ele>
        <time>2016-8-7T9:58:33.000Z</time>
      </trkpt>
      <trkpt lat="50.1884" lon="4.36598">
        <ele>274</ele>
        <time>2016-8-7T9:58:33.000Z</time>
      </trkpt>
      <trkpt lat="50.1884" lon="4.36598">
        <ele>274</ele>
        <time>2016-8-7T9:58:33.000Z</time>
      </trkpt>
      <trkpt lat="50.18847" lon="4.36593">
        <ele>277.5</ele>
        <time>2016-8-7T9:58:33.000Z</time>
      </trkpt>
      <trkpt lat="50.18847" lon="4.36593">
        <ele>277.5</ele>
        <time>2016-8-7T9:58:33.000Z</time>
      </trkpt>
      <trkpt lat="50.18849" lon="4.36591">
        <ele>277.5</ele>
        <time>2016-8-7T9:58:33.000Z</time>
      </trkpt>
      <trkpt lat="50.18849" lon="4.36591">
        <ele>277.5</ele>
        <time>2016-8-7T9:58:33.000Z</time>
      </trkpt>
      <trkpt lat="50.18851" lon="4.3659">
        <ele>277.5</ele>
        <time>2016-8-7T9:58:33.000Z</time>
      </trkpt>
      <trkpt lat="50.18851" lon="4.3659">
        <ele>277.5</ele>
        <time>2016-8-7T9:58:33.000Z</time>
      </trkpt>
      <trkpt lat="50.18852" lon="4.36589">
        <ele>276.5</ele>
        <time>2016-8-7T9:58:33.000Z</time>
      </trkpt>
      <trkpt lat="50.18852" lon="4.36589">
        <ele>276.5</ele>
        <time>2016-8-7T9:58:33.000Z</time>
      </trkpt>
      <trkpt lat="50.18854" lon="4.36588">
        <ele>276.5</ele>
        <time>2016-8-7T9:58:33.000Z</time>
      </trkpt>
      <trkpt lat="50.18854" lon="4.36588">
        <ele>276.5</ele>
        <time>2016-8-7T9:58:33.000Z</time>
      </trkpt>
      <trkpt lat="50.18856" lon="4.36586">
        <ele>278.5</ele>
        <time>2016-8-7T9:58:33.000Z</time>
      </trkpt>
      <trkpt lat="50.18856" lon="4.36586">
        <ele>278.5</ele>
        <time>2016-8-7T9:58:33.000Z</time>
      </trkpt>
      <trkpt lat="50.18858" lon="4.36586">
        <ele>278.5</ele>
        <time>2016-8-7T9:58:33.000Z</time>
      </trkpt>
      <trkpt lat="50.18858" lon="4.36586">
        <ele>278.5</ele>
        <time>2016-8-7T9:58:33.000Z</time>
      </trkpt>
      <trkpt lat="50.18859" lon="4.36586">
        <ele>278.5</ele>
        <time>2016-8-7T9:58:33.000Z</time>
      </trkpt>
      <trkpt lat="50.18859" lon="4.36586">
        <ele>278.5</ele>
        <time>2016-8-7T9:58:33.000Z</time>
      </trkpt>
      <trkpt lat="50.18861" lon="4.36586">
        <ele>279.5</ele>
        <time>2016-8-7T9:58:33.000Z</time>
      </trkpt>
      <trkpt lat="50.18861" lon="4.36586">
        <ele>279.5</ele>
        <time>2016-8-7T9:58:33.000Z</time>
      </trkpt>
      <trkpt lat="50.18862" lon="4.36586">
        <ele>276.5</ele>
        <time>2016-8-7T9:58:33.000Z</time>
      </trkpt>
      <trkpt lat="50.18862" lon="4.36586">
        <ele>276.5</ele>
        <time>2016-8-7T9:58:33.000Z</time>
      </trkpt>
      <trkpt lat="50.18865" lon="4.36585">
        <ele>277.5</ele>
        <time>2016-8-7T9:58:33.000Z</time>
      </trkpt>
      <trkpt lat="50.18865" lon="4.36585">
        <ele>277.5</ele>
        <time>2016-8-7T9:58:33.000Z</time>
      </trkpt>
      <trkpt lat="50.18866" lon="4.36585">
        <ele>277.5</ele>
        <time>2016-8-7T9:58:33.000Z</time>
      </trkpt>
      <trkpt lat="50.18866" lon="4.36585">
        <ele>277.5</ele>
        <time>2016-8-7T9:58:33.000Z</time>
      </trkpt>
      <trkpt lat="50.18868" lon="4.36585">
        <ele>277.5</ele>
        <time>2016-8-7T9:58:33.000Z</time>
      </trkpt>
      <trkpt lat="50.18868" lon="4.36585">
        <ele>277.5</ele>
        <time>2016-8-7T9:58:33.000Z</time>
      </trkpt>
      <trkpt lat="50.18869" lon="4.36585">
        <ele>278.5</ele>
        <time>2016-8-7T9:58:33.000Z</time>
      </trkpt>
      <trkpt lat="50.18869" lon="4.36585">
        <ele>278.5</ele>
        <time>2016-8-7T9:58:33.000Z</time>
      </trkpt>
      <trkpt lat="50.18915" lon="4.36552">
        <ele>281.5</ele>
        <time>2016-8-7T9:58:33.000Z</time>
      </trkpt>
      <trkpt lat="50.18915" lon="4.36552">
        <ele>281.5</ele>
        <time>2016-8-7T9:58:33.000Z</time>
      </trkpt>
      <trkpt lat="50.18918" lon="4.36548">
        <ele>283</ele>
        <time>2016-8-7T9:58:33.000Z</time>
      </trkpt>
      <trkpt lat="50.18918" lon="4.36548">
        <ele>283</ele>
        <time>2016-8-7T9:58:33.000Z</time>
      </trkpt>
      <trkpt lat="50.18919" lon="4.36546">
        <ele>284.5</ele>
        <time>2016-8-7T9:58:33.000Z</time>
      </trkpt>
      <trkpt lat="50.18919" lon="4.36546">
        <ele>284.5</ele>
        <time>2016-8-7T9:58:33.000Z</time>
      </trkpt>
      <trkpt lat="50.18921" lon="4.36543">
        <ele>287</ele>
        <time>2016-8-7T9:58:33.000Z</time>
      </trkpt>
      <trkpt lat="50.18921" lon="4.36543">
        <ele>287</ele>
        <time>2016-8-7T9:58:33.000Z</time>
      </trkpt>
      <trkpt lat="50.18922" lon="4.3654">
        <ele>288.5</ele>
        <time>2016-8-7T9:58:33.000Z</time>
      </trkpt>
      <trkpt lat="50.18922" lon="4.3654">
        <ele>288.5</ele>
        <time>2016-8-7T9:58:33.000Z</time>
      </trkpt>
      <trkpt lat="50.18922" lon="4.36539">
        <ele>289</ele>
        <time>2016-8-7T9:58:33.000Z</time>
      </trkpt>
      <trkpt lat="50.18922" lon="4.36539">
        <ele>289</ele>
        <time>2016-8-7T9:58:33.000Z</time>
      </trkpt>
      <trkpt lat="50.18922" lon="4.36537">
        <ele>289.5</ele>
        <time>2016-8-7T9:58:33.000Z</time>
      </trkpt>
      <trkpt lat="50.18922" lon="4.36537">
        <ele>289.5</ele>
        <time>2016-8-7T9:58:33.000Z</time>
      </trkpt>
      <trkpt lat="50.18923" lon="4.36535">
        <ele>289.5</ele>
        <time>2016-8-7T9:58:33.000Z</time>
      </trkpt>
      <trkpt lat="50.18923" lon="4.36535">
        <ele>289.5</ele>
        <time>2016-8-7T9:58:33.000Z</time>
      </trkpt>
      <trkpt lat="50.18924" lon="4.36533">
        <ele>289</ele>
        <time>2016-8-7T9:58:33.000Z</time>
      </trkpt>
      <trkpt lat="50.18924" lon="4.36533">
        <ele>289</ele>
        <time>2016-8-7T9:58:33.000Z</time>
      </trkpt>
      <trkpt lat="50.18924" lon="4.3653">
        <ele>288.5</ele>
        <time>2016-8-7T9:58:33.000Z</time>
      </trkpt>
      <trkpt lat="50.18924" lon="4.3653">
        <ele>288.5</ele>
        <time>2016-8-7T9:58:33.000Z</time>
      </trkpt>
      <trkpt lat="50.18925" lon="4.36527">
        <ele>288</ele>
        <time>2016-8-7T9:58:33.000Z</time>
      </trkpt>
      <trkpt lat="50.18925" lon="4.36527">
        <ele>288</ele>
        <time>2016-8-7T9:58:33.000Z</time>
      </trkpt>
      <trkpt lat="50.18925" lon="4.36524">
        <ele>287</ele>
        <time>2016-8-7T9:58:33.000Z</time>
      </trkpt>
      <trkpt lat="50.18925" lon="4.36524">
        <ele>287</ele>
        <time>2016-8-7T9:58:33.000Z</time>
      </trkpt>
      <trkpt lat="50.18925" lon="4.36522">
        <ele>286.5</ele>
        <time>2016-8-7T9:58:33.000Z</time>
      </trkpt>
      <trkpt lat="50.18925" lon="4.36522">
        <ele>286.5</ele>
        <time>2016-8-7T9:58:33.000Z</time>
      </trkpt>
      <trkpt lat="50.18924" lon="4.3652">
        <ele>285.5</ele>
        <time>2016-8-7T9:58:33.000Z</time>
      </trkpt>
      <trkpt lat="50.18924" lon="4.3652">
        <ele>285.5</ele>
        <time>2016-8-7T9:58:33.000Z</time>
      </trkpt>
      <trkpt lat="50.18922" lon="4.36517">
        <ele>279.5</ele>
        <time>2016-8-7T9:58:33.000Z</time>
      </trkpt>
      <trkpt lat="50.18922" lon="4.36517">
        <ele>279.5</ele>
        <time>2016-8-7T9:58:33.000Z</time>
      </trkpt>
      <trkpt lat="50.18922" lon="4.36515">
        <ele>283.5</ele>
        <time>2016-8-7T9:58:33.000Z</time>
      </trkpt>
      <trkpt lat="50.18922" lon="4.36515">
        <ele>283.5</ele>
        <time>2016-8-7T9:58:33.000Z</time>
      </trkpt>
      <trkpt lat="50.18921" lon="4.36514">
        <ele>283.5</ele>
        <time>2016-8-7T9:58:33.000Z</time>
      </trkpt>
      <trkpt lat="50.18921" lon="4.36514">
        <ele>283.5</ele>
        <time>2016-8-7T9:58:33.000Z</time>
      </trkpt>
      <trkpt lat="50.1892" lon="4.36511">
        <ele>283</ele>
        <time>2016-8-7T9:58:33.000Z</time>
      </trkpt>
      <trkpt lat="50.1892" lon="4.36511">
        <ele>283</ele>
        <time>2016-8-7T9:58:33.000Z</time>
      </trkpt>
      <trkpt lat="50.18919" lon="4.3651">
        <ele>282</ele>
        <time>2016-8-7T9:58:33.000Z</time>
      </trkpt>
      <trkpt lat="50.18919" lon="4.3651">
        <ele>282</ele>
        <time>2016-8-7T9:58:33.000Z</time>
      </trkpt>
      <trkpt lat="50.18918" lon="4.36508">
        <ele>273.5</ele>
        <time>2016-8-7T9:58:33.000Z</time>
      </trkpt>
      <trkpt lat="50.18918" lon="4.36508">
        <ele>273.5</ele>
        <time>2016-8-7T9:58:33.000Z</time>
      </trkpt>
      <trkpt lat="50.18916" lon="4.36505">
        <ele>273.5</ele>
        <time>2016-8-7T9:58:33.000Z</time>
      </trkpt>
      <trkpt lat="50.18916" lon="4.36505">
        <ele>273.5</ele>
        <time>2016-8-7T9:58:33.000Z</time>
      </trkpt>
      <trkpt lat="50.18915" lon="4.36503">
        <ele>272.5</ele>
        <time>2016-8-7T9:58:33.000Z</time>
      </trkpt>
      <trkpt lat="50.18915" lon="4.36503">
        <ele>272.5</ele>
        <time>2016-8-7T9:58:33.000Z</time>
      </trkpt>
      <trkpt lat="50.18914" lon="4.36502">
        <ele>272.5</ele>
        <time>2016-8-7T9:58:33.000Z</time>
      </trkpt>
      <trkpt lat="50.18914" lon="4.36502">
        <ele>272.5</ele>
        <time>2016-8-7T9:58:33.000Z</time>
      </trkpt>
      <trkpt lat="50.18913" lon="4.365">
        <ele>272.5</ele>
        <time>2016-8-7T9:58:33.000Z</time>
      </trkpt>
      <trkpt lat="50.18913" lon="4.365">
        <ele>272.5</ele>
        <time>2016-8-7T9:58:33.000Z</time>
      </trkpt>
      <trkpt lat="50.18913" lon="4.36497">
        <ele>278.5</ele>
        <time>2016-8-7T9:58:33.000Z</time>
      </trkpt>
      <trkpt lat="50.18913" lon="4.36497">
        <ele>278.5</ele>
        <time>2016-8-7T9:58:33.000Z</time>
      </trkpt>
      <trkpt lat="50.18912" lon="4.36495">
        <ele>278</ele>
        <time>2016-8-7T9:58:33.000Z</time>
      </trkpt>
      <trkpt lat="50.18912" lon="4.36495">
        <ele>278</ele>
        <time>2016-8-7T9:58:33.000Z</time>
      </trkpt>
      <trkpt lat="50.1891" lon="4.36492">
        <ele>276.5</ele>
        <time>2016-8-7T9:58:33.000Z</time>
      </trkpt>
      <trkpt lat="50.1891" lon="4.36492">
        <ele>276.5</ele>
        <time>2016-8-7T9:58:33.000Z</time>
      </trkpt>
      <trkpt lat="50.18909" lon="4.3649">
        <ele>276</ele>
        <time>2016-8-7T9:58:33.000Z</time>
      </trkpt>
      <trkpt lat="50.18909" lon="4.3649">
        <ele>276</ele>
        <time>2016-8-7T9:58:33.000Z</time>
      </trkpt>
      <trkpt lat="50.18907" lon="4.36488">
        <ele>273.5</ele>
        <time>2016-8-7T9:58:33.000Z</time>
      </trkpt>
      <trkpt lat="50.18907" lon="4.36488">
        <ele>273.5</ele>
        <time>2016-8-7T9:58:33.000Z</time>
      </trkpt>
      <trkpt lat="50.18858" lon="4.3644">
        <ele>271</ele>
        <time>2016-8-7T9:58:33.000Z</time>
      </trkpt>
      <trkpt lat="50.18858" lon="4.3644">
        <ele>271</ele>
        <time>2016-8-7T9:58:33.000Z</time>
      </trkpt>
      <trkpt lat="50.18856" lon="4.36438">
        <ele>271.5</ele>
        <time>2016-8-7T10:0:3.000Z</time>
      </trkpt>
      <trkpt lat="50.18856" lon="4.36438">
        <ele>271.5</ele>
        <time>2016-8-7T10:0:3.000Z</time>
      </trkpt>
      <trkpt lat="50.18851" lon="4.36435">
        <ele>273</ele>
        <time>2016-8-7T10:0:3.000Z</time>
      </trkpt>
      <trkpt lat="50.18851" lon="4.36435">
        <ele>273</ele>
        <time>2016-8-7T10:0:3.000Z</time>
      </trkpt>
      <trkpt lat="50.18843" lon="4.36428">
        <ele>272</ele>
        <time>2016-8-7T10:0:3.000Z</time>
      </trkpt>
      <trkpt lat="50.18843" lon="4.36428">
        <ele>272</ele>
        <time>2016-8-7T10:0:3.000Z</time>
      </trkpt>
      <trkpt lat="50.18841" lon="4.36427">
        <ele>272</ele>
        <time>2016-8-7T10:0:3.000Z</time>
      </trkpt>
      <trkpt lat="50.18841" lon="4.36427">
        <ele>272</ele>
        <time>2016-8-7T10:0:3.000Z</time>
      </trkpt>
      <trkpt lat="50.1884" lon="4.36425">
        <ele>272</ele>
        <time>2016-8-7T10:0:3.000Z</time>
      </trkpt>
      <trkpt lat="50.1884" lon="4.36425">
        <ele>272</ele>
        <time>2016-8-7T10:0:3.000Z</time>
      </trkpt>
      <trkpt lat="50.18835" lon="4.36417">
        <ele>271</ele>
        <time>2016-8-7T10:0:3.000Z</time>
      </trkpt>
      <trkpt lat="50.18835" lon="4.36417">
        <ele>271</ele>
        <time>2016-8-7T10:0:3.000Z</time>
      </trkpt>
      <trkpt lat="50.18833" lon="4.36414">
        <ele>270.5</ele>
        <time>2016-8-7T10:0:3.000Z</time>
      </trkpt>
      <trkpt lat="50.18833" lon="4.36414">
        <ele>270.5</ele>
        <time>2016-8-7T10:0:3.000Z</time>
      </trkpt>
      <trkpt lat="50.18832" lon="4.36411">
        <ele>269.5</ele>
        <time>2016-8-7T10:0:3.000Z</time>
      </trkpt>
      <trkpt lat="50.18832" lon="4.36411">
        <ele>269.5</ele>
        <time>2016-8-7T10:0:3.000Z</time>
      </trkpt>
      <trkpt lat="50.18831" lon="4.36409">
        <ele>269</ele>
        <time>2016-8-7T10:0:3.000Z</time>
      </trkpt>
      <trkpt lat="50.18831" lon="4.36409">
        <ele>269</ele>
        <time>2016-8-7T10:0:3.000Z</time>
      </trkpt>
      <trkpt lat="50.1883" lon="4.36407">
        <ele>268.5</ele>
        <time>2016-8-7T10:0:3.000Z</time>
      </trkpt>
      <trkpt lat="50.1883" lon="4.36407">
        <ele>268.5</ele>
        <time>2016-8-7T10:0:3.000Z</time>
      </trkpt>
      <trkpt lat="50.18829" lon="4.36405">
        <ele>267.5</ele>
        <time>2016-8-7T10:0:3.000Z</time>
      </trkpt>
      <trkpt lat="50.18829" lon="4.36405">
        <ele>267.5</ele>
        <time>2016-8-7T10:0:3.000Z</time>
      </trkpt>
      <trkpt lat="50.18828" lon="4.36403">
        <ele>267</ele>
        <time>2016-8-7T10:0:3.000Z</time>
      </trkpt>
      <trkpt lat="50.18828" lon="4.36403">
        <ele>267</ele>
        <time>2016-8-7T10:0:3.000Z</time>
      </trkpt>
      <trkpt lat="50.18827" lon="4.36401">
        <ele>266.5</ele>
        <time>2016-8-7T10:0:3.000Z</time>
      </trkpt>
      <trkpt lat="50.18827" lon="4.36401">
        <ele>266.5</ele>
        <time>2016-8-7T10:0:3.000Z</time>
      </trkpt>
      <trkpt lat="50.18827" lon="4.36399">
        <ele>265.5</ele>
        <time>2016-8-7T10:0:3.000Z</time>
      </trkpt>
      <trkpt lat="50.18827" lon="4.36399">
        <ele>265.5</ele>
        <time>2016-8-7T10:0:3.000Z</time>
      </trkpt>
      <trkpt lat="50.18826" lon="4.36395">
        <ele>264.5</ele>
        <time>2016-8-7T10:0:3.000Z</time>
      </trkpt>
      <trkpt lat="50.18826" lon="4.36395">
        <ele>264.5</ele>
        <time>2016-8-7T10:0:3.000Z</time>
      </trkpt>
      <trkpt lat="50.18825" lon="4.36389">
        <ele>263</ele>
        <time>2016-8-7T10:0:3.000Z</time>
      </trkpt>
      <trkpt lat="50.18825" lon="4.36389">
        <ele>263</ele>
        <time>2016-8-7T10:0:3.000Z</time>
      </trkpt>
      <trkpt lat="50.18825" lon="4.36374">
        <ele>262</ele>
        <time>2016-8-7T10:0:3.000Z</time>
      </trkpt>
      <trkpt lat="50.18825" lon="4.36374">
        <ele>262</ele>
        <time>2016-8-7T10:0:3.000Z</time>
      </trkpt>
      <trkpt lat="50.18827" lon="4.36368">
        <ele>261.5</ele>
        <time>2016-8-7T10:0:3.000Z</time>
      </trkpt>
      <trkpt lat="50.18827" lon="4.36368">
        <ele>261.5</ele>
        <time>2016-8-7T10:0:3.000Z</time>
      </trkpt>
      <trkpt lat="50.18828" lon="4.36366">
        <ele>261.5</ele>
        <time>2016-8-7T10:0:3.000Z</time>
      </trkpt>
      <trkpt lat="50.18828" lon="4.36366">
        <ele>261.5</ele>
        <time>2016-8-7T10:0:3.000Z</time>
      </trkpt>
      <trkpt lat="50.18829" lon="4.36363">
        <ele>261.5</ele>
        <time>2016-8-7T10:0:3.000Z</time>
      </trkpt>
      <trkpt lat="50.18829" lon="4.36363">
        <ele>261.5</ele>
        <time>2016-8-7T10:0:3.000Z</time>
      </trkpt>
      <trkpt lat="50.1883" lon="4.36361">
        <ele>261.5</ele>
        <time>2016-8-7T10:0:3.000Z</time>
      </trkpt>
      <trkpt lat="50.1883" lon="4.36361">
        <ele>261.5</ele>
        <time>2016-8-7T10:0:3.000Z</time>
      </trkpt>
      <trkpt lat="50.18831" lon="4.36358">
        <ele>261.5</ele>
        <time>2016-8-7T10:0:3.000Z</time>
      </trkpt>
      <trkpt lat="50.18831" lon="4.36358">
        <ele>261.5</ele>
        <time>2016-8-7T10:0:3.000Z</time>
      </trkpt>
      <trkpt lat="50.18832" lon="4.36355">
        <ele>261.5</ele>
        <time>2016-8-7T10:0:3.000Z</time>
      </trkpt>
      <trkpt lat="50.18832" lon="4.36355">
        <ele>261.5</ele>
        <time>2016-8-7T10:0:3.000Z</time>
      </trkpt>
      <trkpt lat="50.18834" lon="4.36351">
        <ele>262</ele>
        <time>2016-8-7T10:0:3.000Z</time>
      </trkpt>
      <trkpt lat="50.18834" lon="4.36351">
        <ele>262</ele>
        <time>2016-8-7T10:0:3.000Z</time>
      </trkpt>
      <trkpt lat="50.18835" lon="4.36348">
        <ele>262.5</ele>
        <time>2016-8-7T10:0:3.000Z</time>
      </trkpt>
      <trkpt lat="50.18835" lon="4.36348">
        <ele>262.5</ele>
        <time>2016-8-7T10:0:3.000Z</time>
      </trkpt>
      <trkpt lat="50.18837" lon="4.36345">
        <ele>263</ele>
        <time>2016-8-7T10:0:3.000Z</time>
      </trkpt>
      <trkpt lat="50.18837" lon="4.36345">
        <ele>263</ele>
        <time>2016-8-7T10:0:3.000Z</time>
      </trkpt>
      <trkpt lat="50.18843" lon="4.36332">
        <ele>264.5</ele>
        <time>2016-8-7T10:0:3.000Z</time>
      </trkpt>
      <trkpt lat="50.18843" lon="4.36332">
        <ele>264.5</ele>
        <time>2016-8-7T10:0:3.000Z</time>
      </trkpt>
      <trkpt lat="50.18844" lon="4.3633">
        <ele>264.5</ele>
        <time>2016-8-7T10:0:3.000Z</time>
      </trkpt>
      <trkpt lat="50.18844" lon="4.3633">
        <ele>264.5</ele>
        <time>2016-8-7T10:0:3.000Z</time>
      </trkpt>
      <trkpt lat="50.18846" lon="4.36327">
        <ele>265.5</ele>
        <time>2016-8-7T10:0:3.000Z</time>
      </trkpt>
      <trkpt lat="50.18846" lon="4.36327">
        <ele>265.5</ele>
        <time>2016-8-7T10:0:3.000Z</time>
      </trkpt>
      <trkpt lat="50.18847" lon="4.36325">
        <ele>265.5</ele>
        <time>2016-8-7T10:0:3.000Z</time>
      </trkpt>
      <trkpt lat="50.18847" lon="4.36325">
        <ele>265.5</ele>
        <time>2016-8-7T10:0:3.000Z</time>
      </trkpt>
      <trkpt lat="50.18848" lon="4.36322">
        <ele>267</ele>
        <time>2016-8-7T10:0:3.000Z</time>
      </trkpt>
      <trkpt lat="50.18848" lon="4.36322">
        <ele>267</ele>
        <time>2016-8-7T10:0:3.000Z</time>
      </trkpt>
      <trkpt lat="50.18849" lon="4.3632">
        <ele>268.5</ele>
        <time>2016-8-7T10:0:3.000Z</time>
      </trkpt>
      <trkpt lat="50.18849" lon="4.3632">
        <ele>268.5</ele>
        <time>2016-8-7T10:0:3.000Z</time>
      </trkpt>
      <trkpt lat="50.1885" lon="4.36318">
        <ele>270</ele>
        <time>2016-8-7T10:0:3.000Z</time>
      </trkpt>
      <trkpt lat="50.1885" lon="4.36318">
        <ele>270</ele>
        <time>2016-8-7T10:0:3.000Z</time>
      </trkpt>
      <trkpt lat="50.18852" lon="4.36316">
        <ele>270.5</ele>
        <time>2016-8-7T10:0:3.000Z</time>
      </trkpt>
      <trkpt lat="50.18852" lon="4.36316">
        <ele>270.5</ele>
        <time>2016-8-7T10:0:3.000Z</time>
      </trkpt>
      <trkpt lat="50.18853" lon="4.36314">
        <ele>272</ele>
        <time>2016-8-7T10:0:3.000Z</time>
      </trkpt>
      <trkpt lat="50.18853" lon="4.36314">
        <ele>272</ele>
        <time>2016-8-7T10:0:3.000Z</time>
      </trkpt>
      <trkpt lat="50.18854" lon="4.36312">
        <ele>272.5</ele>
        <time>2016-8-7T10:0:3.000Z</time>
      </trkpt>
      <trkpt lat="50.18854" lon="4.36312">
        <ele>272.5</ele>
        <time>2016-8-7T10:0:3.000Z</time>
      </trkpt>
      <trkpt lat="50.1886" lon="4.36302">
        <ele>275</ele>
        <time>2016-8-7T10:0:3.000Z</time>
      </trkpt>
      <trkpt lat="50.1886" lon="4.36302">
        <ele>275</ele>
        <time>2016-8-7T10:0:3.000Z</time>
      </trkpt>
      <trkpt lat="50.18862" lon="4.363">
        <ele>275.5</ele>
        <time>2016-8-7T10:0:3.000Z</time>
      </trkpt>
      <trkpt lat="50.18862" lon="4.363">
        <ele>275.5</ele>
        <time>2016-8-7T10:0:3.000Z</time>
      </trkpt>
      <trkpt lat="50.18863" lon="4.36298">
        <ele>276</ele>
        <time>2016-8-7T10:0:3.000Z</time>
      </trkpt>
      <trkpt lat="50.18863" lon="4.36298">
        <ele>276</ele>
        <time>2016-8-7T10:0:3.000Z</time>
      </trkpt>
      <trkpt lat="50.18864" lon="4.36296">
        <ele>276.5</ele>
        <time>2016-8-7T10:0:3.000Z</time>
      </trkpt>
      <trkpt lat="50.18864" lon="4.36296">
        <ele>276.5</ele>
        <time>2016-8-7T10:0:3.000Z</time>
      </trkpt>
      <trkpt lat="50.18865" lon="4.36294">
        <ele>277</ele>
        <time>2016-8-7T10:0:3.000Z</time>
      </trkpt>
      <trkpt lat="50.18865" lon="4.36294">
        <ele>277</ele>
        <time>2016-8-7T10:0:3.000Z</time>
      </trkpt>
      <trkpt lat="50.18866" lon="4.36292">
        <ele>277.5</ele>
        <time>2016-8-7T10:0:3.000Z</time>
      </trkpt>
      <trkpt lat="50.18866" lon="4.36292">
        <ele>277.5</ele>
        <time>2016-8-7T10:0:3.000Z</time>
      </trkpt>
      <trkpt lat="50.18867" lon="4.3629">
        <ele>277.5</ele>
        <time>2016-8-7T10:0:3.000Z</time>
      </trkpt>
      <trkpt lat="50.18867" lon="4.3629">
        <ele>277.5</ele>
        <time>2016-8-7T10:0:3.000Z</time>
      </trkpt>
      <trkpt lat="50.18868" lon="4.36286">
        <ele>278</ele>
        <time>2016-8-7T10:0:3.000Z</time>
      </trkpt>
      <trkpt lat="50.18868" lon="4.36286">
        <ele>278</ele>
        <time>2016-8-7T10:0:3.000Z</time>
      </trkpt>
      <trkpt lat="50.18867" lon="4.36283">
        <ele>278</ele>
        <time>2016-8-7T10:0:3.000Z</time>
      </trkpt>
      <trkpt lat="50.18867" lon="4.36283">
        <ele>278</ele>
        <time>2016-8-7T10:0:3.000Z</time>
      </trkpt>
      <trkpt lat="50.18867" lon="4.36281">
        <ele>277.5</ele>
        <time>2016-8-7T10:0:3.000Z</time>
      </trkpt>
      <trkpt lat="50.18867" lon="4.36281">
        <ele>277.5</ele>
        <time>2016-8-7T10:0:3.000Z</time>
      </trkpt>
      <trkpt lat="50.18866" lon="4.36278">
        <ele>277</ele>
        <time>2016-8-7T10:0:3.000Z</time>
      </trkpt>
      <trkpt lat="50.18866" lon="4.36278">
        <ele>277</ele>
        <time>2016-8-7T10:0:3.000Z</time>
      </trkpt>
      <trkpt lat="50.18865" lon="4.36274">
        <ele>276.5</ele>
        <time>2016-8-7T10:0:3.000Z</time>
      </trkpt>
      <trkpt lat="50.18865" lon="4.36274">
        <ele>276.5</ele>
        <time>2016-8-7T10:0:3.000Z</time>
      </trkpt>
      <trkpt lat="50.18865" lon="4.36272">
        <ele>276.5</ele>
        <time>2016-8-7T10:0:3.000Z</time>
      </trkpt>
      <trkpt lat="50.18865" lon="4.36272">
        <ele>276.5</ele>
        <time>2016-8-7T10:0:3.000Z</time>
      </trkpt>
      <trkpt lat="50.18864" lon="4.3627">
        <ele>276</ele>
        <time>2016-8-7T10:0:3.000Z</time>
      </trkpt>
      <trkpt lat="50.18864" lon="4.3627">
        <ele>276</ele>
        <time>2016-8-7T10:0:3.000Z</time>
      </trkpt>
      <trkpt lat="50.18863" lon="4.36268">
        <ele>275.5</ele>
        <time>2016-8-7T10:0:3.000Z</time>
      </trkpt>
      <trkpt lat="50.18863" lon="4.36268">
        <ele>275.5</ele>
        <time>2016-8-7T10:1:32.000Z</time>
      </trkpt>
      <trkpt lat="50.18862" lon="4.36264">
        <ele>275</ele>
        <time>2016-8-7T10:1:32.000Z</time>
      </trkpt>
      <trkpt lat="50.18862" lon="4.36264">
        <ele>275</ele>
        <time>2016-8-7T10:1:32.000Z</time>
      </trkpt>
      <trkpt lat="50.18861" lon="4.3626">
        <ele>274.5</ele>
        <time>2016-8-7T10:1:32.000Z</time>
      </trkpt>
      <trkpt lat="50.18861" lon="4.3626">
        <ele>274.5</ele>
        <time>2016-8-7T10:1:32.000Z</time>
      </trkpt>
      <trkpt lat="50.18861" lon="4.36257">
        <ele>274</ele>
        <time>2016-8-7T10:1:32.000Z</time>
      </trkpt>
      <trkpt lat="50.18861" lon="4.36257">
        <ele>274</ele>
        <time>2016-8-7T10:1:32.000Z</time>
      </trkpt>
      <trkpt lat="50.1886" lon="4.36253">
        <ele>273.5</ele>
        <time>2016-8-7T10:1:32.000Z</time>
      </trkpt>
      <trkpt lat="50.1886" lon="4.36253">
        <ele>273.5</ele>
        <time>2016-8-7T10:1:32.000Z</time>
      </trkpt>
      <trkpt lat="50.1886" lon="4.36251">
        <ele>272.5</ele>
        <time>2016-8-7T10:1:32.000Z</time>
      </trkpt>
      <trkpt lat="50.1886" lon="4.36251">
        <ele>272.5</ele>
        <time>2016-8-7T10:1:32.000Z</time>
      </trkpt>
      <trkpt lat="50.1886" lon="4.36248">
        <ele>273</ele>
        <time>2016-8-7T10:1:32.000Z</time>
      </trkpt>
      <trkpt lat="50.1886" lon="4.36248">
        <ele>273</ele>
        <time>2016-8-7T10:1:32.000Z</time>
      </trkpt>
      <trkpt lat="50.18859" lon="4.36246">
        <ele>273</ele>
        <time>2016-8-7T10:1:32.000Z</time>
      </trkpt>
      <trkpt lat="50.18859" lon="4.36246">
        <ele>273</ele>
        <time>2016-8-7T10:1:32.000Z</time>
      </trkpt>
      <trkpt lat="50.18859" lon="4.36242">
        <ele>273</ele>
        <time>2016-8-7T10:1:32.000Z</time>
      </trkpt>
      <trkpt lat="50.18859" lon="4.36242">
        <ele>273</ele>
        <time>2016-8-7T10:1:32.000Z</time>
      </trkpt>
      <trkpt lat="50.18859" lon="4.36239">
        <ele>273.5</ele>
        <time>2016-8-7T10:1:32.000Z</time>
      </trkpt>
      <trkpt lat="50.18859" lon="4.36239">
        <ele>273.5</ele>
        <time>2016-8-7T10:1:32.000Z</time>
      </trkpt>
      <trkpt lat="50.1886" lon="4.36237">
        <ele>273.5</ele>
        <time>2016-8-7T10:1:32.000Z</time>
      </trkpt>
      <trkpt lat="50.1886" lon="4.36237">
        <ele>273.5</ele>
        <time>2016-8-7T10:1:32.000Z</time>
      </trkpt>
      <trkpt lat="50.1886" lon="4.36233">
        <ele>274</ele>
        <time>2016-8-7T10:1:32.000Z</time>
      </trkpt>
      <trkpt lat="50.1886" lon="4.36233">
        <ele>274</ele>
        <time>2016-8-7T10:1:32.000Z</time>
      </trkpt>
      <trkpt lat="50.1886" lon="4.36229">
        <ele>274.5</ele>
        <time>2016-8-7T10:1:32.000Z</time>
      </trkpt>
      <trkpt lat="50.1886" lon="4.36229">
        <ele>274.5</ele>
        <time>2016-8-7T10:1:32.000Z</time>
      </trkpt>
      <trkpt lat="50.1886" lon="4.36225">
        <ele>275</ele>
        <time>2016-8-7T10:1:32.000Z</time>
      </trkpt>
      <trkpt lat="50.1886" lon="4.36225">
        <ele>275</ele>
        <time>2016-8-7T10:1:32.000Z</time>
      </trkpt>
      <trkpt lat="50.1886" lon="4.36222">
        <ele>275.5</ele>
        <time>2016-8-7T10:1:32.000Z</time>
      </trkpt>
      <trkpt lat="50.1886" lon="4.36222">
        <ele>275.5</ele>
        <time>2016-8-7T10:1:32.000Z</time>
      </trkpt>
      <trkpt lat="50.1886" lon="4.36219">
        <ele>275.5</ele>
        <time>2016-8-7T10:1:32.000Z</time>
      </trkpt>
      <trkpt lat="50.1886" lon="4.36219">
        <ele>275.5</ele>
        <time>2016-8-7T10:1:32.000Z</time>
      </trkpt>
      <trkpt lat="50.1886" lon="4.36216">
        <ele>276.5</ele>
        <time>2016-8-7T10:1:32.000Z</time>
      </trkpt>
      <trkpt lat="50.1886" lon="4.36216">
        <ele>276.5</ele>
        <time>2016-8-7T10:1:32.000Z</time>
      </trkpt>
      <trkpt lat="50.18861" lon="4.36212">
        <ele>276.5</ele>
        <time>2016-8-7T10:1:32.000Z</time>
      </trkpt>
      <trkpt lat="50.18861" lon="4.36212">
        <ele>276.5</ele>
        <time>2016-8-7T10:1:32.000Z</time>
      </trkpt>
      <trkpt lat="50.18862" lon="4.36208">
        <ele>277</ele>
        <time>2016-8-7T10:1:32.000Z</time>
      </trkpt>
      <trkpt lat="50.18862" lon="4.36208">
        <ele>277</ele>
        <time>2016-8-7T10:1:32.000Z</time>
      </trkpt>
      <trkpt lat="50.18862" lon="4.36205">
        <ele>277.5</ele>
        <time>2016-8-7T10:1:32.000Z</time>
      </trkpt>
      <trkpt lat="50.18862" lon="4.36205">
        <ele>277.5</ele>
        <time>2016-8-7T10:1:32.000Z</time>
      </trkpt>
      <trkpt lat="50.18862" lon="4.36202">
        <ele>277.5</ele>
        <time>2016-8-7T10:1:32.000Z</time>
      </trkpt>
      <trkpt lat="50.18862" lon="4.36202">
        <ele>277.5</ele>
        <time>2016-8-7T10:1:32.000Z</time>
      </trkpt>
      <trkpt lat="50.18862" lon="4.36198">
        <ele>277.5</ele>
        <time>2016-8-7T10:1:32.000Z</time>
      </trkpt>
      <trkpt lat="50.18862" lon="4.36198">
        <ele>277.5</ele>
        <time>2016-8-7T10:1:32.000Z</time>
      </trkpt>
      <trkpt lat="50.18862" lon="4.36195">
        <ele>277.5</ele>
        <time>2016-8-7T10:1:32.000Z</time>
      </trkpt>
      <trkpt lat="50.18862" lon="4.36195">
        <ele>277.5</ele>
        <time>2016-8-7T10:1:32.000Z</time>
      </trkpt>
      <trkpt lat="50.18862" lon="4.36194">
        <ele>277.5</ele>
        <time>2016-8-7T10:1:32.000Z</time>
      </trkpt>
      <trkpt lat="50.18862" lon="4.36194">
        <ele>277.5</ele>
        <time>2016-8-7T10:1:32.000Z</time>
      </trkpt>
      <trkpt lat="50.18863" lon="4.3619">
        <ele>277</ele>
        <time>2016-8-7T10:1:32.000Z</time>
      </trkpt>
      <trkpt lat="50.18863" lon="4.3619">
        <ele>277</ele>
        <time>2016-8-7T10:1:32.000Z</time>
      </trkpt>
      <trkpt lat="50.18873" lon="4.36162">
        <ele>278</ele>
        <time>2016-8-7T10:1:32.000Z</time>
      </trkpt>
      <trkpt lat="50.18873" lon="4.36162">
        <ele>278</ele>
        <time>2016-8-7T10:1:32.000Z</time>
      </trkpt>
      <trkpt lat="50.18874" lon="4.36159">
        <ele>278</ele>
        <time>2016-8-7T10:1:32.000Z</time>
      </trkpt>
      <trkpt lat="50.18874" lon="4.36159">
        <ele>278</ele>
        <time>2016-8-7T10:1:32.000Z</time>
      </trkpt>
      <trkpt lat="50.18874" lon="4.36156">
        <ele>278</ele>
        <time>2016-8-7T10:1:32.000Z</time>
      </trkpt>
      <trkpt lat="50.18874" lon="4.36156">
        <ele>278</ele>
        <time>2016-8-7T10:1:32.000Z</time>
      </trkpt>
      <trkpt lat="50.18875" lon="4.36154">
        <ele>278</ele>
        <time>2016-8-7T10:1:32.000Z</time>
      </trkpt>
      <trkpt lat="50.18875" lon="4.36154">
        <ele>278</ele>
        <time>2016-8-7T10:1:32.000Z</time>
      </trkpt>
      <trkpt lat="50.18876" lon="4.36151">
        <ele>277.5</ele>
        <time>2016-8-7T10:1:32.000Z</time>
      </trkpt>
      <trkpt lat="50.18876" lon="4.36151">
        <ele>277.5</ele>
        <time>2016-8-7T10:1:32.000Z</time>
      </trkpt>
      <trkpt lat="50.18877" lon="4.36149">
        <ele>277.5</ele>
        <time>2016-8-7T10:1:32.000Z</time>
      </trkpt>
      <trkpt lat="50.18877" lon="4.36149">
        <ele>277.5</ele>
        <time>2016-8-7T10:1:32.000Z</time>
      </trkpt>
      <trkpt lat="50.18878" lon="4.36147">
        <ele>277.5</ele>
        <time>2016-8-7T10:1:32.000Z</time>
      </trkpt>
      <trkpt lat="50.18878" lon="4.36147">
        <ele>277.5</ele>
        <time>2016-8-7T10:1:32.000Z</time>
      </trkpt>
      <trkpt lat="50.18879" lon="4.36146">
        <ele>277.5</ele>
        <time>2016-8-7T10:1:32.000Z</time>
      </trkpt>
      <trkpt lat="50.18879" lon="4.36146">
        <ele>277.5</ele>
        <time>2016-8-7T10:1:32.000Z</time>
      </trkpt>
      <trkpt lat="50.1888" lon="4.36144">
        <ele>278</ele>
        <time>2016-8-7T10:1:32.000Z</time>
      </trkpt>
      <trkpt lat="50.1888" lon="4.36144">
        <ele>278</ele>
        <time>2016-8-7T10:1:32.000Z</time>
      </trkpt>
      <trkpt lat="50.18882" lon="4.36141">
        <ele>278</ele>
        <time>2016-8-7T10:1:32.000Z</time>
      </trkpt>
      <trkpt lat="50.18882" lon="4.36141">
        <ele>278</ele>
        <time>2016-8-7T10:1:32.000Z</time>
      </trkpt>
      <trkpt lat="50.18884" lon="4.36139">
        <ele>278</ele>
        <time>2016-8-7T10:1:32.000Z</time>
      </trkpt>
      <trkpt lat="50.18884" lon="4.36139">
        <ele>278</ele>
        <time>2016-8-7T10:1:32.000Z</time>
      </trkpt>
      <trkpt lat="50.18885" lon="4.36137">
        <ele>277.5</ele>
        <time>2016-8-7T10:1:32.000Z</time>
      </trkpt>
      <trkpt lat="50.18885" lon="4.36137">
        <ele>277.5</ele>
        <time>2016-8-7T10:1:32.000Z</time>
      </trkpt>
      <trkpt lat="50.18887" lon="4.36134">
        <ele>278</ele>
        <time>2016-8-7T10:1:32.000Z</time>
      </trkpt>
      <trkpt lat="50.18887" lon="4.36134">
        <ele>278</ele>
        <time>2016-8-7T10:1:32.000Z</time>
      </trkpt>
      <trkpt lat="50.18888" lon="4.36133">
        <ele>278</ele>
        <time>2016-8-7T10:1:32.000Z</time>
      </trkpt>
      <trkpt lat="50.18888" lon="4.36133">
        <ele>278</ele>
        <time>2016-8-7T10:1:32.000Z</time>
      </trkpt>
      <trkpt lat="50.18889" lon="4.36131">
        <ele>278</ele>
        <time>2016-8-7T10:1:32.000Z</time>
      </trkpt>
      <trkpt lat="50.18889" lon="4.36131">
        <ele>278</ele>
        <time>2016-8-7T10:1:32.000Z</time>
      </trkpt>
      <trkpt lat="50.18891" lon="4.36128">
        <ele>278</ele>
        <time>2016-8-7T10:1:32.000Z</time>
      </trkpt>
      <trkpt lat="50.18891" lon="4.36128">
        <ele>278</ele>
        <time>2016-8-7T10:1:32.000Z</time>
      </trkpt>
      <trkpt lat="50.18893" lon="4.36125">
        <ele>278.5</ele>
        <time>2016-8-7T10:1:32.000Z</time>
      </trkpt>
      <trkpt lat="50.18893" lon="4.36125">
        <ele>278.5</ele>
        <time>2016-8-7T10:1:32.000Z</time>
      </trkpt>
      <trkpt lat="50.18894" lon="4.36124">
        <ele>278.5</ele>
        <time>2016-8-7T10:1:32.000Z</time>
      </trkpt>
      <trkpt lat="50.18894" lon="4.36124">
        <ele>278.5</ele>
        <time>2016-8-7T10:1:32.000Z</time>
      </trkpt>
      <trkpt lat="50.18895" lon="4.36121">
        <ele>279</ele>
        <time>2016-8-7T10:1:32.000Z</time>
      </trkpt>
      <trkpt lat="50.18895" lon="4.36121">
        <ele>279</ele>
        <time>2016-8-7T10:1:32.000Z</time>
      </trkpt>
      <trkpt lat="50.18897" lon="4.36118">
        <ele>279</ele>
        <time>2016-8-7T10:1:32.000Z</time>
      </trkpt>
      <trkpt lat="50.18897" lon="4.36118">
        <ele>279</ele>
        <time>2016-8-7T10:1:32.000Z</time>
      </trkpt>
      <trkpt lat="50.18899" lon="4.36115">
        <ele>280</ele>
        <time>2016-8-7T10:1:32.000Z</time>
      </trkpt>
      <trkpt lat="50.18899" lon="4.36115">
        <ele>280</ele>
        <time>2016-8-7T10:1:32.000Z</time>
      </trkpt>
      <trkpt lat="50.189" lon="4.36112">
        <ele>281</ele>
        <time>2016-8-7T10:1:32.000Z</time>
      </trkpt>
      <trkpt lat="50.189" lon="4.36112">
        <ele>281</ele>
        <time>2016-8-7T10:1:32.000Z</time>
      </trkpt>
      <trkpt lat="50.18901" lon="4.36111">
        <ele>281.5</ele>
        <time>2016-8-7T10:1:32.000Z</time>
      </trkpt>
      <trkpt lat="50.18901" lon="4.36111">
        <ele>281.5</ele>
        <time>2016-8-7T10:1:32.000Z</time>
      </trkpt>
      <trkpt lat="50.18903" lon="4.36108">
        <ele>283</ele>
        <time>2016-8-7T10:1:32.000Z</time>
      </trkpt>
      <trkpt lat="50.18903" lon="4.36108">
        <ele>283</ele>
        <time>2016-8-7T10:1:32.000Z</time>
      </trkpt>
      <trkpt lat="50.18904" lon="4.36106">
        <ele>284</ele>
        <time>2016-8-7T10:1:32.000Z</time>
      </trkpt>
      <trkpt lat="50.18904" lon="4.36106">
        <ele>284</ele>
        <time>2016-8-7T10:1:32.000Z</time>
      </trkpt>
      <trkpt lat="50.18905" lon="4.36103">
        <ele>284.5</ele>
        <time>2016-8-7T10:1:32.000Z</time>
      </trkpt>
      <trkpt lat="50.18905" lon="4.36103">
        <ele>284.5</ele>
        <time>2016-8-7T10:1:32.000Z</time>
      </trkpt>
      <trkpt lat="50.18906" lon="4.361">
        <ele>285</ele>
        <time>2016-8-7T10:3:12.000Z</time>
      </trkpt>
      <trkpt lat="50.18906" lon="4.361">
        <ele>285</ele>
        <time>2016-8-7T10:3:12.000Z</time>
      </trkpt>
      <trkpt lat="50.18908" lon="4.36096">
        <ele>285.5</ele>
        <time>2016-8-7T10:3:12.000Z</time>
      </trkpt>
      <trkpt lat="50.18908" lon="4.36096">
        <ele>285.5</ele>
        <time>2016-8-7T10:3:12.000Z</time>
      </trkpt>
      <trkpt lat="50.1891" lon="4.36093">
        <ele>286</ele>
        <time>2016-8-7T10:3:12.000Z</time>
      </trkpt>
      <trkpt lat="50.1891" lon="4.36093">
        <ele>286</ele>
        <time>2016-8-7T10:3:12.000Z</time>
      </trkpt>
      <trkpt lat="50.18911" lon="4.3609">
        <ele>286.5</ele>
        <time>2016-8-7T10:3:12.000Z</time>
      </trkpt>
      <trkpt lat="50.18911" lon="4.3609">
        <ele>286.5</ele>
        <time>2016-8-7T10:3:12.000Z</time>
      </trkpt>
      <trkpt lat="50.18913" lon="4.36087">
        <ele>287</ele>
        <time>2016-8-7T10:3:12.000Z</time>
      </trkpt>
      <trkpt lat="50.18913" lon="4.36087">
        <ele>287</ele>
        <time>2016-8-7T10:3:12.000Z</time>
      </trkpt>
      <trkpt lat="50.18914" lon="4.36084">
        <ele>287.5</ele>
        <time>2016-8-7T10:3:12.000Z</time>
      </trkpt>
      <trkpt lat="50.18914" lon="4.36084">
        <ele>287.5</ele>
        <time>2016-8-7T10:3:12.000Z</time>
      </trkpt>
      <trkpt lat="50.18915" lon="4.36081">
        <ele>288</ele>
        <time>2016-8-7T10:3:12.000Z</time>
      </trkpt>
      <trkpt lat="50.18915" lon="4.36081">
        <ele>288</ele>
        <time>2016-8-7T10:3:12.000Z</time>
      </trkpt>
      <trkpt lat="50.18916" lon="4.36077">
        <ele>288</ele>
        <time>2016-8-7T10:3:12.000Z</time>
      </trkpt>
      <trkpt lat="50.18916" lon="4.36077">
        <ele>288</ele>
        <time>2016-8-7T10:3:12.000Z</time>
      </trkpt>
      <trkpt lat="50.18916" lon="4.36074">
        <ele>288.5</ele>
        <time>2016-8-7T10:3:12.000Z</time>
      </trkpt>
      <trkpt lat="50.18916" lon="4.36074">
        <ele>288.5</ele>
        <time>2016-8-7T10:3:12.000Z</time>
      </trkpt>
      <trkpt lat="50.18916" lon="4.36071">
        <ele>288.5</ele>
        <time>2016-8-7T10:3:12.000Z</time>
      </trkpt>
      <trkpt lat="50.18916" lon="4.36071">
        <ele>288.5</ele>
        <time>2016-8-7T10:3:12.000Z</time>
      </trkpt>
      <trkpt lat="50.18915" lon="4.36068">
        <ele>288.5</ele>
        <time>2016-8-7T10:3:12.000Z</time>
      </trkpt>
      <trkpt lat="50.18915" lon="4.36068">
        <ele>288.5</ele>
        <time>2016-8-7T10:3:12.000Z</time>
      </trkpt>
      <trkpt lat="50.18915" lon="4.36064">
        <ele>288.5</ele>
        <time>2016-8-7T10:3:12.000Z</time>
      </trkpt>
      <trkpt lat="50.18915" lon="4.36064">
        <ele>288.5</ele>
        <time>2016-8-7T10:3:12.000Z</time>
      </trkpt>
      <trkpt lat="50.18915" lon="4.36061">
        <ele>288.5</ele>
        <time>2016-8-7T10:3:12.000Z</time>
      </trkpt>
      <trkpt lat="50.18915" lon="4.36061">
        <ele>288.5</ele>
        <time>2016-8-7T10:3:12.000Z</time>
      </trkpt>
      <trkpt lat="50.18915" lon="4.36059">
        <ele>288.5</ele>
        <time>2016-8-7T10:3:12.000Z</time>
      </trkpt>
      <trkpt lat="50.18915" lon="4.36059">
        <ele>288.5</ele>
        <time>2016-8-7T10:3:12.000Z</time>
      </trkpt>
      <trkpt lat="50.18916" lon="4.36055">
        <ele>289</ele>
        <time>2016-8-7T10:3:12.000Z</time>
      </trkpt>
      <trkpt lat="50.18916" lon="4.36055">
        <ele>289</ele>
        <time>2016-8-7T10:3:12.000Z</time>
      </trkpt>
      <trkpt lat="50.18917" lon="4.36051">
        <ele>289</ele>
        <time>2016-8-7T10:3:12.000Z</time>
      </trkpt>
      <trkpt lat="50.18917" lon="4.36051">
        <ele>289</ele>
        <time>2016-8-7T10:3:12.000Z</time>
      </trkpt>
      <trkpt lat="50.18917" lon="4.36048">
        <ele>288.5</ele>
        <time>2016-8-7T10:3:12.000Z</time>
      </trkpt>
      <trkpt lat="50.18917" lon="4.36048">
        <ele>288.5</ele>
        <time>2016-8-7T10:3:12.000Z</time>
      </trkpt>
      <trkpt lat="50.18917" lon="4.36045">
        <ele>288.5</ele>
        <time>2016-8-7T10:3:12.000Z</time>
      </trkpt>
      <trkpt lat="50.18917" lon="4.36045">
        <ele>288.5</ele>
        <time>2016-8-7T10:3:12.000Z</time>
      </trkpt>
      <trkpt lat="50.18918" lon="4.36043">
        <ele>288.5</ele>
        <time>2016-8-7T10:3:12.000Z</time>
      </trkpt>
      <trkpt lat="50.18918" lon="4.36043">
        <ele>288.5</ele>
        <time>2016-8-7T10:3:12.000Z</time>
      </trkpt>
      <trkpt lat="50.18918" lon="4.36039">
        <ele>288</ele>
        <time>2016-8-7T10:3:12.000Z</time>
      </trkpt>
      <trkpt lat="50.18918" lon="4.36039">
        <ele>288</ele>
        <time>2016-8-7T10:3:12.000Z</time>
      </trkpt>
      <trkpt lat="50.18919" lon="4.36036">
        <ele>288.5</ele>
        <time>2016-8-7T10:3:12.000Z</time>
      </trkpt>
      <trkpt lat="50.18919" lon="4.36036">
        <ele>288.5</ele>
        <time>2016-8-7T10:3:12.000Z</time>
      </trkpt>
      <trkpt lat="50.1892" lon="4.36033">
        <ele>288.5</ele>
        <time>2016-8-7T10:3:12.000Z</time>
      </trkpt>
      <trkpt lat="50.1892" lon="4.36033">
        <ele>288.5</ele>
        <time>2016-8-7T10:3:12.000Z</time>
      </trkpt>
      <trkpt lat="50.18921" lon="4.36029">
        <ele>288.5</ele>
        <time>2016-8-7T10:3:12.000Z</time>
      </trkpt>
      <trkpt lat="50.18921" lon="4.36029">
        <ele>288.5</ele>
        <time>2016-8-7T10:3:12.000Z</time>
      </trkpt>
      <trkpt lat="50.18922" lon="4.36026">
        <ele>288.5</ele>
        <time>2016-8-7T10:3:12.000Z</time>
      </trkpt>
      <trkpt lat="50.18922" lon="4.36026">
        <ele>288.5</ele>
        <time>2016-8-7T10:3:12.000Z</time>
      </trkpt>
      <trkpt lat="50.18923" lon="4.36023">
        <ele>289</ele>
        <time>2016-8-7T10:3:12.000Z</time>
      </trkpt>
      <trkpt lat="50.18923" lon="4.36023">
        <ele>289</ele>
        <time>2016-8-7T10:3:12.000Z</time>
      </trkpt>
      <trkpt lat="50.18924" lon="4.3602">
        <ele>289</ele>
        <time>2016-8-7T10:3:12.000Z</time>
      </trkpt>
      <trkpt lat="50.18924" lon="4.3602">
        <ele>289</ele>
        <time>2016-8-7T10:3:12.000Z</time>
      </trkpt>
      <trkpt lat="50.18926" lon="4.36018">
        <ele>289</ele>
        <time>2016-8-7T10:3:12.000Z</time>
      </trkpt>
      <trkpt lat="50.18926" lon="4.36018">
        <ele>289</ele>
        <time>2016-8-7T10:3:12.000Z</time>
      </trkpt>
      <trkpt lat="50.18927" lon="4.36015">
        <ele>289</ele>
        <time>2016-8-7T10:3:12.000Z</time>
      </trkpt>
      <trkpt lat="50.18927" lon="4.36015">
        <ele>289</ele>
        <time>2016-8-7T10:3:12.000Z</time>
      </trkpt>
      <trkpt lat="50.18928" lon="4.36012">
        <ele>289</ele>
        <time>2016-8-7T10:3:12.000Z</time>
      </trkpt>
      <trkpt lat="50.18928" lon="4.36012">
        <ele>289</ele>
        <time>2016-8-7T10:3:12.000Z</time>
      </trkpt>
      <trkpt lat="50.1893" lon="4.36009">
        <ele>289.5</ele>
        <time>2016-8-7T10:3:12.000Z</time>
      </trkpt>
      <trkpt lat="50.1893" lon="4.36009">
        <ele>289.5</ele>
        <time>2016-8-7T10:3:12.000Z</time>
      </trkpt>
      <trkpt lat="50.18931" lon="4.36006">
        <ele>289.5</ele>
        <time>2016-8-7T10:3:12.000Z</time>
      </trkpt>
      <trkpt lat="50.18931" lon="4.36006">
        <ele>289.5</ele>
        <time>2016-8-7T10:3:12.000Z</time>
      </trkpt>
      <trkpt lat="50.18932" lon="4.36004">
        <ele>290</ele>
        <time>2016-8-7T10:3:12.000Z</time>
      </trkpt>
      <trkpt lat="50.18932" lon="4.36004">
        <ele>290</ele>
        <time>2016-8-7T10:3:12.000Z</time>
      </trkpt>
      <trkpt lat="50.18934" lon="4.36001">
        <ele>290</ele>
        <time>2016-8-7T10:3:12.000Z</time>
      </trkpt>
      <trkpt lat="50.18934" lon="4.36001">
        <ele>290</ele>
        <time>2016-8-7T10:3:12.000Z</time>
      </trkpt>
      <trkpt lat="50.18936" lon="4.35998">
        <ele>290.5</ele>
        <time>2016-8-7T10:3:12.000Z</time>
      </trkpt>
      <trkpt lat="50.18936" lon="4.35998">
        <ele>290.5</ele>
        <time>2016-8-7T10:3:12.000Z</time>
      </trkpt>
      <trkpt lat="50.18937" lon="4.35995">
        <ele>290.5</ele>
        <time>2016-8-7T10:3:12.000Z</time>
      </trkpt>
      <trkpt lat="50.18937" lon="4.35995">
        <ele>290.5</ele>
        <time>2016-8-7T10:3:12.000Z</time>
      </trkpt>
      <trkpt lat="50.18938" lon="4.35992">
        <ele>291</ele>
        <time>2016-8-7T10:3:12.000Z</time>
      </trkpt>
      <trkpt lat="50.18938" lon="4.35992">
        <ele>291</ele>
        <time>2016-8-7T10:3:12.000Z</time>
      </trkpt>
      <trkpt lat="50.1894" lon="4.35989">
        <ele>291</ele>
        <time>2016-8-7T10:3:12.000Z</time>
      </trkpt>
      <trkpt lat="50.1894" lon="4.35989">
        <ele>291</ele>
        <time>2016-8-7T10:3:12.000Z</time>
      </trkpt>
      <trkpt lat="50.18941" lon="4.35986">
        <ele>291</ele>
        <time>2016-8-7T10:3:12.000Z</time>
      </trkpt>
      <trkpt lat="50.18941" lon="4.35986">
        <ele>291</ele>
        <time>2016-8-7T10:3:12.000Z</time>
      </trkpt>
      <trkpt lat="50.18942" lon="4.35984">
        <ele>291</ele>
        <time>2016-8-7T10:3:12.000Z</time>
      </trkpt>
      <trkpt lat="50.18942" lon="4.35984">
        <ele>291</ele>
        <time>2016-8-7T10:3:12.000Z</time>
      </trkpt>
      <trkpt lat="50.18942" lon="4.35981">
        <ele>291</ele>
        <time>2016-8-7T10:3:12.000Z</time>
      </trkpt>
      <trkpt lat="50.18942" lon="4.35981">
        <ele>291</ele>
        <time>2016-8-7T10:3:12.000Z</time>
      </trkpt>
      <trkpt lat="50.18942" lon="4.3598">
        <ele>291</ele>
        <time>2016-8-7T10:3:12.000Z</time>
      </trkpt>
      <trkpt lat="50.18942" lon="4.3598">
        <ele>291</ele>
        <time>2016-8-7T10:3:12.000Z</time>
      </trkpt>
      <trkpt lat="50.18942" lon="4.35977">
        <ele>290</ele>
        <time>2016-8-7T10:3:12.000Z</time>
      </trkpt>
      <trkpt lat="50.18942" lon="4.35977">
        <ele>290</ele>
        <time>2016-8-7T10:3:12.000Z</time>
      </trkpt>
      <trkpt lat="50.18942" lon="4.35974">
        <ele>290</ele>
        <time>2016-8-7T10:3:12.000Z</time>
      </trkpt>
      <trkpt lat="50.18942" lon="4.35974">
        <ele>290</ele>
        <time>2016-8-7T10:3:12.000Z</time>
      </trkpt>
      <trkpt lat="50.18942" lon="4.35972">
        <ele>289.5</ele>
        <time>2016-8-7T10:3:12.000Z</time>
      </trkpt>
      <trkpt lat="50.18942" lon="4.35972">
        <ele>289.5</ele>
        <time>2016-8-7T10:3:12.000Z</time>
      </trkpt>
      <trkpt lat="50.18943" lon="4.3597">
        <ele>289</ele>
        <time>2016-8-7T10:3:12.000Z</time>
      </trkpt>
      <trkpt lat="50.18943" lon="4.3597">
        <ele>289</ele>
        <time>2016-8-7T10:3:12.000Z</time>
      </trkpt>
      <trkpt lat="50.18943" lon="4.35966">
        <ele>288.5</ele>
        <time>2016-8-7T10:3:12.000Z</time>
      </trkpt>
      <trkpt lat="50.18943" lon="4.35966">
        <ele>288.5</ele>
        <time>2016-8-7T10:3:12.000Z</time>
      </trkpt>
      <trkpt lat="50.18943" lon="4.35962">
        <ele>288.5</ele>
        <time>2016-8-7T10:3:12.000Z</time>
      </trkpt>
      <trkpt lat="50.18943" lon="4.35962">
        <ele>288.5</ele>
        <time>2016-8-7T10:3:12.000Z</time>
      </trkpt>
      <trkpt lat="50.18943" lon="4.35956">
        <ele>288</ele>
        <time>2016-8-7T10:3:12.000Z</time>
      </trkpt>
      <trkpt lat="50.18943" lon="4.35956">
        <ele>288</ele>
        <time>2016-8-7T10:3:12.000Z</time>
      </trkpt>
      <trkpt lat="50.18942" lon="4.35935">
        <ele>286.5</ele>
        <time>2016-8-7T10:3:12.000Z</time>
      </trkpt>
      <trkpt lat="50.18942" lon="4.35935">
        <ele>286.5</ele>
        <time>2016-8-7T10:3:12.000Z</time>
      </trkpt>
      <trkpt lat="50.18941" lon="4.35932">
        <ele>286</ele>
        <time>2016-8-7T10:3:12.000Z</time>
      </trkpt>
      <trkpt lat="50.18941" lon="4.35932">
        <ele>286</ele>
        <time>2016-8-7T10:3:12.000Z</time>
      </trkpt>
      <trkpt lat="50.18935" lon="4.35913">
        <ele>283</ele>
        <time>2016-8-7T10:3:12.000Z</time>
      </trkpt>
      <trkpt lat="50.18935" lon="4.35913">
        <ele>283</ele>
        <time>2016-8-7T10:4:27.000Z</time>
      </trkpt>
      <trkpt lat="50.18934" lon="4.3591">
        <ele>282.5</ele>
        <time>2016-8-7T10:4:27.000Z</time>
      </trkpt>
      <trkpt lat="50.18934" lon="4.3591">
        <ele>282.5</ele>
        <time>2016-8-7T10:4:27.000Z</time>
      </trkpt>
      <trkpt lat="50.18933" lon="4.35907">
        <ele>282</ele>
        <time>2016-8-7T10:4:27.000Z</time>
      </trkpt>
      <trkpt lat="50.18933" lon="4.35907">
        <ele>282</ele>
        <time>2016-8-7T10:4:27.000Z</time>
      </trkpt>
      <trkpt lat="50.18931" lon="4.35902">
        <ele>281</ele>
        <time>2016-8-7T10:4:27.000Z</time>
      </trkpt>
      <trkpt lat="50.18931" lon="4.35902">
        <ele>281</ele>
        <time>2016-8-7T10:4:27.000Z</time>
      </trkpt>
      <trkpt lat="50.1893" lon="4.35899">
        <ele>280.5</ele>
        <time>2016-8-7T10:4:27.000Z</time>
      </trkpt>
      <trkpt lat="50.1893" lon="4.35899">
        <ele>280.5</ele>
        <time>2016-8-7T10:4:27.000Z</time>
      </trkpt>
      <trkpt lat="50.18924" lon="4.35888">
        <ele>279</ele>
        <time>2016-8-7T10:4:27.000Z</time>
      </trkpt>
      <trkpt lat="50.18924" lon="4.35888">
        <ele>279</ele>
        <time>2016-8-7T10:4:27.000Z</time>
      </trkpt>
      <trkpt lat="50.18923" lon="4.35886">
        <ele>278.5</ele>
        <time>2016-8-7T10:4:27.000Z</time>
      </trkpt>
      <trkpt lat="50.18923" lon="4.35886">
        <ele>278.5</ele>
        <time>2016-8-7T10:4:27.000Z</time>
      </trkpt>
      <trkpt lat="50.18922" lon="4.35884">
        <ele>278.5</ele>
        <time>2016-8-7T10:4:27.000Z</time>
      </trkpt>
      <trkpt lat="50.18922" lon="4.35884">
        <ele>278.5</ele>
        <time>2016-8-7T10:4:27.000Z</time>
      </trkpt>
      <trkpt lat="50.18921" lon="4.35882">
        <ele>278</ele>
        <time>2016-8-7T10:4:27.000Z</time>
      </trkpt>
      <trkpt lat="50.18921" lon="4.35882">
        <ele>278</ele>
        <time>2016-8-7T10:4:27.000Z</time>
      </trkpt>
      <trkpt lat="50.1892" lon="4.35881">
        <ele>277.5</ele>
        <time>2016-8-7T10:4:27.000Z</time>
      </trkpt>
      <trkpt lat="50.1892" lon="4.35881">
        <ele>277.5</ele>
        <time>2016-8-7T10:4:27.000Z</time>
      </trkpt>
      <trkpt lat="50.1892" lon="4.35879">
        <ele>277</ele>
        <time>2016-8-7T10:4:27.000Z</time>
      </trkpt>
      <trkpt lat="50.1892" lon="4.35879">
        <ele>277</ele>
        <time>2016-8-7T10:4:27.000Z</time>
      </trkpt>
      <trkpt lat="50.18919" lon="4.35877">
        <ele>276.5</ele>
        <time>2016-8-7T10:4:27.000Z</time>
      </trkpt>
      <trkpt lat="50.18919" lon="4.35877">
        <ele>276.5</ele>
        <time>2016-8-7T10:4:27.000Z</time>
      </trkpt>
      <trkpt lat="50.18918" lon="4.35875">
        <ele>276</ele>
        <time>2016-8-7T10:4:27.000Z</time>
      </trkpt>
      <trkpt lat="50.18918" lon="4.35875">
        <ele>276</ele>
        <time>2016-8-7T10:4:27.000Z</time>
      </trkpt>
      <trkpt lat="50.18917" lon="4.35872">
        <ele>275.5</ele>
        <time>2016-8-7T10:4:27.000Z</time>
      </trkpt>
      <trkpt lat="50.18917" lon="4.35872">
        <ele>275.5</ele>
        <time>2016-8-7T10:4:27.000Z</time>
      </trkpt>
      <trkpt lat="50.18916" lon="4.3587">
        <ele>275.5</ele>
        <time>2016-8-7T10:4:27.000Z</time>
      </trkpt>
      <trkpt lat="50.18916" lon="4.3587">
        <ele>275.5</ele>
        <time>2016-8-7T10:4:27.000Z</time>
      </trkpt>
      <trkpt lat="50.18915" lon="4.35867">
        <ele>274.5</ele>
        <time>2016-8-7T10:4:27.000Z</time>
      </trkpt>
      <trkpt lat="50.18915" lon="4.35867">
        <ele>274.5</ele>
        <time>2016-8-7T10:4:27.000Z</time>
      </trkpt>
      <trkpt lat="50.18915" lon="4.35865">
        <ele>274</ele>
        <time>2016-8-7T10:4:27.000Z</time>
      </trkpt>
      <trkpt lat="50.18915" lon="4.35865">
        <ele>274</ele>
        <time>2016-8-7T10:4:27.000Z</time>
      </trkpt>
      <trkpt lat="50.18913" lon="4.35861">
        <ele>273.5</ele>
        <time>2016-8-7T10:4:27.000Z</time>
      </trkpt>
      <trkpt lat="50.18913" lon="4.35861">
        <ele>273.5</ele>
        <time>2016-8-7T10:4:27.000Z</time>
      </trkpt>
      <trkpt lat="50.18912" lon="4.35858">
        <ele>273.5</ele>
        <time>2016-8-7T10:4:27.000Z</time>
      </trkpt>
      <trkpt lat="50.18912" lon="4.35858">
        <ele>273.5</ele>
        <time>2016-8-7T10:4:27.000Z</time>
      </trkpt>
      <trkpt lat="50.18912" lon="4.35854">
        <ele>273</ele>
        <time>2016-8-7T10:4:27.000Z</time>
      </trkpt>
      <trkpt lat="50.18912" lon="4.35854">
        <ele>273</ele>
        <time>2016-8-7T10:4:27.000Z</time>
      </trkpt>
      <trkpt lat="50.18911" lon="4.3585">
        <ele>272.5</ele>
        <time>2016-8-7T10:4:27.000Z</time>
      </trkpt>
      <trkpt lat="50.18911" lon="4.3585">
        <ele>272.5</ele>
        <time>2016-8-7T10:4:27.000Z</time>
      </trkpt>
      <trkpt lat="50.1891" lon="4.35847">
        <ele>272.5</ele>
        <time>2016-8-7T10:4:27.000Z</time>
      </trkpt>
      <trkpt lat="50.1891" lon="4.35847">
        <ele>272.5</ele>
        <time>2016-8-7T10:4:27.000Z</time>
      </trkpt>
      <trkpt lat="50.18909" lon="4.35843">
        <ele>272.5</ele>
        <time>2016-8-7T10:4:27.000Z</time>
      </trkpt>
      <trkpt lat="50.18909" lon="4.35843">
        <ele>272.5</ele>
        <time>2016-8-7T10:4:27.000Z</time>
      </trkpt>
      <trkpt lat="50.18909" lon="4.35839">
        <ele>272</ele>
        <time>2016-8-7T10:4:27.000Z</time>
      </trkpt>
      <trkpt lat="50.18909" lon="4.35839">
        <ele>272</ele>
        <time>2016-8-7T10:4:27.000Z</time>
      </trkpt>
      <trkpt lat="50.18909" lon="4.35835">
        <ele>272</ele>
        <time>2016-8-7T10:4:27.000Z</time>
      </trkpt>
      <trkpt lat="50.18909" lon="4.35835">
        <ele>272</ele>
        <time>2016-8-7T10:4:27.000Z</time>
      </trkpt>
      <trkpt lat="50.18909" lon="4.35831">
        <ele>271.5</ele>
        <time>2016-8-7T10:4:27.000Z</time>
      </trkpt>
      <trkpt lat="50.18909" lon="4.35831">
        <ele>271.5</ele>
        <time>2016-8-7T10:4:27.000Z</time>
      </trkpt>
      <trkpt lat="50.18909" lon="4.35827">
        <ele>271.5</ele>
        <time>2016-8-7T10:4:27.000Z</time>
      </trkpt>
      <trkpt lat="50.18909" lon="4.35827">
        <ele>271.5</ele>
        <time>2016-8-7T10:4:27.000Z</time>
      </trkpt>
      <trkpt lat="50.18908" lon="4.35823">
        <ele>271.5</ele>
        <time>2016-8-7T10:4:27.000Z</time>
      </trkpt>
      <trkpt lat="50.18908" lon="4.35823">
        <ele>271.5</ele>
        <time>2016-8-7T10:4:27.000Z</time>
      </trkpt>
      <trkpt lat="50.18908" lon="4.35818">
        <ele>272</ele>
        <time>2016-8-7T10:4:27.000Z</time>
      </trkpt>
      <trkpt lat="50.18908" lon="4.35818">
        <ele>272</ele>
        <time>2016-8-7T10:4:27.000Z</time>
      </trkpt>
      <trkpt lat="50.18908" lon="4.35816">
        <ele>272</ele>
        <time>2016-8-7T10:4:27.000Z</time>
      </trkpt>
      <trkpt lat="50.18908" lon="4.35816">
        <ele>272</ele>
        <time>2016-8-7T10:4:27.000Z</time>
      </trkpt>
      <trkpt lat="50.18908" lon="4.35812">
        <ele>272.5</ele>
        <time>2016-8-7T10:4:27.000Z</time>
      </trkpt>
      <trkpt lat="50.18908" lon="4.35812">
        <ele>272.5</ele>
        <time>2016-8-7T10:4:27.000Z</time>
      </trkpt>
      <trkpt lat="50.18908" lon="4.35808">
        <ele>273</ele>
        <time>2016-8-7T10:4:27.000Z</time>
      </trkpt>
      <trkpt lat="50.18908" lon="4.35808">
        <ele>273</ele>
        <time>2016-8-7T10:4:27.000Z</time>
      </trkpt>
      <trkpt lat="50.18907" lon="4.35805">
        <ele>273</ele>
        <time>2016-8-7T10:4:27.000Z</time>
      </trkpt>
      <trkpt lat="50.18907" lon="4.35805">
        <ele>273</ele>
        <time>2016-8-7T10:4:27.000Z</time>
      </trkpt>
      <trkpt lat="50.18907" lon="4.35801">
        <ele>273.5</ele>
        <time>2016-8-7T10:4:27.000Z</time>
      </trkpt>
      <trkpt lat="50.18907" lon="4.35801">
        <ele>273.5</ele>
        <time>2016-8-7T10:4:27.000Z</time>
      </trkpt>
      <trkpt lat="50.18907" lon="4.358">
        <ele>273.5</ele>
        <time>2016-8-7T10:4:27.000Z</time>
      </trkpt>
      <trkpt lat="50.18907" lon="4.358">
        <ele>273.5</ele>
        <time>2016-8-7T10:4:27.000Z</time>
      </trkpt>
      <trkpt lat="50.18907" lon="4.35797">
        <ele>273</ele>
        <time>2016-8-7T10:4:27.000Z</time>
      </trkpt>
      <trkpt lat="50.18907" lon="4.35797">
        <ele>273</ele>
        <time>2016-8-7T10:4:27.000Z</time>
      </trkpt>
      <trkpt lat="50.18907" lon="4.35793">
        <ele>273</ele>
        <time>2016-8-7T10:4:27.000Z</time>
      </trkpt>
      <trkpt lat="50.18907" lon="4.35793">
        <ele>273</ele>
        <time>2016-8-7T10:4:27.000Z</time>
      </trkpt>
      <trkpt lat="50.18907" lon="4.35789">
        <ele>273</ele>
        <time>2016-8-7T10:4:27.000Z</time>
      </trkpt>
      <trkpt lat="50.18907" lon="4.35789">
        <ele>273</ele>
        <time>2016-8-7T10:4:27.000Z</time>
      </trkpt>
      <trkpt lat="50.18907" lon="4.35785">
        <ele>273.5</ele>
        <time>2016-8-7T10:4:27.000Z</time>
      </trkpt>
      <trkpt lat="50.18907" lon="4.35785">
        <ele>273.5</ele>
        <time>2016-8-7T10:4:27.000Z</time>
      </trkpt>
      <trkpt lat="50.18907" lon="4.3578">
        <ele>273</ele>
        <time>2016-8-7T10:4:27.000Z</time>
      </trkpt>
      <trkpt lat="50.18907" lon="4.3578">
        <ele>273</ele>
        <time>2016-8-7T10:4:27.000Z</time>
      </trkpt>
      <trkpt lat="50.18908" lon="4.35776">
        <ele>273</ele>
        <time>2016-8-7T10:4:27.000Z</time>
      </trkpt>
      <trkpt lat="50.18908" lon="4.35776">
        <ele>273</ele>
        <time>2016-8-7T10:4:27.000Z</time>
      </trkpt>
      <trkpt lat="50.18908" lon="4.35774">
        <ele>273.5</ele>
        <time>2016-8-7T10:4:27.000Z</time>
      </trkpt>
      <trkpt lat="50.18908" lon="4.35774">
        <ele>273.5</ele>
        <time>2016-8-7T10:4:27.000Z</time>
      </trkpt>
      <trkpt lat="50.18908" lon="4.35772">
        <ele>273</ele>
        <time>2016-8-7T10:4:27.000Z</time>
      </trkpt>
      <trkpt lat="50.18908" lon="4.35772">
        <ele>273</ele>
        <time>2016-8-7T10:4:27.000Z</time>
      </trkpt>
      <trkpt lat="50.18909" lon="4.3577">
        <ele>273</ele>
        <time>2016-8-7T10:4:27.000Z</time>
      </trkpt>
      <trkpt lat="50.18909" lon="4.3577">
        <ele>273</ele>
        <time>2016-8-7T10:4:27.000Z</time>
      </trkpt>
      <trkpt lat="50.18909" lon="4.35768">
        <ele>273.5</ele>
        <time>2016-8-7T10:4:27.000Z</time>
      </trkpt>
      <trkpt lat="50.18909" lon="4.35768">
        <ele>273.5</ele>
        <time>2016-8-7T10:4:27.000Z</time>
      </trkpt>
      <trkpt lat="50.1891" lon="4.35764">
        <ele>273.5</ele>
        <time>2016-8-7T10:4:27.000Z</time>
      </trkpt>
      <trkpt lat="50.1891" lon="4.35764">
        <ele>273.5</ele>
        <time>2016-8-7T10:4:27.000Z</time>
      </trkpt>
      <trkpt lat="50.1891" lon="4.3576">
        <ele>273.5</ele>
        <time>2016-8-7T10:4:27.000Z</time>
      </trkpt>
      <trkpt lat="50.1891" lon="4.3576">
        <ele>273.5</ele>
        <time>2016-8-7T10:4:27.000Z</time>
      </trkpt>
      <trkpt lat="50.1891" lon="4.35757">
        <ele>273</ele>
        <time>2016-8-7T10:4:27.000Z</time>
      </trkpt>
      <trkpt lat="50.1891" lon="4.35757">
        <ele>273</ele>
        <time>2016-8-7T10:4:27.000Z</time>
      </trkpt>
      <trkpt lat="50.18911" lon="4.35753">
        <ele>273</ele>
        <time>2016-8-7T10:4:27.000Z</time>
      </trkpt>
      <trkpt lat="50.18911" lon="4.35753">
        <ele>273</ele>
        <time>2016-8-7T10:4:27.000Z</time>
      </trkpt>
      <trkpt lat="50.18912" lon="4.35749">
        <ele>273.5</ele>
        <time>2016-8-7T10:4:27.000Z</time>
      </trkpt>
      <trkpt lat="50.18912" lon="4.35749">
        <ele>273.5</ele>
        <time>2016-8-7T10:4:27.000Z</time>
      </trkpt>
      <trkpt lat="50.18912" lon="4.35745">
        <ele>273.5</ele>
        <time>2016-8-7T10:4:27.000Z</time>
      </trkpt>
      <trkpt lat="50.18912" lon="4.35745">
        <ele>273.5</ele>
        <time>2016-8-7T10:4:27.000Z</time>
      </trkpt>
      <trkpt lat="50.18913" lon="4.35742">
        <ele>274</ele>
        <time>2016-8-7T10:5:37.000Z</time>
      </trkpt>
      <trkpt lat="50.18913" lon="4.35742">
        <ele>274</ele>
        <time>2016-8-7T10:5:37.000Z</time>
      </trkpt>
      <trkpt lat="50.18913" lon="4.3574">
        <ele>274</ele>
        <time>2016-8-7T10:5:37.000Z</time>
      </trkpt>
      <trkpt lat="50.18913" lon="4.3574">
        <ele>274</ele>
        <time>2016-8-7T10:5:37.000Z</time>
      </trkpt>
      <trkpt lat="50.18913" lon="4.35738">
        <ele>274.5</ele>
        <time>2016-8-7T10:5:37.000Z</time>
      </trkpt>
      <trkpt lat="50.18913" lon="4.35738">
        <ele>274.5</ele>
        <time>2016-8-7T10:5:37.000Z</time>
      </trkpt>
      <trkpt lat="50.18914" lon="4.35735">
        <ele>275</ele>
        <time>2016-8-7T10:5:37.000Z</time>
      </trkpt>
      <trkpt lat="50.18914" lon="4.35735">
        <ele>275</ele>
        <time>2016-8-7T10:5:37.000Z</time>
      </trkpt>
      <trkpt lat="50.18914" lon="4.35733">
        <ele>275.5</ele>
        <time>2016-8-7T10:5:37.000Z</time>
      </trkpt>
      <trkpt lat="50.18914" lon="4.35733">
        <ele>275.5</ele>
        <time>2016-8-7T10:5:37.000Z</time>
      </trkpt>
      <trkpt lat="50.18914" lon="4.35729">
        <ele>275.5</ele>
        <time>2016-8-7T10:5:37.000Z</time>
      </trkpt>
      <trkpt lat="50.18914" lon="4.35729">
        <ele>275.5</ele>
        <time>2016-8-7T10:5:37.000Z</time>
      </trkpt>
      <trkpt lat="50.18914" lon="4.35725">
        <ele>276</ele>
        <time>2016-8-7T10:5:37.000Z</time>
      </trkpt>
      <trkpt lat="50.18914" lon="4.35725">
        <ele>276</ele>
        <time>2016-8-7T10:5:37.000Z</time>
      </trkpt>
      <trkpt lat="50.18914" lon="4.35721">
        <ele>276</ele>
        <time>2016-8-7T10:5:37.000Z</time>
      </trkpt>
      <trkpt lat="50.18914" lon="4.35721">
        <ele>276</ele>
        <time>2016-8-7T10:5:37.000Z</time>
      </trkpt>
      <trkpt lat="50.18913" lon="4.35719">
        <ele>276</ele>
        <time>2016-8-7T10:5:37.000Z</time>
      </trkpt>
      <trkpt lat="50.18913" lon="4.35719">
        <ele>276</ele>
        <time>2016-8-7T10:5:37.000Z</time>
      </trkpt>
      <trkpt lat="50.18913" lon="4.35716">
        <ele>275.5</ele>
        <time>2016-8-7T10:5:37.000Z</time>
      </trkpt>
      <trkpt lat="50.18913" lon="4.35716">
        <ele>275.5</ele>
        <time>2016-8-7T10:5:37.000Z</time>
      </trkpt>
      <trkpt lat="50.18912" lon="4.35714">
        <ele>275.5</ele>
        <time>2016-8-7T10:5:37.000Z</time>
      </trkpt>
      <trkpt lat="50.18912" lon="4.35714">
        <ele>275.5</ele>
        <time>2016-8-7T10:5:37.000Z</time>
      </trkpt>
      <trkpt lat="50.18912" lon="4.3571">
        <ele>275.5</ele>
        <time>2016-8-7T10:5:37.000Z</time>
      </trkpt>
      <trkpt lat="50.18912" lon="4.3571">
        <ele>275.5</ele>
        <time>2016-8-7T10:5:37.000Z</time>
      </trkpt>
      <trkpt lat="50.18911" lon="4.35707">
        <ele>275</ele>
        <time>2016-8-7T10:5:37.000Z</time>
      </trkpt>
      <trkpt lat="50.18911" lon="4.35707">
        <ele>275</ele>
        <time>2016-8-7T10:5:37.000Z</time>
      </trkpt>
      <trkpt lat="50.1891" lon="4.35703">
        <ele>274.5</ele>
        <time>2016-8-7T10:5:37.000Z</time>
      </trkpt>
      <trkpt lat="50.1891" lon="4.35703">
        <ele>274.5</ele>
        <time>2016-8-7T10:5:37.000Z</time>
      </trkpt>
      <trkpt lat="50.1891" lon="4.35702">
        <ele>274.5</ele>
        <time>2016-8-7T10:5:37.000Z</time>
      </trkpt>
      <trkpt lat="50.1891" lon="4.35702">
        <ele>274.5</ele>
        <time>2016-8-7T10:5:37.000Z</time>
      </trkpt>
      <trkpt lat="50.1891" lon="4.35698">
        <ele>275</ele>
        <time>2016-8-7T10:5:37.000Z</time>
      </trkpt>
      <trkpt lat="50.1891" lon="4.35698">
        <ele>275</ele>
        <time>2016-8-7T10:5:37.000Z</time>
      </trkpt>
      <trkpt lat="50.1891" lon="4.35696">
        <ele>275</ele>
        <time>2016-8-7T10:5:37.000Z</time>
      </trkpt>
      <trkpt lat="50.1891" lon="4.35696">
        <ele>275</ele>
        <time>2016-8-7T10:5:37.000Z</time>
      </trkpt>
      <trkpt lat="50.1891" lon="4.35692">
        <ele>275</ele>
        <time>2016-8-7T10:5:37.000Z</time>
      </trkpt>
      <trkpt lat="50.1891" lon="4.35692">
        <ele>275</ele>
        <time>2016-8-7T10:5:37.000Z</time>
      </trkpt>
      <trkpt lat="50.18909" lon="4.35689">
        <ele>274.5</ele>
        <time>2016-8-7T10:5:37.000Z</time>
      </trkpt>
      <trkpt lat="50.18909" lon="4.35689">
        <ele>274.5</ele>
        <time>2016-8-7T10:5:37.000Z</time>
      </trkpt>
      <trkpt lat="50.18909" lon="4.35685">
        <ele>274.5</ele>
        <time>2016-8-7T10:5:37.000Z</time>
      </trkpt>
      <trkpt lat="50.18909" lon="4.35685">
        <ele>274.5</ele>
        <time>2016-8-7T10:5:37.000Z</time>
      </trkpt>
      <trkpt lat="50.18909" lon="4.35681">
        <ele>274</ele>
        <time>2016-8-7T10:5:37.000Z</time>
      </trkpt>
      <trkpt lat="50.18909" lon="4.35681">
        <ele>274</ele>
        <time>2016-8-7T10:5:37.000Z</time>
      </trkpt>
      <trkpt lat="50.18909" lon="4.3568">
        <ele>274</ele>
        <time>2016-8-7T10:5:37.000Z</time>
      </trkpt>
      <trkpt lat="50.18909" lon="4.3568">
        <ele>274</ele>
        <time>2016-8-7T10:5:37.000Z</time>
      </trkpt>
      <trkpt lat="50.18909" lon="4.35676">
        <ele>274</ele>
        <time>2016-8-7T10:5:37.000Z</time>
      </trkpt>
      <trkpt lat="50.18909" lon="4.35676">
        <ele>274</ele>
        <time>2016-8-7T10:5:37.000Z</time>
      </trkpt>
      <trkpt lat="50.18909" lon="4.35672">
        <ele>274</ele>
        <time>2016-8-7T10:5:37.000Z</time>
      </trkpt>
      <trkpt lat="50.18909" lon="4.35672">
        <ele>274</ele>
        <time>2016-8-7T10:5:37.000Z</time>
      </trkpt>
      <trkpt lat="50.18909" lon="4.35667">
        <ele>274</ele>
        <time>2016-8-7T10:5:37.000Z</time>
      </trkpt>
      <trkpt lat="50.18909" lon="4.35667">
        <ele>274</ele>
        <time>2016-8-7T10:5:37.000Z</time>
      </trkpt>
      <trkpt lat="50.18909" lon="4.35664">
        <ele>274.5</ele>
        <time>2016-8-7T10:5:37.000Z</time>
      </trkpt>
      <trkpt lat="50.18909" lon="4.35664">
        <ele>274.5</ele>
        <time>2016-8-7T10:5:37.000Z</time>
      </trkpt>
      <trkpt lat="50.1891" lon="4.3566">
        <ele>274</ele>
        <time>2016-8-7T10:5:37.000Z</time>
      </trkpt>
      <trkpt lat="50.1891" lon="4.3566">
        <ele>274</ele>
        <time>2016-8-7T10:5:37.000Z</time>
      </trkpt>
      <trkpt lat="50.1891" lon="4.35657">
        <ele>273.5</ele>
        <time>2016-8-7T10:5:37.000Z</time>
      </trkpt>
      <trkpt lat="50.1891" lon="4.35657">
        <ele>273.5</ele>
        <time>2016-8-7T10:5:37.000Z</time>
      </trkpt>
      <trkpt lat="50.1891" lon="4.35652">
        <ele>274</ele>
        <time>2016-8-7T10:5:37.000Z</time>
      </trkpt>
      <trkpt lat="50.1891" lon="4.35652">
        <ele>274</ele>
        <time>2016-8-7T10:5:37.000Z</time>
      </trkpt>
      <trkpt lat="50.18911" lon="4.35648">
        <ele>274.5</ele>
        <time>2016-8-7T10:5:37.000Z</time>
      </trkpt>
      <trkpt lat="50.18911" lon="4.35648">
        <ele>274.5</ele>
        <time>2016-8-7T10:5:37.000Z</time>
      </trkpt>
      <trkpt lat="50.18911" lon="4.35646">
        <ele>274.5</ele>
        <time>2016-8-7T10:5:37.000Z</time>
      </trkpt>
      <trkpt lat="50.18911" lon="4.35646">
        <ele>274.5</ele>
        <time>2016-8-7T10:5:37.000Z</time>
      </trkpt>
      <trkpt lat="50.18912" lon="4.35644">
        <ele>275</ele>
        <time>2016-8-7T10:5:37.000Z</time>
      </trkpt>
      <trkpt lat="50.18912" lon="4.35644">
        <ele>275</ele>
        <time>2016-8-7T10:5:37.000Z</time>
      </trkpt>
      <trkpt lat="50.18912" lon="4.35642">
        <ele>275</ele>
        <time>2016-8-7T10:5:37.000Z</time>
      </trkpt>
      <trkpt lat="50.18912" lon="4.35642">
        <ele>275</ele>
        <time>2016-8-7T10:5:37.000Z</time>
      </trkpt>
      <trkpt lat="50.18912" lon="4.3564">
        <ele>275.5</ele>
        <time>2016-8-7T10:5:37.000Z</time>
      </trkpt>
      <trkpt lat="50.18912" lon="4.3564">
        <ele>275.5</ele>
        <time>2016-8-7T10:5:37.000Z</time>
      </trkpt>
      <trkpt lat="50.18912" lon="4.35639">
        <ele>275.5</ele>
        <time>2016-8-7T10:5:37.000Z</time>
      </trkpt>
      <trkpt lat="50.18912" lon="4.35639">
        <ele>275.5</ele>
        <time>2016-8-7T10:5:37.000Z</time>
      </trkpt>
      <trkpt lat="50.18912" lon="4.35637">
        <ele>275.5</ele>
        <time>2016-8-7T10:5:37.000Z</time>
      </trkpt>
      <trkpt lat="50.18912" lon="4.35637">
        <ele>275.5</ele>
        <time>2016-8-7T10:5:37.000Z</time>
      </trkpt>
      <trkpt lat="50.18913" lon="4.35634">
        <ele>276</ele>
        <time>2016-8-7T10:5:37.000Z</time>
      </trkpt>
      <trkpt lat="50.18913" lon="4.35634">
        <ele>276</ele>
        <time>2016-8-7T10:5:37.000Z</time>
      </trkpt>
      <trkpt lat="50.18914" lon="4.3563">
        <ele>276</ele>
        <time>2016-8-7T10:5:37.000Z</time>
      </trkpt>
      <trkpt lat="50.18914" lon="4.3563">
        <ele>276</ele>
        <time>2016-8-7T10:5:37.000Z</time>
      </trkpt>
      <trkpt lat="50.18914" lon="4.35626">
        <ele>276</ele>
        <time>2016-8-7T10:5:37.000Z</time>
      </trkpt>
      <trkpt lat="50.18914" lon="4.35626">
        <ele>276</ele>
        <time>2016-8-7T10:5:37.000Z</time>
      </trkpt>
      <trkpt lat="50.18915" lon="4.35622">
        <ele>276</ele>
        <time>2016-8-7T10:5:37.000Z</time>
      </trkpt>
      <trkpt lat="50.18915" lon="4.35622">
        <ele>276</ele>
        <time>2016-8-7T10:5:37.000Z</time>
      </trkpt>
      <trkpt lat="50.18915" lon="4.35618">
        <ele>276</ele>
        <time>2016-8-7T10:5:37.000Z</time>
      </trkpt>
      <trkpt lat="50.18915" lon="4.35618">
        <ele>276</ele>
        <time>2016-8-7T10:5:37.000Z</time>
      </trkpt>
      <trkpt lat="50.18916" lon="4.35617">
        <ele>276</ele>
        <time>2016-8-7T10:5:37.000Z</time>
      </trkpt>
      <trkpt lat="50.18916" lon="4.35617">
        <ele>276</ele>
        <time>2016-8-7T10:5:37.000Z</time>
      </trkpt>
      <trkpt lat="50.18916" lon="4.35615">
        <ele>276</ele>
        <time>2016-8-7T10:5:37.000Z</time>
      </trkpt>
      <trkpt lat="50.18916" lon="4.35615">
        <ele>276</ele>
        <time>2016-8-7T10:5:37.000Z</time>
      </trkpt>
      <trkpt lat="50.18917" lon="4.35611">
        <ele>276</ele>
        <time>2016-8-7T10:5:37.000Z</time>
      </trkpt>
      <trkpt lat="50.18917" lon="4.35611">
        <ele>276</ele>
        <time>2016-8-7T10:5:37.000Z</time>
      </trkpt>
      <trkpt lat="50.18918" lon="4.35607">
        <ele>276.5</ele>
        <time>2016-8-7T10:5:37.000Z</time>
      </trkpt>
      <trkpt lat="50.18918" lon="4.35607">
        <ele>276.5</ele>
        <time>2016-8-7T10:5:37.000Z</time>
      </trkpt>
      <trkpt lat="50.18918" lon="4.35603">
        <ele>276.5</ele>
        <time>2016-8-7T10:5:37.000Z</time>
      </trkpt>
      <trkpt lat="50.18918" lon="4.35603">
        <ele>276.5</ele>
        <time>2016-8-7T10:5:37.000Z</time>
      </trkpt>
      <trkpt lat="50.18919" lon="4.356">
        <ele>276.5</ele>
        <time>2016-8-7T10:5:37.000Z</time>
      </trkpt>
      <trkpt lat="50.18919" lon="4.356">
        <ele>276.5</ele>
        <time>2016-8-7T10:5:37.000Z</time>
      </trkpt>
      <trkpt lat="50.18919" lon="4.35596">
        <ele>276.5</ele>
        <time>2016-8-7T10:5:37.000Z</time>
      </trkpt>
      <trkpt lat="50.18919" lon="4.35596">
        <ele>276.5</ele>
        <time>2016-8-7T10:5:37.000Z</time>
      </trkpt>
      <trkpt lat="50.18919" lon="4.35594">
        <ele>276.5</ele>
        <time>2016-8-7T10:5:37.000Z</time>
      </trkpt>
      <trkpt lat="50.18919" lon="4.35594">
        <ele>276.5</ele>
        <time>2016-8-7T10:5:37.000Z</time>
      </trkpt>
      <trkpt lat="50.1892" lon="4.3559">
        <ele>276.5</ele>
        <time>2016-8-7T10:5:37.000Z</time>
      </trkpt>
      <trkpt lat="50.1892" lon="4.3559">
        <ele>276.5</ele>
        <time>2016-8-7T10:5:37.000Z</time>
      </trkpt>
      <trkpt lat="50.18921" lon="4.35586">
        <ele>276.5</ele>
        <time>2016-8-7T10:5:37.000Z</time>
      </trkpt>
      <trkpt lat="50.18921" lon="4.35586">
        <ele>276.5</ele>
        <time>2016-8-7T10:6:53.000Z</time>
      </trkpt>
      <trkpt lat="50.18922" lon="4.35583">
        <ele>276.5</ele>
        <time>2016-8-7T10:6:53.000Z</time>
      </trkpt>
      <trkpt lat="50.18922" lon="4.35583">
        <ele>276.5</ele>
        <time>2016-8-7T10:6:53.000Z</time>
      </trkpt>
      <trkpt lat="50.18924" lon="4.3558">
        <ele>276.5</ele>
        <time>2016-8-7T10:6:53.000Z</time>
      </trkpt>
      <trkpt lat="50.18924" lon="4.3558">
        <ele>276.5</ele>
        <time>2016-8-7T10:6:53.000Z</time>
      </trkpt>
      <trkpt lat="50.18925" lon="4.35577">
        <ele>276.5</ele>
        <time>2016-8-7T10:6:53.000Z</time>
      </trkpt>
      <trkpt lat="50.18925" lon="4.35577">
        <ele>276.5</ele>
        <time>2016-8-7T10:6:53.000Z</time>
      </trkpt>
      <trkpt lat="50.18927" lon="4.35573">
        <ele>277</ele>
        <time>2016-8-7T10:6:53.000Z</time>
      </trkpt>
      <trkpt lat="50.18927" lon="4.35573">
        <ele>277</ele>
        <time>2016-8-7T10:6:53.000Z</time>
      </trkpt>
      <trkpt lat="50.18928" lon="4.35572">
        <ele>277</ele>
        <time>2016-8-7T10:6:53.000Z</time>
      </trkpt>
      <trkpt lat="50.18928" lon="4.35572">
        <ele>277</ele>
        <time>2016-8-7T10:6:53.000Z</time>
      </trkpt>
      <trkpt lat="50.18929" lon="4.35571">
        <ele>277</ele>
        <time>2016-8-7T10:6:53.000Z</time>
      </trkpt>
      <trkpt lat="50.18929" lon="4.35571">
        <ele>277</ele>
        <time>2016-8-7T10:6:53.000Z</time>
      </trkpt>
      <trkpt lat="50.1893" lon="4.35569">
        <ele>277.5</ele>
        <time>2016-8-7T10:6:53.000Z</time>
      </trkpt>
      <trkpt lat="50.1893" lon="4.35569">
        <ele>277.5</ele>
        <time>2016-8-7T10:6:53.000Z</time>
      </trkpt>
      <trkpt lat="50.18932" lon="4.35567">
        <ele>278</ele>
        <time>2016-8-7T10:6:53.000Z</time>
      </trkpt>
      <trkpt lat="50.18932" lon="4.35567">
        <ele>278</ele>
        <time>2016-8-7T10:6:53.000Z</time>
      </trkpt>
      <trkpt lat="50.18933" lon="4.35566">
        <ele>278</ele>
        <time>2016-8-7T10:6:53.000Z</time>
      </trkpt>
      <trkpt lat="50.18933" lon="4.35566">
        <ele>278</ele>
        <time>2016-8-7T10:6:53.000Z</time>
      </trkpt>
      <trkpt lat="50.18935" lon="4.35565">
        <ele>279</ele>
        <time>2016-8-7T10:6:53.000Z</time>
      </trkpt>
      <trkpt lat="50.18935" lon="4.35565">
        <ele>279</ele>
        <time>2016-8-7T10:6:53.000Z</time>
      </trkpt>
      <trkpt lat="50.18937" lon="4.35563">
        <ele>280</ele>
        <time>2016-8-7T10:6:53.000Z</time>
      </trkpt>
      <trkpt lat="50.18937" lon="4.35563">
        <ele>280</ele>
        <time>2016-8-7T10:6:53.000Z</time>
      </trkpt>
      <trkpt lat="50.18937" lon="4.35562">
        <ele>280.5</ele>
        <time>2016-8-7T10:6:53.000Z</time>
      </trkpt>
      <trkpt lat="50.18937" lon="4.35562">
        <ele>280.5</ele>
        <time>2016-8-7T10:6:53.000Z</time>
      </trkpt>
      <trkpt lat="50.18939" lon="4.3556">
        <ele>280.5</ele>
        <time>2016-8-7T10:6:53.000Z</time>
      </trkpt>
      <trkpt lat="50.18939" lon="4.3556">
        <ele>280.5</ele>
        <time>2016-8-7T10:6:53.000Z</time>
      </trkpt>
      <trkpt lat="50.18941" lon="4.35558">
        <ele>280.5</ele>
        <time>2016-8-7T10:6:53.000Z</time>
      </trkpt>
      <trkpt lat="50.18941" lon="4.35558">
        <ele>280.5</ele>
        <time>2016-8-7T10:6:53.000Z</time>
      </trkpt>
      <trkpt lat="50.18942" lon="4.35556">
        <ele>281</ele>
        <time>2016-8-7T10:6:53.000Z</time>
      </trkpt>
      <trkpt lat="50.18942" lon="4.35556">
        <ele>281</ele>
        <time>2016-8-7T10:6:53.000Z</time>
      </trkpt>
      <trkpt lat="50.18944" lon="4.35554">
        <ele>281</ele>
        <time>2016-8-7T10:6:53.000Z</time>
      </trkpt>
      <trkpt lat="50.18944" lon="4.35554">
        <ele>281</ele>
        <time>2016-8-7T10:6:53.000Z</time>
      </trkpt>
      <trkpt lat="50.18945" lon="4.35552">
        <ele>281</ele>
        <time>2016-8-7T10:6:53.000Z</time>
      </trkpt>
      <trkpt lat="50.18945" lon="4.35552">
        <ele>281</ele>
        <time>2016-8-7T10:6:53.000Z</time>
      </trkpt>
      <trkpt lat="50.18946" lon="4.35551">
        <ele>281</ele>
        <time>2016-8-7T10:6:53.000Z</time>
      </trkpt>
      <trkpt lat="50.18946" lon="4.35551">
        <ele>281</ele>
        <time>2016-8-7T10:6:53.000Z</time>
      </trkpt>
      <trkpt lat="50.18948" lon="4.35549">
        <ele>281.5</ele>
        <time>2016-8-7T10:6:53.000Z</time>
      </trkpt>
      <trkpt lat="50.18948" lon="4.35549">
        <ele>281.5</ele>
        <time>2016-8-7T10:6:53.000Z</time>
      </trkpt>
      <trkpt lat="50.1895" lon="4.35548">
        <ele>281.5</ele>
        <time>2016-8-7T10:6:53.000Z</time>
      </trkpt>
      <trkpt lat="50.1895" lon="4.35548">
        <ele>281.5</ele>
        <time>2016-8-7T10:6:53.000Z</time>
      </trkpt>
      <trkpt lat="50.18951" lon="4.35548">
        <ele>282</ele>
        <time>2016-8-7T10:6:53.000Z</time>
      </trkpt>
      <trkpt lat="50.18951" lon="4.35548">
        <ele>282</ele>
        <time>2016-8-7T10:6:53.000Z</time>
      </trkpt>
      <trkpt lat="50.18953" lon="4.35548">
        <ele>282</ele>
        <time>2016-8-7T10:6:53.000Z</time>
      </trkpt>
      <trkpt lat="50.18953" lon="4.35548">
        <ele>282</ele>
        <time>2016-8-7T10:6:53.000Z</time>
      </trkpt>
      <trkpt lat="50.18961" lon="4.35546">
        <ele>282</ele>
        <time>2016-8-7T10:6:53.000Z</time>
      </trkpt>
      <trkpt lat="50.18961" lon="4.35546">
        <ele>282</ele>
        <time>2016-8-7T10:6:53.000Z</time>
      </trkpt>
      <trkpt lat="50.18962" lon="4.35546">
        <ele>282</ele>
        <time>2016-8-7T10:6:53.000Z</time>
      </trkpt>
      <trkpt lat="50.18962" lon="4.35546">
        <ele>282</ele>
        <time>2016-8-7T10:6:53.000Z</time>
      </trkpt>
      <trkpt lat="50.18964" lon="4.35546">
        <ele>281.5</ele>
        <time>2016-8-7T10:6:53.000Z</time>
      </trkpt>
      <trkpt lat="50.18964" lon="4.35546">
        <ele>281.5</ele>
        <time>2016-8-7T10:6:53.000Z</time>
      </trkpt>
      <trkpt lat="50.18966" lon="4.35545">
        <ele>281.5</ele>
        <time>2016-8-7T10:6:53.000Z</time>
      </trkpt>
      <trkpt lat="50.18966" lon="4.35545">
        <ele>281.5</ele>
        <time>2016-8-7T10:6:53.000Z</time>
      </trkpt>
      <trkpt lat="50.18968" lon="4.35545">
        <ele>281.5</ele>
        <time>2016-8-7T10:6:53.000Z</time>
      </trkpt>
      <trkpt lat="50.18968" lon="4.35545">
        <ele>281.5</ele>
        <time>2016-8-7T10:6:53.000Z</time>
      </trkpt>
      <trkpt lat="50.18971" lon="4.35545">
        <ele>281.5</ele>
        <time>2016-8-7T10:6:53.000Z</time>
      </trkpt>
      <trkpt lat="50.18971" lon="4.35545">
        <ele>281.5</ele>
        <time>2016-8-7T10:6:53.000Z</time>
      </trkpt>
      <trkpt lat="50.18972" lon="4.35544">
        <ele>281.5</ele>
        <time>2016-8-7T10:6:53.000Z</time>
      </trkpt>
      <trkpt lat="50.18972" lon="4.35544">
        <ele>281.5</ele>
        <time>2016-8-7T10:6:53.000Z</time>
      </trkpt>
      <trkpt lat="50.18974" lon="4.35544">
        <ele>282</ele>
        <time>2016-8-7T10:6:53.000Z</time>
      </trkpt>
      <trkpt lat="50.18974" lon="4.35544">
        <ele>282</ele>
        <time>2016-8-7T10:6:53.000Z</time>
      </trkpt>
      <trkpt lat="50.18977" lon="4.35543">
        <ele>282</ele>
        <time>2016-8-7T10:6:53.000Z</time>
      </trkpt>
      <trkpt lat="50.18977" lon="4.35543">
        <ele>282</ele>
        <time>2016-8-7T10:6:53.000Z</time>
      </trkpt>
      <trkpt lat="50.18979" lon="4.35542">
        <ele>282.5</ele>
        <time>2016-8-7T10:6:53.000Z</time>
      </trkpt>
      <trkpt lat="50.18979" lon="4.35542">
        <ele>282.5</ele>
        <time>2016-8-7T10:6:53.000Z</time>
      </trkpt>
      <trkpt lat="50.18981" lon="4.35541">
        <ele>283</ele>
        <time>2016-8-7T10:6:53.000Z</time>
      </trkpt>
      <trkpt lat="50.18981" lon="4.35541">
        <ele>283</ele>
        <time>2016-8-7T10:6:53.000Z</time>
      </trkpt>
      <trkpt lat="50.18982" lon="4.35541">
        <ele>283</ele>
        <time>2016-8-7T10:6:53.000Z</time>
      </trkpt>
      <trkpt lat="50.18982" lon="4.35541">
        <ele>283</ele>
        <time>2016-8-7T10:6:53.000Z</time>
      </trkpt>
      <trkpt lat="50.18984" lon="4.35539">
        <ele>283</ele>
        <time>2016-8-7T10:6:53.000Z</time>
      </trkpt>
      <trkpt lat="50.18984" lon="4.35539">
        <ele>283</ele>
        <time>2016-8-7T10:6:53.000Z</time>
      </trkpt>
      <trkpt lat="50.18987" lon="4.35538">
        <ele>283.5</ele>
        <time>2016-8-7T10:6:53.000Z</time>
      </trkpt>
      <trkpt lat="50.18987" lon="4.35538">
        <ele>283.5</ele>
        <time>2016-8-7T10:6:53.000Z</time>
      </trkpt>
      <trkpt lat="50.18988" lon="4.35537">
        <ele>283.5</ele>
        <time>2016-8-7T10:6:53.000Z</time>
      </trkpt>
      <trkpt lat="50.18988" lon="4.35537">
        <ele>283.5</ele>
        <time>2016-8-7T10:6:53.000Z</time>
      </trkpt>
      <trkpt lat="50.18989" lon="4.35535">
        <ele>283.5</ele>
        <time>2016-8-7T10:6:53.000Z</time>
      </trkpt>
      <trkpt lat="50.18989" lon="4.35535">
        <ele>283.5</ele>
        <time>2016-8-7T10:6:53.000Z</time>
      </trkpt>
      <trkpt lat="50.18991" lon="4.35533">
        <ele>283.5</ele>
        <time>2016-8-7T10:6:53.000Z</time>
      </trkpt>
      <trkpt lat="50.18991" lon="4.35533">
        <ele>283.5</ele>
        <time>2016-8-7T10:6:53.000Z</time>
      </trkpt>
      <trkpt lat="50.18993" lon="4.35531">
        <ele>283.5</ele>
        <time>2016-8-7T10:6:53.000Z</time>
      </trkpt>
      <trkpt lat="50.18993" lon="4.35531">
        <ele>283.5</ele>
        <time>2016-8-7T10:6:53.000Z</time>
      </trkpt>
      <trkpt lat="50.18995" lon="4.35529">
        <ele>283.5</ele>
        <time>2016-8-7T10:6:53.000Z</time>
      </trkpt>
      <trkpt lat="50.18995" lon="4.35529">
        <ele>283.5</ele>
        <time>2016-8-7T10:6:53.000Z</time>
      </trkpt>
      <trkpt lat="50.18996" lon="4.35526">
        <ele>283.5</ele>
        <time>2016-8-7T10:6:53.000Z</time>
      </trkpt>
      <trkpt lat="50.18996" lon="4.35526">
        <ele>283.5</ele>
        <time>2016-8-7T10:6:53.000Z</time>
      </trkpt>
      <trkpt lat="50.18998" lon="4.35523">
        <ele>284</ele>
        <time>2016-8-7T10:6:53.000Z</time>
      </trkpt>
      <trkpt lat="50.18998" lon="4.35523">
        <ele>284</ele>
        <time>2016-8-7T10:6:53.000Z</time>
      </trkpt>
      <trkpt lat="50.19" lon="4.3552">
        <ele>284.5</ele>
        <time>2016-8-7T10:6:53.000Z</time>
      </trkpt>
      <trkpt lat="50.19" lon="4.3552">
        <ele>284.5</ele>
        <time>2016-8-7T10:6:53.000Z</time>
      </trkpt>
      <trkpt lat="50.19" lon="4.35519">
        <ele>284.5</ele>
        <time>2016-8-7T10:6:53.000Z</time>
      </trkpt>
      <trkpt lat="50.19" lon="4.35519">
        <ele>284.5</ele>
        <time>2016-8-7T10:6:53.000Z</time>
      </trkpt>
      <trkpt lat="50.19002" lon="4.35515">
        <ele>285</ele>
        <time>2016-8-7T10:6:53.000Z</time>
      </trkpt>
      <trkpt lat="50.19002" lon="4.35515">
        <ele>285</ele>
        <time>2016-8-7T10:6:53.000Z</time>
      </trkpt>
      <trkpt lat="50.19003" lon="4.35511">
        <ele>285</ele>
        <time>2016-8-7T10:6:53.000Z</time>
      </trkpt>
      <trkpt lat="50.19003" lon="4.35511">
        <ele>285</ele>
        <time>2016-8-7T10:6:53.000Z</time>
      </trkpt>
      <trkpt lat="50.19003" lon="4.35508">
        <ele>285.5</ele>
        <time>2016-8-7T10:6:53.000Z</time>
      </trkpt>
      <trkpt lat="50.19003" lon="4.35508">
        <ele>285.5</ele>
        <time>2016-8-7T10:6:53.000Z</time>
      </trkpt>
      <trkpt lat="50.19004" lon="4.35504">
        <ele>285.5</ele>
        <time>2016-8-7T10:6:53.000Z</time>
      </trkpt>
      <trkpt lat="50.19004" lon="4.35504">
        <ele>285.5</ele>
        <time>2016-8-7T10:6:53.000Z</time>
      </trkpt>
      <trkpt lat="50.19005" lon="4.355">
        <ele>285.5</ele>
        <time>2016-8-7T10:6:53.000Z</time>
      </trkpt>
      <trkpt lat="50.19005" lon="4.355">
        <ele>285.5</ele>
        <time>2016-8-7T10:6:53.000Z</time>
      </trkpt>
      <trkpt lat="50.19005" lon="4.35497">
        <ele>286</ele>
        <time>2016-8-7T10:8:8.000Z</time>
      </trkpt>
      <trkpt lat="50.19005" lon="4.35497">
        <ele>286</ele>
        <time>2016-8-7T10:8:8.000Z</time>
      </trkpt>
      <trkpt lat="50.19005" lon="4.35493">
        <ele>286</ele>
        <time>2016-8-7T10:8:8.000Z</time>
      </trkpt>
      <trkpt lat="50.19005" lon="4.35493">
        <ele>286</ele>
        <time>2016-8-7T10:8:8.000Z</time>
      </trkpt>
      <trkpt lat="50.19006" lon="4.35489">
        <ele>286</ele>
        <time>2016-8-7T10:8:8.000Z</time>
      </trkpt>
      <trkpt lat="50.19006" lon="4.35489">
        <ele>286</ele>
        <time>2016-8-7T10:8:8.000Z</time>
      </trkpt>
      <trkpt lat="50.19006" lon="4.35485">
        <ele>286</ele>
        <time>2016-8-7T10:8:8.000Z</time>
      </trkpt>
      <trkpt lat="50.19006" lon="4.35485">
        <ele>286</ele>
        <time>2016-8-7T10:8:8.000Z</time>
      </trkpt>
      <trkpt lat="50.19006" lon="4.35483">
        <ele>286</ele>
        <time>2016-8-7T10:8:8.000Z</time>
      </trkpt>
      <trkpt lat="50.19006" lon="4.35483">
        <ele>286</ele>
        <time>2016-8-7T10:8:8.000Z</time>
      </trkpt>
      <trkpt lat="50.19006" lon="4.35482">
        <ele>286</ele>
        <time>2016-8-7T10:8:8.000Z</time>
      </trkpt>
      <trkpt lat="50.19006" lon="4.35482">
        <ele>286</ele>
        <time>2016-8-7T10:8:8.000Z</time>
      </trkpt>
      <trkpt lat="50.19005" lon="4.35478">
        <ele>285.5</ele>
        <time>2016-8-7T10:8:8.000Z</time>
      </trkpt>
      <trkpt lat="50.19005" lon="4.35478">
        <ele>285.5</ele>
        <time>2016-8-7T10:8:8.000Z</time>
      </trkpt>
      <trkpt lat="50.19005" lon="4.35475">
        <ele>285.5</ele>
        <time>2016-8-7T10:8:8.000Z</time>
      </trkpt>
      <trkpt lat="50.19005" lon="4.35475">
        <ele>285.5</ele>
        <time>2016-8-7T10:8:8.000Z</time>
      </trkpt>
      <trkpt lat="50.19004" lon="4.35472">
        <ele>285.5</ele>
        <time>2016-8-7T10:8:8.000Z</time>
      </trkpt>
      <trkpt lat="50.19004" lon="4.35472">
        <ele>285.5</ele>
        <time>2016-8-7T10:8:8.000Z</time>
      </trkpt>
      <trkpt lat="50.19003" lon="4.35469">
        <ele>285.5</ele>
        <time>2016-8-7T10:8:8.000Z</time>
      </trkpt>
      <trkpt lat="50.19003" lon="4.35469">
        <ele>285.5</ele>
        <time>2016-8-7T10:8:8.000Z</time>
      </trkpt>
      <trkpt lat="50.19002" lon="4.35465">
        <ele>285</ele>
        <time>2016-8-7T10:8:8.000Z</time>
      </trkpt>
      <trkpt lat="50.19002" lon="4.35465">
        <ele>285</ele>
        <time>2016-8-7T10:8:8.000Z</time>
      </trkpt>
      <trkpt lat="50.19002" lon="4.35464">
        <ele>285</ele>
        <time>2016-8-7T10:8:8.000Z</time>
      </trkpt>
      <trkpt lat="50.19002" lon="4.35464">
        <ele>285</ele>
        <time>2016-8-7T10:8:8.000Z</time>
      </trkpt>
      <trkpt lat="50.19001" lon="4.35462">
        <ele>285</ele>
        <time>2016-8-7T10:8:8.000Z</time>
      </trkpt>
      <trkpt lat="50.19001" lon="4.35462">
        <ele>285</ele>
        <time>2016-8-7T10:8:8.000Z</time>
      </trkpt>
      <trkpt lat="50.18999" lon="4.35459">
        <ele>285</ele>
        <time>2016-8-7T10:8:8.000Z</time>
      </trkpt>
      <trkpt lat="50.18999" lon="4.35459">
        <ele>285</ele>
        <time>2016-8-7T10:8:8.000Z</time>
      </trkpt>
      <trkpt lat="50.18998" lon="4.35456">
        <ele>284.5</ele>
        <time>2016-8-7T10:8:8.000Z</time>
      </trkpt>
      <trkpt lat="50.18998" lon="4.35456">
        <ele>284.5</ele>
        <time>2016-8-7T10:8:8.000Z</time>
      </trkpt>
      <trkpt lat="50.18997" lon="4.35455">
        <ele>284</ele>
        <time>2016-8-7T10:8:8.000Z</time>
      </trkpt>
      <trkpt lat="50.18997" lon="4.35455">
        <ele>284</ele>
        <time>2016-8-7T10:8:8.000Z</time>
      </trkpt>
      <trkpt lat="50.18995" lon="4.35453">
        <ele>284</ele>
        <time>2016-8-7T10:8:8.000Z</time>
      </trkpt>
      <trkpt lat="50.18995" lon="4.35453">
        <ele>284</ele>
        <time>2016-8-7T10:8:8.000Z</time>
      </trkpt>
      <trkpt lat="50.18993" lon="4.3545">
        <ele>283.5</ele>
        <time>2016-8-7T10:8:8.000Z</time>
      </trkpt>
      <trkpt lat="50.18993" lon="4.3545">
        <ele>283.5</ele>
        <time>2016-8-7T10:8:8.000Z</time>
      </trkpt>
      <trkpt lat="50.18992" lon="4.35447">
        <ele>283</ele>
        <time>2016-8-7T10:8:8.000Z</time>
      </trkpt>
      <trkpt lat="50.18992" lon="4.35447">
        <ele>283</ele>
        <time>2016-8-7T10:8:8.000Z</time>
      </trkpt>
      <trkpt lat="50.18991" lon="4.35446">
        <ele>283</ele>
        <time>2016-8-7T10:8:8.000Z</time>
      </trkpt>
      <trkpt lat="50.18991" lon="4.35446">
        <ele>283</ele>
        <time>2016-8-7T10:8:8.000Z</time>
      </trkpt>
      <trkpt lat="50.18989" lon="4.35443">
        <ele>282</ele>
        <time>2016-8-7T10:8:8.000Z</time>
      </trkpt>
      <trkpt lat="50.18989" lon="4.35443">
        <ele>282</ele>
        <time>2016-8-7T10:8:8.000Z</time>
      </trkpt>
      <trkpt lat="50.18987" lon="4.35441">
        <ele>281</ele>
        <time>2016-8-7T10:8:8.000Z</time>
      </trkpt>
      <trkpt lat="50.18987" lon="4.35441">
        <ele>281</ele>
        <time>2016-8-7T10:8:8.000Z</time>
      </trkpt>
      <trkpt lat="50.18986" lon="4.35437">
        <ele>280.5</ele>
        <time>2016-8-7T10:8:8.000Z</time>
      </trkpt>
      <trkpt lat="50.18986" lon="4.35437">
        <ele>280.5</ele>
        <time>2016-8-7T10:8:8.000Z</time>
      </trkpt>
      <trkpt lat="50.18984" lon="4.35434">
        <ele>280</ele>
        <time>2016-8-7T10:8:8.000Z</time>
      </trkpt>
      <trkpt lat="50.18984" lon="4.35434">
        <ele>280</ele>
        <time>2016-8-7T10:8:8.000Z</time>
      </trkpt>
      <trkpt lat="50.18982" lon="4.35433">
        <ele>279</ele>
        <time>2016-8-7T10:8:8.000Z</time>
      </trkpt>
      <trkpt lat="50.18982" lon="4.35433">
        <ele>279</ele>
        <time>2016-8-7T10:8:8.000Z</time>
      </trkpt>
      <trkpt lat="50.1898" lon="4.35431">
        <ele>278</ele>
        <time>2016-8-7T10:8:8.000Z</time>
      </trkpt>
      <trkpt lat="50.1898" lon="4.35431">
        <ele>278</ele>
        <time>2016-8-7T10:8:8.000Z</time>
      </trkpt>
      <trkpt lat="50.18979" lon="4.35428">
        <ele>277</ele>
        <time>2016-8-7T10:8:8.000Z</time>
      </trkpt>
      <trkpt lat="50.18979" lon="4.35428">
        <ele>277</ele>
        <time>2016-8-7T10:8:8.000Z</time>
      </trkpt>
      <trkpt lat="50.18978" lon="4.35427">
        <ele>276.5</ele>
        <time>2016-8-7T10:8:8.000Z</time>
      </trkpt>
      <trkpt lat="50.18978" lon="4.35427">
        <ele>276.5</ele>
        <time>2016-8-7T10:8:8.000Z</time>
      </trkpt>
      <trkpt lat="50.18977" lon="4.35426">
        <ele>276</ele>
        <time>2016-8-7T10:8:8.000Z</time>
      </trkpt>
      <trkpt lat="50.18977" lon="4.35426">
        <ele>276</ele>
        <time>2016-8-7T10:8:8.000Z</time>
      </trkpt>
      <trkpt lat="50.18975" lon="4.35423">
        <ele>275</ele>
        <time>2016-8-7T10:8:8.000Z</time>
      </trkpt>
      <trkpt lat="50.18975" lon="4.35423">
        <ele>275</ele>
        <time>2016-8-7T10:8:8.000Z</time>
      </trkpt>
      <trkpt lat="50.18973" lon="4.35421">
        <ele>274</ele>
        <time>2016-8-7T10:8:8.000Z</time>
      </trkpt>
      <trkpt lat="50.18973" lon="4.35421">
        <ele>274</ele>
        <time>2016-8-7T10:8:8.000Z</time>
      </trkpt>
      <trkpt lat="50.18971" lon="4.35419">
        <ele>273.5</ele>
        <time>2016-8-7T10:8:8.000Z</time>
      </trkpt>
      <trkpt lat="50.18971" lon="4.35419">
        <ele>273.5</ele>
        <time>2016-8-7T10:8:8.000Z</time>
      </trkpt>
      <trkpt lat="50.1897" lon="4.35416">
        <ele>273</ele>
        <time>2016-8-7T10:8:8.000Z</time>
      </trkpt>
      <trkpt lat="50.1897" lon="4.35416">
        <ele>273</ele>
        <time>2016-8-7T10:8:8.000Z</time>
      </trkpt>
      <trkpt lat="50.18969" lon="4.35415">
        <ele>272.5</ele>
        <time>2016-8-7T10:8:8.000Z</time>
      </trkpt>
      <trkpt lat="50.18969" lon="4.35415">
        <ele>272.5</ele>
        <time>2016-8-7T10:8:8.000Z</time>
      </trkpt>
      <trkpt lat="50.18969" lon="4.35413">
        <ele>271.5</ele>
        <time>2016-8-7T10:8:8.000Z</time>
      </trkpt>
      <trkpt lat="50.18969" lon="4.35413">
        <ele>271.5</ele>
        <time>2016-8-7T10:8:8.000Z</time>
      </trkpt>
      <trkpt lat="50.18967" lon="4.3541">
        <ele>270.5</ele>
        <time>2016-8-7T10:8:8.000Z</time>
      </trkpt>
      <trkpt lat="50.18967" lon="4.3541">
        <ele>270.5</ele>
        <time>2016-8-7T10:8:8.000Z</time>
      </trkpt>
      <trkpt lat="50.18966" lon="4.35408">
        <ele>270</ele>
        <time>2016-8-7T10:8:8.000Z</time>
      </trkpt>
      <trkpt lat="50.18966" lon="4.35408">
        <ele>270</ele>
        <time>2016-8-7T10:8:8.000Z</time>
      </trkpt>
      <trkpt lat="50.18964" lon="4.35405">
        <ele>269.5</ele>
        <time>2016-8-7T10:8:8.000Z</time>
      </trkpt>
      <trkpt lat="50.18964" lon="4.35405">
        <ele>269.5</ele>
        <time>2016-8-7T10:8:8.000Z</time>
      </trkpt>
      <trkpt lat="50.18962" lon="4.35402">
        <ele>269</ele>
        <time>2016-8-7T10:8:8.000Z</time>
      </trkpt>
      <trkpt lat="50.18962" lon="4.35402">
        <ele>269</ele>
        <time>2016-8-7T10:8:8.000Z</time>
      </trkpt>
      <trkpt lat="50.1896" lon="4.35399">
        <ele>268.5</ele>
        <time>2016-8-7T10:8:8.000Z</time>
      </trkpt>
      <trkpt lat="50.1896" lon="4.35399">
        <ele>268.5</ele>
        <time>2016-8-7T10:8:8.000Z</time>
      </trkpt>
      <trkpt lat="50.18958" lon="4.35396">
        <ele>268</ele>
        <time>2016-8-7T10:8:8.000Z</time>
      </trkpt>
      <trkpt lat="50.18958" lon="4.35396">
        <ele>268</ele>
        <time>2016-8-7T10:8:8.000Z</time>
      </trkpt>
      <trkpt lat="50.18956" lon="4.35394">
        <ele>268</ele>
        <time>2016-8-7T10:8:8.000Z</time>
      </trkpt>
      <trkpt lat="50.18956" lon="4.35394">
        <ele>268</ele>
        <time>2016-8-7T10:8:8.000Z</time>
      </trkpt>
      <trkpt lat="50.18955" lon="4.35393">
        <ele>267.5</ele>
        <time>2016-8-7T10:8:8.000Z</time>
      </trkpt>
      <trkpt lat="50.18955" lon="4.35393">
        <ele>267.5</ele>
        <time>2016-8-7T10:8:8.000Z</time>
      </trkpt>
      <trkpt lat="50.18952" lon="4.3539">
        <ele>267.5</ele>
        <time>2016-8-7T10:8:8.000Z</time>
      </trkpt>
      <trkpt lat="50.18952" lon="4.3539">
        <ele>267.5</ele>
        <time>2016-8-7T10:8:8.000Z</time>
      </trkpt>
      <trkpt lat="50.1895" lon="4.35388">
        <ele>267</ele>
        <time>2016-8-7T10:8:8.000Z</time>
      </trkpt>
      <trkpt lat="50.1895" lon="4.35388">
        <ele>267</ele>
        <time>2016-8-7T10:8:8.000Z</time>
      </trkpt>
      <trkpt lat="50.1895" lon="4.35387">
        <ele>267</ele>
        <time>2016-8-7T10:8:8.000Z</time>
      </trkpt>
      <trkpt lat="50.1895" lon="4.35387">
        <ele>267</ele>
        <time>2016-8-7T10:8:8.000Z</time>
      </trkpt>
      <trkpt lat="50.18949" lon="4.35385">
        <ele>266.5</ele>
        <time>2016-8-7T10:8:8.000Z</time>
      </trkpt>
      <trkpt lat="50.18949" lon="4.35385">
        <ele>266.5</ele>
        <time>2016-8-7T10:8:8.000Z</time>
      </trkpt>
      <trkpt lat="50.18948" lon="4.35381">
        <ele>266.5</ele>
        <time>2016-8-7T10:8:8.000Z</time>
      </trkpt>
      <trkpt lat="50.18948" lon="4.35381">
        <ele>266.5</ele>
        <time>2016-8-7T10:8:8.000Z</time>
      </trkpt>
      <trkpt lat="50.18946" lon="4.35378">
        <ele>266</ele>
        <time>2016-8-7T10:8:8.000Z</time>
      </trkpt>
      <trkpt lat="50.18946" lon="4.35378">
        <ele>266</ele>
        <time>2016-8-7T10:8:8.000Z</time>
      </trkpt>
      <trkpt lat="50.18945" lon="4.35376">
        <ele>265.5</ele>
        <time>2016-8-7T10:8:8.000Z</time>
      </trkpt>
      <trkpt lat="50.18945" lon="4.35376">
        <ele>265.5</ele>
        <time>2016-8-7T10:8:8.000Z</time>
      </trkpt>
      <trkpt lat="50.18945" lon="4.35373">
        <ele>265</ele>
        <time>2016-8-7T10:8:8.000Z</time>
      </trkpt>
      <trkpt lat="50.18945" lon="4.35373">
        <ele>265</ele>
        <time>2016-8-7T10:9:13.000Z</time>
      </trkpt>
      <trkpt lat="50.18943" lon="4.3537">
        <ele>265</ele>
        <time>2016-8-7T10:9:13.000Z</time>
      </trkpt>
      <trkpt lat="50.18943" lon="4.3537">
        <ele>265</ele>
        <time>2016-8-7T10:9:13.000Z</time>
      </trkpt>
      <trkpt lat="50.1894" lon="4.35367">
        <ele>264.5</ele>
        <time>2016-8-7T10:9:13.000Z</time>
      </trkpt>
      <trkpt lat="50.1894" lon="4.35367">
        <ele>264.5</ele>
        <time>2016-8-7T10:9:13.000Z</time>
      </trkpt>
      <trkpt lat="50.18939" lon="4.35365">
        <ele>264.5</ele>
        <time>2016-8-7T10:9:13.000Z</time>
      </trkpt>
      <trkpt lat="50.18939" lon="4.35365">
        <ele>264.5</ele>
        <time>2016-8-7T10:9:13.000Z</time>
      </trkpt>
      <trkpt lat="50.18937" lon="4.35362">
        <ele>264.5</ele>
        <time>2016-8-7T10:9:13.000Z</time>
      </trkpt>
      <trkpt lat="50.18937" lon="4.35362">
        <ele>264.5</ele>
        <time>2016-8-7T10:9:13.000Z</time>
      </trkpt>
      <trkpt lat="50.18937" lon="4.35359">
        <ele>265</ele>
        <time>2016-8-7T10:9:13.000Z</time>
      </trkpt>
      <trkpt lat="50.18937" lon="4.35359">
        <ele>265</ele>
        <time>2016-8-7T10:9:13.000Z</time>
      </trkpt>
      <trkpt lat="50.18936" lon="4.35358">
        <ele>265</ele>
        <time>2016-8-7T10:9:13.000Z</time>
      </trkpt>
      <trkpt lat="50.18936" lon="4.35358">
        <ele>265</ele>
        <time>2016-8-7T10:9:13.000Z</time>
      </trkpt>
      <trkpt lat="50.18936" lon="4.35354">
        <ele>264.5</ele>
        <time>2016-8-7T10:9:13.000Z</time>
      </trkpt>
      <trkpt lat="50.18936" lon="4.35354">
        <ele>264.5</ele>
        <time>2016-8-7T10:9:13.000Z</time>
      </trkpt>
      <trkpt lat="50.18936" lon="4.35351">
        <ele>264.5</ele>
        <time>2016-8-7T10:9:13.000Z</time>
      </trkpt>
      <trkpt lat="50.18936" lon="4.35351">
        <ele>264.5</ele>
        <time>2016-8-7T10:9:13.000Z</time>
      </trkpt>
      <trkpt lat="50.18936" lon="4.3535">
        <ele>264.5</ele>
        <time>2016-8-7T10:9:13.000Z</time>
      </trkpt>
      <trkpt lat="50.18936" lon="4.3535">
        <ele>264.5</ele>
        <time>2016-8-7T10:9:13.000Z</time>
      </trkpt>
      <trkpt lat="50.18936" lon="4.35347">
        <ele>264.5</ele>
        <time>2016-8-7T10:9:13.000Z</time>
      </trkpt>
      <trkpt lat="50.18936" lon="4.35347">
        <ele>264.5</ele>
        <time>2016-8-7T10:9:13.000Z</time>
      </trkpt>
      <trkpt lat="50.18932" lon="4.35346">
        <ele>267.5</ele>
        <time>2016-8-7T10:9:13.000Z</time>
      </trkpt>
      <trkpt lat="50.18932" lon="4.35346">
        <ele>267.5</ele>
        <time>2016-8-7T10:9:13.000Z</time>
      </trkpt>
      <trkpt lat="50.18932" lon="4.35343">
        <ele>265</ele>
        <time>2016-8-7T10:9:13.000Z</time>
      </trkpt>
      <trkpt lat="50.18932" lon="4.35343">
        <ele>265</ele>
        <time>2016-8-7T10:9:13.000Z</time>
      </trkpt>
      <trkpt lat="50.18931" lon="4.35342">
        <ele>265</ele>
        <time>2016-8-7T10:9:13.000Z</time>
      </trkpt>
      <trkpt lat="50.18931" lon="4.35342">
        <ele>265</ele>
        <time>2016-8-7T10:9:13.000Z</time>
      </trkpt>
      <trkpt lat="50.1893" lon="4.35341">
        <ele>265.5</ele>
        <time>2016-8-7T10:9:13.000Z</time>
      </trkpt>
      <trkpt lat="50.1893" lon="4.35341">
        <ele>265.5</ele>
        <time>2016-8-7T10:9:13.000Z</time>
      </trkpt>
      <trkpt lat="50.18928" lon="4.35339">
        <ele>266</ele>
        <time>2016-8-7T10:9:13.000Z</time>
      </trkpt>
      <trkpt lat="50.18928" lon="4.35339">
        <ele>266</ele>
        <time>2016-8-7T10:9:13.000Z</time>
      </trkpt>
      <trkpt lat="50.18927" lon="4.35337">
        <ele>266.5</ele>
        <time>2016-8-7T10:9:13.000Z</time>
      </trkpt>
      <trkpt lat="50.18927" lon="4.35337">
        <ele>266.5</ele>
        <time>2016-8-7T10:9:13.000Z</time>
      </trkpt>
      <trkpt lat="50.18926" lon="4.35334">
        <ele>266.5</ele>
        <time>2016-8-7T10:9:13.000Z</time>
      </trkpt>
      <trkpt lat="50.18926" lon="4.35334">
        <ele>266.5</ele>
        <time>2016-8-7T10:9:13.000Z</time>
      </trkpt>
      <trkpt lat="50.18926" lon="4.35332">
        <ele>266.5</ele>
        <time>2016-8-7T10:9:13.000Z</time>
      </trkpt>
      <trkpt lat="50.18926" lon="4.35332">
        <ele>266.5</ele>
        <time>2016-8-7T10:9:13.000Z</time>
      </trkpt>
      <trkpt lat="50.18924" lon="4.35329">
        <ele>265.5</ele>
        <time>2016-8-7T10:9:13.000Z</time>
      </trkpt>
      <trkpt lat="50.18924" lon="4.35329">
        <ele>265.5</ele>
        <time>2016-8-7T10:9:13.000Z</time>
      </trkpt>
      <trkpt lat="50.18923" lon="4.35327">
        <ele>265</ele>
        <time>2016-8-7T10:9:13.000Z</time>
      </trkpt>
      <trkpt lat="50.18923" lon="4.35327">
        <ele>265</ele>
        <time>2016-8-7T10:9:13.000Z</time>
      </trkpt>
      <trkpt lat="50.18923" lon="4.35324">
        <ele>265.5</ele>
        <time>2016-8-7T10:9:13.000Z</time>
      </trkpt>
      <trkpt lat="50.18923" lon="4.35324">
        <ele>265.5</ele>
        <time>2016-8-7T10:9:13.000Z</time>
      </trkpt>
      <trkpt lat="50.18922" lon="4.35321">
        <ele>265.5</ele>
        <time>2016-8-7T10:9:13.000Z</time>
      </trkpt>
      <trkpt lat="50.18922" lon="4.35321">
        <ele>265.5</ele>
        <time>2016-8-7T10:9:13.000Z</time>
      </trkpt>
      <trkpt lat="50.1892" lon="4.35319">
        <ele>265</ele>
        <time>2016-8-7T10:9:13.000Z</time>
      </trkpt>
      <trkpt lat="50.1892" lon="4.35319">
        <ele>265</ele>
        <time>2016-8-7T10:9:13.000Z</time>
      </trkpt>
      <trkpt lat="50.18919" lon="4.35313">
        <ele>264.5</ele>
        <time>2016-8-7T10:9:13.000Z</time>
      </trkpt>
      <trkpt lat="50.18919" lon="4.35313">
        <ele>264.5</ele>
        <time>2016-8-7T10:9:13.000Z</time>
      </trkpt>
      <trkpt lat="50.18919" lon="4.35311">
        <ele>264.5</ele>
        <time>2016-8-7T10:9:13.000Z</time>
      </trkpt>
      <trkpt lat="50.18919" lon="4.35311">
        <ele>264.5</ele>
        <time>2016-8-7T10:9:13.000Z</time>
      </trkpt>
      <trkpt lat="50.18918" lon="4.35308">
        <ele>264.5</ele>
        <time>2016-8-7T10:9:13.000Z</time>
      </trkpt>
      <trkpt lat="50.18918" lon="4.35308">
        <ele>264.5</ele>
        <time>2016-8-7T10:9:13.000Z</time>
      </trkpt>
      <trkpt lat="50.18917" lon="4.35306">
        <ele>264.5</ele>
        <time>2016-8-7T10:9:13.000Z</time>
      </trkpt>
      <trkpt lat="50.18917" lon="4.35306">
        <ele>264.5</ele>
        <time>2016-8-7T10:9:13.000Z</time>
      </trkpt>
      <trkpt lat="50.18917" lon="4.35303">
        <ele>264.5</ele>
        <time>2016-8-7T10:9:13.000Z</time>
      </trkpt>
      <trkpt lat="50.18917" lon="4.35303">
        <ele>264.5</ele>
        <time>2016-8-7T10:9:13.000Z</time>
      </trkpt>
      <trkpt lat="50.18916" lon="4.35301">
        <ele>264.5</ele>
        <time>2016-8-7T10:9:13.000Z</time>
      </trkpt>
      <trkpt lat="50.18916" lon="4.35301">
        <ele>264.5</ele>
        <time>2016-8-7T10:9:13.000Z</time>
      </trkpt>
      <trkpt lat="50.18915" lon="4.35299">
        <ele>265</ele>
        <time>2016-8-7T10:9:13.000Z</time>
      </trkpt>
      <trkpt lat="50.18915" lon="4.35299">
        <ele>265</ele>
        <time>2016-8-7T10:9:13.000Z</time>
      </trkpt>
      <trkpt lat="50.18914" lon="4.35297">
        <ele>265</ele>
        <time>2016-8-7T10:9:13.000Z</time>
      </trkpt>
      <trkpt lat="50.18914" lon="4.35297">
        <ele>265</ele>
        <time>2016-8-7T10:9:13.000Z</time>
      </trkpt>
      <trkpt lat="50.18914" lon="4.35294">
        <ele>265.5</ele>
        <time>2016-8-7T10:9:13.000Z</time>
      </trkpt>
      <trkpt lat="50.18914" lon="4.35294">
        <ele>265.5</ele>
        <time>2016-8-7T10:9:13.000Z</time>
      </trkpt>
      <trkpt lat="50.18913" lon="4.35292">
        <ele>265.5</ele>
        <time>2016-8-7T10:9:13.000Z</time>
      </trkpt>
      <trkpt lat="50.18913" lon="4.35292">
        <ele>265.5</ele>
        <time>2016-8-7T10:9:13.000Z</time>
      </trkpt>
      <trkpt lat="50.18913" lon="4.3529">
        <ele>266</ele>
        <time>2016-8-7T10:9:13.000Z</time>
      </trkpt>
      <trkpt lat="50.18913" lon="4.3529">
        <ele>266</ele>
        <time>2016-8-7T10:9:13.000Z</time>
      </trkpt>
      <trkpt lat="50.18912" lon="4.35288">
        <ele>266.5</ele>
        <time>2016-8-7T10:9:13.000Z</time>
      </trkpt>
      <trkpt lat="50.18912" lon="4.35288">
        <ele>266.5</ele>
        <time>2016-8-7T10:9:13.000Z</time>
      </trkpt>
      <trkpt lat="50.18912" lon="4.35285">
        <ele>267</ele>
        <time>2016-8-7T10:9:13.000Z</time>
      </trkpt>
      <trkpt lat="50.18912" lon="4.35285">
        <ele>267</ele>
        <time>2016-8-7T10:9:13.000Z</time>
      </trkpt>
      <trkpt lat="50.18911" lon="4.35283">
        <ele>267.5</ele>
        <time>2016-8-7T10:9:13.000Z</time>
      </trkpt>
      <trkpt lat="50.18911" lon="4.35283">
        <ele>267.5</ele>
        <time>2016-8-7T10:9:13.000Z</time>
      </trkpt>
      <trkpt lat="50.1891" lon="4.35281">
        <ele>268</ele>
        <time>2016-8-7T10:9:13.000Z</time>
      </trkpt>
      <trkpt lat="50.1891" lon="4.35281">
        <ele>268</ele>
        <time>2016-8-7T10:9:13.000Z</time>
      </trkpt>
      <trkpt lat="50.1891" lon="4.35279">
        <ele>268.5</ele>
        <time>2016-8-7T10:9:13.000Z</time>
      </trkpt>
      <trkpt lat="50.1891" lon="4.35279">
        <ele>268.5</ele>
        <time>2016-8-7T10:9:13.000Z</time>
      </trkpt>
      <trkpt lat="50.18909" lon="4.35276">
        <ele>269</ele>
        <time>2016-8-7T10:9:13.000Z</time>
      </trkpt>
      <trkpt lat="50.18909" lon="4.35276">
        <ele>269</ele>
        <time>2016-8-7T10:9:13.000Z</time>
      </trkpt>
      <trkpt lat="50.18909" lon="4.35274">
        <ele>269.5</ele>
        <time>2016-8-7T10:9:13.000Z</time>
      </trkpt>
      <trkpt lat="50.18909" lon="4.35274">
        <ele>269.5</ele>
        <time>2016-8-7T10:9:13.000Z</time>
      </trkpt>
      <trkpt lat="50.18908" lon="4.35271">
        <ele>270.5</ele>
        <time>2016-8-7T10:9:13.000Z</time>
      </trkpt>
      <trkpt lat="50.18908" lon="4.35271">
        <ele>270.5</ele>
        <time>2016-8-7T10:9:13.000Z</time>
      </trkpt>
      <trkpt lat="50.18907" lon="4.35268">
        <ele>271</ele>
        <time>2016-8-7T10:9:13.000Z</time>
      </trkpt>
      <trkpt lat="50.18907" lon="4.35268">
        <ele>271</ele>
        <time>2016-8-7T10:9:13.000Z</time>
      </trkpt>
      <trkpt lat="50.18907" lon="4.35267">
        <ele>271</ele>
        <time>2016-8-7T10:9:13.000Z</time>
      </trkpt>
      <trkpt lat="50.18907" lon="4.35267">
        <ele>271</ele>
        <time>2016-8-7T10:9:13.000Z</time>
      </trkpt>
      <trkpt lat="50.18907" lon="4.35264">
        <ele>271</ele>
        <time>2016-8-7T10:9:13.000Z</time>
      </trkpt>
      <trkpt lat="50.18907" lon="4.35264">
        <ele>271</ele>
        <time>2016-8-7T10:9:13.000Z</time>
      </trkpt>
      <trkpt lat="50.18906" lon="4.35261">
        <ele>271</ele>
        <time>2016-8-7T10:9:13.000Z</time>
      </trkpt>
      <trkpt lat="50.18906" lon="4.35261">
        <ele>271</ele>
        <time>2016-8-7T10:9:13.000Z</time>
      </trkpt>
      <trkpt lat="50.18906" lon="4.35257">
        <ele>270.5</ele>
        <time>2016-8-7T10:9:13.000Z</time>
      </trkpt>
      <trkpt lat="50.18906" lon="4.35257">
        <ele>270.5</ele>
        <time>2016-8-7T10:9:13.000Z</time>
      </trkpt>
      <trkpt lat="50.18905" lon="4.35254">
        <ele>271</ele>
        <time>2016-8-7T10:9:13.000Z</time>
      </trkpt>
      <trkpt lat="50.18905" lon="4.35254">
        <ele>271</ele>
        <time>2016-8-7T10:9:13.000Z</time>
      </trkpt>
      <trkpt lat="50.18905" lon="4.35251">
        <ele>271</ele>
        <time>2016-8-7T10:9:13.000Z</time>
      </trkpt>
      <trkpt lat="50.18905" lon="4.35251">
        <ele>271</ele>
        <time>2016-8-7T10:9:13.000Z</time>
      </trkpt>
      <trkpt lat="50.18904" lon="4.35247">
        <ele>271.5</ele>
        <time>2016-8-7T10:9:13.000Z</time>
      </trkpt>
      <trkpt lat="50.18904" lon="4.35247">
        <ele>271.5</ele>
        <time>2016-8-7T10:9:13.000Z</time>
      </trkpt>
      <trkpt lat="50.18904" lon="4.35243">
        <ele>272</ele>
        <time>2016-8-7T10:10:26.000Z</time>
      </trkpt>
      <trkpt lat="50.18904" lon="4.35243">
        <ele>272</ele>
        <time>2016-8-7T10:10:26.000Z</time>
      </trkpt>
      <trkpt lat="50.18903" lon="4.35239">
        <ele>272</ele>
        <time>2016-8-7T10:10:26.000Z</time>
      </trkpt>
      <trkpt lat="50.18903" lon="4.35239">
        <ele>272</ele>
        <time>2016-8-7T10:10:26.000Z</time>
      </trkpt>
      <trkpt lat="50.18903" lon="4.35235">
        <ele>271.5</ele>
        <time>2016-8-7T10:10:26.000Z</time>
      </trkpt>
      <trkpt lat="50.18903" lon="4.35235">
        <ele>271.5</ele>
        <time>2016-8-7T10:10:26.000Z</time>
      </trkpt>
      <trkpt lat="50.18902" lon="4.35231">
        <ele>271</ele>
        <time>2016-8-7T10:10:26.000Z</time>
      </trkpt>
      <trkpt lat="50.18902" lon="4.35231">
        <ele>271</ele>
        <time>2016-8-7T10:10:26.000Z</time>
      </trkpt>
      <trkpt lat="50.18902" lon="4.35227">
        <ele>270.5</ele>
        <time>2016-8-7T10:10:26.000Z</time>
      </trkpt>
      <trkpt lat="50.18902" lon="4.35227">
        <ele>270.5</ele>
        <time>2016-8-7T10:10:26.000Z</time>
      </trkpt>
      <trkpt lat="50.18902" lon="4.35224">
        <ele>270</ele>
        <time>2016-8-7T10:10:26.000Z</time>
      </trkpt>
      <trkpt lat="50.18902" lon="4.35224">
        <ele>270</ele>
        <time>2016-8-7T10:10:26.000Z</time>
      </trkpt>
      <trkpt lat="50.18902" lon="4.3522">
        <ele>269.5</ele>
        <time>2016-8-7T10:10:26.000Z</time>
      </trkpt>
      <trkpt lat="50.18902" lon="4.3522">
        <ele>269.5</ele>
        <time>2016-8-7T10:10:26.000Z</time>
      </trkpt>
      <trkpt lat="50.18902" lon="4.35219">
        <ele>269.5</ele>
        <time>2016-8-7T10:10:26.000Z</time>
      </trkpt>
      <trkpt lat="50.18902" lon="4.35219">
        <ele>269.5</ele>
        <time>2016-8-7T10:10:26.000Z</time>
      </trkpt>
      <trkpt lat="50.18902" lon="4.35215">
        <ele>269</ele>
        <time>2016-8-7T10:10:26.000Z</time>
      </trkpt>
      <trkpt lat="50.18902" lon="4.35215">
        <ele>269</ele>
        <time>2016-8-7T10:10:26.000Z</time>
      </trkpt>
      <trkpt lat="50.18901" lon="4.35212">
        <ele>268.5</ele>
        <time>2016-8-7T10:10:26.000Z</time>
      </trkpt>
      <trkpt lat="50.18901" lon="4.35212">
        <ele>268.5</ele>
        <time>2016-8-7T10:10:26.000Z</time>
      </trkpt>
      <trkpt lat="50.18901" lon="4.35208">
        <ele>268.5</ele>
        <time>2016-8-7T10:10:26.000Z</time>
      </trkpt>
      <trkpt lat="50.18901" lon="4.35208">
        <ele>268.5</ele>
        <time>2016-8-7T10:10:26.000Z</time>
      </trkpt>
      <trkpt lat="50.189" lon="4.35205">
        <ele>268</ele>
        <time>2016-8-7T10:10:26.000Z</time>
      </trkpt>
      <trkpt lat="50.189" lon="4.35205">
        <ele>268</ele>
        <time>2016-8-7T10:10:26.000Z</time>
      </trkpt>
      <trkpt lat="50.189" lon="4.35201">
        <ele>268</ele>
        <time>2016-8-7T10:10:26.000Z</time>
      </trkpt>
      <trkpt lat="50.189" lon="4.35201">
        <ele>268</ele>
        <time>2016-8-7T10:10:26.000Z</time>
      </trkpt>
      <trkpt lat="50.18899" lon="4.35198">
        <ele>268</ele>
        <time>2016-8-7T10:10:26.000Z</time>
      </trkpt>
      <trkpt lat="50.18899" lon="4.35198">
        <ele>268</ele>
        <time>2016-8-7T10:10:26.000Z</time>
      </trkpt>
      <trkpt lat="50.18899" lon="4.35196">
        <ele>268</ele>
        <time>2016-8-7T10:10:26.000Z</time>
      </trkpt>
      <trkpt lat="50.18899" lon="4.35196">
        <ele>268</ele>
        <time>2016-8-7T10:10:26.000Z</time>
      </trkpt>
      <trkpt lat="50.18898" lon="4.35192">
        <ele>268</ele>
        <time>2016-8-7T10:10:26.000Z</time>
      </trkpt>
      <trkpt lat="50.18898" lon="4.35192">
        <ele>268</ele>
        <time>2016-8-7T10:10:26.000Z</time>
      </trkpt>
      <trkpt lat="50.18898" lon="4.35188">
        <ele>268</ele>
        <time>2016-8-7T10:10:26.000Z</time>
      </trkpt>
      <trkpt lat="50.18898" lon="4.35188">
        <ele>268</ele>
        <time>2016-8-7T10:10:26.000Z</time>
      </trkpt>
      <trkpt lat="50.18897" lon="4.35184">
        <ele>267.5</ele>
        <time>2016-8-7T10:10:26.000Z</time>
      </trkpt>
      <trkpt lat="50.18897" lon="4.35184">
        <ele>267.5</ele>
        <time>2016-8-7T10:10:26.000Z</time>
      </trkpt>
      <trkpt lat="50.18897" lon="4.35181">
        <ele>267.5</ele>
        <time>2016-8-7T10:10:26.000Z</time>
      </trkpt>
      <trkpt lat="50.18897" lon="4.35181">
        <ele>267.5</ele>
        <time>2016-8-7T10:10:26.000Z</time>
      </trkpt>
      <trkpt lat="50.18896" lon="4.35177">
        <ele>267</ele>
        <time>2016-8-7T10:10:26.000Z</time>
      </trkpt>
      <trkpt lat="50.18896" lon="4.35177">
        <ele>267</ele>
        <time>2016-8-7T10:10:26.000Z</time>
      </trkpt>
      <trkpt lat="50.18896" lon="4.35173">
        <ele>266.5</ele>
        <time>2016-8-7T10:10:26.000Z</time>
      </trkpt>
      <trkpt lat="50.18896" lon="4.35173">
        <ele>266.5</ele>
        <time>2016-8-7T10:10:26.000Z</time>
      </trkpt>
      <trkpt lat="50.18896" lon="4.3517">
        <ele>266</ele>
        <time>2016-8-7T10:10:26.000Z</time>
      </trkpt>
      <trkpt lat="50.18896" lon="4.3517">
        <ele>266</ele>
        <time>2016-8-7T10:10:26.000Z</time>
      </trkpt>
      <trkpt lat="50.18896" lon="4.35168">
        <ele>265.5</ele>
        <time>2016-8-7T10:10:26.000Z</time>
      </trkpt>
      <trkpt lat="50.18896" lon="4.35168">
        <ele>265.5</ele>
        <time>2016-8-7T10:10:26.000Z</time>
      </trkpt>
      <trkpt lat="50.18895" lon="4.35166">
        <ele>265.5</ele>
        <time>2016-8-7T10:10:26.000Z</time>
      </trkpt>
      <trkpt lat="50.18895" lon="4.35166">
        <ele>265.5</ele>
        <time>2016-8-7T10:10:26.000Z</time>
      </trkpt>
      <trkpt lat="50.18895" lon="4.35164">
        <ele>265</ele>
        <time>2016-8-7T10:10:26.000Z</time>
      </trkpt>
      <trkpt lat="50.18895" lon="4.35164">
        <ele>265</ele>
        <time>2016-8-7T10:10:26.000Z</time>
      </trkpt>
      <trkpt lat="50.18895" lon="4.3516">
        <ele>264.5</ele>
        <time>2016-8-7T10:10:26.000Z</time>
      </trkpt>
      <trkpt lat="50.18895" lon="4.3516">
        <ele>264.5</ele>
        <time>2016-8-7T10:10:26.000Z</time>
      </trkpt>
      <trkpt lat="50.18895" lon="4.35156">
        <ele>264</ele>
        <time>2016-8-7T10:10:26.000Z</time>
      </trkpt>
      <trkpt lat="50.18895" lon="4.35156">
        <ele>264</ele>
        <time>2016-8-7T10:10:26.000Z</time>
      </trkpt>
      <trkpt lat="50.18895" lon="4.35152">
        <ele>263.5</ele>
        <time>2016-8-7T10:10:26.000Z</time>
      </trkpt>
      <trkpt lat="50.18895" lon="4.35152">
        <ele>263.5</ele>
        <time>2016-8-7T10:10:26.000Z</time>
      </trkpt>
      <trkpt lat="50.18895" lon="4.35148">
        <ele>263</ele>
        <time>2016-8-7T10:10:26.000Z</time>
      </trkpt>
      <trkpt lat="50.18895" lon="4.35148">
        <ele>263</ele>
        <time>2016-8-7T10:10:26.000Z</time>
      </trkpt>
      <trkpt lat="50.18895" lon="4.35146">
        <ele>263</ele>
        <time>2016-8-7T10:10:26.000Z</time>
      </trkpt>
      <trkpt lat="50.18895" lon="4.35146">
        <ele>263</ele>
        <time>2016-8-7T10:10:26.000Z</time>
      </trkpt>
      <trkpt lat="50.18895" lon="4.35143">
        <ele>262.5</ele>
        <time>2016-8-7T10:10:26.000Z</time>
      </trkpt>
      <trkpt lat="50.18895" lon="4.35143">
        <ele>262.5</ele>
        <time>2016-8-7T10:10:26.000Z</time>
      </trkpt>
      <trkpt lat="50.18895" lon="4.35139">
        <ele>262.5</ele>
        <time>2016-8-7T10:10:26.000Z</time>
      </trkpt>
      <trkpt lat="50.18895" lon="4.35139">
        <ele>262.5</ele>
        <time>2016-8-7T10:10:26.000Z</time>
      </trkpt>
      <trkpt lat="50.18896" lon="4.35135">
        <ele>262</ele>
        <time>2016-8-7T10:10:26.000Z</time>
      </trkpt>
      <trkpt lat="50.18896" lon="4.35135">
        <ele>262</ele>
        <time>2016-8-7T10:10:26.000Z</time>
      </trkpt>
      <trkpt lat="50.18896" lon="4.35132">
        <ele>262.5</ele>
        <time>2016-8-7T10:10:26.000Z</time>
      </trkpt>
      <trkpt lat="50.18896" lon="4.35132">
        <ele>262.5</ele>
        <time>2016-8-7T10:10:26.000Z</time>
      </trkpt>
      <trkpt lat="50.18896" lon="4.35128">
        <ele>262.5</ele>
        <time>2016-8-7T10:10:26.000Z</time>
      </trkpt>
      <trkpt lat="50.18896" lon="4.35128">
        <ele>262.5</ele>
        <time>2016-8-7T10:10:26.000Z</time>
      </trkpt>
      <trkpt lat="50.18896" lon="4.35125">
        <ele>263</ele>
        <time>2016-8-7T10:10:26.000Z</time>
      </trkpt>
      <trkpt lat="50.18896" lon="4.35125">
        <ele>263</ele>
        <time>2016-8-7T10:10:26.000Z</time>
      </trkpt>
      <trkpt lat="50.18895" lon="4.35124">
        <ele>263</ele>
        <time>2016-8-7T10:10:26.000Z</time>
      </trkpt>
      <trkpt lat="50.18895" lon="4.35124">
        <ele>263</ele>
        <time>2016-8-7T10:10:26.000Z</time>
      </trkpt>
      <trkpt lat="50.18895" lon="4.35122">
        <ele>263.5</ele>
        <time>2016-8-7T10:10:26.000Z</time>
      </trkpt>
      <trkpt lat="50.18895" lon="4.35122">
        <ele>263.5</ele>
        <time>2016-8-7T10:10:26.000Z</time>
      </trkpt>
      <trkpt lat="50.18894" lon="4.35121">
        <ele>264</ele>
        <time>2016-8-7T10:10:26.000Z</time>
      </trkpt>
      <trkpt lat="50.18894" lon="4.35121">
        <ele>264</ele>
        <time>2016-8-7T10:10:26.000Z</time>
      </trkpt>
      <trkpt lat="50.18893" lon="4.35118">
        <ele>264.5</ele>
        <time>2016-8-7T10:10:26.000Z</time>
      </trkpt>
      <trkpt lat="50.18893" lon="4.35118">
        <ele>264.5</ele>
        <time>2016-8-7T10:10:26.000Z</time>
      </trkpt>
      <trkpt lat="50.18891" lon="4.35116">
        <ele>265</ele>
        <time>2016-8-7T10:10:26.000Z</time>
      </trkpt>
      <trkpt lat="50.18891" lon="4.35116">
        <ele>265</ele>
        <time>2016-8-7T10:10:26.000Z</time>
      </trkpt>
      <trkpt lat="50.1889" lon="4.35114">
        <ele>265</ele>
        <time>2016-8-7T10:10:26.000Z</time>
      </trkpt>
      <trkpt lat="50.1889" lon="4.35114">
        <ele>265</ele>
        <time>2016-8-7T10:10:26.000Z</time>
      </trkpt>
      <trkpt lat="50.18888" lon="4.35112">
        <ele>265.5</ele>
        <time>2016-8-7T10:10:26.000Z</time>
      </trkpt>
      <trkpt lat="50.18888" lon="4.35112">
        <ele>265.5</ele>
        <time>2016-8-7T10:10:26.000Z</time>
      </trkpt>
      <trkpt lat="50.18887" lon="4.35111">
        <ele>265.5</ele>
        <time>2016-8-7T10:10:26.000Z</time>
      </trkpt>
      <trkpt lat="50.18887" lon="4.35111">
        <ele>265.5</ele>
        <time>2016-8-7T10:10:26.000Z</time>
      </trkpt>
      <trkpt lat="50.18886" lon="4.35108">
        <ele>265.5</ele>
        <time>2016-8-7T10:10:26.000Z</time>
      </trkpt>
      <trkpt lat="50.18886" lon="4.35108">
        <ele>265.5</ele>
        <time>2016-8-7T10:10:26.000Z</time>
      </trkpt>
      <trkpt lat="50.18884" lon="4.35106">
        <ele>266</ele>
        <time>2016-8-7T10:10:26.000Z</time>
      </trkpt>
      <trkpt lat="50.18884" lon="4.35106">
        <ele>266</ele>
        <time>2016-8-7T10:10:26.000Z</time>
      </trkpt>
      <trkpt lat="50.18882" lon="4.35103">
        <ele>266</ele>
        <time>2016-8-7T10:10:26.000Z</time>
      </trkpt>
      <trkpt lat="50.18882" lon="4.35103">
        <ele>266</ele>
        <time>2016-8-7T10:10:26.000Z</time>
      </trkpt>
      <trkpt lat="50.18881" lon="4.35101">
        <ele>266</ele>
        <time>2016-8-7T10:10:26.000Z</time>
      </trkpt>
      <trkpt lat="50.18881" lon="4.35101">
        <ele>266</ele>
        <time>2016-8-7T10:10:26.000Z</time>
      </trkpt>
      <trkpt lat="50.1888" lon="4.35099">
        <ele>266</ele>
        <time>2016-8-7T10:10:26.000Z</time>
      </trkpt>
      <trkpt lat="50.1888" lon="4.35099">
        <ele>266</ele>
        <time>2016-8-7T10:10:26.000Z</time>
      </trkpt>
      <trkpt lat="50.18879" lon="4.35097">
        <ele>266</ele>
        <time>2016-8-7T10:10:26.000Z</time>
      </trkpt>
      <trkpt lat="50.18879" lon="4.35097">
        <ele>266</ele>
        <time>2016-8-7T10:10:26.000Z</time>
      </trkpt>
      <trkpt lat="50.18878" lon="4.35095">
        <ele>266</ele>
        <time>2016-8-7T10:10:26.000Z</time>
      </trkpt>
      <trkpt lat="50.18878" lon="4.35095">
        <ele>266</ele>
        <time>2016-8-7T10:11:33.000Z</time>
      </trkpt>
      <trkpt lat="50.18877" lon="4.35094">
        <ele>266</ele>
        <time>2016-8-7T10:11:33.000Z</time>
      </trkpt>
      <trkpt lat="50.18877" lon="4.35094">
        <ele>266</ele>
        <time>2016-8-7T10:11:33.000Z</time>
      </trkpt>
      <trkpt lat="50.18876" lon="4.35092">
        <ele>266</ele>
        <time>2016-8-7T10:11:33.000Z</time>
      </trkpt>
      <trkpt lat="50.18876" lon="4.35092">
        <ele>266</ele>
        <time>2016-8-7T10:11:33.000Z</time>
      </trkpt>
      <trkpt lat="50.18875" lon="4.3509">
        <ele>266</ele>
        <time>2016-8-7T10:11:33.000Z</time>
      </trkpt>
      <trkpt lat="50.18875" lon="4.3509">
        <ele>266</ele>
        <time>2016-8-7T10:11:33.000Z</time>
      </trkpt>
      <trkpt lat="50.18874" lon="4.35088">
        <ele>266</ele>
        <time>2016-8-7T10:11:33.000Z</time>
      </trkpt>
      <trkpt lat="50.18874" lon="4.35088">
        <ele>266</ele>
        <time>2016-8-7T10:11:33.000Z</time>
      </trkpt>
      <trkpt lat="50.18873" lon="4.35085">
        <ele>266</ele>
        <time>2016-8-7T10:11:33.000Z</time>
      </trkpt>
      <trkpt lat="50.18873" lon="4.35085">
        <ele>266</ele>
        <time>2016-8-7T10:11:33.000Z</time>
      </trkpt>
      <trkpt lat="50.18873" lon="4.35082">
        <ele>265.5</ele>
        <time>2016-8-7T10:11:33.000Z</time>
      </trkpt>
      <trkpt lat="50.18873" lon="4.35082">
        <ele>265.5</ele>
        <time>2016-8-7T10:11:33.000Z</time>
      </trkpt>
      <trkpt lat="50.18872" lon="4.3508">
        <ele>265.5</ele>
        <time>2016-8-7T10:11:33.000Z</time>
      </trkpt>
      <trkpt lat="50.18872" lon="4.3508">
        <ele>265.5</ele>
        <time>2016-8-7T10:11:33.000Z</time>
      </trkpt>
      <trkpt lat="50.18871" lon="4.35078">
        <ele>265.5</ele>
        <time>2016-8-7T10:11:33.000Z</time>
      </trkpt>
      <trkpt lat="50.18871" lon="4.35078">
        <ele>265.5</ele>
        <time>2016-8-7T10:11:33.000Z</time>
      </trkpt>
      <trkpt lat="50.18869" lon="4.35075">
        <ele>266.5</ele>
        <time>2016-8-7T10:11:33.000Z</time>
      </trkpt>
      <trkpt lat="50.18869" lon="4.35075">
        <ele>266.5</ele>
        <time>2016-8-7T10:11:33.000Z</time>
      </trkpt>
      <trkpt lat="50.18867" lon="4.35072">
        <ele>266.5</ele>
        <time>2016-8-7T10:11:33.000Z</time>
      </trkpt>
      <trkpt lat="50.18867" lon="4.35072">
        <ele>266.5</ele>
        <time>2016-8-7T10:11:33.000Z</time>
      </trkpt>
      <trkpt lat="50.18866" lon="4.35071">
        <ele>266.5</ele>
        <time>2016-8-7T10:11:33.000Z</time>
      </trkpt>
      <trkpt lat="50.18866" lon="4.35071">
        <ele>266.5</ele>
        <time>2016-8-7T10:11:33.000Z</time>
      </trkpt>
      <trkpt lat="50.18865" lon="4.35069">
        <ele>266.5</ele>
        <time>2016-8-7T10:11:33.000Z</time>
      </trkpt>
      <trkpt lat="50.18865" lon="4.35069">
        <ele>266.5</ele>
        <time>2016-8-7T10:11:33.000Z</time>
      </trkpt>
      <trkpt lat="50.18864" lon="4.35067">
        <ele>266.5</ele>
        <time>2016-8-7T10:11:33.000Z</time>
      </trkpt>
      <trkpt lat="50.18864" lon="4.35067">
        <ele>266.5</ele>
        <time>2016-8-7T10:11:33.000Z</time>
      </trkpt>
      <trkpt lat="50.18861" lon="4.35064">
        <ele>267.5</ele>
        <time>2016-8-7T10:11:33.000Z</time>
      </trkpt>
      <trkpt lat="50.18861" lon="4.35064">
        <ele>267.5</ele>
        <time>2016-8-7T10:11:33.000Z</time>
      </trkpt>
      <trkpt lat="50.1886" lon="4.3506">
        <ele>266</ele>
        <time>2016-8-7T10:11:33.000Z</time>
      </trkpt>
      <trkpt lat="50.1886" lon="4.3506">
        <ele>266</ele>
        <time>2016-8-7T10:11:33.000Z</time>
      </trkpt>
      <trkpt lat="50.18858" lon="4.35058">
        <ele>266.5</ele>
        <time>2016-8-7T10:11:33.000Z</time>
      </trkpt>
      <trkpt lat="50.18858" lon="4.35058">
        <ele>266.5</ele>
        <time>2016-8-7T10:11:33.000Z</time>
      </trkpt>
      <trkpt lat="50.18856" lon="4.35056">
        <ele>266.5</ele>
        <time>2016-8-7T10:11:33.000Z</time>
      </trkpt>
      <trkpt lat="50.18856" lon="4.35056">
        <ele>266.5</ele>
        <time>2016-8-7T10:11:33.000Z</time>
      </trkpt>
      <trkpt lat="50.18854" lon="4.35055">
        <ele>263.5</ele>
        <time>2016-8-7T10:11:33.000Z</time>
      </trkpt>
      <trkpt lat="50.18854" lon="4.35055">
        <ele>263.5</ele>
        <time>2016-8-7T10:11:33.000Z</time>
      </trkpt>
      <trkpt lat="50.18851" lon="4.35053">
        <ele>262.5</ele>
        <time>2016-8-7T10:11:33.000Z</time>
      </trkpt>
      <trkpt lat="50.18851" lon="4.35053">
        <ele>262.5</ele>
        <time>2016-8-7T10:11:33.000Z</time>
      </trkpt>
      <trkpt lat="50.1885" lon="4.35054">
        <ele>259.5</ele>
        <time>2016-8-7T10:11:33.000Z</time>
      </trkpt>
      <trkpt lat="50.1885" lon="4.35054">
        <ele>259.5</ele>
        <time>2016-8-7T10:11:33.000Z</time>
      </trkpt>
      <trkpt lat="50.18848" lon="4.35056">
        <ele>259.5</ele>
        <time>2016-8-7T10:11:33.000Z</time>
      </trkpt>
      <trkpt lat="50.18848" lon="4.35056">
        <ele>259.5</ele>
        <time>2016-8-7T10:11:33.000Z</time>
      </trkpt>
      <trkpt lat="50.18846" lon="4.35059">
        <ele>260</ele>
        <time>2016-8-7T10:11:33.000Z</time>
      </trkpt>
      <trkpt lat="50.18846" lon="4.35059">
        <ele>260</ele>
        <time>2016-8-7T10:11:33.000Z</time>
      </trkpt>
      <trkpt lat="50.18845" lon="4.35061">
        <ele>260</ele>
        <time>2016-8-7T10:11:33.000Z</time>
      </trkpt>
      <trkpt lat="50.18845" lon="4.35061">
        <ele>260</ele>
        <time>2016-8-7T10:11:33.000Z</time>
      </trkpt>
      <trkpt lat="50.18842" lon="4.35063">
        <ele>260</ele>
        <time>2016-8-7T10:11:33.000Z</time>
      </trkpt>
      <trkpt lat="50.18842" lon="4.35063">
        <ele>260</ele>
        <time>2016-8-7T10:11:33.000Z</time>
      </trkpt>
      <trkpt lat="50.18839" lon="4.35063">
        <ele>260</ele>
        <time>2016-8-7T10:11:33.000Z</time>
      </trkpt>
      <trkpt lat="50.18839" lon="4.35063">
        <ele>260</ele>
        <time>2016-8-7T10:11:33.000Z</time>
      </trkpt>
      <trkpt lat="50.18837" lon="4.35065">
        <ele>259.5</ele>
        <time>2016-8-7T10:11:33.000Z</time>
      </trkpt>
      <trkpt lat="50.18837" lon="4.35065">
        <ele>259.5</ele>
        <time>2016-8-7T10:11:33.000Z</time>
      </trkpt>
      <trkpt lat="50.18835" lon="4.35067">
        <ele>260</ele>
        <time>2016-8-7T10:11:33.000Z</time>
      </trkpt>
      <trkpt lat="50.18835" lon="4.35067">
        <ele>260</ele>
        <time>2016-8-7T10:11:33.000Z</time>
      </trkpt>
      <trkpt lat="50.18833" lon="4.35066">
        <ele>260</ele>
        <time>2016-8-7T10:11:33.000Z</time>
      </trkpt>
      <trkpt lat="50.18833" lon="4.35066">
        <ele>260</ele>
        <time>2016-8-7T10:11:33.000Z</time>
      </trkpt>
      <trkpt lat="50.18831" lon="4.35062">
        <ele>259</ele>
        <time>2016-8-7T10:11:33.000Z</time>
      </trkpt>
      <trkpt lat="50.18831" lon="4.35062">
        <ele>259</ele>
        <time>2016-8-7T10:11:33.000Z</time>
      </trkpt>
      <trkpt lat="50.1883" lon="4.35061">
        <ele>260</ele>
        <time>2016-8-7T10:11:33.000Z</time>
      </trkpt>
      <trkpt lat="50.1883" lon="4.35061">
        <ele>260</ele>
        <time>2016-8-7T10:11:33.000Z</time>
      </trkpt>
      <trkpt lat="50.18827" lon="4.35058">
        <ele>260.5</ele>
        <time>2016-8-7T10:11:33.000Z</time>
      </trkpt>
      <trkpt lat="50.18827" lon="4.35058">
        <ele>260.5</ele>
        <time>2016-8-7T10:11:33.000Z</time>
      </trkpt>
      <trkpt lat="50.18826" lon="4.35056">
        <ele>261.5</ele>
        <time>2016-8-7T10:11:33.000Z</time>
      </trkpt>
      <trkpt lat="50.18826" lon="4.35056">
        <ele>261.5</ele>
        <time>2016-8-7T10:11:33.000Z</time>
      </trkpt>
      <trkpt lat="50.18825" lon="4.35055">
        <ele>262.5</ele>
        <time>2016-8-7T10:11:33.000Z</time>
      </trkpt>
      <trkpt lat="50.18825" lon="4.35055">
        <ele>262.5</ele>
        <time>2016-8-7T10:11:33.000Z</time>
      </trkpt>
      <trkpt lat="50.18824" lon="4.35053">
        <ele>262.5</ele>
        <time>2016-8-7T10:11:33.000Z</time>
      </trkpt>
      <trkpt lat="50.18824" lon="4.35053">
        <ele>262.5</ele>
        <time>2016-8-7T10:11:33.000Z</time>
      </trkpt>
      <trkpt lat="50.18822" lon="4.3505">
        <ele>261</ele>
        <time>2016-8-7T10:11:33.000Z</time>
      </trkpt>
      <trkpt lat="50.18822" lon="4.3505">
        <ele>261</ele>
        <time>2016-8-7T10:11:33.000Z</time>
      </trkpt>
      <trkpt lat="50.18821" lon="4.35048">
        <ele>261</ele>
        <time>2016-8-7T10:11:33.000Z</time>
      </trkpt>
      <trkpt lat="50.18821" lon="4.35048">
        <ele>261</ele>
        <time>2016-8-7T10:11:33.000Z</time>
      </trkpt>
      <trkpt lat="50.18819" lon="4.35045">
        <ele>261.5</ele>
        <time>2016-8-7T10:11:33.000Z</time>
      </trkpt>
      <trkpt lat="50.18819" lon="4.35045">
        <ele>261.5</ele>
        <time>2016-8-7T10:11:33.000Z</time>
      </trkpt>
      <trkpt lat="50.18818" lon="4.35042">
        <ele>262</ele>
        <time>2016-8-7T10:11:33.000Z</time>
      </trkpt>
      <trkpt lat="50.18818" lon="4.35042">
        <ele>262</ele>
        <time>2016-8-7T10:11:33.000Z</time>
      </trkpt>
      <trkpt lat="50.18818" lon="4.3504">
        <ele>262.5</ele>
        <time>2016-8-7T10:11:33.000Z</time>
      </trkpt>
      <trkpt lat="50.18818" lon="4.3504">
        <ele>262.5</ele>
        <time>2016-8-7T10:11:33.000Z</time>
      </trkpt>
      <trkpt lat="50.18817" lon="4.35037">
        <ele>262.5</ele>
        <time>2016-8-7T10:11:33.000Z</time>
      </trkpt>
      <trkpt lat="50.18817" lon="4.35037">
        <ele>262.5</ele>
        <time>2016-8-7T10:11:33.000Z</time>
      </trkpt>
      <trkpt lat="50.18816" lon="4.35036">
        <ele>262.5</ele>
        <time>2016-8-7T10:11:33.000Z</time>
      </trkpt>
      <trkpt lat="50.18816" lon="4.35036">
        <ele>262.5</ele>
        <time>2016-8-7T10:11:33.000Z</time>
      </trkpt>
      <trkpt lat="50.18815" lon="4.35033">
        <ele>263</ele>
        <time>2016-8-7T10:11:33.000Z</time>
      </trkpt>
      <trkpt lat="50.18815" lon="4.35033">
        <ele>263</ele>
        <time>2016-8-7T10:11:33.000Z</time>
      </trkpt>
      <trkpt lat="50.18815" lon="4.35032">
        <ele>263</ele>
        <time>2016-8-7T10:11:33.000Z</time>
      </trkpt>
      <trkpt lat="50.18815" lon="4.35032">
        <ele>263</ele>
        <time>2016-8-7T10:11:33.000Z</time>
      </trkpt>
      <trkpt lat="50.18814" lon="4.35029">
        <ele>263</ele>
        <time>2016-8-7T10:11:33.000Z</time>
      </trkpt>
      <trkpt lat="50.18814" lon="4.35029">
        <ele>263</ele>
        <time>2016-8-7T10:11:33.000Z</time>
      </trkpt>
      <trkpt lat="50.18813" lon="4.35025">
        <ele>263</ele>
        <time>2016-8-7T10:11:33.000Z</time>
      </trkpt>
      <trkpt lat="50.18813" lon="4.35025">
        <ele>263</ele>
        <time>2016-8-7T10:11:33.000Z</time>
      </trkpt>
      <trkpt lat="50.18812" lon="4.35021">
        <ele>262.5</ele>
        <time>2016-8-7T10:11:33.000Z</time>
      </trkpt>
      <trkpt lat="50.18812" lon="4.35021">
        <ele>262.5</ele>
        <time>2016-8-7T10:11:33.000Z</time>
      </trkpt>
      <trkpt lat="50.18812" lon="4.35019">
        <ele>262.5</ele>
        <time>2016-8-7T10:11:33.000Z</time>
      </trkpt>
      <trkpt lat="50.18812" lon="4.35019">
        <ele>262.5</ele>
        <time>2016-8-7T10:11:33.000Z</time>
      </trkpt>
      <trkpt lat="50.18812" lon="4.35016">
        <ele>262.5</ele>
        <time>2016-8-7T10:11:33.000Z</time>
      </trkpt>
      <trkpt lat="50.18812" lon="4.35016">
        <ele>262.5</ele>
        <time>2016-8-7T10:11:33.000Z</time>
      </trkpt>
      <trkpt lat="50.18811" lon="4.35012">
        <ele>262</ele>
        <time>2016-8-7T10:11:33.000Z</time>
      </trkpt>
      <trkpt lat="50.18811" lon="4.35012">
        <ele>262</ele>
        <time>2016-8-7T10:11:33.000Z</time>
      </trkpt>
      <trkpt lat="50.1881" lon="4.35009">
        <ele>261.5</ele>
        <time>2016-8-7T10:11:33.000Z</time>
      </trkpt>
      <trkpt lat="50.1881" lon="4.35009">
        <ele>261.5</ele>
        <time>2016-8-7T10:11:33.000Z</time>
      </trkpt>
      <trkpt lat="50.1881" lon="4.35006">
        <ele>261.5</ele>
        <time>2016-8-7T10:12:39.000Z</time>
      </trkpt>
      <trkpt lat="50.1881" lon="4.35006">
        <ele>261.5</ele>
        <time>2016-8-7T10:12:39.000Z</time>
      </trkpt>
      <trkpt lat="50.18809" lon="4.35004">
        <ele>261</ele>
        <time>2016-8-7T10:12:39.000Z</time>
      </trkpt>
      <trkpt lat="50.18809" lon="4.35004">
        <ele>261</ele>
        <time>2016-8-7T10:12:39.000Z</time>
      </trkpt>
      <trkpt lat="50.18809" lon="4.35002">
        <ele>261</ele>
        <time>2016-8-7T10:12:39.000Z</time>
      </trkpt>
      <trkpt lat="50.18809" lon="4.35002">
        <ele>261</ele>
        <time>2016-8-7T10:12:39.000Z</time>
      </trkpt>
      <trkpt lat="50.18808" lon="4.35">
        <ele>261</ele>
        <time>2016-8-7T10:12:39.000Z</time>
      </trkpt>
      <trkpt lat="50.18808" lon="4.35">
        <ele>261</ele>
        <time>2016-8-7T10:12:39.000Z</time>
      </trkpt>
      <trkpt lat="50.18808" lon="4.34998">
        <ele>261</ele>
        <time>2016-8-7T10:12:39.000Z</time>
      </trkpt>
      <trkpt lat="50.18808" lon="4.34998">
        <ele>261</ele>
        <time>2016-8-7T10:12:39.000Z</time>
      </trkpt>
      <trkpt lat="50.18807" lon="4.34994">
        <ele>261</ele>
        <time>2016-8-7T10:12:39.000Z</time>
      </trkpt>
      <trkpt lat="50.18807" lon="4.34994">
        <ele>261</ele>
        <time>2016-8-7T10:12:39.000Z</time>
      </trkpt>
      <trkpt lat="50.18806" lon="4.34989">
        <ele>261</ele>
        <time>2016-8-7T10:12:39.000Z</time>
      </trkpt>
      <trkpt lat="50.18806" lon="4.34989">
        <ele>261</ele>
        <time>2016-8-7T10:12:39.000Z</time>
      </trkpt>
      <trkpt lat="50.18806" lon="4.34987">
        <ele>261</ele>
        <time>2016-8-7T10:12:39.000Z</time>
      </trkpt>
      <trkpt lat="50.18806" lon="4.34987">
        <ele>261</ele>
        <time>2016-8-7T10:12:39.000Z</time>
      </trkpt>
      <trkpt lat="50.18804" lon="4.34983">
        <ele>261.5</ele>
        <time>2016-8-7T10:12:39.000Z</time>
      </trkpt>
      <trkpt lat="50.18804" lon="4.34983">
        <ele>261.5</ele>
        <time>2016-8-7T10:12:39.000Z</time>
      </trkpt>
      <trkpt lat="50.18803" lon="4.34979">
        <ele>261.5</ele>
        <time>2016-8-7T10:12:39.000Z</time>
      </trkpt>
      <trkpt lat="50.18803" lon="4.34979">
        <ele>261.5</ele>
        <time>2016-8-7T10:12:39.000Z</time>
      </trkpt>
      <trkpt lat="50.18802" lon="4.34976">
        <ele>261.5</ele>
        <time>2016-8-7T10:12:39.000Z</time>
      </trkpt>
      <trkpt lat="50.18802" lon="4.34976">
        <ele>261.5</ele>
        <time>2016-8-7T10:12:39.000Z</time>
      </trkpt>
      <trkpt lat="50.18801" lon="4.34972">
        <ele>261.5</ele>
        <time>2016-8-7T10:12:39.000Z</time>
      </trkpt>
      <trkpt lat="50.18801" lon="4.34972">
        <ele>261.5</ele>
        <time>2016-8-7T10:12:39.000Z</time>
      </trkpt>
      <trkpt lat="50.18801" lon="4.34971">
        <ele>261.5</ele>
        <time>2016-8-7T10:12:39.000Z</time>
      </trkpt>
      <trkpt lat="50.18801" lon="4.34971">
        <ele>261.5</ele>
        <time>2016-8-7T10:12:39.000Z</time>
      </trkpt>
      <trkpt lat="50.188" lon="4.34969">
        <ele>262</ele>
        <time>2016-8-7T10:12:39.000Z</time>
      </trkpt>
      <trkpt lat="50.188" lon="4.34969">
        <ele>262</ele>
        <time>2016-8-7T10:12:39.000Z</time>
      </trkpt>
      <trkpt lat="50.18798" lon="4.34966">
        <ele>262</ele>
        <time>2016-8-7T10:12:39.000Z</time>
      </trkpt>
      <trkpt lat="50.18798" lon="4.34966">
        <ele>262</ele>
        <time>2016-8-7T10:12:39.000Z</time>
      </trkpt>
      <trkpt lat="50.18797" lon="4.34964">
        <ele>262</ele>
        <time>2016-8-7T10:12:39.000Z</time>
      </trkpt>
      <trkpt lat="50.18797" lon="4.34964">
        <ele>262</ele>
        <time>2016-8-7T10:12:39.000Z</time>
      </trkpt>
      <trkpt lat="50.18796" lon="4.34962">
        <ele>262.5</ele>
        <time>2016-8-7T10:12:39.000Z</time>
      </trkpt>
      <trkpt lat="50.18796" lon="4.34962">
        <ele>262.5</ele>
        <time>2016-8-7T10:12:39.000Z</time>
      </trkpt>
      <trkpt lat="50.18794" lon="4.34959">
        <ele>262.5</ele>
        <time>2016-8-7T10:12:39.000Z</time>
      </trkpt>
      <trkpt lat="50.18794" lon="4.34959">
        <ele>262.5</ele>
        <time>2016-8-7T10:12:39.000Z</time>
      </trkpt>
      <trkpt lat="50.18793" lon="4.34957">
        <ele>262.5</ele>
        <time>2016-8-7T10:12:39.000Z</time>
      </trkpt>
      <trkpt lat="50.18793" lon="4.34957">
        <ele>262.5</ele>
        <time>2016-8-7T10:12:39.000Z</time>
      </trkpt>
      <trkpt lat="50.18792" lon="4.34956">
        <ele>262.5</ele>
        <time>2016-8-7T10:12:39.000Z</time>
      </trkpt>
      <trkpt lat="50.18792" lon="4.34956">
        <ele>262.5</ele>
        <time>2016-8-7T10:12:39.000Z</time>
      </trkpt>
      <trkpt lat="50.18791" lon="4.34954">
        <ele>262.5</ele>
        <time>2016-8-7T10:12:39.000Z</time>
      </trkpt>
      <trkpt lat="50.18791" lon="4.34954">
        <ele>262.5</ele>
        <time>2016-8-7T10:12:39.000Z</time>
      </trkpt>
      <trkpt lat="50.1879" lon="4.34952">
        <ele>262.5</ele>
        <time>2016-8-7T10:12:39.000Z</time>
      </trkpt>
      <trkpt lat="50.1879" lon="4.34952">
        <ele>262.5</ele>
        <time>2016-8-7T10:12:39.000Z</time>
      </trkpt>
      <trkpt lat="50.18789" lon="4.3495">
        <ele>262.5</ele>
        <time>2016-8-7T10:12:39.000Z</time>
      </trkpt>
      <trkpt lat="50.18789" lon="4.3495">
        <ele>262.5</ele>
        <time>2016-8-7T10:12:39.000Z</time>
      </trkpt>
      <trkpt lat="50.18788" lon="4.34948">
        <ele>263</ele>
        <time>2016-8-7T10:12:39.000Z</time>
      </trkpt>
      <trkpt lat="50.18788" lon="4.34948">
        <ele>263</ele>
        <time>2016-8-7T10:12:39.000Z</time>
      </trkpt>
      <trkpt lat="50.18787" lon="4.34945">
        <ele>263</ele>
        <time>2016-8-7T10:12:39.000Z</time>
      </trkpt>
      <trkpt lat="50.18787" lon="4.34945">
        <ele>263</ele>
        <time>2016-8-7T10:12:39.000Z</time>
      </trkpt>
      <trkpt lat="50.18786" lon="4.34942">
        <ele>263</ele>
        <time>2016-8-7T10:12:39.000Z</time>
      </trkpt>
      <trkpt lat="50.18786" lon="4.34942">
        <ele>263</ele>
        <time>2016-8-7T10:12:39.000Z</time>
      </trkpt>
      <trkpt lat="50.18786" lon="4.3494">
        <ele>263</ele>
        <time>2016-8-7T10:12:39.000Z</time>
      </trkpt>
      <trkpt lat="50.18786" lon="4.3494">
        <ele>263</ele>
        <time>2016-8-7T10:12:39.000Z</time>
      </trkpt>
      <trkpt lat="50.18785" lon="4.34937">
        <ele>263</ele>
        <time>2016-8-7T10:12:39.000Z</time>
      </trkpt>
      <trkpt lat="50.18785" lon="4.34937">
        <ele>263</ele>
        <time>2016-8-7T10:12:39.000Z</time>
      </trkpt>
      <trkpt lat="50.18786" lon="4.34934">
        <ele>262.5</ele>
        <time>2016-8-7T10:12:39.000Z</time>
      </trkpt>
      <trkpt lat="50.18786" lon="4.34934">
        <ele>262.5</ele>
        <time>2016-8-7T10:12:39.000Z</time>
      </trkpt>
      <trkpt lat="50.18788" lon="4.34933">
        <ele>257.5</ele>
        <time>2016-8-7T10:12:39.000Z</time>
      </trkpt>
      <trkpt lat="50.18788" lon="4.34933">
        <ele>257.5</ele>
        <time>2016-8-7T10:12:39.000Z</time>
      </trkpt>
      <trkpt lat="50.18788" lon="4.34931">
        <ele>256.5</ele>
        <time>2016-8-7T10:12:39.000Z</time>
      </trkpt>
      <trkpt lat="50.18788" lon="4.34931">
        <ele>256.5</ele>
        <time>2016-8-7T10:12:39.000Z</time>
      </trkpt>
      <trkpt lat="50.18788" lon="4.34927">
        <ele>257.5</ele>
        <time>2016-8-7T10:12:39.000Z</time>
      </trkpt>
      <trkpt lat="50.18788" lon="4.34927">
        <ele>257.5</ele>
        <time>2016-8-7T10:12:39.000Z</time>
      </trkpt>
      <trkpt lat="50.18789" lon="4.34924">
        <ele>258.5</ele>
        <time>2016-8-7T10:12:39.000Z</time>
      </trkpt>
      <trkpt lat="50.18789" lon="4.34924">
        <ele>258.5</ele>
        <time>2016-8-7T10:12:39.000Z</time>
      </trkpt>
      <trkpt lat="50.18791" lon="4.34922">
        <ele>257.5</ele>
        <time>2016-8-7T10:12:39.000Z</time>
      </trkpt>
      <trkpt lat="50.18791" lon="4.34922">
        <ele>257.5</ele>
        <time>2016-8-7T10:12:39.000Z</time>
      </trkpt>
      <trkpt lat="50.18793" lon="4.3492">
        <ele>257.5</ele>
        <time>2016-8-7T10:12:39.000Z</time>
      </trkpt>
      <trkpt lat="50.18793" lon="4.3492">
        <ele>257.5</ele>
        <time>2016-8-7T10:12:39.000Z</time>
      </trkpt>
      <trkpt lat="50.18794" lon="4.34918">
        <ele>257.5</ele>
        <time>2016-8-7T10:12:39.000Z</time>
      </trkpt>
      <trkpt lat="50.18794" lon="4.34918">
        <ele>257.5</ele>
        <time>2016-8-7T10:12:39.000Z</time>
      </trkpt>
      <trkpt lat="50.18796" lon="4.34917">
        <ele>258.5</ele>
        <time>2016-8-7T10:12:39.000Z</time>
      </trkpt>
      <trkpt lat="50.18796" lon="4.34917">
        <ele>258.5</ele>
        <time>2016-8-7T10:12:39.000Z</time>
      </trkpt>
      <trkpt lat="50.18797" lon="4.34915">
        <ele>260.5</ele>
        <time>2016-8-7T10:12:39.000Z</time>
      </trkpt>
      <trkpt lat="50.18797" lon="4.34915">
        <ele>260.5</ele>
        <time>2016-8-7T10:12:39.000Z</time>
      </trkpt>
      <trkpt lat="50.18799" lon="4.34913">
        <ele>260.5</ele>
        <time>2016-8-7T10:12:39.000Z</time>
      </trkpt>
      <trkpt lat="50.18799" lon="4.34913">
        <ele>260.5</ele>
        <time>2016-8-7T10:12:39.000Z</time>
      </trkpt>
      <trkpt lat="50.188" lon="4.34911">
        <ele>261.5</ele>
        <time>2016-8-7T10:12:39.000Z</time>
      </trkpt>
      <trkpt lat="50.188" lon="4.34911">
        <ele>261.5</ele>
        <time>2016-8-7T10:12:39.000Z</time>
      </trkpt>
      <trkpt lat="50.18802" lon="4.34912">
        <ele>260.5</ele>
        <time>2016-8-7T10:12:39.000Z</time>
      </trkpt>
      <trkpt lat="50.18802" lon="4.34912">
        <ele>260.5</ele>
        <time>2016-8-7T10:12:39.000Z</time>
      </trkpt>
      <trkpt lat="50.18803" lon="4.34911">
        <ele>261</ele>
        <time>2016-8-7T10:12:39.000Z</time>
      </trkpt>
      <trkpt lat="50.18803" lon="4.34911">
        <ele>261</ele>
        <time>2016-8-7T10:12:39.000Z</time>
      </trkpt>
      <trkpt lat="50.18804" lon="4.3491">
        <ele>261</ele>
        <time>2016-8-7T10:12:39.000Z</time>
      </trkpt>
      <trkpt lat="50.18804" lon="4.3491">
        <ele>261</ele>
        <time>2016-8-7T10:12:39.000Z</time>
      </trkpt>
      <trkpt lat="50.18806" lon="4.34908">
        <ele>261</ele>
        <time>2016-8-7T10:12:39.000Z</time>
      </trkpt>
      <trkpt lat="50.18806" lon="4.34908">
        <ele>261</ele>
        <time>2016-8-7T10:12:39.000Z</time>
      </trkpt>
      <trkpt lat="50.18808" lon="4.34899">
        <ele>261.5</ele>
        <time>2016-8-7T10:12:39.000Z</time>
      </trkpt>
      <trkpt lat="50.18808" lon="4.34899">
        <ele>261.5</ele>
        <time>2016-8-7T10:12:39.000Z</time>
      </trkpt>
      <trkpt lat="50.18809" lon="4.34897">
        <ele>262.5</ele>
        <time>2016-8-7T10:12:39.000Z</time>
      </trkpt>
      <trkpt lat="50.18809" lon="4.34897">
        <ele>262.5</ele>
        <time>2016-8-7T10:12:39.000Z</time>
      </trkpt>
      <trkpt lat="50.18811" lon="4.34896">
        <ele>262.5</ele>
        <time>2016-8-7T10:12:39.000Z</time>
      </trkpt>
      <trkpt lat="50.18811" lon="4.34896">
        <ele>262.5</ele>
        <time>2016-8-7T10:12:39.000Z</time>
      </trkpt>
      <trkpt lat="50.18813" lon="4.34894">
        <ele>262.5</ele>
        <time>2016-8-7T10:12:39.000Z</time>
      </trkpt>
      <trkpt lat="50.18813" lon="4.34894">
        <ele>262.5</ele>
        <time>2016-8-7T10:12:39.000Z</time>
      </trkpt>
      <trkpt lat="50.18813" lon="4.34891">
        <ele>263</ele>
        <time>2016-8-7T10:12:39.000Z</time>
      </trkpt>
      <trkpt lat="50.18813" lon="4.34891">
        <ele>263</ele>
        <time>2016-8-7T10:12:39.000Z</time>
      </trkpt>
      <trkpt lat="50.18815" lon="4.34889">
        <ele>263.5</ele>
        <time>2016-8-7T10:12:39.000Z</time>
      </trkpt>
      <trkpt lat="50.18815" lon="4.34889">
        <ele>263.5</ele>
        <time>2016-8-7T10:12:39.000Z</time>
      </trkpt>
      <trkpt lat="50.18819" lon="4.34888">
        <ele>263.5</ele>
        <time>2016-8-7T10:12:39.000Z</time>
      </trkpt>
      <trkpt lat="50.18819" lon="4.34888">
        <ele>263.5</ele>
        <time>2016-8-7T10:13:52.000Z</time>
      </trkpt>
      <trkpt lat="50.18819" lon="4.34885">
        <ele>264</ele>
        <time>2016-8-7T10:13:52.000Z</time>
      </trkpt>
      <trkpt lat="50.18819" lon="4.34885">
        <ele>264</ele>
        <time>2016-8-7T10:13:52.000Z</time>
      </trkpt>
      <trkpt lat="50.18822" lon="4.34884">
        <ele>264.5</ele>
        <time>2016-8-7T10:13:52.000Z</time>
      </trkpt>
      <trkpt lat="50.18822" lon="4.34884">
        <ele>264.5</ele>
        <time>2016-8-7T10:13:52.000Z</time>
      </trkpt>
      <trkpt lat="50.18824" lon="4.34881">
        <ele>264.5</ele>
        <time>2016-8-7T10:13:52.000Z</time>
      </trkpt>
      <trkpt lat="50.18824" lon="4.34881">
        <ele>264.5</ele>
        <time>2016-8-7T10:13:52.000Z</time>
      </trkpt>
      <trkpt lat="50.18826" lon="4.34879">
        <ele>264.5</ele>
        <time>2016-8-7T10:13:52.000Z</time>
      </trkpt>
      <trkpt lat="50.18826" lon="4.34879">
        <ele>264.5</ele>
        <time>2016-8-7T10:13:52.000Z</time>
      </trkpt>
      <trkpt lat="50.18828" lon="4.34877">
        <ele>264.5</ele>
        <time>2016-8-7T10:13:52.000Z</time>
      </trkpt>
      <trkpt lat="50.18828" lon="4.34877">
        <ele>264.5</ele>
        <time>2016-8-7T10:13:52.000Z</time>
      </trkpt>
      <trkpt lat="50.18829" lon="4.34875">
        <ele>263.5</ele>
        <time>2016-8-7T10:13:52.000Z</time>
      </trkpt>
      <trkpt lat="50.18829" lon="4.34875">
        <ele>263.5</ele>
        <time>2016-8-7T10:13:52.000Z</time>
      </trkpt>
      <trkpt lat="50.1883" lon="4.34873">
        <ele>262.5</ele>
        <time>2016-8-7T10:13:52.000Z</time>
      </trkpt>
      <trkpt lat="50.1883" lon="4.34873">
        <ele>262.5</ele>
        <time>2016-8-7T10:13:52.000Z</time>
      </trkpt>
      <trkpt lat="50.18832" lon="4.34872">
        <ele>263.5</ele>
        <time>2016-8-7T10:13:52.000Z</time>
      </trkpt>
      <trkpt lat="50.18832" lon="4.34872">
        <ele>263.5</ele>
        <time>2016-8-7T10:13:52.000Z</time>
      </trkpt>
      <trkpt lat="50.18834" lon="4.3487">
        <ele>263.5</ele>
        <time>2016-8-7T10:13:52.000Z</time>
      </trkpt>
      <trkpt lat="50.18834" lon="4.3487">
        <ele>263.5</ele>
        <time>2016-8-7T10:13:52.000Z</time>
      </trkpt>
      <trkpt lat="50.18836" lon="4.34868">
        <ele>263.5</ele>
        <time>2016-8-7T10:13:52.000Z</time>
      </trkpt>
      <trkpt lat="50.18836" lon="4.34868">
        <ele>263.5</ele>
        <time>2016-8-7T10:13:52.000Z</time>
      </trkpt>
      <trkpt lat="50.18838" lon="4.34866">
        <ele>263.5</ele>
        <time>2016-8-7T10:13:52.000Z</time>
      </trkpt>
      <trkpt lat="50.18838" lon="4.34866">
        <ele>263.5</ele>
        <time>2016-8-7T10:13:52.000Z</time>
      </trkpt>
      <trkpt lat="50.1884" lon="4.34865">
        <ele>263.5</ele>
        <time>2016-8-7T10:13:52.000Z</time>
      </trkpt>
      <trkpt lat="50.1884" lon="4.34865">
        <ele>263.5</ele>
        <time>2016-8-7T10:13:52.000Z</time>
      </trkpt>
      <trkpt lat="50.18841" lon="4.34863">
        <ele>263.5</ele>
        <time>2016-8-7T10:13:52.000Z</time>
      </trkpt>
      <trkpt lat="50.18841" lon="4.34863">
        <ele>263.5</ele>
        <time>2016-8-7T10:13:52.000Z</time>
      </trkpt>
      <trkpt lat="50.18843" lon="4.34861">
        <ele>263.5</ele>
        <time>2016-8-7T10:13:52.000Z</time>
      </trkpt>
      <trkpt lat="50.18843" lon="4.34861">
        <ele>263.5</ele>
        <time>2016-8-7T10:13:52.000Z</time>
      </trkpt>
      <trkpt lat="50.18844" lon="4.34859">
        <ele>264.5</ele>
        <time>2016-8-7T10:13:52.000Z</time>
      </trkpt>
      <trkpt lat="50.18844" lon="4.34859">
        <ele>264.5</ele>
        <time>2016-8-7T10:13:52.000Z</time>
      </trkpt>
      <trkpt lat="50.18846" lon="4.34857">
        <ele>264.5</ele>
        <time>2016-8-7T10:13:52.000Z</time>
      </trkpt>
      <trkpt lat="50.18846" lon="4.34857">
        <ele>264.5</ele>
        <time>2016-8-7T10:13:52.000Z</time>
      </trkpt>
      <trkpt lat="50.18848" lon="4.34855">
        <ele>264.5</ele>
        <time>2016-8-7T10:13:52.000Z</time>
      </trkpt>
      <trkpt lat="50.18848" lon="4.34855">
        <ele>264.5</ele>
        <time>2016-8-7T10:13:52.000Z</time>
      </trkpt>
      <trkpt lat="50.1885" lon="4.34853">
        <ele>264.5</ele>
        <time>2016-8-7T10:13:52.000Z</time>
      </trkpt>
      <trkpt lat="50.1885" lon="4.34853">
        <ele>264.5</ele>
        <time>2016-8-7T10:13:52.000Z</time>
      </trkpt>
      <trkpt lat="50.18851" lon="4.34852">
        <ele>264.5</ele>
        <time>2016-8-7T10:13:52.000Z</time>
      </trkpt>
      <trkpt lat="50.18851" lon="4.34852">
        <ele>264.5</ele>
        <time>2016-8-7T10:13:52.000Z</time>
      </trkpt>
      <trkpt lat="50.18853" lon="4.3485">
        <ele>264.5</ele>
        <time>2016-8-7T10:13:52.000Z</time>
      </trkpt>
      <trkpt lat="50.18853" lon="4.3485">
        <ele>264.5</ele>
        <time>2016-8-7T10:13:52.000Z</time>
      </trkpt>
      <trkpt lat="50.18855" lon="4.34848">
        <ele>264.5</ele>
        <time>2016-8-7T10:13:52.000Z</time>
      </trkpt>
      <trkpt lat="50.18855" lon="4.34848">
        <ele>264.5</ele>
        <time>2016-8-7T10:13:52.000Z</time>
      </trkpt>
      <trkpt lat="50.18857" lon="4.34846">
        <ele>264.5</ele>
        <time>2016-8-7T10:13:52.000Z</time>
      </trkpt>
      <trkpt lat="50.18857" lon="4.34846">
        <ele>264.5</ele>
        <time>2016-8-7T10:13:52.000Z</time>
      </trkpt>
      <trkpt lat="50.18854" lon="4.34848">
        <ele>264.5</ele>
        <time>2016-8-7T10:13:52.000Z</time>
      </trkpt>
      <trkpt lat="50.18854" lon="4.34848">
        <ele>264.5</ele>
        <time>2016-8-7T10:13:52.000Z</time>
      </trkpt>
      <trkpt lat="50.18855" lon="4.34845">
        <ele>265</ele>
        <time>2016-8-7T10:13:52.000Z</time>
      </trkpt>
      <trkpt lat="50.18855" lon="4.34845">
        <ele>265</ele>
        <time>2016-8-7T10:13:52.000Z</time>
      </trkpt>
      <trkpt lat="50.18857" lon="4.34843">
        <ele>265</ele>
        <time>2016-8-7T10:13:52.000Z</time>
      </trkpt>
      <trkpt lat="50.18857" lon="4.34843">
        <ele>265</ele>
        <time>2016-8-7T10:13:52.000Z</time>
      </trkpt>
      <trkpt lat="50.18859" lon="4.34841">
        <ele>265</ele>
        <time>2016-8-7T10:13:52.000Z</time>
      </trkpt>
      <trkpt lat="50.18859" lon="4.34841">
        <ele>265</ele>
        <time>2016-8-7T10:13:52.000Z</time>
      </trkpt>
      <trkpt lat="50.18861" lon="4.34838">
        <ele>265</ele>
        <time>2016-8-7T10:13:52.000Z</time>
      </trkpt>
      <trkpt lat="50.18861" lon="4.34838">
        <ele>265</ele>
        <time>2016-8-7T10:13:52.000Z</time>
      </trkpt>
      <trkpt lat="50.18862" lon="4.34836">
        <ele>265</ele>
        <time>2016-8-7T10:13:52.000Z</time>
      </trkpt>
      <trkpt lat="50.18862" lon="4.34836">
        <ele>265</ele>
        <time>2016-8-7T10:13:52.000Z</time>
      </trkpt>
      <trkpt lat="50.18864" lon="4.34835">
        <ele>265.5</ele>
        <time>2016-8-7T10:13:52.000Z</time>
      </trkpt>
      <trkpt lat="50.18864" lon="4.34835">
        <ele>265.5</ele>
        <time>2016-8-7T10:13:52.000Z</time>
      </trkpt>
      <trkpt lat="50.18866" lon="4.34832">
        <ele>265.5</ele>
        <time>2016-8-7T10:13:52.000Z</time>
      </trkpt>
      <trkpt lat="50.18866" lon="4.34832">
        <ele>265.5</ele>
        <time>2016-8-7T10:13:52.000Z</time>
      </trkpt>
      <trkpt lat="50.18866" lon="4.34831">
        <ele>265.5</ele>
        <time>2016-8-7T10:13:52.000Z</time>
      </trkpt>
      <trkpt lat="50.18866" lon="4.34831">
        <ele>265.5</ele>
        <time>2016-8-7T10:13:52.000Z</time>
      </trkpt>
      <trkpt lat="50.18868" lon="4.34828">
        <ele>265.5</ele>
        <time>2016-8-7T10:13:52.000Z</time>
      </trkpt>
      <trkpt lat="50.18868" lon="4.34828">
        <ele>265.5</ele>
        <time>2016-8-7T10:13:52.000Z</time>
      </trkpt>
      <trkpt lat="50.1887" lon="4.34826">
        <ele>266</ele>
        <time>2016-8-7T10:13:52.000Z</time>
      </trkpt>
      <trkpt lat="50.1887" lon="4.34826">
        <ele>266</ele>
        <time>2016-8-7T10:13:52.000Z</time>
      </trkpt>
      <trkpt lat="50.18871" lon="4.34825">
        <ele>266</ele>
        <time>2016-8-7T10:13:52.000Z</time>
      </trkpt>
      <trkpt lat="50.18871" lon="4.34825">
        <ele>266</ele>
        <time>2016-8-7T10:13:52.000Z</time>
      </trkpt>
      <trkpt lat="50.18872" lon="4.34824">
        <ele>266</ele>
        <time>2016-8-7T10:13:52.000Z</time>
      </trkpt>
      <trkpt lat="50.18872" lon="4.34824">
        <ele>266</ele>
        <time>2016-8-7T10:13:52.000Z</time>
      </trkpt>
      <trkpt lat="50.18874" lon="4.34823">
        <ele>266</ele>
        <time>2016-8-7T10:13:52.000Z</time>
      </trkpt>
      <trkpt lat="50.18874" lon="4.34823">
        <ele>266</ele>
        <time>2016-8-7T10:13:52.000Z</time>
      </trkpt>
      <trkpt lat="50.18876" lon="4.3482">
        <ele>266</ele>
        <time>2016-8-7T10:13:52.000Z</time>
      </trkpt>
      <trkpt lat="50.18876" lon="4.3482">
        <ele>266</ele>
        <time>2016-8-7T10:13:52.000Z</time>
      </trkpt>
      <trkpt lat="50.18878" lon="4.34819">
        <ele>266</ele>
        <time>2016-8-7T10:13:52.000Z</time>
      </trkpt>
      <trkpt lat="50.18878" lon="4.34819">
        <ele>266</ele>
        <time>2016-8-7T10:13:52.000Z</time>
      </trkpt>
      <trkpt lat="50.18879" lon="4.34816">
        <ele>266.5</ele>
        <time>2016-8-7T10:13:52.000Z</time>
      </trkpt>
      <trkpt lat="50.18879" lon="4.34816">
        <ele>266.5</ele>
        <time>2016-8-7T10:13:52.000Z</time>
      </trkpt>
      <trkpt lat="50.1888" lon="4.34815">
        <ele>266.5</ele>
        <time>2016-8-7T10:13:52.000Z</time>
      </trkpt>
      <trkpt lat="50.1888" lon="4.34815">
        <ele>266.5</ele>
        <time>2016-8-7T10:13:52.000Z</time>
      </trkpt>
      <trkpt lat="50.18882" lon="4.34813">
        <ele>266.5</ele>
        <time>2016-8-7T10:13:52.000Z</time>
      </trkpt>
      <trkpt lat="50.18882" lon="4.34813">
        <ele>266.5</ele>
        <time>2016-8-7T10:13:52.000Z</time>
      </trkpt>
      <trkpt lat="50.18884" lon="4.34811">
        <ele>267</ele>
        <time>2016-8-7T10:13:52.000Z</time>
      </trkpt>
      <trkpt lat="50.18884" lon="4.34811">
        <ele>267</ele>
        <time>2016-8-7T10:13:52.000Z</time>
      </trkpt>
      <trkpt lat="50.18885" lon="4.34809">
        <ele>267.5</ele>
        <time>2016-8-7T10:13:52.000Z</time>
      </trkpt>
      <trkpt lat="50.18885" lon="4.34809">
        <ele>267.5</ele>
        <time>2016-8-7T10:13:52.000Z</time>
      </trkpt>
      <trkpt lat="50.18887" lon="4.34806">
        <ele>267.5</ele>
        <time>2016-8-7T10:13:52.000Z</time>
      </trkpt>
      <trkpt lat="50.18887" lon="4.34806">
        <ele>267.5</ele>
        <time>2016-8-7T10:13:52.000Z</time>
      </trkpt>
      <trkpt lat="50.18889" lon="4.34805">
        <ele>268</ele>
        <time>2016-8-7T10:13:52.000Z</time>
      </trkpt>
      <trkpt lat="50.18889" lon="4.34805">
        <ele>268</ele>
        <time>2016-8-7T10:13:52.000Z</time>
      </trkpt>
      <trkpt lat="50.1889" lon="4.34804">
        <ele>268</ele>
        <time>2016-8-7T10:13:52.000Z</time>
      </trkpt>
      <trkpt lat="50.1889" lon="4.34804">
        <ele>268</ele>
        <time>2016-8-7T10:13:52.000Z</time>
      </trkpt>
      <trkpt lat="50.18896" lon="4.34798">
        <ele>267.5</ele>
        <time>2016-8-7T10:13:52.000Z</time>
      </trkpt>
      <trkpt lat="50.18896" lon="4.34798">
        <ele>267.5</ele>
        <time>2016-8-7T10:13:52.000Z</time>
      </trkpt>
      <trkpt lat="50.18897" lon="4.34796">
        <ele>267.5</ele>
        <time>2016-8-7T10:13:52.000Z</time>
      </trkpt>
      <trkpt lat="50.18897" lon="4.34796">
        <ele>267.5</ele>
        <time>2016-8-7T10:13:52.000Z</time>
      </trkpt>
      <trkpt lat="50.18893" lon="4.34801">
        <ele>267.5</ele>
        <time>2016-8-7T10:13:52.000Z</time>
      </trkpt>
      <trkpt lat="50.18893" lon="4.34801">
        <ele>267.5</ele>
        <time>2016-8-7T10:13:52.000Z</time>
      </trkpt>
      <trkpt lat="50.18895" lon="4.34799">
        <ele>268</ele>
        <time>2016-8-7T10:13:52.000Z</time>
      </trkpt>
      <trkpt lat="50.18895" lon="4.34799">
        <ele>268</ele>
        <time>2016-8-7T10:13:52.000Z</time>
      </trkpt>
      <trkpt lat="50.18901" lon="4.34793">
        <ele>268</ele>
        <time>2016-8-7T10:17:46.000Z</time>
      </trkpt>
      <trkpt lat="50.18901" lon="4.34793">
        <ele>268</ele>
        <time>2016-8-7T10:17:46.000Z</time>
      </trkpt>
      <trkpt lat="50.18903" lon="4.3479">
        <ele>268</ele>
        <time>2016-8-7T10:17:46.000Z</time>
      </trkpt>
      <trkpt lat="50.18903" lon="4.3479">
        <ele>268</ele>
        <time>2016-8-7T10:17:46.000Z</time>
      </trkpt>
      <trkpt lat="50.18905" lon="4.34787">
        <ele>267.5</ele>
        <time>2016-8-7T10:17:46.000Z</time>
      </trkpt>
      <trkpt lat="50.18905" lon="4.34787">
        <ele>267.5</ele>
        <time>2016-8-7T10:17:46.000Z</time>
      </trkpt>
      <trkpt lat="50.18906" lon="4.34786">
        <ele>267.5</ele>
        <time>2016-8-7T10:17:46.000Z</time>
      </trkpt>
      <trkpt lat="50.18906" lon="4.34786">
        <ele>267.5</ele>
        <time>2016-8-7T10:17:46.000Z</time>
      </trkpt>
      <trkpt lat="50.18902" lon="4.34784">
        <ele>267.5</ele>
        <time>2016-8-7T10:17:46.000Z</time>
      </trkpt>
      <trkpt lat="50.18902" lon="4.34784">
        <ele>267.5</ele>
        <time>2016-8-7T10:17:46.000Z</time>
      </trkpt>
      <trkpt lat="50.18904" lon="4.34782">
        <ele>267.5</ele>
        <time>2016-8-7T10:17:46.000Z</time>
      </trkpt>
      <trkpt lat="50.18904" lon="4.34782">
        <ele>267.5</ele>
        <time>2016-8-7T10:17:46.000Z</time>
      </trkpt>
      <trkpt lat="50.18912" lon="4.3478">
        <ele>268.5</ele>
        <time>2016-8-7T10:17:46.000Z</time>
      </trkpt>
      <trkpt lat="50.18912" lon="4.3478">
        <ele>268.5</ele>
        <time>2016-8-7T10:17:46.000Z</time>
      </trkpt>
      <trkpt lat="50.18914" lon="4.34777">
        <ele>269.5</ele>
        <time>2016-8-7T10:17:46.000Z</time>
      </trkpt>
      <trkpt lat="50.18914" lon="4.34777">
        <ele>269.5</ele>
        <time>2016-8-7T10:17:46.000Z</time>
      </trkpt>
      <trkpt lat="50.18915" lon="4.34776">
        <ele>269.5</ele>
        <time>2016-8-7T10:17:46.000Z</time>
      </trkpt>
      <trkpt lat="50.18915" lon="4.34776">
        <ele>269.5</ele>
        <time>2016-8-7T10:17:46.000Z</time>
      </trkpt>
      <trkpt lat="50.18916" lon="4.34774">
        <ele>269.5</ele>
        <time>2016-8-7T10:17:46.000Z</time>
      </trkpt>
      <trkpt lat="50.18916" lon="4.34774">
        <ele>269.5</ele>
        <time>2016-8-7T10:17:46.000Z</time>
      </trkpt>
      <trkpt lat="50.18917" lon="4.34773">
        <ele>269.5</ele>
        <time>2016-8-7T10:17:46.000Z</time>
      </trkpt>
      <trkpt lat="50.18917" lon="4.34773">
        <ele>269.5</ele>
        <time>2016-8-7T10:17:46.000Z</time>
      </trkpt>
      <trkpt lat="50.18919" lon="4.34771">
        <ele>268.5</ele>
        <time>2016-8-7T10:17:46.000Z</time>
      </trkpt>
      <trkpt lat="50.18919" lon="4.34771">
        <ele>268.5</ele>
        <time>2016-8-7T10:17:46.000Z</time>
      </trkpt>
      <trkpt lat="50.1892" lon="4.3477">
        <ele>268.5</ele>
        <time>2016-8-7T10:17:46.000Z</time>
      </trkpt>
      <trkpt lat="50.1892" lon="4.3477">
        <ele>268.5</ele>
        <time>2016-8-7T10:17:46.000Z</time>
      </trkpt>
      <trkpt lat="50.18922" lon="4.34768">
        <ele>269</ele>
        <time>2016-8-7T10:17:46.000Z</time>
      </trkpt>
      <trkpt lat="50.18922" lon="4.34768">
        <ele>269</ele>
        <time>2016-8-7T10:17:46.000Z</time>
      </trkpt>
      <trkpt lat="50.18924" lon="4.34766">
        <ele>269.5</ele>
        <time>2016-8-7T10:17:46.000Z</time>
      </trkpt>
      <trkpt lat="50.18924" lon="4.34766">
        <ele>269.5</ele>
        <time>2016-8-7T10:17:46.000Z</time>
      </trkpt>
      <trkpt lat="50.18925" lon="4.34766">
        <ele>269.5</ele>
        <time>2016-8-7T10:17:46.000Z</time>
      </trkpt>
      <trkpt lat="50.18925" lon="4.34766">
        <ele>269.5</ele>
        <time>2016-8-7T10:17:46.000Z</time>
      </trkpt>
      <trkpt lat="50.18927" lon="4.34765">
        <ele>269.5</ele>
        <time>2016-8-7T10:17:46.000Z</time>
      </trkpt>
      <trkpt lat="50.18927" lon="4.34765">
        <ele>269.5</ele>
        <time>2016-8-7T10:17:46.000Z</time>
      </trkpt>
      <trkpt lat="50.18928" lon="4.34764">
        <ele>270</ele>
        <time>2016-8-7T10:17:46.000Z</time>
      </trkpt>
      <trkpt lat="50.18928" lon="4.34764">
        <ele>270</ele>
        <time>2016-8-7T10:17:46.000Z</time>
      </trkpt>
      <trkpt lat="50.18929" lon="4.34763">
        <ele>270</ele>
        <time>2016-8-7T10:17:46.000Z</time>
      </trkpt>
      <trkpt lat="50.18929" lon="4.34763">
        <ele>270</ele>
        <time>2016-8-7T10:17:46.000Z</time>
      </trkpt>
      <trkpt lat="50.18931" lon="4.34763">
        <ele>270</ele>
        <time>2016-8-7T10:17:46.000Z</time>
      </trkpt>
      <trkpt lat="50.18931" lon="4.34763">
        <ele>270</ele>
        <time>2016-8-7T10:17:46.000Z</time>
      </trkpt>
      <trkpt lat="50.18932" lon="4.34763">
        <ele>270</ele>
        <time>2016-8-7T10:17:46.000Z</time>
      </trkpt>
      <trkpt lat="50.18932" lon="4.34763">
        <ele>270</ele>
        <time>2016-8-7T10:17:46.000Z</time>
      </trkpt>
      <trkpt lat="50.19164" lon="4.34825">
        <ele>271</ele>
        <time>2016-8-7T10:17:46.000Z</time>
      </trkpt>
      <trkpt lat="50.19164" lon="4.34825">
        <ele>271</ele>
        <time>2016-8-7T10:17:46.000Z</time>
      </trkpt>
      <trkpt lat="50.19166" lon="4.34826">
        <ele>271</ele>
        <time>2016-8-7T10:17:46.000Z</time>
      </trkpt>
      <trkpt lat="50.19166" lon="4.34826">
        <ele>271</ele>
        <time>2016-8-7T10:17:46.000Z</time>
      </trkpt>
      <trkpt lat="50.19168" lon="4.34827">
        <ele>271</ele>
        <time>2016-8-7T10:17:46.000Z</time>
      </trkpt>
      <trkpt lat="50.19168" lon="4.34827">
        <ele>271</ele>
        <time>2016-8-7T10:17:46.000Z</time>
      </trkpt>
      <trkpt lat="50.1917" lon="4.34828">
        <ele>271</ele>
        <time>2016-8-7T10:17:46.000Z</time>
      </trkpt>
      <trkpt lat="50.1917" lon="4.34828">
        <ele>271</ele>
        <time>2016-8-7T10:17:46.000Z</time>
      </trkpt>
      <trkpt lat="50.19171" lon="4.34829">
        <ele>271</ele>
        <time>2016-8-7T10:17:46.000Z</time>
      </trkpt>
      <trkpt lat="50.19171" lon="4.34829">
        <ele>271</ele>
        <time>2016-8-7T10:17:46.000Z</time>
      </trkpt>
      <trkpt lat="50.19173" lon="4.3483">
        <ele>270.5</ele>
        <time>2016-8-7T10:17:46.000Z</time>
      </trkpt>
      <trkpt lat="50.19173" lon="4.3483">
        <ele>270.5</ele>
        <time>2016-8-7T10:17:46.000Z</time>
      </trkpt>
      <trkpt lat="50.19173" lon="4.3483">
        <ele>270.5</ele>
        <time>2016-8-7T10:17:46.000Z</time>
      </trkpt>
      <trkpt lat="50.19173" lon="4.3483">
        <ele>270.5</ele>
        <time>2016-8-7T10:17:46.000Z</time>
      </trkpt>
      <trkpt lat="50.19175" lon="4.34829">
        <ele>269.5</ele>
        <time>2016-8-7T10:17:46.000Z</time>
      </trkpt>
      <trkpt lat="50.19175" lon="4.34829">
        <ele>269.5</ele>
        <time>2016-8-7T10:17:46.000Z</time>
      </trkpt>
      <trkpt lat="50.19176" lon="4.34826">
        <ele>269</ele>
        <time>2016-8-7T10:17:46.000Z</time>
      </trkpt>
      <trkpt lat="50.19176" lon="4.34826">
        <ele>269</ele>
        <time>2016-8-7T10:17:46.000Z</time>
      </trkpt>
      <trkpt lat="50.19177" lon="4.34826">
        <ele>269</ele>
        <time>2016-8-7T10:17:46.000Z</time>
      </trkpt>
      <trkpt lat="50.19177" lon="4.34826">
        <ele>269</ele>
        <time>2016-8-7T10:17:46.000Z</time>
      </trkpt>
      <trkpt lat="50.19178" lon="4.34825">
        <ele>268.5</ele>
        <time>2016-8-7T10:17:46.000Z</time>
      </trkpt>
      <trkpt lat="50.19178" lon="4.34825">
        <ele>268.5</ele>
        <time>2016-8-7T10:17:46.000Z</time>
      </trkpt>
      <trkpt lat="50.19178" lon="4.34827">
        <ele>268.5</ele>
        <time>2016-8-7T10:17:46.000Z</time>
      </trkpt>
      <trkpt lat="50.19178" lon="4.34827">
        <ele>268.5</ele>
        <time>2016-8-7T10:17:46.000Z</time>
      </trkpt>
      <trkpt lat="50.19182" lon="4.34826">
        <ele>269</ele>
        <time>2016-8-7T10:17:46.000Z</time>
      </trkpt>
      <trkpt lat="50.19182" lon="4.34826">
        <ele>269</ele>
        <time>2016-8-7T10:17:46.000Z</time>
      </trkpt>
      <trkpt lat="50.19183" lon="4.34826">
        <ele>268.5</ele>
        <time>2016-8-7T10:17:46.000Z</time>
      </trkpt>
      <trkpt lat="50.19183" lon="4.34826">
        <ele>268.5</ele>
        <time>2016-8-7T10:17:46.000Z</time>
      </trkpt>
      <trkpt lat="50.19184" lon="4.34827">
        <ele>268.5</ele>
        <time>2016-8-7T10:17:46.000Z</time>
      </trkpt>
      <trkpt lat="50.19184" lon="4.34827">
        <ele>268.5</ele>
        <time>2016-8-7T10:17:46.000Z</time>
      </trkpt>
      <trkpt lat="50.19185" lon="4.34829">
        <ele>269</ele>
        <time>2016-8-7T10:17:46.000Z</time>
      </trkpt>
      <trkpt lat="50.19185" lon="4.34829">
        <ele>269</ele>
        <time>2016-8-7T10:17:46.000Z</time>
      </trkpt>
      <trkpt lat="50.19192" lon="4.34833">
        <ele>270</ele>
        <time>2016-8-7T10:17:46.000Z</time>
      </trkpt>
      <trkpt lat="50.19192" lon="4.34833">
        <ele>270</ele>
        <time>2016-8-7T10:17:46.000Z</time>
      </trkpt>
      <trkpt lat="50.19194" lon="4.34834">
        <ele>270</ele>
        <time>2016-8-7T10:17:46.000Z</time>
      </trkpt>
      <trkpt lat="50.19194" lon="4.34834">
        <ele>270</ele>
        <time>2016-8-7T10:17:46.000Z</time>
      </trkpt>
      <trkpt lat="50.19197" lon="4.34836">
        <ele>270.5</ele>
        <time>2016-8-7T10:17:46.000Z</time>
      </trkpt>
      <trkpt lat="50.19197" lon="4.34836">
        <ele>270.5</ele>
        <time>2016-8-7T10:17:46.000Z</time>
      </trkpt>
      <trkpt lat="50.19198" lon="4.34836">
        <ele>270.5</ele>
        <time>2016-8-7T10:17:46.000Z</time>
      </trkpt>
      <trkpt lat="50.19198" lon="4.34836">
        <ele>270.5</ele>
        <time>2016-8-7T10:17:46.000Z</time>
      </trkpt>
      <trkpt lat="50.192" lon="4.34837">
        <ele>271</ele>
        <time>2016-8-7T10:17:46.000Z</time>
      </trkpt>
      <trkpt lat="50.192" lon="4.34837">
        <ele>271</ele>
        <time>2016-8-7T10:17:46.000Z</time>
      </trkpt>
      <trkpt lat="50.19204" lon="4.34838">
        <ele>271.5</ele>
        <time>2016-8-7T10:17:46.000Z</time>
      </trkpt>
      <trkpt lat="50.19204" lon="4.34838">
        <ele>271.5</ele>
        <time>2016-8-7T10:17:46.000Z</time>
      </trkpt>
      <trkpt lat="50.19205" lon="4.34838">
        <ele>271.5</ele>
        <time>2016-8-7T10:17:46.000Z</time>
      </trkpt>
      <trkpt lat="50.19205" lon="4.34838">
        <ele>271.5</ele>
        <time>2016-8-7T10:17:46.000Z</time>
      </trkpt>
      <trkpt lat="50.19208" lon="4.34839">
        <ele>271.5</ele>
        <time>2016-8-7T10:17:46.000Z</time>
      </trkpt>
      <trkpt lat="50.19208" lon="4.34839">
        <ele>271.5</ele>
        <time>2016-8-7T10:17:46.000Z</time>
      </trkpt>
      <trkpt lat="50.19211" lon="4.34841">
        <ele>272</ele>
        <time>2016-8-7T10:17:46.000Z</time>
      </trkpt>
      <trkpt lat="50.19211" lon="4.34841">
        <ele>272</ele>
        <time>2016-8-7T10:17:46.000Z</time>
      </trkpt>
      <trkpt lat="50.19213" lon="4.34843">
        <ele>272</ele>
        <time>2016-8-7T10:17:46.000Z</time>
      </trkpt>
      <trkpt lat="50.19213" lon="4.34843">
        <ele>272</ele>
        <time>2016-8-7T10:17:46.000Z</time>
      </trkpt>
      <trkpt lat="50.19215" lon="4.34844">
        <ele>272</ele>
        <time>2016-8-7T10:17:46.000Z</time>
      </trkpt>
      <trkpt lat="50.19215" lon="4.34844">
        <ele>272</ele>
        <time>2016-8-7T10:17:46.000Z</time>
      </trkpt>
      <trkpt lat="50.19217" lon="4.34845">
        <ele>272</ele>
        <time>2016-8-7T10:17:46.000Z</time>
      </trkpt>
      <trkpt lat="50.19217" lon="4.34845">
        <ele>272</ele>
        <time>2016-8-7T10:17:46.000Z</time>
      </trkpt>
      <trkpt lat="50.19218" lon="4.34846">
        <ele>272</ele>
        <time>2016-8-7T10:17:46.000Z</time>
      </trkpt>
      <trkpt lat="50.19218" lon="4.34846">
        <ele>272</ele>
        <time>2016-8-7T10:17:46.000Z</time>
      </trkpt>
      <trkpt lat="50.1922" lon="4.34847">
        <ele>272</ele>
        <time>2016-8-7T10:17:46.000Z</time>
      </trkpt>
      <trkpt lat="50.1922" lon="4.34847">
        <ele>272</ele>
        <time>2016-8-7T10:19:3.000Z</time>
      </trkpt>
      <trkpt lat="50.19221" lon="4.34848">
        <ele>272</ele>
        <time>2016-8-7T10:19:3.000Z</time>
      </trkpt>
      <trkpt lat="50.19221" lon="4.34848">
        <ele>272</ele>
        <time>2016-8-7T10:19:3.000Z</time>
      </trkpt>
      <trkpt lat="50.19223" lon="4.34848">
        <ele>272.5</ele>
        <time>2016-8-7T10:19:3.000Z</time>
      </trkpt>
      <trkpt lat="50.19223" lon="4.34848">
        <ele>272.5</ele>
        <time>2016-8-7T10:19:3.000Z</time>
      </trkpt>
      <trkpt lat="50.19224" lon="4.34849">
        <ele>272.5</ele>
        <time>2016-8-7T10:19:3.000Z</time>
      </trkpt>
      <trkpt lat="50.19224" lon="4.34849">
        <ele>272.5</ele>
        <time>2016-8-7T10:19:3.000Z</time>
      </trkpt>
      <trkpt lat="50.19227" lon="4.34849">
        <ele>272.5</ele>
        <time>2016-8-7T10:19:3.000Z</time>
      </trkpt>
      <trkpt lat="50.19227" lon="4.34849">
        <ele>272.5</ele>
        <time>2016-8-7T10:19:3.000Z</time>
      </trkpt>
      <trkpt lat="50.1923" lon="4.3485">
        <ele>272.5</ele>
        <time>2016-8-7T10:19:3.000Z</time>
      </trkpt>
      <trkpt lat="50.1923" lon="4.3485">
        <ele>272.5</ele>
        <time>2016-8-7T10:19:3.000Z</time>
      </trkpt>
      <trkpt lat="50.19231" lon="4.3485">
        <ele>272.5</ele>
        <time>2016-8-7T10:19:3.000Z</time>
      </trkpt>
      <trkpt lat="50.19231" lon="4.3485">
        <ele>272.5</ele>
        <time>2016-8-7T10:19:3.000Z</time>
      </trkpt>
      <trkpt lat="50.19232" lon="4.34851">
        <ele>272.5</ele>
        <time>2016-8-7T10:19:3.000Z</time>
      </trkpt>
      <trkpt lat="50.19232" lon="4.34851">
        <ele>272.5</ele>
        <time>2016-8-7T10:19:3.000Z</time>
      </trkpt>
      <trkpt lat="50.19234" lon="4.34851">
        <ele>272.5</ele>
        <time>2016-8-7T10:19:3.000Z</time>
      </trkpt>
      <trkpt lat="50.19234" lon="4.34851">
        <ele>272.5</ele>
        <time>2016-8-7T10:19:3.000Z</time>
      </trkpt>
      <trkpt lat="50.19235" lon="4.34852">
        <ele>272.5</ele>
        <time>2016-8-7T10:19:3.000Z</time>
      </trkpt>
      <trkpt lat="50.19235" lon="4.34852">
        <ele>272.5</ele>
        <time>2016-8-7T10:19:3.000Z</time>
      </trkpt>
      <trkpt lat="50.19238" lon="4.34852">
        <ele>272.5</ele>
        <time>2016-8-7T10:19:3.000Z</time>
      </trkpt>
      <trkpt lat="50.19238" lon="4.34852">
        <ele>272.5</ele>
        <time>2016-8-7T10:19:3.000Z</time>
      </trkpt>
      <trkpt lat="50.19243" lon="4.34852">
        <ele>272.5</ele>
        <time>2016-8-7T10:19:3.000Z</time>
      </trkpt>
      <trkpt lat="50.19243" lon="4.34852">
        <ele>272.5</ele>
        <time>2016-8-7T10:19:3.000Z</time>
      </trkpt>
      <trkpt lat="50.19244" lon="4.34852">
        <ele>272.5</ele>
        <time>2016-8-7T10:19:3.000Z</time>
      </trkpt>
      <trkpt lat="50.19244" lon="4.34852">
        <ele>272.5</ele>
        <time>2016-8-7T10:19:3.000Z</time>
      </trkpt>
      <trkpt lat="50.19246" lon="4.34852">
        <ele>272.5</ele>
        <time>2016-8-7T10:19:3.000Z</time>
      </trkpt>
      <trkpt lat="50.19246" lon="4.34852">
        <ele>272.5</ele>
        <time>2016-8-7T10:19:3.000Z</time>
      </trkpt>
      <trkpt lat="50.19247" lon="4.34852">
        <ele>272.5</ele>
        <time>2016-8-7T10:19:3.000Z</time>
      </trkpt>
      <trkpt lat="50.19247" lon="4.34852">
        <ele>272.5</ele>
        <time>2016-8-7T10:19:3.000Z</time>
      </trkpt>
      <trkpt lat="50.19248" lon="4.34853">
        <ele>273</ele>
        <time>2016-8-7T10:19:3.000Z</time>
      </trkpt>
      <trkpt lat="50.19248" lon="4.34853">
        <ele>273</ele>
        <time>2016-8-7T10:19:3.000Z</time>
      </trkpt>
      <trkpt lat="50.19249" lon="4.34853">
        <ele>273</ele>
        <time>2016-8-7T10:19:3.000Z</time>
      </trkpt>
      <trkpt lat="50.19249" lon="4.34853">
        <ele>273</ele>
        <time>2016-8-7T10:19:3.000Z</time>
      </trkpt>
      <trkpt lat="50.19251" lon="4.34853">
        <ele>273.5</ele>
        <time>2016-8-7T10:19:3.000Z</time>
      </trkpt>
      <trkpt lat="50.19251" lon="4.34853">
        <ele>273.5</ele>
        <time>2016-8-7T10:19:3.000Z</time>
      </trkpt>
      <trkpt lat="50.19252" lon="4.34854">
        <ele>273.5</ele>
        <time>2016-8-7T10:19:3.000Z</time>
      </trkpt>
      <trkpt lat="50.19252" lon="4.34854">
        <ele>273.5</ele>
        <time>2016-8-7T10:19:3.000Z</time>
      </trkpt>
      <trkpt lat="50.19254" lon="4.34857">
        <ele>274</ele>
        <time>2016-8-7T10:19:3.000Z</time>
      </trkpt>
      <trkpt lat="50.19254" lon="4.34857">
        <ele>274</ele>
        <time>2016-8-7T10:19:3.000Z</time>
      </trkpt>
      <trkpt lat="50.19256" lon="4.3486">
        <ele>274</ele>
        <time>2016-8-7T10:19:3.000Z</time>
      </trkpt>
      <trkpt lat="50.19256" lon="4.3486">
        <ele>274</ele>
        <time>2016-8-7T10:19:3.000Z</time>
      </trkpt>
      <trkpt lat="50.19257" lon="4.34863">
        <ele>274</ele>
        <time>2016-8-7T10:19:3.000Z</time>
      </trkpt>
      <trkpt lat="50.19257" lon="4.34863">
        <ele>274</ele>
        <time>2016-8-7T10:19:3.000Z</time>
      </trkpt>
      <trkpt lat="50.19259" lon="4.34866">
        <ele>274</ele>
        <time>2016-8-7T10:19:3.000Z</time>
      </trkpt>
      <trkpt lat="50.19259" lon="4.34866">
        <ele>274</ele>
        <time>2016-8-7T10:19:3.000Z</time>
      </trkpt>
      <trkpt lat="50.1926" lon="4.3487">
        <ele>274</ele>
        <time>2016-8-7T10:19:3.000Z</time>
      </trkpt>
      <trkpt lat="50.1926" lon="4.3487">
        <ele>274</ele>
        <time>2016-8-7T10:19:3.000Z</time>
      </trkpt>
      <trkpt lat="50.19261" lon="4.34872">
        <ele>274.5</ele>
        <time>2016-8-7T10:19:3.000Z</time>
      </trkpt>
      <trkpt lat="50.19261" lon="4.34872">
        <ele>274.5</ele>
        <time>2016-8-7T10:19:3.000Z</time>
      </trkpt>
      <trkpt lat="50.19262" lon="4.34873">
        <ele>274.5</ele>
        <time>2016-8-7T10:19:3.000Z</time>
      </trkpt>
      <trkpt lat="50.19262" lon="4.34873">
        <ele>274.5</ele>
        <time>2016-8-7T10:19:3.000Z</time>
      </trkpt>
      <trkpt lat="50.19264" lon="4.34875">
        <ele>274.5</ele>
        <time>2016-8-7T10:19:3.000Z</time>
      </trkpt>
      <trkpt lat="50.19264" lon="4.34875">
        <ele>274.5</ele>
        <time>2016-8-7T10:19:3.000Z</time>
      </trkpt>
      <trkpt lat="50.19265" lon="4.34877">
        <ele>274.5</ele>
        <time>2016-8-7T10:19:3.000Z</time>
      </trkpt>
      <trkpt lat="50.19265" lon="4.34877">
        <ele>274.5</ele>
        <time>2016-8-7T10:19:3.000Z</time>
      </trkpt>
      <trkpt lat="50.19267" lon="4.34878">
        <ele>274</ele>
        <time>2016-8-7T10:19:3.000Z</time>
      </trkpt>
      <trkpt lat="50.19267" lon="4.34878">
        <ele>274</ele>
        <time>2016-8-7T10:19:3.000Z</time>
      </trkpt>
      <trkpt lat="50.19269" lon="4.34879">
        <ele>273.5</ele>
        <time>2016-8-7T10:19:3.000Z</time>
      </trkpt>
      <trkpt lat="50.19269" lon="4.34879">
        <ele>273.5</ele>
        <time>2016-8-7T10:19:3.000Z</time>
      </trkpt>
      <trkpt lat="50.1927" lon="4.3488">
        <ele>273.5</ele>
        <time>2016-8-7T10:19:3.000Z</time>
      </trkpt>
      <trkpt lat="50.1927" lon="4.3488">
        <ele>273.5</ele>
        <time>2016-8-7T10:19:3.000Z</time>
      </trkpt>
      <trkpt lat="50.19272" lon="4.3488">
        <ele>273.5</ele>
        <time>2016-8-7T10:19:3.000Z</time>
      </trkpt>
      <trkpt lat="50.19272" lon="4.3488">
        <ele>273.5</ele>
        <time>2016-8-7T10:19:3.000Z</time>
      </trkpt>
      <trkpt lat="50.19273" lon="4.3488">
        <ele>273.5</ele>
        <time>2016-8-7T10:19:3.000Z</time>
      </trkpt>
      <trkpt lat="50.19273" lon="4.3488">
        <ele>273.5</ele>
        <time>2016-8-7T10:19:3.000Z</time>
      </trkpt>
      <trkpt lat="50.19274" lon="4.34883">
        <ele>273.5</ele>
        <time>2016-8-7T10:19:3.000Z</time>
      </trkpt>
      <trkpt lat="50.19274" lon="4.34883">
        <ele>273.5</ele>
        <time>2016-8-7T10:19:3.000Z</time>
      </trkpt>
      <trkpt lat="50.19273" lon="4.34887">
        <ele>273.5</ele>
        <time>2016-8-7T10:19:3.000Z</time>
      </trkpt>
      <trkpt lat="50.19273" lon="4.34887">
        <ele>273.5</ele>
        <time>2016-8-7T10:19:3.000Z</time>
      </trkpt>
      <trkpt lat="50.19274" lon="4.34887">
        <ele>274.5</ele>
        <time>2016-8-7T10:19:3.000Z</time>
      </trkpt>
      <trkpt lat="50.19274" lon="4.34887">
        <ele>274.5</ele>
        <time>2016-8-7T10:19:3.000Z</time>
      </trkpt>
      <trkpt lat="50.19277" lon="4.34888">
        <ele>274.5</ele>
        <time>2016-8-7T10:19:3.000Z</time>
      </trkpt>
      <trkpt lat="50.19277" lon="4.34888">
        <ele>274.5</ele>
        <time>2016-8-7T10:19:3.000Z</time>
      </trkpt>
      <trkpt lat="50.19279" lon="4.34888">
        <ele>274.5</ele>
        <time>2016-8-7T10:19:3.000Z</time>
      </trkpt>
      <trkpt lat="50.19279" lon="4.34888">
        <ele>274.5</ele>
        <time>2016-8-7T10:19:3.000Z</time>
      </trkpt>
      <trkpt lat="50.1928" lon="4.3489">
        <ele>275.5</ele>
        <time>2016-8-7T10:19:3.000Z</time>
      </trkpt>
      <trkpt lat="50.1928" lon="4.3489">
        <ele>275.5</ele>
        <time>2016-8-7T10:19:3.000Z</time>
      </trkpt>
      <trkpt lat="50.19284" lon="4.34891">
        <ele>276.5</ele>
        <time>2016-8-7T10:19:3.000Z</time>
      </trkpt>
      <trkpt lat="50.19284" lon="4.34891">
        <ele>276.5</ele>
        <time>2016-8-7T10:19:3.000Z</time>
      </trkpt>
      <trkpt lat="50.19285" lon="4.34891">
        <ele>276.5</ele>
        <time>2016-8-7T10:19:3.000Z</time>
      </trkpt>
      <trkpt lat="50.19285" lon="4.34891">
        <ele>276.5</ele>
        <time>2016-8-7T10:19:3.000Z</time>
      </trkpt>
      <trkpt lat="50.19288" lon="4.34892">
        <ele>276.5</ele>
        <time>2016-8-7T10:19:3.000Z</time>
      </trkpt>
      <trkpt lat="50.19288" lon="4.34892">
        <ele>276.5</ele>
        <time>2016-8-7T10:19:3.000Z</time>
      </trkpt>
      <trkpt lat="50.19289" lon="4.34892">
        <ele>276.5</ele>
        <time>2016-8-7T10:19:3.000Z</time>
      </trkpt>
      <trkpt lat="50.19289" lon="4.34892">
        <ele>276.5</ele>
        <time>2016-8-7T10:19:3.000Z</time>
      </trkpt>
      <trkpt lat="50.19291" lon="4.34893">
        <ele>276.5</ele>
        <time>2016-8-7T10:19:3.000Z</time>
      </trkpt>
      <trkpt lat="50.19291" lon="4.34893">
        <ele>276.5</ele>
        <time>2016-8-7T10:19:3.000Z</time>
      </trkpt>
      <trkpt lat="50.19293" lon="4.34895">
        <ele>277.5</ele>
        <time>2016-8-7T10:19:3.000Z</time>
      </trkpt>
      <trkpt lat="50.19293" lon="4.34895">
        <ele>277.5</ele>
        <time>2016-8-7T10:19:3.000Z</time>
      </trkpt>
      <trkpt lat="50.19294" lon="4.34896">
        <ele>276.5</ele>
        <time>2016-8-7T10:19:3.000Z</time>
      </trkpt>
      <trkpt lat="50.19294" lon="4.34896">
        <ele>276.5</ele>
        <time>2016-8-7T10:19:3.000Z</time>
      </trkpt>
      <trkpt lat="50.19296" lon="4.34898">
        <ele>276.5</ele>
        <time>2016-8-7T10:19:3.000Z</time>
      </trkpt>
      <trkpt lat="50.19296" lon="4.34898">
        <ele>276.5</ele>
        <time>2016-8-7T10:19:3.000Z</time>
      </trkpt>
      <trkpt lat="50.19297" lon="4.34899">
        <ele>276.5</ele>
        <time>2016-8-7T10:19:3.000Z</time>
      </trkpt>
      <trkpt lat="50.19297" lon="4.34899">
        <ele>276.5</ele>
        <time>2016-8-7T10:19:3.000Z</time>
      </trkpt>
      <trkpt lat="50.19299" lon="4.34901">
        <ele>277.5</ele>
        <time>2016-8-7T10:19:3.000Z</time>
      </trkpt>
      <trkpt lat="50.19299" lon="4.34901">
        <ele>277.5</ele>
        <time>2016-8-7T10:19:3.000Z</time>
      </trkpt>
      <trkpt lat="50.19301" lon="4.34903">
        <ele>277.5</ele>
        <time>2016-8-7T10:19:3.000Z</time>
      </trkpt>
      <trkpt lat="50.19301" lon="4.34903">
        <ele>277.5</ele>
        <time>2016-8-7T10:19:3.000Z</time>
      </trkpt>
      <trkpt lat="50.19303" lon="4.34903">
        <ele>277.5</ele>
        <time>2016-8-7T10:19:3.000Z</time>
      </trkpt>
      <trkpt lat="50.19303" lon="4.34903">
        <ele>277.5</ele>
        <time>2016-8-7T10:19:3.000Z</time>
      </trkpt>
      <trkpt lat="50.19305" lon="4.34904">
        <ele>277.5</ele>
        <time>2016-8-7T10:21:11.000Z</time>
      </trkpt>
      <trkpt lat="50.19305" lon="4.34904">
        <ele>277.5</ele>
        <time>2016-8-7T10:21:11.000Z</time>
      </trkpt>
      <trkpt lat="50.19307" lon="4.34905">
        <ele>278.5</ele>
        <time>2016-8-7T10:21:11.000Z</time>
      </trkpt>
      <trkpt lat="50.19307" lon="4.34905">
        <ele>278.5</ele>
        <time>2016-8-7T10:21:11.000Z</time>
      </trkpt>
      <trkpt lat="50.19309" lon="4.34906">
        <ele>278.5</ele>
        <time>2016-8-7T10:21:11.000Z</time>
      </trkpt>
      <trkpt lat="50.19309" lon="4.34906">
        <ele>278.5</ele>
        <time>2016-8-7T10:21:11.000Z</time>
      </trkpt>
      <trkpt lat="50.19312" lon="4.34908">
        <ele>278.5</ele>
        <time>2016-8-7T10:21:11.000Z</time>
      </trkpt>
      <trkpt lat="50.19312" lon="4.34908">
        <ele>278.5</ele>
        <time>2016-8-7T10:21:11.000Z</time>
      </trkpt>
      <trkpt lat="50.19314" lon="4.34909">
        <ele>278.5</ele>
        <time>2016-8-7T10:21:11.000Z</time>
      </trkpt>
      <trkpt lat="50.19314" lon="4.34909">
        <ele>278.5</ele>
        <time>2016-8-7T10:21:11.000Z</time>
      </trkpt>
      <trkpt lat="50.19313" lon="4.34907">
        <ele>278</ele>
        <time>2016-8-7T10:21:11.000Z</time>
      </trkpt>
      <trkpt lat="50.19313" lon="4.34907">
        <ele>278</ele>
        <time>2016-8-7T10:21:11.000Z</time>
      </trkpt>
      <trkpt lat="50.19315" lon="4.34908">
        <ele>278</ele>
        <time>2016-8-7T10:21:11.000Z</time>
      </trkpt>
      <trkpt lat="50.19315" lon="4.34908">
        <ele>278</ele>
        <time>2016-8-7T10:21:11.000Z</time>
      </trkpt>
      <trkpt lat="50.19317" lon="4.34909">
        <ele>278</ele>
        <time>2016-8-7T10:21:11.000Z</time>
      </trkpt>
      <trkpt lat="50.19317" lon="4.34909">
        <ele>278</ele>
        <time>2016-8-7T10:21:11.000Z</time>
      </trkpt>
      <trkpt lat="50.19318" lon="4.34911">
        <ele>278</ele>
        <time>2016-8-7T10:21:11.000Z</time>
      </trkpt>
      <trkpt lat="50.19318" lon="4.34911">
        <ele>278</ele>
        <time>2016-8-7T10:21:11.000Z</time>
      </trkpt>
      <trkpt lat="50.1932" lon="4.34912">
        <ele>278.5</ele>
        <time>2016-8-7T10:21:11.000Z</time>
      </trkpt>
      <trkpt lat="50.1932" lon="4.34912">
        <ele>278.5</ele>
        <time>2016-8-7T10:21:11.000Z</time>
      </trkpt>
      <trkpt lat="50.19322" lon="4.34913">
        <ele>278</ele>
        <time>2016-8-7T10:21:11.000Z</time>
      </trkpt>
      <trkpt lat="50.19322" lon="4.34913">
        <ele>278</ele>
        <time>2016-8-7T10:21:11.000Z</time>
      </trkpt>
      <trkpt lat="50.19324" lon="4.34914">
        <ele>278</ele>
        <time>2016-8-7T10:21:11.000Z</time>
      </trkpt>
      <trkpt lat="50.19324" lon="4.34914">
        <ele>278</ele>
        <time>2016-8-7T10:21:11.000Z</time>
      </trkpt>
      <trkpt lat="50.19325" lon="4.34915">
        <ele>278</ele>
        <time>2016-8-7T10:21:11.000Z</time>
      </trkpt>
      <trkpt lat="50.19325" lon="4.34915">
        <ele>278</ele>
        <time>2016-8-7T10:21:11.000Z</time>
      </trkpt>
      <trkpt lat="50.19327" lon="4.34916">
        <ele>278.5</ele>
        <time>2016-8-7T10:21:11.000Z</time>
      </trkpt>
      <trkpt lat="50.19327" lon="4.34916">
        <ele>278.5</ele>
        <time>2016-8-7T10:21:11.000Z</time>
      </trkpt>
      <trkpt lat="50.19328" lon="4.34917">
        <ele>278.5</ele>
        <time>2016-8-7T10:21:11.000Z</time>
      </trkpt>
      <trkpt lat="50.19328" lon="4.34917">
        <ele>278.5</ele>
        <time>2016-8-7T10:21:11.000Z</time>
      </trkpt>
      <trkpt lat="50.19331" lon="4.34919">
        <ele>278.5</ele>
        <time>2016-8-7T10:21:11.000Z</time>
      </trkpt>
      <trkpt lat="50.19331" lon="4.34919">
        <ele>278.5</ele>
        <time>2016-8-7T10:21:11.000Z</time>
      </trkpt>
      <trkpt lat="50.19332" lon="4.34921">
        <ele>278</ele>
        <time>2016-8-7T10:21:11.000Z</time>
      </trkpt>
      <trkpt lat="50.19332" lon="4.34921">
        <ele>278</ele>
        <time>2016-8-7T10:21:11.000Z</time>
      </trkpt>
      <trkpt lat="50.19333" lon="4.34923">
        <ele>278.5</ele>
        <time>2016-8-7T10:21:11.000Z</time>
      </trkpt>
      <trkpt lat="50.19333" lon="4.34923">
        <ele>278.5</ele>
        <time>2016-8-7T10:21:11.000Z</time>
      </trkpt>
      <trkpt lat="50.19335" lon="4.34925">
        <ele>278</ele>
        <time>2016-8-7T10:21:11.000Z</time>
      </trkpt>
      <trkpt lat="50.19335" lon="4.34925">
        <ele>278</ele>
        <time>2016-8-7T10:21:11.000Z</time>
      </trkpt>
      <trkpt lat="50.19337" lon="4.34926">
        <ele>278</ele>
        <time>2016-8-7T10:21:11.000Z</time>
      </trkpt>
      <trkpt lat="50.19337" lon="4.34926">
        <ele>278</ele>
        <time>2016-8-7T10:21:11.000Z</time>
      </trkpt>
      <trkpt lat="50.19337" lon="4.34927">
        <ele>278</ele>
        <time>2016-8-7T10:21:11.000Z</time>
      </trkpt>
      <trkpt lat="50.19337" lon="4.34927">
        <ele>278</ele>
        <time>2016-8-7T10:21:11.000Z</time>
      </trkpt>
      <trkpt lat="50.19338" lon="4.3493">
        <ele>278</ele>
        <time>2016-8-7T10:21:11.000Z</time>
      </trkpt>
      <trkpt lat="50.19338" lon="4.3493">
        <ele>278</ele>
        <time>2016-8-7T10:21:11.000Z</time>
      </trkpt>
      <trkpt lat="50.19339" lon="4.34932">
        <ele>278</ele>
        <time>2016-8-7T10:21:11.000Z</time>
      </trkpt>
      <trkpt lat="50.19339" lon="4.34932">
        <ele>278</ele>
        <time>2016-8-7T10:21:11.000Z</time>
      </trkpt>
      <trkpt lat="50.19339" lon="4.34932">
        <ele>278</ele>
        <time>2016-8-7T10:21:11.000Z</time>
      </trkpt>
      <trkpt lat="50.19339" lon="4.34932">
        <ele>278</ele>
        <time>2016-8-7T10:21:11.000Z</time>
      </trkpt>
      <trkpt lat="50.19339" lon="4.34934">
        <ele>278</ele>
        <time>2016-8-7T10:21:11.000Z</time>
      </trkpt>
      <trkpt lat="50.19339" lon="4.34934">
        <ele>278</ele>
        <time>2016-8-7T10:21:11.000Z</time>
      </trkpt>
      <trkpt lat="50.19341" lon="4.34936">
        <ele>278.5</ele>
        <time>2016-8-7T10:21:11.000Z</time>
      </trkpt>
      <trkpt lat="50.19341" lon="4.34936">
        <ele>278.5</ele>
        <time>2016-8-7T10:21:11.000Z</time>
      </trkpt>
      <trkpt lat="50.19344" lon="4.34938">
        <ele>278.5</ele>
        <time>2016-8-7T10:21:11.000Z</time>
      </trkpt>
      <trkpt lat="50.19344" lon="4.34938">
        <ele>278.5</ele>
        <time>2016-8-7T10:21:11.000Z</time>
      </trkpt>
      <trkpt lat="50.19344" lon="4.34939">
        <ele>278</ele>
        <time>2016-8-7T10:21:11.000Z</time>
      </trkpt>
      <trkpt lat="50.19344" lon="4.34939">
        <ele>278</ele>
        <time>2016-8-7T10:21:11.000Z</time>
      </trkpt>
      <trkpt lat="50.19345" lon="4.3494">
        <ele>278</ele>
        <time>2016-8-7T10:21:11.000Z</time>
      </trkpt>
      <trkpt lat="50.19345" lon="4.3494">
        <ele>278</ele>
        <time>2016-8-7T10:21:11.000Z</time>
      </trkpt>
      <trkpt lat="50.19346" lon="4.34943">
        <ele>278.5</ele>
        <time>2016-8-7T10:21:11.000Z</time>
      </trkpt>
      <trkpt lat="50.19346" lon="4.34943">
        <ele>278.5</ele>
        <time>2016-8-7T10:21:11.000Z</time>
      </trkpt>
      <trkpt lat="50.19392" lon="4.35047">
        <ele>277.5</ele>
        <time>2016-8-7T10:21:11.000Z</time>
      </trkpt>
      <trkpt lat="50.19392" lon="4.35047">
        <ele>277.5</ele>
        <time>2016-8-7T10:21:11.000Z</time>
      </trkpt>
      <trkpt lat="50.19392" lon="4.35049">
        <ele>277.5</ele>
        <time>2016-8-7T10:21:11.000Z</time>
      </trkpt>
      <trkpt lat="50.19392" lon="4.35049">
        <ele>277.5</ele>
        <time>2016-8-7T10:21:11.000Z</time>
      </trkpt>
      <trkpt lat="50.19393" lon="4.35052">
        <ele>277.5</ele>
        <time>2016-8-7T10:21:11.000Z</time>
      </trkpt>
      <trkpt lat="50.19393" lon="4.35052">
        <ele>277.5</ele>
        <time>2016-8-7T10:21:11.000Z</time>
      </trkpt>
      <trkpt lat="50.19393" lon="4.35055">
        <ele>277.5</ele>
        <time>2016-8-7T10:21:11.000Z</time>
      </trkpt>
      <trkpt lat="50.19393" lon="4.35055">
        <ele>277.5</ele>
        <time>2016-8-7T10:21:11.000Z</time>
      </trkpt>
      <trkpt lat="50.19393" lon="4.35057">
        <ele>277.5</ele>
        <time>2016-8-7T10:21:11.000Z</time>
      </trkpt>
      <trkpt lat="50.19393" lon="4.35057">
        <ele>277.5</ele>
        <time>2016-8-7T10:21:11.000Z</time>
      </trkpt>
      <trkpt lat="50.19393" lon="4.35058">
        <ele>277.5</ele>
        <time>2016-8-7T10:21:11.000Z</time>
      </trkpt>
      <trkpt lat="50.19393" lon="4.35058">
        <ele>277.5</ele>
        <time>2016-8-7T10:21:11.000Z</time>
      </trkpt>
      <trkpt lat="50.19393" lon="4.35062">
        <ele>277.5</ele>
        <time>2016-8-7T10:21:11.000Z</time>
      </trkpt>
      <trkpt lat="50.19393" lon="4.35062">
        <ele>277.5</ele>
        <time>2016-8-7T10:21:11.000Z</time>
      </trkpt>
      <trkpt lat="50.19395" lon="4.35064">
        <ele>277.5</ele>
        <time>2016-8-7T10:21:11.000Z</time>
      </trkpt>
      <trkpt lat="50.19395" lon="4.35064">
        <ele>277.5</ele>
        <time>2016-8-7T10:21:11.000Z</time>
      </trkpt>
      <trkpt lat="50.19396" lon="4.35064">
        <ele>276.5</ele>
        <time>2016-8-7T10:21:11.000Z</time>
      </trkpt>
      <trkpt lat="50.19396" lon="4.35064">
        <ele>276.5</ele>
        <time>2016-8-7T10:21:11.000Z</time>
      </trkpt>
      <trkpt lat="50.19398" lon="4.35065">
        <ele>277.5</ele>
        <time>2016-8-7T10:21:11.000Z</time>
      </trkpt>
      <trkpt lat="50.19398" lon="4.35065">
        <ele>277.5</ele>
        <time>2016-8-7T10:21:11.000Z</time>
      </trkpt>
      <trkpt lat="50.194" lon="4.35066">
        <ele>277.5</ele>
        <time>2016-8-7T10:21:11.000Z</time>
      </trkpt>
      <trkpt lat="50.194" lon="4.35066">
        <ele>277.5</ele>
        <time>2016-8-7T10:21:11.000Z</time>
      </trkpt>
      <trkpt lat="50.19401" lon="4.35066">
        <ele>277.5</ele>
        <time>2016-8-7T10:21:11.000Z</time>
      </trkpt>
      <trkpt lat="50.19401" lon="4.35066">
        <ele>277.5</ele>
        <time>2016-8-7T10:21:11.000Z</time>
      </trkpt>
      <trkpt lat="50.19403" lon="4.35067">
        <ele>277.5</ele>
        <time>2016-8-7T10:21:11.000Z</time>
      </trkpt>
      <trkpt lat="50.19403" lon="4.35067">
        <ele>277.5</ele>
        <time>2016-8-7T10:21:11.000Z</time>
      </trkpt>
      <trkpt lat="50.19404" lon="4.3507">
        <ele>276.5</ele>
        <time>2016-8-7T10:21:11.000Z</time>
      </trkpt>
      <trkpt lat="50.19404" lon="4.3507">
        <ele>276.5</ele>
        <time>2016-8-7T10:21:11.000Z</time>
      </trkpt>
      <trkpt lat="50.19405" lon="4.35073">
        <ele>276.5</ele>
        <time>2016-8-7T10:21:11.000Z</time>
      </trkpt>
      <trkpt lat="50.19405" lon="4.35073">
        <ele>276.5</ele>
        <time>2016-8-7T10:21:11.000Z</time>
      </trkpt>
      <trkpt lat="50.19407" lon="4.35076">
        <ele>276.5</ele>
        <time>2016-8-7T10:21:11.000Z</time>
      </trkpt>
      <trkpt lat="50.19407" lon="4.35076">
        <ele>276.5</ele>
        <time>2016-8-7T10:21:11.000Z</time>
      </trkpt>
      <trkpt lat="50.19408" lon="4.3508">
        <ele>276.5</ele>
        <time>2016-8-7T10:21:11.000Z</time>
      </trkpt>
      <trkpt lat="50.19408" lon="4.3508">
        <ele>276.5</ele>
        <time>2016-8-7T10:21:11.000Z</time>
      </trkpt>
      <trkpt lat="50.19409" lon="4.35082">
        <ele>276.5</ele>
        <time>2016-8-7T10:21:11.000Z</time>
      </trkpt>
      <trkpt lat="50.19409" lon="4.35082">
        <ele>276.5</ele>
        <time>2016-8-7T10:21:11.000Z</time>
      </trkpt>
      <trkpt lat="50.19409" lon="4.35085">
        <ele>275.5</ele>
        <time>2016-8-7T10:21:11.000Z</time>
      </trkpt>
      <trkpt lat="50.19409" lon="4.35085">
        <ele>275.5</ele>
        <time>2016-8-7T10:21:11.000Z</time>
      </trkpt>
      <trkpt lat="50.1941" lon="4.35089">
        <ele>275.5</ele>
        <time>2016-8-7T10:21:11.000Z</time>
      </trkpt>
      <trkpt lat="50.1941" lon="4.35089">
        <ele>275.5</ele>
        <time>2016-8-7T10:21:11.000Z</time>
      </trkpt>
      <trkpt lat="50.1941" lon="4.35091">
        <ele>275.5</ele>
        <time>2016-8-7T10:21:11.000Z</time>
      </trkpt>
      <trkpt lat="50.1941" lon="4.35091">
        <ele>275.5</ele>
        <time>2016-8-7T10:23:21.000Z</time>
      </trkpt>
      <trkpt lat="50.19411" lon="4.35094">
        <ele>276.5</ele>
        <time>2016-8-7T10:23:21.000Z</time>
      </trkpt>
      <trkpt lat="50.19411" lon="4.35094">
        <ele>276.5</ele>
        <time>2016-8-7T10:23:21.000Z</time>
      </trkpt>
      <trkpt lat="50.19412" lon="4.35096">
        <ele>275.5</ele>
        <time>2016-8-7T10:23:21.000Z</time>
      </trkpt>
      <trkpt lat="50.19412" lon="4.35096">
        <ele>275.5</ele>
        <time>2016-8-7T10:23:21.000Z</time>
      </trkpt>
      <trkpt lat="50.19459" lon="4.35181">
        <ele>273</ele>
        <time>2016-8-7T10:23:21.000Z</time>
      </trkpt>
      <trkpt lat="50.19459" lon="4.35181">
        <ele>273</ele>
        <time>2016-8-7T10:23:21.000Z</time>
      </trkpt>
      <trkpt lat="50.1946" lon="4.35183">
        <ele>273</ele>
        <time>2016-8-7T10:23:21.000Z</time>
      </trkpt>
      <trkpt lat="50.1946" lon="4.35183">
        <ele>273</ele>
        <time>2016-8-7T10:23:21.000Z</time>
      </trkpt>
      <trkpt lat="50.19467" lon="4.35189">
        <ele>272.5</ele>
        <time>2016-8-7T10:23:21.000Z</time>
      </trkpt>
      <trkpt lat="50.19467" lon="4.35189">
        <ele>272.5</ele>
        <time>2016-8-7T10:23:21.000Z</time>
      </trkpt>
      <trkpt lat="50.19468" lon="4.3519">
        <ele>272.5</ele>
        <time>2016-8-7T10:23:21.000Z</time>
      </trkpt>
      <trkpt lat="50.19468" lon="4.3519">
        <ele>272.5</ele>
        <time>2016-8-7T10:23:21.000Z</time>
      </trkpt>
      <trkpt lat="50.19471" lon="4.35192">
        <ele>272.5</ele>
        <time>2016-8-7T10:23:21.000Z</time>
      </trkpt>
      <trkpt lat="50.19471" lon="4.35192">
        <ele>272.5</ele>
        <time>2016-8-7T10:23:21.000Z</time>
      </trkpt>
      <trkpt lat="50.19472" lon="4.35193">
        <ele>272.5</ele>
        <time>2016-8-7T10:23:21.000Z</time>
      </trkpt>
      <trkpt lat="50.19472" lon="4.35193">
        <ele>272.5</ele>
        <time>2016-8-7T10:23:21.000Z</time>
      </trkpt>
      <trkpt lat="50.19473" lon="4.35194">
        <ele>273</ele>
        <time>2016-8-7T10:23:21.000Z</time>
      </trkpt>
      <trkpt lat="50.19473" lon="4.35194">
        <ele>273</ele>
        <time>2016-8-7T10:23:21.000Z</time>
      </trkpt>
      <trkpt lat="50.19475" lon="4.35197">
        <ele>273</ele>
        <time>2016-8-7T10:23:21.000Z</time>
      </trkpt>
      <trkpt lat="50.19475" lon="4.35197">
        <ele>273</ele>
        <time>2016-8-7T10:23:21.000Z</time>
      </trkpt>
      <trkpt lat="50.19475" lon="4.35198">
        <ele>273</ele>
        <time>2016-8-7T10:23:21.000Z</time>
      </trkpt>
      <trkpt lat="50.19475" lon="4.35198">
        <ele>273</ele>
        <time>2016-8-7T10:23:21.000Z</time>
      </trkpt>
      <trkpt lat="50.19478" lon="4.35201">
        <ele>273</ele>
        <time>2016-8-7T10:23:21.000Z</time>
      </trkpt>
      <trkpt lat="50.19478" lon="4.35201">
        <ele>273</ele>
        <time>2016-8-7T10:23:21.000Z</time>
      </trkpt>
      <trkpt lat="50.1948" lon="4.35203">
        <ele>273.5</ele>
        <time>2016-8-7T10:23:21.000Z</time>
      </trkpt>
      <trkpt lat="50.1948" lon="4.35203">
        <ele>273.5</ele>
        <time>2016-8-7T10:23:21.000Z</time>
      </trkpt>
      <trkpt lat="50.19481" lon="4.35204">
        <ele>273.5</ele>
        <time>2016-8-7T10:23:21.000Z</time>
      </trkpt>
      <trkpt lat="50.19481" lon="4.35204">
        <ele>273.5</ele>
        <time>2016-8-7T10:23:21.000Z</time>
      </trkpt>
      <trkpt lat="50.19482" lon="4.35205">
        <ele>273.5</ele>
        <time>2016-8-7T10:23:21.000Z</time>
      </trkpt>
      <trkpt lat="50.19482" lon="4.35205">
        <ele>273.5</ele>
        <time>2016-8-7T10:23:21.000Z</time>
      </trkpt>
      <trkpt lat="50.19483" lon="4.35206">
        <ele>274</ele>
        <time>2016-8-7T10:23:21.000Z</time>
      </trkpt>
      <trkpt lat="50.19483" lon="4.35206">
        <ele>274</ele>
        <time>2016-8-7T10:23:21.000Z</time>
      </trkpt>
      <trkpt lat="50.19485" lon="4.35208">
        <ele>273.5</ele>
        <time>2016-8-7T10:23:21.000Z</time>
      </trkpt>
      <trkpt lat="50.19485" lon="4.35208">
        <ele>273.5</ele>
        <time>2016-8-7T10:23:21.000Z</time>
      </trkpt>
      <trkpt lat="50.19487" lon="4.35209">
        <ele>273.5</ele>
        <time>2016-8-7T10:23:21.000Z</time>
      </trkpt>
      <trkpt lat="50.19487" lon="4.35209">
        <ele>273.5</ele>
        <time>2016-8-7T10:23:21.000Z</time>
      </trkpt>
      <trkpt lat="50.19488" lon="4.35208">
        <ele>273</ele>
        <time>2016-8-7T10:23:21.000Z</time>
      </trkpt>
      <trkpt lat="50.19488" lon="4.35208">
        <ele>273</ele>
        <time>2016-8-7T10:23:21.000Z</time>
      </trkpt>
      <trkpt lat="50.19489" lon="4.35209">
        <ele>273</ele>
        <time>2016-8-7T10:23:21.000Z</time>
      </trkpt>
      <trkpt lat="50.19489" lon="4.35209">
        <ele>273</ele>
        <time>2016-8-7T10:23:21.000Z</time>
      </trkpt>
      <trkpt lat="50.19493" lon="4.3521">
        <ele>272.5</ele>
        <time>2016-8-7T10:23:21.000Z</time>
      </trkpt>
      <trkpt lat="50.19493" lon="4.3521">
        <ele>272.5</ele>
        <time>2016-8-7T10:23:21.000Z</time>
      </trkpt>
      <trkpt lat="50.19495" lon="4.35212">
        <ele>272.5</ele>
        <time>2016-8-7T10:23:21.000Z</time>
      </trkpt>
      <trkpt lat="50.19495" lon="4.35212">
        <ele>272.5</ele>
        <time>2016-8-7T10:23:21.000Z</time>
      </trkpt>
      <trkpt lat="50.19497" lon="4.35213">
        <ele>272.5</ele>
        <time>2016-8-7T10:23:21.000Z</time>
      </trkpt>
      <trkpt lat="50.19497" lon="4.35213">
        <ele>272.5</ele>
        <time>2016-8-7T10:23:21.000Z</time>
      </trkpt>
      <trkpt lat="50.19499" lon="4.35214">
        <ele>271.5</ele>
        <time>2016-8-7T10:23:21.000Z</time>
      </trkpt>
      <trkpt lat="50.19499" lon="4.35214">
        <ele>271.5</ele>
        <time>2016-8-7T10:23:21.000Z</time>
      </trkpt>
      <trkpt lat="50.195" lon="4.35215">
        <ele>271.5</ele>
        <time>2016-8-7T10:23:21.000Z</time>
      </trkpt>
      <trkpt lat="50.195" lon="4.35215">
        <ele>271.5</ele>
        <time>2016-8-7T10:23:21.000Z</time>
      </trkpt>
      <trkpt lat="50.19502" lon="4.35216">
        <ele>271.5</ele>
        <time>2016-8-7T10:23:21.000Z</time>
      </trkpt>
      <trkpt lat="50.19502" lon="4.35216">
        <ele>271.5</ele>
        <time>2016-8-7T10:23:21.000Z</time>
      </trkpt>
      <trkpt lat="50.19503" lon="4.35217">
        <ele>271.5</ele>
        <time>2016-8-7T10:23:21.000Z</time>
      </trkpt>
      <trkpt lat="50.19503" lon="4.35217">
        <ele>271.5</ele>
        <time>2016-8-7T10:23:21.000Z</time>
      </trkpt>
      <trkpt lat="50.19505" lon="4.35219">
        <ele>272</ele>
        <time>2016-8-7T10:23:21.000Z</time>
      </trkpt>
      <trkpt lat="50.19505" lon="4.35219">
        <ele>272</ele>
        <time>2016-8-7T10:23:21.000Z</time>
      </trkpt>
      <trkpt lat="50.19507" lon="4.35221">
        <ele>272</ele>
        <time>2016-8-7T10:23:21.000Z</time>
      </trkpt>
      <trkpt lat="50.19507" lon="4.35221">
        <ele>272</ele>
        <time>2016-8-7T10:23:21.000Z</time>
      </trkpt>
      <trkpt lat="50.1951" lon="4.35223">
        <ele>272</ele>
        <time>2016-8-7T10:23:21.000Z</time>
      </trkpt>
      <trkpt lat="50.1951" lon="4.35223">
        <ele>272</ele>
        <time>2016-8-7T10:23:21.000Z</time>
      </trkpt>
      <trkpt lat="50.19512" lon="4.35223">
        <ele>272</ele>
        <time>2016-8-7T10:23:21.000Z</time>
      </trkpt>
      <trkpt lat="50.19512" lon="4.35223">
        <ele>272</ele>
        <time>2016-8-7T10:23:21.000Z</time>
      </trkpt>
      <trkpt lat="50.19514" lon="4.35224">
        <ele>272</ele>
        <time>2016-8-7T10:23:21.000Z</time>
      </trkpt>
      <trkpt lat="50.19514" lon="4.35224">
        <ele>272</ele>
        <time>2016-8-7T10:23:21.000Z</time>
      </trkpt>
      <trkpt lat="50.19516" lon="4.35225">
        <ele>272</ele>
        <time>2016-8-7T10:23:21.000Z</time>
      </trkpt>
      <trkpt lat="50.19516" lon="4.35225">
        <ele>272</ele>
        <time>2016-8-7T10:23:21.000Z</time>
      </trkpt>
      <trkpt lat="50.19531" lon="4.3523">
        <ele>271.5</ele>
        <time>2016-8-7T10:23:21.000Z</time>
      </trkpt>
      <trkpt lat="50.19531" lon="4.3523">
        <ele>271.5</ele>
        <time>2016-8-7T10:23:21.000Z</time>
      </trkpt>
      <trkpt lat="50.19533" lon="4.35231">
        <ele>271</ele>
        <time>2016-8-7T10:23:21.000Z</time>
      </trkpt>
      <trkpt lat="50.19533" lon="4.35231">
        <ele>271</ele>
        <time>2016-8-7T10:23:21.000Z</time>
      </trkpt>
      <trkpt lat="50.19534" lon="4.35232">
        <ele>271</ele>
        <time>2016-8-7T10:23:21.000Z</time>
      </trkpt>
      <trkpt lat="50.19534" lon="4.35232">
        <ele>271</ele>
        <time>2016-8-7T10:23:21.000Z</time>
      </trkpt>
      <trkpt lat="50.19537" lon="4.35233">
        <ele>270.5</ele>
        <time>2016-8-7T10:23:21.000Z</time>
      </trkpt>
      <trkpt lat="50.19537" lon="4.35233">
        <ele>270.5</ele>
        <time>2016-8-7T10:23:21.000Z</time>
      </trkpt>
      <trkpt lat="50.1954" lon="4.35235">
        <ele>270.5</ele>
        <time>2016-8-7T10:23:21.000Z</time>
      </trkpt>
      <trkpt lat="50.1954" lon="4.35235">
        <ele>270.5</ele>
        <time>2016-8-7T10:23:21.000Z</time>
      </trkpt>
      <trkpt lat="50.19541" lon="4.35236">
        <ele>270.5</ele>
        <time>2016-8-7T10:23:21.000Z</time>
      </trkpt>
      <trkpt lat="50.19541" lon="4.35236">
        <ele>270.5</ele>
        <time>2016-8-7T10:23:21.000Z</time>
      </trkpt>
      <trkpt lat="50.19543" lon="4.35236">
        <ele>270.5</ele>
        <time>2016-8-7T10:23:21.000Z</time>
      </trkpt>
      <trkpt lat="50.19543" lon="4.35236">
        <ele>270.5</ele>
        <time>2016-8-7T10:23:21.000Z</time>
      </trkpt>
      <trkpt lat="50.19544" lon="4.35237">
        <ele>270</ele>
        <time>2016-8-7T10:23:21.000Z</time>
      </trkpt>
      <trkpt lat="50.19544" lon="4.35237">
        <ele>270</ele>
        <time>2016-8-7T10:23:21.000Z</time>
      </trkpt>
      <trkpt lat="50.19547" lon="4.35239">
        <ele>270.5</ele>
        <time>2016-8-7T10:23:21.000Z</time>
      </trkpt>
      <trkpt lat="50.19547" lon="4.35239">
        <ele>270.5</ele>
        <time>2016-8-7T10:23:21.000Z</time>
      </trkpt>
      <trkpt lat="50.19548" lon="4.3524">
        <ele>270.5</ele>
        <time>2016-8-7T10:23:21.000Z</time>
      </trkpt>
      <trkpt lat="50.19548" lon="4.3524">
        <ele>270.5</ele>
        <time>2016-8-7T10:23:21.000Z</time>
      </trkpt>
      <trkpt lat="50.19551" lon="4.35241">
        <ele>270</ele>
        <time>2016-8-7T10:23:21.000Z</time>
      </trkpt>
      <trkpt lat="50.19551" lon="4.35241">
        <ele>270</ele>
        <time>2016-8-7T10:23:21.000Z</time>
      </trkpt>
      <trkpt lat="50.19558" lon="4.35245">
        <ele>270</ele>
        <time>2016-8-7T10:23:21.000Z</time>
      </trkpt>
      <trkpt lat="50.19558" lon="4.35245">
        <ele>270</ele>
        <time>2016-8-7T10:23:21.000Z</time>
      </trkpt>
      <trkpt lat="50.19569" lon="4.35249">
        <ele>269</ele>
        <time>2016-8-7T10:23:21.000Z</time>
      </trkpt>
      <trkpt lat="50.19569" lon="4.35249">
        <ele>269</ele>
        <time>2016-8-7T10:23:21.000Z</time>
      </trkpt>
      <trkpt lat="50.19571" lon="4.3525">
        <ele>269</ele>
        <time>2016-8-7T10:23:21.000Z</time>
      </trkpt>
      <trkpt lat="50.19571" lon="4.3525">
        <ele>269</ele>
        <time>2016-8-7T10:23:21.000Z</time>
      </trkpt>
      <trkpt lat="50.19572" lon="4.35251">
        <ele>269</ele>
        <time>2016-8-7T10:23:21.000Z</time>
      </trkpt>
      <trkpt lat="50.19572" lon="4.35251">
        <ele>269</ele>
        <time>2016-8-7T10:23:21.000Z</time>
      </trkpt>
      <trkpt lat="50.19574" lon="4.35251">
        <ele>269</ele>
        <time>2016-8-7T10:23:21.000Z</time>
      </trkpt>
      <trkpt lat="50.19574" lon="4.35251">
        <ele>269</ele>
        <time>2016-8-7T10:23:21.000Z</time>
      </trkpt>
      <trkpt lat="50.19576" lon="4.35252">
        <ele>268.5</ele>
        <time>2016-8-7T10:23:21.000Z</time>
      </trkpt>
      <trkpt lat="50.19576" lon="4.35252">
        <ele>268.5</ele>
        <time>2016-8-7T10:23:21.000Z</time>
      </trkpt>
      <trkpt lat="50.19578" lon="4.35252">
        <ele>268.5</ele>
        <time>2016-8-7T10:25:14.000Z</time>
      </trkpt>
      <trkpt lat="50.19578" lon="4.35252">
        <ele>268.5</ele>
        <time>2016-8-7T10:25:14.000Z</time>
      </trkpt>
      <trkpt lat="50.19629" lon="4.35266">
        <ele>266.5</ele>
        <time>2016-8-7T10:25:14.000Z</time>
      </trkpt>
      <trkpt lat="50.19629" lon="4.35266">
        <ele>266.5</ele>
        <time>2016-8-7T10:25:14.000Z</time>
      </trkpt>
      <trkpt lat="50.19631" lon="4.35266">
        <ele>266.5</ele>
        <time>2016-8-7T10:25:14.000Z</time>
      </trkpt>
      <trkpt lat="50.19631" lon="4.35266">
        <ele>266.5</ele>
        <time>2016-8-7T10:25:14.000Z</time>
      </trkpt>
      <trkpt lat="50.19632" lon="4.35266">
        <ele>266.5</ele>
        <time>2016-8-7T10:25:14.000Z</time>
      </trkpt>
      <trkpt lat="50.19632" lon="4.35266">
        <ele>266.5</ele>
        <time>2016-8-7T10:25:14.000Z</time>
      </trkpt>
      <trkpt lat="50.19634" lon="4.35266">
        <ele>265.5</ele>
        <time>2016-8-7T10:25:14.000Z</time>
      </trkpt>
      <trkpt lat="50.19634" lon="4.35266">
        <ele>265.5</ele>
        <time>2016-8-7T10:25:14.000Z</time>
      </trkpt>
      <trkpt lat="50.19636" lon="4.35266">
        <ele>265.5</ele>
        <time>2016-8-7T10:25:14.000Z</time>
      </trkpt>
      <trkpt lat="50.19636" lon="4.35266">
        <ele>265.5</ele>
        <time>2016-8-7T10:25:14.000Z</time>
      </trkpt>
      <trkpt lat="50.19638" lon="4.35265">
        <ele>265.5</ele>
        <time>2016-8-7T10:25:14.000Z</time>
      </trkpt>
      <trkpt lat="50.19638" lon="4.35265">
        <ele>265.5</ele>
        <time>2016-8-7T10:25:14.000Z</time>
      </trkpt>
      <trkpt lat="50.1964" lon="4.35265">
        <ele>265.5</ele>
        <time>2016-8-7T10:25:14.000Z</time>
      </trkpt>
      <trkpt lat="50.1964" lon="4.35265">
        <ele>265.5</ele>
        <time>2016-8-7T10:25:14.000Z</time>
      </trkpt>
      <trkpt lat="50.19643" lon="4.35264">
        <ele>265.5</ele>
        <time>2016-8-7T10:25:14.000Z</time>
      </trkpt>
      <trkpt lat="50.19643" lon="4.35264">
        <ele>265.5</ele>
        <time>2016-8-7T10:25:14.000Z</time>
      </trkpt>
      <trkpt lat="50.19645" lon="4.35262">
        <ele>266.5</ele>
        <time>2016-8-7T10:25:14.000Z</time>
      </trkpt>
      <trkpt lat="50.19645" lon="4.35262">
        <ele>266.5</ele>
        <time>2016-8-7T10:25:14.000Z</time>
      </trkpt>
      <trkpt lat="50.19647" lon="4.35262">
        <ele>266.5</ele>
        <time>2016-8-7T10:25:14.000Z</time>
      </trkpt>
      <trkpt lat="50.19647" lon="4.35262">
        <ele>266.5</ele>
        <time>2016-8-7T10:25:14.000Z</time>
      </trkpt>
      <trkpt lat="50.19648" lon="4.35261">
        <ele>266.5</ele>
        <time>2016-8-7T10:25:14.000Z</time>
      </trkpt>
      <trkpt lat="50.19648" lon="4.35261">
        <ele>266.5</ele>
        <time>2016-8-7T10:25:14.000Z</time>
      </trkpt>
      <trkpt lat="50.19651" lon="4.35261">
        <ele>266</ele>
        <time>2016-8-7T10:25:14.000Z</time>
      </trkpt>
      <trkpt lat="50.19651" lon="4.35261">
        <ele>266</ele>
        <time>2016-8-7T10:25:14.000Z</time>
      </trkpt>
      <trkpt lat="50.19653" lon="4.35261">
        <ele>266</ele>
        <time>2016-8-7T10:25:14.000Z</time>
      </trkpt>
      <trkpt lat="50.19653" lon="4.35261">
        <ele>266</ele>
        <time>2016-8-7T10:25:14.000Z</time>
      </trkpt>
      <trkpt lat="50.19656" lon="4.35261">
        <ele>266</ele>
        <time>2016-8-7T10:25:14.000Z</time>
      </trkpt>
      <trkpt lat="50.19656" lon="4.35261">
        <ele>266</ele>
        <time>2016-8-7T10:25:14.000Z</time>
      </trkpt>
      <trkpt lat="50.19657" lon="4.35264">
        <ele>263.5</ele>
        <time>2016-8-7T10:25:14.000Z</time>
      </trkpt>
      <trkpt lat="50.19657" lon="4.35264">
        <ele>263.5</ele>
        <time>2016-8-7T10:25:14.000Z</time>
      </trkpt>
      <trkpt lat="50.19659" lon="4.35263">
        <ele>265</ele>
        <time>2016-8-7T10:25:14.000Z</time>
      </trkpt>
      <trkpt lat="50.19659" lon="4.35263">
        <ele>265</ele>
        <time>2016-8-7T10:25:14.000Z</time>
      </trkpt>
      <trkpt lat="50.19662" lon="4.35263">
        <ele>264.5</ele>
        <time>2016-8-7T10:25:14.000Z</time>
      </trkpt>
      <trkpt lat="50.19662" lon="4.35263">
        <ele>264.5</ele>
        <time>2016-8-7T10:25:14.000Z</time>
      </trkpt>
      <trkpt lat="50.19664" lon="4.35262">
        <ele>264</ele>
        <time>2016-8-7T10:25:14.000Z</time>
      </trkpt>
      <trkpt lat="50.19664" lon="4.35262">
        <ele>264</ele>
        <time>2016-8-7T10:25:14.000Z</time>
      </trkpt>
      <trkpt lat="50.19665" lon="4.35262">
        <ele>264</ele>
        <time>2016-8-7T10:25:14.000Z</time>
      </trkpt>
      <trkpt lat="50.19665" lon="4.35262">
        <ele>264</ele>
        <time>2016-8-7T10:25:14.000Z</time>
      </trkpt>
      <trkpt lat="50.19667" lon="4.35261">
        <ele>264</ele>
        <time>2016-8-7T10:25:14.000Z</time>
      </trkpt>
      <trkpt lat="50.19667" lon="4.35261">
        <ele>264</ele>
        <time>2016-8-7T10:25:14.000Z</time>
      </trkpt>
      <trkpt lat="50.19668" lon="4.3526">
        <ele>264</ele>
        <time>2016-8-7T10:25:14.000Z</time>
      </trkpt>
      <trkpt lat="50.19668" lon="4.3526">
        <ele>264</ele>
        <time>2016-8-7T10:25:14.000Z</time>
      </trkpt>
      <trkpt lat="50.1967" lon="4.3526">
        <ele>264</ele>
        <time>2016-8-7T10:25:14.000Z</time>
      </trkpt>
      <trkpt lat="50.1967" lon="4.3526">
        <ele>264</ele>
        <time>2016-8-7T10:25:14.000Z</time>
      </trkpt>
      <trkpt lat="50.19673" lon="4.35259">
        <ele>264</ele>
        <time>2016-8-7T10:25:14.000Z</time>
      </trkpt>
      <trkpt lat="50.19673" lon="4.35259">
        <ele>264</ele>
        <time>2016-8-7T10:25:14.000Z</time>
      </trkpt>
      <trkpt lat="50.19675" lon="4.35259">
        <ele>264</ele>
        <time>2016-8-7T10:25:14.000Z</time>
      </trkpt>
      <trkpt lat="50.19675" lon="4.35259">
        <ele>264</ele>
        <time>2016-8-7T10:25:14.000Z</time>
      </trkpt>
      <trkpt lat="50.19676" lon="4.35259">
        <ele>264</ele>
        <time>2016-8-7T10:25:14.000Z</time>
      </trkpt>
      <trkpt lat="50.19676" lon="4.35259">
        <ele>264</ele>
        <time>2016-8-7T10:25:14.000Z</time>
      </trkpt>
      <trkpt lat="50.19679" lon="4.35259">
        <ele>264</ele>
        <time>2016-8-7T10:25:14.000Z</time>
      </trkpt>
      <trkpt lat="50.19679" lon="4.35259">
        <ele>264</ele>
        <time>2016-8-7T10:25:14.000Z</time>
      </trkpt>
      <trkpt lat="50.19687" lon="4.35261">
        <ele>263.5</ele>
        <time>2016-8-7T10:25:14.000Z</time>
      </trkpt>
      <trkpt lat="50.19687" lon="4.35261">
        <ele>263.5</ele>
        <time>2016-8-7T10:25:14.000Z</time>
      </trkpt>
      <trkpt lat="50.1969" lon="4.35261">
        <ele>263.5</ele>
        <time>2016-8-7T10:25:14.000Z</time>
      </trkpt>
      <trkpt lat="50.1969" lon="4.35261">
        <ele>263.5</ele>
        <time>2016-8-7T10:25:14.000Z</time>
      </trkpt>
      <trkpt lat="50.19692" lon="4.3526">
        <ele>263.5</ele>
        <time>2016-8-7T10:25:14.000Z</time>
      </trkpt>
      <trkpt lat="50.19692" lon="4.3526">
        <ele>263.5</ele>
        <time>2016-8-7T10:25:14.000Z</time>
      </trkpt>
      <trkpt lat="50.19693" lon="4.3526">
        <ele>263.5</ele>
        <time>2016-8-7T10:25:14.000Z</time>
      </trkpt>
      <trkpt lat="50.19693" lon="4.3526">
        <ele>263.5</ele>
        <time>2016-8-7T10:25:14.000Z</time>
      </trkpt>
      <trkpt lat="50.19695" lon="4.3526">
        <ele>265</ele>
        <time>2016-8-7T10:25:14.000Z</time>
      </trkpt>
      <trkpt lat="50.19695" lon="4.3526">
        <ele>265</ele>
        <time>2016-8-7T10:25:14.000Z</time>
      </trkpt>
      <trkpt lat="50.19697" lon="4.35259">
        <ele>264.5</ele>
        <time>2016-8-7T10:25:14.000Z</time>
      </trkpt>
      <trkpt lat="50.19697" lon="4.35259">
        <ele>264.5</ele>
        <time>2016-8-7T10:25:14.000Z</time>
      </trkpt>
      <trkpt lat="50.19699" lon="4.35258">
        <ele>264.5</ele>
        <time>2016-8-7T10:25:14.000Z</time>
      </trkpt>
      <trkpt lat="50.19699" lon="4.35258">
        <ele>264.5</ele>
        <time>2016-8-7T10:25:14.000Z</time>
      </trkpt>
      <trkpt lat="50.19701" lon="4.35257">
        <ele>265</ele>
        <time>2016-8-7T10:25:14.000Z</time>
      </trkpt>
      <trkpt lat="50.19701" lon="4.35257">
        <ele>265</ele>
        <time>2016-8-7T10:25:14.000Z</time>
      </trkpt>
      <trkpt lat="50.19705" lon="4.35256">
        <ele>265.5</ele>
        <time>2016-8-7T10:25:14.000Z</time>
      </trkpt>
      <trkpt lat="50.19705" lon="4.35256">
        <ele>265.5</ele>
        <time>2016-8-7T10:25:14.000Z</time>
      </trkpt>
      <trkpt lat="50.1971" lon="4.35255">
        <ele>265.5</ele>
        <time>2016-8-7T10:25:14.000Z</time>
      </trkpt>
      <trkpt lat="50.1971" lon="4.35255">
        <ele>265.5</ele>
        <time>2016-8-7T10:25:14.000Z</time>
      </trkpt>
      <trkpt lat="50.19712" lon="4.35255">
        <ele>266</ele>
        <time>2016-8-7T10:25:14.000Z</time>
      </trkpt>
      <trkpt lat="50.19712" lon="4.35255">
        <ele>266</ele>
        <time>2016-8-7T10:25:14.000Z</time>
      </trkpt>
      <trkpt lat="50.19716" lon="4.35253">
        <ele>265.5</ele>
        <time>2016-8-7T10:25:14.000Z</time>
      </trkpt>
      <trkpt lat="50.19716" lon="4.35253">
        <ele>265.5</ele>
        <time>2016-8-7T10:25:14.000Z</time>
      </trkpt>
      <trkpt lat="50.19718" lon="4.35253">
        <ele>265.5</ele>
        <time>2016-8-7T10:25:14.000Z</time>
      </trkpt>
      <trkpt lat="50.19718" lon="4.35253">
        <ele>265.5</ele>
        <time>2016-8-7T10:25:14.000Z</time>
      </trkpt>
      <trkpt lat="50.19719" lon="4.35253">
        <ele>265.5</ele>
        <time>2016-8-7T10:25:14.000Z</time>
      </trkpt>
      <trkpt lat="50.19719" lon="4.35253">
        <ele>265.5</ele>
        <time>2016-8-7T10:25:14.000Z</time>
      </trkpt>
      <trkpt lat="50.1972" lon="4.35252">
        <ele>265</ele>
        <time>2016-8-7T10:25:14.000Z</time>
      </trkpt>
      <trkpt lat="50.1972" lon="4.35252">
        <ele>265</ele>
        <time>2016-8-7T10:25:14.000Z</time>
      </trkpt>
      <trkpt lat="50.19727" lon="4.35249">
        <ele>265</ele>
        <time>2016-8-7T10:25:14.000Z</time>
      </trkpt>
      <trkpt lat="50.19727" lon="4.35249">
        <ele>265</ele>
        <time>2016-8-7T10:25:14.000Z</time>
      </trkpt>
      <trkpt lat="50.19729" lon="4.35249">
        <ele>265</ele>
        <time>2016-8-7T10:25:14.000Z</time>
      </trkpt>
      <trkpt lat="50.19729" lon="4.35249">
        <ele>265</ele>
        <time>2016-8-7T10:25:14.000Z</time>
      </trkpt>
      <trkpt lat="50.19731" lon="4.35249">
        <ele>265</ele>
        <time>2016-8-7T10:25:14.000Z</time>
      </trkpt>
      <trkpt lat="50.19731" lon="4.35249">
        <ele>265</ele>
        <time>2016-8-7T10:25:14.000Z</time>
      </trkpt>
      <trkpt lat="50.19733" lon="4.35248">
        <ele>265</ele>
        <time>2016-8-7T10:25:14.000Z</time>
      </trkpt>
      <trkpt lat="50.19733" lon="4.35248">
        <ele>265</ele>
        <time>2016-8-7T10:25:14.000Z</time>
      </trkpt>
      <trkpt lat="50.19734" lon="4.35248">
        <ele>265</ele>
        <time>2016-8-7T10:25:14.000Z</time>
      </trkpt>
      <trkpt lat="50.19734" lon="4.35248">
        <ele>265</ele>
        <time>2016-8-7T10:25:14.000Z</time>
      </trkpt>
      <trkpt lat="50.19737" lon="4.35247">
        <ele>265</ele>
        <time>2016-8-7T10:25:14.000Z</time>
      </trkpt>
      <trkpt lat="50.19737" lon="4.35247">
        <ele>265</ele>
        <time>2016-8-7T10:25:14.000Z</time>
      </trkpt>
      <trkpt lat="50.19739" lon="4.35247">
        <ele>265</ele>
        <time>2016-8-7T10:25:14.000Z</time>
      </trkpt>
      <trkpt lat="50.19739" lon="4.35247">
        <ele>265</ele>
        <time>2016-8-7T10:25:14.000Z</time>
      </trkpt>
      <trkpt lat="50.1974" lon="4.35246">
        <ele>265</ele>
        <time>2016-8-7T10:25:14.000Z</time>
      </trkpt>
      <trkpt lat="50.1974" lon="4.35246">
        <ele>265</ele>
        <time>2016-8-7T10:25:14.000Z</time>
      </trkpt>
      <trkpt lat="50.19742" lon="4.35246">
        <ele>264.5</ele>
        <time>2016-8-7T10:25:14.000Z</time>
      </trkpt>
      <trkpt lat="50.19742" lon="4.35246">
        <ele>264.5</ele>
        <time>2016-8-7T10:26:23.000Z</time>
      </trkpt>
      <trkpt lat="50.19744" lon="4.35246">
        <ele>264.5</ele>
        <time>2016-8-7T10:26:23.000Z</time>
      </trkpt>
      <trkpt lat="50.19744" lon="4.35246">
        <ele>264.5</ele>
        <time>2016-8-7T10:26:23.000Z</time>
      </trkpt>
      <trkpt lat="50.19746" lon="4.35247">
        <ele>264</ele>
        <time>2016-8-7T10:26:23.000Z</time>
      </trkpt>
      <trkpt lat="50.19746" lon="4.35247">
        <ele>264</ele>
        <time>2016-8-7T10:26:23.000Z</time>
      </trkpt>
      <trkpt lat="50.19747" lon="4.35248">
        <ele>264.5</ele>
        <time>2016-8-7T10:26:23.000Z</time>
      </trkpt>
      <trkpt lat="50.19747" lon="4.35248">
        <ele>264.5</ele>
        <time>2016-8-7T10:26:23.000Z</time>
      </trkpt>
      <trkpt lat="50.19748" lon="4.35248">
        <ele>264</ele>
        <time>2016-8-7T10:26:23.000Z</time>
      </trkpt>
      <trkpt lat="50.19748" lon="4.35248">
        <ele>264</ele>
        <time>2016-8-7T10:26:23.000Z</time>
      </trkpt>
      <trkpt lat="50.19751" lon="4.3525">
        <ele>264</ele>
        <time>2016-8-7T10:26:23.000Z</time>
      </trkpt>
      <trkpt lat="50.19751" lon="4.3525">
        <ele>264</ele>
        <time>2016-8-7T10:26:23.000Z</time>
      </trkpt>
      <trkpt lat="50.19753" lon="4.35252">
        <ele>264</ele>
        <time>2016-8-7T10:26:23.000Z</time>
      </trkpt>
      <trkpt lat="50.19753" lon="4.35252">
        <ele>264</ele>
        <time>2016-8-7T10:26:23.000Z</time>
      </trkpt>
      <trkpt lat="50.19754" lon="4.35253">
        <ele>264</ele>
        <time>2016-8-7T10:26:23.000Z</time>
      </trkpt>
      <trkpt lat="50.19754" lon="4.35253">
        <ele>264</ele>
        <time>2016-8-7T10:26:23.000Z</time>
      </trkpt>
      <trkpt lat="50.19755" lon="4.35254">
        <ele>264</ele>
        <time>2016-8-7T10:26:23.000Z</time>
      </trkpt>
      <trkpt lat="50.19755" lon="4.35254">
        <ele>264</ele>
        <time>2016-8-7T10:26:23.000Z</time>
      </trkpt>
      <trkpt lat="50.19756" lon="4.35256">
        <ele>263.5</ele>
        <time>2016-8-7T10:26:23.000Z</time>
      </trkpt>
      <trkpt lat="50.19756" lon="4.35256">
        <ele>263.5</ele>
        <time>2016-8-7T10:26:23.000Z</time>
      </trkpt>
      <trkpt lat="50.19757" lon="4.35258">
        <ele>263.5</ele>
        <time>2016-8-7T10:26:23.000Z</time>
      </trkpt>
      <trkpt lat="50.19757" lon="4.35258">
        <ele>263.5</ele>
        <time>2016-8-7T10:26:23.000Z</time>
      </trkpt>
      <trkpt lat="50.19758" lon="4.35261">
        <ele>263.5</ele>
        <time>2016-8-7T10:26:23.000Z</time>
      </trkpt>
      <trkpt lat="50.19758" lon="4.35261">
        <ele>263.5</ele>
        <time>2016-8-7T10:26:23.000Z</time>
      </trkpt>
      <trkpt lat="50.19759" lon="4.35263">
        <ele>263</ele>
        <time>2016-8-7T10:26:23.000Z</time>
      </trkpt>
      <trkpt lat="50.19759" lon="4.35263">
        <ele>263</ele>
        <time>2016-8-7T10:26:23.000Z</time>
      </trkpt>
      <trkpt lat="50.1976" lon="4.35264">
        <ele>263</ele>
        <time>2016-8-7T10:26:23.000Z</time>
      </trkpt>
      <trkpt lat="50.1976" lon="4.35264">
        <ele>263</ele>
        <time>2016-8-7T10:26:23.000Z</time>
      </trkpt>
      <trkpt lat="50.19763" lon="4.35267">
        <ele>263</ele>
        <time>2016-8-7T10:26:23.000Z</time>
      </trkpt>
      <trkpt lat="50.19763" lon="4.35267">
        <ele>263</ele>
        <time>2016-8-7T10:26:23.000Z</time>
      </trkpt>
      <trkpt lat="50.19764" lon="4.35269">
        <ele>263</ele>
        <time>2016-8-7T10:26:23.000Z</time>
      </trkpt>
      <trkpt lat="50.19764" lon="4.35269">
        <ele>263</ele>
        <time>2016-8-7T10:26:23.000Z</time>
      </trkpt>
      <trkpt lat="50.19766" lon="4.35271">
        <ele>263</ele>
        <time>2016-8-7T10:26:23.000Z</time>
      </trkpt>
      <trkpt lat="50.19766" lon="4.35271">
        <ele>263</ele>
        <time>2016-8-7T10:26:23.000Z</time>
      </trkpt>
      <trkpt lat="50.19768" lon="4.35274">
        <ele>262.5</ele>
        <time>2016-8-7T10:26:23.000Z</time>
      </trkpt>
      <trkpt lat="50.19768" lon="4.35274">
        <ele>262.5</ele>
        <time>2016-8-7T10:26:23.000Z</time>
      </trkpt>
      <trkpt lat="50.19768" lon="4.35275">
        <ele>262.5</ele>
        <time>2016-8-7T10:26:23.000Z</time>
      </trkpt>
      <trkpt lat="50.19768" lon="4.35275">
        <ele>262.5</ele>
        <time>2016-8-7T10:26:23.000Z</time>
      </trkpt>
      <trkpt lat="50.19769" lon="4.35275">
        <ele>262.5</ele>
        <time>2016-8-7T10:26:23.000Z</time>
      </trkpt>
      <trkpt lat="50.19769" lon="4.35275">
        <ele>262.5</ele>
        <time>2016-8-7T10:26:23.000Z</time>
      </trkpt>
      <trkpt lat="50.19769" lon="4.35277">
        <ele>262</ele>
        <time>2016-8-7T10:26:23.000Z</time>
      </trkpt>
      <trkpt lat="50.19769" lon="4.35277">
        <ele>262</ele>
        <time>2016-8-7T10:26:23.000Z</time>
      </trkpt>
      <trkpt lat="50.19769" lon="4.3528">
        <ele>262.5</ele>
        <time>2016-8-7T10:26:23.000Z</time>
      </trkpt>
      <trkpt lat="50.19769" lon="4.3528">
        <ele>262.5</ele>
        <time>2016-8-7T10:26:23.000Z</time>
      </trkpt>
      <trkpt lat="50.19771" lon="4.3528">
        <ele>262.5</ele>
        <time>2016-8-7T10:26:23.000Z</time>
      </trkpt>
      <trkpt lat="50.19771" lon="4.3528">
        <ele>262.5</ele>
        <time>2016-8-7T10:26:23.000Z</time>
      </trkpt>
      <trkpt lat="50.19773" lon="4.35282">
        <ele>264</ele>
        <time>2016-8-7T10:26:23.000Z</time>
      </trkpt>
      <trkpt lat="50.19773" lon="4.35282">
        <ele>264</ele>
        <time>2016-8-7T10:26:23.000Z</time>
      </trkpt>
      <trkpt lat="50.19774" lon="4.35284">
        <ele>264</ele>
        <time>2016-8-7T10:26:23.000Z</time>
      </trkpt>
      <trkpt lat="50.19774" lon="4.35284">
        <ele>264</ele>
        <time>2016-8-7T10:26:23.000Z</time>
      </trkpt>
      <trkpt lat="50.19775" lon="4.35285">
        <ele>265</ele>
        <time>2016-8-7T10:26:23.000Z</time>
      </trkpt>
      <trkpt lat="50.19775" lon="4.35285">
        <ele>265</ele>
        <time>2016-8-7T10:26:23.000Z</time>
      </trkpt>
      <trkpt lat="50.19777" lon="4.35287">
        <ele>266</ele>
        <time>2016-8-7T10:26:23.000Z</time>
      </trkpt>
      <trkpt lat="50.19777" lon="4.35287">
        <ele>266</ele>
        <time>2016-8-7T10:26:23.000Z</time>
      </trkpt>
      <trkpt lat="50.19778" lon="4.35289">
        <ele>265.5</ele>
        <time>2016-8-7T10:26:23.000Z</time>
      </trkpt>
      <trkpt lat="50.19778" lon="4.35289">
        <ele>265.5</ele>
        <time>2016-8-7T10:26:23.000Z</time>
      </trkpt>
      <trkpt lat="50.1978" lon="4.35291">
        <ele>265.5</ele>
        <time>2016-8-7T10:26:23.000Z</time>
      </trkpt>
      <trkpt lat="50.1978" lon="4.35291">
        <ele>265.5</ele>
        <time>2016-8-7T10:26:23.000Z</time>
      </trkpt>
      <trkpt lat="50.19781" lon="4.35293">
        <ele>265.5</ele>
        <time>2016-8-7T10:26:23.000Z</time>
      </trkpt>
      <trkpt lat="50.19781" lon="4.35293">
        <ele>265.5</ele>
        <time>2016-8-7T10:26:23.000Z</time>
      </trkpt>
      <trkpt lat="50.19782" lon="4.35296">
        <ele>265</ele>
        <time>2016-8-7T10:26:23.000Z</time>
      </trkpt>
      <trkpt lat="50.19782" lon="4.35296">
        <ele>265</ele>
        <time>2016-8-7T10:26:23.000Z</time>
      </trkpt>
      <trkpt lat="50.19784" lon="4.35299">
        <ele>265.5</ele>
        <time>2016-8-7T10:26:23.000Z</time>
      </trkpt>
      <trkpt lat="50.19784" lon="4.35299">
        <ele>265.5</ele>
        <time>2016-8-7T10:26:23.000Z</time>
      </trkpt>
      <trkpt lat="50.19786" lon="4.35302">
        <ele>265.5</ele>
        <time>2016-8-7T10:26:23.000Z</time>
      </trkpt>
      <trkpt lat="50.19786" lon="4.35302">
        <ele>265.5</ele>
        <time>2016-8-7T10:26:23.000Z</time>
      </trkpt>
      <trkpt lat="50.19787" lon="4.35303">
        <ele>265</ele>
        <time>2016-8-7T10:26:23.000Z</time>
      </trkpt>
      <trkpt lat="50.19787" lon="4.35303">
        <ele>265</ele>
        <time>2016-8-7T10:26:23.000Z</time>
      </trkpt>
      <trkpt lat="50.19789" lon="4.35305">
        <ele>265</ele>
        <time>2016-8-7T10:26:23.000Z</time>
      </trkpt>
      <trkpt lat="50.19789" lon="4.35305">
        <ele>265</ele>
        <time>2016-8-7T10:26:23.000Z</time>
      </trkpt>
      <trkpt lat="50.1979" lon="4.35308">
        <ele>265.5</ele>
        <time>2016-8-7T10:26:23.000Z</time>
      </trkpt>
      <trkpt lat="50.1979" lon="4.35308">
        <ele>265.5</ele>
        <time>2016-8-7T10:26:23.000Z</time>
      </trkpt>
      <trkpt lat="50.19791" lon="4.3531">
        <ele>266</ele>
        <time>2016-8-7T10:26:23.000Z</time>
      </trkpt>
      <trkpt lat="50.19791" lon="4.3531">
        <ele>266</ele>
        <time>2016-8-7T10:26:23.000Z</time>
      </trkpt>
      <trkpt lat="50.19793" lon="4.35311">
        <ele>265.5</ele>
        <time>2016-8-7T10:26:23.000Z</time>
      </trkpt>
      <trkpt lat="50.19793" lon="4.35311">
        <ele>265.5</ele>
        <time>2016-8-7T10:26:23.000Z</time>
      </trkpt>
      <trkpt lat="50.19795" lon="4.35313">
        <ele>265.5</ele>
        <time>2016-8-7T10:26:23.000Z</time>
      </trkpt>
      <trkpt lat="50.19795" lon="4.35313">
        <ele>265.5</ele>
        <time>2016-8-7T10:26:23.000Z</time>
      </trkpt>
      <trkpt lat="50.19796" lon="4.35315">
        <ele>265.5</ele>
        <time>2016-8-7T10:26:23.000Z</time>
      </trkpt>
      <trkpt lat="50.19796" lon="4.35315">
        <ele>265.5</ele>
        <time>2016-8-7T10:26:23.000Z</time>
      </trkpt>
      <trkpt lat="50.19797" lon="4.35319">
        <ele>265.5</ele>
        <time>2016-8-7T10:26:23.000Z</time>
      </trkpt>
      <trkpt lat="50.19797" lon="4.35319">
        <ele>265.5</ele>
        <time>2016-8-7T10:26:23.000Z</time>
      </trkpt>
      <trkpt lat="50.19798" lon="4.35321">
        <ele>264.5</ele>
        <time>2016-8-7T10:26:23.000Z</time>
      </trkpt>
      <trkpt lat="50.19798" lon="4.35321">
        <ele>264.5</ele>
        <time>2016-8-7T10:26:23.000Z</time>
      </trkpt>
      <trkpt lat="50.198" lon="4.35324">
        <ele>264.5</ele>
        <time>2016-8-7T10:26:23.000Z</time>
      </trkpt>
      <trkpt lat="50.198" lon="4.35324">
        <ele>264.5</ele>
        <time>2016-8-7T10:26:23.000Z</time>
      </trkpt>
      <trkpt lat="50.19801" lon="4.35327">
        <ele>265</ele>
        <time>2016-8-7T10:26:23.000Z</time>
      </trkpt>
      <trkpt lat="50.19801" lon="4.35327">
        <ele>265</ele>
        <time>2016-8-7T10:26:23.000Z</time>
      </trkpt>
      <trkpt lat="50.19802" lon="4.35328">
        <ele>265</ele>
        <time>2016-8-7T10:26:23.000Z</time>
      </trkpt>
      <trkpt lat="50.19802" lon="4.35328">
        <ele>265</ele>
        <time>2016-8-7T10:26:23.000Z</time>
      </trkpt>
      <trkpt lat="50.19804" lon="4.35331">
        <ele>265</ele>
        <time>2016-8-7T10:26:23.000Z</time>
      </trkpt>
      <trkpt lat="50.19804" lon="4.35331">
        <ele>265</ele>
        <time>2016-8-7T10:26:23.000Z</time>
      </trkpt>
      <trkpt lat="50.19804" lon="4.35332">
        <ele>265</ele>
        <time>2016-8-7T10:26:23.000Z</time>
      </trkpt>
      <trkpt lat="50.19804" lon="4.35332">
        <ele>265</ele>
        <time>2016-8-7T10:26:23.000Z</time>
      </trkpt>
      <trkpt lat="50.19805" lon="4.35333">
        <ele>264.5</ele>
        <time>2016-8-7T10:26:23.000Z</time>
      </trkpt>
      <trkpt lat="50.19805" lon="4.35333">
        <ele>264.5</ele>
        <time>2016-8-7T10:26:23.000Z</time>
      </trkpt>
      <trkpt lat="50.19807" lon="4.35335">
        <ele>264.5</ele>
        <time>2016-8-7T10:26:23.000Z</time>
      </trkpt>
      <trkpt lat="50.19807" lon="4.35335">
        <ele>264.5</ele>
        <time>2016-8-7T10:26:23.000Z</time>
      </trkpt>
      <trkpt lat="50.19808" lon="4.35336">
        <ele>264.5</ele>
        <time>2016-8-7T10:26:23.000Z</time>
      </trkpt>
      <trkpt lat="50.19808" lon="4.35336">
        <ele>264.5</ele>
        <time>2016-8-7T10:26:23.000Z</time>
      </trkpt>
      <trkpt lat="50.1981" lon="4.35339">
        <ele>264</ele>
        <time>2016-8-7T10:26:23.000Z</time>
      </trkpt>
      <trkpt lat="50.1981" lon="4.35339">
        <ele>264</ele>
        <time>2016-8-7T10:26:23.000Z</time>
      </trkpt>
      <trkpt lat="50.19812" lon="4.35341">
        <ele>264</ele>
        <time>2016-8-7T10:27:33.000Z</time>
      </trkpt>
      <trkpt lat="50.19812" lon="4.35341">
        <ele>264</ele>
        <time>2016-8-7T10:27:33.000Z</time>
      </trkpt>
      <trkpt lat="50.19813" lon="4.35344">
        <ele>263.5</ele>
        <time>2016-8-7T10:27:33.000Z</time>
      </trkpt>
      <trkpt lat="50.19813" lon="4.35344">
        <ele>263.5</ele>
        <time>2016-8-7T10:27:33.000Z</time>
      </trkpt>
      <trkpt lat="50.19815" lon="4.35346">
        <ele>263.5</ele>
        <time>2016-8-7T10:27:33.000Z</time>
      </trkpt>
      <trkpt lat="50.19815" lon="4.35346">
        <ele>263.5</ele>
        <time>2016-8-7T10:27:33.000Z</time>
      </trkpt>
      <trkpt lat="50.19817" lon="4.35349">
        <ele>263</ele>
        <time>2016-8-7T10:27:33.000Z</time>
      </trkpt>
      <trkpt lat="50.19817" lon="4.35349">
        <ele>263</ele>
        <time>2016-8-7T10:27:33.000Z</time>
      </trkpt>
      <trkpt lat="50.19818" lon="4.3535">
        <ele>263</ele>
        <time>2016-8-7T10:27:33.000Z</time>
      </trkpt>
      <trkpt lat="50.19818" lon="4.3535">
        <ele>263</ele>
        <time>2016-8-7T10:27:33.000Z</time>
      </trkpt>
      <trkpt lat="50.19819" lon="4.35352">
        <ele>263</ele>
        <time>2016-8-7T10:27:33.000Z</time>
      </trkpt>
      <trkpt lat="50.19819" lon="4.35352">
        <ele>263</ele>
        <time>2016-8-7T10:27:33.000Z</time>
      </trkpt>
      <trkpt lat="50.1982" lon="4.35353">
        <ele>263</ele>
        <time>2016-8-7T10:27:33.000Z</time>
      </trkpt>
      <trkpt lat="50.1982" lon="4.35353">
        <ele>263</ele>
        <time>2016-8-7T10:27:33.000Z</time>
      </trkpt>
      <trkpt lat="50.19822" lon="4.35356">
        <ele>262.5</ele>
        <time>2016-8-7T10:27:33.000Z</time>
      </trkpt>
      <trkpt lat="50.19822" lon="4.35356">
        <ele>262.5</ele>
        <time>2016-8-7T10:27:33.000Z</time>
      </trkpt>
      <trkpt lat="50.19824" lon="4.35359">
        <ele>262.5</ele>
        <time>2016-8-7T10:27:33.000Z</time>
      </trkpt>
      <trkpt lat="50.19824" lon="4.35359">
        <ele>262.5</ele>
        <time>2016-8-7T10:27:33.000Z</time>
      </trkpt>
      <trkpt lat="50.19824" lon="4.3536">
        <ele>262</ele>
        <time>2016-8-7T10:27:33.000Z</time>
      </trkpt>
      <trkpt lat="50.19824" lon="4.3536">
        <ele>262</ele>
        <time>2016-8-7T10:27:33.000Z</time>
      </trkpt>
      <trkpt lat="50.19825" lon="4.35362">
        <ele>262</ele>
        <time>2016-8-7T10:27:33.000Z</time>
      </trkpt>
      <trkpt lat="50.19825" lon="4.35362">
        <ele>262</ele>
        <time>2016-8-7T10:27:33.000Z</time>
      </trkpt>
      <trkpt lat="50.19826" lon="4.35364">
        <ele>262</ele>
        <time>2016-8-7T10:27:33.000Z</time>
      </trkpt>
      <trkpt lat="50.19826" lon="4.35364">
        <ele>262</ele>
        <time>2016-8-7T10:27:33.000Z</time>
      </trkpt>
      <trkpt lat="50.19827" lon="4.35366">
        <ele>262</ele>
        <time>2016-8-7T10:27:33.000Z</time>
      </trkpt>
      <trkpt lat="50.19827" lon="4.35366">
        <ele>262</ele>
        <time>2016-8-7T10:27:33.000Z</time>
      </trkpt>
      <trkpt lat="50.19828" lon="4.35368">
        <ele>261.5</ele>
        <time>2016-8-7T10:27:33.000Z</time>
      </trkpt>
      <trkpt lat="50.19828" lon="4.35368">
        <ele>261.5</ele>
        <time>2016-8-7T10:27:33.000Z</time>
      </trkpt>
      <trkpt lat="50.19829" lon="4.35371">
        <ele>261</ele>
        <time>2016-8-7T10:27:33.000Z</time>
      </trkpt>
      <trkpt lat="50.19829" lon="4.35371">
        <ele>261</ele>
        <time>2016-8-7T10:27:33.000Z</time>
      </trkpt>
      <trkpt lat="50.1983" lon="4.35372">
        <ele>261</ele>
        <time>2016-8-7T10:27:33.000Z</time>
      </trkpt>
      <trkpt lat="50.1983" lon="4.35372">
        <ele>261</ele>
        <time>2016-8-7T10:27:33.000Z</time>
      </trkpt>
      <trkpt lat="50.19832" lon="4.35375">
        <ele>261</ele>
        <time>2016-8-7T10:27:33.000Z</time>
      </trkpt>
      <trkpt lat="50.19832" lon="4.35375">
        <ele>261</ele>
        <time>2016-8-7T10:27:33.000Z</time>
      </trkpt>
      <trkpt lat="50.19833" lon="4.35377">
        <ele>261</ele>
        <time>2016-8-7T10:27:33.000Z</time>
      </trkpt>
      <trkpt lat="50.19833" lon="4.35377">
        <ele>261</ele>
        <time>2016-8-7T10:27:33.000Z</time>
      </trkpt>
      <trkpt lat="50.19833" lon="4.35378">
        <ele>260.5</ele>
        <time>2016-8-7T10:27:33.000Z</time>
      </trkpt>
      <trkpt lat="50.19833" lon="4.35378">
        <ele>260.5</ele>
        <time>2016-8-7T10:27:33.000Z</time>
      </trkpt>
      <trkpt lat="50.19834" lon="4.35381">
        <ele>261</ele>
        <time>2016-8-7T10:27:33.000Z</time>
      </trkpt>
      <trkpt lat="50.19834" lon="4.35381">
        <ele>261</ele>
        <time>2016-8-7T10:27:33.000Z</time>
      </trkpt>
      <trkpt lat="50.19835" lon="4.35384">
        <ele>260.5</ele>
        <time>2016-8-7T10:27:33.000Z</time>
      </trkpt>
      <trkpt lat="50.19835" lon="4.35384">
        <ele>260.5</ele>
        <time>2016-8-7T10:27:33.000Z</time>
      </trkpt>
      <trkpt lat="50.19835" lon="4.35385">
        <ele>260.5</ele>
        <time>2016-8-7T10:27:33.000Z</time>
      </trkpt>
      <trkpt lat="50.19835" lon="4.35385">
        <ele>260.5</ele>
        <time>2016-8-7T10:27:33.000Z</time>
      </trkpt>
      <trkpt lat="50.19837" lon="4.35388">
        <ele>260.5</ele>
        <time>2016-8-7T10:27:33.000Z</time>
      </trkpt>
      <trkpt lat="50.19837" lon="4.35388">
        <ele>260.5</ele>
        <time>2016-8-7T10:27:33.000Z</time>
      </trkpt>
      <trkpt lat="50.19838" lon="4.35391">
        <ele>260</ele>
        <time>2016-8-7T10:27:33.000Z</time>
      </trkpt>
      <trkpt lat="50.19838" lon="4.35391">
        <ele>260</ele>
        <time>2016-8-7T10:27:33.000Z</time>
      </trkpt>
      <trkpt lat="50.19839" lon="4.35394">
        <ele>260</ele>
        <time>2016-8-7T10:27:33.000Z</time>
      </trkpt>
      <trkpt lat="50.19839" lon="4.35394">
        <ele>260</ele>
        <time>2016-8-7T10:27:33.000Z</time>
      </trkpt>
      <trkpt lat="50.1984" lon="4.35395">
        <ele>260</ele>
        <time>2016-8-7T10:27:33.000Z</time>
      </trkpt>
      <trkpt lat="50.1984" lon="4.35395">
        <ele>260</ele>
        <time>2016-8-7T10:27:33.000Z</time>
      </trkpt>
      <trkpt lat="50.19841" lon="4.35398">
        <ele>260</ele>
        <time>2016-8-7T10:27:33.000Z</time>
      </trkpt>
      <trkpt lat="50.19841" lon="4.35398">
        <ele>260</ele>
        <time>2016-8-7T10:27:33.000Z</time>
      </trkpt>
      <trkpt lat="50.19843" lon="4.35399">
        <ele>260</ele>
        <time>2016-8-7T10:27:33.000Z</time>
      </trkpt>
      <trkpt lat="50.19843" lon="4.35399">
        <ele>260</ele>
        <time>2016-8-7T10:27:33.000Z</time>
      </trkpt>
      <trkpt lat="50.19844" lon="4.35401">
        <ele>259.5</ele>
        <time>2016-8-7T10:27:33.000Z</time>
      </trkpt>
      <trkpt lat="50.19844" lon="4.35401">
        <ele>259.5</ele>
        <time>2016-8-7T10:27:33.000Z</time>
      </trkpt>
      <trkpt lat="50.19845" lon="4.35402">
        <ele>260</ele>
        <time>2016-8-7T10:27:33.000Z</time>
      </trkpt>
      <trkpt lat="50.19845" lon="4.35402">
        <ele>260</ele>
        <time>2016-8-7T10:27:33.000Z</time>
      </trkpt>
      <trkpt lat="50.19847" lon="4.35405">
        <ele>260</ele>
        <time>2016-8-7T10:27:33.000Z</time>
      </trkpt>
      <trkpt lat="50.19847" lon="4.35405">
        <ele>260</ele>
        <time>2016-8-7T10:27:33.000Z</time>
      </trkpt>
      <trkpt lat="50.19848" lon="4.35406">
        <ele>259.5</ele>
        <time>2016-8-7T10:27:33.000Z</time>
      </trkpt>
      <trkpt lat="50.19848" lon="4.35406">
        <ele>259.5</ele>
        <time>2016-8-7T10:27:33.000Z</time>
      </trkpt>
      <trkpt lat="50.19848" lon="4.35408">
        <ele>259.5</ele>
        <time>2016-8-7T10:27:33.000Z</time>
      </trkpt>
      <trkpt lat="50.19848" lon="4.35408">
        <ele>259.5</ele>
        <time>2016-8-7T10:27:33.000Z</time>
      </trkpt>
      <trkpt lat="50.1985" lon="4.35411">
        <ele>259.5</ele>
        <time>2016-8-7T10:27:33.000Z</time>
      </trkpt>
      <trkpt lat="50.1985" lon="4.35411">
        <ele>259.5</ele>
        <time>2016-8-7T10:27:33.000Z</time>
      </trkpt>
      <trkpt lat="50.19852" lon="4.35415">
        <ele>259.5</ele>
        <time>2016-8-7T10:27:33.000Z</time>
      </trkpt>
      <trkpt lat="50.19852" lon="4.35415">
        <ele>259.5</ele>
        <time>2016-8-7T10:27:33.000Z</time>
      </trkpt>
      <trkpt lat="50.19853" lon="4.35417">
        <ele>259.5</ele>
        <time>2016-8-7T10:27:33.000Z</time>
      </trkpt>
      <trkpt lat="50.19853" lon="4.35417">
        <ele>259.5</ele>
        <time>2016-8-7T10:27:33.000Z</time>
      </trkpt>
      <trkpt lat="50.19854" lon="4.35418">
        <ele>259.5</ele>
        <time>2016-8-7T10:27:33.000Z</time>
      </trkpt>
      <trkpt lat="50.19854" lon="4.35418">
        <ele>259.5</ele>
        <time>2016-8-7T10:27:33.000Z</time>
      </trkpt>
      <trkpt lat="50.19855" lon="4.3542">
        <ele>259.5</ele>
        <time>2016-8-7T10:27:33.000Z</time>
      </trkpt>
      <trkpt lat="50.19855" lon="4.3542">
        <ele>259.5</ele>
        <time>2016-8-7T10:27:33.000Z</time>
      </trkpt>
      <trkpt lat="50.19857" lon="4.35423">
        <ele>259.5</ele>
        <time>2016-8-7T10:27:33.000Z</time>
      </trkpt>
      <trkpt lat="50.19857" lon="4.35423">
        <ele>259.5</ele>
        <time>2016-8-7T10:27:33.000Z</time>
      </trkpt>
      <trkpt lat="50.19859" lon="4.35425">
        <ele>259</ele>
        <time>2016-8-7T10:27:33.000Z</time>
      </trkpt>
      <trkpt lat="50.19859" lon="4.35425">
        <ele>259</ele>
        <time>2016-8-7T10:27:33.000Z</time>
      </trkpt>
      <trkpt lat="50.19861" lon="4.35427">
        <ele>259</ele>
        <time>2016-8-7T10:27:33.000Z</time>
      </trkpt>
      <trkpt lat="50.19861" lon="4.35427">
        <ele>259</ele>
        <time>2016-8-7T10:27:33.000Z</time>
      </trkpt>
      <trkpt lat="50.19863" lon="4.3543">
        <ele>259</ele>
        <time>2016-8-7T10:27:33.000Z</time>
      </trkpt>
      <trkpt lat="50.19863" lon="4.3543">
        <ele>259</ele>
        <time>2016-8-7T10:27:33.000Z</time>
      </trkpt>
      <trkpt lat="50.19864" lon="4.35433">
        <ele>259</ele>
        <time>2016-8-7T10:27:33.000Z</time>
      </trkpt>
      <trkpt lat="50.19864" lon="4.35433">
        <ele>259</ele>
        <time>2016-8-7T10:27:33.000Z</time>
      </trkpt>
      <trkpt lat="50.19866" lon="4.35435">
        <ele>259</ele>
        <time>2016-8-7T10:27:33.000Z</time>
      </trkpt>
      <trkpt lat="50.19866" lon="4.35435">
        <ele>259</ele>
        <time>2016-8-7T10:27:33.000Z</time>
      </trkpt>
      <trkpt lat="50.19866" lon="4.35437">
        <ele>258.5</ele>
        <time>2016-8-7T10:27:33.000Z</time>
      </trkpt>
      <trkpt lat="50.19866" lon="4.35437">
        <ele>258.5</ele>
        <time>2016-8-7T10:27:33.000Z</time>
      </trkpt>
      <trkpt lat="50.19867" lon="4.35439">
        <ele>258.5</ele>
        <time>2016-8-7T10:27:33.000Z</time>
      </trkpt>
      <trkpt lat="50.19867" lon="4.35439">
        <ele>258.5</ele>
        <time>2016-8-7T10:27:33.000Z</time>
      </trkpt>
      <trkpt lat="50.19868" lon="4.35441">
        <ele>258.5</ele>
        <time>2016-8-7T10:27:33.000Z</time>
      </trkpt>
      <trkpt lat="50.19868" lon="4.35441">
        <ele>258.5</ele>
        <time>2016-8-7T10:27:33.000Z</time>
      </trkpt>
      <trkpt lat="50.1987" lon="4.35444">
        <ele>258.5</ele>
        <time>2016-8-7T10:27:33.000Z</time>
      </trkpt>
      <trkpt lat="50.1987" lon="4.35444">
        <ele>258.5</ele>
        <time>2016-8-7T10:27:33.000Z</time>
      </trkpt>
      <trkpt lat="50.19871" lon="4.35446">
        <ele>258.5</ele>
        <time>2016-8-7T10:27:33.000Z</time>
      </trkpt>
      <trkpt lat="50.19871" lon="4.35446">
        <ele>258.5</ele>
        <time>2016-8-7T10:27:33.000Z</time>
      </trkpt>
      <trkpt lat="50.19872" lon="4.35448">
        <ele>258.5</ele>
        <time>2016-8-7T10:27:33.000Z</time>
      </trkpt>
      <trkpt lat="50.19872" lon="4.35448">
        <ele>258.5</ele>
        <time>2016-8-7T10:27:33.000Z</time>
      </trkpt>
      <trkpt lat="50.19873" lon="4.35451">
        <ele>258.5</ele>
        <time>2016-8-7T10:27:33.000Z</time>
      </trkpt>
      <trkpt lat="50.19873" lon="4.35451">
        <ele>258.5</ele>
        <time>2016-8-7T10:28:45.000Z</time>
      </trkpt>
      <trkpt lat="50.19874" lon="4.35454">
        <ele>258.5</ele>
        <time>2016-8-7T10:28:45.000Z</time>
      </trkpt>
      <trkpt lat="50.19874" lon="4.35454">
        <ele>258.5</ele>
        <time>2016-8-7T10:28:45.000Z</time>
      </trkpt>
      <trkpt lat="50.19875" lon="4.35457">
        <ele>259</ele>
        <time>2016-8-7T10:28:45.000Z</time>
      </trkpt>
      <trkpt lat="50.19875" lon="4.35457">
        <ele>259</ele>
        <time>2016-8-7T10:28:45.000Z</time>
      </trkpt>
      <trkpt lat="50.19877" lon="4.3546">
        <ele>259</ele>
        <time>2016-8-7T10:28:45.000Z</time>
      </trkpt>
      <trkpt lat="50.19877" lon="4.3546">
        <ele>259</ele>
        <time>2016-8-7T10:28:45.000Z</time>
      </trkpt>
      <trkpt lat="50.19878" lon="4.35461">
        <ele>259</ele>
        <time>2016-8-7T10:28:45.000Z</time>
      </trkpt>
      <trkpt lat="50.19878" lon="4.35461">
        <ele>259</ele>
        <time>2016-8-7T10:28:45.000Z</time>
      </trkpt>
      <trkpt lat="50.19879" lon="4.35465">
        <ele>258.5</ele>
        <time>2016-8-7T10:28:45.000Z</time>
      </trkpt>
      <trkpt lat="50.19879" lon="4.35465">
        <ele>258.5</ele>
        <time>2016-8-7T10:28:45.000Z</time>
      </trkpt>
      <trkpt lat="50.1988" lon="4.35466">
        <ele>258.5</ele>
        <time>2016-8-7T10:28:45.000Z</time>
      </trkpt>
      <trkpt lat="50.1988" lon="4.35466">
        <ele>258.5</ele>
        <time>2016-8-7T10:28:45.000Z</time>
      </trkpt>
      <trkpt lat="50.19882" lon="4.35469">
        <ele>258.5</ele>
        <time>2016-8-7T10:28:45.000Z</time>
      </trkpt>
      <trkpt lat="50.19882" lon="4.35469">
        <ele>258.5</ele>
        <time>2016-8-7T10:28:45.000Z</time>
      </trkpt>
      <trkpt lat="50.19883" lon="4.3547">
        <ele>258.5</ele>
        <time>2016-8-7T10:28:45.000Z</time>
      </trkpt>
      <trkpt lat="50.19883" lon="4.3547">
        <ele>258.5</ele>
        <time>2016-8-7T10:28:45.000Z</time>
      </trkpt>
      <trkpt lat="50.19885" lon="4.35472">
        <ele>259</ele>
        <time>2016-8-7T10:28:45.000Z</time>
      </trkpt>
      <trkpt lat="50.19885" lon="4.35472">
        <ele>259</ele>
        <time>2016-8-7T10:28:45.000Z</time>
      </trkpt>
      <trkpt lat="50.19887" lon="4.35475">
        <ele>259</ele>
        <time>2016-8-7T10:28:45.000Z</time>
      </trkpt>
      <trkpt lat="50.19887" lon="4.35475">
        <ele>259</ele>
        <time>2016-8-7T10:28:45.000Z</time>
      </trkpt>
      <trkpt lat="50.19888" lon="4.35477">
        <ele>258.5</ele>
        <time>2016-8-7T10:28:45.000Z</time>
      </trkpt>
      <trkpt lat="50.19888" lon="4.35477">
        <ele>258.5</ele>
        <time>2016-8-7T10:28:45.000Z</time>
      </trkpt>
      <trkpt lat="50.1989" lon="4.35479">
        <ele>258.5</ele>
        <time>2016-8-7T10:28:45.000Z</time>
      </trkpt>
      <trkpt lat="50.1989" lon="4.35479">
        <ele>258.5</ele>
        <time>2016-8-7T10:28:45.000Z</time>
      </trkpt>
      <trkpt lat="50.19891" lon="4.35482">
        <ele>259</ele>
        <time>2016-8-7T10:28:45.000Z</time>
      </trkpt>
      <trkpt lat="50.19891" lon="4.35482">
        <ele>259</ele>
        <time>2016-8-7T10:28:45.000Z</time>
      </trkpt>
      <trkpt lat="50.19892" lon="4.35483">
        <ele>259</ele>
        <time>2016-8-7T10:28:45.000Z</time>
      </trkpt>
      <trkpt lat="50.19892" lon="4.35483">
        <ele>259</ele>
        <time>2016-8-7T10:28:45.000Z</time>
      </trkpt>
      <trkpt lat="50.19894" lon="4.35486">
        <ele>259</ele>
        <time>2016-8-7T10:28:45.000Z</time>
      </trkpt>
      <trkpt lat="50.19894" lon="4.35486">
        <ele>259</ele>
        <time>2016-8-7T10:28:45.000Z</time>
      </trkpt>
      <trkpt lat="50.19895" lon="4.35487">
        <ele>259</ele>
        <time>2016-8-7T10:28:45.000Z</time>
      </trkpt>
      <trkpt lat="50.19895" lon="4.35487">
        <ele>259</ele>
        <time>2016-8-7T10:28:45.000Z</time>
      </trkpt>
      <trkpt lat="50.19896" lon="4.35489">
        <ele>259</ele>
        <time>2016-8-7T10:28:45.000Z</time>
      </trkpt>
      <trkpt lat="50.19896" lon="4.35489">
        <ele>259</ele>
        <time>2016-8-7T10:28:45.000Z</time>
      </trkpt>
      <trkpt lat="50.19897" lon="4.35491">
        <ele>259</ele>
        <time>2016-8-7T10:28:45.000Z</time>
      </trkpt>
      <trkpt lat="50.19897" lon="4.35491">
        <ele>259</ele>
        <time>2016-8-7T10:28:45.000Z</time>
      </trkpt>
      <trkpt lat="50.19899" lon="4.35493">
        <ele>259.5</ele>
        <time>2016-8-7T10:28:45.000Z</time>
      </trkpt>
      <trkpt lat="50.19899" lon="4.35493">
        <ele>259.5</ele>
        <time>2016-8-7T10:28:45.000Z</time>
      </trkpt>
      <trkpt lat="50.199" lon="4.35496">
        <ele>258.5</ele>
        <time>2016-8-7T10:28:45.000Z</time>
      </trkpt>
      <trkpt lat="50.199" lon="4.35496">
        <ele>258.5</ele>
        <time>2016-8-7T10:28:45.000Z</time>
      </trkpt>
      <trkpt lat="50.19901" lon="4.35499">
        <ele>257.5</ele>
        <time>2016-8-7T10:28:45.000Z</time>
      </trkpt>
      <trkpt lat="50.19901" lon="4.35499">
        <ele>257.5</ele>
        <time>2016-8-7T10:28:45.000Z</time>
      </trkpt>
      <trkpt lat="50.19903" lon="4.35501">
        <ele>257.5</ele>
        <time>2016-8-7T10:28:45.000Z</time>
      </trkpt>
      <trkpt lat="50.19903" lon="4.35501">
        <ele>257.5</ele>
        <time>2016-8-7T10:28:45.000Z</time>
      </trkpt>
      <trkpt lat="50.19904" lon="4.35503">
        <ele>258.5</ele>
        <time>2016-8-7T10:28:45.000Z</time>
      </trkpt>
      <trkpt lat="50.19904" lon="4.35503">
        <ele>258.5</ele>
        <time>2016-8-7T10:28:45.000Z</time>
      </trkpt>
      <trkpt lat="50.19905" lon="4.35504">
        <ele>258</ele>
        <time>2016-8-7T10:28:45.000Z</time>
      </trkpt>
      <trkpt lat="50.19905" lon="4.35504">
        <ele>258</ele>
        <time>2016-8-7T10:28:45.000Z</time>
      </trkpt>
      <trkpt lat="50.19907" lon="4.35507">
        <ele>258</ele>
        <time>2016-8-7T10:28:45.000Z</time>
      </trkpt>
      <trkpt lat="50.19907" lon="4.35507">
        <ele>258</ele>
        <time>2016-8-7T10:28:45.000Z</time>
      </trkpt>
      <trkpt lat="50.19908" lon="4.35509">
        <ele>258</ele>
        <time>2016-8-7T10:28:45.000Z</time>
      </trkpt>
      <trkpt lat="50.19908" lon="4.35509">
        <ele>258</ele>
        <time>2016-8-7T10:28:45.000Z</time>
      </trkpt>
      <trkpt lat="50.19909" lon="4.35512">
        <ele>257.5</ele>
        <time>2016-8-7T10:28:45.000Z</time>
      </trkpt>
      <trkpt lat="50.19909" lon="4.35512">
        <ele>257.5</ele>
        <time>2016-8-7T10:28:45.000Z</time>
      </trkpt>
      <trkpt lat="50.19911" lon="4.35514">
        <ele>258</ele>
        <time>2016-8-7T10:28:45.000Z</time>
      </trkpt>
      <trkpt lat="50.19911" lon="4.35514">
        <ele>258</ele>
        <time>2016-8-7T10:28:45.000Z</time>
      </trkpt>
      <trkpt lat="50.19911" lon="4.35516">
        <ele>257.5</ele>
        <time>2016-8-7T10:28:45.000Z</time>
      </trkpt>
      <trkpt lat="50.19911" lon="4.35516">
        <ele>257.5</ele>
        <time>2016-8-7T10:28:45.000Z</time>
      </trkpt>
      <trkpt lat="50.19913" lon="4.35518">
        <ele>257.5</ele>
        <time>2016-8-7T10:28:45.000Z</time>
      </trkpt>
      <trkpt lat="50.19913" lon="4.35518">
        <ele>257.5</ele>
        <time>2016-8-7T10:28:45.000Z</time>
      </trkpt>
      <trkpt lat="50.19914" lon="4.35519">
        <ele>257.5</ele>
        <time>2016-8-7T10:28:45.000Z</time>
      </trkpt>
      <trkpt lat="50.19914" lon="4.35519">
        <ele>257.5</ele>
        <time>2016-8-7T10:28:45.000Z</time>
      </trkpt>
      <trkpt lat="50.19916" lon="4.35522">
        <ele>257.5</ele>
        <time>2016-8-7T10:28:45.000Z</time>
      </trkpt>
      <trkpt lat="50.19916" lon="4.35522">
        <ele>257.5</ele>
        <time>2016-8-7T10:28:45.000Z</time>
      </trkpt>
      <trkpt lat="50.19917" lon="4.35524">
        <ele>257.5</ele>
        <time>2016-8-7T10:28:45.000Z</time>
      </trkpt>
      <trkpt lat="50.19917" lon="4.35524">
        <ele>257.5</ele>
        <time>2016-8-7T10:28:45.000Z</time>
      </trkpt>
      <trkpt lat="50.19918" lon="4.35527">
        <ele>257</ele>
        <time>2016-8-7T10:28:45.000Z</time>
      </trkpt>
      <trkpt lat="50.19918" lon="4.35527">
        <ele>257</ele>
        <time>2016-8-7T10:28:45.000Z</time>
      </trkpt>
      <trkpt lat="50.1992" lon="4.3553">
        <ele>257</ele>
        <time>2016-8-7T10:28:45.000Z</time>
      </trkpt>
      <trkpt lat="50.1992" lon="4.3553">
        <ele>257</ele>
        <time>2016-8-7T10:28:45.000Z</time>
      </trkpt>
      <trkpt lat="50.19922" lon="4.35533">
        <ele>257</ele>
        <time>2016-8-7T10:28:45.000Z</time>
      </trkpt>
      <trkpt lat="50.19922" lon="4.35533">
        <ele>257</ele>
        <time>2016-8-7T10:28:45.000Z</time>
      </trkpt>
      <trkpt lat="50.19922" lon="4.35534">
        <ele>257</ele>
        <time>2016-8-7T10:28:45.000Z</time>
      </trkpt>
      <trkpt lat="50.19922" lon="4.35534">
        <ele>257</ele>
        <time>2016-8-7T10:28:45.000Z</time>
      </trkpt>
      <trkpt lat="50.19923" lon="4.35535">
        <ele>257</ele>
        <time>2016-8-7T10:28:45.000Z</time>
      </trkpt>
      <trkpt lat="50.19923" lon="4.35535">
        <ele>257</ele>
        <time>2016-8-7T10:28:45.000Z</time>
      </trkpt>
      <trkpt lat="50.19925" lon="4.35538">
        <ele>257</ele>
        <time>2016-8-7T10:28:45.000Z</time>
      </trkpt>
      <trkpt lat="50.19925" lon="4.35538">
        <ele>257</ele>
        <time>2016-8-7T10:28:45.000Z</time>
      </trkpt>
      <trkpt lat="50.19926" lon="4.35541">
        <ele>256.5</ele>
        <time>2016-8-7T10:28:45.000Z</time>
      </trkpt>
      <trkpt lat="50.19926" lon="4.35541">
        <ele>256.5</ele>
        <time>2016-8-7T10:28:45.000Z</time>
      </trkpt>
      <trkpt lat="50.19928" lon="4.35543">
        <ele>256</ele>
        <time>2016-8-7T10:28:45.000Z</time>
      </trkpt>
      <trkpt lat="50.19928" lon="4.35543">
        <ele>256</ele>
        <time>2016-8-7T10:28:45.000Z</time>
      </trkpt>
      <trkpt lat="50.19929" lon="4.35545">
        <ele>256</ele>
        <time>2016-8-7T10:28:45.000Z</time>
      </trkpt>
      <trkpt lat="50.19929" lon="4.35545">
        <ele>256</ele>
        <time>2016-8-7T10:28:45.000Z</time>
      </trkpt>
      <trkpt lat="50.19931" lon="4.35548">
        <ele>255.5</ele>
        <time>2016-8-7T10:28:45.000Z</time>
      </trkpt>
      <trkpt lat="50.19931" lon="4.35548">
        <ele>255.5</ele>
        <time>2016-8-7T10:28:45.000Z</time>
      </trkpt>
      <trkpt lat="50.19932" lon="4.3555">
        <ele>254.5</ele>
        <time>2016-8-7T10:28:45.000Z</time>
      </trkpt>
      <trkpt lat="50.19932" lon="4.3555">
        <ele>254.5</ele>
        <time>2016-8-7T10:28:45.000Z</time>
      </trkpt>
      <trkpt lat="50.19934" lon="4.35551">
        <ele>254.5</ele>
        <time>2016-8-7T10:28:45.000Z</time>
      </trkpt>
      <trkpt lat="50.19934" lon="4.35551">
        <ele>254.5</ele>
        <time>2016-8-7T10:28:45.000Z</time>
      </trkpt>
      <trkpt lat="50.19935" lon="4.35554">
        <ele>254</ele>
        <time>2016-8-7T10:28:45.000Z</time>
      </trkpt>
      <trkpt lat="50.19935" lon="4.35554">
        <ele>254</ele>
        <time>2016-8-7T10:28:45.000Z</time>
      </trkpt>
      <trkpt lat="50.19936" lon="4.35555">
        <ele>254</ele>
        <time>2016-8-7T10:28:45.000Z</time>
      </trkpt>
      <trkpt lat="50.19936" lon="4.35555">
        <ele>254</ele>
        <time>2016-8-7T10:28:45.000Z</time>
      </trkpt>
      <trkpt lat="50.19936" lon="4.35556">
        <ele>253.5</ele>
        <time>2016-8-7T10:28:45.000Z</time>
      </trkpt>
      <trkpt lat="50.19936" lon="4.35556">
        <ele>253.5</ele>
        <time>2016-8-7T10:28:45.000Z</time>
      </trkpt>
      <trkpt lat="50.19938" lon="4.35559">
        <ele>253.5</ele>
        <time>2016-8-7T10:28:45.000Z</time>
      </trkpt>
      <trkpt lat="50.19938" lon="4.35559">
        <ele>253.5</ele>
        <time>2016-8-7T10:28:45.000Z</time>
      </trkpt>
      <trkpt lat="50.19939" lon="4.35562">
        <ele>253.5</ele>
        <time>2016-8-7T10:28:45.000Z</time>
      </trkpt>
      <trkpt lat="50.19939" lon="4.35562">
        <ele>253.5</ele>
        <time>2016-8-7T10:28:45.000Z</time>
      </trkpt>
      <trkpt lat="50.1994" lon="4.35564">
        <ele>253</ele>
        <time>2016-8-7T10:29:56.000Z</time>
      </trkpt>
      <trkpt lat="50.1994" lon="4.35564">
        <ele>253</ele>
        <time>2016-8-7T10:29:56.000Z</time>
      </trkpt>
      <trkpt lat="50.19941" lon="4.35565">
        <ele>253</ele>
        <time>2016-8-7T10:29:56.000Z</time>
      </trkpt>
      <trkpt lat="50.19941" lon="4.35565">
        <ele>253</ele>
        <time>2016-8-7T10:29:56.000Z</time>
      </trkpt>
      <trkpt lat="50.19942" lon="4.35566">
        <ele>252.5</ele>
        <time>2016-8-7T10:29:56.000Z</time>
      </trkpt>
      <trkpt lat="50.19942" lon="4.35566">
        <ele>252.5</ele>
        <time>2016-8-7T10:29:56.000Z</time>
      </trkpt>
      <trkpt lat="50.19944" lon="4.35567">
        <ele>253</ele>
        <time>2016-8-7T10:29:56.000Z</time>
      </trkpt>
      <trkpt lat="50.19944" lon="4.35567">
        <ele>253</ele>
        <time>2016-8-7T10:29:56.000Z</time>
      </trkpt>
      <trkpt lat="50.19945" lon="4.35567">
        <ele>253</ele>
        <time>2016-8-7T10:29:56.000Z</time>
      </trkpt>
      <trkpt lat="50.19945" lon="4.35567">
        <ele>253</ele>
        <time>2016-8-7T10:29:56.000Z</time>
      </trkpt>
      <trkpt lat="50.19946" lon="4.35568">
        <ele>253</ele>
        <time>2016-8-7T10:29:56.000Z</time>
      </trkpt>
      <trkpt lat="50.19946" lon="4.35568">
        <ele>253</ele>
        <time>2016-8-7T10:29:56.000Z</time>
      </trkpt>
      <trkpt lat="50.19948" lon="4.35569">
        <ele>253</ele>
        <time>2016-8-7T10:29:56.000Z</time>
      </trkpt>
      <trkpt lat="50.19948" lon="4.35569">
        <ele>253</ele>
        <time>2016-8-7T10:29:56.000Z</time>
      </trkpt>
      <trkpt lat="50.19949" lon="4.3557">
        <ele>253</ele>
        <time>2016-8-7T10:29:56.000Z</time>
      </trkpt>
      <trkpt lat="50.19949" lon="4.3557">
        <ele>253</ele>
        <time>2016-8-7T10:29:56.000Z</time>
      </trkpt>
      <trkpt lat="50.19951" lon="4.35572">
        <ele>253</ele>
        <time>2016-8-7T10:29:56.000Z</time>
      </trkpt>
      <trkpt lat="50.19951" lon="4.35572">
        <ele>253</ele>
        <time>2016-8-7T10:29:56.000Z</time>
      </trkpt>
      <trkpt lat="50.19952" lon="4.35573">
        <ele>253</ele>
        <time>2016-8-7T10:29:56.000Z</time>
      </trkpt>
      <trkpt lat="50.19952" lon="4.35573">
        <ele>253</ele>
        <time>2016-8-7T10:29:56.000Z</time>
      </trkpt>
      <trkpt lat="50.19954" lon="4.35575">
        <ele>253.5</ele>
        <time>2016-8-7T10:29:56.000Z</time>
      </trkpt>
      <trkpt lat="50.19954" lon="4.35575">
        <ele>253.5</ele>
        <time>2016-8-7T10:29:56.000Z</time>
      </trkpt>
      <trkpt lat="50.19955" lon="4.35576">
        <ele>253.5</ele>
        <time>2016-8-7T10:29:56.000Z</time>
      </trkpt>
      <trkpt lat="50.19955" lon="4.35576">
        <ele>253.5</ele>
        <time>2016-8-7T10:29:56.000Z</time>
      </trkpt>
      <trkpt lat="50.19956" lon="4.35579">
        <ele>254</ele>
        <time>2016-8-7T10:29:56.000Z</time>
      </trkpt>
      <trkpt lat="50.19956" lon="4.35579">
        <ele>254</ele>
        <time>2016-8-7T10:29:56.000Z</time>
      </trkpt>
      <trkpt lat="50.19958" lon="4.35581">
        <ele>254</ele>
        <time>2016-8-7T10:29:56.000Z</time>
      </trkpt>
      <trkpt lat="50.19958" lon="4.35581">
        <ele>254</ele>
        <time>2016-8-7T10:29:56.000Z</time>
      </trkpt>
      <trkpt lat="50.1996" lon="4.35584">
        <ele>254.5</ele>
        <time>2016-8-7T10:29:56.000Z</time>
      </trkpt>
      <trkpt lat="50.1996" lon="4.35584">
        <ele>254.5</ele>
        <time>2016-8-7T10:29:56.000Z</time>
      </trkpt>
      <trkpt lat="50.19961" lon="4.35585">
        <ele>254.5</ele>
        <time>2016-8-7T10:29:56.000Z</time>
      </trkpt>
      <trkpt lat="50.19961" lon="4.35585">
        <ele>254.5</ele>
        <time>2016-8-7T10:29:56.000Z</time>
      </trkpt>
      <trkpt lat="50.19963" lon="4.35587">
        <ele>254.5</ele>
        <time>2016-8-7T10:29:56.000Z</time>
      </trkpt>
      <trkpt lat="50.19963" lon="4.35587">
        <ele>254.5</ele>
        <time>2016-8-7T10:29:56.000Z</time>
      </trkpt>
      <trkpt lat="50.19964" lon="4.35587">
        <ele>254.5</ele>
        <time>2016-8-7T10:29:56.000Z</time>
      </trkpt>
      <trkpt lat="50.19964" lon="4.35587">
        <ele>254.5</ele>
        <time>2016-8-7T10:29:56.000Z</time>
      </trkpt>
      <trkpt lat="50.19964" lon="4.35588">
        <ele>254.5</ele>
        <time>2016-8-7T10:29:56.000Z</time>
      </trkpt>
      <trkpt lat="50.19964" lon="4.35588">
        <ele>254.5</ele>
        <time>2016-8-7T10:29:56.000Z</time>
      </trkpt>
      <trkpt lat="50.19966" lon="4.35591">
        <ele>254.5</ele>
        <time>2016-8-7T10:29:56.000Z</time>
      </trkpt>
      <trkpt lat="50.19966" lon="4.35591">
        <ele>254.5</ele>
        <time>2016-8-7T10:29:56.000Z</time>
      </trkpt>
      <trkpt lat="50.19967" lon="4.35593">
        <ele>254.5</ele>
        <time>2016-8-7T10:29:56.000Z</time>
      </trkpt>
      <trkpt lat="50.19967" lon="4.35593">
        <ele>254.5</ele>
        <time>2016-8-7T10:29:56.000Z</time>
      </trkpt>
      <trkpt lat="50.19969" lon="4.35593">
        <ele>254.5</ele>
        <time>2016-8-7T10:29:56.000Z</time>
      </trkpt>
      <trkpt lat="50.19969" lon="4.35593">
        <ele>254.5</ele>
        <time>2016-8-7T10:29:56.000Z</time>
      </trkpt>
      <trkpt lat="50.19971" lon="4.35596">
        <ele>254.5</ele>
        <time>2016-8-7T10:29:56.000Z</time>
      </trkpt>
      <trkpt lat="50.19971" lon="4.35596">
        <ele>254.5</ele>
        <time>2016-8-7T10:29:56.000Z</time>
      </trkpt>
      <trkpt lat="50.19972" lon="4.35597">
        <ele>254.5</ele>
        <time>2016-8-7T10:29:56.000Z</time>
      </trkpt>
      <trkpt lat="50.19972" lon="4.35597">
        <ele>254.5</ele>
        <time>2016-8-7T10:29:56.000Z</time>
      </trkpt>
      <trkpt lat="50.19973" lon="4.35599">
        <ele>254.5</ele>
        <time>2016-8-7T10:29:56.000Z</time>
      </trkpt>
      <trkpt lat="50.19973" lon="4.35599">
        <ele>254.5</ele>
        <time>2016-8-7T10:29:56.000Z</time>
      </trkpt>
      <trkpt lat="50.19974" lon="4.356">
        <ele>254.5</ele>
        <time>2016-8-7T10:29:56.000Z</time>
      </trkpt>
      <trkpt lat="50.19974" lon="4.356">
        <ele>254.5</ele>
        <time>2016-8-7T10:29:56.000Z</time>
      </trkpt>
      <trkpt lat="50.19976" lon="4.35602">
        <ele>254.5</ele>
        <time>2016-8-7T10:29:56.000Z</time>
      </trkpt>
      <trkpt lat="50.19976" lon="4.35602">
        <ele>254.5</ele>
        <time>2016-8-7T10:29:56.000Z</time>
      </trkpt>
      <trkpt lat="50.19977" lon="4.35604">
        <ele>254.5</ele>
        <time>2016-8-7T10:29:56.000Z</time>
      </trkpt>
      <trkpt lat="50.19977" lon="4.35604">
        <ele>254.5</ele>
        <time>2016-8-7T10:29:56.000Z</time>
      </trkpt>
      <trkpt lat="50.19978" lon="4.35606">
        <ele>254.5</ele>
        <time>2016-8-7T10:29:56.000Z</time>
      </trkpt>
      <trkpt lat="50.19978" lon="4.35606">
        <ele>254.5</ele>
        <time>2016-8-7T10:29:56.000Z</time>
      </trkpt>
      <trkpt lat="50.19979" lon="4.35608">
        <ele>254.5</ele>
        <time>2016-8-7T10:29:56.000Z</time>
      </trkpt>
      <trkpt lat="50.19979" lon="4.35608">
        <ele>254.5</ele>
        <time>2016-8-7T10:29:56.000Z</time>
      </trkpt>
      <trkpt lat="50.1998" lon="4.35609">
        <ele>254.5</ele>
        <time>2016-8-7T10:29:56.000Z</time>
      </trkpt>
      <trkpt lat="50.1998" lon="4.35609">
        <ele>254.5</ele>
        <time>2016-8-7T10:29:56.000Z</time>
      </trkpt>
      <trkpt lat="50.1998" lon="4.3561">
        <ele>254.5</ele>
        <time>2016-8-7T10:29:56.000Z</time>
      </trkpt>
      <trkpt lat="50.1998" lon="4.3561">
        <ele>254.5</ele>
        <time>2016-8-7T10:29:56.000Z</time>
      </trkpt>
      <trkpt lat="50.19982" lon="4.35611">
        <ele>254.5</ele>
        <time>2016-8-7T10:29:56.000Z</time>
      </trkpt>
      <trkpt lat="50.19982" lon="4.35611">
        <ele>254.5</ele>
        <time>2016-8-7T10:29:56.000Z</time>
      </trkpt>
      <trkpt lat="50.19983" lon="4.35612">
        <ele>254.5</ele>
        <time>2016-8-7T10:29:56.000Z</time>
      </trkpt>
      <trkpt lat="50.19983" lon="4.35612">
        <ele>254.5</ele>
        <time>2016-8-7T10:29:56.000Z</time>
      </trkpt>
      <trkpt lat="50.19984" lon="4.35612">
        <ele>254.5</ele>
        <time>2016-8-7T10:29:56.000Z</time>
      </trkpt>
      <trkpt lat="50.19984" lon="4.35612">
        <ele>254.5</ele>
        <time>2016-8-7T10:29:56.000Z</time>
      </trkpt>
      <trkpt lat="50.19986" lon="4.35613">
        <ele>254.5</ele>
        <time>2016-8-7T10:29:56.000Z</time>
      </trkpt>
      <trkpt lat="50.19986" lon="4.35613">
        <ele>254.5</ele>
        <time>2016-8-7T10:29:56.000Z</time>
      </trkpt>
      <trkpt lat="50.19988" lon="4.35615">
        <ele>254.5</ele>
        <time>2016-8-7T10:29:56.000Z</time>
      </trkpt>
      <trkpt lat="50.19988" lon="4.35615">
        <ele>254.5</ele>
        <time>2016-8-7T10:29:56.000Z</time>
      </trkpt>
      <trkpt lat="50.1999" lon="4.35617">
        <ele>254.5</ele>
        <time>2016-8-7T10:29:56.000Z</time>
      </trkpt>
      <trkpt lat="50.1999" lon="4.35617">
        <ele>254.5</ele>
        <time>2016-8-7T10:29:56.000Z</time>
      </trkpt>
      <trkpt lat="50.19992" lon="4.35619">
        <ele>254.5</ele>
        <time>2016-8-7T10:29:56.000Z</time>
      </trkpt>
      <trkpt lat="50.19992" lon="4.35619">
        <ele>254.5</ele>
        <time>2016-8-7T10:29:56.000Z</time>
      </trkpt>
      <trkpt lat="50.19995" lon="4.3562">
        <ele>255</ele>
        <time>2016-8-7T10:29:56.000Z</time>
      </trkpt>
      <trkpt lat="50.19995" lon="4.3562">
        <ele>255</ele>
        <time>2016-8-7T10:29:56.000Z</time>
      </trkpt>
      <trkpt lat="50.19997" lon="4.35622">
        <ele>255</ele>
        <time>2016-8-7T10:29:56.000Z</time>
      </trkpt>
      <trkpt lat="50.19997" lon="4.35622">
        <ele>255</ele>
        <time>2016-8-7T10:29:56.000Z</time>
      </trkpt>
      <trkpt lat="50.19998" lon="4.35624">
        <ele>255</ele>
        <time>2016-8-7T10:29:56.000Z</time>
      </trkpt>
      <trkpt lat="50.19998" lon="4.35624">
        <ele>255</ele>
        <time>2016-8-7T10:29:56.000Z</time>
      </trkpt>
      <trkpt lat="50.2" lon="4.35626">
        <ele>254.5</ele>
        <time>2016-8-7T10:29:56.000Z</time>
      </trkpt>
      <trkpt lat="50.2" lon="4.35626">
        <ele>254.5</ele>
        <time>2016-8-7T10:29:56.000Z</time>
      </trkpt>
      <trkpt lat="50.20002" lon="4.35628">
        <ele>254.5</ele>
        <time>2016-8-7T10:29:56.000Z</time>
      </trkpt>
      <trkpt lat="50.20002" lon="4.35628">
        <ele>254.5</ele>
        <time>2016-8-7T10:29:56.000Z</time>
      </trkpt>
      <trkpt lat="50.20002" lon="4.35629">
        <ele>254.5</ele>
        <time>2016-8-7T10:29:56.000Z</time>
      </trkpt>
      <trkpt lat="50.20002" lon="4.35629">
        <ele>254.5</ele>
        <time>2016-8-7T10:29:56.000Z</time>
      </trkpt>
      <trkpt lat="50.20004" lon="4.35631">
        <ele>254.5</ele>
        <time>2016-8-7T10:29:56.000Z</time>
      </trkpt>
      <trkpt lat="50.20004" lon="4.35631">
        <ele>254.5</ele>
        <time>2016-8-7T10:29:56.000Z</time>
      </trkpt>
      <trkpt lat="50.20006" lon="4.35633">
        <ele>254.5</ele>
        <time>2016-8-7T10:29:56.000Z</time>
      </trkpt>
      <trkpt lat="50.20006" lon="4.35633">
        <ele>254.5</ele>
        <time>2016-8-7T10:29:56.000Z</time>
      </trkpt>
      <trkpt lat="50.20008" lon="4.35634">
        <ele>254.5</ele>
        <time>2016-8-7T10:29:56.000Z</time>
      </trkpt>
      <trkpt lat="50.20008" lon="4.35634">
        <ele>254.5</ele>
        <time>2016-8-7T10:29:56.000Z</time>
      </trkpt>
      <trkpt lat="50.2001" lon="4.35636">
        <ele>254.5</ele>
        <time>2016-8-7T10:29:56.000Z</time>
      </trkpt>
      <trkpt lat="50.2001" lon="4.35636">
        <ele>254.5</ele>
        <time>2016-8-7T10:29:56.000Z</time>
      </trkpt>
      <trkpt lat="50.20011" lon="4.35637">
        <ele>254.5</ele>
        <time>2016-8-7T10:29:56.000Z</time>
      </trkpt>
      <trkpt lat="50.20011" lon="4.35637">
        <ele>254.5</ele>
        <time>2016-8-7T10:29:56.000Z</time>
      </trkpt>
      <trkpt lat="50.20013" lon="4.35639">
        <ele>254.5</ele>
        <time>2016-8-7T10:29:56.000Z</time>
      </trkpt>
      <trkpt lat="50.20013" lon="4.35639">
        <ele>254.5</ele>
        <time>2016-8-7T10:31:9.000Z</time>
      </trkpt>
      <trkpt lat="50.20014" lon="4.3564">
        <ele>254.5</ele>
        <time>2016-8-7T10:31:9.000Z</time>
      </trkpt>
      <trkpt lat="50.20014" lon="4.3564">
        <ele>254.5</ele>
        <time>2016-8-7T10:31:9.000Z</time>
      </trkpt>
      <trkpt lat="50.20016" lon="4.35641">
        <ele>254.5</ele>
        <time>2016-8-7T10:31:9.000Z</time>
      </trkpt>
      <trkpt lat="50.20016" lon="4.35641">
        <ele>254.5</ele>
        <time>2016-8-7T10:31:9.000Z</time>
      </trkpt>
      <trkpt lat="50.20017" lon="4.35642">
        <ele>254.5</ele>
        <time>2016-8-7T10:31:9.000Z</time>
      </trkpt>
      <trkpt lat="50.20017" lon="4.35642">
        <ele>254.5</ele>
        <time>2016-8-7T10:31:9.000Z</time>
      </trkpt>
      <trkpt lat="50.20018" lon="4.35642">
        <ele>254.5</ele>
        <time>2016-8-7T10:31:9.000Z</time>
      </trkpt>
      <trkpt lat="50.20018" lon="4.35642">
        <ele>254.5</ele>
        <time>2016-8-7T10:31:9.000Z</time>
      </trkpt>
      <trkpt lat="50.2002" lon="4.35644">
        <ele>254.5</ele>
        <time>2016-8-7T10:31:9.000Z</time>
      </trkpt>
      <trkpt lat="50.2002" lon="4.35644">
        <ele>254.5</ele>
        <time>2016-8-7T10:31:9.000Z</time>
      </trkpt>
      <trkpt lat="50.20021" lon="4.35646">
        <ele>254.5</ele>
        <time>2016-8-7T10:31:9.000Z</time>
      </trkpt>
      <trkpt lat="50.20021" lon="4.35646">
        <ele>254.5</ele>
        <time>2016-8-7T10:31:9.000Z</time>
      </trkpt>
      <trkpt lat="50.20023" lon="4.35648">
        <ele>255</ele>
        <time>2016-8-7T10:31:9.000Z</time>
      </trkpt>
      <trkpt lat="50.20023" lon="4.35648">
        <ele>255</ele>
        <time>2016-8-7T10:31:9.000Z</time>
      </trkpt>
      <trkpt lat="50.20025" lon="4.35651">
        <ele>254.5</ele>
        <time>2016-8-7T10:31:9.000Z</time>
      </trkpt>
      <trkpt lat="50.20025" lon="4.35651">
        <ele>254.5</ele>
        <time>2016-8-7T10:31:9.000Z</time>
      </trkpt>
      <trkpt lat="50.20027" lon="4.35654">
        <ele>255</ele>
        <time>2016-8-7T10:31:9.000Z</time>
      </trkpt>
      <trkpt lat="50.20027" lon="4.35654">
        <ele>255</ele>
        <time>2016-8-7T10:31:9.000Z</time>
      </trkpt>
      <trkpt lat="50.20028" lon="4.35655">
        <ele>255</ele>
        <time>2016-8-7T10:31:9.000Z</time>
      </trkpt>
      <trkpt lat="50.20028" lon="4.35655">
        <ele>255</ele>
        <time>2016-8-7T10:31:9.000Z</time>
      </trkpt>
      <trkpt lat="50.20029" lon="4.35656">
        <ele>255</ele>
        <time>2016-8-7T10:31:9.000Z</time>
      </trkpt>
      <trkpt lat="50.20029" lon="4.35656">
        <ele>255</ele>
        <time>2016-8-7T10:31:9.000Z</time>
      </trkpt>
      <trkpt lat="50.20031" lon="4.35658">
        <ele>255</ele>
        <time>2016-8-7T10:31:9.000Z</time>
      </trkpt>
      <trkpt lat="50.20031" lon="4.35658">
        <ele>255</ele>
        <time>2016-8-7T10:31:9.000Z</time>
      </trkpt>
      <trkpt lat="50.20033" lon="4.35659">
        <ele>255</ele>
        <time>2016-8-7T10:31:9.000Z</time>
      </trkpt>
      <trkpt lat="50.20033" lon="4.35659">
        <ele>255</ele>
        <time>2016-8-7T10:31:9.000Z</time>
      </trkpt>
      <trkpt lat="50.20035" lon="4.35661">
        <ele>255</ele>
        <time>2016-8-7T10:31:9.000Z</time>
      </trkpt>
      <trkpt lat="50.20035" lon="4.35661">
        <ele>255</ele>
        <time>2016-8-7T10:31:9.000Z</time>
      </trkpt>
      <trkpt lat="50.20037" lon="4.35662">
        <ele>255</ele>
        <time>2016-8-7T10:31:9.000Z</time>
      </trkpt>
      <trkpt lat="50.20037" lon="4.35662">
        <ele>255</ele>
        <time>2016-8-7T10:31:9.000Z</time>
      </trkpt>
      <trkpt lat="50.20038" lon="4.35663">
        <ele>255</ele>
        <time>2016-8-7T10:31:9.000Z</time>
      </trkpt>
      <trkpt lat="50.20038" lon="4.35663">
        <ele>255</ele>
        <time>2016-8-7T10:31:9.000Z</time>
      </trkpt>
      <trkpt lat="50.20039" lon="4.35664">
        <ele>255</ele>
        <time>2016-8-7T10:31:9.000Z</time>
      </trkpt>
      <trkpt lat="50.20039" lon="4.35664">
        <ele>255</ele>
        <time>2016-8-7T10:31:9.000Z</time>
      </trkpt>
      <trkpt lat="50.20041" lon="4.35666">
        <ele>255.5</ele>
        <time>2016-8-7T10:31:9.000Z</time>
      </trkpt>
      <trkpt lat="50.20041" lon="4.35666">
        <ele>255.5</ele>
        <time>2016-8-7T10:31:9.000Z</time>
      </trkpt>
      <trkpt lat="50.20043" lon="4.35668">
        <ele>255.5</ele>
        <time>2016-8-7T10:31:9.000Z</time>
      </trkpt>
      <trkpt lat="50.20043" lon="4.35668">
        <ele>255.5</ele>
        <time>2016-8-7T10:31:9.000Z</time>
      </trkpt>
      <trkpt lat="50.20045" lon="4.35669">
        <ele>255.5</ele>
        <time>2016-8-7T10:31:9.000Z</time>
      </trkpt>
      <trkpt lat="50.20045" lon="4.35669">
        <ele>255.5</ele>
        <time>2016-8-7T10:31:9.000Z</time>
      </trkpt>
      <trkpt lat="50.20046" lon="4.3567">
        <ele>255.5</ele>
        <time>2016-8-7T10:31:9.000Z</time>
      </trkpt>
      <trkpt lat="50.20046" lon="4.3567">
        <ele>255.5</ele>
        <time>2016-8-7T10:31:9.000Z</time>
      </trkpt>
      <trkpt lat="50.20048" lon="4.35672">
        <ele>255.5</ele>
        <time>2016-8-7T10:31:9.000Z</time>
      </trkpt>
      <trkpt lat="50.20048" lon="4.35672">
        <ele>255.5</ele>
        <time>2016-8-7T10:31:9.000Z</time>
      </trkpt>
      <trkpt lat="50.2005" lon="4.35673">
        <ele>255.5</ele>
        <time>2016-8-7T10:31:9.000Z</time>
      </trkpt>
      <trkpt lat="50.2005" lon="4.35673">
        <ele>255.5</ele>
        <time>2016-8-7T10:31:9.000Z</time>
      </trkpt>
      <trkpt lat="50.20051" lon="4.35675">
        <ele>255.5</ele>
        <time>2016-8-7T10:31:9.000Z</time>
      </trkpt>
      <trkpt lat="50.20051" lon="4.35675">
        <ele>255.5</ele>
        <time>2016-8-7T10:31:9.000Z</time>
      </trkpt>
      <trkpt lat="50.20052" lon="4.35676">
        <ele>255.5</ele>
        <time>2016-8-7T10:31:9.000Z</time>
      </trkpt>
      <trkpt lat="50.20052" lon="4.35676">
        <ele>255.5</ele>
        <time>2016-8-7T10:31:9.000Z</time>
      </trkpt>
      <trkpt lat="50.20054" lon="4.35678">
        <ele>255</ele>
        <time>2016-8-7T10:31:9.000Z</time>
      </trkpt>
      <trkpt lat="50.20054" lon="4.35678">
        <ele>255</ele>
        <time>2016-8-7T10:31:9.000Z</time>
      </trkpt>
      <trkpt lat="50.20055" lon="4.35679">
        <ele>254.5</ele>
        <time>2016-8-7T10:31:9.000Z</time>
      </trkpt>
      <trkpt lat="50.20055" lon="4.35679">
        <ele>254.5</ele>
        <time>2016-8-7T10:31:9.000Z</time>
      </trkpt>
      <trkpt lat="50.20057" lon="4.3568">
        <ele>254.5</ele>
        <time>2016-8-7T10:31:9.000Z</time>
      </trkpt>
      <trkpt lat="50.20057" lon="4.3568">
        <ele>254.5</ele>
        <time>2016-8-7T10:31:9.000Z</time>
      </trkpt>
      <trkpt lat="50.20058" lon="4.35681">
        <ele>254.5</ele>
        <time>2016-8-7T10:31:9.000Z</time>
      </trkpt>
      <trkpt lat="50.20058" lon="4.35681">
        <ele>254.5</ele>
        <time>2016-8-7T10:31:9.000Z</time>
      </trkpt>
      <trkpt lat="50.20059" lon="4.35681">
        <ele>254</ele>
        <time>2016-8-7T10:31:9.000Z</time>
      </trkpt>
      <trkpt lat="50.20059" lon="4.35681">
        <ele>254</ele>
        <time>2016-8-7T10:31:9.000Z</time>
      </trkpt>
      <trkpt lat="50.20061" lon="4.35682">
        <ele>254</ele>
        <time>2016-8-7T10:31:9.000Z</time>
      </trkpt>
      <trkpt lat="50.20061" lon="4.35682">
        <ele>254</ele>
        <time>2016-8-7T10:31:9.000Z</time>
      </trkpt>
      <trkpt lat="50.20061" lon="4.35683">
        <ele>254</ele>
        <time>2016-8-7T10:31:9.000Z</time>
      </trkpt>
      <trkpt lat="50.20061" lon="4.35683">
        <ele>254</ele>
        <time>2016-8-7T10:31:9.000Z</time>
      </trkpt>
      <trkpt lat="50.20063" lon="4.35684">
        <ele>254</ele>
        <time>2016-8-7T10:31:9.000Z</time>
      </trkpt>
      <trkpt lat="50.20063" lon="4.35684">
        <ele>254</ele>
        <time>2016-8-7T10:31:9.000Z</time>
      </trkpt>
      <trkpt lat="50.20064" lon="4.35684">
        <ele>254</ele>
        <time>2016-8-7T10:31:9.000Z</time>
      </trkpt>
      <trkpt lat="50.20064" lon="4.35684">
        <ele>254</ele>
        <time>2016-8-7T10:31:9.000Z</time>
      </trkpt>
      <trkpt lat="50.20064" lon="4.35685">
        <ele>254</ele>
        <time>2016-8-7T10:31:9.000Z</time>
      </trkpt>
      <trkpt lat="50.20064" lon="4.35685">
        <ele>254</ele>
        <time>2016-8-7T10:31:9.000Z</time>
      </trkpt>
      <trkpt lat="50.20066" lon="4.35687">
        <ele>254.5</ele>
        <time>2016-8-7T10:31:9.000Z</time>
      </trkpt>
      <trkpt lat="50.20066" lon="4.35687">
        <ele>254.5</ele>
        <time>2016-8-7T10:31:9.000Z</time>
      </trkpt>
      <trkpt lat="50.20067" lon="4.3569">
        <ele>254.5</ele>
        <time>2016-8-7T10:31:9.000Z</time>
      </trkpt>
      <trkpt lat="50.20067" lon="4.3569">
        <ele>254.5</ele>
        <time>2016-8-7T10:31:9.000Z</time>
      </trkpt>
      <trkpt lat="50.20069" lon="4.35691">
        <ele>254.5</ele>
        <time>2016-8-7T10:31:9.000Z</time>
      </trkpt>
      <trkpt lat="50.20069" lon="4.35691">
        <ele>254.5</ele>
        <time>2016-8-7T10:31:9.000Z</time>
      </trkpt>
      <trkpt lat="50.20071" lon="4.35693">
        <ele>254.5</ele>
        <time>2016-8-7T10:31:9.000Z</time>
      </trkpt>
      <trkpt lat="50.20071" lon="4.35693">
        <ele>254.5</ele>
        <time>2016-8-7T10:31:9.000Z</time>
      </trkpt>
      <trkpt lat="50.20073" lon="4.35695">
        <ele>254.5</ele>
        <time>2016-8-7T10:31:9.000Z</time>
      </trkpt>
      <trkpt lat="50.20073" lon="4.35695">
        <ele>254.5</ele>
        <time>2016-8-7T10:31:9.000Z</time>
      </trkpt>
      <trkpt lat="50.20075" lon="4.35697">
        <ele>254.5</ele>
        <time>2016-8-7T10:31:9.000Z</time>
      </trkpt>
      <trkpt lat="50.20075" lon="4.35697">
        <ele>254.5</ele>
        <time>2016-8-7T10:31:9.000Z</time>
      </trkpt>
      <trkpt lat="50.20076" lon="4.35698">
        <ele>254.5</ele>
        <time>2016-8-7T10:31:9.000Z</time>
      </trkpt>
      <trkpt lat="50.20076" lon="4.35698">
        <ele>254.5</ele>
        <time>2016-8-7T10:31:9.000Z</time>
      </trkpt>
      <trkpt lat="50.20077" lon="4.35701">
        <ele>254.5</ele>
        <time>2016-8-7T10:31:9.000Z</time>
      </trkpt>
      <trkpt lat="50.20077" lon="4.35701">
        <ele>254.5</ele>
        <time>2016-8-7T10:31:9.000Z</time>
      </trkpt>
      <trkpt lat="50.20077" lon="4.35703">
        <ele>254.5</ele>
        <time>2016-8-7T10:31:9.000Z</time>
      </trkpt>
      <trkpt lat="50.20077" lon="4.35703">
        <ele>254.5</ele>
        <time>2016-8-7T10:31:9.000Z</time>
      </trkpt>
      <trkpt lat="50.20076" lon="4.35706">
        <ele>255</ele>
        <time>2016-8-7T10:31:9.000Z</time>
      </trkpt>
      <trkpt lat="50.20076" lon="4.35706">
        <ele>255</ele>
        <time>2016-8-7T10:31:9.000Z</time>
      </trkpt>
      <trkpt lat="50.20076" lon="4.35708">
        <ele>255</ele>
        <time>2016-8-7T10:31:9.000Z</time>
      </trkpt>
      <trkpt lat="50.20076" lon="4.35708">
        <ele>255</ele>
        <time>2016-8-7T10:31:9.000Z</time>
      </trkpt>
      <trkpt lat="50.20074" lon="4.35709">
        <ele>255</ele>
        <time>2016-8-7T10:31:9.000Z</time>
      </trkpt>
      <trkpt lat="50.20074" lon="4.35709">
        <ele>255</ele>
        <time>2016-8-7T10:31:9.000Z</time>
      </trkpt>
      <trkpt lat="50.20074" lon="4.35709">
        <ele>255</ele>
        <time>2016-8-7T10:31:9.000Z</time>
      </trkpt>
      <trkpt lat="50.20074" lon="4.35709">
        <ele>255</ele>
        <time>2016-8-7T10:31:9.000Z</time>
      </trkpt>
      <trkpt lat="50.20074" lon="4.35709">
        <ele>255</ele>
        <time>2016-8-7T10:31:9.000Z</time>
      </trkpt>
      <trkpt lat="50.20074" lon="4.35709">
        <ele>255</ele>
        <time>2016-8-7T10:31:9.000Z</time>
      </trkpt>
      <trkpt lat="50.20076" lon="4.35709">
        <ele>255.5</ele>
        <time>2016-8-7T10:31:9.000Z</time>
      </trkpt>
      <trkpt lat="50.20076" lon="4.35709">
        <ele>255.5</ele>
        <time>2016-8-7T10:31:9.000Z</time>
      </trkpt>
      <trkpt lat="50.20075" lon="4.35711">
        <ele>256.5</ele>
        <time>2016-8-7T10:32:31.000Z</time>
      </trkpt>
      <trkpt lat="50.20075" lon="4.35711">
        <ele>256.5</ele>
        <time>2016-8-7T10:32:31.000Z</time>
      </trkpt>
      <trkpt lat="50.20073" lon="4.35713">
        <ele>256.5</ele>
        <time>2016-8-7T10:32:31.000Z</time>
      </trkpt>
      <trkpt lat="50.20073" lon="4.35713">
        <ele>256.5</ele>
        <time>2016-8-7T10:32:31.000Z</time>
      </trkpt>
      <trkpt lat="50.20072" lon="4.35714">
        <ele>256.5</ele>
        <time>2016-8-7T10:32:31.000Z</time>
      </trkpt>
      <trkpt lat="50.20072" lon="4.35714">
        <ele>256.5</ele>
        <time>2016-8-7T10:32:31.000Z</time>
      </trkpt>
      <trkpt lat="50.2007" lon="4.35713">
        <ele>256</ele>
        <time>2016-8-7T10:32:31.000Z</time>
      </trkpt>
      <trkpt lat="50.2007" lon="4.35713">
        <ele>256</ele>
        <time>2016-8-7T10:32:31.000Z</time>
      </trkpt>
      <trkpt lat="50.2007" lon="4.35713">
        <ele>256</ele>
        <time>2016-8-7T10:32:31.000Z</time>
      </trkpt>
      <trkpt lat="50.2007" lon="4.35713">
        <ele>256</ele>
        <time>2016-8-7T10:32:31.000Z</time>
      </trkpt>
      <trkpt lat="50.20072" lon="4.35711">
        <ele>256.5</ele>
        <time>2016-8-7T10:32:31.000Z</time>
      </trkpt>
      <trkpt lat="50.20072" lon="4.35711">
        <ele>256.5</ele>
        <time>2016-8-7T10:32:31.000Z</time>
      </trkpt>
      <trkpt lat="50.20074" lon="4.3571">
        <ele>257.5</ele>
        <time>2016-8-7T10:32:31.000Z</time>
      </trkpt>
      <trkpt lat="50.20074" lon="4.3571">
        <ele>257.5</ele>
        <time>2016-8-7T10:32:31.000Z</time>
      </trkpt>
      <trkpt lat="50.20075" lon="4.35709">
        <ele>257.5</ele>
        <time>2016-8-7T10:32:31.000Z</time>
      </trkpt>
      <trkpt lat="50.20075" lon="4.35709">
        <ele>257.5</ele>
        <time>2016-8-7T10:32:31.000Z</time>
      </trkpt>
      <trkpt lat="50.20077" lon="4.35707">
        <ele>257</ele>
        <time>2016-8-7T10:32:31.000Z</time>
      </trkpt>
      <trkpt lat="50.20077" lon="4.35707">
        <ele>257</ele>
        <time>2016-8-7T10:32:31.000Z</time>
      </trkpt>
      <trkpt lat="50.20079" lon="4.35706">
        <ele>257</ele>
        <time>2016-8-7T10:32:31.000Z</time>
      </trkpt>
      <trkpt lat="50.20079" lon="4.35706">
        <ele>257</ele>
        <time>2016-8-7T10:32:31.000Z</time>
      </trkpt>
      <trkpt lat="50.2008" lon="4.35706">
        <ele>257</ele>
        <time>2016-8-7T10:32:31.000Z</time>
      </trkpt>
      <trkpt lat="50.2008" lon="4.35706">
        <ele>257</ele>
        <time>2016-8-7T10:32:31.000Z</time>
      </trkpt>
      <trkpt lat="50.20082" lon="4.35706">
        <ele>257</ele>
        <time>2016-8-7T10:32:31.000Z</time>
      </trkpt>
      <trkpt lat="50.20082" lon="4.35706">
        <ele>257</ele>
        <time>2016-8-7T10:32:31.000Z</time>
      </trkpt>
      <trkpt lat="50.20084" lon="4.35706">
        <ele>257</ele>
        <time>2016-8-7T10:32:31.000Z</time>
      </trkpt>
      <trkpt lat="50.20084" lon="4.35706">
        <ele>257</ele>
        <time>2016-8-7T10:32:31.000Z</time>
      </trkpt>
      <trkpt lat="50.20085" lon="4.35706">
        <ele>256.5</ele>
        <time>2016-8-7T10:32:31.000Z</time>
      </trkpt>
      <trkpt lat="50.20085" lon="4.35706">
        <ele>256.5</ele>
        <time>2016-8-7T10:32:31.000Z</time>
      </trkpt>
      <trkpt lat="50.20086" lon="4.35705">
        <ele>257.5</ele>
        <time>2016-8-7T10:32:31.000Z</time>
      </trkpt>
      <trkpt lat="50.20086" lon="4.35705">
        <ele>257.5</ele>
        <time>2016-8-7T10:32:31.000Z</time>
      </trkpt>
      <trkpt lat="50.20087" lon="4.35705">
        <ele>257.5</ele>
        <time>2016-8-7T10:32:31.000Z</time>
      </trkpt>
      <trkpt lat="50.20087" lon="4.35705">
        <ele>257.5</ele>
        <time>2016-8-7T10:32:31.000Z</time>
      </trkpt>
      <trkpt lat="50.20089" lon="4.35705">
        <ele>258</ele>
        <time>2016-8-7T10:32:31.000Z</time>
      </trkpt>
      <trkpt lat="50.20089" lon="4.35705">
        <ele>258</ele>
        <time>2016-8-7T10:32:31.000Z</time>
      </trkpt>
      <trkpt lat="50.20091" lon="4.35704">
        <ele>257.5</ele>
        <time>2016-8-7T10:32:31.000Z</time>
      </trkpt>
      <trkpt lat="50.20091" lon="4.35704">
        <ele>257.5</ele>
        <time>2016-8-7T10:32:31.000Z</time>
      </trkpt>
      <trkpt lat="50.20093" lon="4.35703">
        <ele>257.5</ele>
        <time>2016-8-7T10:32:31.000Z</time>
      </trkpt>
      <trkpt lat="50.20093" lon="4.35703">
        <ele>257.5</ele>
        <time>2016-8-7T10:32:31.000Z</time>
      </trkpt>
      <trkpt lat="50.20094" lon="4.35703">
        <ele>257</ele>
        <time>2016-8-7T10:32:31.000Z</time>
      </trkpt>
      <trkpt lat="50.20094" lon="4.35703">
        <ele>257</ele>
        <time>2016-8-7T10:32:31.000Z</time>
      </trkpt>
      <trkpt lat="50.20096" lon="4.35702">
        <ele>256.5</ele>
        <time>2016-8-7T10:32:31.000Z</time>
      </trkpt>
      <trkpt lat="50.20096" lon="4.35702">
        <ele>256.5</ele>
        <time>2016-8-7T10:32:31.000Z</time>
      </trkpt>
      <trkpt lat="50.20097" lon="4.35701">
        <ele>256.5</ele>
        <time>2016-8-7T10:32:31.000Z</time>
      </trkpt>
      <trkpt lat="50.20097" lon="4.35701">
        <ele>256.5</ele>
        <time>2016-8-7T10:32:31.000Z</time>
      </trkpt>
      <trkpt lat="50.20099" lon="4.35701">
        <ele>256.5</ele>
        <time>2016-8-7T10:32:31.000Z</time>
      </trkpt>
      <trkpt lat="50.20099" lon="4.35701">
        <ele>256.5</ele>
        <time>2016-8-7T10:32:31.000Z</time>
      </trkpt>
      <trkpt lat="50.20101" lon="4.357">
        <ele>256.5</ele>
        <time>2016-8-7T10:32:31.000Z</time>
      </trkpt>
      <trkpt lat="50.20101" lon="4.357">
        <ele>256.5</ele>
        <time>2016-8-7T10:32:31.000Z</time>
      </trkpt>
      <trkpt lat="50.20104" lon="4.35699">
        <ele>256.5</ele>
        <time>2016-8-7T10:32:31.000Z</time>
      </trkpt>
      <trkpt lat="50.20104" lon="4.35699">
        <ele>256.5</ele>
        <time>2016-8-7T10:32:31.000Z</time>
      </trkpt>
      <trkpt lat="50.20105" lon="4.35698">
        <ele>257</ele>
        <time>2016-8-7T10:32:31.000Z</time>
      </trkpt>
      <trkpt lat="50.20105" lon="4.35698">
        <ele>257</ele>
        <time>2016-8-7T10:32:31.000Z</time>
      </trkpt>
      <trkpt lat="50.20107" lon="4.35697">
        <ele>257</ele>
        <time>2016-8-7T10:32:31.000Z</time>
      </trkpt>
      <trkpt lat="50.20107" lon="4.35697">
        <ele>257</ele>
        <time>2016-8-7T10:32:31.000Z</time>
      </trkpt>
      <trkpt lat="50.20109" lon="4.35696">
        <ele>257.5</ele>
        <time>2016-8-7T10:32:31.000Z</time>
      </trkpt>
      <trkpt lat="50.20109" lon="4.35696">
        <ele>257.5</ele>
        <time>2016-8-7T10:32:31.000Z</time>
      </trkpt>
      <trkpt lat="50.20112" lon="4.35695">
        <ele>257.5</ele>
        <time>2016-8-7T10:32:31.000Z</time>
      </trkpt>
      <trkpt lat="50.20112" lon="4.35695">
        <ele>257.5</ele>
        <time>2016-8-7T10:32:31.000Z</time>
      </trkpt>
      <trkpt lat="50.20114" lon="4.35694">
        <ele>257.5</ele>
        <time>2016-8-7T10:32:31.000Z</time>
      </trkpt>
      <trkpt lat="50.20114" lon="4.35694">
        <ele>257.5</ele>
        <time>2016-8-7T10:32:31.000Z</time>
      </trkpt>
      <trkpt lat="50.20117" lon="4.35693">
        <ele>257.5</ele>
        <time>2016-8-7T10:32:31.000Z</time>
      </trkpt>
      <trkpt lat="50.20117" lon="4.35693">
        <ele>257.5</ele>
        <time>2016-8-7T10:32:31.000Z</time>
      </trkpt>
      <trkpt lat="50.20119" lon="4.35692">
        <ele>257.5</ele>
        <time>2016-8-7T10:32:31.000Z</time>
      </trkpt>
      <trkpt lat="50.20119" lon="4.35692">
        <ele>257.5</ele>
        <time>2016-8-7T10:32:31.000Z</time>
      </trkpt>
      <trkpt lat="50.20122" lon="4.35691">
        <ele>257.5</ele>
        <time>2016-8-7T10:32:31.000Z</time>
      </trkpt>
      <trkpt lat="50.20122" lon="4.35691">
        <ele>257.5</ele>
        <time>2016-8-7T10:32:31.000Z</time>
      </trkpt>
      <trkpt lat="50.20124" lon="4.3569">
        <ele>257.5</ele>
        <time>2016-8-7T10:32:31.000Z</time>
      </trkpt>
      <trkpt lat="50.20124" lon="4.3569">
        <ele>257.5</ele>
        <time>2016-8-7T10:32:31.000Z</time>
      </trkpt>
      <trkpt lat="50.20126" lon="4.35689">
        <ele>257.5</ele>
        <time>2016-8-7T10:32:31.000Z</time>
      </trkpt>
      <trkpt lat="50.20126" lon="4.35689">
        <ele>257.5</ele>
        <time>2016-8-7T10:32:31.000Z</time>
      </trkpt>
      <trkpt lat="50.20128" lon="4.35688">
        <ele>257.5</ele>
        <time>2016-8-7T10:32:31.000Z</time>
      </trkpt>
      <trkpt lat="50.20128" lon="4.35688">
        <ele>257.5</ele>
        <time>2016-8-7T10:32:31.000Z</time>
      </trkpt>
      <trkpt lat="50.20129" lon="4.35688">
        <ele>257.5</ele>
        <time>2016-8-7T10:32:31.000Z</time>
      </trkpt>
      <trkpt lat="50.20129" lon="4.35688">
        <ele>257.5</ele>
        <time>2016-8-7T10:32:31.000Z</time>
      </trkpt>
      <trkpt lat="50.20132" lon="4.35685">
        <ele>257.5</ele>
        <time>2016-8-7T10:32:31.000Z</time>
      </trkpt>
      <trkpt lat="50.20132" lon="4.35685">
        <ele>257.5</ele>
        <time>2016-8-7T10:32:31.000Z</time>
      </trkpt>
      <trkpt lat="50.20133" lon="4.35684">
        <ele>257.5</ele>
        <time>2016-8-7T10:32:31.000Z</time>
      </trkpt>
      <trkpt lat="50.20133" lon="4.35684">
        <ele>257.5</ele>
        <time>2016-8-7T10:32:31.000Z</time>
      </trkpt>
      <trkpt lat="50.20135" lon="4.35683">
        <ele>257.5</ele>
        <time>2016-8-7T10:32:31.000Z</time>
      </trkpt>
      <trkpt lat="50.20135" lon="4.35683">
        <ele>257.5</ele>
        <time>2016-8-7T10:32:31.000Z</time>
      </trkpt>
      <trkpt lat="50.20137" lon="4.35682">
        <ele>256.5</ele>
        <time>2016-8-7T10:32:31.000Z</time>
      </trkpt>
      <trkpt lat="50.20137" lon="4.35682">
        <ele>256.5</ele>
        <time>2016-8-7T10:32:31.000Z</time>
      </trkpt>
      <trkpt lat="50.2014" lon="4.35681">
        <ele>256.5</ele>
        <time>2016-8-7T10:32:31.000Z</time>
      </trkpt>
      <trkpt lat="50.2014" lon="4.35681">
        <ele>256.5</ele>
        <time>2016-8-7T10:32:31.000Z</time>
      </trkpt>
      <trkpt lat="50.20142" lon="4.35679">
        <ele>256</ele>
        <time>2016-8-7T10:32:31.000Z</time>
      </trkpt>
      <trkpt lat="50.20142" lon="4.35679">
        <ele>256</ele>
        <time>2016-8-7T10:32:31.000Z</time>
      </trkpt>
      <trkpt lat="50.20143" lon="4.35678">
        <ele>256</ele>
        <time>2016-8-7T10:32:31.000Z</time>
      </trkpt>
      <trkpt lat="50.20143" lon="4.35678">
        <ele>256</ele>
        <time>2016-8-7T10:32:31.000Z</time>
      </trkpt>
      <trkpt lat="50.20145" lon="4.35676">
        <ele>256</ele>
        <time>2016-8-7T10:32:31.000Z</time>
      </trkpt>
      <trkpt lat="50.20145" lon="4.35676">
        <ele>256</ele>
        <time>2016-8-7T10:32:31.000Z</time>
      </trkpt>
      <trkpt lat="50.20146" lon="4.35676">
        <ele>256</ele>
        <time>2016-8-7T10:32:31.000Z</time>
      </trkpt>
      <trkpt lat="50.20146" lon="4.35676">
        <ele>256</ele>
        <time>2016-8-7T10:32:31.000Z</time>
      </trkpt>
      <trkpt lat="50.20149" lon="4.35674">
        <ele>256</ele>
        <time>2016-8-7T10:32:31.000Z</time>
      </trkpt>
      <trkpt lat="50.20149" lon="4.35674">
        <ele>256</ele>
        <time>2016-8-7T10:32:31.000Z</time>
      </trkpt>
      <trkpt lat="50.2015" lon="4.35674">
        <ele>255.5</ele>
        <time>2016-8-7T10:32:31.000Z</time>
      </trkpt>
      <trkpt lat="50.2015" lon="4.35674">
        <ele>255.5</ele>
        <time>2016-8-7T10:32:31.000Z</time>
      </trkpt>
      <trkpt lat="50.20151" lon="4.35673">
        <ele>255.5</ele>
        <time>2016-8-7T10:32:31.000Z</time>
      </trkpt>
      <trkpt lat="50.20151" lon="4.35673">
        <ele>255.5</ele>
        <time>2016-8-7T10:32:31.000Z</time>
      </trkpt>
      <trkpt lat="50.20153" lon="4.35671">
        <ele>256</ele>
        <time>2016-8-7T10:32:31.000Z</time>
      </trkpt>
      <trkpt lat="50.20153" lon="4.35671">
        <ele>256</ele>
        <time>2016-8-7T10:32:31.000Z</time>
      </trkpt>
      <trkpt lat="50.20156" lon="4.35669">
        <ele>256</ele>
        <time>2016-8-7T10:32:31.000Z</time>
      </trkpt>
      <trkpt lat="50.20156" lon="4.35669">
        <ele>256</ele>
        <time>2016-8-7T10:32:47.000Z</time>
      </trkpt>
      <trkpt lat="50.20157" lon="4.35668">
        <ele>256.5</ele>
        <time>2016-8-7T10:32:47.000Z</time>
      </trkpt>
      <trkpt lat="50.20157" lon="4.35668">
        <ele>256.5</ele>
        <time>2016-8-7T10:32:47.000Z</time>
      </trkpt>
      <trkpt lat="50.20158" lon="4.35667">
        <ele>256</ele>
        <time>2016-8-7T10:32:47.000Z</time>
      </trkpt>
      <trkpt lat="50.20158" lon="4.35667">
        <ele>256</ele>
        <time>2016-8-7T10:32:47.000Z</time>
      </trkpt>
      <trkpt lat="50.2016" lon="4.35666">
        <ele>255.5</ele>
        <time>2016-8-7T10:32:47.000Z</time>
      </trkpt>
      <trkpt lat="50.2016" lon="4.35666">
        <ele>255.5</ele>
        <time>2016-8-7T10:32:47.000Z</time>
      </trkpt>
      <trkpt lat="50.20162" lon="4.35666">
        <ele>255.5</ele>
        <time>2016-8-7T10:32:47.000Z</time>
      </trkpt>
      <trkpt lat="50.20162" lon="4.35666">
        <ele>255.5</ele>
        <time>2016-8-7T10:32:47.000Z</time>
      </trkpt>
      <trkpt lat="50.20164" lon="4.35666">
        <ele>255.5</ele>
        <time>2016-8-7T10:32:47.000Z</time>
      </trkpt>
      <trkpt lat="50.20164" lon="4.35666">
        <ele>255.5</ele>
        <time>2016-8-7T10:32:47.000Z</time>
      </trkpt>
      <trkpt lat="50.20165" lon="4.35666">
        <ele>255.5</ele>
        <time>2016-8-7T10:32:47.000Z</time>
      </trkpt>
      <trkpt lat="50.20165" lon="4.35666">
        <ele>255.5</ele>
        <time>2016-8-7T10:32:47.000Z</time>
      </trkpt>
      <trkpt lat="50.20168" lon="4.35667">
        <ele>255.5</ele>
        <time>2016-8-7T10:32:47.000Z</time>
      </trkpt>
      <trkpt lat="50.20168" lon="4.35667">
        <ele>255.5</ele>
        <time>2016-8-7T10:32:47.000Z</time>
      </trkpt>
      <trkpt lat="50.2017" lon="4.35669">
        <ele>256.5</ele>
        <time>2016-8-7T10:32:47.000Z</time>
      </trkpt>
      <trkpt lat="50.2017" lon="4.35669">
        <ele>256.5</ele>
        <time>2016-8-7T10:32:47.000Z</time>
      </trkpt>
      <trkpt lat="50.20172" lon="4.35671">
        <ele>256.5</ele>
        <time>2016-8-7T10:32:47.000Z</time>
      </trkpt>
      <trkpt lat="50.20172" lon="4.35671">
        <ele>256.5</ele>
        <time>2016-8-7T10:32:47.000Z</time>
      </trkpt>
      <trkpt lat="50.20173" lon="4.35672">
        <ele>256.5</ele>
        <time>2016-8-7T10:33:46.000Z</time>
      </trkpt>
      <trkpt lat="50.20173" lon="4.35672">
        <ele>256.5</ele>
        <time>2016-8-7T10:33:46.000Z</time>
      </trkpt>
      <trkpt lat="50.20174" lon="4.35675">
        <ele>257.5</ele>
        <time>2016-8-7T10:35:55.000Z</time>
      </trkpt>
      <trkpt lat="50.20174" lon="4.35675">
        <ele>257.5</ele>
        <time>2016-8-7T10:35:55.000Z</time>
      </trkpt>
      <trkpt lat="50.20176" lon="4.3568">
        <ele>258</ele>
        <time>2016-8-7T10:35:55.000Z</time>
      </trkpt>
      <trkpt lat="50.20176" lon="4.3568">
        <ele>258</ele>
        <time>2016-8-7T10:35:55.000Z</time>
      </trkpt>
      <trkpt lat="50.20176" lon="4.35681">
        <ele>258</ele>
        <time>2016-8-7T10:35:55.000Z</time>
      </trkpt>
      <trkpt lat="50.20176" lon="4.35681">
        <ele>258</ele>
        <time>2016-8-7T10:35:55.000Z</time>
      </trkpt>
      <trkpt lat="50.20178" lon="4.35683">
        <ele>258.5</ele>
        <time>2016-8-7T10:35:55.000Z</time>
      </trkpt>
      <trkpt lat="50.20178" lon="4.35683">
        <ele>258.5</ele>
        <time>2016-8-7T10:35:55.000Z</time>
      </trkpt>
      <trkpt lat="50.20179" lon="4.35684">
        <ele>258.5</ele>
        <time>2016-8-7T10:35:55.000Z</time>
      </trkpt>
      <trkpt lat="50.20179" lon="4.35684">
        <ele>258.5</ele>
        <time>2016-8-7T10:35:55.000Z</time>
      </trkpt>
      <trkpt lat="50.2018" lon="4.35684">
        <ele>258.5</ele>
        <time>2016-8-7T10:35:55.000Z</time>
      </trkpt>
      <trkpt lat="50.2018" lon="4.35684">
        <ele>258.5</ele>
        <time>2016-8-7T10:35:55.000Z</time>
      </trkpt>
      <trkpt lat="50.20181" lon="4.35683">
        <ele>258.5</ele>
        <time>2016-8-7T10:35:55.000Z</time>
      </trkpt>
      <trkpt lat="50.20181" lon="4.35683">
        <ele>258.5</ele>
        <time>2016-8-7T10:35:55.000Z</time>
      </trkpt>
      <trkpt lat="50.20182" lon="4.35683">
        <ele>258.5</ele>
        <time>2016-8-7T10:35:55.000Z</time>
      </trkpt>
      <trkpt lat="50.20182" lon="4.35683">
        <ele>258.5</ele>
        <time>2016-8-7T10:35:55.000Z</time>
      </trkpt>
      <trkpt lat="50.20185" lon="4.35687">
        <ele>258.5</ele>
        <time>2016-8-7T10:35:55.000Z</time>
      </trkpt>
      <trkpt lat="50.20185" lon="4.35687">
        <ele>258.5</ele>
        <time>2016-8-7T10:35:55.000Z</time>
      </trkpt>
      <trkpt lat="50.20186" lon="4.35689">
        <ele>258.5</ele>
        <time>2016-8-7T10:35:55.000Z</time>
      </trkpt>
      <trkpt lat="50.20186" lon="4.35689">
        <ele>258.5</ele>
        <time>2016-8-7T10:35:55.000Z</time>
      </trkpt>
      <trkpt lat="50.20188" lon="4.35691">
        <ele>257.5</ele>
        <time>2016-8-7T10:35:55.000Z</time>
      </trkpt>
      <trkpt lat="50.20188" lon="4.35691">
        <ele>257.5</ele>
        <time>2016-8-7T10:35:55.000Z</time>
      </trkpt>
      <trkpt lat="50.2019" lon="4.35694">
        <ele>257.5</ele>
        <time>2016-8-7T10:35:55.000Z</time>
      </trkpt>
      <trkpt lat="50.2019" lon="4.35694">
        <ele>257.5</ele>
        <time>2016-8-7T10:35:55.000Z</time>
      </trkpt>
      <trkpt lat="50.20191" lon="4.35698">
        <ele>257.5</ele>
        <time>2016-8-7T10:35:55.000Z</time>
      </trkpt>
      <trkpt lat="50.20191" lon="4.35698">
        <ele>257.5</ele>
        <time>2016-8-7T10:35:55.000Z</time>
      </trkpt>
      <trkpt lat="50.20193" lon="4.35701">
        <ele>257.5</ele>
        <time>2016-8-7T10:35:55.000Z</time>
      </trkpt>
      <trkpt lat="50.20193" lon="4.35701">
        <ele>257.5</ele>
        <time>2016-8-7T10:35:55.000Z</time>
      </trkpt>
      <trkpt lat="50.20194" lon="4.35703">
        <ele>257.5</ele>
        <time>2016-8-7T10:35:55.000Z</time>
      </trkpt>
      <trkpt lat="50.20194" lon="4.35703">
        <ele>257.5</ele>
        <time>2016-8-7T10:35:55.000Z</time>
      </trkpt>
      <trkpt lat="50.20197" lon="4.35705">
        <ele>256.5</ele>
        <time>2016-8-7T10:35:55.000Z</time>
      </trkpt>
      <trkpt lat="50.20197" lon="4.35705">
        <ele>256.5</ele>
        <time>2016-8-7T10:35:55.000Z</time>
      </trkpt>
      <trkpt lat="50.20199" lon="4.35707">
        <ele>256.5</ele>
        <time>2016-8-7T10:35:55.000Z</time>
      </trkpt>
      <trkpt lat="50.20199" lon="4.35707">
        <ele>256.5</ele>
        <time>2016-8-7T10:35:55.000Z</time>
      </trkpt>
      <trkpt lat="50.20199" lon="4.3571">
        <ele>256.5</ele>
        <time>2016-8-7T10:35:55.000Z</time>
      </trkpt>
      <trkpt lat="50.20199" lon="4.3571">
        <ele>256.5</ele>
        <time>2016-8-7T10:35:55.000Z</time>
      </trkpt>
      <trkpt lat="50.202" lon="4.35714">
        <ele>256.5</ele>
        <time>2016-8-7T10:35:55.000Z</time>
      </trkpt>
      <trkpt lat="50.202" lon="4.35714">
        <ele>256.5</ele>
        <time>2016-8-7T10:35:55.000Z</time>
      </trkpt>
      <trkpt lat="50.20202" lon="4.35717">
        <ele>256.5</ele>
        <time>2016-8-7T10:35:55.000Z</time>
      </trkpt>
      <trkpt lat="50.20202" lon="4.35717">
        <ele>256.5</ele>
        <time>2016-8-7T10:35:55.000Z</time>
      </trkpt>
      <trkpt lat="50.20202" lon="4.35721">
        <ele>257</ele>
        <time>2016-8-7T10:35:55.000Z</time>
      </trkpt>
      <trkpt lat="50.20202" lon="4.35721">
        <ele>257</ele>
        <time>2016-8-7T10:35:55.000Z</time>
      </trkpt>
      <trkpt lat="50.20205" lon="4.35724">
        <ele>257</ele>
        <time>2016-8-7T10:35:55.000Z</time>
      </trkpt>
      <trkpt lat="50.20205" lon="4.35724">
        <ele>257</ele>
        <time>2016-8-7T10:35:55.000Z</time>
      </trkpt>
      <trkpt lat="50.20206" lon="4.35725">
        <ele>257</ele>
        <time>2016-8-7T10:35:55.000Z</time>
      </trkpt>
      <trkpt lat="50.20206" lon="4.35725">
        <ele>257</ele>
        <time>2016-8-7T10:35:55.000Z</time>
      </trkpt>
      <trkpt lat="50.20205" lon="4.35729">
        <ele>257</ele>
        <time>2016-8-7T10:35:55.000Z</time>
      </trkpt>
      <trkpt lat="50.20205" lon="4.35729">
        <ele>257</ele>
        <time>2016-8-7T10:35:55.000Z</time>
      </trkpt>
      <trkpt lat="50.20206" lon="4.35732">
        <ele>256.5</ele>
        <time>2016-8-7T10:35:55.000Z</time>
      </trkpt>
      <trkpt lat="50.20206" lon="4.35732">
        <ele>256.5</ele>
        <time>2016-8-7T10:35:55.000Z</time>
      </trkpt>
      <trkpt lat="50.20209" lon="4.35735">
        <ele>255.5</ele>
        <time>2016-8-7T10:35:55.000Z</time>
      </trkpt>
      <trkpt lat="50.20209" lon="4.35735">
        <ele>255.5</ele>
        <time>2016-8-7T10:35:55.000Z</time>
      </trkpt>
      <trkpt lat="50.20215" lon="4.35739">
        <ele>256.5</ele>
        <time>2016-8-7T10:35:55.000Z</time>
      </trkpt>
      <trkpt lat="50.20215" lon="4.35739">
        <ele>256.5</ele>
        <time>2016-8-7T10:35:55.000Z</time>
      </trkpt>
      <trkpt lat="50.2022" lon="4.35751">
        <ele>257</ele>
        <time>2016-8-7T10:35:55.000Z</time>
      </trkpt>
      <trkpt lat="50.2022" lon="4.35751">
        <ele>257</ele>
        <time>2016-8-7T10:35:55.000Z</time>
      </trkpt>
      <trkpt lat="50.20223" lon="4.35766">
        <ele>256.5</ele>
        <time>2016-8-7T10:35:55.000Z</time>
      </trkpt>
      <trkpt lat="50.20223" lon="4.35766">
        <ele>256.5</ele>
        <time>2016-8-7T10:35:55.000Z</time>
      </trkpt>
      <trkpt lat="50.20224" lon="4.3577">
        <ele>255.5</ele>
        <time>2016-8-7T10:35:55.000Z</time>
      </trkpt>
      <trkpt lat="50.20224" lon="4.3577">
        <ele>255.5</ele>
        <time>2016-8-7T10:35:55.000Z</time>
      </trkpt>
      <trkpt lat="50.20225" lon="4.35773">
        <ele>255.5</ele>
        <time>2016-8-7T10:35:55.000Z</time>
      </trkpt>
      <trkpt lat="50.20225" lon="4.35773">
        <ele>255.5</ele>
        <time>2016-8-7T10:35:55.000Z</time>
      </trkpt>
      <trkpt lat="50.20227" lon="4.35774">
        <ele>256</ele>
        <time>2016-8-7T10:35:55.000Z</time>
      </trkpt>
      <trkpt lat="50.20227" lon="4.35774">
        <ele>256</ele>
        <time>2016-8-7T10:35:55.000Z</time>
      </trkpt>
      <trkpt lat="50.20228" lon="4.35776">
        <ele>256</ele>
        <time>2016-8-7T10:35:55.000Z</time>
      </trkpt>
      <trkpt lat="50.20228" lon="4.35776">
        <ele>256</ele>
        <time>2016-8-7T10:35:55.000Z</time>
      </trkpt>
      <trkpt lat="50.20227" lon="4.35779">
        <ele>256</ele>
        <time>2016-8-7T10:35:55.000Z</time>
      </trkpt>
      <trkpt lat="50.20227" lon="4.35779">
        <ele>256</ele>
        <time>2016-8-7T10:35:55.000Z</time>
      </trkpt>
      <trkpt lat="50.20229" lon="4.35783">
        <ele>256</ele>
        <time>2016-8-7T10:35:55.000Z</time>
      </trkpt>
      <trkpt lat="50.20229" lon="4.35783">
        <ele>256</ele>
        <time>2016-8-7T10:35:55.000Z</time>
      </trkpt>
      <trkpt lat="50.2023" lon="4.35793">
        <ele>256.5</ele>
        <time>2016-8-7T10:35:55.000Z</time>
      </trkpt>
      <trkpt lat="50.2023" lon="4.35793">
        <ele>256.5</ele>
        <time>2016-8-7T10:35:55.000Z</time>
      </trkpt>
      <trkpt lat="50.20231" lon="4.35796">
        <ele>256.5</ele>
        <time>2016-8-7T10:35:55.000Z</time>
      </trkpt>
      <trkpt lat="50.20231" lon="4.35796">
        <ele>256.5</ele>
        <time>2016-8-7T10:35:55.000Z</time>
      </trkpt>
      <trkpt lat="50.20232" lon="4.358">
        <ele>256.5</ele>
        <time>2016-8-7T10:35:55.000Z</time>
      </trkpt>
      <trkpt lat="50.20232" lon="4.358">
        <ele>256.5</ele>
        <time>2016-8-7T10:35:55.000Z</time>
      </trkpt>
      <trkpt lat="50.20233" lon="4.35804">
        <ele>256.5</ele>
        <time>2016-8-7T10:35:55.000Z</time>
      </trkpt>
      <trkpt lat="50.20233" lon="4.35804">
        <ele>256.5</ele>
        <time>2016-8-7T10:35:55.000Z</time>
      </trkpt>
      <trkpt lat="50.20234" lon="4.35806">
        <ele>256.5</ele>
        <time>2016-8-7T10:35:55.000Z</time>
      </trkpt>
      <trkpt lat="50.20234" lon="4.35806">
        <ele>256.5</ele>
        <time>2016-8-7T10:35:55.000Z</time>
      </trkpt>
      <trkpt lat="50.20237" lon="4.35813">
        <ele>256.5</ele>
        <time>2016-8-7T10:35:55.000Z</time>
      </trkpt>
      <trkpt lat="50.20237" lon="4.35813">
        <ele>256.5</ele>
        <time>2016-8-7T10:35:55.000Z</time>
      </trkpt>
      <trkpt lat="50.20238" lon="4.35818">
        <ele>256.5</ele>
        <time>2016-8-7T10:35:55.000Z</time>
      </trkpt>
      <trkpt lat="50.20238" lon="4.35818">
        <ele>256.5</ele>
        <time>2016-8-7T10:35:55.000Z</time>
      </trkpt>
      <trkpt lat="50.20239" lon="4.35822">
        <ele>256.5</ele>
        <time>2016-8-7T10:35:55.000Z</time>
      </trkpt>
      <trkpt lat="50.20239" lon="4.35822">
        <ele>256.5</ele>
        <time>2016-8-7T10:35:55.000Z</time>
      </trkpt>
      <trkpt lat="50.20239" lon="4.35824">
        <ele>256.5</ele>
        <time>2016-8-7T10:35:55.000Z</time>
      </trkpt>
      <trkpt lat="50.20239" lon="4.35824">
        <ele>256.5</ele>
        <time>2016-8-7T10:35:55.000Z</time>
      </trkpt>
      <trkpt lat="50.2024" lon="4.35827">
        <ele>256.5</ele>
        <time>2016-8-7T10:35:55.000Z</time>
      </trkpt>
      <trkpt lat="50.2024" lon="4.35827">
        <ele>256.5</ele>
        <time>2016-8-7T10:35:55.000Z</time>
      </trkpt>
      <trkpt lat="50.20241" lon="4.35831">
        <ele>256.5</ele>
        <time>2016-8-7T10:35:55.000Z</time>
      </trkpt>
      <trkpt lat="50.20241" lon="4.35831">
        <ele>256.5</ele>
        <time>2016-8-7T10:35:55.000Z</time>
      </trkpt>
      <trkpt lat="50.20243" lon="4.35839">
        <ele>256.5</ele>
        <time>2016-8-7T10:35:55.000Z</time>
      </trkpt>
      <trkpt lat="50.20243" lon="4.35839">
        <ele>256.5</ele>
        <time>2016-8-7T10:35:55.000Z</time>
      </trkpt>
      <trkpt lat="50.20244" lon="4.35843">
        <ele>257</ele>
        <time>2016-8-7T10:35:55.000Z</time>
      </trkpt>
      <trkpt lat="50.20244" lon="4.35843">
        <ele>257</ele>
        <time>2016-8-7T10:35:55.000Z</time>
      </trkpt>
      <trkpt lat="50.20244" lon="4.35845">
        <ele>257</ele>
        <time>2016-8-7T10:35:55.000Z</time>
      </trkpt>
      <trkpt lat="50.20244" lon="4.35845">
        <ele>257</ele>
        <time>2016-8-7T10:35:55.000Z</time>
      </trkpt>
      <trkpt lat="50.20245" lon="4.35849">
        <ele>257</ele>
        <time>2016-8-7T10:35:55.000Z</time>
      </trkpt>
      <trkpt lat="50.20245" lon="4.35849">
        <ele>257</ele>
        <time>2016-8-7T10:35:55.000Z</time>
      </trkpt>
      <trkpt lat="50.20246" lon="4.35852">
        <ele>257</ele>
        <time>2016-8-7T10:35:55.000Z</time>
      </trkpt>
      <trkpt lat="50.20246" lon="4.35852">
        <ele>257</ele>
        <time>2016-8-7T10:37:53.000Z</time>
      </trkpt>
      <trkpt lat="50.20247" lon="4.35855">
        <ele>257</ele>
        <time>2016-8-7T10:37:53.000Z</time>
      </trkpt>
      <trkpt lat="50.20247" lon="4.35855">
        <ele>257</ele>
        <time>2016-8-7T10:37:53.000Z</time>
      </trkpt>
      <trkpt lat="50.20248" lon="4.35885">
        <ele>256</ele>
        <time>2016-8-7T10:37:53.000Z</time>
      </trkpt>
      <trkpt lat="50.20248" lon="4.35885">
        <ele>256</ele>
        <time>2016-8-7T10:37:53.000Z</time>
      </trkpt>
      <trkpt lat="50.20248" lon="4.35888">
        <ele>256</ele>
        <time>2016-8-7T10:37:53.000Z</time>
      </trkpt>
      <trkpt lat="50.20248" lon="4.35888">
        <ele>256</ele>
        <time>2016-8-7T10:37:53.000Z</time>
      </trkpt>
      <trkpt lat="50.20249" lon="4.35894">
        <ele>255.5</ele>
        <time>2016-8-7T10:37:53.000Z</time>
      </trkpt>
      <trkpt lat="50.20249" lon="4.35894">
        <ele>255.5</ele>
        <time>2016-8-7T10:37:53.000Z</time>
      </trkpt>
      <trkpt lat="50.20253" lon="4.35908">
        <ele>255.5</ele>
        <time>2016-8-7T10:37:53.000Z</time>
      </trkpt>
      <trkpt lat="50.20253" lon="4.35908">
        <ele>255.5</ele>
        <time>2016-8-7T10:37:53.000Z</time>
      </trkpt>
      <trkpt lat="50.20254" lon="4.35912">
        <ele>255.5</ele>
        <time>2016-8-7T10:37:53.000Z</time>
      </trkpt>
      <trkpt lat="50.20254" lon="4.35912">
        <ele>255.5</ele>
        <time>2016-8-7T10:37:53.000Z</time>
      </trkpt>
      <trkpt lat="50.20255" lon="4.35918">
        <ele>255</ele>
        <time>2016-8-7T10:37:53.000Z</time>
      </trkpt>
      <trkpt lat="50.20255" lon="4.35918">
        <ele>255</ele>
        <time>2016-8-7T10:37:53.000Z</time>
      </trkpt>
      <trkpt lat="50.20255" lon="4.3592">
        <ele>255</ele>
        <time>2016-8-7T10:37:53.000Z</time>
      </trkpt>
      <trkpt lat="50.20255" lon="4.3592">
        <ele>255</ele>
        <time>2016-8-7T10:37:53.000Z</time>
      </trkpt>
      <trkpt lat="50.20256" lon="4.35924">
        <ele>255</ele>
        <time>2016-8-7T10:37:53.000Z</time>
      </trkpt>
      <trkpt lat="50.20256" lon="4.35924">
        <ele>255</ele>
        <time>2016-8-7T10:37:53.000Z</time>
      </trkpt>
      <trkpt lat="50.20257" lon="4.35929">
        <ele>255</ele>
        <time>2016-8-7T10:37:53.000Z</time>
      </trkpt>
      <trkpt lat="50.20257" lon="4.35929">
        <ele>255</ele>
        <time>2016-8-7T10:37:53.000Z</time>
      </trkpt>
      <trkpt lat="50.20258" lon="4.35933">
        <ele>255</ele>
        <time>2016-8-7T10:37:53.000Z</time>
      </trkpt>
      <trkpt lat="50.20258" lon="4.35933">
        <ele>255</ele>
        <time>2016-8-7T10:37:53.000Z</time>
      </trkpt>
      <trkpt lat="50.20258" lon="4.35936">
        <ele>255</ele>
        <time>2016-8-7T10:37:53.000Z</time>
      </trkpt>
      <trkpt lat="50.20258" lon="4.35936">
        <ele>255</ele>
        <time>2016-8-7T10:37:53.000Z</time>
      </trkpt>
      <trkpt lat="50.20261" lon="4.35948">
        <ele>254.5</ele>
        <time>2016-8-7T10:37:53.000Z</time>
      </trkpt>
      <trkpt lat="50.20261" lon="4.35948">
        <ele>254.5</ele>
        <time>2016-8-7T10:37:53.000Z</time>
      </trkpt>
      <trkpt lat="50.20263" lon="4.35951">
        <ele>254.5</ele>
        <time>2016-8-7T10:37:53.000Z</time>
      </trkpt>
      <trkpt lat="50.20263" lon="4.35951">
        <ele>254.5</ele>
        <time>2016-8-7T10:37:53.000Z</time>
      </trkpt>
      <trkpt lat="50.20264" lon="4.35955">
        <ele>254.5</ele>
        <time>2016-8-7T10:37:53.000Z</time>
      </trkpt>
      <trkpt lat="50.20264" lon="4.35955">
        <ele>254.5</ele>
        <time>2016-8-7T10:37:53.000Z</time>
      </trkpt>
      <trkpt lat="50.20265" lon="4.35957">
        <ele>254.5</ele>
        <time>2016-8-7T10:37:53.000Z</time>
      </trkpt>
      <trkpt lat="50.20265" lon="4.35957">
        <ele>254.5</ele>
        <time>2016-8-7T10:37:53.000Z</time>
      </trkpt>
      <trkpt lat="50.20266" lon="4.35959">
        <ele>254.5</ele>
        <time>2016-8-7T10:37:53.000Z</time>
      </trkpt>
      <trkpt lat="50.20266" lon="4.35959">
        <ele>254.5</ele>
        <time>2016-8-7T10:37:53.000Z</time>
      </trkpt>
      <trkpt lat="50.20267" lon="4.35962">
        <ele>254</ele>
        <time>2016-8-7T10:37:53.000Z</time>
      </trkpt>
      <trkpt lat="50.20267" lon="4.35962">
        <ele>254</ele>
        <time>2016-8-7T10:37:53.000Z</time>
      </trkpt>
      <trkpt lat="50.20269" lon="4.35965">
        <ele>254</ele>
        <time>2016-8-7T10:37:53.000Z</time>
      </trkpt>
      <trkpt lat="50.20269" lon="4.35965">
        <ele>254</ele>
        <time>2016-8-7T10:37:53.000Z</time>
      </trkpt>
      <trkpt lat="50.20269" lon="4.35967">
        <ele>254</ele>
        <time>2016-8-7T10:37:53.000Z</time>
      </trkpt>
      <trkpt lat="50.20269" lon="4.35967">
        <ele>254</ele>
        <time>2016-8-7T10:37:53.000Z</time>
      </trkpt>
      <trkpt lat="50.20272" lon="4.35977">
        <ele>254</ele>
        <time>2016-8-7T10:37:53.000Z</time>
      </trkpt>
      <trkpt lat="50.20272" lon="4.35977">
        <ele>254</ele>
        <time>2016-8-7T10:37:53.000Z</time>
      </trkpt>
      <trkpt lat="50.20276" lon="4.35991">
        <ele>254</ele>
        <time>2016-8-7T10:37:53.000Z</time>
      </trkpt>
      <trkpt lat="50.20276" lon="4.35991">
        <ele>254</ele>
        <time>2016-8-7T10:37:53.000Z</time>
      </trkpt>
      <trkpt lat="50.20277" lon="4.35994">
        <ele>254</ele>
        <time>2016-8-7T10:37:53.000Z</time>
      </trkpt>
      <trkpt lat="50.20277" lon="4.35994">
        <ele>254</ele>
        <time>2016-8-7T10:37:53.000Z</time>
      </trkpt>
      <trkpt lat="50.20278" lon="4.35997">
        <ele>254</ele>
        <time>2016-8-7T10:37:53.000Z</time>
      </trkpt>
      <trkpt lat="50.20278" lon="4.35997">
        <ele>254</ele>
        <time>2016-8-7T10:37:53.000Z</time>
      </trkpt>
      <trkpt lat="50.2028" lon="4.36001">
        <ele>254</ele>
        <time>2016-8-7T10:37:53.000Z</time>
      </trkpt>
      <trkpt lat="50.2028" lon="4.36001">
        <ele>254</ele>
        <time>2016-8-7T10:37:53.000Z</time>
      </trkpt>
      <trkpt lat="50.20281" lon="4.36002">
        <ele>254</ele>
        <time>2016-8-7T10:37:53.000Z</time>
      </trkpt>
      <trkpt lat="50.20281" lon="4.36002">
        <ele>254</ele>
        <time>2016-8-7T10:37:53.000Z</time>
      </trkpt>
      <trkpt lat="50.20283" lon="4.36005">
        <ele>254</ele>
        <time>2016-8-7T10:37:53.000Z</time>
      </trkpt>
      <trkpt lat="50.20283" lon="4.36005">
        <ele>254</ele>
        <time>2016-8-7T10:37:53.000Z</time>
      </trkpt>
      <trkpt lat="50.20284" lon="4.36007">
        <ele>254</ele>
        <time>2016-8-7T10:37:53.000Z</time>
      </trkpt>
      <trkpt lat="50.20284" lon="4.36007">
        <ele>254</ele>
        <time>2016-8-7T10:37:53.000Z</time>
      </trkpt>
      <trkpt lat="50.20286" lon="4.3601">
        <ele>254</ele>
        <time>2016-8-7T10:37:53.000Z</time>
      </trkpt>
      <trkpt lat="50.20286" lon="4.3601">
        <ele>254</ele>
        <time>2016-8-7T10:37:53.000Z</time>
      </trkpt>
      <trkpt lat="50.20287" lon="4.36013">
        <ele>253.5</ele>
        <time>2016-8-7T10:37:53.000Z</time>
      </trkpt>
      <trkpt lat="50.20287" lon="4.36013">
        <ele>253.5</ele>
        <time>2016-8-7T10:37:53.000Z</time>
      </trkpt>
      <trkpt lat="50.20289" lon="4.36017">
        <ele>254</ele>
        <time>2016-8-7T10:37:53.000Z</time>
      </trkpt>
      <trkpt lat="50.20289" lon="4.36017">
        <ele>254</ele>
        <time>2016-8-7T10:37:53.000Z</time>
      </trkpt>
      <trkpt lat="50.2029" lon="4.36019">
        <ele>254</ele>
        <time>2016-8-7T10:37:53.000Z</time>
      </trkpt>
      <trkpt lat="50.2029" lon="4.36019">
        <ele>254</ele>
        <time>2016-8-7T10:37:53.000Z</time>
      </trkpt>
      <trkpt lat="50.20291" lon="4.3602">
        <ele>254.5</ele>
        <time>2016-8-7T10:37:53.000Z</time>
      </trkpt>
      <trkpt lat="50.20291" lon="4.3602">
        <ele>254.5</ele>
        <time>2016-8-7T10:37:53.000Z</time>
      </trkpt>
      <trkpt lat="50.20292" lon="4.36023">
        <ele>254.5</ele>
        <time>2016-8-7T10:37:53.000Z</time>
      </trkpt>
      <trkpt lat="50.20292" lon="4.36023">
        <ele>254.5</ele>
        <time>2016-8-7T10:37:53.000Z</time>
      </trkpt>
      <trkpt lat="50.20292" lon="4.36025">
        <ele>254.5</ele>
        <time>2016-8-7T10:37:53.000Z</time>
      </trkpt>
      <trkpt lat="50.20292" lon="4.36025">
        <ele>254.5</ele>
        <time>2016-8-7T10:37:53.000Z</time>
      </trkpt>
      <trkpt lat="50.20294" lon="4.36028">
        <ele>254.5</ele>
        <time>2016-8-7T10:37:53.000Z</time>
      </trkpt>
      <trkpt lat="50.20294" lon="4.36028">
        <ele>254.5</ele>
        <time>2016-8-7T10:37:53.000Z</time>
      </trkpt>
      <trkpt lat="50.20295" lon="4.36031">
        <ele>254</ele>
        <time>2016-8-7T10:37:53.000Z</time>
      </trkpt>
      <trkpt lat="50.20295" lon="4.36031">
        <ele>254</ele>
        <time>2016-8-7T10:37:53.000Z</time>
      </trkpt>
      <trkpt lat="50.20295" lon="4.36032">
        <ele>254</ele>
        <time>2016-8-7T10:37:53.000Z</time>
      </trkpt>
      <trkpt lat="50.20295" lon="4.36032">
        <ele>254</ele>
        <time>2016-8-7T10:37:53.000Z</time>
      </trkpt>
      <trkpt lat="50.20296" lon="4.36035">
        <ele>254.5</ele>
        <time>2016-8-7T10:37:53.000Z</time>
      </trkpt>
      <trkpt lat="50.20296" lon="4.36035">
        <ele>254.5</ele>
        <time>2016-8-7T10:37:53.000Z</time>
      </trkpt>
      <trkpt lat="50.20298" lon="4.36038">
        <ele>254.5</ele>
        <time>2016-8-7T10:37:53.000Z</time>
      </trkpt>
      <trkpt lat="50.20298" lon="4.36038">
        <ele>254.5</ele>
        <time>2016-8-7T10:37:53.000Z</time>
      </trkpt>
      <trkpt lat="50.20299" lon="4.3604">
        <ele>254.5</ele>
        <time>2016-8-7T10:37:53.000Z</time>
      </trkpt>
      <trkpt lat="50.20299" lon="4.3604">
        <ele>254.5</ele>
        <time>2016-8-7T10:37:53.000Z</time>
      </trkpt>
      <trkpt lat="50.203" lon="4.36043">
        <ele>254.5</ele>
        <time>2016-8-7T10:37:54.000Z</time>
      </trkpt>
      <trkpt lat="50.203" lon="4.36043">
        <ele>254.5</ele>
        <time>2016-8-7T10:37:54.000Z</time>
      </trkpt>
      <trkpt lat="50.20302" lon="4.36045">
        <ele>254.5</ele>
        <time>2016-8-7T10:37:54.000Z</time>
      </trkpt>
      <trkpt lat="50.20302" lon="4.36045">
        <ele>254.5</ele>
        <time>2016-8-7T10:37:54.000Z</time>
      </trkpt>
      <trkpt lat="50.20307" lon="4.36056">
        <ele>254.5</ele>
        <time>2016-8-7T10:37:54.000Z</time>
      </trkpt>
      <trkpt lat="50.20307" lon="4.36056">
        <ele>254.5</ele>
        <time>2016-8-7T10:37:54.000Z</time>
      </trkpt>
      <trkpt lat="50.20309" lon="4.36059">
        <ele>254.5</ele>
        <time>2016-8-7T10:37:54.000Z</time>
      </trkpt>
      <trkpt lat="50.20309" lon="4.36059">
        <ele>254.5</ele>
        <time>2016-8-7T10:37:54.000Z</time>
      </trkpt>
      <trkpt lat="50.2031" lon="4.36063">
        <ele>254.5</ele>
        <time>2016-8-7T10:37:54.000Z</time>
      </trkpt>
      <trkpt lat="50.2031" lon="4.36063">
        <ele>254.5</ele>
        <time>2016-8-7T10:37:54.000Z</time>
      </trkpt>
      <trkpt lat="50.20312" lon="4.36066">
        <ele>254.5</ele>
        <time>2016-8-7T10:37:54.000Z</time>
      </trkpt>
      <trkpt lat="50.20312" lon="4.36066">
        <ele>254.5</ele>
        <time>2016-8-7T10:37:54.000Z</time>
      </trkpt>
      <trkpt lat="50.20312" lon="4.36068">
        <ele>254.5</ele>
        <time>2016-8-7T10:37:54.000Z</time>
      </trkpt>
      <trkpt lat="50.20312" lon="4.36068">
        <ele>254.5</ele>
        <time>2016-8-7T10:37:54.000Z</time>
      </trkpt>
      <trkpt lat="50.20313" lon="4.36072">
        <ele>254</ele>
        <time>2016-8-7T10:37:54.000Z</time>
      </trkpt>
      <trkpt lat="50.20313" lon="4.36072">
        <ele>254</ele>
        <time>2016-8-7T10:37:54.000Z</time>
      </trkpt>
      <trkpt lat="50.20313" lon="4.36076">
        <ele>253.5</ele>
        <time>2016-8-7T10:37:54.000Z</time>
      </trkpt>
      <trkpt lat="50.20313" lon="4.36076">
        <ele>253.5</ele>
        <time>2016-8-7T10:37:54.000Z</time>
      </trkpt>
      <trkpt lat="50.20315" lon="4.36079">
        <ele>253.5</ele>
        <time>2016-8-7T10:39:39.000Z</time>
      </trkpt>
      <trkpt lat="50.20315" lon="4.36079">
        <ele>253.5</ele>
        <time>2016-8-7T10:39:39.000Z</time>
      </trkpt>
      <trkpt lat="50.20319" lon="4.36088">
        <ele>253.5</ele>
        <time>2016-8-7T10:39:39.000Z</time>
      </trkpt>
      <trkpt lat="50.20319" lon="4.36088">
        <ele>253.5</ele>
        <time>2016-8-7T10:39:39.000Z</time>
      </trkpt>
      <trkpt lat="50.20321" lon="4.36092">
        <ele>253.5</ele>
        <time>2016-8-7T10:39:39.000Z</time>
      </trkpt>
      <trkpt lat="50.20321" lon="4.36092">
        <ele>253.5</ele>
        <time>2016-8-7T10:39:39.000Z</time>
      </trkpt>
      <trkpt lat="50.20322" lon="4.36093">
        <ele>253.5</ele>
        <time>2016-8-7T10:39:39.000Z</time>
      </trkpt>
      <trkpt lat="50.20322" lon="4.36093">
        <ele>253.5</ele>
        <time>2016-8-7T10:39:39.000Z</time>
      </trkpt>
      <trkpt lat="50.20324" lon="4.36096">
        <ele>253.5</ele>
        <time>2016-8-7T10:39:39.000Z</time>
      </trkpt>
      <trkpt lat="50.20324" lon="4.36096">
        <ele>253.5</ele>
        <time>2016-8-7T10:39:39.000Z</time>
      </trkpt>
      <trkpt lat="50.20325" lon="4.36099">
        <ele>253.5</ele>
        <time>2016-8-7T10:39:39.000Z</time>
      </trkpt>
      <trkpt lat="50.20325" lon="4.36099">
        <ele>253.5</ele>
        <time>2016-8-7T10:39:39.000Z</time>
      </trkpt>
      <trkpt lat="50.20327" lon="4.36102">
        <ele>253.5</ele>
        <time>2016-8-7T10:39:39.000Z</time>
      </trkpt>
      <trkpt lat="50.20327" lon="4.36102">
        <ele>253.5</ele>
        <time>2016-8-7T10:39:39.000Z</time>
      </trkpt>
      <trkpt lat="50.20327" lon="4.36104">
        <ele>253.5</ele>
        <time>2016-8-7T10:39:39.000Z</time>
      </trkpt>
      <trkpt lat="50.20327" lon="4.36104">
        <ele>253.5</ele>
        <time>2016-8-7T10:39:39.000Z</time>
      </trkpt>
      <trkpt lat="50.20328" lon="4.36107">
        <ele>253</ele>
        <time>2016-8-7T10:39:39.000Z</time>
      </trkpt>
      <trkpt lat="50.20328" lon="4.36107">
        <ele>253</ele>
        <time>2016-8-7T10:39:39.000Z</time>
      </trkpt>
      <trkpt lat="50.2033" lon="4.3611">
        <ele>253</ele>
        <time>2016-8-7T10:39:39.000Z</time>
      </trkpt>
      <trkpt lat="50.2033" lon="4.3611">
        <ele>253</ele>
        <time>2016-8-7T10:39:39.000Z</time>
      </trkpt>
      <trkpt lat="50.20331" lon="4.36114">
        <ele>253</ele>
        <time>2016-8-7T10:39:39.000Z</time>
      </trkpt>
      <trkpt lat="50.20331" lon="4.36114">
        <ele>253</ele>
        <time>2016-8-7T10:39:39.000Z</time>
      </trkpt>
      <trkpt lat="50.20332" lon="4.36118">
        <ele>253</ele>
        <time>2016-8-7T10:39:39.000Z</time>
      </trkpt>
      <trkpt lat="50.20332" lon="4.36118">
        <ele>253</ele>
        <time>2016-8-7T10:39:39.000Z</time>
      </trkpt>
      <trkpt lat="50.20334" lon="4.3612">
        <ele>253</ele>
        <time>2016-8-7T10:39:39.000Z</time>
      </trkpt>
      <trkpt lat="50.20334" lon="4.3612">
        <ele>253</ele>
        <time>2016-8-7T10:39:39.000Z</time>
      </trkpt>
      <trkpt lat="50.20335" lon="4.36123">
        <ele>253</ele>
        <time>2016-8-7T10:39:39.000Z</time>
      </trkpt>
      <trkpt lat="50.20335" lon="4.36123">
        <ele>253</ele>
        <time>2016-8-7T10:39:39.000Z</time>
      </trkpt>
      <trkpt lat="50.20336" lon="4.36124">
        <ele>253</ele>
        <time>2016-8-7T10:39:39.000Z</time>
      </trkpt>
      <trkpt lat="50.20336" lon="4.36124">
        <ele>253</ele>
        <time>2016-8-7T10:39:39.000Z</time>
      </trkpt>
      <trkpt lat="50.20338" lon="4.36127">
        <ele>253</ele>
        <time>2016-8-7T10:39:39.000Z</time>
      </trkpt>
      <trkpt lat="50.20338" lon="4.36127">
        <ele>253</ele>
        <time>2016-8-7T10:39:39.000Z</time>
      </trkpt>
      <trkpt lat="50.2034" lon="4.36129">
        <ele>253.5</ele>
        <time>2016-8-7T10:39:39.000Z</time>
      </trkpt>
      <trkpt lat="50.2034" lon="4.36129">
        <ele>253.5</ele>
        <time>2016-8-7T10:39:39.000Z</time>
      </trkpt>
      <trkpt lat="50.20342" lon="4.36131">
        <ele>253.5</ele>
        <time>2016-8-7T10:39:39.000Z</time>
      </trkpt>
      <trkpt lat="50.20342" lon="4.36131">
        <ele>253.5</ele>
        <time>2016-8-7T10:39:39.000Z</time>
      </trkpt>
      <trkpt lat="50.20344" lon="4.36134">
        <ele>253.5</ele>
        <time>2016-8-7T10:39:39.000Z</time>
      </trkpt>
      <trkpt lat="50.20344" lon="4.36134">
        <ele>253.5</ele>
        <time>2016-8-7T10:39:39.000Z</time>
      </trkpt>
      <trkpt lat="50.20344" lon="4.36135">
        <ele>253.5</ele>
        <time>2016-8-7T10:39:39.000Z</time>
      </trkpt>
      <trkpt lat="50.20344" lon="4.36135">
        <ele>253.5</ele>
        <time>2016-8-7T10:39:39.000Z</time>
      </trkpt>
      <trkpt lat="50.20346" lon="4.36137">
        <ele>253.5</ele>
        <time>2016-8-7T10:39:39.000Z</time>
      </trkpt>
      <trkpt lat="50.20346" lon="4.36137">
        <ele>253.5</ele>
        <time>2016-8-7T10:39:39.000Z</time>
      </trkpt>
      <trkpt lat="50.20347" lon="4.3614">
        <ele>254</ele>
        <time>2016-8-7T10:39:39.000Z</time>
      </trkpt>
      <trkpt lat="50.20347" lon="4.3614">
        <ele>254</ele>
        <time>2016-8-7T10:39:39.000Z</time>
      </trkpt>
      <trkpt lat="50.20349" lon="4.36142">
        <ele>254</ele>
        <time>2016-8-7T10:39:39.000Z</time>
      </trkpt>
      <trkpt lat="50.20349" lon="4.36142">
        <ele>254</ele>
        <time>2016-8-7T10:39:39.000Z</time>
      </trkpt>
      <trkpt lat="50.20354" lon="4.36156">
        <ele>254</ele>
        <time>2016-8-7T10:39:39.000Z</time>
      </trkpt>
      <trkpt lat="50.20354" lon="4.36156">
        <ele>254</ele>
        <time>2016-8-7T10:39:39.000Z</time>
      </trkpt>
      <trkpt lat="50.20356" lon="4.36161">
        <ele>254</ele>
        <time>2016-8-7T10:39:39.000Z</time>
      </trkpt>
      <trkpt lat="50.20356" lon="4.36161">
        <ele>254</ele>
        <time>2016-8-7T10:39:39.000Z</time>
      </trkpt>
      <trkpt lat="50.20356" lon="4.36162">
        <ele>254</ele>
        <time>2016-8-7T10:39:39.000Z</time>
      </trkpt>
      <trkpt lat="50.20356" lon="4.36162">
        <ele>254</ele>
        <time>2016-8-7T10:39:39.000Z</time>
      </trkpt>
      <trkpt lat="50.20357" lon="4.36165">
        <ele>254.5</ele>
        <time>2016-8-7T10:39:39.000Z</time>
      </trkpt>
      <trkpt lat="50.20357" lon="4.36165">
        <ele>254.5</ele>
        <time>2016-8-7T10:39:39.000Z</time>
      </trkpt>
      <trkpt lat="50.20359" lon="4.36167">
        <ele>254.5</ele>
        <time>2016-8-7T10:39:39.000Z</time>
      </trkpt>
      <trkpt lat="50.20359" lon="4.36167">
        <ele>254.5</ele>
        <time>2016-8-7T10:39:39.000Z</time>
      </trkpt>
      <trkpt lat="50.2036" lon="4.36169">
        <ele>254.5</ele>
        <time>2016-8-7T10:39:39.000Z</time>
      </trkpt>
      <trkpt lat="50.2036" lon="4.36169">
        <ele>254.5</ele>
        <time>2016-8-7T10:39:39.000Z</time>
      </trkpt>
      <trkpt lat="50.20361" lon="4.36171">
        <ele>254.5</ele>
        <time>2016-8-7T10:39:39.000Z</time>
      </trkpt>
      <trkpt lat="50.20361" lon="4.36171">
        <ele>254.5</ele>
        <time>2016-8-7T10:39:39.000Z</time>
      </trkpt>
      <trkpt lat="50.20362" lon="4.36173">
        <ele>254</ele>
        <time>2016-8-7T10:39:39.000Z</time>
      </trkpt>
      <trkpt lat="50.20362" lon="4.36173">
        <ele>254</ele>
        <time>2016-8-7T10:39:39.000Z</time>
      </trkpt>
      <trkpt lat="50.20364" lon="4.36175">
        <ele>254.5</ele>
        <time>2016-8-7T10:39:39.000Z</time>
      </trkpt>
      <trkpt lat="50.20364" lon="4.36175">
        <ele>254.5</ele>
        <time>2016-8-7T10:39:39.000Z</time>
      </trkpt>
      <trkpt lat="50.20364" lon="4.36177">
        <ele>254.5</ele>
        <time>2016-8-7T10:39:39.000Z</time>
      </trkpt>
      <trkpt lat="50.20364" lon="4.36177">
        <ele>254.5</ele>
        <time>2016-8-7T10:39:39.000Z</time>
      </trkpt>
      <trkpt lat="50.20365" lon="4.36178">
        <ele>254.5</ele>
        <time>2016-8-7T10:39:39.000Z</time>
      </trkpt>
      <trkpt lat="50.20365" lon="4.36178">
        <ele>254.5</ele>
        <time>2016-8-7T10:39:39.000Z</time>
      </trkpt>
      <trkpt lat="50.20367" lon="4.3618">
        <ele>254.5</ele>
        <time>2016-8-7T10:39:39.000Z</time>
      </trkpt>
      <trkpt lat="50.20367" lon="4.3618">
        <ele>254.5</ele>
        <time>2016-8-7T10:39:39.000Z</time>
      </trkpt>
      <trkpt lat="50.20369" lon="4.36182">
        <ele>254.5</ele>
        <time>2016-8-7T10:39:39.000Z</time>
      </trkpt>
      <trkpt lat="50.20369" lon="4.36182">
        <ele>254.5</ele>
        <time>2016-8-7T10:39:39.000Z</time>
      </trkpt>
      <trkpt lat="50.20371" lon="4.36185">
        <ele>254.5</ele>
        <time>2016-8-7T10:39:39.000Z</time>
      </trkpt>
      <trkpt lat="50.20371" lon="4.36185">
        <ele>254.5</ele>
        <time>2016-8-7T10:39:39.000Z</time>
      </trkpt>
      <trkpt lat="50.20372" lon="4.36186">
        <ele>254.5</ele>
        <time>2016-8-7T10:39:39.000Z</time>
      </trkpt>
      <trkpt lat="50.20372" lon="4.36186">
        <ele>254.5</ele>
        <time>2016-8-7T10:39:39.000Z</time>
      </trkpt>
      <trkpt lat="50.20373" lon="4.36188">
        <ele>254.5</ele>
        <time>2016-8-7T10:39:39.000Z</time>
      </trkpt>
      <trkpt lat="50.20373" lon="4.36188">
        <ele>254.5</ele>
        <time>2016-8-7T10:39:39.000Z</time>
      </trkpt>
      <trkpt lat="50.20375" lon="4.36191">
        <ele>254.5</ele>
        <time>2016-8-7T10:39:39.000Z</time>
      </trkpt>
      <trkpt lat="50.20375" lon="4.36191">
        <ele>254.5</ele>
        <time>2016-8-7T10:39:39.000Z</time>
      </trkpt>
      <trkpt lat="50.20376" lon="4.36192">
        <ele>254.5</ele>
        <time>2016-8-7T10:39:39.000Z</time>
      </trkpt>
      <trkpt lat="50.20376" lon="4.36192">
        <ele>254.5</ele>
        <time>2016-8-7T10:39:39.000Z</time>
      </trkpt>
      <trkpt lat="50.20378" lon="4.36195">
        <ele>254.5</ele>
        <time>2016-8-7T10:39:39.000Z</time>
      </trkpt>
      <trkpt lat="50.20378" lon="4.36195">
        <ele>254.5</ele>
        <time>2016-8-7T10:39:39.000Z</time>
      </trkpt>
      <trkpt lat="50.20379" lon="4.36198">
        <ele>254.5</ele>
        <time>2016-8-7T10:39:39.000Z</time>
      </trkpt>
      <trkpt lat="50.20379" lon="4.36198">
        <ele>254.5</ele>
        <time>2016-8-7T10:39:39.000Z</time>
      </trkpt>
      <trkpt lat="50.20384" lon="4.36206">
        <ele>254.5</ele>
        <time>2016-8-7T10:39:39.000Z</time>
      </trkpt>
      <trkpt lat="50.20384" lon="4.36206">
        <ele>254.5</ele>
        <time>2016-8-7T10:39:39.000Z</time>
      </trkpt>
      <trkpt lat="50.20386" lon="4.36209">
        <ele>255</ele>
        <time>2016-8-7T10:39:39.000Z</time>
      </trkpt>
      <trkpt lat="50.20386" lon="4.36209">
        <ele>255</ele>
        <time>2016-8-7T10:39:39.000Z</time>
      </trkpt>
      <trkpt lat="50.20387" lon="4.3621">
        <ele>255</ele>
        <time>2016-8-7T10:39:39.000Z</time>
      </trkpt>
      <trkpt lat="50.20387" lon="4.3621">
        <ele>255</ele>
        <time>2016-8-7T10:39:39.000Z</time>
      </trkpt>
      <trkpt lat="50.20393" lon="4.36218">
        <ele>255</ele>
        <time>2016-8-7T10:39:39.000Z</time>
      </trkpt>
      <trkpt lat="50.20393" lon="4.36218">
        <ele>255</ele>
        <time>2016-8-7T10:39:39.000Z</time>
      </trkpt>
      <trkpt lat="50.20403" lon="4.3623">
        <ele>255.5</ele>
        <time>2016-8-7T10:39:39.000Z</time>
      </trkpt>
      <trkpt lat="50.20403" lon="4.3623">
        <ele>255.5</ele>
        <time>2016-8-7T10:39:39.000Z</time>
      </trkpt>
      <trkpt lat="50.20408" lon="4.36236">
        <ele>255.5</ele>
        <time>2016-8-7T10:39:39.000Z</time>
      </trkpt>
      <trkpt lat="50.20408" lon="4.36236">
        <ele>255.5</ele>
        <time>2016-8-7T10:39:39.000Z</time>
      </trkpt>
      <trkpt lat="50.20411" lon="4.3624">
        <ele>256</ele>
        <time>2016-8-7T10:39:39.000Z</time>
      </trkpt>
      <trkpt lat="50.20411" lon="4.3624">
        <ele>256</ele>
        <time>2016-8-7T10:39:39.000Z</time>
      </trkpt>
      <trkpt lat="50.20413" lon="4.36242">
        <ele>256</ele>
        <time>2016-8-7T10:39:39.000Z</time>
      </trkpt>
      <trkpt lat="50.20413" lon="4.36242">
        <ele>256</ele>
        <time>2016-8-7T10:40:48.000Z</time>
      </trkpt>
      <trkpt lat="50.20415" lon="4.36245">
        <ele>256</ele>
        <time>2016-8-7T10:40:48.000Z</time>
      </trkpt>
      <trkpt lat="50.20415" lon="4.36245">
        <ele>256</ele>
        <time>2016-8-7T10:40:48.000Z</time>
      </trkpt>
      <trkpt lat="50.20417" lon="4.36248">
        <ele>256</ele>
        <time>2016-8-7T10:40:48.000Z</time>
      </trkpt>
      <trkpt lat="50.20417" lon="4.36248">
        <ele>256</ele>
        <time>2016-8-7T10:40:48.000Z</time>
      </trkpt>
      <trkpt lat="50.20419" lon="4.36251">
        <ele>256</ele>
        <time>2016-8-7T10:40:48.000Z</time>
      </trkpt>
      <trkpt lat="50.20419" lon="4.36251">
        <ele>256</ele>
        <time>2016-8-7T10:40:48.000Z</time>
      </trkpt>
      <trkpt lat="50.2042" lon="4.36252">
        <ele>256</ele>
        <time>2016-8-7T10:40:48.000Z</time>
      </trkpt>
      <trkpt lat="50.2042" lon="4.36252">
        <ele>256</ele>
        <time>2016-8-7T10:40:48.000Z</time>
      </trkpt>
      <trkpt lat="50.20422" lon="4.36255">
        <ele>256</ele>
        <time>2016-8-7T10:40:48.000Z</time>
      </trkpt>
      <trkpt lat="50.20422" lon="4.36255">
        <ele>256</ele>
        <time>2016-8-7T10:40:48.000Z</time>
      </trkpt>
      <trkpt lat="50.20423" lon="4.36256">
        <ele>256</ele>
        <time>2016-8-7T10:40:48.000Z</time>
      </trkpt>
      <trkpt lat="50.20423" lon="4.36256">
        <ele>256</ele>
        <time>2016-8-7T10:40:48.000Z</time>
      </trkpt>
      <trkpt lat="50.20424" lon="4.36257">
        <ele>256</ele>
        <time>2016-8-7T10:40:48.000Z</time>
      </trkpt>
      <trkpt lat="50.20424" lon="4.36257">
        <ele>256</ele>
        <time>2016-8-7T10:40:48.000Z</time>
      </trkpt>
      <trkpt lat="50.20426" lon="4.3626">
        <ele>256</ele>
        <time>2016-8-7T10:40:48.000Z</time>
      </trkpt>
      <trkpt lat="50.20426" lon="4.3626">
        <ele>256</ele>
        <time>2016-8-7T10:40:48.000Z</time>
      </trkpt>
      <trkpt lat="50.20428" lon="4.36262">
        <ele>256</ele>
        <time>2016-8-7T10:40:48.000Z</time>
      </trkpt>
      <trkpt lat="50.20428" lon="4.36262">
        <ele>256</ele>
        <time>2016-8-7T10:40:48.000Z</time>
      </trkpt>
      <trkpt lat="50.2043" lon="4.36264">
        <ele>256.5</ele>
        <time>2016-8-7T10:40:48.000Z</time>
      </trkpt>
      <trkpt lat="50.2043" lon="4.36264">
        <ele>256.5</ele>
        <time>2016-8-7T10:40:48.000Z</time>
      </trkpt>
      <trkpt lat="50.20432" lon="4.36266">
        <ele>256.5</ele>
        <time>2016-8-7T10:40:48.000Z</time>
      </trkpt>
      <trkpt lat="50.20432" lon="4.36266">
        <ele>256.5</ele>
        <time>2016-8-7T10:40:48.000Z</time>
      </trkpt>
      <trkpt lat="50.20433" lon="4.36267">
        <ele>256.5</ele>
        <time>2016-8-7T10:40:48.000Z</time>
      </trkpt>
      <trkpt lat="50.20433" lon="4.36267">
        <ele>256.5</ele>
        <time>2016-8-7T10:40:48.000Z</time>
      </trkpt>
      <trkpt lat="50.20435" lon="4.36269">
        <ele>256.5</ele>
        <time>2016-8-7T10:40:48.000Z</time>
      </trkpt>
      <trkpt lat="50.20435" lon="4.36269">
        <ele>256.5</ele>
        <time>2016-8-7T10:40:48.000Z</time>
      </trkpt>
      <trkpt lat="50.20437" lon="4.36271">
        <ele>256.5</ele>
        <time>2016-8-7T10:40:48.000Z</time>
      </trkpt>
      <trkpt lat="50.20437" lon="4.36271">
        <ele>256.5</ele>
        <time>2016-8-7T10:40:48.000Z</time>
      </trkpt>
      <trkpt lat="50.2044" lon="4.36272">
        <ele>256.5</ele>
        <time>2016-8-7T10:40:48.000Z</time>
      </trkpt>
      <trkpt lat="50.2044" lon="4.36272">
        <ele>256.5</ele>
        <time>2016-8-7T10:40:48.000Z</time>
      </trkpt>
      <trkpt lat="50.20442" lon="4.36274">
        <ele>256.5</ele>
        <time>2016-8-7T10:40:48.000Z</time>
      </trkpt>
      <trkpt lat="50.20442" lon="4.36274">
        <ele>256.5</ele>
        <time>2016-8-7T10:40:48.000Z</time>
      </trkpt>
      <trkpt lat="50.20444" lon="4.36277">
        <ele>256.5</ele>
        <time>2016-8-7T10:40:48.000Z</time>
      </trkpt>
      <trkpt lat="50.20444" lon="4.36277">
        <ele>256.5</ele>
        <time>2016-8-7T10:40:48.000Z</time>
      </trkpt>
      <trkpt lat="50.20446" lon="4.36279">
        <ele>256.5</ele>
        <time>2016-8-7T10:40:48.000Z</time>
      </trkpt>
      <trkpt lat="50.20446" lon="4.36279">
        <ele>256.5</ele>
        <time>2016-8-7T10:40:48.000Z</time>
      </trkpt>
      <trkpt lat="50.20447" lon="4.3628">
        <ele>256.5</ele>
        <time>2016-8-7T10:40:48.000Z</time>
      </trkpt>
      <trkpt lat="50.20447" lon="4.3628">
        <ele>256.5</ele>
        <time>2016-8-7T10:40:48.000Z</time>
      </trkpt>
      <trkpt lat="50.20449" lon="4.36283">
        <ele>256.5</ele>
        <time>2016-8-7T10:40:48.000Z</time>
      </trkpt>
      <trkpt lat="50.20449" lon="4.36283">
        <ele>256.5</ele>
        <time>2016-8-7T10:40:48.000Z</time>
      </trkpt>
      <trkpt lat="50.2045" lon="4.36284">
        <ele>256.5</ele>
        <time>2016-8-7T10:40:48.000Z</time>
      </trkpt>
      <trkpt lat="50.2045" lon="4.36284">
        <ele>256.5</ele>
        <time>2016-8-7T10:40:48.000Z</time>
      </trkpt>
      <trkpt lat="50.20451" lon="4.36287">
        <ele>256.5</ele>
        <time>2016-8-7T10:40:48.000Z</time>
      </trkpt>
      <trkpt lat="50.20451" lon="4.36287">
        <ele>256.5</ele>
        <time>2016-8-7T10:40:48.000Z</time>
      </trkpt>
      <trkpt lat="50.20453" lon="4.36289">
        <ele>256</ele>
        <time>2016-8-7T10:40:48.000Z</time>
      </trkpt>
      <trkpt lat="50.20453" lon="4.36289">
        <ele>256</ele>
        <time>2016-8-7T10:40:48.000Z</time>
      </trkpt>
      <trkpt lat="50.20454" lon="4.36291">
        <ele>256</ele>
        <time>2016-8-7T10:40:48.000Z</time>
      </trkpt>
      <trkpt lat="50.20454" lon="4.36291">
        <ele>256</ele>
        <time>2016-8-7T10:40:48.000Z</time>
      </trkpt>
      <trkpt lat="50.20455" lon="4.36293">
        <ele>256</ele>
        <time>2016-8-7T10:40:48.000Z</time>
      </trkpt>
      <trkpt lat="50.20455" lon="4.36293">
        <ele>256</ele>
        <time>2016-8-7T10:40:48.000Z</time>
      </trkpt>
      <trkpt lat="50.20457" lon="4.36295">
        <ele>256</ele>
        <time>2016-8-7T10:40:48.000Z</time>
      </trkpt>
      <trkpt lat="50.20457" lon="4.36295">
        <ele>256</ele>
        <time>2016-8-7T10:40:48.000Z</time>
      </trkpt>
      <trkpt lat="50.20459" lon="4.36297">
        <ele>256</ele>
        <time>2016-8-7T10:40:48.000Z</time>
      </trkpt>
      <trkpt lat="50.20459" lon="4.36297">
        <ele>256</ele>
        <time>2016-8-7T10:40:48.000Z</time>
      </trkpt>
      <trkpt lat="50.20461" lon="4.36299">
        <ele>256</ele>
        <time>2016-8-7T10:40:48.000Z</time>
      </trkpt>
      <trkpt lat="50.20461" lon="4.36299">
        <ele>256</ele>
        <time>2016-8-7T10:40:48.000Z</time>
      </trkpt>
      <trkpt lat="50.20463" lon="4.36301">
        <ele>255.5</ele>
        <time>2016-8-7T10:40:48.000Z</time>
      </trkpt>
      <trkpt lat="50.20463" lon="4.36301">
        <ele>255.5</ele>
        <time>2016-8-7T10:40:48.000Z</time>
      </trkpt>
      <trkpt lat="50.20465" lon="4.36302">
        <ele>255.5</ele>
        <time>2016-8-7T10:40:48.000Z</time>
      </trkpt>
      <trkpt lat="50.20465" lon="4.36302">
        <ele>255.5</ele>
        <time>2016-8-7T10:40:48.000Z</time>
      </trkpt>
      <trkpt lat="50.20466" lon="4.36303">
        <ele>255.5</ele>
        <time>2016-8-7T10:40:48.000Z</time>
      </trkpt>
      <trkpt lat="50.20466" lon="4.36303">
        <ele>255.5</ele>
        <time>2016-8-7T10:40:48.000Z</time>
      </trkpt>
      <trkpt lat="50.20467" lon="4.36304">
        <ele>255.5</ele>
        <time>2016-8-7T10:40:48.000Z</time>
      </trkpt>
      <trkpt lat="50.20467" lon="4.36304">
        <ele>255.5</ele>
        <time>2016-8-7T10:40:48.000Z</time>
      </trkpt>
      <trkpt lat="50.20468" lon="4.36305">
        <ele>255.5</ele>
        <time>2016-8-7T10:40:48.000Z</time>
      </trkpt>
      <trkpt lat="50.20468" lon="4.36305">
        <ele>255.5</ele>
        <time>2016-8-7T10:40:48.000Z</time>
      </trkpt>
      <trkpt lat="50.20471" lon="4.36308">
        <ele>255.5</ele>
        <time>2016-8-7T10:40:48.000Z</time>
      </trkpt>
      <trkpt lat="50.20471" lon="4.36308">
        <ele>255.5</ele>
        <time>2016-8-7T10:40:48.000Z</time>
      </trkpt>
      <trkpt lat="50.20473" lon="4.3631">
        <ele>255.5</ele>
        <time>2016-8-7T10:40:48.000Z</time>
      </trkpt>
      <trkpt lat="50.20473" lon="4.3631">
        <ele>255.5</ele>
        <time>2016-8-7T10:40:48.000Z</time>
      </trkpt>
      <trkpt lat="50.20475" lon="4.36312">
        <ele>255.5</ele>
        <time>2016-8-7T10:40:48.000Z</time>
      </trkpt>
      <trkpt lat="50.20475" lon="4.36312">
        <ele>255.5</ele>
        <time>2016-8-7T10:40:48.000Z</time>
      </trkpt>
      <trkpt lat="50.20477" lon="4.36314">
        <ele>255.5</ele>
        <time>2016-8-7T10:40:48.000Z</time>
      </trkpt>
      <trkpt lat="50.20477" lon="4.36314">
        <ele>255.5</ele>
        <time>2016-8-7T10:40:48.000Z</time>
      </trkpt>
      <trkpt lat="50.20479" lon="4.36315">
        <ele>255.5</ele>
        <time>2016-8-7T10:40:48.000Z</time>
      </trkpt>
      <trkpt lat="50.20479" lon="4.36315">
        <ele>255.5</ele>
        <time>2016-8-7T10:40:48.000Z</time>
      </trkpt>
      <trkpt lat="50.2048" lon="4.36317">
        <ele>255.5</ele>
        <time>2016-8-7T10:40:48.000Z</time>
      </trkpt>
      <trkpt lat="50.2048" lon="4.36317">
        <ele>255.5</ele>
        <time>2016-8-7T10:40:48.000Z</time>
      </trkpt>
      <trkpt lat="50.20481" lon="4.36318">
        <ele>255.5</ele>
        <time>2016-8-7T10:40:48.000Z</time>
      </trkpt>
      <trkpt lat="50.20481" lon="4.36318">
        <ele>255.5</ele>
        <time>2016-8-7T10:40:48.000Z</time>
      </trkpt>
      <trkpt lat="50.20482" lon="4.3632">
        <ele>255</ele>
        <time>2016-8-7T10:40:48.000Z</time>
      </trkpt>
      <trkpt lat="50.20482" lon="4.3632">
        <ele>255</ele>
        <time>2016-8-7T10:40:48.000Z</time>
      </trkpt>
      <trkpt lat="50.20484" lon="4.36321">
        <ele>255</ele>
        <time>2016-8-7T10:40:48.000Z</time>
      </trkpt>
      <trkpt lat="50.20484" lon="4.36321">
        <ele>255</ele>
        <time>2016-8-7T10:40:48.000Z</time>
      </trkpt>
      <trkpt lat="50.20485" lon="4.36322">
        <ele>255.5</ele>
        <time>2016-8-7T10:40:48.000Z</time>
      </trkpt>
      <trkpt lat="50.20485" lon="4.36322">
        <ele>255.5</ele>
        <time>2016-8-7T10:40:48.000Z</time>
      </trkpt>
      <trkpt lat="50.20487" lon="4.36325">
        <ele>255.5</ele>
        <time>2016-8-7T10:40:48.000Z</time>
      </trkpt>
      <trkpt lat="50.20487" lon="4.36325">
        <ele>255.5</ele>
        <time>2016-8-7T10:40:48.000Z</time>
      </trkpt>
      <trkpt lat="50.20489" lon="4.36327">
        <ele>255</ele>
        <time>2016-8-7T10:40:48.000Z</time>
      </trkpt>
      <trkpt lat="50.20489" lon="4.36327">
        <ele>255</ele>
        <time>2016-8-7T10:40:48.000Z</time>
      </trkpt>
      <trkpt lat="50.20492" lon="4.36329">
        <ele>255</ele>
        <time>2016-8-7T10:40:48.000Z</time>
      </trkpt>
      <trkpt lat="50.20492" lon="4.36329">
        <ele>255</ele>
        <time>2016-8-7T10:40:48.000Z</time>
      </trkpt>
      <trkpt lat="50.20494" lon="4.36331">
        <ele>255</ele>
        <time>2016-8-7T10:40:48.000Z</time>
      </trkpt>
      <trkpt lat="50.20494" lon="4.36331">
        <ele>255</ele>
        <time>2016-8-7T10:40:48.000Z</time>
      </trkpt>
      <trkpt lat="50.20496" lon="4.36333">
        <ele>255</ele>
        <time>2016-8-7T10:40:48.000Z</time>
      </trkpt>
      <trkpt lat="50.20496" lon="4.36333">
        <ele>255</ele>
        <time>2016-8-7T10:40:48.000Z</time>
      </trkpt>
      <trkpt lat="50.20498" lon="4.36334">
        <ele>255</ele>
        <time>2016-8-7T10:40:48.000Z</time>
      </trkpt>
      <trkpt lat="50.20498" lon="4.36334">
        <ele>255</ele>
        <time>2016-8-7T10:40:48.000Z</time>
      </trkpt>
      <trkpt lat="50.20499" lon="4.36335">
        <ele>255</ele>
        <time>2016-8-7T10:40:48.000Z</time>
      </trkpt>
      <trkpt lat="50.20499" lon="4.36335">
        <ele>255</ele>
        <time>2016-8-7T10:40:48.000Z</time>
      </trkpt>
      <trkpt lat="50.20501" lon="4.36337">
        <ele>255</ele>
        <time>2016-8-7T10:42:8.000Z</time>
      </trkpt>
      <trkpt lat="50.20501" lon="4.36337">
        <ele>255</ele>
        <time>2016-8-7T10:42:8.000Z</time>
      </trkpt>
      <trkpt lat="50.20502" lon="4.36338">
        <ele>255</ele>
        <time>2016-8-7T10:42:8.000Z</time>
      </trkpt>
      <trkpt lat="50.20502" lon="4.36338">
        <ele>255</ele>
        <time>2016-8-7T10:42:8.000Z</time>
      </trkpt>
      <trkpt lat="50.20503" lon="4.36339">
        <ele>255</ele>
        <time>2016-8-7T10:42:8.000Z</time>
      </trkpt>
      <trkpt lat="50.20503" lon="4.36339">
        <ele>255</ele>
        <time>2016-8-7T10:42:8.000Z</time>
      </trkpt>
      <trkpt lat="50.20505" lon="4.36341">
        <ele>255</ele>
        <time>2016-8-7T10:42:8.000Z</time>
      </trkpt>
      <trkpt lat="50.20505" lon="4.36341">
        <ele>255</ele>
        <time>2016-8-7T10:42:8.000Z</time>
      </trkpt>
      <trkpt lat="50.20507" lon="4.36343">
        <ele>255</ele>
        <time>2016-8-7T10:42:8.000Z</time>
      </trkpt>
      <trkpt lat="50.20507" lon="4.36343">
        <ele>255</ele>
        <time>2016-8-7T10:42:8.000Z</time>
      </trkpt>
      <trkpt lat="50.20508" lon="4.36344">
        <ele>255</ele>
        <time>2016-8-7T10:42:8.000Z</time>
      </trkpt>
      <trkpt lat="50.20508" lon="4.36344">
        <ele>255</ele>
        <time>2016-8-7T10:42:8.000Z</time>
      </trkpt>
      <trkpt lat="50.20511" lon="4.36346">
        <ele>255</ele>
        <time>2016-8-7T10:42:8.000Z</time>
      </trkpt>
      <trkpt lat="50.20511" lon="4.36346">
        <ele>255</ele>
        <time>2016-8-7T10:42:8.000Z</time>
      </trkpt>
      <trkpt lat="50.20513" lon="4.36348">
        <ele>255</ele>
        <time>2016-8-7T10:42:8.000Z</time>
      </trkpt>
      <trkpt lat="50.20513" lon="4.36348">
        <ele>255</ele>
        <time>2016-8-7T10:42:8.000Z</time>
      </trkpt>
      <trkpt lat="50.20515" lon="4.36349">
        <ele>255</ele>
        <time>2016-8-7T10:42:8.000Z</time>
      </trkpt>
      <trkpt lat="50.20515" lon="4.36349">
        <ele>255</ele>
        <time>2016-8-7T10:42:8.000Z</time>
      </trkpt>
      <trkpt lat="50.20516" lon="4.3635">
        <ele>255</ele>
        <time>2016-8-7T10:42:8.000Z</time>
      </trkpt>
      <trkpt lat="50.20516" lon="4.3635">
        <ele>255</ele>
        <time>2016-8-7T10:42:8.000Z</time>
      </trkpt>
      <trkpt lat="50.20518" lon="4.36352">
        <ele>254.5</ele>
        <time>2016-8-7T10:42:8.000Z</time>
      </trkpt>
      <trkpt lat="50.20518" lon="4.36352">
        <ele>254.5</ele>
        <time>2016-8-7T10:42:8.000Z</time>
      </trkpt>
      <trkpt lat="50.2052" lon="4.36353">
        <ele>254.5</ele>
        <time>2016-8-7T10:42:8.000Z</time>
      </trkpt>
      <trkpt lat="50.2052" lon="4.36353">
        <ele>254.5</ele>
        <time>2016-8-7T10:42:8.000Z</time>
      </trkpt>
      <trkpt lat="50.20521" lon="4.36354">
        <ele>254.5</ele>
        <time>2016-8-7T10:42:8.000Z</time>
      </trkpt>
      <trkpt lat="50.20521" lon="4.36354">
        <ele>254.5</ele>
        <time>2016-8-7T10:42:8.000Z</time>
      </trkpt>
      <trkpt lat="50.20523" lon="4.36356">
        <ele>254.5</ele>
        <time>2016-8-7T10:42:8.000Z</time>
      </trkpt>
      <trkpt lat="50.20523" lon="4.36356">
        <ele>254.5</ele>
        <time>2016-8-7T10:42:8.000Z</time>
      </trkpt>
      <trkpt lat="50.20524" lon="4.36359">
        <ele>254</ele>
        <time>2016-8-7T10:42:8.000Z</time>
      </trkpt>
      <trkpt lat="50.20524" lon="4.36359">
        <ele>254</ele>
        <time>2016-8-7T10:42:8.000Z</time>
      </trkpt>
      <trkpt lat="50.20526" lon="4.36361">
        <ele>254</ele>
        <time>2016-8-7T10:42:8.000Z</time>
      </trkpt>
      <trkpt lat="50.20526" lon="4.36361">
        <ele>254</ele>
        <time>2016-8-7T10:42:8.000Z</time>
      </trkpt>
      <trkpt lat="50.20527" lon="4.36362">
        <ele>254</ele>
        <time>2016-8-7T10:42:8.000Z</time>
      </trkpt>
      <trkpt lat="50.20527" lon="4.36362">
        <ele>254</ele>
        <time>2016-8-7T10:42:8.000Z</time>
      </trkpt>
      <trkpt lat="50.20529" lon="4.36365">
        <ele>254</ele>
        <time>2016-8-7T10:42:8.000Z</time>
      </trkpt>
      <trkpt lat="50.20529" lon="4.36365">
        <ele>254</ele>
        <time>2016-8-7T10:42:8.000Z</time>
      </trkpt>
      <trkpt lat="50.20531" lon="4.36368">
        <ele>254</ele>
        <time>2016-8-7T10:42:8.000Z</time>
      </trkpt>
      <trkpt lat="50.20531" lon="4.36368">
        <ele>254</ele>
        <time>2016-8-7T10:42:8.000Z</time>
      </trkpt>
      <trkpt lat="50.20533" lon="4.3637">
        <ele>254</ele>
        <time>2016-8-7T10:42:8.000Z</time>
      </trkpt>
      <trkpt lat="50.20533" lon="4.3637">
        <ele>254</ele>
        <time>2016-8-7T10:42:8.000Z</time>
      </trkpt>
      <trkpt lat="50.20535" lon="4.36372">
        <ele>254.5</ele>
        <time>2016-8-7T10:42:8.000Z</time>
      </trkpt>
      <trkpt lat="50.20535" lon="4.36372">
        <ele>254.5</ele>
        <time>2016-8-7T10:42:8.000Z</time>
      </trkpt>
      <trkpt lat="50.20537" lon="4.36373">
        <ele>254</ele>
        <time>2016-8-7T10:42:8.000Z</time>
      </trkpt>
      <trkpt lat="50.20537" lon="4.36373">
        <ele>254</ele>
        <time>2016-8-7T10:42:8.000Z</time>
      </trkpt>
      <trkpt lat="50.20539" lon="4.36375">
        <ele>254</ele>
        <time>2016-8-7T10:42:8.000Z</time>
      </trkpt>
      <trkpt lat="50.20539" lon="4.36375">
        <ele>254</ele>
        <time>2016-8-7T10:42:8.000Z</time>
      </trkpt>
      <trkpt lat="50.2054" lon="4.36376">
        <ele>254</ele>
        <time>2016-8-7T10:42:8.000Z</time>
      </trkpt>
      <trkpt lat="50.2054" lon="4.36376">
        <ele>254</ele>
        <time>2016-8-7T10:42:8.000Z</time>
      </trkpt>
      <trkpt lat="50.20542" lon="4.36377">
        <ele>254</ele>
        <time>2016-8-7T10:42:8.000Z</time>
      </trkpt>
      <trkpt lat="50.20542" lon="4.36377">
        <ele>254</ele>
        <time>2016-8-7T10:42:8.000Z</time>
      </trkpt>
      <trkpt lat="50.20543" lon="4.36378">
        <ele>254</ele>
        <time>2016-8-7T10:42:8.000Z</time>
      </trkpt>
      <trkpt lat="50.20543" lon="4.36378">
        <ele>254</ele>
        <time>2016-8-7T10:42:8.000Z</time>
      </trkpt>
      <trkpt lat="50.20545" lon="4.36379">
        <ele>254</ele>
        <time>2016-8-7T10:42:8.000Z</time>
      </trkpt>
      <trkpt lat="50.20545" lon="4.36379">
        <ele>254</ele>
        <time>2016-8-7T10:42:8.000Z</time>
      </trkpt>
      <trkpt lat="50.20547" lon="4.36381">
        <ele>254</ele>
        <time>2016-8-7T10:42:8.000Z</time>
      </trkpt>
      <trkpt lat="50.20547" lon="4.36381">
        <ele>254</ele>
        <time>2016-8-7T10:42:8.000Z</time>
      </trkpt>
      <trkpt lat="50.20549" lon="4.36383">
        <ele>253.5</ele>
        <time>2016-8-7T10:42:8.000Z</time>
      </trkpt>
      <trkpt lat="50.20549" lon="4.36383">
        <ele>253.5</ele>
        <time>2016-8-7T10:42:8.000Z</time>
      </trkpt>
      <trkpt lat="50.2055" lon="4.36385">
        <ele>253.5</ele>
        <time>2016-8-7T10:42:8.000Z</time>
      </trkpt>
      <trkpt lat="50.2055" lon="4.36385">
        <ele>253.5</ele>
        <time>2016-8-7T10:42:8.000Z</time>
      </trkpt>
      <trkpt lat="50.20551" lon="4.36386">
        <ele>253.5</ele>
        <time>2016-8-7T10:42:8.000Z</time>
      </trkpt>
      <trkpt lat="50.20551" lon="4.36386">
        <ele>253.5</ele>
        <time>2016-8-7T10:42:8.000Z</time>
      </trkpt>
      <trkpt lat="50.20552" lon="4.36387">
        <ele>253.5</ele>
        <time>2016-8-7T10:42:8.000Z</time>
      </trkpt>
      <trkpt lat="50.20552" lon="4.36387">
        <ele>253.5</ele>
        <time>2016-8-7T10:42:8.000Z</time>
      </trkpt>
      <trkpt lat="50.20552" lon="4.36389">
        <ele>253.5</ele>
        <time>2016-8-7T10:42:8.000Z</time>
      </trkpt>
      <trkpt lat="50.20552" lon="4.36389">
        <ele>253.5</ele>
        <time>2016-8-7T10:42:8.000Z</time>
      </trkpt>
      <trkpt lat="50.20553" lon="4.36391">
        <ele>253.5</ele>
        <time>2016-8-7T10:42:8.000Z</time>
      </trkpt>
      <trkpt lat="50.20553" lon="4.36391">
        <ele>253.5</ele>
        <time>2016-8-7T10:42:8.000Z</time>
      </trkpt>
      <trkpt lat="50.20553" lon="4.36394">
        <ele>253</ele>
        <time>2016-8-7T10:42:8.000Z</time>
      </trkpt>
      <trkpt lat="50.20553" lon="4.36394">
        <ele>253</ele>
        <time>2016-8-7T10:42:8.000Z</time>
      </trkpt>
      <trkpt lat="50.20553" lon="4.36396">
        <ele>253</ele>
        <time>2016-8-7T10:42:8.000Z</time>
      </trkpt>
      <trkpt lat="50.20553" lon="4.36396">
        <ele>253</ele>
        <time>2016-8-7T10:42:8.000Z</time>
      </trkpt>
      <trkpt lat="50.20554" lon="4.36397">
        <ele>253</ele>
        <time>2016-8-7T10:42:8.000Z</time>
      </trkpt>
      <trkpt lat="50.20554" lon="4.36397">
        <ele>253</ele>
        <time>2016-8-7T10:42:8.000Z</time>
      </trkpt>
      <trkpt lat="50.20554" lon="4.36397">
        <ele>253</ele>
        <time>2016-8-7T10:42:8.000Z</time>
      </trkpt>
      <trkpt lat="50.20554" lon="4.36397">
        <ele>253</ele>
        <time>2016-8-7T10:42:8.000Z</time>
      </trkpt>
      <trkpt lat="50.2055" lon="4.364">
        <ele>251.5</ele>
        <time>2016-8-7T10:42:8.000Z</time>
      </trkpt>
      <trkpt lat="50.2055" lon="4.364">
        <ele>251.5</ele>
        <time>2016-8-7T10:42:8.000Z</time>
      </trkpt>
      <trkpt lat="50.20548" lon="4.36402">
        <ele>251.5</ele>
        <time>2016-8-7T10:42:8.000Z</time>
      </trkpt>
      <trkpt lat="50.20548" lon="4.36402">
        <ele>251.5</ele>
        <time>2016-8-7T10:42:8.000Z</time>
      </trkpt>
      <trkpt lat="50.20547" lon="4.36403">
        <ele>251.5</ele>
        <time>2016-8-7T10:42:8.000Z</time>
      </trkpt>
      <trkpt lat="50.20547" lon="4.36403">
        <ele>251.5</ele>
        <time>2016-8-7T10:42:8.000Z</time>
      </trkpt>
      <trkpt lat="50.20546" lon="4.36405">
        <ele>251.5</ele>
        <time>2016-8-7T10:42:8.000Z</time>
      </trkpt>
      <trkpt lat="50.20546" lon="4.36405">
        <ele>251.5</ele>
        <time>2016-8-7T10:42:8.000Z</time>
      </trkpt>
      <trkpt lat="50.20545" lon="4.36407">
        <ele>252.5</ele>
        <time>2016-8-7T10:42:8.000Z</time>
      </trkpt>
      <trkpt lat="50.20545" lon="4.36407">
        <ele>252.5</ele>
        <time>2016-8-7T10:42:8.000Z</time>
      </trkpt>
      <trkpt lat="50.20543" lon="4.36408">
        <ele>251.5</ele>
        <time>2016-8-7T10:42:8.000Z</time>
      </trkpt>
      <trkpt lat="50.20543" lon="4.36408">
        <ele>251.5</ele>
        <time>2016-8-7T10:42:8.000Z</time>
      </trkpt>
      <trkpt lat="50.20541" lon="4.3641">
        <ele>251.5</ele>
        <time>2016-8-7T10:42:8.000Z</time>
      </trkpt>
      <trkpt lat="50.20541" lon="4.3641">
        <ele>251.5</ele>
        <time>2016-8-7T10:42:8.000Z</time>
      </trkpt>
      <trkpt lat="50.2054" lon="4.36412">
        <ele>251.5</ele>
        <time>2016-8-7T10:42:8.000Z</time>
      </trkpt>
      <trkpt lat="50.2054" lon="4.36412">
        <ele>251.5</ele>
        <time>2016-8-7T10:42:8.000Z</time>
      </trkpt>
      <trkpt lat="50.20538" lon="4.36415">
        <ele>252</ele>
        <time>2016-8-7T10:42:8.000Z</time>
      </trkpt>
      <trkpt lat="50.20538" lon="4.36415">
        <ele>252</ele>
        <time>2016-8-7T10:42:8.000Z</time>
      </trkpt>
      <trkpt lat="50.20537" lon="4.36418">
        <ele>252</ele>
        <time>2016-8-7T10:42:8.000Z</time>
      </trkpt>
      <trkpt lat="50.20537" lon="4.36418">
        <ele>252</ele>
        <time>2016-8-7T10:42:8.000Z</time>
      </trkpt>
      <trkpt lat="50.20535" lon="4.36421">
        <ele>252</ele>
        <time>2016-8-7T10:42:8.000Z</time>
      </trkpt>
      <trkpt lat="50.20535" lon="4.36421">
        <ele>252</ele>
        <time>2016-8-7T10:42:8.000Z</time>
      </trkpt>
      <trkpt lat="50.20534" lon="4.36422">
        <ele>252</ele>
        <time>2016-8-7T10:42:8.000Z</time>
      </trkpt>
      <trkpt lat="50.20534" lon="4.36422">
        <ele>252</ele>
        <time>2016-8-7T10:42:8.000Z</time>
      </trkpt>
      <trkpt lat="50.20532" lon="4.36425">
        <ele>252</ele>
        <time>2016-8-7T10:42:8.000Z</time>
      </trkpt>
      <trkpt lat="50.20532" lon="4.36425">
        <ele>252</ele>
        <time>2016-8-7T10:43:22.000Z</time>
      </trkpt>
      <trkpt lat="50.20531" lon="4.36428">
        <ele>252.5</ele>
        <time>2016-8-7T10:43:22.000Z</time>
      </trkpt>
      <trkpt lat="50.20531" lon="4.36428">
        <ele>252.5</ele>
        <time>2016-8-7T10:43:22.000Z</time>
      </trkpt>
      <trkpt lat="50.2053" lon="4.36429">
        <ele>252</ele>
        <time>2016-8-7T10:43:22.000Z</time>
      </trkpt>
      <trkpt lat="50.2053" lon="4.36429">
        <ele>252</ele>
        <time>2016-8-7T10:43:22.000Z</time>
      </trkpt>
      <trkpt lat="50.20528" lon="4.36432">
        <ele>252</ele>
        <time>2016-8-7T10:43:22.000Z</time>
      </trkpt>
      <trkpt lat="50.20528" lon="4.36432">
        <ele>252</ele>
        <time>2016-8-7T10:43:22.000Z</time>
      </trkpt>
      <trkpt lat="50.20526" lon="4.36434">
        <ele>252</ele>
        <time>2016-8-7T10:43:22.000Z</time>
      </trkpt>
      <trkpt lat="50.20526" lon="4.36434">
        <ele>252</ele>
        <time>2016-8-7T10:43:22.000Z</time>
      </trkpt>
      <trkpt lat="50.20525" lon="4.36435">
        <ele>252</ele>
        <time>2016-8-7T10:43:22.000Z</time>
      </trkpt>
      <trkpt lat="50.20525" lon="4.36435">
        <ele>252</ele>
        <time>2016-8-7T10:43:22.000Z</time>
      </trkpt>
      <trkpt lat="50.20523" lon="4.36437">
        <ele>252</ele>
        <time>2016-8-7T10:43:22.000Z</time>
      </trkpt>
      <trkpt lat="50.20523" lon="4.36437">
        <ele>252</ele>
        <time>2016-8-7T10:43:22.000Z</time>
      </trkpt>
      <trkpt lat="50.20521" lon="4.36439">
        <ele>252</ele>
        <time>2016-8-7T10:43:22.000Z</time>
      </trkpt>
      <trkpt lat="50.20521" lon="4.36439">
        <ele>252</ele>
        <time>2016-8-7T10:43:22.000Z</time>
      </trkpt>
      <trkpt lat="50.20519" lon="4.36441">
        <ele>252</ele>
        <time>2016-8-7T10:43:22.000Z</time>
      </trkpt>
      <trkpt lat="50.20519" lon="4.36441">
        <ele>252</ele>
        <time>2016-8-7T10:43:22.000Z</time>
      </trkpt>
      <trkpt lat="50.20518" lon="4.36442">
        <ele>251.5</ele>
        <time>2016-8-7T10:43:22.000Z</time>
      </trkpt>
      <trkpt lat="50.20518" lon="4.36442">
        <ele>251.5</ele>
        <time>2016-8-7T10:43:22.000Z</time>
      </trkpt>
      <trkpt lat="50.20517" lon="4.36444">
        <ele>251.5</ele>
        <time>2016-8-7T10:43:22.000Z</time>
      </trkpt>
      <trkpt lat="50.20517" lon="4.36444">
        <ele>251.5</ele>
        <time>2016-8-7T10:43:22.000Z</time>
      </trkpt>
      <trkpt lat="50.20515" lon="4.36446">
        <ele>251</ele>
        <time>2016-8-7T10:43:22.000Z</time>
      </trkpt>
      <trkpt lat="50.20515" lon="4.36446">
        <ele>251</ele>
        <time>2016-8-7T10:43:22.000Z</time>
      </trkpt>
      <trkpt lat="50.20513" lon="4.36448">
        <ele>251</ele>
        <time>2016-8-7T10:43:22.000Z</time>
      </trkpt>
      <trkpt lat="50.20513" lon="4.36448">
        <ele>251</ele>
        <time>2016-8-7T10:43:22.000Z</time>
      </trkpt>
      <trkpt lat="50.20511" lon="4.3645">
        <ele>251</ele>
        <time>2016-8-7T10:43:22.000Z</time>
      </trkpt>
      <trkpt lat="50.20511" lon="4.3645">
        <ele>251</ele>
        <time>2016-8-7T10:43:22.000Z</time>
      </trkpt>
      <trkpt lat="50.2051" lon="4.36451">
        <ele>251</ele>
        <time>2016-8-7T10:43:22.000Z</time>
      </trkpt>
      <trkpt lat="50.2051" lon="4.36451">
        <ele>251</ele>
        <time>2016-8-7T10:43:22.000Z</time>
      </trkpt>
      <trkpt lat="50.20509" lon="4.36452">
        <ele>251</ele>
        <time>2016-8-7T10:43:22.000Z</time>
      </trkpt>
      <trkpt lat="50.20509" lon="4.36452">
        <ele>251</ele>
        <time>2016-8-7T10:43:22.000Z</time>
      </trkpt>
      <trkpt lat="50.20508" lon="4.36453">
        <ele>251</ele>
        <time>2016-8-7T10:43:22.000Z</time>
      </trkpt>
      <trkpt lat="50.20508" lon="4.36453">
        <ele>251</ele>
        <time>2016-8-7T10:43:22.000Z</time>
      </trkpt>
      <trkpt lat="50.20506" lon="4.36455">
        <ele>251</ele>
        <time>2016-8-7T10:43:22.000Z</time>
      </trkpt>
      <trkpt lat="50.20506" lon="4.36455">
        <ele>251</ele>
        <time>2016-8-7T10:43:22.000Z</time>
      </trkpt>
      <trkpt lat="50.20504" lon="4.36457">
        <ele>251.5</ele>
        <time>2016-8-7T10:43:22.000Z</time>
      </trkpt>
      <trkpt lat="50.20504" lon="4.36457">
        <ele>251.5</ele>
        <time>2016-8-7T10:43:22.000Z</time>
      </trkpt>
      <trkpt lat="50.20502" lon="4.36459">
        <ele>251.5</ele>
        <time>2016-8-7T10:43:22.000Z</time>
      </trkpt>
      <trkpt lat="50.20502" lon="4.36459">
        <ele>251.5</ele>
        <time>2016-8-7T10:43:22.000Z</time>
      </trkpt>
      <trkpt lat="50.205" lon="4.3646">
        <ele>251.5</ele>
        <time>2016-8-7T10:43:22.000Z</time>
      </trkpt>
      <trkpt lat="50.205" lon="4.3646">
        <ele>251.5</ele>
        <time>2016-8-7T10:43:22.000Z</time>
      </trkpt>
      <trkpt lat="50.20498" lon="4.36462">
        <ele>251.5</ele>
        <time>2016-8-7T10:43:22.000Z</time>
      </trkpt>
      <trkpt lat="50.20498" lon="4.36462">
        <ele>251.5</ele>
        <time>2016-8-7T10:43:22.000Z</time>
      </trkpt>
      <trkpt lat="50.20496" lon="4.36463">
        <ele>251.5</ele>
        <time>2016-8-7T10:43:22.000Z</time>
      </trkpt>
      <trkpt lat="50.20496" lon="4.36463">
        <ele>251.5</ele>
        <time>2016-8-7T10:43:22.000Z</time>
      </trkpt>
      <trkpt lat="50.20494" lon="4.36465">
        <ele>251.5</ele>
        <time>2016-8-7T10:43:22.000Z</time>
      </trkpt>
      <trkpt lat="50.20494" lon="4.36465">
        <ele>251.5</ele>
        <time>2016-8-7T10:43:22.000Z</time>
      </trkpt>
      <trkpt lat="50.20492" lon="4.36468">
        <ele>251.5</ele>
        <time>2016-8-7T10:43:22.000Z</time>
      </trkpt>
      <trkpt lat="50.20492" lon="4.36468">
        <ele>251.5</ele>
        <time>2016-8-7T10:43:22.000Z</time>
      </trkpt>
      <trkpt lat="50.2049" lon="4.36469">
        <ele>251.5</ele>
        <time>2016-8-7T10:43:22.000Z</time>
      </trkpt>
      <trkpt lat="50.2049" lon="4.36469">
        <ele>251.5</ele>
        <time>2016-8-7T10:43:22.000Z</time>
      </trkpt>
      <trkpt lat="50.20488" lon="4.36471">
        <ele>252</ele>
        <time>2016-8-7T10:43:22.000Z</time>
      </trkpt>
      <trkpt lat="50.20488" lon="4.36471">
        <ele>252</ele>
        <time>2016-8-7T10:43:22.000Z</time>
      </trkpt>
      <trkpt lat="50.20485" lon="4.36472">
        <ele>252</ele>
        <time>2016-8-7T10:43:22.000Z</time>
      </trkpt>
      <trkpt lat="50.20485" lon="4.36472">
        <ele>252</ele>
        <time>2016-8-7T10:43:22.000Z</time>
      </trkpt>
      <trkpt lat="50.20484" lon="4.36473">
        <ele>252</ele>
        <time>2016-8-7T10:43:22.000Z</time>
      </trkpt>
      <trkpt lat="50.20484" lon="4.36473">
        <ele>252</ele>
        <time>2016-8-7T10:43:22.000Z</time>
      </trkpt>
      <trkpt lat="50.20482" lon="4.36475">
        <ele>252.5</ele>
        <time>2016-8-7T10:43:22.000Z</time>
      </trkpt>
      <trkpt lat="50.20482" lon="4.36475">
        <ele>252.5</ele>
        <time>2016-8-7T10:43:22.000Z</time>
      </trkpt>
      <trkpt lat="50.20481" lon="4.36476">
        <ele>252.5</ele>
        <time>2016-8-7T10:43:22.000Z</time>
      </trkpt>
      <trkpt lat="50.20481" lon="4.36476">
        <ele>252.5</ele>
        <time>2016-8-7T10:43:22.000Z</time>
      </trkpt>
      <trkpt lat="50.20479" lon="4.36478">
        <ele>252.5</ele>
        <time>2016-8-7T10:43:22.000Z</time>
      </trkpt>
      <trkpt lat="50.20479" lon="4.36478">
        <ele>252.5</ele>
        <time>2016-8-7T10:43:22.000Z</time>
      </trkpt>
      <trkpt lat="50.20477" lon="4.3648">
        <ele>252.5</ele>
        <time>2016-8-7T10:43:22.000Z</time>
      </trkpt>
      <trkpt lat="50.20477" lon="4.3648">
        <ele>252.5</ele>
        <time>2016-8-7T10:43:22.000Z</time>
      </trkpt>
      <trkpt lat="50.20476" lon="4.36481">
        <ele>252.5</ele>
        <time>2016-8-7T10:43:22.000Z</time>
      </trkpt>
      <trkpt lat="50.20476" lon="4.36481">
        <ele>252.5</ele>
        <time>2016-8-7T10:43:22.000Z</time>
      </trkpt>
      <trkpt lat="50.20474" lon="4.36482">
        <ele>252.5</ele>
        <time>2016-8-7T10:43:22.000Z</time>
      </trkpt>
      <trkpt lat="50.20474" lon="4.36482">
        <ele>252.5</ele>
        <time>2016-8-7T10:43:22.000Z</time>
      </trkpt>
      <trkpt lat="50.20474" lon="4.36483">
        <ele>252.5</ele>
        <time>2016-8-7T10:43:22.000Z</time>
      </trkpt>
      <trkpt lat="50.20474" lon="4.36483">
        <ele>252.5</ele>
        <time>2016-8-7T10:43:22.000Z</time>
      </trkpt>
      <trkpt lat="50.20472" lon="4.36485">
        <ele>253</ele>
        <time>2016-8-7T10:43:22.000Z</time>
      </trkpt>
      <trkpt lat="50.20472" lon="4.36485">
        <ele>253</ele>
        <time>2016-8-7T10:43:22.000Z</time>
      </trkpt>
      <trkpt lat="50.20471" lon="4.36487">
        <ele>253.5</ele>
        <time>2016-8-7T10:43:22.000Z</time>
      </trkpt>
      <trkpt lat="50.20471" lon="4.36487">
        <ele>253.5</ele>
        <time>2016-8-7T10:43:22.000Z</time>
      </trkpt>
      <trkpt lat="50.20469" lon="4.36489">
        <ele>253.5</ele>
        <time>2016-8-7T10:43:22.000Z</time>
      </trkpt>
      <trkpt lat="50.20469" lon="4.36489">
        <ele>253.5</ele>
        <time>2016-8-7T10:43:22.000Z</time>
      </trkpt>
      <trkpt lat="50.20468" lon="4.36491">
        <ele>254</ele>
        <time>2016-8-7T10:43:22.000Z</time>
      </trkpt>
      <trkpt lat="50.20468" lon="4.36491">
        <ele>254</ele>
        <time>2016-8-7T10:43:22.000Z</time>
      </trkpt>
      <trkpt lat="50.20467" lon="4.36492">
        <ele>254</ele>
        <time>2016-8-7T10:43:22.000Z</time>
      </trkpt>
      <trkpt lat="50.20467" lon="4.36492">
        <ele>254</ele>
        <time>2016-8-7T10:43:22.000Z</time>
      </trkpt>
      <trkpt lat="50.20466" lon="4.36494">
        <ele>254</ele>
        <time>2016-8-7T10:43:22.000Z</time>
      </trkpt>
      <trkpt lat="50.20466" lon="4.36494">
        <ele>254</ele>
        <time>2016-8-7T10:43:22.000Z</time>
      </trkpt>
      <trkpt lat="50.20464" lon="4.36497">
        <ele>254.5</ele>
        <time>2016-8-7T10:43:22.000Z</time>
      </trkpt>
      <trkpt lat="50.20464" lon="4.36497">
        <ele>254.5</ele>
        <time>2016-8-7T10:43:22.000Z</time>
      </trkpt>
      <trkpt lat="50.20463" lon="4.36498">
        <ele>254.5</ele>
        <time>2016-8-7T10:43:22.000Z</time>
      </trkpt>
      <trkpt lat="50.20463" lon="4.36498">
        <ele>254.5</ele>
        <time>2016-8-7T10:43:22.000Z</time>
      </trkpt>
      <trkpt lat="50.20462" lon="4.36501">
        <ele>254.5</ele>
        <time>2016-8-7T10:43:22.000Z</time>
      </trkpt>
      <trkpt lat="50.20462" lon="4.36501">
        <ele>254.5</ele>
        <time>2016-8-7T10:43:22.000Z</time>
      </trkpt>
      <trkpt lat="50.20461" lon="4.36503">
        <ele>254.5</ele>
        <time>2016-8-7T10:43:22.000Z</time>
      </trkpt>
      <trkpt lat="50.20461" lon="4.36503">
        <ele>254.5</ele>
        <time>2016-8-7T10:43:22.000Z</time>
      </trkpt>
      <trkpt lat="50.20459" lon="4.36506">
        <ele>254.5</ele>
        <time>2016-8-7T10:43:22.000Z</time>
      </trkpt>
      <trkpt lat="50.20459" lon="4.36506">
        <ele>254.5</ele>
        <time>2016-8-7T10:43:22.000Z</time>
      </trkpt>
      <trkpt lat="50.20458" lon="4.36509">
        <ele>255</ele>
        <time>2016-8-7T10:43:22.000Z</time>
      </trkpt>
      <trkpt lat="50.20458" lon="4.36509">
        <ele>255</ele>
        <time>2016-8-7T10:43:22.000Z</time>
      </trkpt>
      <trkpt lat="50.20456" lon="4.36512">
        <ele>255</ele>
        <time>2016-8-7T10:43:22.000Z</time>
      </trkpt>
      <trkpt lat="50.20456" lon="4.36512">
        <ele>255</ele>
        <time>2016-8-7T10:43:22.000Z</time>
      </trkpt>
      <trkpt lat="50.20454" lon="4.36515">
        <ele>255</ele>
        <time>2016-8-7T10:43:22.000Z</time>
      </trkpt>
      <trkpt lat="50.20454" lon="4.36515">
        <ele>255</ele>
        <time>2016-8-7T10:43:22.000Z</time>
      </trkpt>
      <trkpt lat="50.20453" lon="4.36517">
        <ele>255</ele>
        <time>2016-8-7T10:43:22.000Z</time>
      </trkpt>
      <trkpt lat="50.20453" lon="4.36517">
        <ele>255</ele>
        <time>2016-8-7T10:43:22.000Z</time>
      </trkpt>
      <trkpt lat="50.20451" lon="4.3652">
        <ele>255</ele>
        <time>2016-8-7T10:46:54.000Z</time>
      </trkpt>
      <trkpt lat="50.20451" lon="4.3652">
        <ele>255</ele>
        <time>2016-8-7T10:46:54.000Z</time>
      </trkpt>
      <trkpt lat="50.2045" lon="4.36522">
        <ele>255</ele>
        <time>2016-8-7T10:46:54.000Z</time>
      </trkpt>
      <trkpt lat="50.2045" lon="4.36522">
        <ele>255</ele>
        <time>2016-8-7T10:46:54.000Z</time>
      </trkpt>
      <trkpt lat="50.20449" lon="4.36524">
        <ele>255</ele>
        <time>2016-8-7T10:46:54.000Z</time>
      </trkpt>
      <trkpt lat="50.20449" lon="4.36524">
        <ele>255</ele>
        <time>2016-8-7T10:46:54.000Z</time>
      </trkpt>
      <trkpt lat="50.20448" lon="4.36526">
        <ele>255</ele>
        <time>2016-8-7T10:46:54.000Z</time>
      </trkpt>
      <trkpt lat="50.20448" lon="4.36526">
        <ele>255</ele>
        <time>2016-8-7T10:46:54.000Z</time>
      </trkpt>
      <trkpt lat="50.20448" lon="4.36527">
        <ele>255</ele>
        <time>2016-8-7T10:46:54.000Z</time>
      </trkpt>
      <trkpt lat="50.20448" lon="4.36527">
        <ele>255</ele>
        <time>2016-8-7T10:46:54.000Z</time>
      </trkpt>
      <trkpt lat="50.20447" lon="4.3653">
        <ele>255.5</ele>
        <time>2016-8-7T10:46:54.000Z</time>
      </trkpt>
      <trkpt lat="50.20447" lon="4.3653">
        <ele>255.5</ele>
        <time>2016-8-7T10:46:54.000Z</time>
      </trkpt>
      <trkpt lat="50.20446" lon="4.36531">
        <ele>255.5</ele>
        <time>2016-8-7T10:46:54.000Z</time>
      </trkpt>
      <trkpt lat="50.20446" lon="4.36531">
        <ele>255.5</ele>
        <time>2016-8-7T10:46:54.000Z</time>
      </trkpt>
      <trkpt lat="50.20445" lon="4.36534">
        <ele>255.5</ele>
        <time>2016-8-7T10:46:54.000Z</time>
      </trkpt>
      <trkpt lat="50.20445" lon="4.36534">
        <ele>255.5</ele>
        <time>2016-8-7T10:46:54.000Z</time>
      </trkpt>
      <trkpt lat="50.20444" lon="4.36537">
        <ele>256</ele>
        <time>2016-8-7T10:46:54.000Z</time>
      </trkpt>
      <trkpt lat="50.20444" lon="4.36537">
        <ele>256</ele>
        <time>2016-8-7T10:46:54.000Z</time>
      </trkpt>
      <trkpt lat="50.20443" lon="4.3654">
        <ele>256</ele>
        <time>2016-8-7T10:46:54.000Z</time>
      </trkpt>
      <trkpt lat="50.20443" lon="4.3654">
        <ele>256</ele>
        <time>2016-8-7T10:46:54.000Z</time>
      </trkpt>
      <trkpt lat="50.20442" lon="4.36541">
        <ele>256</ele>
        <time>2016-8-7T10:46:54.000Z</time>
      </trkpt>
      <trkpt lat="50.20442" lon="4.36541">
        <ele>256</ele>
        <time>2016-8-7T10:46:54.000Z</time>
      </trkpt>
      <trkpt lat="50.20441" lon="4.36544">
        <ele>256.5</ele>
        <time>2016-8-7T10:46:54.000Z</time>
      </trkpt>
      <trkpt lat="50.20441" lon="4.36544">
        <ele>256.5</ele>
        <time>2016-8-7T10:46:54.000Z</time>
      </trkpt>
      <trkpt lat="50.2044" lon="4.36547">
        <ele>256.5</ele>
        <time>2016-8-7T10:46:54.000Z</time>
      </trkpt>
      <trkpt lat="50.2044" lon="4.36547">
        <ele>256.5</ele>
        <time>2016-8-7T10:46:54.000Z</time>
      </trkpt>
      <trkpt lat="50.20439" lon="4.3655">
        <ele>256.5</ele>
        <time>2016-8-7T10:46:54.000Z</time>
      </trkpt>
      <trkpt lat="50.20439" lon="4.3655">
        <ele>256.5</ele>
        <time>2016-8-7T10:46:54.000Z</time>
      </trkpt>
      <trkpt lat="50.20438" lon="4.36554">
        <ele>257</ele>
        <time>2016-8-7T10:46:54.000Z</time>
      </trkpt>
      <trkpt lat="50.20438" lon="4.36554">
        <ele>257</ele>
        <time>2016-8-7T10:46:54.000Z</time>
      </trkpt>
      <trkpt lat="50.20436" lon="4.3656">
        <ele>257</ele>
        <time>2016-8-7T10:46:54.000Z</time>
      </trkpt>
      <trkpt lat="50.20436" lon="4.3656">
        <ele>257</ele>
        <time>2016-8-7T10:46:54.000Z</time>
      </trkpt>
      <trkpt lat="50.20436" lon="4.36563">
        <ele>257.5</ele>
        <time>2016-8-7T10:46:54.000Z</time>
      </trkpt>
      <trkpt lat="50.20436" lon="4.36563">
        <ele>257.5</ele>
        <time>2016-8-7T10:46:54.000Z</time>
      </trkpt>
      <trkpt lat="50.20436" lon="4.36565">
        <ele>257.5</ele>
        <time>2016-8-7T10:46:54.000Z</time>
      </trkpt>
      <trkpt lat="50.20436" lon="4.36565">
        <ele>257.5</ele>
        <time>2016-8-7T10:46:54.000Z</time>
      </trkpt>
      <trkpt lat="50.20436" lon="4.36568">
        <ele>257.5</ele>
        <time>2016-8-7T10:46:54.000Z</time>
      </trkpt>
      <trkpt lat="50.20436" lon="4.36568">
        <ele>257.5</ele>
        <time>2016-8-7T10:46:54.000Z</time>
      </trkpt>
      <trkpt lat="50.20435" lon="4.36571">
        <ele>257.5</ele>
        <time>2016-8-7T10:46:54.000Z</time>
      </trkpt>
      <trkpt lat="50.20435" lon="4.36571">
        <ele>257.5</ele>
        <time>2016-8-7T10:46:54.000Z</time>
      </trkpt>
      <trkpt lat="50.20435" lon="4.36575">
        <ele>258</ele>
        <time>2016-8-7T10:46:54.000Z</time>
      </trkpt>
      <trkpt lat="50.20435" lon="4.36575">
        <ele>258</ele>
        <time>2016-8-7T10:46:54.000Z</time>
      </trkpt>
      <trkpt lat="50.20422" lon="4.36653">
        <ele>260.5</ele>
        <time>2016-8-7T10:46:54.000Z</time>
      </trkpt>
      <trkpt lat="50.20422" lon="4.36653">
        <ele>260.5</ele>
        <time>2016-8-7T10:46:54.000Z</time>
      </trkpt>
      <trkpt lat="50.20419" lon="4.36719">
        <ele>264</ele>
        <time>2016-8-7T10:46:54.000Z</time>
      </trkpt>
      <trkpt lat="50.20419" lon="4.36719">
        <ele>264</ele>
        <time>2016-8-7T10:46:54.000Z</time>
      </trkpt>
      <trkpt lat="50.20417" lon="4.36746">
        <ele>264</ele>
        <time>2016-8-7T10:46:54.000Z</time>
      </trkpt>
      <trkpt lat="50.20417" lon="4.36746">
        <ele>264</ele>
        <time>2016-8-7T10:46:54.000Z</time>
      </trkpt>
      <trkpt lat="50.20417" lon="4.3675">
        <ele>264</ele>
        <time>2016-8-7T10:46:54.000Z</time>
      </trkpt>
      <trkpt lat="50.20417" lon="4.3675">
        <ele>264</ele>
        <time>2016-8-7T10:46:54.000Z</time>
      </trkpt>
      <trkpt lat="50.20416" lon="4.36752">
        <ele>264</ele>
        <time>2016-8-7T10:46:54.000Z</time>
      </trkpt>
      <trkpt lat="50.20416" lon="4.36752">
        <ele>264</ele>
        <time>2016-8-7T10:46:54.000Z</time>
      </trkpt>
      <trkpt lat="50.20416" lon="4.36756">
        <ele>264.5</ele>
        <time>2016-8-7T10:46:54.000Z</time>
      </trkpt>
      <trkpt lat="50.20416" lon="4.36756">
        <ele>264.5</ele>
        <time>2016-8-7T10:46:54.000Z</time>
      </trkpt>
      <trkpt lat="50.20416" lon="4.36759">
        <ele>264.5</ele>
        <time>2016-8-7T10:46:54.000Z</time>
      </trkpt>
      <trkpt lat="50.20416" lon="4.36759">
        <ele>264.5</ele>
        <time>2016-8-7T10:46:54.000Z</time>
      </trkpt>
      <trkpt lat="50.20416" lon="4.36763">
        <ele>264</ele>
        <time>2016-8-7T10:46:54.000Z</time>
      </trkpt>
      <trkpt lat="50.20416" lon="4.36763">
        <ele>264</ele>
        <time>2016-8-7T10:46:54.000Z</time>
      </trkpt>
      <trkpt lat="50.20415" lon="4.36765">
        <ele>264</ele>
        <time>2016-8-7T10:46:54.000Z</time>
      </trkpt>
      <trkpt lat="50.20415" lon="4.36765">
        <ele>264</ele>
        <time>2016-8-7T10:46:54.000Z</time>
      </trkpt>
      <trkpt lat="50.20415" lon="4.36768">
        <ele>264</ele>
        <time>2016-8-7T10:46:54.000Z</time>
      </trkpt>
      <trkpt lat="50.20415" lon="4.36768">
        <ele>264</ele>
        <time>2016-8-7T10:46:54.000Z</time>
      </trkpt>
      <trkpt lat="50.20414" lon="4.36771">
        <ele>264</ele>
        <time>2016-8-7T10:46:54.000Z</time>
      </trkpt>
      <trkpt lat="50.20414" lon="4.36771">
        <ele>264</ele>
        <time>2016-8-7T10:46:54.000Z</time>
      </trkpt>
      <trkpt lat="50.20413" lon="4.36772">
        <ele>264</ele>
        <time>2016-8-7T10:46:54.000Z</time>
      </trkpt>
      <trkpt lat="50.20413" lon="4.36772">
        <ele>264</ele>
        <time>2016-8-7T10:46:54.000Z</time>
      </trkpt>
      <trkpt lat="50.20412" lon="4.36775">
        <ele>264</ele>
        <time>2016-8-7T10:46:54.000Z</time>
      </trkpt>
      <trkpt lat="50.20412" lon="4.36775">
        <ele>264</ele>
        <time>2016-8-7T10:46:54.000Z</time>
      </trkpt>
      <trkpt lat="50.20412" lon="4.36778">
        <ele>264</ele>
        <time>2016-8-7T10:46:54.000Z</time>
      </trkpt>
      <trkpt lat="50.20412" lon="4.36778">
        <ele>264</ele>
        <time>2016-8-7T10:46:54.000Z</time>
      </trkpt>
      <trkpt lat="50.20411" lon="4.36781">
        <ele>264</ele>
        <time>2016-8-7T10:46:54.000Z</time>
      </trkpt>
      <trkpt lat="50.20411" lon="4.36781">
        <ele>264</ele>
        <time>2016-8-7T10:46:54.000Z</time>
      </trkpt>
      <trkpt lat="50.2041" lon="4.36784">
        <ele>264</ele>
        <time>2016-8-7T10:46:54.000Z</time>
      </trkpt>
      <trkpt lat="50.2041" lon="4.36784">
        <ele>264</ele>
        <time>2016-8-7T10:46:54.000Z</time>
      </trkpt>
      <trkpt lat="50.20409" lon="4.36789">
        <ele>264</ele>
        <time>2016-8-7T10:46:54.000Z</time>
      </trkpt>
      <trkpt lat="50.20409" lon="4.36789">
        <ele>264</ele>
        <time>2016-8-7T10:46:54.000Z</time>
      </trkpt>
      <trkpt lat="50.20409" lon="4.3679">
        <ele>264</ele>
        <time>2016-8-7T10:46:54.000Z</time>
      </trkpt>
      <trkpt lat="50.20409" lon="4.3679">
        <ele>264</ele>
        <time>2016-8-7T10:46:54.000Z</time>
      </trkpt>
      <trkpt lat="50.20408" lon="4.36793">
        <ele>264</ele>
        <time>2016-8-7T10:46:54.000Z</time>
      </trkpt>
      <trkpt lat="50.20408" lon="4.36793">
        <ele>264</ele>
        <time>2016-8-7T10:46:54.000Z</time>
      </trkpt>
      <trkpt lat="50.20408" lon="4.36795">
        <ele>263.5</ele>
        <time>2016-8-7T10:46:54.000Z</time>
      </trkpt>
      <trkpt lat="50.20408" lon="4.36795">
        <ele>263.5</ele>
        <time>2016-8-7T10:46:54.000Z</time>
      </trkpt>
      <trkpt lat="50.20407" lon="4.36799">
        <ele>263.5</ele>
        <time>2016-8-7T10:46:54.000Z</time>
      </trkpt>
      <trkpt lat="50.20407" lon="4.36799">
        <ele>263.5</ele>
        <time>2016-8-7T10:46:54.000Z</time>
      </trkpt>
      <trkpt lat="50.20407" lon="4.368">
        <ele>264</ele>
        <time>2016-8-7T10:46:54.000Z</time>
      </trkpt>
      <trkpt lat="50.20407" lon="4.368">
        <ele>264</ele>
        <time>2016-8-7T10:46:54.000Z</time>
      </trkpt>
      <trkpt lat="50.20407" lon="4.36802">
        <ele>264</ele>
        <time>2016-8-7T10:46:54.000Z</time>
      </trkpt>
      <trkpt lat="50.20407" lon="4.36802">
        <ele>264</ele>
        <time>2016-8-7T10:46:54.000Z</time>
      </trkpt>
      <trkpt lat="50.20406" lon="4.36803">
        <ele>264</ele>
        <time>2016-8-7T10:46:54.000Z</time>
      </trkpt>
      <trkpt lat="50.20406" lon="4.36803">
        <ele>264</ele>
        <time>2016-8-7T10:46:54.000Z</time>
      </trkpt>
      <trkpt lat="50.20406" lon="4.36806">
        <ele>264</ele>
        <time>2016-8-7T10:46:54.000Z</time>
      </trkpt>
      <trkpt lat="50.20406" lon="4.36806">
        <ele>264</ele>
        <time>2016-8-7T10:46:54.000Z</time>
      </trkpt>
      <trkpt lat="50.20405" lon="4.3681">
        <ele>264</ele>
        <time>2016-8-7T10:46:54.000Z</time>
      </trkpt>
      <trkpt lat="50.20405" lon="4.3681">
        <ele>264</ele>
        <time>2016-8-7T10:46:54.000Z</time>
      </trkpt>
      <trkpt lat="50.20404" lon="4.36813">
        <ele>264</ele>
        <time>2016-8-7T10:46:54.000Z</time>
      </trkpt>
      <trkpt lat="50.20404" lon="4.36813">
        <ele>264</ele>
        <time>2016-8-7T10:46:54.000Z</time>
      </trkpt>
      <trkpt lat="50.20404" lon="4.36817">
        <ele>264</ele>
        <time>2016-8-7T10:46:54.000Z</time>
      </trkpt>
      <trkpt lat="50.20404" lon="4.36817">
        <ele>264</ele>
        <time>2016-8-7T10:46:54.000Z</time>
      </trkpt>
      <trkpt lat="50.20398" lon="4.36857">
        <ele>265</ele>
        <time>2016-8-7T10:46:54.000Z</time>
      </trkpt>
      <trkpt lat="50.20398" lon="4.36857">
        <ele>265</ele>
        <time>2016-8-7T10:46:54.000Z</time>
      </trkpt>
      <trkpt lat="50.20389" lon="4.36938">
        <ele>264</ele>
        <time>2016-8-7T10:46:54.000Z</time>
      </trkpt>
      <trkpt lat="50.20389" lon="4.36938">
        <ele>264</ele>
        <time>2016-8-7T10:48:42.000Z</time>
      </trkpt>
      <trkpt lat="50.20388" lon="4.36941">
        <ele>264</ele>
        <time>2016-8-7T10:48:42.000Z</time>
      </trkpt>
      <trkpt lat="50.20388" lon="4.36941">
        <ele>264</ele>
        <time>2016-8-7T10:48:42.000Z</time>
      </trkpt>
      <trkpt lat="50.20387" lon="4.36944">
        <ele>264</ele>
        <time>2016-8-7T10:48:42.000Z</time>
      </trkpt>
      <trkpt lat="50.20387" lon="4.36944">
        <ele>264</ele>
        <time>2016-8-7T10:48:42.000Z</time>
      </trkpt>
      <trkpt lat="50.20386" lon="4.36946">
        <ele>264</ele>
        <time>2016-8-7T10:48:42.000Z</time>
      </trkpt>
      <trkpt lat="50.20386" lon="4.36946">
        <ele>264</ele>
        <time>2016-8-7T10:48:42.000Z</time>
      </trkpt>
      <trkpt lat="50.20385" lon="4.36949">
        <ele>264</ele>
        <time>2016-8-7T10:48:42.000Z</time>
      </trkpt>
      <trkpt lat="50.20385" lon="4.36949">
        <ele>264</ele>
        <time>2016-8-7T10:48:42.000Z</time>
      </trkpt>
      <trkpt lat="50.20385" lon="4.36951">
        <ele>264</ele>
        <time>2016-8-7T10:48:42.000Z</time>
      </trkpt>
      <trkpt lat="50.20385" lon="4.36951">
        <ele>264</ele>
        <time>2016-8-7T10:48:42.000Z</time>
      </trkpt>
      <trkpt lat="50.20384" lon="4.36953">
        <ele>264.5</ele>
        <time>2016-8-7T10:48:42.000Z</time>
      </trkpt>
      <trkpt lat="50.20384" lon="4.36953">
        <ele>264.5</ele>
        <time>2016-8-7T10:48:42.000Z</time>
      </trkpt>
      <trkpt lat="50.20383" lon="4.36957">
        <ele>264.5</ele>
        <time>2016-8-7T10:48:42.000Z</time>
      </trkpt>
      <trkpt lat="50.20383" lon="4.36957">
        <ele>264.5</ele>
        <time>2016-8-7T10:48:42.000Z</time>
      </trkpt>
      <trkpt lat="50.20382" lon="4.36961">
        <ele>264.5</ele>
        <time>2016-8-7T10:48:42.000Z</time>
      </trkpt>
      <trkpt lat="50.20382" lon="4.36961">
        <ele>264.5</ele>
        <time>2016-8-7T10:48:42.000Z</time>
      </trkpt>
      <trkpt lat="50.20382" lon="4.36964">
        <ele>264.5</ele>
        <time>2016-8-7T10:48:42.000Z</time>
      </trkpt>
      <trkpt lat="50.20382" lon="4.36964">
        <ele>264.5</ele>
        <time>2016-8-7T10:48:42.000Z</time>
      </trkpt>
      <trkpt lat="50.20381" lon="4.36972">
        <ele>264.5</ele>
        <time>2016-8-7T10:48:42.000Z</time>
      </trkpt>
      <trkpt lat="50.20381" lon="4.36972">
        <ele>264.5</ele>
        <time>2016-8-7T10:48:42.000Z</time>
      </trkpt>
      <trkpt lat="50.20381" lon="4.36976">
        <ele>264.5</ele>
        <time>2016-8-7T10:48:42.000Z</time>
      </trkpt>
      <trkpt lat="50.20381" lon="4.36976">
        <ele>264.5</ele>
        <time>2016-8-7T10:48:42.000Z</time>
      </trkpt>
      <trkpt lat="50.20381" lon="4.36979">
        <ele>263.5</ele>
        <time>2016-8-7T10:48:42.000Z</time>
      </trkpt>
      <trkpt lat="50.20381" lon="4.36979">
        <ele>263.5</ele>
        <time>2016-8-7T10:48:42.000Z</time>
      </trkpt>
      <trkpt lat="50.2038" lon="4.36983">
        <ele>263.5</ele>
        <time>2016-8-7T10:48:42.000Z</time>
      </trkpt>
      <trkpt lat="50.2038" lon="4.36983">
        <ele>263.5</ele>
        <time>2016-8-7T10:48:42.000Z</time>
      </trkpt>
      <trkpt lat="50.2038" lon="4.36987">
        <ele>263.5</ele>
        <time>2016-8-7T10:48:42.000Z</time>
      </trkpt>
      <trkpt lat="50.2038" lon="4.36987">
        <ele>263.5</ele>
        <time>2016-8-7T10:48:42.000Z</time>
      </trkpt>
      <trkpt lat="50.20381" lon="4.36989">
        <ele>263.5</ele>
        <time>2016-8-7T10:48:42.000Z</time>
      </trkpt>
      <trkpt lat="50.20381" lon="4.36989">
        <ele>263.5</ele>
        <time>2016-8-7T10:48:42.000Z</time>
      </trkpt>
      <trkpt lat="50.20381" lon="4.36992">
        <ele>263.5</ele>
        <time>2016-8-7T10:48:42.000Z</time>
      </trkpt>
      <trkpt lat="50.20381" lon="4.36992">
        <ele>263.5</ele>
        <time>2016-8-7T10:48:42.000Z</time>
      </trkpt>
      <trkpt lat="50.2038" lon="4.37005">
        <ele>263.5</ele>
        <time>2016-8-7T10:48:42.000Z</time>
      </trkpt>
      <trkpt lat="50.2038" lon="4.37005">
        <ele>263.5</ele>
        <time>2016-8-7T10:48:42.000Z</time>
      </trkpt>
      <trkpt lat="50.2038" lon="4.37005">
        <ele>263.5</ele>
        <time>2016-8-7T10:48:42.000Z</time>
      </trkpt>
      <trkpt lat="50.2038" lon="4.37005">
        <ele>263.5</ele>
        <time>2016-8-7T10:48:42.000Z</time>
      </trkpt>
      <trkpt lat="50.2038" lon="4.37005">
        <ele>263.5</ele>
        <time>2016-8-7T10:48:42.000Z</time>
      </trkpt>
      <trkpt lat="50.2038" lon="4.37005">
        <ele>263.5</ele>
        <time>2016-8-7T10:48:42.000Z</time>
      </trkpt>
      <trkpt lat="50.20379" lon="4.37015">
        <ele>263.5</ele>
        <time>2016-8-7T10:48:42.000Z</time>
      </trkpt>
      <trkpt lat="50.20379" lon="4.37015">
        <ele>263.5</ele>
        <time>2016-8-7T10:48:42.000Z</time>
      </trkpt>
      <trkpt lat="50.20379" lon="4.37019">
        <ele>263.5</ele>
        <time>2016-8-7T10:48:42.000Z</time>
      </trkpt>
      <trkpt lat="50.20379" lon="4.37019">
        <ele>263.5</ele>
        <time>2016-8-7T10:48:42.000Z</time>
      </trkpt>
      <trkpt lat="50.20379" lon="4.37023">
        <ele>263.5</ele>
        <time>2016-8-7T10:48:42.000Z</time>
      </trkpt>
      <trkpt lat="50.20379" lon="4.37023">
        <ele>263.5</ele>
        <time>2016-8-7T10:48:42.000Z</time>
      </trkpt>
      <trkpt lat="50.20379" lon="4.37027">
        <ele>263.5</ele>
        <time>2016-8-7T10:48:42.000Z</time>
      </trkpt>
      <trkpt lat="50.20379" lon="4.37027">
        <ele>263.5</ele>
        <time>2016-8-7T10:48:42.000Z</time>
      </trkpt>
      <trkpt lat="50.20374" lon="4.37045">
        <ele>263.5</ele>
        <time>2016-8-7T10:48:42.000Z</time>
      </trkpt>
      <trkpt lat="50.20374" lon="4.37045">
        <ele>263.5</ele>
        <time>2016-8-7T10:48:42.000Z</time>
      </trkpt>
      <trkpt lat="50.20374" lon="4.37047">
        <ele>263.5</ele>
        <time>2016-8-7T10:48:42.000Z</time>
      </trkpt>
      <trkpt lat="50.20374" lon="4.37047">
        <ele>263.5</ele>
        <time>2016-8-7T10:48:42.000Z</time>
      </trkpt>
      <trkpt lat="50.20375" lon="4.3705">
        <ele>263.5</ele>
        <time>2016-8-7T10:48:42.000Z</time>
      </trkpt>
      <trkpt lat="50.20375" lon="4.3705">
        <ele>263.5</ele>
        <time>2016-8-7T10:48:42.000Z</time>
      </trkpt>
      <trkpt lat="50.2037" lon="4.37087">
        <ele>264.5</ele>
        <time>2016-8-7T10:48:42.000Z</time>
      </trkpt>
      <trkpt lat="50.2037" lon="4.37087">
        <ele>264.5</ele>
        <time>2016-8-7T10:48:42.000Z</time>
      </trkpt>
      <trkpt lat="50.20369" lon="4.37091">
        <ele>264.5</ele>
        <time>2016-8-7T10:48:42.000Z</time>
      </trkpt>
      <trkpt lat="50.20369" lon="4.37091">
        <ele>264.5</ele>
        <time>2016-8-7T10:48:42.000Z</time>
      </trkpt>
      <trkpt lat="50.20368" lon="4.37093">
        <ele>264.5</ele>
        <time>2016-8-7T10:48:42.000Z</time>
      </trkpt>
      <trkpt lat="50.20368" lon="4.37093">
        <ele>264.5</ele>
        <time>2016-8-7T10:48:42.000Z</time>
      </trkpt>
      <trkpt lat="50.20369" lon="4.37091">
        <ele>264</ele>
        <time>2016-8-7T10:48:42.000Z</time>
      </trkpt>
      <trkpt lat="50.20369" lon="4.37091">
        <ele>264</ele>
        <time>2016-8-7T10:48:42.000Z</time>
      </trkpt>
      <trkpt lat="50.20367" lon="4.37096">
        <ele>264</ele>
        <time>2016-8-7T10:48:42.000Z</time>
      </trkpt>
      <trkpt lat="50.20367" lon="4.37096">
        <ele>264</ele>
        <time>2016-8-7T10:48:42.000Z</time>
      </trkpt>
      <trkpt lat="50.20367" lon="4.37099">
        <ele>264</ele>
        <time>2016-8-7T10:48:42.000Z</time>
      </trkpt>
      <trkpt lat="50.20367" lon="4.37099">
        <ele>264</ele>
        <time>2016-8-7T10:48:42.000Z</time>
      </trkpt>
      <trkpt lat="50.20366" lon="4.37103">
        <ele>263.5</ele>
        <time>2016-8-7T10:48:42.000Z</time>
      </trkpt>
      <trkpt lat="50.20366" lon="4.37103">
        <ele>263.5</ele>
        <time>2016-8-7T10:48:42.000Z</time>
      </trkpt>
      <trkpt lat="50.20366" lon="4.37105">
        <ele>263.5</ele>
        <time>2016-8-7T10:48:42.000Z</time>
      </trkpt>
      <trkpt lat="50.20366" lon="4.37105">
        <ele>263.5</ele>
        <time>2016-8-7T10:48:42.000Z</time>
      </trkpt>
      <trkpt lat="50.20366" lon="4.37108">
        <ele>263.5</ele>
        <time>2016-8-7T10:48:42.000Z</time>
      </trkpt>
      <trkpt lat="50.20366" lon="4.37108">
        <ele>263.5</ele>
        <time>2016-8-7T10:48:42.000Z</time>
      </trkpt>
      <trkpt lat="50.20365" lon="4.37111">
        <ele>263.5</ele>
        <time>2016-8-7T10:48:42.000Z</time>
      </trkpt>
      <trkpt lat="50.20365" lon="4.37111">
        <ele>263.5</ele>
        <time>2016-8-7T10:48:42.000Z</time>
      </trkpt>
      <trkpt lat="50.20365" lon="4.37113">
        <ele>263.5</ele>
        <time>2016-8-7T10:48:42.000Z</time>
      </trkpt>
      <trkpt lat="50.20365" lon="4.37113">
        <ele>263.5</ele>
        <time>2016-8-7T10:48:42.000Z</time>
      </trkpt>
      <trkpt lat="50.20365" lon="4.37116">
        <ele>263.5</ele>
        <time>2016-8-7T10:48:42.000Z</time>
      </trkpt>
      <trkpt lat="50.20365" lon="4.37116">
        <ele>263.5</ele>
        <time>2016-8-7T10:48:42.000Z</time>
      </trkpt>
      <trkpt lat="50.20362" lon="4.37136">
        <ele>263.5</ele>
        <time>2016-8-7T10:48:42.000Z</time>
      </trkpt>
      <trkpt lat="50.20362" lon="4.37136">
        <ele>263.5</ele>
        <time>2016-8-7T10:48:42.000Z</time>
      </trkpt>
      <trkpt lat="50.2036" lon="4.37139">
        <ele>263.5</ele>
        <time>2016-8-7T10:48:42.000Z</time>
      </trkpt>
      <trkpt lat="50.2036" lon="4.37139">
        <ele>263.5</ele>
        <time>2016-8-7T10:48:42.000Z</time>
      </trkpt>
      <trkpt lat="50.20359" lon="4.3714">
        <ele>263.5</ele>
        <time>2016-8-7T10:48:42.000Z</time>
      </trkpt>
      <trkpt lat="50.20359" lon="4.3714">
        <ele>263.5</ele>
        <time>2016-8-7T10:48:42.000Z</time>
      </trkpt>
      <trkpt lat="50.20359" lon="4.37142">
        <ele>263.5</ele>
        <time>2016-8-7T10:48:42.000Z</time>
      </trkpt>
      <trkpt lat="50.20359" lon="4.37142">
        <ele>263.5</ele>
        <time>2016-8-7T10:48:42.000Z</time>
      </trkpt>
      <trkpt lat="50.20358" lon="4.37145">
        <ele>264.5</ele>
        <time>2016-8-7T10:48:42.000Z</time>
      </trkpt>
      <trkpt lat="50.20358" lon="4.37145">
        <ele>264.5</ele>
        <time>2016-8-7T10:48:42.000Z</time>
      </trkpt>
      <trkpt lat="50.20361" lon="4.37145">
        <ele>263.5</ele>
        <time>2016-8-7T10:48:42.000Z</time>
      </trkpt>
      <trkpt lat="50.20361" lon="4.37145">
        <ele>263.5</ele>
        <time>2016-8-7T10:48:42.000Z</time>
      </trkpt>
      <trkpt lat="50.20359" lon="4.37147">
        <ele>263.5</ele>
        <time>2016-8-7T10:48:42.000Z</time>
      </trkpt>
      <trkpt lat="50.20359" lon="4.37147">
        <ele>263.5</ele>
        <time>2016-8-7T10:48:42.000Z</time>
      </trkpt>
      <trkpt lat="50.20358" lon="4.37149">
        <ele>263.5</ele>
        <time>2016-8-7T10:48:42.000Z</time>
      </trkpt>
      <trkpt lat="50.20358" lon="4.37149">
        <ele>263.5</ele>
        <time>2016-8-7T10:48:42.000Z</time>
      </trkpt>
      <trkpt lat="50.20355" lon="4.37152">
        <ele>263.5</ele>
        <time>2016-8-7T10:48:42.000Z</time>
      </trkpt>
      <trkpt lat="50.20355" lon="4.37152">
        <ele>263.5</ele>
        <time>2016-8-7T10:48:42.000Z</time>
      </trkpt>
      <trkpt lat="50.20355" lon="4.37155">
        <ele>263</ele>
        <time>2016-8-7T10:48:42.000Z</time>
      </trkpt>
      <trkpt lat="50.20355" lon="4.37155">
        <ele>263</ele>
        <time>2016-8-7T10:48:42.000Z</time>
      </trkpt>
      <trkpt lat="50.20353" lon="4.37161">
        <ele>263.5</ele>
        <time>2016-8-7T10:48:42.000Z</time>
      </trkpt>
      <trkpt lat="50.20353" lon="4.37161">
        <ele>263.5</ele>
        <time>2016-8-7T10:48:42.000Z</time>
      </trkpt>
      <trkpt lat="50.20353" lon="4.37163">
        <ele>262.5</ele>
        <time>2016-8-7T10:48:42.000Z</time>
      </trkpt>
      <trkpt lat="50.20353" lon="4.37163">
        <ele>262.5</ele>
        <time>2016-8-7T10:48:42.000Z</time>
      </trkpt>
      <trkpt lat="50.20352" lon="4.37165">
        <ele>262.5</ele>
        <time>2016-8-7T10:50:11.000Z</time>
      </trkpt>
      <trkpt lat="50.20352" lon="4.37165">
        <ele>262.5</ele>
        <time>2016-8-7T10:50:11.000Z</time>
      </trkpt>
      <trkpt lat="50.20351" lon="4.37168">
        <ele>262.5</ele>
        <time>2016-8-7T10:50:11.000Z</time>
      </trkpt>
      <trkpt lat="50.20351" lon="4.37168">
        <ele>262.5</ele>
        <time>2016-8-7T10:50:11.000Z</time>
      </trkpt>
      <trkpt lat="50.20351" lon="4.3717">
        <ele>262.5</ele>
        <time>2016-8-7T10:50:11.000Z</time>
      </trkpt>
      <trkpt lat="50.20351" lon="4.3717">
        <ele>262.5</ele>
        <time>2016-8-7T10:50:11.000Z</time>
      </trkpt>
      <trkpt lat="50.2035" lon="4.37172">
        <ele>262.5</ele>
        <time>2016-8-7T10:50:11.000Z</time>
      </trkpt>
      <trkpt lat="50.2035" lon="4.37172">
        <ele>262.5</ele>
        <time>2016-8-7T10:50:11.000Z</time>
      </trkpt>
      <trkpt lat="50.20348" lon="4.37197">
        <ele>263</ele>
        <time>2016-8-7T10:50:11.000Z</time>
      </trkpt>
      <trkpt lat="50.20348" lon="4.37197">
        <ele>263</ele>
        <time>2016-8-7T10:50:11.000Z</time>
      </trkpt>
      <trkpt lat="50.20349" lon="4.37201">
        <ele>263</ele>
        <time>2016-8-7T10:50:11.000Z</time>
      </trkpt>
      <trkpt lat="50.20349" lon="4.37201">
        <ele>263</ele>
        <time>2016-8-7T10:50:11.000Z</time>
      </trkpt>
      <trkpt lat="50.20349" lon="4.37204">
        <ele>262.5</ele>
        <time>2016-8-7T10:50:11.000Z</time>
      </trkpt>
      <trkpt lat="50.20349" lon="4.37204">
        <ele>262.5</ele>
        <time>2016-8-7T10:50:11.000Z</time>
      </trkpt>
      <trkpt lat="50.20349" lon="4.37214">
        <ele>263</ele>
        <time>2016-8-7T10:50:11.000Z</time>
      </trkpt>
      <trkpt lat="50.20349" lon="4.37214">
        <ele>263</ele>
        <time>2016-8-7T10:50:11.000Z</time>
      </trkpt>
      <trkpt lat="50.20349" lon="4.37218">
        <ele>263</ele>
        <time>2016-8-7T10:50:11.000Z</time>
      </trkpt>
      <trkpt lat="50.20349" lon="4.37218">
        <ele>263</ele>
        <time>2016-8-7T10:50:11.000Z</time>
      </trkpt>
      <trkpt lat="50.20349" lon="4.37222">
        <ele>263</ele>
        <time>2016-8-7T10:50:11.000Z</time>
      </trkpt>
      <trkpt lat="50.20349" lon="4.37222">
        <ele>263</ele>
        <time>2016-8-7T10:50:11.000Z</time>
      </trkpt>
      <trkpt lat="50.20349" lon="4.37224">
        <ele>263</ele>
        <time>2016-8-7T10:50:11.000Z</time>
      </trkpt>
      <trkpt lat="50.20349" lon="4.37224">
        <ele>263</ele>
        <time>2016-8-7T10:50:11.000Z</time>
      </trkpt>
      <trkpt lat="50.20349" lon="4.37227">
        <ele>263</ele>
        <time>2016-8-7T10:50:11.000Z</time>
      </trkpt>
      <trkpt lat="50.20349" lon="4.37227">
        <ele>263</ele>
        <time>2016-8-7T10:50:11.000Z</time>
      </trkpt>
      <trkpt lat="50.20349" lon="4.3723">
        <ele>263</ele>
        <time>2016-8-7T10:50:11.000Z</time>
      </trkpt>
      <trkpt lat="50.20349" lon="4.3723">
        <ele>263</ele>
        <time>2016-8-7T10:50:11.000Z</time>
      </trkpt>
      <trkpt lat="50.20348" lon="4.37232">
        <ele>263</ele>
        <time>2016-8-7T10:50:11.000Z</time>
      </trkpt>
      <trkpt lat="50.20348" lon="4.37232">
        <ele>263</ele>
        <time>2016-8-7T10:50:11.000Z</time>
      </trkpt>
      <trkpt lat="50.20348" lon="4.37235">
        <ele>263</ele>
        <time>2016-8-7T10:50:11.000Z</time>
      </trkpt>
      <trkpt lat="50.20348" lon="4.37235">
        <ele>263</ele>
        <time>2016-8-7T10:50:11.000Z</time>
      </trkpt>
      <trkpt lat="50.20347" lon="4.37237">
        <ele>263</ele>
        <time>2016-8-7T10:50:11.000Z</time>
      </trkpt>
      <trkpt lat="50.20347" lon="4.37237">
        <ele>263</ele>
        <time>2016-8-7T10:50:11.000Z</time>
      </trkpt>
      <trkpt lat="50.20346" lon="4.3724">
        <ele>262.5</ele>
        <time>2016-8-7T10:50:11.000Z</time>
      </trkpt>
      <trkpt lat="50.20346" lon="4.3724">
        <ele>262.5</ele>
        <time>2016-8-7T10:50:11.000Z</time>
      </trkpt>
      <trkpt lat="50.20346" lon="4.37244">
        <ele>262.5</ele>
        <time>2016-8-7T10:50:11.000Z</time>
      </trkpt>
      <trkpt lat="50.20346" lon="4.37244">
        <ele>262.5</ele>
        <time>2016-8-7T10:50:11.000Z</time>
      </trkpt>
      <trkpt lat="50.20346" lon="4.37246">
        <ele>262.5</ele>
        <time>2016-8-7T10:50:11.000Z</time>
      </trkpt>
      <trkpt lat="50.20346" lon="4.37246">
        <ele>262.5</ele>
        <time>2016-8-7T10:50:11.000Z</time>
      </trkpt>
      <trkpt lat="50.20346" lon="4.37248">
        <ele>262.5</ele>
        <time>2016-8-7T10:50:11.000Z</time>
      </trkpt>
      <trkpt lat="50.20346" lon="4.37248">
        <ele>262.5</ele>
        <time>2016-8-7T10:50:11.000Z</time>
      </trkpt>
      <trkpt lat="50.20345" lon="4.37251">
        <ele>262.5</ele>
        <time>2016-8-7T10:50:11.000Z</time>
      </trkpt>
      <trkpt lat="50.20345" lon="4.37251">
        <ele>262.5</ele>
        <time>2016-8-7T10:50:11.000Z</time>
      </trkpt>
      <trkpt lat="50.20344" lon="4.37255">
        <ele>262.5</ele>
        <time>2016-8-7T10:50:11.000Z</time>
      </trkpt>
      <trkpt lat="50.20344" lon="4.37255">
        <ele>262.5</ele>
        <time>2016-8-7T10:50:11.000Z</time>
      </trkpt>
      <trkpt lat="50.20344" lon="4.37258">
        <ele>262.5</ele>
        <time>2016-8-7T10:50:11.000Z</time>
      </trkpt>
      <trkpt lat="50.20344" lon="4.37258">
        <ele>262.5</ele>
        <time>2016-8-7T10:50:11.000Z</time>
      </trkpt>
      <trkpt lat="50.20343" lon="4.37261">
        <ele>262</ele>
        <time>2016-8-7T10:50:11.000Z</time>
      </trkpt>
      <trkpt lat="50.20343" lon="4.37261">
        <ele>262</ele>
        <time>2016-8-7T10:50:11.000Z</time>
      </trkpt>
      <trkpt lat="50.20343" lon="4.37263">
        <ele>262</ele>
        <time>2016-8-7T10:50:11.000Z</time>
      </trkpt>
      <trkpt lat="50.20343" lon="4.37263">
        <ele>262</ele>
        <time>2016-8-7T10:50:11.000Z</time>
      </trkpt>
      <trkpt lat="50.20343" lon="4.37266">
        <ele>262</ele>
        <time>2016-8-7T10:50:11.000Z</time>
      </trkpt>
      <trkpt lat="50.20343" lon="4.37266">
        <ele>262</ele>
        <time>2016-8-7T10:50:11.000Z</time>
      </trkpt>
      <trkpt lat="50.20343" lon="4.37269">
        <ele>262</ele>
        <time>2016-8-7T10:50:11.000Z</time>
      </trkpt>
      <trkpt lat="50.20343" lon="4.37269">
        <ele>262</ele>
        <time>2016-8-7T10:50:11.000Z</time>
      </trkpt>
      <trkpt lat="50.20342" lon="4.37271">
        <ele>262</ele>
        <time>2016-8-7T10:50:11.000Z</time>
      </trkpt>
      <trkpt lat="50.20342" lon="4.37271">
        <ele>262</ele>
        <time>2016-8-7T10:50:11.000Z</time>
      </trkpt>
      <trkpt lat="50.20342" lon="4.37274">
        <ele>261.5</ele>
        <time>2016-8-7T10:50:11.000Z</time>
      </trkpt>
      <trkpt lat="50.20342" lon="4.37274">
        <ele>261.5</ele>
        <time>2016-8-7T10:50:11.000Z</time>
      </trkpt>
      <trkpt lat="50.20342" lon="4.37276">
        <ele>261.5</ele>
        <time>2016-8-7T10:50:11.000Z</time>
      </trkpt>
      <trkpt lat="50.20342" lon="4.37276">
        <ele>261.5</ele>
        <time>2016-8-7T10:50:11.000Z</time>
      </trkpt>
      <trkpt lat="50.20341" lon="4.37279">
        <ele>261.5</ele>
        <time>2016-8-7T10:50:11.000Z</time>
      </trkpt>
      <trkpt lat="50.20341" lon="4.37279">
        <ele>261.5</ele>
        <time>2016-8-7T10:50:11.000Z</time>
      </trkpt>
      <trkpt lat="50.2034" lon="4.37283">
        <ele>261.5</ele>
        <time>2016-8-7T10:50:11.000Z</time>
      </trkpt>
      <trkpt lat="50.2034" lon="4.37283">
        <ele>261.5</ele>
        <time>2016-8-7T10:50:11.000Z</time>
      </trkpt>
      <trkpt lat="50.2034" lon="4.37287">
        <ele>261.5</ele>
        <time>2016-8-7T10:50:11.000Z</time>
      </trkpt>
      <trkpt lat="50.2034" lon="4.37287">
        <ele>261.5</ele>
        <time>2016-8-7T10:50:11.000Z</time>
      </trkpt>
      <trkpt lat="50.20339" lon="4.3729">
        <ele>261.5</ele>
        <time>2016-8-7T10:50:11.000Z</time>
      </trkpt>
      <trkpt lat="50.20339" lon="4.3729">
        <ele>261.5</ele>
        <time>2016-8-7T10:50:11.000Z</time>
      </trkpt>
      <trkpt lat="50.20339" lon="4.37293">
        <ele>261.5</ele>
        <time>2016-8-7T10:50:11.000Z</time>
      </trkpt>
      <trkpt lat="50.20339" lon="4.37293">
        <ele>261.5</ele>
        <time>2016-8-7T10:50:11.000Z</time>
      </trkpt>
      <trkpt lat="50.20339" lon="4.37296">
        <ele>261.5</ele>
        <time>2016-8-7T10:50:11.000Z</time>
      </trkpt>
      <trkpt lat="50.20339" lon="4.37296">
        <ele>261.5</ele>
        <time>2016-8-7T10:50:11.000Z</time>
      </trkpt>
      <trkpt lat="50.20339" lon="4.37299">
        <ele>261.5</ele>
        <time>2016-8-7T10:50:11.000Z</time>
      </trkpt>
      <trkpt lat="50.20339" lon="4.37299">
        <ele>261.5</ele>
        <time>2016-8-7T10:50:11.000Z</time>
      </trkpt>
      <trkpt lat="50.20339" lon="4.37301">
        <ele>261.5</ele>
        <time>2016-8-7T10:50:11.000Z</time>
      </trkpt>
      <trkpt lat="50.20339" lon="4.37301">
        <ele>261.5</ele>
        <time>2016-8-7T10:50:11.000Z</time>
      </trkpt>
      <trkpt lat="50.20339" lon="4.37303">
        <ele>261.5</ele>
        <time>2016-8-7T10:50:11.000Z</time>
      </trkpt>
      <trkpt lat="50.20339" lon="4.37303">
        <ele>261.5</ele>
        <time>2016-8-7T10:50:11.000Z</time>
      </trkpt>
      <trkpt lat="50.20338" lon="4.37306">
        <ele>261.5</ele>
        <time>2016-8-7T10:50:11.000Z</time>
      </trkpt>
      <trkpt lat="50.20338" lon="4.37306">
        <ele>261.5</ele>
        <time>2016-8-7T10:50:11.000Z</time>
      </trkpt>
      <trkpt lat="50.20338" lon="4.37309">
        <ele>261.5</ele>
        <time>2016-8-7T10:50:11.000Z</time>
      </trkpt>
      <trkpt lat="50.20338" lon="4.37309">
        <ele>261.5</ele>
        <time>2016-8-7T10:50:11.000Z</time>
      </trkpt>
      <trkpt lat="50.20338" lon="4.37312">
        <ele>261.5</ele>
        <time>2016-8-7T10:50:11.000Z</time>
      </trkpt>
      <trkpt lat="50.20338" lon="4.37312">
        <ele>261.5</ele>
        <time>2016-8-7T10:50:11.000Z</time>
      </trkpt>
      <trkpt lat="50.20338" lon="4.37314">
        <ele>261.5</ele>
        <time>2016-8-7T10:50:11.000Z</time>
      </trkpt>
      <trkpt lat="50.20338" lon="4.37314">
        <ele>261.5</ele>
        <time>2016-8-7T10:50:11.000Z</time>
      </trkpt>
      <trkpt lat="50.20336" lon="4.37328">
        <ele>261.5</ele>
        <time>2016-8-7T10:50:11.000Z</time>
      </trkpt>
      <trkpt lat="50.20336" lon="4.37328">
        <ele>261.5</ele>
        <time>2016-8-7T10:50:11.000Z</time>
      </trkpt>
      <trkpt lat="50.20336" lon="4.3733">
        <ele>261.5</ele>
        <time>2016-8-7T10:50:11.000Z</time>
      </trkpt>
      <trkpt lat="50.20336" lon="4.3733">
        <ele>261.5</ele>
        <time>2016-8-7T10:50:11.000Z</time>
      </trkpt>
      <trkpt lat="50.20335" lon="4.37334">
        <ele>261.5</ele>
        <time>2016-8-7T10:50:11.000Z</time>
      </trkpt>
      <trkpt lat="50.20335" lon="4.37334">
        <ele>261.5</ele>
        <time>2016-8-7T10:50:11.000Z</time>
      </trkpt>
      <trkpt lat="50.20335" lon="4.37336">
        <ele>261.5</ele>
        <time>2016-8-7T10:50:11.000Z</time>
      </trkpt>
      <trkpt lat="50.20335" lon="4.37336">
        <ele>261.5</ele>
        <time>2016-8-7T10:50:11.000Z</time>
      </trkpt>
      <trkpt lat="50.20334" lon="4.3734">
        <ele>261</ele>
        <time>2016-8-7T10:50:11.000Z</time>
      </trkpt>
      <trkpt lat="50.20334" lon="4.3734">
        <ele>261</ele>
        <time>2016-8-7T10:50:11.000Z</time>
      </trkpt>
      <trkpt lat="50.20334" lon="4.37342">
        <ele>261</ele>
        <time>2016-8-7T10:50:11.000Z</time>
      </trkpt>
      <trkpt lat="50.20334" lon="4.37342">
        <ele>261</ele>
        <time>2016-8-7T10:50:11.000Z</time>
      </trkpt>
      <trkpt lat="50.20334" lon="4.37346">
        <ele>261.5</ele>
        <time>2016-8-7T10:50:11.000Z</time>
      </trkpt>
      <trkpt lat="50.20334" lon="4.37346">
        <ele>261.5</ele>
        <time>2016-8-7T10:50:11.000Z</time>
      </trkpt>
      <trkpt lat="50.20334" lon="4.37349">
        <ele>261.5</ele>
        <time>2016-8-7T10:50:11.000Z</time>
      </trkpt>
      <trkpt lat="50.20334" lon="4.37349">
        <ele>261.5</ele>
        <time>2016-8-7T10:51:50.000Z</time>
      </trkpt>
      <trkpt lat="50.20334" lon="4.37351">
        <ele>261</ele>
        <time>2016-8-7T10:51:50.000Z</time>
      </trkpt>
      <trkpt lat="50.20334" lon="4.37351">
        <ele>261</ele>
        <time>2016-8-7T10:51:50.000Z</time>
      </trkpt>
      <trkpt lat="50.20334" lon="4.37353">
        <ele>261</ele>
        <time>2016-8-7T10:51:50.000Z</time>
      </trkpt>
      <trkpt lat="50.20334" lon="4.37353">
        <ele>261</ele>
        <time>2016-8-7T10:51:50.000Z</time>
      </trkpt>
      <trkpt lat="50.20334" lon="4.37356">
        <ele>261</ele>
        <time>2016-8-7T10:51:50.000Z</time>
      </trkpt>
      <trkpt lat="50.20334" lon="4.37356">
        <ele>261</ele>
        <time>2016-8-7T10:51:50.000Z</time>
      </trkpt>
      <trkpt lat="50.20334" lon="4.37358">
        <ele>261.5</ele>
        <time>2016-8-7T10:51:50.000Z</time>
      </trkpt>
      <trkpt lat="50.20334" lon="4.37358">
        <ele>261.5</ele>
        <time>2016-8-7T10:51:50.000Z</time>
      </trkpt>
      <trkpt lat="50.20334" lon="4.37361">
        <ele>261.5</ele>
        <time>2016-8-7T10:51:50.000Z</time>
      </trkpt>
      <trkpt lat="50.20334" lon="4.37361">
        <ele>261.5</ele>
        <time>2016-8-7T10:51:50.000Z</time>
      </trkpt>
      <trkpt lat="50.20333" lon="4.37365">
        <ele>261.5</ele>
        <time>2016-8-7T10:51:50.000Z</time>
      </trkpt>
      <trkpt lat="50.20333" lon="4.37365">
        <ele>261.5</ele>
        <time>2016-8-7T10:51:50.000Z</time>
      </trkpt>
      <trkpt lat="50.20333" lon="4.37368">
        <ele>261</ele>
        <time>2016-8-7T10:51:50.000Z</time>
      </trkpt>
      <trkpt lat="50.20333" lon="4.37368">
        <ele>261</ele>
        <time>2016-8-7T10:51:50.000Z</time>
      </trkpt>
      <trkpt lat="50.20333" lon="4.3737">
        <ele>261</ele>
        <time>2016-8-7T10:51:50.000Z</time>
      </trkpt>
      <trkpt lat="50.20333" lon="4.3737">
        <ele>261</ele>
        <time>2016-8-7T10:51:50.000Z</time>
      </trkpt>
      <trkpt lat="50.20333" lon="4.37372">
        <ele>261</ele>
        <time>2016-8-7T10:51:50.000Z</time>
      </trkpt>
      <trkpt lat="50.20333" lon="4.37372">
        <ele>261</ele>
        <time>2016-8-7T10:51:50.000Z</time>
      </trkpt>
      <trkpt lat="50.20332" lon="4.37374">
        <ele>261</ele>
        <time>2016-8-7T10:51:50.000Z</time>
      </trkpt>
      <trkpt lat="50.20332" lon="4.37374">
        <ele>261</ele>
        <time>2016-8-7T10:51:50.000Z</time>
      </trkpt>
      <trkpt lat="50.20332" lon="4.37378">
        <ele>261</ele>
        <time>2016-8-7T10:51:50.000Z</time>
      </trkpt>
      <trkpt lat="50.20332" lon="4.37378">
        <ele>261</ele>
        <time>2016-8-7T10:51:50.000Z</time>
      </trkpt>
      <trkpt lat="50.20331" lon="4.37381">
        <ele>261</ele>
        <time>2016-8-7T10:51:50.000Z</time>
      </trkpt>
      <trkpt lat="50.20331" lon="4.37381">
        <ele>261</ele>
        <time>2016-8-7T10:51:50.000Z</time>
      </trkpt>
      <trkpt lat="50.20331" lon="4.37383">
        <ele>261</ele>
        <time>2016-8-7T10:51:50.000Z</time>
      </trkpt>
      <trkpt lat="50.20331" lon="4.37383">
        <ele>261</ele>
        <time>2016-8-7T10:51:50.000Z</time>
      </trkpt>
      <trkpt lat="50.20328" lon="4.37407">
        <ele>261</ele>
        <time>2016-8-7T10:51:50.000Z</time>
      </trkpt>
      <trkpt lat="50.20328" lon="4.37407">
        <ele>261</ele>
        <time>2016-8-7T10:51:50.000Z</time>
      </trkpt>
      <trkpt lat="50.20326" lon="4.37418">
        <ele>261</ele>
        <time>2016-8-7T10:51:50.000Z</time>
      </trkpt>
      <trkpt lat="50.20326" lon="4.37418">
        <ele>261</ele>
        <time>2016-8-7T10:51:50.000Z</time>
      </trkpt>
      <trkpt lat="50.20325" lon="4.3742">
        <ele>261</ele>
        <time>2016-8-7T10:51:50.000Z</time>
      </trkpt>
      <trkpt lat="50.20325" lon="4.3742">
        <ele>261</ele>
        <time>2016-8-7T10:51:50.000Z</time>
      </trkpt>
      <trkpt lat="50.20325" lon="4.37425">
        <ele>261</ele>
        <time>2016-8-7T10:51:50.000Z</time>
      </trkpt>
      <trkpt lat="50.20325" lon="4.37425">
        <ele>261</ele>
        <time>2016-8-7T10:51:50.000Z</time>
      </trkpt>
      <trkpt lat="50.20324" lon="4.37427">
        <ele>261</ele>
        <time>2016-8-7T10:51:50.000Z</time>
      </trkpt>
      <trkpt lat="50.20324" lon="4.37427">
        <ele>261</ele>
        <time>2016-8-7T10:51:50.000Z</time>
      </trkpt>
      <trkpt lat="50.20323" lon="4.37432">
        <ele>261</ele>
        <time>2016-8-7T10:51:50.000Z</time>
      </trkpt>
      <trkpt lat="50.20323" lon="4.37432">
        <ele>261</ele>
        <time>2016-8-7T10:51:50.000Z</time>
      </trkpt>
      <trkpt lat="50.2032" lon="4.37465">
        <ele>260</ele>
        <time>2016-8-7T10:51:50.000Z</time>
      </trkpt>
      <trkpt lat="50.2032" lon="4.37465">
        <ele>260</ele>
        <time>2016-8-7T10:51:50.000Z</time>
      </trkpt>
      <trkpt lat="50.2032" lon="4.37467">
        <ele>260</ele>
        <time>2016-8-7T10:51:50.000Z</time>
      </trkpt>
      <trkpt lat="50.2032" lon="4.37467">
        <ele>260</ele>
        <time>2016-8-7T10:51:50.000Z</time>
      </trkpt>
      <trkpt lat="50.20319" lon="4.3747">
        <ele>260</ele>
        <time>2016-8-7T10:51:50.000Z</time>
      </trkpt>
      <trkpt lat="50.20319" lon="4.3747">
        <ele>260</ele>
        <time>2016-8-7T10:51:50.000Z</time>
      </trkpt>
      <trkpt lat="50.20318" lon="4.37474">
        <ele>260</ele>
        <time>2016-8-7T10:51:50.000Z</time>
      </trkpt>
      <trkpt lat="50.20318" lon="4.37474">
        <ele>260</ele>
        <time>2016-8-7T10:51:50.000Z</time>
      </trkpt>
      <trkpt lat="50.20318" lon="4.37478">
        <ele>260</ele>
        <time>2016-8-7T10:51:50.000Z</time>
      </trkpt>
      <trkpt lat="50.20318" lon="4.37478">
        <ele>260</ele>
        <time>2016-8-7T10:51:50.000Z</time>
      </trkpt>
      <trkpt lat="50.20317" lon="4.37482">
        <ele>259.5</ele>
        <time>2016-8-7T10:51:50.000Z</time>
      </trkpt>
      <trkpt lat="50.20317" lon="4.37482">
        <ele>259.5</ele>
        <time>2016-8-7T10:51:50.000Z</time>
      </trkpt>
      <trkpt lat="50.20316" lon="4.37485">
        <ele>259.5</ele>
        <time>2016-8-7T10:51:50.000Z</time>
      </trkpt>
      <trkpt lat="50.20316" lon="4.37485">
        <ele>259.5</ele>
        <time>2016-8-7T10:51:50.000Z</time>
      </trkpt>
      <trkpt lat="50.20316" lon="4.37488">
        <ele>259.5</ele>
        <time>2016-8-7T10:51:50.000Z</time>
      </trkpt>
      <trkpt lat="50.20316" lon="4.37488">
        <ele>259.5</ele>
        <time>2016-8-7T10:51:50.000Z</time>
      </trkpt>
      <trkpt lat="50.20315" lon="4.3749">
        <ele>259.5</ele>
        <time>2016-8-7T10:51:50.000Z</time>
      </trkpt>
      <trkpt lat="50.20315" lon="4.3749">
        <ele>259.5</ele>
        <time>2016-8-7T10:51:50.000Z</time>
      </trkpt>
      <trkpt lat="50.20314" lon="4.37494">
        <ele>259.5</ele>
        <time>2016-8-7T10:51:50.000Z</time>
      </trkpt>
      <trkpt lat="50.20314" lon="4.37494">
        <ele>259.5</ele>
        <time>2016-8-7T10:51:50.000Z</time>
      </trkpt>
      <trkpt lat="50.20313" lon="4.37497">
        <ele>259</ele>
        <time>2016-8-7T10:51:50.000Z</time>
      </trkpt>
      <trkpt lat="50.20313" lon="4.37497">
        <ele>259</ele>
        <time>2016-8-7T10:51:50.000Z</time>
      </trkpt>
      <trkpt lat="50.20312" lon="4.375">
        <ele>259</ele>
        <time>2016-8-7T10:51:50.000Z</time>
      </trkpt>
      <trkpt lat="50.20312" lon="4.375">
        <ele>259</ele>
        <time>2016-8-7T10:51:50.000Z</time>
      </trkpt>
      <trkpt lat="50.20312" lon="4.37502">
        <ele>259</ele>
        <time>2016-8-7T10:51:50.000Z</time>
      </trkpt>
      <trkpt lat="50.20312" lon="4.37502">
        <ele>259</ele>
        <time>2016-8-7T10:51:50.000Z</time>
      </trkpt>
      <trkpt lat="50.20311" lon="4.37505">
        <ele>259</ele>
        <time>2016-8-7T10:51:50.000Z</time>
      </trkpt>
      <trkpt lat="50.20311" lon="4.37505">
        <ele>259</ele>
        <time>2016-8-7T10:51:50.000Z</time>
      </trkpt>
      <trkpt lat="50.2031" lon="4.37508">
        <ele>258.5</ele>
        <time>2016-8-7T10:51:50.000Z</time>
      </trkpt>
      <trkpt lat="50.2031" lon="4.37508">
        <ele>258.5</ele>
        <time>2016-8-7T10:51:50.000Z</time>
      </trkpt>
      <trkpt lat="50.20309" lon="4.37511">
        <ele>258.5</ele>
        <time>2016-8-7T10:51:50.000Z</time>
      </trkpt>
      <trkpt lat="50.20309" lon="4.37511">
        <ele>258.5</ele>
        <time>2016-8-7T10:51:50.000Z</time>
      </trkpt>
      <trkpt lat="50.20308" lon="4.37512">
        <ele>258</ele>
        <time>2016-8-7T10:51:50.000Z</time>
      </trkpt>
      <trkpt lat="50.20308" lon="4.37512">
        <ele>258</ele>
        <time>2016-8-7T10:51:50.000Z</time>
      </trkpt>
      <trkpt lat="50.20308" lon="4.37513">
        <ele>258</ele>
        <time>2016-8-7T10:51:50.000Z</time>
      </trkpt>
      <trkpt lat="50.20308" lon="4.37513">
        <ele>258</ele>
        <time>2016-8-7T10:51:50.000Z</time>
      </trkpt>
      <trkpt lat="50.20308" lon="4.37515">
        <ele>257.5</ele>
        <time>2016-8-7T10:51:50.000Z</time>
      </trkpt>
      <trkpt lat="50.20308" lon="4.37515">
        <ele>257.5</ele>
        <time>2016-8-7T10:51:50.000Z</time>
      </trkpt>
      <trkpt lat="50.20308" lon="4.37516">
        <ele>257.5</ele>
        <time>2016-8-7T10:51:50.000Z</time>
      </trkpt>
      <trkpt lat="50.20308" lon="4.37516">
        <ele>257.5</ele>
        <time>2016-8-7T10:51:50.000Z</time>
      </trkpt>
      <trkpt lat="50.20308" lon="4.37517">
        <ele>257.5</ele>
        <time>2016-8-7T10:51:50.000Z</time>
      </trkpt>
      <trkpt lat="50.20308" lon="4.37517">
        <ele>257.5</ele>
        <time>2016-8-7T10:51:50.000Z</time>
      </trkpt>
      <trkpt lat="50.20308" lon="4.3752">
        <ele>257</ele>
        <time>2016-8-7T10:51:50.000Z</time>
      </trkpt>
      <trkpt lat="50.20308" lon="4.3752">
        <ele>257</ele>
        <time>2016-8-7T10:51:50.000Z</time>
      </trkpt>
      <trkpt lat="50.20307" lon="4.37524">
        <ele>257</ele>
        <time>2016-8-7T10:51:51.000Z</time>
      </trkpt>
      <trkpt lat="50.20307" lon="4.37524">
        <ele>257</ele>
        <time>2016-8-7T10:51:51.000Z</time>
      </trkpt>
      <trkpt lat="50.20306" lon="4.37527">
        <ele>257</ele>
        <time>2016-8-7T10:51:51.000Z</time>
      </trkpt>
      <trkpt lat="50.20306" lon="4.37527">
        <ele>257</ele>
        <time>2016-8-7T10:51:51.000Z</time>
      </trkpt>
      <trkpt lat="50.20306" lon="4.37529">
        <ele>256.5</ele>
        <time>2016-8-7T10:51:51.000Z</time>
      </trkpt>
      <trkpt lat="50.20306" lon="4.37529">
        <ele>256.5</ele>
        <time>2016-8-7T10:51:51.000Z</time>
      </trkpt>
      <trkpt lat="50.20305" lon="4.37534">
        <ele>256.5</ele>
        <time>2016-8-7T10:51:51.000Z</time>
      </trkpt>
      <trkpt lat="50.20305" lon="4.37534">
        <ele>256.5</ele>
        <time>2016-8-7T10:51:51.000Z</time>
      </trkpt>
      <trkpt lat="50.20305" lon="4.37536">
        <ele>256.5</ele>
        <time>2016-8-7T10:51:51.000Z</time>
      </trkpt>
      <trkpt lat="50.20305" lon="4.37536">
        <ele>256.5</ele>
        <time>2016-8-7T10:51:51.000Z</time>
      </trkpt>
      <trkpt lat="50.20304" lon="4.3754">
        <ele>256.5</ele>
        <time>2016-8-7T10:51:51.000Z</time>
      </trkpt>
      <trkpt lat="50.20304" lon="4.3754">
        <ele>256.5</ele>
        <time>2016-8-7T10:51:51.000Z</time>
      </trkpt>
      <trkpt lat="50.20305" lon="4.37547">
        <ele>256.5</ele>
        <time>2016-8-7T10:51:51.000Z</time>
      </trkpt>
      <trkpt lat="50.20305" lon="4.37547">
        <ele>256.5</ele>
        <time>2016-8-7T10:51:51.000Z</time>
      </trkpt>
      <trkpt lat="50.20303" lon="4.37551">
        <ele>256.5</ele>
        <time>2016-8-7T10:51:51.000Z</time>
      </trkpt>
      <trkpt lat="50.20303" lon="4.37551">
        <ele>256.5</ele>
        <time>2016-8-7T10:51:51.000Z</time>
      </trkpt>
      <trkpt lat="50.20303" lon="4.37553">
        <ele>256.5</ele>
        <time>2016-8-7T10:51:51.000Z</time>
      </trkpt>
      <trkpt lat="50.20303" lon="4.37553">
        <ele>256.5</ele>
        <time>2016-8-7T10:51:51.000Z</time>
      </trkpt>
      <trkpt lat="50.20302" lon="4.37561">
        <ele>256.5</ele>
        <time>2016-8-7T10:53:15.000Z</time>
      </trkpt>
      <trkpt lat="50.20302" lon="4.37561">
        <ele>256.5</ele>
        <time>2016-8-7T10:53:15.000Z</time>
      </trkpt>
      <trkpt lat="50.20301" lon="4.37563">
        <ele>256</ele>
        <time>2016-8-7T10:53:15.000Z</time>
      </trkpt>
      <trkpt lat="50.20301" lon="4.37563">
        <ele>256</ele>
        <time>2016-8-7T10:53:15.000Z</time>
      </trkpt>
      <trkpt lat="50.20301" lon="4.37567">
        <ele>256</ele>
        <time>2016-8-7T10:53:15.000Z</time>
      </trkpt>
      <trkpt lat="50.20301" lon="4.37567">
        <ele>256</ele>
        <time>2016-8-7T10:53:15.000Z</time>
      </trkpt>
      <trkpt lat="50.203" lon="4.37579">
        <ele>255.5</ele>
        <time>2016-8-7T10:53:15.000Z</time>
      </trkpt>
      <trkpt lat="50.203" lon="4.37579">
        <ele>255.5</ele>
        <time>2016-8-7T10:53:15.000Z</time>
      </trkpt>
      <trkpt lat="50.20299" lon="4.37586">
        <ele>255.5</ele>
        <time>2016-8-7T10:53:15.000Z</time>
      </trkpt>
      <trkpt lat="50.20299" lon="4.37586">
        <ele>255.5</ele>
        <time>2016-8-7T10:53:15.000Z</time>
      </trkpt>
      <trkpt lat="50.20299" lon="4.3759">
        <ele>255.5</ele>
        <time>2016-8-7T10:53:15.000Z</time>
      </trkpt>
      <trkpt lat="50.20299" lon="4.3759">
        <ele>255.5</ele>
        <time>2016-8-7T10:53:15.000Z</time>
      </trkpt>
      <trkpt lat="50.20298" lon="4.37598">
        <ele>255.5</ele>
        <time>2016-8-7T10:53:15.000Z</time>
      </trkpt>
      <trkpt lat="50.20298" lon="4.37598">
        <ele>255.5</ele>
        <time>2016-8-7T10:53:15.000Z</time>
      </trkpt>
      <trkpt lat="50.20298" lon="4.37602">
        <ele>255</ele>
        <time>2016-8-7T10:53:15.000Z</time>
      </trkpt>
      <trkpt lat="50.20298" lon="4.37602">
        <ele>255</ele>
        <time>2016-8-7T10:53:15.000Z</time>
      </trkpt>
      <trkpt lat="50.20297" lon="4.37605">
        <ele>255</ele>
        <time>2016-8-7T10:53:15.000Z</time>
      </trkpt>
      <trkpt lat="50.20297" lon="4.37605">
        <ele>255</ele>
        <time>2016-8-7T10:53:15.000Z</time>
      </trkpt>
      <trkpt lat="50.20297" lon="4.37608">
        <ele>255</ele>
        <time>2016-8-7T10:53:15.000Z</time>
      </trkpt>
      <trkpt lat="50.20297" lon="4.37608">
        <ele>255</ele>
        <time>2016-8-7T10:53:15.000Z</time>
      </trkpt>
      <trkpt lat="50.20296" lon="4.37612">
        <ele>255</ele>
        <time>2016-8-7T10:53:15.000Z</time>
      </trkpt>
      <trkpt lat="50.20296" lon="4.37612">
        <ele>255</ele>
        <time>2016-8-7T10:53:15.000Z</time>
      </trkpt>
      <trkpt lat="50.20296" lon="4.37614">
        <ele>255</ele>
        <time>2016-8-7T10:53:15.000Z</time>
      </trkpt>
      <trkpt lat="50.20296" lon="4.37614">
        <ele>255</ele>
        <time>2016-8-7T10:53:15.000Z</time>
      </trkpt>
      <trkpt lat="50.20296" lon="4.37617">
        <ele>255</ele>
        <time>2016-8-7T10:53:15.000Z</time>
      </trkpt>
      <trkpt lat="50.20296" lon="4.37617">
        <ele>255</ele>
        <time>2016-8-7T10:53:15.000Z</time>
      </trkpt>
      <trkpt lat="50.20296" lon="4.37619">
        <ele>255</ele>
        <time>2016-8-7T10:53:15.000Z</time>
      </trkpt>
      <trkpt lat="50.20296" lon="4.37619">
        <ele>255</ele>
        <time>2016-8-7T10:53:15.000Z</time>
      </trkpt>
      <trkpt lat="50.20297" lon="4.37623">
        <ele>255</ele>
        <time>2016-8-7T10:53:15.000Z</time>
      </trkpt>
      <trkpt lat="50.20297" lon="4.37623">
        <ele>255</ele>
        <time>2016-8-7T10:53:15.000Z</time>
      </trkpt>
      <trkpt lat="50.20297" lon="4.37627">
        <ele>254.5</ele>
        <time>2016-8-7T10:53:15.000Z</time>
      </trkpt>
      <trkpt lat="50.20297" lon="4.37627">
        <ele>254.5</ele>
        <time>2016-8-7T10:53:15.000Z</time>
      </trkpt>
      <trkpt lat="50.20297" lon="4.37629">
        <ele>254.5</ele>
        <time>2016-8-7T10:53:15.000Z</time>
      </trkpt>
      <trkpt lat="50.20297" lon="4.37629">
        <ele>254.5</ele>
        <time>2016-8-7T10:53:15.000Z</time>
      </trkpt>
      <trkpt lat="50.20297" lon="4.37631">
        <ele>254.5</ele>
        <time>2016-8-7T10:53:15.000Z</time>
      </trkpt>
      <trkpt lat="50.20297" lon="4.37631">
        <ele>254.5</ele>
        <time>2016-8-7T10:53:15.000Z</time>
      </trkpt>
      <trkpt lat="50.20297" lon="4.37633">
        <ele>254</ele>
        <time>2016-8-7T10:53:15.000Z</time>
      </trkpt>
      <trkpt lat="50.20297" lon="4.37633">
        <ele>254</ele>
        <time>2016-8-7T10:53:15.000Z</time>
      </trkpt>
      <trkpt lat="50.20299" lon="4.37639">
        <ele>254</ele>
        <time>2016-8-7T10:53:15.000Z</time>
      </trkpt>
      <trkpt lat="50.20299" lon="4.37639">
        <ele>254</ele>
        <time>2016-8-7T10:53:15.000Z</time>
      </trkpt>
      <trkpt lat="50.20298" lon="4.37643">
        <ele>253.5</ele>
        <time>2016-8-7T10:53:15.000Z</time>
      </trkpt>
      <trkpt lat="50.20298" lon="4.37643">
        <ele>253.5</ele>
        <time>2016-8-7T10:53:15.000Z</time>
      </trkpt>
      <trkpt lat="50.20298" lon="4.37649">
        <ele>253.5</ele>
        <time>2016-8-7T10:53:15.000Z</time>
      </trkpt>
      <trkpt lat="50.20298" lon="4.37649">
        <ele>253.5</ele>
        <time>2016-8-7T10:53:15.000Z</time>
      </trkpt>
      <trkpt lat="50.20298" lon="4.37651">
        <ele>253.5</ele>
        <time>2016-8-7T10:53:15.000Z</time>
      </trkpt>
      <trkpt lat="50.20298" lon="4.37651">
        <ele>253.5</ele>
        <time>2016-8-7T10:53:15.000Z</time>
      </trkpt>
      <trkpt lat="50.20298" lon="4.37653">
        <ele>253.5</ele>
        <time>2016-8-7T10:53:15.000Z</time>
      </trkpt>
      <trkpt lat="50.20298" lon="4.37653">
        <ele>253.5</ele>
        <time>2016-8-7T10:53:15.000Z</time>
      </trkpt>
      <trkpt lat="50.20298" lon="4.37656">
        <ele>253.5</ele>
        <time>2016-8-7T10:53:15.000Z</time>
      </trkpt>
      <trkpt lat="50.20298" lon="4.37656">
        <ele>253.5</ele>
        <time>2016-8-7T10:53:15.000Z</time>
      </trkpt>
      <trkpt lat="50.20296" lon="4.37655">
        <ele>253.5</ele>
        <time>2016-8-7T10:53:15.000Z</time>
      </trkpt>
      <trkpt lat="50.20296" lon="4.37655">
        <ele>253.5</ele>
        <time>2016-8-7T10:53:15.000Z</time>
      </trkpt>
      <trkpt lat="50.20296" lon="4.37657">
        <ele>253.5</ele>
        <time>2016-8-7T10:53:15.000Z</time>
      </trkpt>
      <trkpt lat="50.20296" lon="4.37657">
        <ele>253.5</ele>
        <time>2016-8-7T10:53:15.000Z</time>
      </trkpt>
      <trkpt lat="50.20295" lon="4.37661">
        <ele>253.5</ele>
        <time>2016-8-7T10:53:15.000Z</time>
      </trkpt>
      <trkpt lat="50.20295" lon="4.37661">
        <ele>253.5</ele>
        <time>2016-8-7T10:53:15.000Z</time>
      </trkpt>
      <trkpt lat="50.20293" lon="4.37663">
        <ele>253</ele>
        <time>2016-8-7T10:53:15.000Z</time>
      </trkpt>
      <trkpt lat="50.20293" lon="4.37663">
        <ele>253</ele>
        <time>2016-8-7T10:53:15.000Z</time>
      </trkpt>
      <trkpt lat="50.20293" lon="4.37667">
        <ele>250.5</ele>
        <time>2016-8-7T10:53:15.000Z</time>
      </trkpt>
      <trkpt lat="50.20293" lon="4.37667">
        <ele>250.5</ele>
        <time>2016-8-7T10:53:15.000Z</time>
      </trkpt>
      <trkpt lat="50.20292" lon="4.37668">
        <ele>250.5</ele>
        <time>2016-8-7T10:53:15.000Z</time>
      </trkpt>
      <trkpt lat="50.20292" lon="4.37668">
        <ele>250.5</ele>
        <time>2016-8-7T10:53:15.000Z</time>
      </trkpt>
      <trkpt lat="50.2029" lon="4.3767">
        <ele>250.5</ele>
        <time>2016-8-7T10:53:15.000Z</time>
      </trkpt>
      <trkpt lat="50.2029" lon="4.3767">
        <ele>250.5</ele>
        <time>2016-8-7T10:53:15.000Z</time>
      </trkpt>
      <trkpt lat="50.20289" lon="4.37674">
        <ele>251.5</ele>
        <time>2016-8-7T10:53:15.000Z</time>
      </trkpt>
      <trkpt lat="50.20289" lon="4.37674">
        <ele>251.5</ele>
        <time>2016-8-7T10:53:15.000Z</time>
      </trkpt>
      <trkpt lat="50.20289" lon="4.37676">
        <ele>251.5</ele>
        <time>2016-8-7T10:53:15.000Z</time>
      </trkpt>
      <trkpt lat="50.20289" lon="4.37676">
        <ele>251.5</ele>
        <time>2016-8-7T10:53:15.000Z</time>
      </trkpt>
      <trkpt lat="50.20287" lon="4.37678">
        <ele>251.5</ele>
        <time>2016-8-7T10:53:15.000Z</time>
      </trkpt>
      <trkpt lat="50.20287" lon="4.37678">
        <ele>251.5</ele>
        <time>2016-8-7T10:53:15.000Z</time>
      </trkpt>
      <trkpt lat="50.20283" lon="4.37679">
        <ele>249.5</ele>
        <time>2016-8-7T10:53:15.000Z</time>
      </trkpt>
      <trkpt lat="50.20283" lon="4.37679">
        <ele>249.5</ele>
        <time>2016-8-7T10:53:15.000Z</time>
      </trkpt>
      <trkpt lat="50.20282" lon="4.37681">
        <ele>249</ele>
        <time>2016-8-7T10:53:15.000Z</time>
      </trkpt>
      <trkpt lat="50.20282" lon="4.37681">
        <ele>249</ele>
        <time>2016-8-7T10:53:15.000Z</time>
      </trkpt>
      <trkpt lat="50.20281" lon="4.37685">
        <ele>249.5</ele>
        <time>2016-8-7T10:53:15.000Z</time>
      </trkpt>
      <trkpt lat="50.20281" lon="4.37685">
        <ele>249.5</ele>
        <time>2016-8-7T10:53:15.000Z</time>
      </trkpt>
      <trkpt lat="50.2028" lon="4.37687">
        <ele>249.5</ele>
        <time>2016-8-7T10:53:15.000Z</time>
      </trkpt>
      <trkpt lat="50.2028" lon="4.37687">
        <ele>249.5</ele>
        <time>2016-8-7T10:53:15.000Z</time>
      </trkpt>
      <trkpt lat="50.20279" lon="4.37691">
        <ele>250.5</ele>
        <time>2016-8-7T10:53:15.000Z</time>
      </trkpt>
      <trkpt lat="50.20279" lon="4.37691">
        <ele>250.5</ele>
        <time>2016-8-7T10:53:15.000Z</time>
      </trkpt>
      <trkpt lat="50.20281" lon="4.37691">
        <ele>249</ele>
        <time>2016-8-7T10:53:15.000Z</time>
      </trkpt>
      <trkpt lat="50.20281" lon="4.37691">
        <ele>249</ele>
        <time>2016-8-7T10:53:15.000Z</time>
      </trkpt>
      <trkpt lat="50.2028" lon="4.37693">
        <ele>249</ele>
        <time>2016-8-7T10:53:15.000Z</time>
      </trkpt>
      <trkpt lat="50.2028" lon="4.37693">
        <ele>249</ele>
        <time>2016-8-7T10:53:15.000Z</time>
      </trkpt>
      <trkpt lat="50.20279" lon="4.37695">
        <ele>249</ele>
        <time>2016-8-7T10:53:15.000Z</time>
      </trkpt>
      <trkpt lat="50.20279" lon="4.37695">
        <ele>249</ele>
        <time>2016-8-7T10:53:15.000Z</time>
      </trkpt>
      <trkpt lat="50.20277" lon="4.37698">
        <ele>249</ele>
        <time>2016-8-7T10:53:15.000Z</time>
      </trkpt>
      <trkpt lat="50.20277" lon="4.37698">
        <ele>249</ele>
        <time>2016-8-7T10:53:15.000Z</time>
      </trkpt>
      <trkpt lat="50.20276" lon="4.37701">
        <ele>249.5</ele>
        <time>2016-8-7T10:53:15.000Z</time>
      </trkpt>
      <trkpt lat="50.20276" lon="4.37701">
        <ele>249.5</ele>
        <time>2016-8-7T10:53:15.000Z</time>
      </trkpt>
      <trkpt lat="50.20274" lon="4.37704">
        <ele>250.5</ele>
        <time>2016-8-7T10:53:15.000Z</time>
      </trkpt>
      <trkpt lat="50.20274" lon="4.37704">
        <ele>250.5</ele>
        <time>2016-8-7T10:53:15.000Z</time>
      </trkpt>
      <trkpt lat="50.20273" lon="4.37706">
        <ele>250.5</ele>
        <time>2016-8-7T10:53:15.000Z</time>
      </trkpt>
      <trkpt lat="50.20273" lon="4.37706">
        <ele>250.5</ele>
        <time>2016-8-7T10:53:15.000Z</time>
      </trkpt>
      <trkpt lat="50.20272" lon="4.3771">
        <ele>250.5</ele>
        <time>2016-8-7T10:53:15.000Z</time>
      </trkpt>
      <trkpt lat="50.20272" lon="4.3771">
        <ele>250.5</ele>
        <time>2016-8-7T10:53:15.000Z</time>
      </trkpt>
      <trkpt lat="50.20271" lon="4.37713">
        <ele>251.5</ele>
        <time>2016-8-7T10:53:15.000Z</time>
      </trkpt>
      <trkpt lat="50.20271" lon="4.37713">
        <ele>251.5</ele>
        <time>2016-8-7T10:53:15.000Z</time>
      </trkpt>
      <trkpt lat="50.20271" lon="4.37716">
        <ele>250.5</ele>
        <time>2016-8-7T10:53:15.000Z</time>
      </trkpt>
      <trkpt lat="50.20271" lon="4.37716">
        <ele>250.5</ele>
        <time>2016-8-7T10:53:15.000Z</time>
      </trkpt>
      <trkpt lat="50.20271" lon="4.37717">
        <ele>250.5</ele>
        <time>2016-8-7T10:53:15.000Z</time>
      </trkpt>
      <trkpt lat="50.20271" lon="4.37717">
        <ele>250.5</ele>
        <time>2016-8-7T10:55:39.000Z</time>
      </trkpt>
      <trkpt lat="50.2027" lon="4.37719">
        <ele>250.5</ele>
        <time>2016-8-7T10:55:39.000Z</time>
      </trkpt>
      <trkpt lat="50.2027" lon="4.37719">
        <ele>250.5</ele>
        <time>2016-8-7T10:55:39.000Z</time>
      </trkpt>
      <trkpt lat="50.2027" lon="4.37721">
        <ele>250.5</ele>
        <time>2016-8-7T10:55:39.000Z</time>
      </trkpt>
      <trkpt lat="50.2027" lon="4.37721">
        <ele>250.5</ele>
        <time>2016-8-7T10:55:39.000Z</time>
      </trkpt>
      <trkpt lat="50.20269" lon="4.37724">
        <ele>250.5</ele>
        <time>2016-8-7T10:55:39.000Z</time>
      </trkpt>
      <trkpt lat="50.20269" lon="4.37724">
        <ele>250.5</ele>
        <time>2016-8-7T10:55:39.000Z</time>
      </trkpt>
      <trkpt lat="50.20268" lon="4.37726">
        <ele>250.5</ele>
        <time>2016-8-7T10:55:39.000Z</time>
      </trkpt>
      <trkpt lat="50.20268" lon="4.37726">
        <ele>250.5</ele>
        <time>2016-8-7T10:55:39.000Z</time>
      </trkpt>
      <trkpt lat="50.20267" lon="4.37728">
        <ele>250.5</ele>
        <time>2016-8-7T10:55:39.000Z</time>
      </trkpt>
      <trkpt lat="50.20267" lon="4.37728">
        <ele>250.5</ele>
        <time>2016-8-7T10:55:39.000Z</time>
      </trkpt>
      <trkpt lat="50.20266" lon="4.37729">
        <ele>250.5</ele>
        <time>2016-8-7T10:55:39.000Z</time>
      </trkpt>
      <trkpt lat="50.20266" lon="4.37729">
        <ele>250.5</ele>
        <time>2016-8-7T10:55:39.000Z</time>
      </trkpt>
      <trkpt lat="50.20265" lon="4.3773">
        <ele>250.5</ele>
        <time>2016-8-7T10:55:39.000Z</time>
      </trkpt>
      <trkpt lat="50.20265" lon="4.3773">
        <ele>250.5</ele>
        <time>2016-8-7T10:55:39.000Z</time>
      </trkpt>
      <trkpt lat="50.20264" lon="4.37733">
        <ele>250.5</ele>
        <time>2016-8-7T10:55:39.000Z</time>
      </trkpt>
      <trkpt lat="50.20264" lon="4.37733">
        <ele>250.5</ele>
        <time>2016-8-7T10:55:39.000Z</time>
      </trkpt>
      <trkpt lat="50.20262" lon="4.37736">
        <ele>251</ele>
        <time>2016-8-7T10:55:39.000Z</time>
      </trkpt>
      <trkpt lat="50.20262" lon="4.37736">
        <ele>251</ele>
        <time>2016-8-7T10:55:39.000Z</time>
      </trkpt>
      <trkpt lat="50.20261" lon="4.37739">
        <ele>251</ele>
        <time>2016-8-7T10:55:39.000Z</time>
      </trkpt>
      <trkpt lat="50.20261" lon="4.37739">
        <ele>251</ele>
        <time>2016-8-7T10:55:39.000Z</time>
      </trkpt>
      <trkpt lat="50.2026" lon="4.37742">
        <ele>251</ele>
        <time>2016-8-7T10:55:39.000Z</time>
      </trkpt>
      <trkpt lat="50.2026" lon="4.37742">
        <ele>251</ele>
        <time>2016-8-7T10:55:39.000Z</time>
      </trkpt>
      <trkpt lat="50.2026" lon="4.37745">
        <ele>251</ele>
        <time>2016-8-7T10:55:39.000Z</time>
      </trkpt>
      <trkpt lat="50.2026" lon="4.37745">
        <ele>251</ele>
        <time>2016-8-7T10:55:39.000Z</time>
      </trkpt>
      <trkpt lat="50.20259" lon="4.37746">
        <ele>251</ele>
        <time>2016-8-7T10:55:39.000Z</time>
      </trkpt>
      <trkpt lat="50.20259" lon="4.37746">
        <ele>251</ele>
        <time>2016-8-7T10:55:39.000Z</time>
      </trkpt>
      <trkpt lat="50.20259" lon="4.37748">
        <ele>251</ele>
        <time>2016-8-7T10:55:39.000Z</time>
      </trkpt>
      <trkpt lat="50.20259" lon="4.37748">
        <ele>251</ele>
        <time>2016-8-7T10:55:39.000Z</time>
      </trkpt>
      <trkpt lat="50.20258" lon="4.37751">
        <ele>251</ele>
        <time>2016-8-7T10:55:39.000Z</time>
      </trkpt>
      <trkpt lat="50.20258" lon="4.37751">
        <ele>251</ele>
        <time>2016-8-7T10:55:39.000Z</time>
      </trkpt>
      <trkpt lat="50.20257" lon="4.37754">
        <ele>250.5</ele>
        <time>2016-8-7T10:55:39.000Z</time>
      </trkpt>
      <trkpt lat="50.20257" lon="4.37754">
        <ele>250.5</ele>
        <time>2016-8-7T10:55:39.000Z</time>
      </trkpt>
      <trkpt lat="50.20256" lon="4.37755">
        <ele>250.5</ele>
        <time>2016-8-7T10:55:39.000Z</time>
      </trkpt>
      <trkpt lat="50.20256" lon="4.37755">
        <ele>250.5</ele>
        <time>2016-8-7T10:55:39.000Z</time>
      </trkpt>
      <trkpt lat="50.20255" lon="4.37759">
        <ele>250.5</ele>
        <time>2016-8-7T10:55:39.000Z</time>
      </trkpt>
      <trkpt lat="50.20255" lon="4.37759">
        <ele>250.5</ele>
        <time>2016-8-7T10:55:39.000Z</time>
      </trkpt>
      <trkpt lat="50.20255" lon="4.37762">
        <ele>250.5</ele>
        <time>2016-8-7T10:55:39.000Z</time>
      </trkpt>
      <trkpt lat="50.20255" lon="4.37762">
        <ele>250.5</ele>
        <time>2016-8-7T10:55:39.000Z</time>
      </trkpt>
      <trkpt lat="50.20227" lon="4.37918">
        <ele>250.5</ele>
        <time>2016-8-7T10:55:39.000Z</time>
      </trkpt>
      <trkpt lat="50.20227" lon="4.37918">
        <ele>250.5</ele>
        <time>2016-8-7T10:55:39.000Z</time>
      </trkpt>
      <trkpt lat="50.20226" lon="4.37921">
        <ele>250</ele>
        <time>2016-8-7T10:55:39.000Z</time>
      </trkpt>
      <trkpt lat="50.20226" lon="4.37921">
        <ele>250</ele>
        <time>2016-8-7T10:55:39.000Z</time>
      </trkpt>
      <trkpt lat="50.20225" lon="4.37926">
        <ele>250</ele>
        <time>2016-8-7T10:55:39.000Z</time>
      </trkpt>
      <trkpt lat="50.20225" lon="4.37926">
        <ele>250</ele>
        <time>2016-8-7T10:55:39.000Z</time>
      </trkpt>
      <trkpt lat="50.20225" lon="4.37931">
        <ele>249.5</ele>
        <time>2016-8-7T10:55:39.000Z</time>
      </trkpt>
      <trkpt lat="50.20225" lon="4.37931">
        <ele>249.5</ele>
        <time>2016-8-7T10:55:39.000Z</time>
      </trkpt>
      <trkpt lat="50.20224" lon="4.37934">
        <ele>249.5</ele>
        <time>2016-8-7T10:55:39.000Z</time>
      </trkpt>
      <trkpt lat="50.20224" lon="4.37934">
        <ele>249.5</ele>
        <time>2016-8-7T10:55:39.000Z</time>
      </trkpt>
      <trkpt lat="50.20224" lon="4.37937">
        <ele>249.5</ele>
        <time>2016-8-7T10:55:39.000Z</time>
      </trkpt>
      <trkpt lat="50.20224" lon="4.37937">
        <ele>249.5</ele>
        <time>2016-8-7T10:55:39.000Z</time>
      </trkpt>
      <trkpt lat="50.20224" lon="4.3794">
        <ele>249.5</ele>
        <time>2016-8-7T10:55:39.000Z</time>
      </trkpt>
      <trkpt lat="50.20224" lon="4.3794">
        <ele>249.5</ele>
        <time>2016-8-7T10:55:39.000Z</time>
      </trkpt>
      <trkpt lat="50.20223" lon="4.37947">
        <ele>249.5</ele>
        <time>2016-8-7T10:55:39.000Z</time>
      </trkpt>
      <trkpt lat="50.20223" lon="4.37947">
        <ele>249.5</ele>
        <time>2016-8-7T10:55:39.000Z</time>
      </trkpt>
      <trkpt lat="50.20223" lon="4.37949">
        <ele>249.5</ele>
        <time>2016-8-7T10:55:39.000Z</time>
      </trkpt>
      <trkpt lat="50.20223" lon="4.37949">
        <ele>249.5</ele>
        <time>2016-8-7T10:55:39.000Z</time>
      </trkpt>
      <trkpt lat="50.20222" lon="4.37951">
        <ele>249.5</ele>
        <time>2016-8-7T10:55:39.000Z</time>
      </trkpt>
      <trkpt lat="50.20222" lon="4.37951">
        <ele>249.5</ele>
        <time>2016-8-7T10:55:39.000Z</time>
      </trkpt>
      <trkpt lat="50.20221" lon="4.37957">
        <ele>249.5</ele>
        <time>2016-8-7T10:55:39.000Z</time>
      </trkpt>
      <trkpt lat="50.20221" lon="4.37957">
        <ele>249.5</ele>
        <time>2016-8-7T10:55:39.000Z</time>
      </trkpt>
      <trkpt lat="50.20221" lon="4.37959">
        <ele>249.5</ele>
        <time>2016-8-7T10:55:39.000Z</time>
      </trkpt>
      <trkpt lat="50.20221" lon="4.37959">
        <ele>249.5</ele>
        <time>2016-8-7T10:55:39.000Z</time>
      </trkpt>
      <trkpt lat="50.20219" lon="4.37965">
        <ele>250</ele>
        <time>2016-8-7T10:55:39.000Z</time>
      </trkpt>
      <trkpt lat="50.20219" lon="4.37965">
        <ele>250</ele>
        <time>2016-8-7T10:55:39.000Z</time>
      </trkpt>
      <trkpt lat="50.20218" lon="4.37967">
        <ele>250</ele>
        <time>2016-8-7T10:55:39.000Z</time>
      </trkpt>
      <trkpt lat="50.20218" lon="4.37967">
        <ele>250</ele>
        <time>2016-8-7T10:55:39.000Z</time>
      </trkpt>
      <trkpt lat="50.20218" lon="4.37968">
        <ele>250.5</ele>
        <time>2016-8-7T10:55:39.000Z</time>
      </trkpt>
      <trkpt lat="50.20218" lon="4.37968">
        <ele>250.5</ele>
        <time>2016-8-7T10:55:39.000Z</time>
      </trkpt>
      <trkpt lat="50.20218" lon="4.37971">
        <ele>251</ele>
        <time>2016-8-7T10:55:39.000Z</time>
      </trkpt>
      <trkpt lat="50.20218" lon="4.37971">
        <ele>251</ele>
        <time>2016-8-7T10:55:39.000Z</time>
      </trkpt>
      <trkpt lat="50.20218" lon="4.37975">
        <ele>251</ele>
        <time>2016-8-7T10:55:39.000Z</time>
      </trkpt>
      <trkpt lat="50.20218" lon="4.37975">
        <ele>251</ele>
        <time>2016-8-7T10:55:39.000Z</time>
      </trkpt>
      <trkpt lat="50.20217" lon="4.37977">
        <ele>251.5</ele>
        <time>2016-8-7T10:55:39.000Z</time>
      </trkpt>
      <trkpt lat="50.20217" lon="4.37977">
        <ele>251.5</ele>
        <time>2016-8-7T10:55:39.000Z</time>
      </trkpt>
      <trkpt lat="50.20217" lon="4.3798">
        <ele>251.5</ele>
        <time>2016-8-7T10:55:39.000Z</time>
      </trkpt>
      <trkpt lat="50.20217" lon="4.3798">
        <ele>251.5</ele>
        <time>2016-8-7T10:55:39.000Z</time>
      </trkpt>
      <trkpt lat="50.20217" lon="4.37984">
        <ele>251.5</ele>
        <time>2016-8-7T10:55:39.000Z</time>
      </trkpt>
      <trkpt lat="50.20217" lon="4.37984">
        <ele>251.5</ele>
        <time>2016-8-7T10:55:39.000Z</time>
      </trkpt>
      <trkpt lat="50.20216" lon="4.37987">
        <ele>251.5</ele>
        <time>2016-8-7T10:55:39.000Z</time>
      </trkpt>
      <trkpt lat="50.20216" lon="4.37987">
        <ele>251.5</ele>
        <time>2016-8-7T10:55:39.000Z</time>
      </trkpt>
      <trkpt lat="50.20215" lon="4.37991">
        <ele>251.5</ele>
        <time>2016-8-7T10:55:39.000Z</time>
      </trkpt>
      <trkpt lat="50.20215" lon="4.37991">
        <ele>251.5</ele>
        <time>2016-8-7T10:55:39.000Z</time>
      </trkpt>
      <trkpt lat="50.20215" lon="4.37993">
        <ele>251.5</ele>
        <time>2016-8-7T10:55:39.000Z</time>
      </trkpt>
      <trkpt lat="50.20215" lon="4.37993">
        <ele>251.5</ele>
        <time>2016-8-7T10:55:39.000Z</time>
      </trkpt>
      <trkpt lat="50.20214" lon="4.37996">
        <ele>251</ele>
        <time>2016-8-7T10:55:39.000Z</time>
      </trkpt>
      <trkpt lat="50.20214" lon="4.37996">
        <ele>251</ele>
        <time>2016-8-7T10:55:39.000Z</time>
      </trkpt>
      <trkpt lat="50.20213" lon="4.38">
        <ele>251</ele>
        <time>2016-8-7T10:55:39.000Z</time>
      </trkpt>
      <trkpt lat="50.20213" lon="4.38">
        <ele>251</ele>
        <time>2016-8-7T10:55:39.000Z</time>
      </trkpt>
      <trkpt lat="50.20213" lon="4.38002">
        <ele>251</ele>
        <time>2016-8-7T10:55:39.000Z</time>
      </trkpt>
      <trkpt lat="50.20213" lon="4.38002">
        <ele>251</ele>
        <time>2016-8-7T10:55:39.000Z</time>
      </trkpt>
      <trkpt lat="50.20212" lon="4.38006">
        <ele>251</ele>
        <time>2016-8-7T10:55:39.000Z</time>
      </trkpt>
      <trkpt lat="50.20212" lon="4.38006">
        <ele>251</ele>
        <time>2016-8-7T10:55:39.000Z</time>
      </trkpt>
      <trkpt lat="50.20213" lon="4.3801">
        <ele>250.5</ele>
        <time>2016-8-7T10:55:39.000Z</time>
      </trkpt>
      <trkpt lat="50.20213" lon="4.3801">
        <ele>250.5</ele>
        <time>2016-8-7T10:55:39.000Z</time>
      </trkpt>
      <trkpt lat="50.20213" lon="4.38012">
        <ele>250.5</ele>
        <time>2016-8-7T10:55:39.000Z</time>
      </trkpt>
      <trkpt lat="50.20213" lon="4.38012">
        <ele>250.5</ele>
        <time>2016-8-7T10:55:39.000Z</time>
      </trkpt>
      <trkpt lat="50.20213" lon="4.38016">
        <ele>250.5</ele>
        <time>2016-8-7T10:55:39.000Z</time>
      </trkpt>
      <trkpt lat="50.20213" lon="4.38016">
        <ele>250.5</ele>
        <time>2016-8-7T10:55:39.000Z</time>
      </trkpt>
      <trkpt lat="50.20212" lon="4.38019">
        <ele>250.5</ele>
        <time>2016-8-7T10:55:39.000Z</time>
      </trkpt>
      <trkpt lat="50.20212" lon="4.38019">
        <ele>250.5</ele>
        <time>2016-8-7T10:55:39.000Z</time>
      </trkpt>
      <trkpt lat="50.20212" lon="4.38024">
        <ele>250.5</ele>
        <time>2016-8-7T10:56:55.000Z</time>
      </trkpt>
      <trkpt lat="50.20212" lon="4.38024">
        <ele>250.5</ele>
        <time>2016-8-7T10:56:55.000Z</time>
      </trkpt>
      <trkpt lat="50.20212" lon="4.38027">
        <ele>250.5</ele>
        <time>2016-8-7T10:56:55.000Z</time>
      </trkpt>
      <trkpt lat="50.20212" lon="4.38027">
        <ele>250.5</ele>
        <time>2016-8-7T10:56:55.000Z</time>
      </trkpt>
      <trkpt lat="50.20212" lon="4.3803">
        <ele>250.5</ele>
        <time>2016-8-7T10:56:55.000Z</time>
      </trkpt>
      <trkpt lat="50.20212" lon="4.3803">
        <ele>250.5</ele>
        <time>2016-8-7T10:56:55.000Z</time>
      </trkpt>
      <trkpt lat="50.20211" lon="4.38033">
        <ele>250.5</ele>
        <time>2016-8-7T10:56:55.000Z</time>
      </trkpt>
      <trkpt lat="50.20211" lon="4.38033">
        <ele>250.5</ele>
        <time>2016-8-7T10:56:55.000Z</time>
      </trkpt>
      <trkpt lat="50.2021" lon="4.38037">
        <ele>250.5</ele>
        <time>2016-8-7T10:56:55.000Z</time>
      </trkpt>
      <trkpt lat="50.2021" lon="4.38037">
        <ele>250.5</ele>
        <time>2016-8-7T10:56:55.000Z</time>
      </trkpt>
      <trkpt lat="50.2021" lon="4.38038">
        <ele>250.5</ele>
        <time>2016-8-7T10:56:55.000Z</time>
      </trkpt>
      <trkpt lat="50.2021" lon="4.38038">
        <ele>250.5</ele>
        <time>2016-8-7T10:56:55.000Z</time>
      </trkpt>
      <trkpt lat="50.20209" lon="4.38042">
        <ele>250.5</ele>
        <time>2016-8-7T10:56:55.000Z</time>
      </trkpt>
      <trkpt lat="50.20209" lon="4.38042">
        <ele>250.5</ele>
        <time>2016-8-7T10:56:55.000Z</time>
      </trkpt>
      <trkpt lat="50.20208" lon="4.38045">
        <ele>250.5</ele>
        <time>2016-8-7T10:56:55.000Z</time>
      </trkpt>
      <trkpt lat="50.20208" lon="4.38045">
        <ele>250.5</ele>
        <time>2016-8-7T10:56:55.000Z</time>
      </trkpt>
      <trkpt lat="50.20207" lon="4.38049">
        <ele>250.5</ele>
        <time>2016-8-7T10:56:55.000Z</time>
      </trkpt>
      <trkpt lat="50.20207" lon="4.38049">
        <ele>250.5</ele>
        <time>2016-8-7T10:56:55.000Z</time>
      </trkpt>
      <trkpt lat="50.20207" lon="4.38053">
        <ele>250.5</ele>
        <time>2016-8-7T10:56:55.000Z</time>
      </trkpt>
      <trkpt lat="50.20207" lon="4.38053">
        <ele>250.5</ele>
        <time>2016-8-7T10:56:55.000Z</time>
      </trkpt>
      <trkpt lat="50.20206" lon="4.38055">
        <ele>250.5</ele>
        <time>2016-8-7T10:56:55.000Z</time>
      </trkpt>
      <trkpt lat="50.20206" lon="4.38055">
        <ele>250.5</ele>
        <time>2016-8-7T10:56:55.000Z</time>
      </trkpt>
      <trkpt lat="50.20206" lon="4.38058">
        <ele>250.5</ele>
        <time>2016-8-7T10:56:55.000Z</time>
      </trkpt>
      <trkpt lat="50.20206" lon="4.38058">
        <ele>250.5</ele>
        <time>2016-8-7T10:56:55.000Z</time>
      </trkpt>
      <trkpt lat="50.20206" lon="4.38061">
        <ele>250</ele>
        <time>2016-8-7T10:56:55.000Z</time>
      </trkpt>
      <trkpt lat="50.20206" lon="4.38061">
        <ele>250</ele>
        <time>2016-8-7T10:56:55.000Z</time>
      </trkpt>
      <trkpt lat="50.20205" lon="4.38065">
        <ele>250</ele>
        <time>2016-8-7T10:56:55.000Z</time>
      </trkpt>
      <trkpt lat="50.20205" lon="4.38065">
        <ele>250</ele>
        <time>2016-8-7T10:56:55.000Z</time>
      </trkpt>
      <trkpt lat="50.20205" lon="4.38066">
        <ele>250</ele>
        <time>2016-8-7T10:56:55.000Z</time>
      </trkpt>
      <trkpt lat="50.20205" lon="4.38066">
        <ele>250</ele>
        <time>2016-8-7T10:56:55.000Z</time>
      </trkpt>
      <trkpt lat="50.20205" lon="4.3807">
        <ele>250</ele>
        <time>2016-8-7T10:56:55.000Z</time>
      </trkpt>
      <trkpt lat="50.20205" lon="4.3807">
        <ele>250</ele>
        <time>2016-8-7T10:56:55.000Z</time>
      </trkpt>
      <trkpt lat="50.20205" lon="4.38072">
        <ele>250</ele>
        <time>2016-8-7T10:56:55.000Z</time>
      </trkpt>
      <trkpt lat="50.20205" lon="4.38072">
        <ele>250</ele>
        <time>2016-8-7T10:56:55.000Z</time>
      </trkpt>
      <trkpt lat="50.20205" lon="4.38076">
        <ele>250</ele>
        <time>2016-8-7T10:56:55.000Z</time>
      </trkpt>
      <trkpt lat="50.20205" lon="4.38076">
        <ele>250</ele>
        <time>2016-8-7T10:56:55.000Z</time>
      </trkpt>
      <trkpt lat="50.20204" lon="4.3808">
        <ele>250</ele>
        <time>2016-8-7T10:56:55.000Z</time>
      </trkpt>
      <trkpt lat="50.20204" lon="4.3808">
        <ele>250</ele>
        <time>2016-8-7T10:56:55.000Z</time>
      </trkpt>
      <trkpt lat="50.20205" lon="4.38083">
        <ele>249.5</ele>
        <time>2016-8-7T10:56:55.000Z</time>
      </trkpt>
      <trkpt lat="50.20205" lon="4.38083">
        <ele>249.5</ele>
        <time>2016-8-7T10:56:55.000Z</time>
      </trkpt>
      <trkpt lat="50.20206" lon="4.38086">
        <ele>249.5</ele>
        <time>2016-8-7T10:56:55.000Z</time>
      </trkpt>
      <trkpt lat="50.20206" lon="4.38086">
        <ele>249.5</ele>
        <time>2016-8-7T10:56:55.000Z</time>
      </trkpt>
      <trkpt lat="50.20205" lon="4.38094">
        <ele>250.5</ele>
        <time>2016-8-7T10:56:55.000Z</time>
      </trkpt>
      <trkpt lat="50.20205" lon="4.38094">
        <ele>250.5</ele>
        <time>2016-8-7T10:56:55.000Z</time>
      </trkpt>
      <trkpt lat="50.20204" lon="4.38097">
        <ele>250.5</ele>
        <time>2016-8-7T10:56:55.000Z</time>
      </trkpt>
      <trkpt lat="50.20204" lon="4.38097">
        <ele>250.5</ele>
        <time>2016-8-7T10:56:55.000Z</time>
      </trkpt>
      <trkpt lat="50.20205" lon="4.38099">
        <ele>250.5</ele>
        <time>2016-8-7T10:56:55.000Z</time>
      </trkpt>
      <trkpt lat="50.20205" lon="4.38099">
        <ele>250.5</ele>
        <time>2016-8-7T10:56:55.000Z</time>
      </trkpt>
      <trkpt lat="50.20204" lon="4.38103">
        <ele>250.5</ele>
        <time>2016-8-7T10:56:55.000Z</time>
      </trkpt>
      <trkpt lat="50.20204" lon="4.38103">
        <ele>250.5</ele>
        <time>2016-8-7T10:56:55.000Z</time>
      </trkpt>
      <trkpt lat="50.20204" lon="4.38107">
        <ele>250.5</ele>
        <time>2016-8-7T10:56:55.000Z</time>
      </trkpt>
      <trkpt lat="50.20204" lon="4.38107">
        <ele>250.5</ele>
        <time>2016-8-7T10:56:55.000Z</time>
      </trkpt>
      <trkpt lat="50.20203" lon="4.3811">
        <ele>250.5</ele>
        <time>2016-8-7T10:56:55.000Z</time>
      </trkpt>
      <trkpt lat="50.20203" lon="4.3811">
        <ele>250.5</ele>
        <time>2016-8-7T10:56:55.000Z</time>
      </trkpt>
      <trkpt lat="50.20203" lon="4.38113">
        <ele>250.5</ele>
        <time>2016-8-7T10:56:55.000Z</time>
      </trkpt>
      <trkpt lat="50.20203" lon="4.38113">
        <ele>250.5</ele>
        <time>2016-8-7T10:56:55.000Z</time>
      </trkpt>
      <trkpt lat="50.20203" lon="4.38115">
        <ele>250.5</ele>
        <time>2016-8-7T10:56:55.000Z</time>
      </trkpt>
      <trkpt lat="50.20203" lon="4.38115">
        <ele>250.5</ele>
        <time>2016-8-7T10:56:55.000Z</time>
      </trkpt>
      <trkpt lat="50.20203" lon="4.38118">
        <ele>250.5</ele>
        <time>2016-8-7T10:56:55.000Z</time>
      </trkpt>
      <trkpt lat="50.20203" lon="4.38118">
        <ele>250.5</ele>
        <time>2016-8-7T10:56:55.000Z</time>
      </trkpt>
      <trkpt lat="50.20203" lon="4.38119">
        <ele>250.5</ele>
        <time>2016-8-7T10:56:55.000Z</time>
      </trkpt>
      <trkpt lat="50.20203" lon="4.38119">
        <ele>250.5</ele>
        <time>2016-8-7T10:56:55.000Z</time>
      </trkpt>
      <trkpt lat="50.20203" lon="4.3812">
        <ele>250.5</ele>
        <time>2016-8-7T10:56:55.000Z</time>
      </trkpt>
      <trkpt lat="50.20203" lon="4.3812">
        <ele>250.5</ele>
        <time>2016-8-7T10:56:55.000Z</time>
      </trkpt>
      <trkpt lat="50.20202" lon="4.38123">
        <ele>250.5</ele>
        <time>2016-8-7T10:56:55.000Z</time>
      </trkpt>
      <trkpt lat="50.20202" lon="4.38123">
        <ele>250.5</ele>
        <time>2016-8-7T10:56:55.000Z</time>
      </trkpt>
      <trkpt lat="50.20201" lon="4.38127">
        <ele>250.5</ele>
        <time>2016-8-7T10:56:55.000Z</time>
      </trkpt>
      <trkpt lat="50.20201" lon="4.38127">
        <ele>250.5</ele>
        <time>2016-8-7T10:56:55.000Z</time>
      </trkpt>
      <trkpt lat="50.20201" lon="4.38129">
        <ele>250.5</ele>
        <time>2016-8-7T10:56:55.000Z</time>
      </trkpt>
      <trkpt lat="50.20201" lon="4.38129">
        <ele>250.5</ele>
        <time>2016-8-7T10:56:55.000Z</time>
      </trkpt>
      <trkpt lat="50.20199" lon="4.38132">
        <ele>250.5</ele>
        <time>2016-8-7T10:56:55.000Z</time>
      </trkpt>
      <trkpt lat="50.20199" lon="4.38132">
        <ele>250.5</ele>
        <time>2016-8-7T10:56:55.000Z</time>
      </trkpt>
      <trkpt lat="50.20199" lon="4.38135">
        <ele>250.5</ele>
        <time>2016-8-7T10:56:55.000Z</time>
      </trkpt>
      <trkpt lat="50.20199" lon="4.38135">
        <ele>250.5</ele>
        <time>2016-8-7T10:56:55.000Z</time>
      </trkpt>
      <trkpt lat="50.20199" lon="4.38136">
        <ele>250.5</ele>
        <time>2016-8-7T10:56:55.000Z</time>
      </trkpt>
      <trkpt lat="50.20199" lon="4.38136">
        <ele>250.5</ele>
        <time>2016-8-7T10:56:55.000Z</time>
      </trkpt>
      <trkpt lat="50.20199" lon="4.38138">
        <ele>250.5</ele>
        <time>2016-8-7T10:56:55.000Z</time>
      </trkpt>
      <trkpt lat="50.20199" lon="4.38138">
        <ele>250.5</ele>
        <time>2016-8-7T10:56:55.000Z</time>
      </trkpt>
      <trkpt lat="50.20199" lon="4.38142">
        <ele>250.5</ele>
        <time>2016-8-7T10:56:55.000Z</time>
      </trkpt>
      <trkpt lat="50.20199" lon="4.38142">
        <ele>250.5</ele>
        <time>2016-8-7T10:56:55.000Z</time>
      </trkpt>
      <trkpt lat="50.20198" lon="4.38146">
        <ele>250.5</ele>
        <time>2016-8-7T10:56:55.000Z</time>
      </trkpt>
      <trkpt lat="50.20198" lon="4.38146">
        <ele>250.5</ele>
        <time>2016-8-7T10:56:55.000Z</time>
      </trkpt>
      <trkpt lat="50.20198" lon="4.38149">
        <ele>250.5</ele>
        <time>2016-8-7T10:56:55.000Z</time>
      </trkpt>
      <trkpt lat="50.20198" lon="4.38149">
        <ele>250.5</ele>
        <time>2016-8-7T10:56:55.000Z</time>
      </trkpt>
      <trkpt lat="50.20198" lon="4.38151">
        <ele>250.5</ele>
        <time>2016-8-7T10:56:55.000Z</time>
      </trkpt>
      <trkpt lat="50.20198" lon="4.38151">
        <ele>250.5</ele>
        <time>2016-8-7T10:56:55.000Z</time>
      </trkpt>
      <trkpt lat="50.20198" lon="4.38154">
        <ele>251</ele>
        <time>2016-8-7T10:56:55.000Z</time>
      </trkpt>
      <trkpt lat="50.20198" lon="4.38154">
        <ele>251</ele>
        <time>2016-8-7T10:56:55.000Z</time>
      </trkpt>
      <trkpt lat="50.20197" lon="4.38156">
        <ele>251</ele>
        <time>2016-8-7T10:56:55.000Z</time>
      </trkpt>
      <trkpt lat="50.20197" lon="4.38156">
        <ele>251</ele>
        <time>2016-8-7T10:56:55.000Z</time>
      </trkpt>
      <trkpt lat="50.20197" lon="4.38159">
        <ele>251</ele>
        <time>2016-8-7T10:56:55.000Z</time>
      </trkpt>
      <trkpt lat="50.20197" lon="4.38159">
        <ele>251</ele>
        <time>2016-8-7T10:56:55.000Z</time>
      </trkpt>
      <trkpt lat="50.20197" lon="4.38161">
        <ele>251</ele>
        <time>2016-8-7T10:56:55.000Z</time>
      </trkpt>
      <trkpt lat="50.20197" lon="4.38161">
        <ele>251</ele>
        <time>2016-8-7T10:56:55.000Z</time>
      </trkpt>
      <trkpt lat="50.20197" lon="4.38163">
        <ele>251</ele>
        <time>2016-8-7T10:56:55.000Z</time>
      </trkpt>
      <trkpt lat="50.20197" lon="4.38163">
        <ele>251</ele>
        <time>2016-8-7T10:56:55.000Z</time>
      </trkpt>
      <trkpt lat="50.20197" lon="4.38165">
        <ele>251</ele>
        <time>2016-8-7T10:56:55.000Z</time>
      </trkpt>
      <trkpt lat="50.20197" lon="4.38165">
        <ele>251</ele>
        <time>2016-8-7T10:56:55.000Z</time>
      </trkpt>
      <trkpt lat="50.20196" lon="4.38168">
        <ele>251</ele>
        <time>2016-8-7T10:56:55.000Z</time>
      </trkpt>
      <trkpt lat="50.20196" lon="4.38168">
        <ele>251</ele>
        <time>2016-8-7T10:56:55.000Z</time>
      </trkpt>
      <trkpt lat="50.20196" lon="4.3817">
        <ele>251</ele>
        <time>2016-8-7T10:56:55.000Z</time>
      </trkpt>
      <trkpt lat="50.20196" lon="4.3817">
        <ele>251</ele>
        <time>2016-8-7T10:59:2.000Z</time>
      </trkpt>
      <trkpt lat="50.20197" lon="4.38172">
        <ele>250.5</ele>
        <time>2016-8-7T10:59:2.000Z</time>
      </trkpt>
      <trkpt lat="50.20197" lon="4.38172">
        <ele>250.5</ele>
        <time>2016-8-7T10:59:2.000Z</time>
      </trkpt>
      <trkpt lat="50.20196" lon="4.38177">
        <ele>250.5</ele>
        <time>2016-8-7T10:59:2.000Z</time>
      </trkpt>
      <trkpt lat="50.20196" lon="4.38177">
        <ele>250.5</ele>
        <time>2016-8-7T10:59:2.000Z</time>
      </trkpt>
      <trkpt lat="50.20196" lon="4.3818">
        <ele>251</ele>
        <time>2016-8-7T10:59:2.000Z</time>
      </trkpt>
      <trkpt lat="50.20196" lon="4.3818">
        <ele>251</ele>
        <time>2016-8-7T10:59:2.000Z</time>
      </trkpt>
      <trkpt lat="50.20186" lon="4.38263">
        <ele>250</ele>
        <time>2016-8-7T10:59:2.000Z</time>
      </trkpt>
      <trkpt lat="50.20186" lon="4.38263">
        <ele>250</ele>
        <time>2016-8-7T10:59:2.000Z</time>
      </trkpt>
      <trkpt lat="50.20186" lon="4.38265">
        <ele>250</ele>
        <time>2016-8-7T10:59:2.000Z</time>
      </trkpt>
      <trkpt lat="50.20186" lon="4.38265">
        <ele>250</ele>
        <time>2016-8-7T10:59:2.000Z</time>
      </trkpt>
      <trkpt lat="50.20185" lon="4.38271">
        <ele>249.5</ele>
        <time>2016-8-7T10:59:2.000Z</time>
      </trkpt>
      <trkpt lat="50.20185" lon="4.38271">
        <ele>249.5</ele>
        <time>2016-8-7T10:59:2.000Z</time>
      </trkpt>
      <trkpt lat="50.20185" lon="4.38273">
        <ele>249.5</ele>
        <time>2016-8-7T10:59:2.000Z</time>
      </trkpt>
      <trkpt lat="50.20185" lon="4.38273">
        <ele>249.5</ele>
        <time>2016-8-7T10:59:2.000Z</time>
      </trkpt>
      <trkpt lat="50.20184" lon="4.38275">
        <ele>248.5</ele>
        <time>2016-8-7T10:59:2.000Z</time>
      </trkpt>
      <trkpt lat="50.20184" lon="4.38275">
        <ele>248.5</ele>
        <time>2016-8-7T10:59:2.000Z</time>
      </trkpt>
      <trkpt lat="50.20184" lon="4.38278">
        <ele>248.5</ele>
        <time>2016-8-7T10:59:2.000Z</time>
      </trkpt>
      <trkpt lat="50.20184" lon="4.38278">
        <ele>248.5</ele>
        <time>2016-8-7T10:59:2.000Z</time>
      </trkpt>
      <trkpt lat="50.20184" lon="4.38281">
        <ele>249.5</ele>
        <time>2016-8-7T10:59:2.000Z</time>
      </trkpt>
      <trkpt lat="50.20184" lon="4.38281">
        <ele>249.5</ele>
        <time>2016-8-7T10:59:2.000Z</time>
      </trkpt>
      <trkpt lat="50.20183" lon="4.38285">
        <ele>249.5</ele>
        <time>2016-8-7T10:59:2.000Z</time>
      </trkpt>
      <trkpt lat="50.20183" lon="4.38285">
        <ele>249.5</ele>
        <time>2016-8-7T10:59:2.000Z</time>
      </trkpt>
      <trkpt lat="50.20183" lon="4.38289">
        <ele>249.5</ele>
        <time>2016-8-7T10:59:2.000Z</time>
      </trkpt>
      <trkpt lat="50.20183" lon="4.38289">
        <ele>249.5</ele>
        <time>2016-8-7T10:59:2.000Z</time>
      </trkpt>
      <trkpt lat="50.20182" lon="4.38293">
        <ele>249</ele>
        <time>2016-8-7T10:59:2.000Z</time>
      </trkpt>
      <trkpt lat="50.20182" lon="4.38293">
        <ele>249</ele>
        <time>2016-8-7T10:59:2.000Z</time>
      </trkpt>
      <trkpt lat="50.20181" lon="4.38296">
        <ele>249</ele>
        <time>2016-8-7T10:59:2.000Z</time>
      </trkpt>
      <trkpt lat="50.20181" lon="4.38296">
        <ele>249</ele>
        <time>2016-8-7T10:59:2.000Z</time>
      </trkpt>
      <trkpt lat="50.2018" lon="4.383">
        <ele>249</ele>
        <time>2016-8-7T10:59:2.000Z</time>
      </trkpt>
      <trkpt lat="50.2018" lon="4.383">
        <ele>249</ele>
        <time>2016-8-7T10:59:2.000Z</time>
      </trkpt>
      <trkpt lat="50.2018" lon="4.38302">
        <ele>249</ele>
        <time>2016-8-7T10:59:2.000Z</time>
      </trkpt>
      <trkpt lat="50.2018" lon="4.38302">
        <ele>249</ele>
        <time>2016-8-7T10:59:2.000Z</time>
      </trkpt>
      <trkpt lat="50.20178" lon="4.38305">
        <ele>249</ele>
        <time>2016-8-7T10:59:2.000Z</time>
      </trkpt>
      <trkpt lat="50.20178" lon="4.38305">
        <ele>249</ele>
        <time>2016-8-7T10:59:2.000Z</time>
      </trkpt>
      <trkpt lat="50.20177" lon="4.38308">
        <ele>248.5</ele>
        <time>2016-8-7T10:59:2.000Z</time>
      </trkpt>
      <trkpt lat="50.20177" lon="4.38308">
        <ele>248.5</ele>
        <time>2016-8-7T10:59:2.000Z</time>
      </trkpt>
      <trkpt lat="50.20177" lon="4.38309">
        <ele>248.5</ele>
        <time>2016-8-7T10:59:2.000Z</time>
      </trkpt>
      <trkpt lat="50.20177" lon="4.38309">
        <ele>248.5</ele>
        <time>2016-8-7T10:59:2.000Z</time>
      </trkpt>
      <trkpt lat="50.20176" lon="4.38312">
        <ele>248.5</ele>
        <time>2016-8-7T10:59:2.000Z</time>
      </trkpt>
      <trkpt lat="50.20176" lon="4.38312">
        <ele>248.5</ele>
        <time>2016-8-7T10:59:2.000Z</time>
      </trkpt>
      <trkpt lat="50.20176" lon="4.38313">
        <ele>248.5</ele>
        <time>2016-8-7T10:59:2.000Z</time>
      </trkpt>
      <trkpt lat="50.20176" lon="4.38313">
        <ele>248.5</ele>
        <time>2016-8-7T10:59:2.000Z</time>
      </trkpt>
      <trkpt lat="50.20175" lon="4.38317">
        <ele>248.5</ele>
        <time>2016-8-7T10:59:2.000Z</time>
      </trkpt>
      <trkpt lat="50.20175" lon="4.38317">
        <ele>248.5</ele>
        <time>2016-8-7T10:59:2.000Z</time>
      </trkpt>
      <trkpt lat="50.20174" lon="4.38321">
        <ele>248</ele>
        <time>2016-8-7T10:59:2.000Z</time>
      </trkpt>
      <trkpt lat="50.20174" lon="4.38321">
        <ele>248</ele>
        <time>2016-8-7T10:59:2.000Z</time>
      </trkpt>
      <trkpt lat="50.20174" lon="4.38325">
        <ele>248</ele>
        <time>2016-8-7T10:59:2.000Z</time>
      </trkpt>
      <trkpt lat="50.20174" lon="4.38325">
        <ele>248</ele>
        <time>2016-8-7T10:59:2.000Z</time>
      </trkpt>
      <trkpt lat="50.20173" lon="4.38327">
        <ele>248</ele>
        <time>2016-8-7T10:59:2.000Z</time>
      </trkpt>
      <trkpt lat="50.20173" lon="4.38327">
        <ele>248</ele>
        <time>2016-8-7T10:59:2.000Z</time>
      </trkpt>
      <trkpt lat="50.20173" lon="4.38331">
        <ele>248</ele>
        <time>2016-8-7T10:59:2.000Z</time>
      </trkpt>
      <trkpt lat="50.20173" lon="4.38331">
        <ele>248</ele>
        <time>2016-8-7T10:59:2.000Z</time>
      </trkpt>
      <trkpt lat="50.20172" lon="4.3835">
        <ele>247.5</ele>
        <time>2016-8-7T10:59:2.000Z</time>
      </trkpt>
      <trkpt lat="50.20172" lon="4.3835">
        <ele>247.5</ele>
        <time>2016-8-7T10:59:2.000Z</time>
      </trkpt>
      <trkpt lat="50.20171" lon="4.38352">
        <ele>247.5</ele>
        <time>2016-8-7T10:59:2.000Z</time>
      </trkpt>
      <trkpt lat="50.20171" lon="4.38352">
        <ele>247.5</ele>
        <time>2016-8-7T10:59:2.000Z</time>
      </trkpt>
      <trkpt lat="50.2017" lon="4.38358">
        <ele>247.5</ele>
        <time>2016-8-7T10:59:2.000Z</time>
      </trkpt>
      <trkpt lat="50.2017" lon="4.38358">
        <ele>247.5</ele>
        <time>2016-8-7T10:59:2.000Z</time>
      </trkpt>
      <trkpt lat="50.2017" lon="4.38359">
        <ele>247.5</ele>
        <time>2016-8-7T10:59:2.000Z</time>
      </trkpt>
      <trkpt lat="50.2017" lon="4.38359">
        <ele>247.5</ele>
        <time>2016-8-7T10:59:2.000Z</time>
      </trkpt>
      <trkpt lat="50.20169" lon="4.38363">
        <ele>247.5</ele>
        <time>2016-8-7T10:59:2.000Z</time>
      </trkpt>
      <trkpt lat="50.20169" lon="4.38363">
        <ele>247.5</ele>
        <time>2016-8-7T10:59:2.000Z</time>
      </trkpt>
      <trkpt lat="50.20169" lon="4.38365">
        <ele>247</ele>
        <time>2016-8-7T10:59:2.000Z</time>
      </trkpt>
      <trkpt lat="50.20169" lon="4.38365">
        <ele>247</ele>
        <time>2016-8-7T10:59:2.000Z</time>
      </trkpt>
      <trkpt lat="50.20168" lon="4.38369">
        <ele>247</ele>
        <time>2016-8-7T10:59:2.000Z</time>
      </trkpt>
      <trkpt lat="50.20168" lon="4.38369">
        <ele>247</ele>
        <time>2016-8-7T10:59:2.000Z</time>
      </trkpt>
      <trkpt lat="50.20167" lon="4.3837">
        <ele>247</ele>
        <time>2016-8-7T10:59:2.000Z</time>
      </trkpt>
      <trkpt lat="50.20167" lon="4.3837">
        <ele>247</ele>
        <time>2016-8-7T10:59:2.000Z</time>
      </trkpt>
      <trkpt lat="50.20167" lon="4.38373">
        <ele>247</ele>
        <time>2016-8-7T10:59:2.000Z</time>
      </trkpt>
      <trkpt lat="50.20167" lon="4.38373">
        <ele>247</ele>
        <time>2016-8-7T10:59:2.000Z</time>
      </trkpt>
      <trkpt lat="50.20167" lon="4.38376">
        <ele>247</ele>
        <time>2016-8-7T10:59:2.000Z</time>
      </trkpt>
      <trkpt lat="50.20167" lon="4.38376">
        <ele>247</ele>
        <time>2016-8-7T10:59:2.000Z</time>
      </trkpt>
      <trkpt lat="50.20167" lon="4.38378">
        <ele>247</ele>
        <time>2016-8-7T10:59:2.000Z</time>
      </trkpt>
      <trkpt lat="50.20167" lon="4.38378">
        <ele>247</ele>
        <time>2016-8-7T10:59:2.000Z</time>
      </trkpt>
      <trkpt lat="50.20167" lon="4.38381">
        <ele>247.5</ele>
        <time>2016-8-7T10:59:2.000Z</time>
      </trkpt>
      <trkpt lat="50.20167" lon="4.38381">
        <ele>247.5</ele>
        <time>2016-8-7T10:59:2.000Z</time>
      </trkpt>
      <trkpt lat="50.20166" lon="4.38385">
        <ele>247.5</ele>
        <time>2016-8-7T10:59:2.000Z</time>
      </trkpt>
      <trkpt lat="50.20166" lon="4.38385">
        <ele>247.5</ele>
        <time>2016-8-7T10:59:2.000Z</time>
      </trkpt>
      <trkpt lat="50.20166" lon="4.38388">
        <ele>247.5</ele>
        <time>2016-8-7T10:59:2.000Z</time>
      </trkpt>
      <trkpt lat="50.20166" lon="4.38388">
        <ele>247.5</ele>
        <time>2016-8-7T10:59:2.000Z</time>
      </trkpt>
      <trkpt lat="50.20165" lon="4.38392">
        <ele>248</ele>
        <time>2016-8-7T10:59:2.000Z</time>
      </trkpt>
      <trkpt lat="50.20165" lon="4.38392">
        <ele>248</ele>
        <time>2016-8-7T10:59:2.000Z</time>
      </trkpt>
      <trkpt lat="50.20164" lon="4.38395">
        <ele>248</ele>
        <time>2016-8-7T10:59:2.000Z</time>
      </trkpt>
      <trkpt lat="50.20164" lon="4.38395">
        <ele>248</ele>
        <time>2016-8-7T10:59:2.000Z</time>
      </trkpt>
      <trkpt lat="50.20163" lon="4.384">
        <ele>248</ele>
        <time>2016-8-7T10:59:2.000Z</time>
      </trkpt>
      <trkpt lat="50.20163" lon="4.384">
        <ele>248</ele>
        <time>2016-8-7T10:59:2.000Z</time>
      </trkpt>
      <trkpt lat="50.20162" lon="4.38402">
        <ele>248</ele>
        <time>2016-8-7T10:59:2.000Z</time>
      </trkpt>
      <trkpt lat="50.20162" lon="4.38402">
        <ele>248</ele>
        <time>2016-8-7T10:59:2.000Z</time>
      </trkpt>
      <trkpt lat="50.20162" lon="4.38404">
        <ele>248</ele>
        <time>2016-8-7T10:59:2.000Z</time>
      </trkpt>
      <trkpt lat="50.20162" lon="4.38404">
        <ele>248</ele>
        <time>2016-8-7T10:59:2.000Z</time>
      </trkpt>
      <trkpt lat="50.20159" lon="4.38414">
        <ele>248</ele>
        <time>2016-8-7T10:59:2.000Z</time>
      </trkpt>
      <trkpt lat="50.20159" lon="4.38414">
        <ele>248</ele>
        <time>2016-8-7T10:59:2.000Z</time>
      </trkpt>
      <trkpt lat="50.20156" lon="4.38426">
        <ele>248.5</ele>
        <time>2016-8-7T10:59:2.000Z</time>
      </trkpt>
      <trkpt lat="50.20156" lon="4.38426">
        <ele>248.5</ele>
        <time>2016-8-7T10:59:2.000Z</time>
      </trkpt>
      <trkpt lat="50.20154" lon="4.3843">
        <ele>248.5</ele>
        <time>2016-8-7T10:59:2.000Z</time>
      </trkpt>
      <trkpt lat="50.20154" lon="4.3843">
        <ele>248.5</ele>
        <time>2016-8-7T10:59:2.000Z</time>
      </trkpt>
      <trkpt lat="50.20154" lon="4.38434">
        <ele>248.5</ele>
        <time>2016-8-7T10:59:2.000Z</time>
      </trkpt>
      <trkpt lat="50.20154" lon="4.38434">
        <ele>248.5</ele>
        <time>2016-8-7T10:59:2.000Z</time>
      </trkpt>
      <trkpt lat="50.20153" lon="4.38449">
        <ele>248.5</ele>
        <time>2016-8-7T10:59:2.000Z</time>
      </trkpt>
      <trkpt lat="50.20153" lon="4.38449">
        <ele>248.5</ele>
        <time>2016-8-7T10:59:2.000Z</time>
      </trkpt>
      <trkpt lat="50.20153" lon="4.38475">
        <ele>248</ele>
        <time>2016-8-7T11:5:47.000Z</time>
      </trkpt>
      <trkpt lat="50.20153" lon="4.38475">
        <ele>248</ele>
        <time>2016-8-7T11:5:47.000Z</time>
      </trkpt>
      <trkpt lat="50.20153" lon="4.38477">
        <ele>248</ele>
        <time>2016-8-7T11:5:47.000Z</time>
      </trkpt>
      <trkpt lat="50.20153" lon="4.38477">
        <ele>248</ele>
        <time>2016-8-7T11:5:47.000Z</time>
      </trkpt>
      <trkpt lat="50.20153" lon="4.38481">
        <ele>248</ele>
        <time>2016-8-7T11:5:47.000Z</time>
      </trkpt>
      <trkpt lat="50.20153" lon="4.38481">
        <ele>248</ele>
        <time>2016-8-7T11:5:47.000Z</time>
      </trkpt>
      <trkpt lat="50.20152" lon="4.38489">
        <ele>248</ele>
        <time>2016-8-7T11:5:47.000Z</time>
      </trkpt>
      <trkpt lat="50.20152" lon="4.38489">
        <ele>248</ele>
        <time>2016-8-7T11:5:47.000Z</time>
      </trkpt>
      <trkpt lat="50.20151" lon="4.38495">
        <ele>248</ele>
        <time>2016-8-7T11:5:47.000Z</time>
      </trkpt>
      <trkpt lat="50.20151" lon="4.38495">
        <ele>248</ele>
        <time>2016-8-7T11:5:47.000Z</time>
      </trkpt>
      <trkpt lat="50.2015" lon="4.38499">
        <ele>248.5</ele>
        <time>2016-8-7T11:5:47.000Z</time>
      </trkpt>
      <trkpt lat="50.2015" lon="4.38499">
        <ele>248.5</ele>
        <time>2016-8-7T11:5:47.000Z</time>
      </trkpt>
      <trkpt lat="50.2015" lon="4.38502">
        <ele>248.5</ele>
        <time>2016-8-7T11:5:47.000Z</time>
      </trkpt>
      <trkpt lat="50.2015" lon="4.38502">
        <ele>248.5</ele>
        <time>2016-8-7T11:5:47.000Z</time>
      </trkpt>
      <trkpt lat="50.20149" lon="4.38506">
        <ele>248.5</ele>
        <time>2016-8-7T11:5:47.000Z</time>
      </trkpt>
      <trkpt lat="50.20149" lon="4.38506">
        <ele>248.5</ele>
        <time>2016-8-7T11:5:47.000Z</time>
      </trkpt>
      <trkpt lat="50.20149" lon="4.38508">
        <ele>248</ele>
        <time>2016-8-7T11:5:47.000Z</time>
      </trkpt>
      <trkpt lat="50.20149" lon="4.38508">
        <ele>248</ele>
        <time>2016-8-7T11:5:47.000Z</time>
      </trkpt>
      <trkpt lat="50.20147" lon="4.3852">
        <ele>248.5</ele>
        <time>2016-8-7T11:5:47.000Z</time>
      </trkpt>
      <trkpt lat="50.20147" lon="4.3852">
        <ele>248.5</ele>
        <time>2016-8-7T11:5:47.000Z</time>
      </trkpt>
      <trkpt lat="50.20145" lon="4.38528">
        <ele>249</ele>
        <time>2016-8-7T11:5:47.000Z</time>
      </trkpt>
      <trkpt lat="50.20145" lon="4.38528">
        <ele>249</ele>
        <time>2016-8-7T11:5:47.000Z</time>
      </trkpt>
      <trkpt lat="50.20144" lon="4.38533">
        <ele>248.5</ele>
        <time>2016-8-7T11:5:47.000Z</time>
      </trkpt>
      <trkpt lat="50.20144" lon="4.38533">
        <ele>248.5</ele>
        <time>2016-8-7T11:5:47.000Z</time>
      </trkpt>
      <trkpt lat="50.20143" lon="4.38538">
        <ele>249</ele>
        <time>2016-8-7T11:5:47.000Z</time>
      </trkpt>
      <trkpt lat="50.20143" lon="4.38538">
        <ele>249</ele>
        <time>2016-8-7T11:5:47.000Z</time>
      </trkpt>
      <trkpt lat="50.20052" lon="4.38768">
        <ele>234.5</ele>
        <time>2016-8-7T11:5:47.000Z</time>
      </trkpt>
      <trkpt lat="50.20052" lon="4.38768">
        <ele>234.5</ele>
        <time>2016-8-7T11:5:47.000Z</time>
      </trkpt>
      <trkpt lat="50.20011" lon="4.3877">
        <ele>231.5</ele>
        <time>2016-8-7T11:5:47.000Z</time>
      </trkpt>
      <trkpt lat="50.20011" lon="4.3877">
        <ele>231.5</ele>
        <time>2016-8-7T11:5:47.000Z</time>
      </trkpt>
      <trkpt lat="50.2001" lon="4.3877">
        <ele>230.5</ele>
        <time>2016-8-7T11:5:47.000Z</time>
      </trkpt>
      <trkpt lat="50.2001" lon="4.3877">
        <ele>230.5</ele>
        <time>2016-8-7T11:5:47.000Z</time>
      </trkpt>
      <trkpt lat="50.20008" lon="4.3877">
        <ele>230.5</ele>
        <time>2016-8-7T11:5:47.000Z</time>
      </trkpt>
      <trkpt lat="50.20008" lon="4.3877">
        <ele>230.5</ele>
        <time>2016-8-7T11:5:47.000Z</time>
      </trkpt>
      <trkpt lat="50.19877" lon="4.38856">
        <ele>214.5</ele>
        <time>2016-8-7T11:5:47.000Z</time>
      </trkpt>
      <trkpt lat="50.19877" lon="4.38856">
        <ele>214.5</ele>
        <time>2016-8-7T11:5:47.000Z</time>
      </trkpt>
      <trkpt lat="50.19828" lon="4.38892">
        <ele>216.5</ele>
        <time>2016-8-7T11:5:47.000Z</time>
      </trkpt>
      <trkpt lat="50.19828" lon="4.38892">
        <ele>216.5</ele>
        <time>2016-8-7T11:5:47.000Z</time>
      </trkpt>
      <trkpt lat="50.19827" lon="4.38894">
        <ele>216.5</ele>
        <time>2016-8-7T11:5:47.000Z</time>
      </trkpt>
      <trkpt lat="50.19827" lon="4.38894">
        <ele>216.5</ele>
        <time>2016-8-7T11:5:47.000Z</time>
      </trkpt>
      <trkpt lat="50.1983" lon="4.38894">
        <ele>215</ele>
        <time>2016-8-7T11:5:47.000Z</time>
      </trkpt>
      <trkpt lat="50.1983" lon="4.38894">
        <ele>215</ele>
        <time>2016-8-7T11:5:47.000Z</time>
      </trkpt>
      <trkpt lat="50.19826" lon="4.38897">
        <ele>215</ele>
        <time>2016-8-7T11:5:47.000Z</time>
      </trkpt>
      <trkpt lat="50.19826" lon="4.38897">
        <ele>215</ele>
        <time>2016-8-7T11:5:47.000Z</time>
      </trkpt>
      <trkpt lat="50.19824" lon="4.38898">
        <ele>214.5</ele>
        <time>2016-8-7T11:5:47.000Z</time>
      </trkpt>
      <trkpt lat="50.19824" lon="4.38898">
        <ele>214.5</ele>
        <time>2016-8-7T11:5:47.000Z</time>
      </trkpt>
      <trkpt lat="50.19822" lon="4.38899">
        <ele>214.5</ele>
        <time>2016-8-7T11:5:47.000Z</time>
      </trkpt>
      <trkpt lat="50.19822" lon="4.38899">
        <ele>214.5</ele>
        <time>2016-8-7T11:5:47.000Z</time>
      </trkpt>
      <trkpt lat="50.1982" lon="4.389">
        <ele>214</ele>
        <time>2016-8-7T11:5:47.000Z</time>
      </trkpt>
      <trkpt lat="50.1982" lon="4.389">
        <ele>214</ele>
        <time>2016-8-7T11:5:47.000Z</time>
      </trkpt>
      <trkpt lat="50.19818" lon="4.38901">
        <ele>213.5</ele>
        <time>2016-8-7T11:5:47.000Z</time>
      </trkpt>
      <trkpt lat="50.19818" lon="4.38901">
        <ele>213.5</ele>
        <time>2016-8-7T11:5:47.000Z</time>
      </trkpt>
      <trkpt lat="50.19816" lon="4.38902">
        <ele>213.5</ele>
        <time>2016-8-7T11:5:47.000Z</time>
      </trkpt>
      <trkpt lat="50.19816" lon="4.38902">
        <ele>213.5</ele>
        <time>2016-8-7T11:5:47.000Z</time>
      </trkpt>
      <trkpt lat="50.19814" lon="4.38902">
        <ele>213.5</ele>
        <time>2016-8-7T11:5:47.000Z</time>
      </trkpt>
      <trkpt lat="50.19814" lon="4.38902">
        <ele>213.5</ele>
        <time>2016-8-7T11:5:47.000Z</time>
      </trkpt>
      <trkpt lat="50.19813" lon="4.38902">
        <ele>213</ele>
        <time>2016-8-7T11:5:47.000Z</time>
      </trkpt>
      <trkpt lat="50.19813" lon="4.38902">
        <ele>213</ele>
        <time>2016-8-7T11:5:47.000Z</time>
      </trkpt>
      <trkpt lat="50.19811" lon="4.38903">
        <ele>213</ele>
        <time>2016-8-7T11:5:47.000Z</time>
      </trkpt>
      <trkpt lat="50.19811" lon="4.38903">
        <ele>213</ele>
        <time>2016-8-7T11:5:47.000Z</time>
      </trkpt>
      <trkpt lat="50.19809" lon="4.38903">
        <ele>213</ele>
        <time>2016-8-7T11:5:47.000Z</time>
      </trkpt>
      <trkpt lat="50.19809" lon="4.38903">
        <ele>213</ele>
        <time>2016-8-7T11:5:47.000Z</time>
      </trkpt>
      <trkpt lat="50.19808" lon="4.38903">
        <ele>213</ele>
        <time>2016-8-7T11:5:47.000Z</time>
      </trkpt>
      <trkpt lat="50.19808" lon="4.38903">
        <ele>213</ele>
        <time>2016-8-7T11:5:47.000Z</time>
      </trkpt>
      <trkpt lat="50.19806" lon="4.38903">
        <ele>213</ele>
        <time>2016-8-7T11:5:47.000Z</time>
      </trkpt>
      <trkpt lat="50.19806" lon="4.38903">
        <ele>213</ele>
        <time>2016-8-7T11:5:47.000Z</time>
      </trkpt>
      <trkpt lat="50.19804" lon="4.38903">
        <ele>213.5</ele>
        <time>2016-8-7T11:5:47.000Z</time>
      </trkpt>
      <trkpt lat="50.19804" lon="4.38903">
        <ele>213.5</ele>
        <time>2016-8-7T11:5:47.000Z</time>
      </trkpt>
      <trkpt lat="50.19802" lon="4.38903">
        <ele>213</ele>
        <time>2016-8-7T11:5:47.000Z</time>
      </trkpt>
      <trkpt lat="50.19802" lon="4.38903">
        <ele>213</ele>
        <time>2016-8-7T11:5:47.000Z</time>
      </trkpt>
      <trkpt lat="50.19799" lon="4.38902">
        <ele>213</ele>
        <time>2016-8-7T11:5:47.000Z</time>
      </trkpt>
      <trkpt lat="50.19799" lon="4.38902">
        <ele>213</ele>
        <time>2016-8-7T11:5:47.000Z</time>
      </trkpt>
      <trkpt lat="50.19796" lon="4.38901">
        <ele>213.5</ele>
        <time>2016-8-7T11:5:47.000Z</time>
      </trkpt>
      <trkpt lat="50.19796" lon="4.38901">
        <ele>213.5</ele>
        <time>2016-8-7T11:5:47.000Z</time>
      </trkpt>
      <trkpt lat="50.19794" lon="4.38901">
        <ele>213</ele>
        <time>2016-8-7T11:5:47.000Z</time>
      </trkpt>
      <trkpt lat="50.19794" lon="4.38901">
        <ele>213</ele>
        <time>2016-8-7T11:5:47.000Z</time>
      </trkpt>
      <trkpt lat="50.19792" lon="4.389">
        <ele>213</ele>
        <time>2016-8-7T11:5:47.000Z</time>
      </trkpt>
      <trkpt lat="50.19792" lon="4.389">
        <ele>213</ele>
        <time>2016-8-7T11:5:47.000Z</time>
      </trkpt>
      <trkpt lat="50.19789" lon="4.389">
        <ele>213</ele>
        <time>2016-8-7T11:5:47.000Z</time>
      </trkpt>
      <trkpt lat="50.19789" lon="4.389">
        <ele>213</ele>
        <time>2016-8-7T11:5:47.000Z</time>
      </trkpt>
      <trkpt lat="50.19788" lon="4.389">
        <ele>213</ele>
        <time>2016-8-7T11:5:47.000Z</time>
      </trkpt>
      <trkpt lat="50.19788" lon="4.389">
        <ele>213</ele>
        <time>2016-8-7T11:5:47.000Z</time>
      </trkpt>
      <trkpt lat="50.19786" lon="4.389">
        <ele>212.5</ele>
        <time>2016-8-7T11:5:47.000Z</time>
      </trkpt>
      <trkpt lat="50.19786" lon="4.389">
        <ele>212.5</ele>
        <time>2016-8-7T11:5:47.000Z</time>
      </trkpt>
      <trkpt lat="50.19784" lon="4.389">
        <ele>212.5</ele>
        <time>2016-8-7T11:5:47.000Z</time>
      </trkpt>
      <trkpt lat="50.19784" lon="4.389">
        <ele>212.5</ele>
        <time>2016-8-7T11:5:47.000Z</time>
      </trkpt>
      <trkpt lat="50.19782" lon="4.38898">
        <ele>212.5</ele>
        <time>2016-8-7T11:5:47.000Z</time>
      </trkpt>
      <trkpt lat="50.19782" lon="4.38898">
        <ele>212.5</ele>
        <time>2016-8-7T11:5:47.000Z</time>
      </trkpt>
      <trkpt lat="50.19779" lon="4.38897">
        <ele>212.5</ele>
        <time>2016-8-7T11:5:47.000Z</time>
      </trkpt>
      <trkpt lat="50.19779" lon="4.38897">
        <ele>212.5</ele>
        <time>2016-8-7T11:5:47.000Z</time>
      </trkpt>
      <trkpt lat="50.19777" lon="4.38897">
        <ele>212.5</ele>
        <time>2016-8-7T11:5:47.000Z</time>
      </trkpt>
      <trkpt lat="50.19777" lon="4.38897">
        <ele>212.5</ele>
        <time>2016-8-7T11:5:47.000Z</time>
      </trkpt>
      <trkpt lat="50.19775" lon="4.38896">
        <ele>213</ele>
        <time>2016-8-7T11:5:47.000Z</time>
      </trkpt>
      <trkpt lat="50.19775" lon="4.38896">
        <ele>213</ele>
        <time>2016-8-7T11:5:47.000Z</time>
      </trkpt>
      <trkpt lat="50.19773" lon="4.38896">
        <ele>213</ele>
        <time>2016-8-7T11:5:47.000Z</time>
      </trkpt>
      <trkpt lat="50.19773" lon="4.38896">
        <ele>213</ele>
        <time>2016-8-7T11:5:47.000Z</time>
      </trkpt>
      <trkpt lat="50.19771" lon="4.38896">
        <ele>214</ele>
        <time>2016-8-7T11:5:47.000Z</time>
      </trkpt>
      <trkpt lat="50.19771" lon="4.38896">
        <ele>214</ele>
        <time>2016-8-7T11:5:47.000Z</time>
      </trkpt>
      <trkpt lat="50.19769" lon="4.38895">
        <ele>214.5</ele>
        <time>2016-8-7T11:5:47.000Z</time>
      </trkpt>
      <trkpt lat="50.19769" lon="4.38895">
        <ele>214.5</ele>
        <time>2016-8-7T11:5:47.000Z</time>
      </trkpt>
      <trkpt lat="50.19768" lon="4.38894">
        <ele>215.5</ele>
        <time>2016-8-7T11:5:47.000Z</time>
      </trkpt>
      <trkpt lat="50.19768" lon="4.38894">
        <ele>215.5</ele>
        <time>2016-8-7T11:6:59.000Z</time>
      </trkpt>
      <trkpt lat="50.19766" lon="4.38891">
        <ele>215.5</ele>
        <time>2016-8-7T11:6:59.000Z</time>
      </trkpt>
      <trkpt lat="50.19766" lon="4.38891">
        <ele>215.5</ele>
        <time>2016-8-7T11:6:59.000Z</time>
      </trkpt>
      <trkpt lat="50.19765" lon="4.38889">
        <ele>215.5</ele>
        <time>2016-8-7T11:6:59.000Z</time>
      </trkpt>
      <trkpt lat="50.19765" lon="4.38889">
        <ele>215.5</ele>
        <time>2016-8-7T11:6:59.000Z</time>
      </trkpt>
      <trkpt lat="50.19763" lon="4.38886">
        <ele>215.5</ele>
        <time>2016-8-7T11:6:59.000Z</time>
      </trkpt>
      <trkpt lat="50.19763" lon="4.38886">
        <ele>215.5</ele>
        <time>2016-8-7T11:6:59.000Z</time>
      </trkpt>
      <trkpt lat="50.19761" lon="4.38885">
        <ele>215.5</ele>
        <time>2016-8-7T11:6:59.000Z</time>
      </trkpt>
      <trkpt lat="50.19761" lon="4.38885">
        <ele>215.5</ele>
        <time>2016-8-7T11:6:59.000Z</time>
      </trkpt>
      <trkpt lat="50.19759" lon="4.38883">
        <ele>215.5</ele>
        <time>2016-8-7T11:6:59.000Z</time>
      </trkpt>
      <trkpt lat="50.19759" lon="4.38883">
        <ele>215.5</ele>
        <time>2016-8-7T11:6:59.000Z</time>
      </trkpt>
      <trkpt lat="50.19757" lon="4.38882">
        <ele>216.5</ele>
        <time>2016-8-7T11:6:59.000Z</time>
      </trkpt>
      <trkpt lat="50.19757" lon="4.38882">
        <ele>216.5</ele>
        <time>2016-8-7T11:6:59.000Z</time>
      </trkpt>
      <trkpt lat="50.19754" lon="4.38881">
        <ele>216.5</ele>
        <time>2016-8-7T11:6:59.000Z</time>
      </trkpt>
      <trkpt lat="50.19754" lon="4.38881">
        <ele>216.5</ele>
        <time>2016-8-7T11:6:59.000Z</time>
      </trkpt>
      <trkpt lat="50.19753" lon="4.38879">
        <ele>217</ele>
        <time>2016-8-7T11:6:59.000Z</time>
      </trkpt>
      <trkpt lat="50.19753" lon="4.38879">
        <ele>217</ele>
        <time>2016-8-7T11:6:59.000Z</time>
      </trkpt>
      <trkpt lat="50.1975" lon="4.38879">
        <ele>216.5</ele>
        <time>2016-8-7T11:6:59.000Z</time>
      </trkpt>
      <trkpt lat="50.1975" lon="4.38879">
        <ele>216.5</ele>
        <time>2016-8-7T11:6:59.000Z</time>
      </trkpt>
      <trkpt lat="50.19749" lon="4.38878">
        <ele>216.5</ele>
        <time>2016-8-7T11:6:59.000Z</time>
      </trkpt>
      <trkpt lat="50.19749" lon="4.38878">
        <ele>216.5</ele>
        <time>2016-8-7T11:6:59.000Z</time>
      </trkpt>
      <trkpt lat="50.19747" lon="4.38879">
        <ele>216.5</ele>
        <time>2016-8-7T11:6:59.000Z</time>
      </trkpt>
      <trkpt lat="50.19747" lon="4.38879">
        <ele>216.5</ele>
        <time>2016-8-7T11:6:59.000Z</time>
      </trkpt>
      <trkpt lat="50.19745" lon="4.38878">
        <ele>216.5</ele>
        <time>2016-8-7T11:6:59.000Z</time>
      </trkpt>
      <trkpt lat="50.19745" lon="4.38878">
        <ele>216.5</ele>
        <time>2016-8-7T11:6:59.000Z</time>
      </trkpt>
      <trkpt lat="50.19744" lon="4.38878">
        <ele>216.5</ele>
        <time>2016-8-7T11:6:59.000Z</time>
      </trkpt>
      <trkpt lat="50.19744" lon="4.38878">
        <ele>216.5</ele>
        <time>2016-8-7T11:6:59.000Z</time>
      </trkpt>
      <trkpt lat="50.19742" lon="4.38878">
        <ele>216.5</ele>
        <time>2016-8-7T11:6:59.000Z</time>
      </trkpt>
      <trkpt lat="50.19742" lon="4.38878">
        <ele>216.5</ele>
        <time>2016-8-7T11:6:59.000Z</time>
      </trkpt>
      <trkpt lat="50.1974" lon="4.38876">
        <ele>216.5</ele>
        <time>2016-8-7T11:6:59.000Z</time>
      </trkpt>
      <trkpt lat="50.1974" lon="4.38876">
        <ele>216.5</ele>
        <time>2016-8-7T11:6:59.000Z</time>
      </trkpt>
      <trkpt lat="50.19739" lon="4.38874">
        <ele>216.5</ele>
        <time>2016-8-7T11:6:59.000Z</time>
      </trkpt>
      <trkpt lat="50.19739" lon="4.38874">
        <ele>216.5</ele>
        <time>2016-8-7T11:6:59.000Z</time>
      </trkpt>
      <trkpt lat="50.19738" lon="4.38872">
        <ele>216.5</ele>
        <time>2016-8-7T11:6:59.000Z</time>
      </trkpt>
      <trkpt lat="50.19738" lon="4.38872">
        <ele>216.5</ele>
        <time>2016-8-7T11:6:59.000Z</time>
      </trkpt>
      <trkpt lat="50.19737" lon="4.3887">
        <ele>216.5</ele>
        <time>2016-8-7T11:6:59.000Z</time>
      </trkpt>
      <trkpt lat="50.19737" lon="4.3887">
        <ele>216.5</ele>
        <time>2016-8-7T11:6:59.000Z</time>
      </trkpt>
      <trkpt lat="50.19735" lon="4.38869">
        <ele>216.5</ele>
        <time>2016-8-7T11:6:59.000Z</time>
      </trkpt>
      <trkpt lat="50.19735" lon="4.38869">
        <ele>216.5</ele>
        <time>2016-8-7T11:6:59.000Z</time>
      </trkpt>
      <trkpt lat="50.19734" lon="4.38869">
        <ele>216.5</ele>
        <time>2016-8-7T11:6:59.000Z</time>
      </trkpt>
      <trkpt lat="50.19734" lon="4.38869">
        <ele>216.5</ele>
        <time>2016-8-7T11:6:59.000Z</time>
      </trkpt>
      <trkpt lat="50.19732" lon="4.38867">
        <ele>216.5</ele>
        <time>2016-8-7T11:6:59.000Z</time>
      </trkpt>
      <trkpt lat="50.19732" lon="4.38867">
        <ele>216.5</ele>
        <time>2016-8-7T11:6:59.000Z</time>
      </trkpt>
      <trkpt lat="50.19729" lon="4.38866">
        <ele>216</ele>
        <time>2016-8-7T11:6:59.000Z</time>
      </trkpt>
      <trkpt lat="50.19729" lon="4.38866">
        <ele>216</ele>
        <time>2016-8-7T11:6:59.000Z</time>
      </trkpt>
      <trkpt lat="50.19728" lon="4.38865">
        <ele>216</ele>
        <time>2016-8-7T11:6:59.000Z</time>
      </trkpt>
      <trkpt lat="50.19728" lon="4.38865">
        <ele>216</ele>
        <time>2016-8-7T11:6:59.000Z</time>
      </trkpt>
      <trkpt lat="50.19726" lon="4.38863">
        <ele>216</ele>
        <time>2016-8-7T11:6:59.000Z</time>
      </trkpt>
      <trkpt lat="50.19726" lon="4.38863">
        <ele>216</ele>
        <time>2016-8-7T11:6:59.000Z</time>
      </trkpt>
      <trkpt lat="50.19726" lon="4.38862">
        <ele>216</ele>
        <time>2016-8-7T11:6:59.000Z</time>
      </trkpt>
      <trkpt lat="50.19726" lon="4.38862">
        <ele>216</ele>
        <time>2016-8-7T11:6:59.000Z</time>
      </trkpt>
      <trkpt lat="50.19724" lon="4.3886">
        <ele>216.5</ele>
        <time>2016-8-7T11:6:59.000Z</time>
      </trkpt>
      <trkpt lat="50.19724" lon="4.3886">
        <ele>216.5</ele>
        <time>2016-8-7T11:6:59.000Z</time>
      </trkpt>
      <trkpt lat="50.19722" lon="4.38858">
        <ele>216.5</ele>
        <time>2016-8-7T11:6:59.000Z</time>
      </trkpt>
      <trkpt lat="50.19722" lon="4.38858">
        <ele>216.5</ele>
        <time>2016-8-7T11:6:59.000Z</time>
      </trkpt>
      <trkpt lat="50.19721" lon="4.38855">
        <ele>216.5</ele>
        <time>2016-8-7T11:6:59.000Z</time>
      </trkpt>
      <trkpt lat="50.19721" lon="4.38855">
        <ele>216.5</ele>
        <time>2016-8-7T11:6:59.000Z</time>
      </trkpt>
      <trkpt lat="50.19718" lon="4.38856">
        <ele>216.5</ele>
        <time>2016-8-7T11:6:59.000Z</time>
      </trkpt>
      <trkpt lat="50.19718" lon="4.38856">
        <ele>216.5</ele>
        <time>2016-8-7T11:6:59.000Z</time>
      </trkpt>
      <trkpt lat="50.19716" lon="4.38854">
        <ele>217</ele>
        <time>2016-8-7T11:6:59.000Z</time>
      </trkpt>
      <trkpt lat="50.19716" lon="4.38854">
        <ele>217</ele>
        <time>2016-8-7T11:6:59.000Z</time>
      </trkpt>
      <trkpt lat="50.19714" lon="4.38851">
        <ele>217</ele>
        <time>2016-8-7T11:6:59.000Z</time>
      </trkpt>
      <trkpt lat="50.19714" lon="4.38851">
        <ele>217</ele>
        <time>2016-8-7T11:6:59.000Z</time>
      </trkpt>
      <trkpt lat="50.19712" lon="4.38849">
        <ele>217</ele>
        <time>2016-8-7T11:6:59.000Z</time>
      </trkpt>
      <trkpt lat="50.19712" lon="4.38849">
        <ele>217</ele>
        <time>2016-8-7T11:6:59.000Z</time>
      </trkpt>
      <trkpt lat="50.19712" lon="4.38847">
        <ele>217</ele>
        <time>2016-8-7T11:6:59.000Z</time>
      </trkpt>
      <trkpt lat="50.19712" lon="4.38847">
        <ele>217</ele>
        <time>2016-8-7T11:6:59.000Z</time>
      </trkpt>
      <trkpt lat="50.1971" lon="4.38845">
        <ele>217</ele>
        <time>2016-8-7T11:6:59.000Z</time>
      </trkpt>
      <trkpt lat="50.1971" lon="4.38845">
        <ele>217</ele>
        <time>2016-8-7T11:6:59.000Z</time>
      </trkpt>
      <trkpt lat="50.19709" lon="4.38844">
        <ele>217</ele>
        <time>2016-8-7T11:6:59.000Z</time>
      </trkpt>
      <trkpt lat="50.19709" lon="4.38844">
        <ele>217</ele>
        <time>2016-8-7T11:6:59.000Z</time>
      </trkpt>
      <trkpt lat="50.19707" lon="4.38842">
        <ele>217</ele>
        <time>2016-8-7T11:6:59.000Z</time>
      </trkpt>
      <trkpt lat="50.19707" lon="4.38842">
        <ele>217</ele>
        <time>2016-8-7T11:6:59.000Z</time>
      </trkpt>
      <trkpt lat="50.19705" lon="4.3884">
        <ele>217.5</ele>
        <time>2016-8-7T11:6:59.000Z</time>
      </trkpt>
      <trkpt lat="50.19705" lon="4.3884">
        <ele>217.5</ele>
        <time>2016-8-7T11:6:59.000Z</time>
      </trkpt>
      <trkpt lat="50.19704" lon="4.38838">
        <ele>217</ele>
        <time>2016-8-7T11:6:59.000Z</time>
      </trkpt>
      <trkpt lat="50.19704" lon="4.38838">
        <ele>217</ele>
        <time>2016-8-7T11:6:59.000Z</time>
      </trkpt>
      <trkpt lat="50.19703" lon="4.38836">
        <ele>217</ele>
        <time>2016-8-7T11:6:59.000Z</time>
      </trkpt>
      <trkpt lat="50.19703" lon="4.38836">
        <ele>217</ele>
        <time>2016-8-7T11:6:59.000Z</time>
      </trkpt>
      <trkpt lat="50.19701" lon="4.38834">
        <ele>217</ele>
        <time>2016-8-7T11:6:59.000Z</time>
      </trkpt>
      <trkpt lat="50.19701" lon="4.38834">
        <ele>217</ele>
        <time>2016-8-7T11:6:59.000Z</time>
      </trkpt>
      <trkpt lat="50.197" lon="4.38833">
        <ele>217.5</ele>
        <time>2016-8-7T11:6:59.000Z</time>
      </trkpt>
      <trkpt lat="50.197" lon="4.38833">
        <ele>217.5</ele>
        <time>2016-8-7T11:6:59.000Z</time>
      </trkpt>
      <trkpt lat="50.19699" lon="4.38831">
        <ele>217.5</ele>
        <time>2016-8-7T11:6:59.000Z</time>
      </trkpt>
      <trkpt lat="50.19699" lon="4.38831">
        <ele>217.5</ele>
        <time>2016-8-7T11:6:59.000Z</time>
      </trkpt>
      <trkpt lat="50.19698" lon="4.3883">
        <ele>217.5</ele>
        <time>2016-8-7T11:6:59.000Z</time>
      </trkpt>
      <trkpt lat="50.19698" lon="4.3883">
        <ele>217.5</ele>
        <time>2016-8-7T11:6:59.000Z</time>
      </trkpt>
      <trkpt lat="50.19697" lon="4.38829">
        <ele>217.5</ele>
        <time>2016-8-7T11:6:59.000Z</time>
      </trkpt>
      <trkpt lat="50.19697" lon="4.38829">
        <ele>217.5</ele>
        <time>2016-8-7T11:6:59.000Z</time>
      </trkpt>
      <trkpt lat="50.19695" lon="4.38826">
        <ele>218</ele>
        <time>2016-8-7T11:6:59.000Z</time>
      </trkpt>
      <trkpt lat="50.19695" lon="4.38826">
        <ele>218</ele>
        <time>2016-8-7T11:6:59.000Z</time>
      </trkpt>
      <trkpt lat="50.19694" lon="4.38825">
        <ele>218</ele>
        <time>2016-8-7T11:6:59.000Z</time>
      </trkpt>
      <trkpt lat="50.19694" lon="4.38825">
        <ele>218</ele>
        <time>2016-8-7T11:6:59.000Z</time>
      </trkpt>
      <trkpt lat="50.19692" lon="4.38823">
        <ele>219.5</ele>
        <time>2016-8-7T11:6:59.000Z</time>
      </trkpt>
      <trkpt lat="50.19692" lon="4.38823">
        <ele>219.5</ele>
        <time>2016-8-7T11:6:59.000Z</time>
      </trkpt>
      <trkpt lat="50.19691" lon="4.38821">
        <ele>219.5</ele>
        <time>2016-8-7T11:6:59.000Z</time>
      </trkpt>
      <trkpt lat="50.19691" lon="4.38821">
        <ele>219.5</ele>
        <time>2016-8-7T11:6:59.000Z</time>
      </trkpt>
      <trkpt lat="50.1969" lon="4.38819">
        <ele>219.5</ele>
        <time>2016-8-7T11:6:59.000Z</time>
      </trkpt>
      <trkpt lat="50.1969" lon="4.38819">
        <ele>219.5</ele>
        <time>2016-8-7T11:6:59.000Z</time>
      </trkpt>
      <trkpt lat="50.19688" lon="4.38816">
        <ele>218.5</ele>
        <time>2016-8-7T11:6:59.000Z</time>
      </trkpt>
      <trkpt lat="50.19688" lon="4.38816">
        <ele>218.5</ele>
        <time>2016-8-7T11:6:59.000Z</time>
      </trkpt>
      <trkpt lat="50.19687" lon="4.38814">
        <ele>218.5</ele>
        <time>2016-8-7T11:9:16.000Z</time>
      </trkpt>
      <trkpt lat="50.19687" lon="4.38814">
        <ele>218.5</ele>
        <time>2016-8-7T11:9:16.000Z</time>
      </trkpt>
      <trkpt lat="50.19686" lon="4.38811">
        <ele>219.5</ele>
        <time>2016-8-7T11:9:16.000Z</time>
      </trkpt>
      <trkpt lat="50.19686" lon="4.38811">
        <ele>219.5</ele>
        <time>2016-8-7T11:9:16.000Z</time>
      </trkpt>
      <trkpt lat="50.19685" lon="4.38809">
        <ele>219.5</ele>
        <time>2016-8-7T11:9:16.000Z</time>
      </trkpt>
      <trkpt lat="50.19685" lon="4.38809">
        <ele>219.5</ele>
        <time>2016-8-7T11:9:16.000Z</time>
      </trkpt>
      <trkpt lat="50.19683" lon="4.38807">
        <ele>218.5</ele>
        <time>2016-8-7T11:9:16.000Z</time>
      </trkpt>
      <trkpt lat="50.19683" lon="4.38807">
        <ele>218.5</ele>
        <time>2016-8-7T11:9:16.000Z</time>
      </trkpt>
      <trkpt lat="50.19681" lon="4.38804">
        <ele>218.5</ele>
        <time>2016-8-7T11:9:16.000Z</time>
      </trkpt>
      <trkpt lat="50.19681" lon="4.38804">
        <ele>218.5</ele>
        <time>2016-8-7T11:9:16.000Z</time>
      </trkpt>
      <trkpt lat="50.19679" lon="4.388">
        <ele>219.5</ele>
        <time>2016-8-7T11:9:16.000Z</time>
      </trkpt>
      <trkpt lat="50.19679" lon="4.388">
        <ele>219.5</ele>
        <time>2016-8-7T11:9:16.000Z</time>
      </trkpt>
      <trkpt lat="50.19678" lon="4.38798">
        <ele>219.5</ele>
        <time>2016-8-7T11:9:16.000Z</time>
      </trkpt>
      <trkpt lat="50.19678" lon="4.38798">
        <ele>219.5</ele>
        <time>2016-8-7T11:9:16.000Z</time>
      </trkpt>
      <trkpt lat="50.19677" lon="4.38795">
        <ele>219</ele>
        <time>2016-8-7T11:9:16.000Z</time>
      </trkpt>
      <trkpt lat="50.19677" lon="4.38795">
        <ele>219</ele>
        <time>2016-8-7T11:9:16.000Z</time>
      </trkpt>
      <trkpt lat="50.19674" lon="4.38792">
        <ele>220.5</ele>
        <time>2016-8-7T11:9:16.000Z</time>
      </trkpt>
      <trkpt lat="50.19674" lon="4.38792">
        <ele>220.5</ele>
        <time>2016-8-7T11:9:16.000Z</time>
      </trkpt>
      <trkpt lat="50.19674" lon="4.38789">
        <ele>219.5</ele>
        <time>2016-8-7T11:9:16.000Z</time>
      </trkpt>
      <trkpt lat="50.19674" lon="4.38789">
        <ele>219.5</ele>
        <time>2016-8-7T11:9:16.000Z</time>
      </trkpt>
      <trkpt lat="50.19673" lon="4.38787">
        <ele>219.5</ele>
        <time>2016-8-7T11:9:16.000Z</time>
      </trkpt>
      <trkpt lat="50.19673" lon="4.38787">
        <ele>219.5</ele>
        <time>2016-8-7T11:9:16.000Z</time>
      </trkpt>
      <trkpt lat="50.19672" lon="4.38785">
        <ele>219.5</ele>
        <time>2016-8-7T11:9:16.000Z</time>
      </trkpt>
      <trkpt lat="50.19672" lon="4.38785">
        <ele>219.5</ele>
        <time>2016-8-7T11:9:16.000Z</time>
      </trkpt>
      <trkpt lat="50.19671" lon="4.38782">
        <ele>219.5</ele>
        <time>2016-8-7T11:9:16.000Z</time>
      </trkpt>
      <trkpt lat="50.19671" lon="4.38782">
        <ele>219.5</ele>
        <time>2016-8-7T11:9:16.000Z</time>
      </trkpt>
      <trkpt lat="50.1967" lon="4.3878">
        <ele>219.5</ele>
        <time>2016-8-7T11:9:16.000Z</time>
      </trkpt>
      <trkpt lat="50.1967" lon="4.3878">
        <ele>219.5</ele>
        <time>2016-8-7T11:9:16.000Z</time>
      </trkpt>
      <trkpt lat="50.19669" lon="4.38777">
        <ele>219.5</ele>
        <time>2016-8-7T11:9:16.000Z</time>
      </trkpt>
      <trkpt lat="50.19669" lon="4.38777">
        <ele>219.5</ele>
        <time>2016-8-7T11:9:16.000Z</time>
      </trkpt>
      <trkpt lat="50.19668" lon="4.38774">
        <ele>219.5</ele>
        <time>2016-8-7T11:9:16.000Z</time>
      </trkpt>
      <trkpt lat="50.19668" lon="4.38774">
        <ele>219.5</ele>
        <time>2016-8-7T11:9:16.000Z</time>
      </trkpt>
      <trkpt lat="50.19666" lon="4.3877">
        <ele>220</ele>
        <time>2016-8-7T11:9:16.000Z</time>
      </trkpt>
      <trkpt lat="50.19666" lon="4.3877">
        <ele>220</ele>
        <time>2016-8-7T11:9:16.000Z</time>
      </trkpt>
      <trkpt lat="50.19664" lon="4.38768">
        <ele>219.5</ele>
        <time>2016-8-7T11:9:16.000Z</time>
      </trkpt>
      <trkpt lat="50.19664" lon="4.38768">
        <ele>219.5</ele>
        <time>2016-8-7T11:9:16.000Z</time>
      </trkpt>
      <trkpt lat="50.19662" lon="4.38767">
        <ele>220</ele>
        <time>2016-8-7T11:9:16.000Z</time>
      </trkpt>
      <trkpt lat="50.19662" lon="4.38767">
        <ele>220</ele>
        <time>2016-8-7T11:9:16.000Z</time>
      </trkpt>
      <trkpt lat="50.1966" lon="4.38765">
        <ele>220</ele>
        <time>2016-8-7T11:9:16.000Z</time>
      </trkpt>
      <trkpt lat="50.1966" lon="4.38765">
        <ele>220</ele>
        <time>2016-8-7T11:9:16.000Z</time>
      </trkpt>
      <trkpt lat="50.19658" lon="4.38763">
        <ele>220</ele>
        <time>2016-8-7T11:9:16.000Z</time>
      </trkpt>
      <trkpt lat="50.19658" lon="4.38763">
        <ele>220</ele>
        <time>2016-8-7T11:9:16.000Z</time>
      </trkpt>
      <trkpt lat="50.19656" lon="4.38761">
        <ele>219.5</ele>
        <time>2016-8-7T11:9:16.000Z</time>
      </trkpt>
      <trkpt lat="50.19656" lon="4.38761">
        <ele>219.5</ele>
        <time>2016-8-7T11:9:16.000Z</time>
      </trkpt>
      <trkpt lat="50.19655" lon="4.38759">
        <ele>219.5</ele>
        <time>2016-8-7T11:9:16.000Z</time>
      </trkpt>
      <trkpt lat="50.19655" lon="4.38759">
        <ele>219.5</ele>
        <time>2016-8-7T11:9:16.000Z</time>
      </trkpt>
      <trkpt lat="50.19653" lon="4.38757">
        <ele>219.5</ele>
        <time>2016-8-7T11:9:16.000Z</time>
      </trkpt>
      <trkpt lat="50.19653" lon="4.38757">
        <ele>219.5</ele>
        <time>2016-8-7T11:9:16.000Z</time>
      </trkpt>
      <trkpt lat="50.19651" lon="4.38755">
        <ele>219.5</ele>
        <time>2016-8-7T11:9:16.000Z</time>
      </trkpt>
      <trkpt lat="50.19651" lon="4.38755">
        <ele>219.5</ele>
        <time>2016-8-7T11:9:16.000Z</time>
      </trkpt>
      <trkpt lat="50.19651" lon="4.38753">
        <ele>219.5</ele>
        <time>2016-8-7T11:9:16.000Z</time>
      </trkpt>
      <trkpt lat="50.19651" lon="4.38753">
        <ele>219.5</ele>
        <time>2016-8-7T11:9:16.000Z</time>
      </trkpt>
      <trkpt lat="50.1965" lon="4.38751">
        <ele>219.5</ele>
        <time>2016-8-7T11:9:16.000Z</time>
      </trkpt>
      <trkpt lat="50.1965" lon="4.38751">
        <ele>219.5</ele>
        <time>2016-8-7T11:9:16.000Z</time>
      </trkpt>
      <trkpt lat="50.19648" lon="4.38748">
        <ele>218.5</ele>
        <time>2016-8-7T11:9:16.000Z</time>
      </trkpt>
      <trkpt lat="50.19648" lon="4.38748">
        <ele>218.5</ele>
        <time>2016-8-7T11:9:16.000Z</time>
      </trkpt>
      <trkpt lat="50.19647" lon="4.38746">
        <ele>218.5</ele>
        <time>2016-8-7T11:9:16.000Z</time>
      </trkpt>
      <trkpt lat="50.19647" lon="4.38746">
        <ele>218.5</ele>
        <time>2016-8-7T11:9:16.000Z</time>
      </trkpt>
      <trkpt lat="50.19646" lon="4.38743">
        <ele>218.5</ele>
        <time>2016-8-7T11:9:16.000Z</time>
      </trkpt>
      <trkpt lat="50.19646" lon="4.38743">
        <ele>218.5</ele>
        <time>2016-8-7T11:9:16.000Z</time>
      </trkpt>
      <trkpt lat="50.19645" lon="4.38741">
        <ele>218.5</ele>
        <time>2016-8-7T11:9:16.000Z</time>
      </trkpt>
      <trkpt lat="50.19645" lon="4.38741">
        <ele>218.5</ele>
        <time>2016-8-7T11:9:16.000Z</time>
      </trkpt>
      <trkpt lat="50.19644" lon="4.38738">
        <ele>218.5</ele>
        <time>2016-8-7T11:9:16.000Z</time>
      </trkpt>
      <trkpt lat="50.19644" lon="4.38738">
        <ele>218.5</ele>
        <time>2016-8-7T11:9:16.000Z</time>
      </trkpt>
      <trkpt lat="50.19643" lon="4.38735">
        <ele>218.5</ele>
        <time>2016-8-7T11:9:16.000Z</time>
      </trkpt>
      <trkpt lat="50.19643" lon="4.38735">
        <ele>218.5</ele>
        <time>2016-8-7T11:9:16.000Z</time>
      </trkpt>
      <trkpt lat="50.19642" lon="4.38732">
        <ele>217.5</ele>
        <time>2016-8-7T11:9:16.000Z</time>
      </trkpt>
      <trkpt lat="50.19642" lon="4.38732">
        <ele>217.5</ele>
        <time>2016-8-7T11:9:16.000Z</time>
      </trkpt>
      <trkpt lat="50.19641" lon="4.38729">
        <ele>217.5</ele>
        <time>2016-8-7T11:9:16.000Z</time>
      </trkpt>
      <trkpt lat="50.19641" lon="4.38729">
        <ele>217.5</ele>
        <time>2016-8-7T11:9:16.000Z</time>
      </trkpt>
      <trkpt lat="50.19641" lon="4.38726">
        <ele>217.5</ele>
        <time>2016-8-7T11:9:16.000Z</time>
      </trkpt>
      <trkpt lat="50.19641" lon="4.38726">
        <ele>217.5</ele>
        <time>2016-8-7T11:9:16.000Z</time>
      </trkpt>
      <trkpt lat="50.19641" lon="4.38723">
        <ele>217.5</ele>
        <time>2016-8-7T11:9:16.000Z</time>
      </trkpt>
      <trkpt lat="50.19641" lon="4.38723">
        <ele>217.5</ele>
        <time>2016-8-7T11:9:16.000Z</time>
      </trkpt>
      <trkpt lat="50.19641" lon="4.3872">
        <ele>217.5</ele>
        <time>2016-8-7T11:9:16.000Z</time>
      </trkpt>
      <trkpt lat="50.19641" lon="4.3872">
        <ele>217.5</ele>
        <time>2016-8-7T11:9:16.000Z</time>
      </trkpt>
      <trkpt lat="50.19641" lon="4.38716">
        <ele>216.5</ele>
        <time>2016-8-7T11:9:16.000Z</time>
      </trkpt>
      <trkpt lat="50.19641" lon="4.38716">
        <ele>216.5</ele>
        <time>2016-8-7T11:9:16.000Z</time>
      </trkpt>
      <trkpt lat="50.19642" lon="4.38713">
        <ele>217.5</ele>
        <time>2016-8-7T11:9:16.000Z</time>
      </trkpt>
      <trkpt lat="50.19642" lon="4.38713">
        <ele>217.5</ele>
        <time>2016-8-7T11:9:16.000Z</time>
      </trkpt>
      <trkpt lat="50.19641" lon="4.38708">
        <ele>216.5</ele>
        <time>2016-8-7T11:9:16.000Z</time>
      </trkpt>
      <trkpt lat="50.19641" lon="4.38708">
        <ele>216.5</ele>
        <time>2016-8-7T11:9:16.000Z</time>
      </trkpt>
      <trkpt lat="50.19641" lon="4.38706">
        <ele>217.5</ele>
        <time>2016-8-7T11:9:16.000Z</time>
      </trkpt>
      <trkpt lat="50.19641" lon="4.38706">
        <ele>217.5</ele>
        <time>2016-8-7T11:9:16.000Z</time>
      </trkpt>
      <trkpt lat="50.19644" lon="4.3863">
        <ele>217.5</ele>
        <time>2016-8-7T11:9:16.000Z</time>
      </trkpt>
      <trkpt lat="50.19644" lon="4.3863">
        <ele>217.5</ele>
        <time>2016-8-7T11:9:16.000Z</time>
      </trkpt>
      <trkpt lat="50.19644" lon="4.38627">
        <ele>217</ele>
        <time>2016-8-7T11:9:16.000Z</time>
      </trkpt>
      <trkpt lat="50.19644" lon="4.38627">
        <ele>217</ele>
        <time>2016-8-7T11:9:16.000Z</time>
      </trkpt>
      <trkpt lat="50.19648" lon="4.38575">
        <ele>217</ele>
        <time>2016-8-7T11:9:16.000Z</time>
      </trkpt>
      <trkpt lat="50.19648" lon="4.38575">
        <ele>217</ele>
        <time>2016-8-7T11:9:16.000Z</time>
      </trkpt>
      <trkpt lat="50.19648" lon="4.38573">
        <ele>217</ele>
        <time>2016-8-7T11:9:16.000Z</time>
      </trkpt>
      <trkpt lat="50.19648" lon="4.38573">
        <ele>217</ele>
        <time>2016-8-7T11:9:16.000Z</time>
      </trkpt>
      <trkpt lat="50.19648" lon="4.38571">
        <ele>217</ele>
        <time>2016-8-7T11:9:16.000Z</time>
      </trkpt>
      <trkpt lat="50.19648" lon="4.38571">
        <ele>217</ele>
        <time>2016-8-7T11:9:16.000Z</time>
      </trkpt>
      <trkpt lat="50.19648" lon="4.38568">
        <ele>217</ele>
        <time>2016-8-7T11:9:16.000Z</time>
      </trkpt>
      <trkpt lat="50.19648" lon="4.38568">
        <ele>217</ele>
        <time>2016-8-7T11:9:16.000Z</time>
      </trkpt>
      <trkpt lat="50.19649" lon="4.38565">
        <ele>217</ele>
        <time>2016-8-7T11:9:16.000Z</time>
      </trkpt>
      <trkpt lat="50.19649" lon="4.38565">
        <ele>217</ele>
        <time>2016-8-7T11:9:16.000Z</time>
      </trkpt>
      <trkpt lat="50.19649" lon="4.38563">
        <ele>217</ele>
        <time>2016-8-7T11:9:16.000Z</time>
      </trkpt>
      <trkpt lat="50.19649" lon="4.38563">
        <ele>217</ele>
        <time>2016-8-7T11:9:16.000Z</time>
      </trkpt>
      <trkpt lat="50.19649" lon="4.3856">
        <ele>217</ele>
        <time>2016-8-7T11:9:16.000Z</time>
      </trkpt>
      <trkpt lat="50.19649" lon="4.3856">
        <ele>217</ele>
        <time>2016-8-7T11:10:22.000Z</time>
      </trkpt>
      <trkpt lat="50.1965" lon="4.38556">
        <ele>217</ele>
        <time>2016-8-7T11:10:22.000Z</time>
      </trkpt>
      <trkpt lat="50.1965" lon="4.38556">
        <ele>217</ele>
        <time>2016-8-7T11:10:22.000Z</time>
      </trkpt>
      <trkpt lat="50.1965" lon="4.38554">
        <ele>216.5</ele>
        <time>2016-8-7T11:10:22.000Z</time>
      </trkpt>
      <trkpt lat="50.1965" lon="4.38554">
        <ele>216.5</ele>
        <time>2016-8-7T11:10:22.000Z</time>
      </trkpt>
      <trkpt lat="50.1965" lon="4.3855">
        <ele>216.5</ele>
        <time>2016-8-7T11:10:22.000Z</time>
      </trkpt>
      <trkpt lat="50.1965" lon="4.3855">
        <ele>216.5</ele>
        <time>2016-8-7T11:10:22.000Z</time>
      </trkpt>
      <trkpt lat="50.1965" lon="4.38548">
        <ele>216.5</ele>
        <time>2016-8-7T11:10:22.000Z</time>
      </trkpt>
      <trkpt lat="50.1965" lon="4.38548">
        <ele>216.5</ele>
        <time>2016-8-7T11:10:22.000Z</time>
      </trkpt>
      <trkpt lat="50.1965" lon="4.38544">
        <ele>216.5</ele>
        <time>2016-8-7T11:10:22.000Z</time>
      </trkpt>
      <trkpt lat="50.1965" lon="4.38544">
        <ele>216.5</ele>
        <time>2016-8-7T11:10:22.000Z</time>
      </trkpt>
      <trkpt lat="50.1965" lon="4.38541">
        <ele>216.5</ele>
        <time>2016-8-7T11:10:22.000Z</time>
      </trkpt>
      <trkpt lat="50.1965" lon="4.38541">
        <ele>216.5</ele>
        <time>2016-8-7T11:10:22.000Z</time>
      </trkpt>
      <trkpt lat="50.1965" lon="4.38537">
        <ele>216.5</ele>
        <time>2016-8-7T11:10:22.000Z</time>
      </trkpt>
      <trkpt lat="50.1965" lon="4.38537">
        <ele>216.5</ele>
        <time>2016-8-7T11:10:22.000Z</time>
      </trkpt>
      <trkpt lat="50.1965" lon="4.38533">
        <ele>216</ele>
        <time>2016-8-7T11:10:22.000Z</time>
      </trkpt>
      <trkpt lat="50.1965" lon="4.38533">
        <ele>216</ele>
        <time>2016-8-7T11:10:22.000Z</time>
      </trkpt>
      <trkpt lat="50.1965" lon="4.38531">
        <ele>216</ele>
        <time>2016-8-7T11:10:22.000Z</time>
      </trkpt>
      <trkpt lat="50.1965" lon="4.38531">
        <ele>216</ele>
        <time>2016-8-7T11:10:22.000Z</time>
      </trkpt>
      <trkpt lat="50.1965" lon="4.38529">
        <ele>216</ele>
        <time>2016-8-7T11:10:22.000Z</time>
      </trkpt>
      <trkpt lat="50.1965" lon="4.38529">
        <ele>216</ele>
        <time>2016-8-7T11:10:22.000Z</time>
      </trkpt>
      <trkpt lat="50.1965" lon="4.38524">
        <ele>216</ele>
        <time>2016-8-7T11:10:22.000Z</time>
      </trkpt>
      <trkpt lat="50.1965" lon="4.38524">
        <ele>216</ele>
        <time>2016-8-7T11:10:22.000Z</time>
      </trkpt>
      <trkpt lat="50.1965" lon="4.3852">
        <ele>216</ele>
        <time>2016-8-7T11:10:22.000Z</time>
      </trkpt>
      <trkpt lat="50.1965" lon="4.3852">
        <ele>216</ele>
        <time>2016-8-7T11:10:22.000Z</time>
      </trkpt>
      <trkpt lat="50.19649" lon="4.38518">
        <ele>216</ele>
        <time>2016-8-7T11:10:22.000Z</time>
      </trkpt>
      <trkpt lat="50.19649" lon="4.38518">
        <ele>216</ele>
        <time>2016-8-7T11:10:22.000Z</time>
      </trkpt>
      <trkpt lat="50.19649" lon="4.38513">
        <ele>216</ele>
        <time>2016-8-7T11:10:22.000Z</time>
      </trkpt>
      <trkpt lat="50.19649" lon="4.38513">
        <ele>216</ele>
        <time>2016-8-7T11:10:22.000Z</time>
      </trkpt>
      <trkpt lat="50.19649" lon="4.38509">
        <ele>215.5</ele>
        <time>2016-8-7T11:10:22.000Z</time>
      </trkpt>
      <trkpt lat="50.19649" lon="4.38509">
        <ele>215.5</ele>
        <time>2016-8-7T11:10:22.000Z</time>
      </trkpt>
      <trkpt lat="50.19649" lon="4.38507">
        <ele>215.5</ele>
        <time>2016-8-7T11:10:22.000Z</time>
      </trkpt>
      <trkpt lat="50.19649" lon="4.38507">
        <ele>215.5</ele>
        <time>2016-8-7T11:10:22.000Z</time>
      </trkpt>
      <trkpt lat="50.19649" lon="4.38503">
        <ele>215.5</ele>
        <time>2016-8-7T11:10:22.000Z</time>
      </trkpt>
      <trkpt lat="50.19649" lon="4.38503">
        <ele>215.5</ele>
        <time>2016-8-7T11:10:22.000Z</time>
      </trkpt>
      <trkpt lat="50.19649" lon="4.38499">
        <ele>216</ele>
        <time>2016-8-7T11:10:22.000Z</time>
      </trkpt>
      <trkpt lat="50.19649" lon="4.38499">
        <ele>216</ele>
        <time>2016-8-7T11:10:22.000Z</time>
      </trkpt>
      <trkpt lat="50.19649" lon="4.38496">
        <ele>216</ele>
        <time>2016-8-7T11:10:22.000Z</time>
      </trkpt>
      <trkpt lat="50.19649" lon="4.38496">
        <ele>216</ele>
        <time>2016-8-7T11:10:22.000Z</time>
      </trkpt>
      <trkpt lat="50.19649" lon="4.38492">
        <ele>216</ele>
        <time>2016-8-7T11:10:22.000Z</time>
      </trkpt>
      <trkpt lat="50.19649" lon="4.38492">
        <ele>216</ele>
        <time>2016-8-7T11:10:22.000Z</time>
      </trkpt>
      <trkpt lat="50.19649" lon="4.3849">
        <ele>216</ele>
        <time>2016-8-7T11:10:22.000Z</time>
      </trkpt>
      <trkpt lat="50.19649" lon="4.3849">
        <ele>216</ele>
        <time>2016-8-7T11:10:22.000Z</time>
      </trkpt>
      <trkpt lat="50.19649" lon="4.38487">
        <ele>216</ele>
        <time>2016-8-7T11:10:22.000Z</time>
      </trkpt>
      <trkpt lat="50.19649" lon="4.38487">
        <ele>216</ele>
        <time>2016-8-7T11:10:22.000Z</time>
      </trkpt>
      <trkpt lat="50.19648" lon="4.38485">
        <ele>216</ele>
        <time>2016-8-7T11:10:22.000Z</time>
      </trkpt>
      <trkpt lat="50.19648" lon="4.38485">
        <ele>216</ele>
        <time>2016-8-7T11:10:22.000Z</time>
      </trkpt>
      <trkpt lat="50.19649" lon="4.38483">
        <ele>216</ele>
        <time>2016-8-7T11:10:22.000Z</time>
      </trkpt>
      <trkpt lat="50.19649" lon="4.38483">
        <ele>216</ele>
        <time>2016-8-7T11:10:22.000Z</time>
      </trkpt>
      <trkpt lat="50.19648" lon="4.38477">
        <ele>216.5</ele>
        <time>2016-8-7T11:10:22.000Z</time>
      </trkpt>
      <trkpt lat="50.19648" lon="4.38477">
        <ele>216.5</ele>
        <time>2016-8-7T11:10:22.000Z</time>
      </trkpt>
      <trkpt lat="50.19648" lon="4.38475">
        <ele>216.5</ele>
        <time>2016-8-7T11:10:22.000Z</time>
      </trkpt>
      <trkpt lat="50.19648" lon="4.38475">
        <ele>216.5</ele>
        <time>2016-8-7T11:10:22.000Z</time>
      </trkpt>
      <trkpt lat="50.19648" lon="4.3847">
        <ele>217</ele>
        <time>2016-8-7T11:10:22.000Z</time>
      </trkpt>
      <trkpt lat="50.19648" lon="4.3847">
        <ele>217</ele>
        <time>2016-8-7T11:10:22.000Z</time>
      </trkpt>
      <trkpt lat="50.19648" lon="4.38467">
        <ele>217</ele>
        <time>2016-8-7T11:10:22.000Z</time>
      </trkpt>
      <trkpt lat="50.19648" lon="4.38467">
        <ele>217</ele>
        <time>2016-8-7T11:10:22.000Z</time>
      </trkpt>
      <trkpt lat="50.19648" lon="4.38463">
        <ele>217.5</ele>
        <time>2016-8-7T11:10:22.000Z</time>
      </trkpt>
      <trkpt lat="50.19648" lon="4.38463">
        <ele>217.5</ele>
        <time>2016-8-7T11:10:22.000Z</time>
      </trkpt>
      <trkpt lat="50.19648" lon="4.3846">
        <ele>217.5</ele>
        <time>2016-8-7T11:10:22.000Z</time>
      </trkpt>
      <trkpt lat="50.19648" lon="4.3846">
        <ele>217.5</ele>
        <time>2016-8-7T11:10:22.000Z</time>
      </trkpt>
      <trkpt lat="50.19648" lon="4.38456">
        <ele>217.5</ele>
        <time>2016-8-7T11:10:22.000Z</time>
      </trkpt>
      <trkpt lat="50.19648" lon="4.38456">
        <ele>217.5</ele>
        <time>2016-8-7T11:10:22.000Z</time>
      </trkpt>
      <trkpt lat="50.19648" lon="4.38453">
        <ele>217.5</ele>
        <time>2016-8-7T11:10:22.000Z</time>
      </trkpt>
      <trkpt lat="50.19648" lon="4.38453">
        <ele>217.5</ele>
        <time>2016-8-7T11:10:22.000Z</time>
      </trkpt>
      <trkpt lat="50.1965" lon="4.38449">
        <ele>217.5</ele>
        <time>2016-8-7T11:10:22.000Z</time>
      </trkpt>
      <trkpt lat="50.1965" lon="4.38449">
        <ele>217.5</ele>
        <time>2016-8-7T11:10:22.000Z</time>
      </trkpt>
      <trkpt lat="50.1965" lon="4.38445">
        <ele>217.5</ele>
        <time>2016-8-7T11:10:22.000Z</time>
      </trkpt>
      <trkpt lat="50.1965" lon="4.38445">
        <ele>217.5</ele>
        <time>2016-8-7T11:10:22.000Z</time>
      </trkpt>
      <trkpt lat="50.19651" lon="4.38442">
        <ele>217.5</ele>
        <time>2016-8-7T11:10:22.000Z</time>
      </trkpt>
      <trkpt lat="50.19651" lon="4.38442">
        <ele>217.5</ele>
        <time>2016-8-7T11:10:22.000Z</time>
      </trkpt>
      <trkpt lat="50.19651" lon="4.38438">
        <ele>217.5</ele>
        <time>2016-8-7T11:10:22.000Z</time>
      </trkpt>
      <trkpt lat="50.19651" lon="4.38438">
        <ele>217.5</ele>
        <time>2016-8-7T11:10:22.000Z</time>
      </trkpt>
      <trkpt lat="50.19651" lon="4.38436">
        <ele>217.5</ele>
        <time>2016-8-7T11:10:22.000Z</time>
      </trkpt>
      <trkpt lat="50.19651" lon="4.38436">
        <ele>217.5</ele>
        <time>2016-8-7T11:10:22.000Z</time>
      </trkpt>
      <trkpt lat="50.19651" lon="4.38433">
        <ele>217.5</ele>
        <time>2016-8-7T11:10:22.000Z</time>
      </trkpt>
      <trkpt lat="50.19651" lon="4.38433">
        <ele>217.5</ele>
        <time>2016-8-7T11:10:22.000Z</time>
      </trkpt>
      <trkpt lat="50.19651" lon="4.38429">
        <ele>217.5</ele>
        <time>2016-8-7T11:10:22.000Z</time>
      </trkpt>
      <trkpt lat="50.19651" lon="4.38429">
        <ele>217.5</ele>
        <time>2016-8-7T11:10:22.000Z</time>
      </trkpt>
      <trkpt lat="50.19651" lon="4.38427">
        <ele>217</ele>
        <time>2016-8-7T11:10:22.000Z</time>
      </trkpt>
      <trkpt lat="50.19651" lon="4.38427">
        <ele>217</ele>
        <time>2016-8-7T11:10:22.000Z</time>
      </trkpt>
      <trkpt lat="50.19651" lon="4.38424">
        <ele>217</ele>
        <time>2016-8-7T11:10:22.000Z</time>
      </trkpt>
      <trkpt lat="50.19651" lon="4.38424">
        <ele>217</ele>
        <time>2016-8-7T11:10:22.000Z</time>
      </trkpt>
      <trkpt lat="50.19651" lon="4.38422">
        <ele>217.5</ele>
        <time>2016-8-7T11:10:22.000Z</time>
      </trkpt>
      <trkpt lat="50.19651" lon="4.38422">
        <ele>217.5</ele>
        <time>2016-8-7T11:10:22.000Z</time>
      </trkpt>
      <trkpt lat="50.19652" lon="4.38417">
        <ele>217</ele>
        <time>2016-8-7T11:10:22.000Z</time>
      </trkpt>
      <trkpt lat="50.19652" lon="4.38417">
        <ele>217</ele>
        <time>2016-8-7T11:10:22.000Z</time>
      </trkpt>
      <trkpt lat="50.19652" lon="4.38414">
        <ele>216.5</ele>
        <time>2016-8-7T11:10:22.000Z</time>
      </trkpt>
      <trkpt lat="50.19652" lon="4.38414">
        <ele>216.5</ele>
        <time>2016-8-7T11:10:22.000Z</time>
      </trkpt>
      <trkpt lat="50.19652" lon="4.38412">
        <ele>216.5</ele>
        <time>2016-8-7T11:10:22.000Z</time>
      </trkpt>
      <trkpt lat="50.19652" lon="4.38412">
        <ele>216.5</ele>
        <time>2016-8-7T11:10:22.000Z</time>
      </trkpt>
      <trkpt lat="50.19652" lon="4.38408">
        <ele>216.5</ele>
        <time>2016-8-7T11:10:22.000Z</time>
      </trkpt>
      <trkpt lat="50.19652" lon="4.38408">
        <ele>216.5</ele>
        <time>2016-8-7T11:10:22.000Z</time>
      </trkpt>
      <trkpt lat="50.19653" lon="4.38403">
        <ele>216.5</ele>
        <time>2016-8-7T11:10:22.000Z</time>
      </trkpt>
      <trkpt lat="50.19653" lon="4.38403">
        <ele>216.5</ele>
        <time>2016-8-7T11:10:22.000Z</time>
      </trkpt>
      <trkpt lat="50.19653" lon="4.38402">
        <ele>216.5</ele>
        <time>2016-8-7T11:10:22.000Z</time>
      </trkpt>
      <trkpt lat="50.19653" lon="4.38402">
        <ele>216.5</ele>
        <time>2016-8-7T11:10:22.000Z</time>
      </trkpt>
      <trkpt lat="50.19653" lon="4.38398">
        <ele>216.5</ele>
        <time>2016-8-7T11:10:22.000Z</time>
      </trkpt>
      <trkpt lat="50.19653" lon="4.38398">
        <ele>216.5</ele>
        <time>2016-8-7T11:10:22.000Z</time>
      </trkpt>
      <trkpt lat="50.19653" lon="4.38397">
        <ele>216.5</ele>
        <time>2016-8-7T11:10:22.000Z</time>
      </trkpt>
      <trkpt lat="50.19653" lon="4.38397">
        <ele>216.5</ele>
        <time>2016-8-7T11:10:22.000Z</time>
      </trkpt>
      <trkpt lat="50.19653" lon="4.38393">
        <ele>216.5</ele>
        <time>2016-8-7T11:11:35.000Z</time>
      </trkpt>
      <trkpt lat="50.19653" lon="4.38393">
        <ele>216.5</ele>
        <time>2016-8-7T11:11:35.000Z</time>
      </trkpt>
      <trkpt lat="50.19653" lon="4.3839">
        <ele>216.5</ele>
        <time>2016-8-7T11:11:35.000Z</time>
      </trkpt>
      <trkpt lat="50.19653" lon="4.3839">
        <ele>216.5</ele>
        <time>2016-8-7T11:11:35.000Z</time>
      </trkpt>
      <trkpt lat="50.19653" lon="4.38387">
        <ele>216.5</ele>
        <time>2016-8-7T11:11:35.000Z</time>
      </trkpt>
      <trkpt lat="50.19653" lon="4.38387">
        <ele>216.5</ele>
        <time>2016-8-7T11:11:35.000Z</time>
      </trkpt>
      <trkpt lat="50.19653" lon="4.38385">
        <ele>216.5</ele>
        <time>2016-8-7T11:11:35.000Z</time>
      </trkpt>
      <trkpt lat="50.19653" lon="4.38385">
        <ele>216.5</ele>
        <time>2016-8-7T11:11:35.000Z</time>
      </trkpt>
      <trkpt lat="50.19653" lon="4.38381">
        <ele>216.5</ele>
        <time>2016-8-7T11:11:35.000Z</time>
      </trkpt>
      <trkpt lat="50.19653" lon="4.38381">
        <ele>216.5</ele>
        <time>2016-8-7T11:11:35.000Z</time>
      </trkpt>
      <trkpt lat="50.19653" lon="4.38379">
        <ele>216.5</ele>
        <time>2016-8-7T11:11:35.000Z</time>
      </trkpt>
      <trkpt lat="50.19653" lon="4.38379">
        <ele>216.5</ele>
        <time>2016-8-7T11:11:35.000Z</time>
      </trkpt>
      <trkpt lat="50.19653" lon="4.38375">
        <ele>217</ele>
        <time>2016-8-7T11:11:35.000Z</time>
      </trkpt>
      <trkpt lat="50.19653" lon="4.38375">
        <ele>217</ele>
        <time>2016-8-7T11:11:35.000Z</time>
      </trkpt>
      <trkpt lat="50.19652" lon="4.3837">
        <ele>217</ele>
        <time>2016-8-7T11:11:35.000Z</time>
      </trkpt>
      <trkpt lat="50.19652" lon="4.3837">
        <ele>217</ele>
        <time>2016-8-7T11:11:35.000Z</time>
      </trkpt>
      <trkpt lat="50.19652" lon="4.38368">
        <ele>217</ele>
        <time>2016-8-7T11:11:35.000Z</time>
      </trkpt>
      <trkpt lat="50.19652" lon="4.38368">
        <ele>217</ele>
        <time>2016-8-7T11:11:35.000Z</time>
      </trkpt>
      <trkpt lat="50.19652" lon="4.38364">
        <ele>217</ele>
        <time>2016-8-7T11:11:35.000Z</time>
      </trkpt>
      <trkpt lat="50.19652" lon="4.38364">
        <ele>217</ele>
        <time>2016-8-7T11:11:35.000Z</time>
      </trkpt>
      <trkpt lat="50.19652" lon="4.38362">
        <ele>217.5</ele>
        <time>2016-8-7T11:11:35.000Z</time>
      </trkpt>
      <trkpt lat="50.19652" lon="4.38362">
        <ele>217.5</ele>
        <time>2016-8-7T11:11:35.000Z</time>
      </trkpt>
      <trkpt lat="50.19652" lon="4.38359">
        <ele>217.5</ele>
        <time>2016-8-7T11:11:35.000Z</time>
      </trkpt>
      <trkpt lat="50.19652" lon="4.38359">
        <ele>217.5</ele>
        <time>2016-8-7T11:11:35.000Z</time>
      </trkpt>
      <trkpt lat="50.19652" lon="4.38355">
        <ele>217.5</ele>
        <time>2016-8-7T11:11:35.000Z</time>
      </trkpt>
      <trkpt lat="50.19652" lon="4.38355">
        <ele>217.5</ele>
        <time>2016-8-7T11:11:35.000Z</time>
      </trkpt>
      <trkpt lat="50.19652" lon="4.38351">
        <ele>217.5</ele>
        <time>2016-8-7T11:11:35.000Z</time>
      </trkpt>
      <trkpt lat="50.19652" lon="4.38351">
        <ele>217.5</ele>
        <time>2016-8-7T11:11:35.000Z</time>
      </trkpt>
      <trkpt lat="50.19652" lon="4.38349">
        <ele>217.5</ele>
        <time>2016-8-7T11:11:35.000Z</time>
      </trkpt>
      <trkpt lat="50.19652" lon="4.38349">
        <ele>217.5</ele>
        <time>2016-8-7T11:11:35.000Z</time>
      </trkpt>
      <trkpt lat="50.19653" lon="4.38346">
        <ele>217.5</ele>
        <time>2016-8-7T11:11:35.000Z</time>
      </trkpt>
      <trkpt lat="50.19653" lon="4.38346">
        <ele>217.5</ele>
        <time>2016-8-7T11:11:35.000Z</time>
      </trkpt>
      <trkpt lat="50.19653" lon="4.38344">
        <ele>217.5</ele>
        <time>2016-8-7T11:11:35.000Z</time>
      </trkpt>
      <trkpt lat="50.19653" lon="4.38344">
        <ele>217.5</ele>
        <time>2016-8-7T11:11:35.000Z</time>
      </trkpt>
      <trkpt lat="50.19653" lon="4.3834">
        <ele>217.5</ele>
        <time>2016-8-7T11:11:35.000Z</time>
      </trkpt>
      <trkpt lat="50.19653" lon="4.3834">
        <ele>217.5</ele>
        <time>2016-8-7T11:11:35.000Z</time>
      </trkpt>
      <trkpt lat="50.19653" lon="4.38336">
        <ele>218</ele>
        <time>2016-8-7T11:11:35.000Z</time>
      </trkpt>
      <trkpt lat="50.19653" lon="4.38336">
        <ele>218</ele>
        <time>2016-8-7T11:11:35.000Z</time>
      </trkpt>
      <trkpt lat="50.19653" lon="4.38332">
        <ele>217.5</ele>
        <time>2016-8-7T11:11:35.000Z</time>
      </trkpt>
      <trkpt lat="50.19653" lon="4.38332">
        <ele>217.5</ele>
        <time>2016-8-7T11:11:35.000Z</time>
      </trkpt>
      <trkpt lat="50.19653" lon="4.38328">
        <ele>217.5</ele>
        <time>2016-8-7T11:11:35.000Z</time>
      </trkpt>
      <trkpt lat="50.19653" lon="4.38328">
        <ele>217.5</ele>
        <time>2016-8-7T11:11:35.000Z</time>
      </trkpt>
      <trkpt lat="50.19653" lon="4.38326">
        <ele>217.5</ele>
        <time>2016-8-7T11:11:35.000Z</time>
      </trkpt>
      <trkpt lat="50.19653" lon="4.38326">
        <ele>217.5</ele>
        <time>2016-8-7T11:11:35.000Z</time>
      </trkpt>
      <trkpt lat="50.19653" lon="4.38323">
        <ele>217.5</ele>
        <time>2016-8-7T11:11:35.000Z</time>
      </trkpt>
      <trkpt lat="50.19653" lon="4.38323">
        <ele>217.5</ele>
        <time>2016-8-7T11:11:35.000Z</time>
      </trkpt>
      <trkpt lat="50.19653" lon="4.3832">
        <ele>217.5</ele>
        <time>2016-8-7T11:11:35.000Z</time>
      </trkpt>
      <trkpt lat="50.19653" lon="4.3832">
        <ele>217.5</ele>
        <time>2016-8-7T11:11:35.000Z</time>
      </trkpt>
      <trkpt lat="50.19653" lon="4.38316">
        <ele>217.5</ele>
        <time>2016-8-7T11:11:35.000Z</time>
      </trkpt>
      <trkpt lat="50.19653" lon="4.38316">
        <ele>217.5</ele>
        <time>2016-8-7T11:11:35.000Z</time>
      </trkpt>
      <trkpt lat="50.19653" lon="4.38313">
        <ele>217.5</ele>
        <time>2016-8-7T11:11:35.000Z</time>
      </trkpt>
      <trkpt lat="50.19653" lon="4.38313">
        <ele>217.5</ele>
        <time>2016-8-7T11:11:35.000Z</time>
      </trkpt>
      <trkpt lat="50.19653" lon="4.38308">
        <ele>217</ele>
        <time>2016-8-7T11:11:35.000Z</time>
      </trkpt>
      <trkpt lat="50.19653" lon="4.38308">
        <ele>217</ele>
        <time>2016-8-7T11:11:35.000Z</time>
      </trkpt>
      <trkpt lat="50.19653" lon="4.38303">
        <ele>217.5</ele>
        <time>2016-8-7T11:11:35.000Z</time>
      </trkpt>
      <trkpt lat="50.19653" lon="4.38303">
        <ele>217.5</ele>
        <time>2016-8-7T11:11:35.000Z</time>
      </trkpt>
      <trkpt lat="50.19653" lon="4.38299">
        <ele>218</ele>
        <time>2016-8-7T11:11:35.000Z</time>
      </trkpt>
      <trkpt lat="50.19653" lon="4.38299">
        <ele>218</ele>
        <time>2016-8-7T11:11:35.000Z</time>
      </trkpt>
      <trkpt lat="50.19653" lon="4.38297">
        <ele>218</ele>
        <time>2016-8-7T11:11:35.000Z</time>
      </trkpt>
      <trkpt lat="50.19653" lon="4.38297">
        <ele>218</ele>
        <time>2016-8-7T11:11:35.000Z</time>
      </trkpt>
      <trkpt lat="50.19653" lon="4.38294">
        <ele>218</ele>
        <time>2016-8-7T11:11:35.000Z</time>
      </trkpt>
      <trkpt lat="50.19653" lon="4.38294">
        <ele>218</ele>
        <time>2016-8-7T11:11:35.000Z</time>
      </trkpt>
      <trkpt lat="50.19653" lon="4.38292">
        <ele>218</ele>
        <time>2016-8-7T11:11:35.000Z</time>
      </trkpt>
      <trkpt lat="50.19653" lon="4.38292">
        <ele>218</ele>
        <time>2016-8-7T11:11:35.000Z</time>
      </trkpt>
      <trkpt lat="50.19653" lon="4.38287">
        <ele>218</ele>
        <time>2016-8-7T11:11:35.000Z</time>
      </trkpt>
      <trkpt lat="50.19653" lon="4.38287">
        <ele>218</ele>
        <time>2016-8-7T11:11:35.000Z</time>
      </trkpt>
      <trkpt lat="50.19653" lon="4.38283">
        <ele>218</ele>
        <time>2016-8-7T11:11:35.000Z</time>
      </trkpt>
      <trkpt lat="50.19653" lon="4.38283">
        <ele>218</ele>
        <time>2016-8-7T11:11:35.000Z</time>
      </trkpt>
      <trkpt lat="50.19653" lon="4.38279">
        <ele>218.5</ele>
        <time>2016-8-7T11:11:35.000Z</time>
      </trkpt>
      <trkpt lat="50.19653" lon="4.38279">
        <ele>218.5</ele>
        <time>2016-8-7T11:11:35.000Z</time>
      </trkpt>
      <trkpt lat="50.19653" lon="4.38275">
        <ele>218.5</ele>
        <time>2016-8-7T11:11:35.000Z</time>
      </trkpt>
      <trkpt lat="50.19653" lon="4.38275">
        <ele>218.5</ele>
        <time>2016-8-7T11:11:35.000Z</time>
      </trkpt>
      <trkpt lat="50.19653" lon="4.38273">
        <ele>218.5</ele>
        <time>2016-8-7T11:11:35.000Z</time>
      </trkpt>
      <trkpt lat="50.19653" lon="4.38273">
        <ele>218.5</ele>
        <time>2016-8-7T11:11:35.000Z</time>
      </trkpt>
      <trkpt lat="50.19652" lon="4.38269">
        <ele>218.5</ele>
        <time>2016-8-7T11:11:35.000Z</time>
      </trkpt>
      <trkpt lat="50.19652" lon="4.38269">
        <ele>218.5</ele>
        <time>2016-8-7T11:11:35.000Z</time>
      </trkpt>
      <trkpt lat="50.19651" lon="4.38267">
        <ele>219</ele>
        <time>2016-8-7T11:11:35.000Z</time>
      </trkpt>
      <trkpt lat="50.19651" lon="4.38267">
        <ele>219</ele>
        <time>2016-8-7T11:11:35.000Z</time>
      </trkpt>
      <trkpt lat="50.1965" lon="4.38263">
        <ele>219</ele>
        <time>2016-8-7T11:11:35.000Z</time>
      </trkpt>
      <trkpt lat="50.1965" lon="4.38263">
        <ele>219</ele>
        <time>2016-8-7T11:11:35.000Z</time>
      </trkpt>
      <trkpt lat="50.19649" lon="4.38259">
        <ele>219</ele>
        <time>2016-8-7T11:11:35.000Z</time>
      </trkpt>
      <trkpt lat="50.19649" lon="4.38259">
        <ele>219</ele>
        <time>2016-8-7T11:11:35.000Z</time>
      </trkpt>
      <trkpt lat="50.19649" lon="4.38257">
        <ele>219</ele>
        <time>2016-8-7T11:11:35.000Z</time>
      </trkpt>
      <trkpt lat="50.19649" lon="4.38257">
        <ele>219</ele>
        <time>2016-8-7T11:11:35.000Z</time>
      </trkpt>
      <trkpt lat="50.19648" lon="4.38255">
        <ele>219</ele>
        <time>2016-8-7T11:11:35.000Z</time>
      </trkpt>
      <trkpt lat="50.19648" lon="4.38255">
        <ele>219</ele>
        <time>2016-8-7T11:11:35.000Z</time>
      </trkpt>
      <trkpt lat="50.19646" lon="4.38253">
        <ele>219</ele>
        <time>2016-8-7T11:11:35.000Z</time>
      </trkpt>
      <trkpt lat="50.19646" lon="4.38253">
        <ele>219</ele>
        <time>2016-8-7T11:11:35.000Z</time>
      </trkpt>
      <trkpt lat="50.19644" lon="4.3825">
        <ele>219</ele>
        <time>2016-8-7T11:11:35.000Z</time>
      </trkpt>
      <trkpt lat="50.19644" lon="4.3825">
        <ele>219</ele>
        <time>2016-8-7T11:11:35.000Z</time>
      </trkpt>
      <trkpt lat="50.19643" lon="4.38248">
        <ele>219.5</ele>
        <time>2016-8-7T11:11:35.000Z</time>
      </trkpt>
      <trkpt lat="50.19643" lon="4.38248">
        <ele>219.5</ele>
        <time>2016-8-7T11:11:35.000Z</time>
      </trkpt>
      <trkpt lat="50.19643" lon="4.38246">
        <ele>220</ele>
        <time>2016-8-7T11:11:35.000Z</time>
      </trkpt>
      <trkpt lat="50.19643" lon="4.38246">
        <ele>220</ele>
        <time>2016-8-7T11:11:35.000Z</time>
      </trkpt>
      <trkpt lat="50.19641" lon="4.38245">
        <ele>219.5</ele>
        <time>2016-8-7T11:11:35.000Z</time>
      </trkpt>
      <trkpt lat="50.19641" lon="4.38245">
        <ele>219.5</ele>
        <time>2016-8-7T11:11:35.000Z</time>
      </trkpt>
      <trkpt lat="50.1964" lon="4.38242">
        <ele>219.5</ele>
        <time>2016-8-7T11:11:35.000Z</time>
      </trkpt>
      <trkpt lat="50.1964" lon="4.38242">
        <ele>219.5</ele>
        <time>2016-8-7T11:11:35.000Z</time>
      </trkpt>
      <trkpt lat="50.19638" lon="4.3824">
        <ele>219.5</ele>
        <time>2016-8-7T11:11:35.000Z</time>
      </trkpt>
      <trkpt lat="50.19638" lon="4.3824">
        <ele>219.5</ele>
        <time>2016-8-7T11:11:35.000Z</time>
      </trkpt>
      <trkpt lat="50.19636" lon="4.38238">
        <ele>219.5</ele>
        <time>2016-8-7T11:11:35.000Z</time>
      </trkpt>
      <trkpt lat="50.19636" lon="4.38238">
        <ele>219.5</ele>
        <time>2016-8-7T11:12:47.000Z</time>
      </trkpt>
      <trkpt lat="50.19635" lon="4.38237">
        <ele>219.5</ele>
        <time>2016-8-7T11:12:47.000Z</time>
      </trkpt>
      <trkpt lat="50.19635" lon="4.38237">
        <ele>219.5</ele>
        <time>2016-8-7T11:12:47.000Z</time>
      </trkpt>
      <trkpt lat="50.19633" lon="4.38235">
        <ele>219.5</ele>
        <time>2016-8-7T11:12:47.000Z</time>
      </trkpt>
      <trkpt lat="50.19633" lon="4.38235">
        <ele>219.5</ele>
        <time>2016-8-7T11:12:47.000Z</time>
      </trkpt>
      <trkpt lat="50.19631" lon="4.38234">
        <ele>220</ele>
        <time>2016-8-7T11:12:47.000Z</time>
      </trkpt>
      <trkpt lat="50.19631" lon="4.38234">
        <ele>220</ele>
        <time>2016-8-7T11:12:47.000Z</time>
      </trkpt>
      <trkpt lat="50.19629" lon="4.38233">
        <ele>220.5</ele>
        <time>2016-8-7T11:12:47.000Z</time>
      </trkpt>
      <trkpt lat="50.19629" lon="4.38233">
        <ele>220.5</ele>
        <time>2016-8-7T11:12:47.000Z</time>
      </trkpt>
      <trkpt lat="50.19628" lon="4.38232">
        <ele>221</ele>
        <time>2016-8-7T11:12:47.000Z</time>
      </trkpt>
      <trkpt lat="50.19628" lon="4.38232">
        <ele>221</ele>
        <time>2016-8-7T11:12:47.000Z</time>
      </trkpt>
      <trkpt lat="50.19625" lon="4.3823">
        <ele>221.5</ele>
        <time>2016-8-7T11:12:47.000Z</time>
      </trkpt>
      <trkpt lat="50.19625" lon="4.3823">
        <ele>221.5</ele>
        <time>2016-8-7T11:12:47.000Z</time>
      </trkpt>
      <trkpt lat="50.19624" lon="4.3823">
        <ele>221.5</ele>
        <time>2016-8-7T11:12:47.000Z</time>
      </trkpt>
      <trkpt lat="50.19624" lon="4.3823">
        <ele>221.5</ele>
        <time>2016-8-7T11:12:47.000Z</time>
      </trkpt>
      <trkpt lat="50.19623" lon="4.38229">
        <ele>222</ele>
        <time>2016-8-7T11:12:47.000Z</time>
      </trkpt>
      <trkpt lat="50.19623" lon="4.38229">
        <ele>222</ele>
        <time>2016-8-7T11:12:47.000Z</time>
      </trkpt>
      <trkpt lat="50.19621" lon="4.38228">
        <ele>222</ele>
        <time>2016-8-7T11:12:47.000Z</time>
      </trkpt>
      <trkpt lat="50.19621" lon="4.38228">
        <ele>222</ele>
        <time>2016-8-7T11:12:47.000Z</time>
      </trkpt>
      <trkpt lat="50.19619" lon="4.38228">
        <ele>221.5</ele>
        <time>2016-8-7T11:12:47.000Z</time>
      </trkpt>
      <trkpt lat="50.19619" lon="4.38228">
        <ele>221.5</ele>
        <time>2016-8-7T11:12:47.000Z</time>
      </trkpt>
      <trkpt lat="50.19616" lon="4.38228">
        <ele>221.5</ele>
        <time>2016-8-7T11:12:47.000Z</time>
      </trkpt>
      <trkpt lat="50.19616" lon="4.38228">
        <ele>221.5</ele>
        <time>2016-8-7T11:12:47.000Z</time>
      </trkpt>
      <trkpt lat="50.19614" lon="4.38227">
        <ele>221.5</ele>
        <time>2016-8-7T11:12:47.000Z</time>
      </trkpt>
      <trkpt lat="50.19614" lon="4.38227">
        <ele>221.5</ele>
        <time>2016-8-7T11:12:47.000Z</time>
      </trkpt>
      <trkpt lat="50.19612" lon="4.38227">
        <ele>221.5</ele>
        <time>2016-8-7T11:12:47.000Z</time>
      </trkpt>
      <trkpt lat="50.19612" lon="4.38227">
        <ele>221.5</ele>
        <time>2016-8-7T11:12:47.000Z</time>
      </trkpt>
      <trkpt lat="50.1961" lon="4.38227">
        <ele>221.5</ele>
        <time>2016-8-7T11:12:47.000Z</time>
      </trkpt>
      <trkpt lat="50.1961" lon="4.38227">
        <ele>221.5</ele>
        <time>2016-8-7T11:12:47.000Z</time>
      </trkpt>
      <trkpt lat="50.19609" lon="4.38228">
        <ele>221.5</ele>
        <time>2016-8-7T11:12:47.000Z</time>
      </trkpt>
      <trkpt lat="50.19609" lon="4.38228">
        <ele>221.5</ele>
        <time>2016-8-7T11:12:47.000Z</time>
      </trkpt>
      <trkpt lat="50.19607" lon="4.38229">
        <ele>221.5</ele>
        <time>2016-8-7T11:12:47.000Z</time>
      </trkpt>
      <trkpt lat="50.19607" lon="4.38229">
        <ele>221.5</ele>
        <time>2016-8-7T11:12:47.000Z</time>
      </trkpt>
      <trkpt lat="50.19606" lon="4.38229">
        <ele>221.5</ele>
        <time>2016-8-7T11:12:47.000Z</time>
      </trkpt>
      <trkpt lat="50.19606" lon="4.38229">
        <ele>221.5</ele>
        <time>2016-8-7T11:12:47.000Z</time>
      </trkpt>
      <trkpt lat="50.19605" lon="4.3823">
        <ele>221.5</ele>
        <time>2016-8-7T11:12:47.000Z</time>
      </trkpt>
      <trkpt lat="50.19605" lon="4.3823">
        <ele>221.5</ele>
        <time>2016-8-7T11:12:47.000Z</time>
      </trkpt>
      <trkpt lat="50.19604" lon="4.38231">
        <ele>221.5</ele>
        <time>2016-8-7T11:12:47.000Z</time>
      </trkpt>
      <trkpt lat="50.19604" lon="4.38231">
        <ele>221.5</ele>
        <time>2016-8-7T11:12:47.000Z</time>
      </trkpt>
      <trkpt lat="50.19601" lon="4.38232">
        <ele>221.5</ele>
        <time>2016-8-7T11:12:47.000Z</time>
      </trkpt>
      <trkpt lat="50.19601" lon="4.38232">
        <ele>221.5</ele>
        <time>2016-8-7T11:12:47.000Z</time>
      </trkpt>
      <trkpt lat="50.19599" lon="4.38234">
        <ele>221</ele>
        <time>2016-8-7T11:12:47.000Z</time>
      </trkpt>
      <trkpt lat="50.19599" lon="4.38234">
        <ele>221</ele>
        <time>2016-8-7T11:12:47.000Z</time>
      </trkpt>
      <trkpt lat="50.19597" lon="4.38235">
        <ele>221</ele>
        <time>2016-8-7T11:12:47.000Z</time>
      </trkpt>
      <trkpt lat="50.19597" lon="4.38235">
        <ele>221</ele>
        <time>2016-8-7T11:12:47.000Z</time>
      </trkpt>
      <trkpt lat="50.19595" lon="4.38236">
        <ele>221</ele>
        <time>2016-8-7T11:12:47.000Z</time>
      </trkpt>
      <trkpt lat="50.19595" lon="4.38236">
        <ele>221</ele>
        <time>2016-8-7T11:12:47.000Z</time>
      </trkpt>
      <trkpt lat="50.19592" lon="4.38237">
        <ele>221</ele>
        <time>2016-8-7T11:12:47.000Z</time>
      </trkpt>
      <trkpt lat="50.19592" lon="4.38237">
        <ele>221</ele>
        <time>2016-8-7T11:12:47.000Z</time>
      </trkpt>
      <trkpt lat="50.19591" lon="4.38237">
        <ele>221</ele>
        <time>2016-8-7T11:12:47.000Z</time>
      </trkpt>
      <trkpt lat="50.19591" lon="4.38237">
        <ele>221</ele>
        <time>2016-8-7T11:12:47.000Z</time>
      </trkpt>
      <trkpt lat="50.19589" lon="4.38238">
        <ele>221</ele>
        <time>2016-8-7T11:12:47.000Z</time>
      </trkpt>
      <trkpt lat="50.19589" lon="4.38238">
        <ele>221</ele>
        <time>2016-8-7T11:12:47.000Z</time>
      </trkpt>
      <trkpt lat="50.19586" lon="4.38238">
        <ele>221</ele>
        <time>2016-8-7T11:12:47.000Z</time>
      </trkpt>
      <trkpt lat="50.19586" lon="4.38238">
        <ele>221</ele>
        <time>2016-8-7T11:12:47.000Z</time>
      </trkpt>
      <trkpt lat="50.19584" lon="4.38239">
        <ele>221</ele>
        <time>2016-8-7T11:12:47.000Z</time>
      </trkpt>
      <trkpt lat="50.19584" lon="4.38239">
        <ele>221</ele>
        <time>2016-8-7T11:12:47.000Z</time>
      </trkpt>
      <trkpt lat="50.19582" lon="4.3824">
        <ele>221</ele>
        <time>2016-8-7T11:12:47.000Z</time>
      </trkpt>
      <trkpt lat="50.19582" lon="4.3824">
        <ele>221</ele>
        <time>2016-8-7T11:12:47.000Z</time>
      </trkpt>
      <trkpt lat="50.19579" lon="4.38242">
        <ele>221</ele>
        <time>2016-8-7T11:12:47.000Z</time>
      </trkpt>
      <trkpt lat="50.19579" lon="4.38242">
        <ele>221</ele>
        <time>2016-8-7T11:12:47.000Z</time>
      </trkpt>
      <trkpt lat="50.19577" lon="4.38244">
        <ele>221</ele>
        <time>2016-8-7T11:12:47.000Z</time>
      </trkpt>
      <trkpt lat="50.19577" lon="4.38244">
        <ele>221</ele>
        <time>2016-8-7T11:12:47.000Z</time>
      </trkpt>
      <trkpt lat="50.19576" lon="4.38245">
        <ele>221</ele>
        <time>2016-8-7T11:12:47.000Z</time>
      </trkpt>
      <trkpt lat="50.19576" lon="4.38245">
        <ele>221</ele>
        <time>2016-8-7T11:12:47.000Z</time>
      </trkpt>
      <trkpt lat="50.19575" lon="4.38247">
        <ele>220.5</ele>
        <time>2016-8-7T11:12:47.000Z</time>
      </trkpt>
      <trkpt lat="50.19575" lon="4.38247">
        <ele>220.5</ele>
        <time>2016-8-7T11:12:47.000Z</time>
      </trkpt>
      <trkpt lat="50.19573" lon="4.38249">
        <ele>220.5</ele>
        <time>2016-8-7T11:12:47.000Z</time>
      </trkpt>
      <trkpt lat="50.19573" lon="4.38249">
        <ele>220.5</ele>
        <time>2016-8-7T11:12:47.000Z</time>
      </trkpt>
      <trkpt lat="50.19572" lon="4.38252">
        <ele>220.5</ele>
        <time>2016-8-7T11:12:47.000Z</time>
      </trkpt>
      <trkpt lat="50.19572" lon="4.38252">
        <ele>220.5</ele>
        <time>2016-8-7T11:12:47.000Z</time>
      </trkpt>
      <trkpt lat="50.19571" lon="4.38254">
        <ele>220</ele>
        <time>2016-8-7T11:12:47.000Z</time>
      </trkpt>
      <trkpt lat="50.19571" lon="4.38254">
        <ele>220</ele>
        <time>2016-8-7T11:12:47.000Z</time>
      </trkpt>
      <trkpt lat="50.1957" lon="4.38257">
        <ele>220</ele>
        <time>2016-8-7T11:12:47.000Z</time>
      </trkpt>
      <trkpt lat="50.1957" lon="4.38257">
        <ele>220</ele>
        <time>2016-8-7T11:12:47.000Z</time>
      </trkpt>
      <trkpt lat="50.19569" lon="4.3826">
        <ele>220</ele>
        <time>2016-8-7T11:12:47.000Z</time>
      </trkpt>
      <trkpt lat="50.19569" lon="4.3826">
        <ele>220</ele>
        <time>2016-8-7T11:12:47.000Z</time>
      </trkpt>
      <trkpt lat="50.19568" lon="4.38261">
        <ele>220</ele>
        <time>2016-8-7T11:12:47.000Z</time>
      </trkpt>
      <trkpt lat="50.19568" lon="4.38261">
        <ele>220</ele>
        <time>2016-8-7T11:12:47.000Z</time>
      </trkpt>
      <trkpt lat="50.19568" lon="4.38265">
        <ele>220</ele>
        <time>2016-8-7T11:12:47.000Z</time>
      </trkpt>
      <trkpt lat="50.19568" lon="4.38265">
        <ele>220</ele>
        <time>2016-8-7T11:12:47.000Z</time>
      </trkpt>
      <trkpt lat="50.19568" lon="4.38266">
        <ele>220</ele>
        <time>2016-8-7T11:12:47.000Z</time>
      </trkpt>
      <trkpt lat="50.19568" lon="4.38266">
        <ele>220</ele>
        <time>2016-8-7T11:12:47.000Z</time>
      </trkpt>
      <trkpt lat="50.19567" lon="4.3827">
        <ele>220</ele>
        <time>2016-8-7T11:12:47.000Z</time>
      </trkpt>
      <trkpt lat="50.19567" lon="4.3827">
        <ele>220</ele>
        <time>2016-8-7T11:12:47.000Z</time>
      </trkpt>
      <trkpt lat="50.19567" lon="4.38273">
        <ele>219.5</ele>
        <time>2016-8-7T11:12:47.000Z</time>
      </trkpt>
      <trkpt lat="50.19567" lon="4.38273">
        <ele>219.5</ele>
        <time>2016-8-7T11:12:47.000Z</time>
      </trkpt>
      <trkpt lat="50.19567" lon="4.38277">
        <ele>219.5</ele>
        <time>2016-8-7T11:12:47.000Z</time>
      </trkpt>
      <trkpt lat="50.19567" lon="4.38277">
        <ele>219.5</ele>
        <time>2016-8-7T11:12:47.000Z</time>
      </trkpt>
      <trkpt lat="50.19567" lon="4.38279">
        <ele>219.5</ele>
        <time>2016-8-7T11:12:47.000Z</time>
      </trkpt>
      <trkpt lat="50.19567" lon="4.38279">
        <ele>219.5</ele>
        <time>2016-8-7T11:12:47.000Z</time>
      </trkpt>
      <trkpt lat="50.19568" lon="4.38282">
        <ele>219</ele>
        <time>2016-8-7T11:12:47.000Z</time>
      </trkpt>
      <trkpt lat="50.19568" lon="4.38282">
        <ele>219</ele>
        <time>2016-8-7T11:12:47.000Z</time>
      </trkpt>
      <trkpt lat="50.19569" lon="4.38286">
        <ele>219</ele>
        <time>2016-8-7T11:12:47.000Z</time>
      </trkpt>
      <trkpt lat="50.19569" lon="4.38286">
        <ele>219</ele>
        <time>2016-8-7T11:12:47.000Z</time>
      </trkpt>
      <trkpt lat="50.1957" lon="4.3829">
        <ele>218.5</ele>
        <time>2016-8-7T11:12:47.000Z</time>
      </trkpt>
      <trkpt lat="50.1957" lon="4.3829">
        <ele>218.5</ele>
        <time>2016-8-7T11:12:47.000Z</time>
      </trkpt>
      <trkpt lat="50.19571" lon="4.38294">
        <ele>218.5</ele>
        <time>2016-8-7T11:12:47.000Z</time>
      </trkpt>
      <trkpt lat="50.19571" lon="4.38294">
        <ele>218.5</ele>
        <time>2016-8-7T11:12:47.000Z</time>
      </trkpt>
      <trkpt lat="50.19572" lon="4.38297">
        <ele>218</ele>
        <time>2016-8-7T11:12:47.000Z</time>
      </trkpt>
      <trkpt lat="50.19572" lon="4.38297">
        <ele>218</ele>
        <time>2016-8-7T11:12:47.000Z</time>
      </trkpt>
      <trkpt lat="50.19573" lon="4.383">
        <ele>218</ele>
        <time>2016-8-7T11:14:6.000Z</time>
      </trkpt>
      <trkpt lat="50.19573" lon="4.383">
        <ele>218</ele>
        <time>2016-8-7T11:14:6.000Z</time>
      </trkpt>
      <trkpt lat="50.19574" lon="4.38304">
        <ele>217.5</ele>
        <time>2016-8-7T11:14:6.000Z</time>
      </trkpt>
      <trkpt lat="50.19574" lon="4.38304">
        <ele>217.5</ele>
        <time>2016-8-7T11:14:6.000Z</time>
      </trkpt>
      <trkpt lat="50.19575" lon="4.38307">
        <ele>217.5</ele>
        <time>2016-8-7T11:14:6.000Z</time>
      </trkpt>
      <trkpt lat="50.19575" lon="4.38307">
        <ele>217.5</ele>
        <time>2016-8-7T11:14:6.000Z</time>
      </trkpt>
      <trkpt lat="50.19576" lon="4.38309">
        <ele>217.5</ele>
        <time>2016-8-7T11:14:6.000Z</time>
      </trkpt>
      <trkpt lat="50.19576" lon="4.38309">
        <ele>217.5</ele>
        <time>2016-8-7T11:14:6.000Z</time>
      </trkpt>
      <trkpt lat="50.19577" lon="4.38312">
        <ele>217.5</ele>
        <time>2016-8-7T11:14:6.000Z</time>
      </trkpt>
      <trkpt lat="50.19577" lon="4.38312">
        <ele>217.5</ele>
        <time>2016-8-7T11:14:6.000Z</time>
      </trkpt>
      <trkpt lat="50.19578" lon="4.38316">
        <ele>217.5</ele>
        <time>2016-8-7T11:14:6.000Z</time>
      </trkpt>
      <trkpt lat="50.19578" lon="4.38316">
        <ele>217.5</ele>
        <time>2016-8-7T11:14:6.000Z</time>
      </trkpt>
      <trkpt lat="50.19579" lon="4.38319">
        <ele>217.5</ele>
        <time>2016-8-7T11:14:6.000Z</time>
      </trkpt>
      <trkpt lat="50.19579" lon="4.38319">
        <ele>217.5</ele>
        <time>2016-8-7T11:14:6.000Z</time>
      </trkpt>
      <trkpt lat="50.1958" lon="4.38322">
        <ele>217.5</ele>
        <time>2016-8-7T11:14:6.000Z</time>
      </trkpt>
      <trkpt lat="50.1958" lon="4.38322">
        <ele>217.5</ele>
        <time>2016-8-7T11:14:6.000Z</time>
      </trkpt>
      <trkpt lat="50.19582" lon="4.38325">
        <ele>218</ele>
        <time>2016-8-7T11:14:6.000Z</time>
      </trkpt>
      <trkpt lat="50.19582" lon="4.38325">
        <ele>218</ele>
        <time>2016-8-7T11:14:6.000Z</time>
      </trkpt>
      <trkpt lat="50.19583" lon="4.38329">
        <ele>218</ele>
        <time>2016-8-7T11:14:6.000Z</time>
      </trkpt>
      <trkpt lat="50.19583" lon="4.38329">
        <ele>218</ele>
        <time>2016-8-7T11:14:6.000Z</time>
      </trkpt>
      <trkpt lat="50.19584" lon="4.38332">
        <ele>218</ele>
        <time>2016-8-7T11:14:6.000Z</time>
      </trkpt>
      <trkpt lat="50.19584" lon="4.38332">
        <ele>218</ele>
        <time>2016-8-7T11:14:6.000Z</time>
      </trkpt>
      <trkpt lat="50.19585" lon="4.38334">
        <ele>218</ele>
        <time>2016-8-7T11:14:6.000Z</time>
      </trkpt>
      <trkpt lat="50.19585" lon="4.38334">
        <ele>218</ele>
        <time>2016-8-7T11:14:6.000Z</time>
      </trkpt>
      <trkpt lat="50.19587" lon="4.38337">
        <ele>218</ele>
        <time>2016-8-7T11:14:6.000Z</time>
      </trkpt>
      <trkpt lat="50.19587" lon="4.38337">
        <ele>218</ele>
        <time>2016-8-7T11:14:6.000Z</time>
      </trkpt>
      <trkpt lat="50.19588" lon="4.38341">
        <ele>218.5</ele>
        <time>2016-8-7T11:14:6.000Z</time>
      </trkpt>
      <trkpt lat="50.19588" lon="4.38341">
        <ele>218.5</ele>
        <time>2016-8-7T11:14:6.000Z</time>
      </trkpt>
      <trkpt lat="50.19589" lon="4.38345">
        <ele>218.5</ele>
        <time>2016-8-7T11:14:6.000Z</time>
      </trkpt>
      <trkpt lat="50.19589" lon="4.38345">
        <ele>218.5</ele>
        <time>2016-8-7T11:14:6.000Z</time>
      </trkpt>
      <trkpt lat="50.1959" lon="4.38348">
        <ele>218.5</ele>
        <time>2016-8-7T11:14:6.000Z</time>
      </trkpt>
      <trkpt lat="50.1959" lon="4.38348">
        <ele>218.5</ele>
        <time>2016-8-7T11:14:6.000Z</time>
      </trkpt>
      <trkpt lat="50.19591" lon="4.38352">
        <ele>218.5</ele>
        <time>2016-8-7T11:14:6.000Z</time>
      </trkpt>
      <trkpt lat="50.19591" lon="4.38352">
        <ele>218.5</ele>
        <time>2016-8-7T11:14:6.000Z</time>
      </trkpt>
      <trkpt lat="50.19591" lon="4.38356">
        <ele>218.5</ele>
        <time>2016-8-7T11:14:6.000Z</time>
      </trkpt>
      <trkpt lat="50.19591" lon="4.38356">
        <ele>218.5</ele>
        <time>2016-8-7T11:14:6.000Z</time>
      </trkpt>
      <trkpt lat="50.19591" lon="4.38358">
        <ele>218.5</ele>
        <time>2016-8-7T11:14:6.000Z</time>
      </trkpt>
      <trkpt lat="50.19591" lon="4.38358">
        <ele>218.5</ele>
        <time>2016-8-7T11:14:6.000Z</time>
      </trkpt>
      <trkpt lat="50.19592" lon="4.38362">
        <ele>218.5</ele>
        <time>2016-8-7T11:14:6.000Z</time>
      </trkpt>
      <trkpt lat="50.19592" lon="4.38362">
        <ele>218.5</ele>
        <time>2016-8-7T11:14:6.000Z</time>
      </trkpt>
      <trkpt lat="50.19591" lon="4.38365">
        <ele>218.5</ele>
        <time>2016-8-7T11:14:6.000Z</time>
      </trkpt>
      <trkpt lat="50.19591" lon="4.38365">
        <ele>218.5</ele>
        <time>2016-8-7T11:14:6.000Z</time>
      </trkpt>
      <trkpt lat="50.19591" lon="4.38369">
        <ele>218.5</ele>
        <time>2016-8-7T11:14:6.000Z</time>
      </trkpt>
      <trkpt lat="50.19591" lon="4.38369">
        <ele>218.5</ele>
        <time>2016-8-7T11:14:6.000Z</time>
      </trkpt>
      <trkpt lat="50.19591" lon="4.38373">
        <ele>218.5</ele>
        <time>2016-8-7T11:14:6.000Z</time>
      </trkpt>
      <trkpt lat="50.19591" lon="4.38373">
        <ele>218.5</ele>
        <time>2016-8-7T11:14:6.000Z</time>
      </trkpt>
      <trkpt lat="50.19591" lon="4.38376">
        <ele>218</ele>
        <time>2016-8-7T11:14:6.000Z</time>
      </trkpt>
      <trkpt lat="50.19591" lon="4.38376">
        <ele>218</ele>
        <time>2016-8-7T11:14:6.000Z</time>
      </trkpt>
      <trkpt lat="50.19591" lon="4.38379">
        <ele>218</ele>
        <time>2016-8-7T11:14:6.000Z</time>
      </trkpt>
      <trkpt lat="50.19591" lon="4.38379">
        <ele>218</ele>
        <time>2016-8-7T11:14:6.000Z</time>
      </trkpt>
      <trkpt lat="50.19591" lon="4.38383">
        <ele>218</ele>
        <time>2016-8-7T11:14:6.000Z</time>
      </trkpt>
      <trkpt lat="50.19591" lon="4.38383">
        <ele>218</ele>
        <time>2016-8-7T11:14:6.000Z</time>
      </trkpt>
      <trkpt lat="50.19591" lon="4.38387">
        <ele>218</ele>
        <time>2016-8-7T11:14:6.000Z</time>
      </trkpt>
      <trkpt lat="50.19591" lon="4.38387">
        <ele>218</ele>
        <time>2016-8-7T11:14:6.000Z</time>
      </trkpt>
      <trkpt lat="50.19591" lon="4.38391">
        <ele>218</ele>
        <time>2016-8-7T11:14:6.000Z</time>
      </trkpt>
      <trkpt lat="50.19591" lon="4.38391">
        <ele>218</ele>
        <time>2016-8-7T11:14:6.000Z</time>
      </trkpt>
      <trkpt lat="50.1959" lon="4.38394">
        <ele>217.5</ele>
        <time>2016-8-7T11:14:6.000Z</time>
      </trkpt>
      <trkpt lat="50.1959" lon="4.38394">
        <ele>217.5</ele>
        <time>2016-8-7T11:14:6.000Z</time>
      </trkpt>
      <trkpt lat="50.1959" lon="4.38396">
        <ele>217.5</ele>
        <time>2016-8-7T11:14:6.000Z</time>
      </trkpt>
      <trkpt lat="50.1959" lon="4.38396">
        <ele>217.5</ele>
        <time>2016-8-7T11:14:6.000Z</time>
      </trkpt>
      <trkpt lat="50.1959" lon="4.384">
        <ele>217.5</ele>
        <time>2016-8-7T11:14:6.000Z</time>
      </trkpt>
      <trkpt lat="50.1959" lon="4.384">
        <ele>217.5</ele>
        <time>2016-8-7T11:14:6.000Z</time>
      </trkpt>
      <trkpt lat="50.19589" lon="4.38404">
        <ele>217</ele>
        <time>2016-8-7T11:14:6.000Z</time>
      </trkpt>
      <trkpt lat="50.19589" lon="4.38404">
        <ele>217</ele>
        <time>2016-8-7T11:14:6.000Z</time>
      </trkpt>
      <trkpt lat="50.19588" lon="4.38408">
        <ele>217</ele>
        <time>2016-8-7T11:14:6.000Z</time>
      </trkpt>
      <trkpt lat="50.19588" lon="4.38408">
        <ele>217</ele>
        <time>2016-8-7T11:14:6.000Z</time>
      </trkpt>
      <trkpt lat="50.19588" lon="4.38411">
        <ele>216.5</ele>
        <time>2016-8-7T11:14:6.000Z</time>
      </trkpt>
      <trkpt lat="50.19588" lon="4.38411">
        <ele>216.5</ele>
        <time>2016-8-7T11:14:6.000Z</time>
      </trkpt>
      <trkpt lat="50.19587" lon="4.38413">
        <ele>216.5</ele>
        <time>2016-8-7T11:14:6.000Z</time>
      </trkpt>
      <trkpt lat="50.19587" lon="4.38413">
        <ele>216.5</ele>
        <time>2016-8-7T11:14:6.000Z</time>
      </trkpt>
      <trkpt lat="50.19587" lon="4.38417">
        <ele>216.5</ele>
        <time>2016-8-7T11:14:6.000Z</time>
      </trkpt>
      <trkpt lat="50.19587" lon="4.38417">
        <ele>216.5</ele>
        <time>2016-8-7T11:14:6.000Z</time>
      </trkpt>
      <trkpt lat="50.19586" lon="4.38418">
        <ele>216.5</ele>
        <time>2016-8-7T11:14:6.000Z</time>
      </trkpt>
      <trkpt lat="50.19586" lon="4.38418">
        <ele>216.5</ele>
        <time>2016-8-7T11:14:6.000Z</time>
      </trkpt>
      <trkpt lat="50.19586" lon="4.38421">
        <ele>216.5</ele>
        <time>2016-8-7T11:14:6.000Z</time>
      </trkpt>
      <trkpt lat="50.19586" lon="4.38421">
        <ele>216.5</ele>
        <time>2016-8-7T11:14:6.000Z</time>
      </trkpt>
      <trkpt lat="50.19585" lon="4.38425">
        <ele>216.5</ele>
        <time>2016-8-7T11:14:6.000Z</time>
      </trkpt>
      <trkpt lat="50.19585" lon="4.38425">
        <ele>216.5</ele>
        <time>2016-8-7T11:14:6.000Z</time>
      </trkpt>
      <trkpt lat="50.19585" lon="4.38428">
        <ele>216.5</ele>
        <time>2016-8-7T11:14:6.000Z</time>
      </trkpt>
      <trkpt lat="50.19585" lon="4.38428">
        <ele>216.5</ele>
        <time>2016-8-7T11:14:6.000Z</time>
      </trkpt>
      <trkpt lat="50.19584" lon="4.38431">
        <ele>216</ele>
        <time>2016-8-7T11:14:6.000Z</time>
      </trkpt>
      <trkpt lat="50.19584" lon="4.38431">
        <ele>216</ele>
        <time>2016-8-7T11:14:6.000Z</time>
      </trkpt>
      <trkpt lat="50.19584" lon="4.38434">
        <ele>216</ele>
        <time>2016-8-7T11:14:6.000Z</time>
      </trkpt>
      <trkpt lat="50.19584" lon="4.38434">
        <ele>216</ele>
        <time>2016-8-7T11:14:6.000Z</time>
      </trkpt>
      <trkpt lat="50.19583" lon="4.38438">
        <ele>216</ele>
        <time>2016-8-7T11:14:6.000Z</time>
      </trkpt>
      <trkpt lat="50.19583" lon="4.38438">
        <ele>216</ele>
        <time>2016-8-7T11:14:6.000Z</time>
      </trkpt>
      <trkpt lat="50.19583" lon="4.38441">
        <ele>215.5</ele>
        <time>2016-8-7T11:14:6.000Z</time>
      </trkpt>
      <trkpt lat="50.19583" lon="4.38441">
        <ele>215.5</ele>
        <time>2016-8-7T11:14:6.000Z</time>
      </trkpt>
      <trkpt lat="50.19582" lon="4.38445">
        <ele>215</ele>
        <time>2016-8-7T11:14:6.000Z</time>
      </trkpt>
      <trkpt lat="50.19582" lon="4.38445">
        <ele>215</ele>
        <time>2016-8-7T11:14:6.000Z</time>
      </trkpt>
      <trkpt lat="50.19582" lon="4.38448">
        <ele>215</ele>
        <time>2016-8-7T11:14:6.000Z</time>
      </trkpt>
      <trkpt lat="50.19582" lon="4.38448">
        <ele>215</ele>
        <time>2016-8-7T11:14:6.000Z</time>
      </trkpt>
      <trkpt lat="50.19582" lon="4.3845">
        <ele>215</ele>
        <time>2016-8-7T11:14:6.000Z</time>
      </trkpt>
      <trkpt lat="50.19582" lon="4.3845">
        <ele>215</ele>
        <time>2016-8-7T11:14:6.000Z</time>
      </trkpt>
      <trkpt lat="50.19581" lon="4.38452">
        <ele>215</ele>
        <time>2016-8-7T11:14:6.000Z</time>
      </trkpt>
      <trkpt lat="50.19581" lon="4.38452">
        <ele>215</ele>
        <time>2016-8-7T11:14:6.000Z</time>
      </trkpt>
      <trkpt lat="50.19581" lon="4.38455">
        <ele>215</ele>
        <time>2016-8-7T11:14:6.000Z</time>
      </trkpt>
      <trkpt lat="50.19581" lon="4.38455">
        <ele>215</ele>
        <time>2016-8-7T11:14:6.000Z</time>
      </trkpt>
      <trkpt lat="50.1958" lon="4.38459">
        <ele>215</ele>
        <time>2016-8-7T11:14:6.000Z</time>
      </trkpt>
      <trkpt lat="50.1958" lon="4.38459">
        <ele>215</ele>
        <time>2016-8-7T11:14:6.000Z</time>
      </trkpt>
      <trkpt lat="50.1958" lon="4.3846">
        <ele>215</ele>
        <time>2016-8-7T11:14:6.000Z</time>
      </trkpt>
      <trkpt lat="50.1958" lon="4.3846">
        <ele>215</ele>
        <time>2016-8-7T11:16:54.000Z</time>
      </trkpt>
      <trkpt lat="50.1958" lon="4.38463">
        <ele>215.5</ele>
        <time>2016-8-7T11:16:54.000Z</time>
      </trkpt>
      <trkpt lat="50.1958" lon="4.38463">
        <ele>215.5</ele>
        <time>2016-8-7T11:16:54.000Z</time>
      </trkpt>
      <trkpt lat="50.19579" lon="4.38467">
        <ele>215</ele>
        <time>2016-8-7T11:16:54.000Z</time>
      </trkpt>
      <trkpt lat="50.19579" lon="4.38467">
        <ele>215</ele>
        <time>2016-8-7T11:16:54.000Z</time>
      </trkpt>
      <trkpt lat="50.19579" lon="4.3847">
        <ele>215.5</ele>
        <time>2016-8-7T11:16:54.000Z</time>
      </trkpt>
      <trkpt lat="50.19579" lon="4.3847">
        <ele>215.5</ele>
        <time>2016-8-7T11:16:54.000Z</time>
      </trkpt>
      <trkpt lat="50.19578" lon="4.38473">
        <ele>215.5</ele>
        <time>2016-8-7T11:16:54.000Z</time>
      </trkpt>
      <trkpt lat="50.19578" lon="4.38473">
        <ele>215.5</ele>
        <time>2016-8-7T11:16:54.000Z</time>
      </trkpt>
      <trkpt lat="50.19578" lon="4.38475">
        <ele>215.5</ele>
        <time>2016-8-7T11:16:54.000Z</time>
      </trkpt>
      <trkpt lat="50.19578" lon="4.38475">
        <ele>215.5</ele>
        <time>2016-8-7T11:16:54.000Z</time>
      </trkpt>
      <trkpt lat="50.19577" lon="4.38477">
        <ele>216</ele>
        <time>2016-8-7T11:16:54.000Z</time>
      </trkpt>
      <trkpt lat="50.19577" lon="4.38477">
        <ele>216</ele>
        <time>2016-8-7T11:16:54.000Z</time>
      </trkpt>
      <trkpt lat="50.19576" lon="4.38479">
        <ele>216</ele>
        <time>2016-8-7T11:16:54.000Z</time>
      </trkpt>
      <trkpt lat="50.19576" lon="4.38479">
        <ele>216</ele>
        <time>2016-8-7T11:16:54.000Z</time>
      </trkpt>
      <trkpt lat="50.19576" lon="4.38481">
        <ele>216</ele>
        <time>2016-8-7T11:16:54.000Z</time>
      </trkpt>
      <trkpt lat="50.19576" lon="4.38481">
        <ele>216</ele>
        <time>2016-8-7T11:16:54.000Z</time>
      </trkpt>
      <trkpt lat="50.19575" lon="4.38485">
        <ele>217</ele>
        <time>2016-8-7T11:16:54.000Z</time>
      </trkpt>
      <trkpt lat="50.19575" lon="4.38485">
        <ele>217</ele>
        <time>2016-8-7T11:16:54.000Z</time>
      </trkpt>
      <trkpt lat="50.19574" lon="4.38487">
        <ele>217</ele>
        <time>2016-8-7T11:16:54.000Z</time>
      </trkpt>
      <trkpt lat="50.19574" lon="4.38487">
        <ele>217</ele>
        <time>2016-8-7T11:16:54.000Z</time>
      </trkpt>
      <trkpt lat="50.19573" lon="4.38491">
        <ele>217.5</ele>
        <time>2016-8-7T11:16:54.000Z</time>
      </trkpt>
      <trkpt lat="50.19573" lon="4.38491">
        <ele>217.5</ele>
        <time>2016-8-7T11:16:54.000Z</time>
      </trkpt>
      <trkpt lat="50.19573" lon="4.38495">
        <ele>217.5</ele>
        <time>2016-8-7T11:16:54.000Z</time>
      </trkpt>
      <trkpt lat="50.19573" lon="4.38495">
        <ele>217.5</ele>
        <time>2016-8-7T11:16:54.000Z</time>
      </trkpt>
      <trkpt lat="50.19572" lon="4.385">
        <ele>217.5</ele>
        <time>2016-8-7T11:16:54.000Z</time>
      </trkpt>
      <trkpt lat="50.19572" lon="4.385">
        <ele>217.5</ele>
        <time>2016-8-7T11:16:54.000Z</time>
      </trkpt>
      <trkpt lat="50.19571" lon="4.38501">
        <ele>217.5</ele>
        <time>2016-8-7T11:16:54.000Z</time>
      </trkpt>
      <trkpt lat="50.19571" lon="4.38501">
        <ele>217.5</ele>
        <time>2016-8-7T11:16:54.000Z</time>
      </trkpt>
      <trkpt lat="50.19571" lon="4.38504">
        <ele>217.5</ele>
        <time>2016-8-7T11:16:54.000Z</time>
      </trkpt>
      <trkpt lat="50.19571" lon="4.38504">
        <ele>217.5</ele>
        <time>2016-8-7T11:16:54.000Z</time>
      </trkpt>
      <trkpt lat="50.19571" lon="4.38511">
        <ele>218</ele>
        <time>2016-8-7T11:16:54.000Z</time>
      </trkpt>
      <trkpt lat="50.19571" lon="4.38511">
        <ele>218</ele>
        <time>2016-8-7T11:16:54.000Z</time>
      </trkpt>
      <trkpt lat="50.1957" lon="4.38515">
        <ele>218</ele>
        <time>2016-8-7T11:16:54.000Z</time>
      </trkpt>
      <trkpt lat="50.1957" lon="4.38515">
        <ele>218</ele>
        <time>2016-8-7T11:16:54.000Z</time>
      </trkpt>
      <trkpt lat="50.1957" lon="4.38519">
        <ele>218</ele>
        <time>2016-8-7T11:16:54.000Z</time>
      </trkpt>
      <trkpt lat="50.1957" lon="4.38519">
        <ele>218</ele>
        <time>2016-8-7T11:16:54.000Z</time>
      </trkpt>
      <trkpt lat="50.1957" lon="4.38523">
        <ele>218</ele>
        <time>2016-8-7T11:16:54.000Z</time>
      </trkpt>
      <trkpt lat="50.1957" lon="4.38523">
        <ele>218</ele>
        <time>2016-8-7T11:16:54.000Z</time>
      </trkpt>
      <trkpt lat="50.19569" lon="4.38535">
        <ele>218</ele>
        <time>2016-8-7T11:16:54.000Z</time>
      </trkpt>
      <trkpt lat="50.19569" lon="4.38535">
        <ele>218</ele>
        <time>2016-8-7T11:16:54.000Z</time>
      </trkpt>
      <trkpt lat="50.19568" lon="4.38538">
        <ele>218</ele>
        <time>2016-8-7T11:16:54.000Z</time>
      </trkpt>
      <trkpt lat="50.19568" lon="4.38538">
        <ele>218</ele>
        <time>2016-8-7T11:16:54.000Z</time>
      </trkpt>
      <trkpt lat="50.19568" lon="4.3854">
        <ele>218</ele>
        <time>2016-8-7T11:16:54.000Z</time>
      </trkpt>
      <trkpt lat="50.19568" lon="4.3854">
        <ele>218</ele>
        <time>2016-8-7T11:16:54.000Z</time>
      </trkpt>
      <trkpt lat="50.19566" lon="4.38548">
        <ele>218</ele>
        <time>2016-8-7T11:16:54.000Z</time>
      </trkpt>
      <trkpt lat="50.19566" lon="4.38548">
        <ele>218</ele>
        <time>2016-8-7T11:16:54.000Z</time>
      </trkpt>
      <trkpt lat="50.19564" lon="4.38584">
        <ele>218.5</ele>
        <time>2016-8-7T11:16:54.000Z</time>
      </trkpt>
      <trkpt lat="50.19564" lon="4.38584">
        <ele>218.5</ele>
        <time>2016-8-7T11:16:54.000Z</time>
      </trkpt>
      <trkpt lat="50.19565" lon="4.38599">
        <ele>219</ele>
        <time>2016-8-7T11:16:54.000Z</time>
      </trkpt>
      <trkpt lat="50.19565" lon="4.38599">
        <ele>219</ele>
        <time>2016-8-7T11:16:54.000Z</time>
      </trkpt>
      <trkpt lat="50.19565" lon="4.38606">
        <ele>219</ele>
        <time>2016-8-7T11:16:54.000Z</time>
      </trkpt>
      <trkpt lat="50.19565" lon="4.38606">
        <ele>219</ele>
        <time>2016-8-7T11:16:54.000Z</time>
      </trkpt>
      <trkpt lat="50.19565" lon="4.38609">
        <ele>219.5</ele>
        <time>2016-8-7T11:16:54.000Z</time>
      </trkpt>
      <trkpt lat="50.19565" lon="4.38609">
        <ele>219.5</ele>
        <time>2016-8-7T11:16:54.000Z</time>
      </trkpt>
      <trkpt lat="50.19565" lon="4.38611">
        <ele>219.5</ele>
        <time>2016-8-7T11:16:54.000Z</time>
      </trkpt>
      <trkpt lat="50.19565" lon="4.38611">
        <ele>219.5</ele>
        <time>2016-8-7T11:16:54.000Z</time>
      </trkpt>
      <trkpt lat="50.19565" lon="4.38613">
        <ele>219.5</ele>
        <time>2016-8-7T11:16:54.000Z</time>
      </trkpt>
      <trkpt lat="50.19565" lon="4.38613">
        <ele>219.5</ele>
        <time>2016-8-7T11:16:54.000Z</time>
      </trkpt>
      <trkpt lat="50.19566" lon="4.38615">
        <ele>220</ele>
        <time>2016-8-7T11:16:54.000Z</time>
      </trkpt>
      <trkpt lat="50.19566" lon="4.38615">
        <ele>220</ele>
        <time>2016-8-7T11:16:54.000Z</time>
      </trkpt>
      <trkpt lat="50.19565" lon="4.38625">
        <ele>220</ele>
        <time>2016-8-7T11:16:54.000Z</time>
      </trkpt>
      <trkpt lat="50.19565" lon="4.38625">
        <ele>220</ele>
        <time>2016-8-7T11:16:54.000Z</time>
      </trkpt>
      <trkpt lat="50.19565" lon="4.38629">
        <ele>220.5</ele>
        <time>2016-8-7T11:16:54.000Z</time>
      </trkpt>
      <trkpt lat="50.19565" lon="4.38629">
        <ele>220.5</ele>
        <time>2016-8-7T11:16:54.000Z</time>
      </trkpt>
      <trkpt lat="50.19564" lon="4.38636">
        <ele>220.5</ele>
        <time>2016-8-7T11:16:54.000Z</time>
      </trkpt>
      <trkpt lat="50.19564" lon="4.38636">
        <ele>220.5</ele>
        <time>2016-8-7T11:16:54.000Z</time>
      </trkpt>
      <trkpt lat="50.19581" lon="4.38788">
        <ele>226.5</ele>
        <time>2016-8-7T11:16:54.000Z</time>
      </trkpt>
      <trkpt lat="50.19581" lon="4.38788">
        <ele>226.5</ele>
        <time>2016-8-7T11:16:54.000Z</time>
      </trkpt>
      <trkpt lat="50.19582" lon="4.38791">
        <ele>226.5</ele>
        <time>2016-8-7T11:16:54.000Z</time>
      </trkpt>
      <trkpt lat="50.19582" lon="4.38791">
        <ele>226.5</ele>
        <time>2016-8-7T11:16:54.000Z</time>
      </trkpt>
      <trkpt lat="50.19583" lon="4.38793">
        <ele>226.5</ele>
        <time>2016-8-7T11:16:54.000Z</time>
      </trkpt>
      <trkpt lat="50.19583" lon="4.38793">
        <ele>226.5</ele>
        <time>2016-8-7T11:16:54.000Z</time>
      </trkpt>
      <trkpt lat="50.19584" lon="4.38796">
        <ele>226.5</ele>
        <time>2016-8-7T11:16:54.000Z</time>
      </trkpt>
      <trkpt lat="50.19584" lon="4.38796">
        <ele>226.5</ele>
        <time>2016-8-7T11:16:54.000Z</time>
      </trkpt>
      <trkpt lat="50.19585" lon="4.38798">
        <ele>226.5</ele>
        <time>2016-8-7T11:16:54.000Z</time>
      </trkpt>
      <trkpt lat="50.19585" lon="4.38798">
        <ele>226.5</ele>
        <time>2016-8-7T11:16:54.000Z</time>
      </trkpt>
      <trkpt lat="50.19586" lon="4.388">
        <ele>226.5</ele>
        <time>2016-8-7T11:16:54.000Z</time>
      </trkpt>
      <trkpt lat="50.19586" lon="4.388">
        <ele>226.5</ele>
        <time>2016-8-7T11:16:54.000Z</time>
      </trkpt>
      <trkpt lat="50.19588" lon="4.38804">
        <ele>225.5</ele>
        <time>2016-8-7T11:16:54.000Z</time>
      </trkpt>
      <trkpt lat="50.19588" lon="4.38804">
        <ele>225.5</ele>
        <time>2016-8-7T11:16:54.000Z</time>
      </trkpt>
      <trkpt lat="50.19589" lon="4.38806">
        <ele>225.5</ele>
        <time>2016-8-7T11:16:54.000Z</time>
      </trkpt>
      <trkpt lat="50.19589" lon="4.38806">
        <ele>225.5</ele>
        <time>2016-8-7T11:16:54.000Z</time>
      </trkpt>
      <trkpt lat="50.1959" lon="4.38808">
        <ele>226</ele>
        <time>2016-8-7T11:16:54.000Z</time>
      </trkpt>
      <trkpt lat="50.1959" lon="4.38808">
        <ele>226</ele>
        <time>2016-8-7T11:16:54.000Z</time>
      </trkpt>
      <trkpt lat="50.19591" lon="4.38811">
        <ele>226</ele>
        <time>2016-8-7T11:16:54.000Z</time>
      </trkpt>
      <trkpt lat="50.19591" lon="4.38811">
        <ele>226</ele>
        <time>2016-8-7T11:16:54.000Z</time>
      </trkpt>
      <trkpt lat="50.19593" lon="4.38814">
        <ele>227</ele>
        <time>2016-8-7T11:16:54.000Z</time>
      </trkpt>
      <trkpt lat="50.19593" lon="4.38814">
        <ele>227</ele>
        <time>2016-8-7T11:16:54.000Z</time>
      </trkpt>
      <trkpt lat="50.19594" lon="4.38816">
        <ele>227.5</ele>
        <time>2016-8-7T11:16:54.000Z</time>
      </trkpt>
      <trkpt lat="50.19594" lon="4.38816">
        <ele>227.5</ele>
        <time>2016-8-7T11:16:54.000Z</time>
      </trkpt>
      <trkpt lat="50.19596" lon="4.3882">
        <ele>227.5</ele>
        <time>2016-8-7T11:16:54.000Z</time>
      </trkpt>
      <trkpt lat="50.19596" lon="4.3882">
        <ele>227.5</ele>
        <time>2016-8-7T11:16:54.000Z</time>
      </trkpt>
      <trkpt lat="50.19597" lon="4.38822">
        <ele>227.5</ele>
        <time>2016-8-7T11:16:54.000Z</time>
      </trkpt>
      <trkpt lat="50.19597" lon="4.38822">
        <ele>227.5</ele>
        <time>2016-8-7T11:16:54.000Z</time>
      </trkpt>
      <trkpt lat="50.19599" lon="4.38826">
        <ele>227.5</ele>
        <time>2016-8-7T11:16:54.000Z</time>
      </trkpt>
      <trkpt lat="50.19599" lon="4.38826">
        <ele>227.5</ele>
        <time>2016-8-7T11:16:54.000Z</time>
      </trkpt>
      <trkpt lat="50.196" lon="4.38828">
        <ele>228</ele>
        <time>2016-8-7T11:16:54.000Z</time>
      </trkpt>
      <trkpt lat="50.196" lon="4.38828">
        <ele>228</ele>
        <time>2016-8-7T11:16:54.000Z</time>
      </trkpt>
      <trkpt lat="50.196" lon="4.3883">
        <ele>228</ele>
        <time>2016-8-7T11:16:54.000Z</time>
      </trkpt>
      <trkpt lat="50.196" lon="4.3883">
        <ele>228</ele>
        <time>2016-8-7T11:16:54.000Z</time>
      </trkpt>
      <trkpt lat="50.19602" lon="4.38834">
        <ele>228</ele>
        <time>2016-8-7T11:18:13.000Z</time>
      </trkpt>
      <trkpt lat="50.19602" lon="4.38834">
        <ele>228</ele>
        <time>2016-8-7T11:18:13.000Z</time>
      </trkpt>
      <trkpt lat="50.19603" lon="4.38835">
        <ele>228</ele>
        <time>2016-8-7T11:18:13.000Z</time>
      </trkpt>
      <trkpt lat="50.19603" lon="4.38835">
        <ele>228</ele>
        <time>2016-8-7T11:18:13.000Z</time>
      </trkpt>
      <trkpt lat="50.19604" lon="4.38838">
        <ele>228</ele>
        <time>2016-8-7T11:18:13.000Z</time>
      </trkpt>
      <trkpt lat="50.19604" lon="4.38838">
        <ele>228</ele>
        <time>2016-8-7T11:18:13.000Z</time>
      </trkpt>
      <trkpt lat="50.19606" lon="4.38841">
        <ele>228</ele>
        <time>2016-8-7T11:18:13.000Z</time>
      </trkpt>
      <trkpt lat="50.19606" lon="4.38841">
        <ele>228</ele>
        <time>2016-8-7T11:18:13.000Z</time>
      </trkpt>
      <trkpt lat="50.19607" lon="4.38844">
        <ele>228.5</ele>
        <time>2016-8-7T11:18:13.000Z</time>
      </trkpt>
      <trkpt lat="50.19607" lon="4.38844">
        <ele>228.5</ele>
        <time>2016-8-7T11:18:13.000Z</time>
      </trkpt>
      <trkpt lat="50.19609" lon="4.38848">
        <ele>228</ele>
        <time>2016-8-7T11:18:13.000Z</time>
      </trkpt>
      <trkpt lat="50.19609" lon="4.38848">
        <ele>228</ele>
        <time>2016-8-7T11:18:13.000Z</time>
      </trkpt>
      <trkpt lat="50.1961" lon="4.38851">
        <ele>228</ele>
        <time>2016-8-7T11:18:13.000Z</time>
      </trkpt>
      <trkpt lat="50.1961" lon="4.38851">
        <ele>228</ele>
        <time>2016-8-7T11:18:13.000Z</time>
      </trkpt>
      <trkpt lat="50.19612" lon="4.38856">
        <ele>228</ele>
        <time>2016-8-7T11:18:13.000Z</time>
      </trkpt>
      <trkpt lat="50.19612" lon="4.38856">
        <ele>228</ele>
        <time>2016-8-7T11:18:13.000Z</time>
      </trkpt>
      <trkpt lat="50.19612" lon="4.38858">
        <ele>228</ele>
        <time>2016-8-7T11:18:13.000Z</time>
      </trkpt>
      <trkpt lat="50.19612" lon="4.38858">
        <ele>228</ele>
        <time>2016-8-7T11:18:13.000Z</time>
      </trkpt>
      <trkpt lat="50.19613" lon="4.38859">
        <ele>228</ele>
        <time>2016-8-7T11:18:13.000Z</time>
      </trkpt>
      <trkpt lat="50.19613" lon="4.38859">
        <ele>228</ele>
        <time>2016-8-7T11:18:13.000Z</time>
      </trkpt>
      <trkpt lat="50.19614" lon="4.38862">
        <ele>228</ele>
        <time>2016-8-7T11:18:13.000Z</time>
      </trkpt>
      <trkpt lat="50.19614" lon="4.38862">
        <ele>228</ele>
        <time>2016-8-7T11:18:13.000Z</time>
      </trkpt>
      <trkpt lat="50.19614" lon="4.38863">
        <ele>228</ele>
        <time>2016-8-7T11:18:13.000Z</time>
      </trkpt>
      <trkpt lat="50.19614" lon="4.38863">
        <ele>228</ele>
        <time>2016-8-7T11:18:13.000Z</time>
      </trkpt>
      <trkpt lat="50.19615" lon="4.38865">
        <ele>227.5</ele>
        <time>2016-8-7T11:18:13.000Z</time>
      </trkpt>
      <trkpt lat="50.19615" lon="4.38865">
        <ele>227.5</ele>
        <time>2016-8-7T11:18:13.000Z</time>
      </trkpt>
      <trkpt lat="50.19616" lon="4.38868">
        <ele>227.5</ele>
        <time>2016-8-7T11:18:13.000Z</time>
      </trkpt>
      <trkpt lat="50.19616" lon="4.38868">
        <ele>227.5</ele>
        <time>2016-8-7T11:18:13.000Z</time>
      </trkpt>
      <trkpt lat="50.19617" lon="4.38871">
        <ele>227</ele>
        <time>2016-8-7T11:18:13.000Z</time>
      </trkpt>
      <trkpt lat="50.19617" lon="4.38871">
        <ele>227</ele>
        <time>2016-8-7T11:18:13.000Z</time>
      </trkpt>
      <trkpt lat="50.19618" lon="4.38874">
        <ele>227</ele>
        <time>2016-8-7T11:18:13.000Z</time>
      </trkpt>
      <trkpt lat="50.19618" lon="4.38874">
        <ele>227</ele>
        <time>2016-8-7T11:18:13.000Z</time>
      </trkpt>
      <trkpt lat="50.1962" lon="4.38877">
        <ele>226.5</ele>
        <time>2016-8-7T11:18:13.000Z</time>
      </trkpt>
      <trkpt lat="50.1962" lon="4.38877">
        <ele>226.5</ele>
        <time>2016-8-7T11:18:13.000Z</time>
      </trkpt>
      <trkpt lat="50.1962" lon="4.38878">
        <ele>225.5</ele>
        <time>2016-8-7T11:18:13.000Z</time>
      </trkpt>
      <trkpt lat="50.1962" lon="4.38878">
        <ele>225.5</ele>
        <time>2016-8-7T11:18:13.000Z</time>
      </trkpt>
      <trkpt lat="50.19621" lon="4.38881">
        <ele>224.5</ele>
        <time>2016-8-7T11:18:13.000Z</time>
      </trkpt>
      <trkpt lat="50.19621" lon="4.38881">
        <ele>224.5</ele>
        <time>2016-8-7T11:18:13.000Z</time>
      </trkpt>
      <trkpt lat="50.19623" lon="4.38884">
        <ele>224.5</ele>
        <time>2016-8-7T11:18:13.000Z</time>
      </trkpt>
      <trkpt lat="50.19623" lon="4.38884">
        <ele>224.5</ele>
        <time>2016-8-7T11:18:13.000Z</time>
      </trkpt>
      <trkpt lat="50.19624" lon="4.38888">
        <ele>224.5</ele>
        <time>2016-8-7T11:18:13.000Z</time>
      </trkpt>
      <trkpt lat="50.19624" lon="4.38888">
        <ele>224.5</ele>
        <time>2016-8-7T11:18:13.000Z</time>
      </trkpt>
      <trkpt lat="50.19625" lon="4.3889">
        <ele>224.5</ele>
        <time>2016-8-7T11:18:13.000Z</time>
      </trkpt>
      <trkpt lat="50.19625" lon="4.3889">
        <ele>224.5</ele>
        <time>2016-8-7T11:18:13.000Z</time>
      </trkpt>
      <trkpt lat="50.19625" lon="4.3889">
        <ele>224.5</ele>
        <time>2016-8-7T11:18:13.000Z</time>
      </trkpt>
      <trkpt lat="50.19625" lon="4.3889">
        <ele>224.5</ele>
        <time>2016-8-7T11:18:13.000Z</time>
      </trkpt>
      <trkpt lat="50.19626" lon="4.38893">
        <ele>224.5</ele>
        <time>2016-8-7T11:18:13.000Z</time>
      </trkpt>
      <trkpt lat="50.19626" lon="4.38893">
        <ele>224.5</ele>
        <time>2016-8-7T11:18:13.000Z</time>
      </trkpt>
      <trkpt lat="50.19624" lon="4.38896">
        <ele>224.5</ele>
        <time>2016-8-7T11:18:13.000Z</time>
      </trkpt>
      <trkpt lat="50.19624" lon="4.38896">
        <ele>224.5</ele>
        <time>2016-8-7T11:18:13.000Z</time>
      </trkpt>
      <trkpt lat="50.19624" lon="4.38898">
        <ele>224.5</ele>
        <time>2016-8-7T11:18:13.000Z</time>
      </trkpt>
      <trkpt lat="50.19624" lon="4.38898">
        <ele>224.5</ele>
        <time>2016-8-7T11:18:13.000Z</time>
      </trkpt>
      <trkpt lat="50.19625" lon="4.38901">
        <ele>224.5</ele>
        <time>2016-8-7T11:18:13.000Z</time>
      </trkpt>
      <trkpt lat="50.19625" lon="4.38901">
        <ele>224.5</ele>
        <time>2016-8-7T11:18:13.000Z</time>
      </trkpt>
      <trkpt lat="50.19626" lon="4.38903">
        <ele>224.5</ele>
        <time>2016-8-7T11:18:13.000Z</time>
      </trkpt>
      <trkpt lat="50.19626" lon="4.38903">
        <ele>224.5</ele>
        <time>2016-8-7T11:18:13.000Z</time>
      </trkpt>
      <trkpt lat="50.19627" lon="4.38906">
        <ele>225</ele>
        <time>2016-8-7T11:18:13.000Z</time>
      </trkpt>
      <trkpt lat="50.19627" lon="4.38906">
        <ele>225</ele>
        <time>2016-8-7T11:18:13.000Z</time>
      </trkpt>
      <trkpt lat="50.19628" lon="4.38909">
        <ele>225</ele>
        <time>2016-8-7T11:18:13.000Z</time>
      </trkpt>
      <trkpt lat="50.19628" lon="4.38909">
        <ele>225</ele>
        <time>2016-8-7T11:18:13.000Z</time>
      </trkpt>
      <trkpt lat="50.19629" lon="4.38911">
        <ele>224.5</ele>
        <time>2016-8-7T11:18:13.000Z</time>
      </trkpt>
      <trkpt lat="50.19629" lon="4.38911">
        <ele>224.5</ele>
        <time>2016-8-7T11:18:13.000Z</time>
      </trkpt>
      <trkpt lat="50.19629" lon="4.38922">
        <ele>224</ele>
        <time>2016-8-7T11:18:13.000Z</time>
      </trkpt>
      <trkpt lat="50.19629" lon="4.38922">
        <ele>224</ele>
        <time>2016-8-7T11:18:13.000Z</time>
      </trkpt>
      <trkpt lat="50.19629" lon="4.38925">
        <ele>223.5</ele>
        <time>2016-8-7T11:18:13.000Z</time>
      </trkpt>
      <trkpt lat="50.19629" lon="4.38925">
        <ele>223.5</ele>
        <time>2016-8-7T11:18:13.000Z</time>
      </trkpt>
      <trkpt lat="50.19628" lon="4.38927">
        <ele>224</ele>
        <time>2016-8-7T11:18:13.000Z</time>
      </trkpt>
      <trkpt lat="50.19628" lon="4.38927">
        <ele>224</ele>
        <time>2016-8-7T11:18:13.000Z</time>
      </trkpt>
      <trkpt lat="50.19628" lon="4.38929">
        <ele>224</ele>
        <time>2016-8-7T11:18:13.000Z</time>
      </trkpt>
      <trkpt lat="50.19628" lon="4.38929">
        <ele>224</ele>
        <time>2016-8-7T11:18:13.000Z</time>
      </trkpt>
      <trkpt lat="50.19626" lon="4.38932">
        <ele>224</ele>
        <time>2016-8-7T11:18:13.000Z</time>
      </trkpt>
      <trkpt lat="50.19626" lon="4.38932">
        <ele>224</ele>
        <time>2016-8-7T11:18:13.000Z</time>
      </trkpt>
      <trkpt lat="50.19624" lon="4.38933">
        <ele>224</ele>
        <time>2016-8-7T11:18:13.000Z</time>
      </trkpt>
      <trkpt lat="50.19624" lon="4.38933">
        <ele>224</ele>
        <time>2016-8-7T11:18:13.000Z</time>
      </trkpt>
      <trkpt lat="50.19622" lon="4.38934">
        <ele>224</ele>
        <time>2016-8-7T11:18:13.000Z</time>
      </trkpt>
      <trkpt lat="50.19622" lon="4.38934">
        <ele>224</ele>
        <time>2016-8-7T11:18:13.000Z</time>
      </trkpt>
      <trkpt lat="50.1962" lon="4.38935">
        <ele>224</ele>
        <time>2016-8-7T11:18:13.000Z</time>
      </trkpt>
      <trkpt lat="50.1962" lon="4.38935">
        <ele>224</ele>
        <time>2016-8-7T11:18:13.000Z</time>
      </trkpt>
      <trkpt lat="50.19618" lon="4.38935">
        <ele>223.5</ele>
        <time>2016-8-7T11:18:13.000Z</time>
      </trkpt>
      <trkpt lat="50.19618" lon="4.38935">
        <ele>223.5</ele>
        <time>2016-8-7T11:18:13.000Z</time>
      </trkpt>
      <trkpt lat="50.19617" lon="4.38935">
        <ele>223.5</ele>
        <time>2016-8-7T11:18:13.000Z</time>
      </trkpt>
      <trkpt lat="50.19617" lon="4.38935">
        <ele>223.5</ele>
        <time>2016-8-7T11:18:13.000Z</time>
      </trkpt>
      <trkpt lat="50.19615" lon="4.38936">
        <ele>223</ele>
        <time>2016-8-7T11:18:13.000Z</time>
      </trkpt>
      <trkpt lat="50.19615" lon="4.38936">
        <ele>223</ele>
        <time>2016-8-7T11:18:13.000Z</time>
      </trkpt>
      <trkpt lat="50.19614" lon="4.38936">
        <ele>223</ele>
        <time>2016-8-7T11:18:13.000Z</time>
      </trkpt>
      <trkpt lat="50.19614" lon="4.38936">
        <ele>223</ele>
        <time>2016-8-7T11:18:13.000Z</time>
      </trkpt>
      <trkpt lat="50.19611" lon="4.38937">
        <ele>222.5</ele>
        <time>2016-8-7T11:18:13.000Z</time>
      </trkpt>
      <trkpt lat="50.19611" lon="4.38937">
        <ele>222.5</ele>
        <time>2016-8-7T11:18:13.000Z</time>
      </trkpt>
      <trkpt lat="50.1961" lon="4.38937">
        <ele>222.5</ele>
        <time>2016-8-7T11:18:13.000Z</time>
      </trkpt>
      <trkpt lat="50.1961" lon="4.38937">
        <ele>222.5</ele>
        <time>2016-8-7T11:18:13.000Z</time>
      </trkpt>
      <trkpt lat="50.19608" lon="4.38937">
        <ele>222</ele>
        <time>2016-8-7T11:18:13.000Z</time>
      </trkpt>
      <trkpt lat="50.19608" lon="4.38937">
        <ele>222</ele>
        <time>2016-8-7T11:18:13.000Z</time>
      </trkpt>
      <trkpt lat="50.19606" lon="4.38938">
        <ele>222</ele>
        <time>2016-8-7T11:18:13.000Z</time>
      </trkpt>
      <trkpt lat="50.19606" lon="4.38938">
        <ele>222</ele>
        <time>2016-8-7T11:18:13.000Z</time>
      </trkpt>
      <trkpt lat="50.19604" lon="4.38938">
        <ele>222</ele>
        <time>2016-8-7T11:18:13.000Z</time>
      </trkpt>
      <trkpt lat="50.19604" lon="4.38938">
        <ele>222</ele>
        <time>2016-8-7T11:18:13.000Z</time>
      </trkpt>
      <trkpt lat="50.19602" lon="4.38938">
        <ele>221.5</ele>
        <time>2016-8-7T11:18:13.000Z</time>
      </trkpt>
      <trkpt lat="50.19602" lon="4.38938">
        <ele>221.5</ele>
        <time>2016-8-7T11:18:13.000Z</time>
      </trkpt>
      <trkpt lat="50.196" lon="4.38936">
        <ele>219.5</ele>
        <time>2016-8-7T11:18:13.000Z</time>
      </trkpt>
      <trkpt lat="50.196" lon="4.38936">
        <ele>219.5</ele>
        <time>2016-8-7T11:18:13.000Z</time>
      </trkpt>
      <trkpt lat="50.19599" lon="4.38935">
        <ele>219.5</ele>
        <time>2016-8-7T11:18:13.000Z</time>
      </trkpt>
      <trkpt lat="50.19599" lon="4.38935">
        <ele>219.5</ele>
        <time>2016-8-7T11:19:55.000Z</time>
      </trkpt>
      <trkpt lat="50.19597" lon="4.38935">
        <ele>219.5</ele>
        <time>2016-8-7T11:19:55.000Z</time>
      </trkpt>
      <trkpt lat="50.19597" lon="4.38935">
        <ele>219.5</ele>
        <time>2016-8-7T11:19:55.000Z</time>
      </trkpt>
      <trkpt lat="50.19591" lon="4.38931">
        <ele>219.5</ele>
        <time>2016-8-7T11:19:55.000Z</time>
      </trkpt>
      <trkpt lat="50.19591" lon="4.38931">
        <ele>219.5</ele>
        <time>2016-8-7T11:19:55.000Z</time>
      </trkpt>
      <trkpt lat="50.19589" lon="4.3893">
        <ele>219.5</ele>
        <time>2016-8-7T11:19:55.000Z</time>
      </trkpt>
      <trkpt lat="50.19589" lon="4.3893">
        <ele>219.5</ele>
        <time>2016-8-7T11:19:55.000Z</time>
      </trkpt>
      <trkpt lat="50.19587" lon="4.38929">
        <ele>219.5</ele>
        <time>2016-8-7T11:19:55.000Z</time>
      </trkpt>
      <trkpt lat="50.19587" lon="4.38929">
        <ele>219.5</ele>
        <time>2016-8-7T11:19:55.000Z</time>
      </trkpt>
      <trkpt lat="50.19586" lon="4.38928">
        <ele>219.5</ele>
        <time>2016-8-7T11:19:55.000Z</time>
      </trkpt>
      <trkpt lat="50.19586" lon="4.38928">
        <ele>219.5</ele>
        <time>2016-8-7T11:19:55.000Z</time>
      </trkpt>
      <trkpt lat="50.19584" lon="4.38927">
        <ele>219.5</ele>
        <time>2016-8-7T11:19:55.000Z</time>
      </trkpt>
      <trkpt lat="50.19584" lon="4.38927">
        <ele>219.5</ele>
        <time>2016-8-7T11:19:55.000Z</time>
      </trkpt>
      <trkpt lat="50.19582" lon="4.38926">
        <ele>219.5</ele>
        <time>2016-8-7T11:19:55.000Z</time>
      </trkpt>
      <trkpt lat="50.19582" lon="4.38926">
        <ele>219.5</ele>
        <time>2016-8-7T11:19:55.000Z</time>
      </trkpt>
      <trkpt lat="50.19581" lon="4.38925">
        <ele>219.5</ele>
        <time>2016-8-7T11:19:55.000Z</time>
      </trkpt>
      <trkpt lat="50.19581" lon="4.38925">
        <ele>219.5</ele>
        <time>2016-8-7T11:19:55.000Z</time>
      </trkpt>
      <trkpt lat="50.19579" lon="4.38922">
        <ele>219.5</ele>
        <time>2016-8-7T11:19:55.000Z</time>
      </trkpt>
      <trkpt lat="50.19579" lon="4.38922">
        <ele>219.5</ele>
        <time>2016-8-7T11:19:55.000Z</time>
      </trkpt>
      <trkpt lat="50.19578" lon="4.38922">
        <ele>219.5</ele>
        <time>2016-8-7T11:19:55.000Z</time>
      </trkpt>
      <trkpt lat="50.19578" lon="4.38922">
        <ele>219.5</ele>
        <time>2016-8-7T11:19:55.000Z</time>
      </trkpt>
      <trkpt lat="50.19575" lon="4.38921">
        <ele>219.5</ele>
        <time>2016-8-7T11:19:55.000Z</time>
      </trkpt>
      <trkpt lat="50.19575" lon="4.38921">
        <ele>219.5</ele>
        <time>2016-8-7T11:19:55.000Z</time>
      </trkpt>
      <trkpt lat="50.19573" lon="4.3892">
        <ele>218.5</ele>
        <time>2016-8-7T11:19:55.000Z</time>
      </trkpt>
      <trkpt lat="50.19573" lon="4.3892">
        <ele>218.5</ele>
        <time>2016-8-7T11:19:55.000Z</time>
      </trkpt>
      <trkpt lat="50.19572" lon="4.38919">
        <ele>218.5</ele>
        <time>2016-8-7T11:19:55.000Z</time>
      </trkpt>
      <trkpt lat="50.19572" lon="4.38919">
        <ele>218.5</ele>
        <time>2016-8-7T11:19:55.000Z</time>
      </trkpt>
      <trkpt lat="50.1957" lon="4.38919">
        <ele>218.5</ele>
        <time>2016-8-7T11:19:55.000Z</time>
      </trkpt>
      <trkpt lat="50.1957" lon="4.38919">
        <ele>218.5</ele>
        <time>2016-8-7T11:19:55.000Z</time>
      </trkpt>
      <trkpt lat="50.19568" lon="4.38917">
        <ele>219.5</ele>
        <time>2016-8-7T11:19:55.000Z</time>
      </trkpt>
      <trkpt lat="50.19568" lon="4.38917">
        <ele>219.5</ele>
        <time>2016-8-7T11:19:55.000Z</time>
      </trkpt>
      <trkpt lat="50.19566" lon="4.38917">
        <ele>219.5</ele>
        <time>2016-8-7T11:19:55.000Z</time>
      </trkpt>
      <trkpt lat="50.19566" lon="4.38917">
        <ele>219.5</ele>
        <time>2016-8-7T11:19:55.000Z</time>
      </trkpt>
      <trkpt lat="50.19564" lon="4.38916">
        <ele>220.5</ele>
        <time>2016-8-7T11:19:55.000Z</time>
      </trkpt>
      <trkpt lat="50.19564" lon="4.38916">
        <ele>220.5</ele>
        <time>2016-8-7T11:19:55.000Z</time>
      </trkpt>
      <trkpt lat="50.19562" lon="4.38914">
        <ele>220.5</ele>
        <time>2016-8-7T11:19:55.000Z</time>
      </trkpt>
      <trkpt lat="50.19562" lon="4.38914">
        <ele>220.5</ele>
        <time>2016-8-7T11:19:55.000Z</time>
      </trkpt>
      <trkpt lat="50.19561" lon="4.38913">
        <ele>219.5</ele>
        <time>2016-8-7T11:19:55.000Z</time>
      </trkpt>
      <trkpt lat="50.19561" lon="4.38913">
        <ele>219.5</ele>
        <time>2016-8-7T11:19:55.000Z</time>
      </trkpt>
      <trkpt lat="50.1956" lon="4.38911">
        <ele>219.5</ele>
        <time>2016-8-7T11:19:55.000Z</time>
      </trkpt>
      <trkpt lat="50.1956" lon="4.38911">
        <ele>219.5</ele>
        <time>2016-8-7T11:19:55.000Z</time>
      </trkpt>
      <trkpt lat="50.19555" lon="4.38904">
        <ele>219.5</ele>
        <time>2016-8-7T11:19:55.000Z</time>
      </trkpt>
      <trkpt lat="50.19555" lon="4.38904">
        <ele>219.5</ele>
        <time>2016-8-7T11:19:55.000Z</time>
      </trkpt>
      <trkpt lat="50.19553" lon="4.38902">
        <ele>219.5</ele>
        <time>2016-8-7T11:19:55.000Z</time>
      </trkpt>
      <trkpt lat="50.19553" lon="4.38902">
        <ele>219.5</ele>
        <time>2016-8-7T11:19:55.000Z</time>
      </trkpt>
      <trkpt lat="50.19541" lon="4.38894">
        <ele>219.5</ele>
        <time>2016-8-7T11:19:55.000Z</time>
      </trkpt>
      <trkpt lat="50.19541" lon="4.38894">
        <ele>219.5</ele>
        <time>2016-8-7T11:19:55.000Z</time>
      </trkpt>
      <trkpt lat="50.19541" lon="4.38892">
        <ele>219.5</ele>
        <time>2016-8-7T11:19:55.000Z</time>
      </trkpt>
      <trkpt lat="50.19541" lon="4.38892">
        <ele>219.5</ele>
        <time>2016-8-7T11:19:55.000Z</time>
      </trkpt>
      <trkpt lat="50.1954" lon="4.3889">
        <ele>218.5</ele>
        <time>2016-8-7T11:19:55.000Z</time>
      </trkpt>
      <trkpt lat="50.1954" lon="4.3889">
        <ele>218.5</ele>
        <time>2016-8-7T11:19:55.000Z</time>
      </trkpt>
      <trkpt lat="50.19525" lon="4.38883">
        <ele>219.5</ele>
        <time>2016-8-7T11:19:55.000Z</time>
      </trkpt>
      <trkpt lat="50.19525" lon="4.38883">
        <ele>219.5</ele>
        <time>2016-8-7T11:19:55.000Z</time>
      </trkpt>
      <trkpt lat="50.19522" lon="4.38883">
        <ele>219.5</ele>
        <time>2016-8-7T11:19:55.000Z</time>
      </trkpt>
      <trkpt lat="50.19522" lon="4.38883">
        <ele>219.5</ele>
        <time>2016-8-7T11:19:55.000Z</time>
      </trkpt>
      <trkpt lat="50.19521" lon="4.38883">
        <ele>219.5</ele>
        <time>2016-8-7T11:19:55.000Z</time>
      </trkpt>
      <trkpt lat="50.19521" lon="4.38883">
        <ele>219.5</ele>
        <time>2016-8-7T11:19:55.000Z</time>
      </trkpt>
      <trkpt lat="50.19519" lon="4.38882">
        <ele>219.5</ele>
        <time>2016-8-7T11:19:55.000Z</time>
      </trkpt>
      <trkpt lat="50.19519" lon="4.38882">
        <ele>219.5</ele>
        <time>2016-8-7T11:19:55.000Z</time>
      </trkpt>
      <trkpt lat="50.19517" lon="4.38881">
        <ele>219.5</ele>
        <time>2016-8-7T11:19:55.000Z</time>
      </trkpt>
      <trkpt lat="50.19517" lon="4.38881">
        <ele>219.5</ele>
        <time>2016-8-7T11:19:55.000Z</time>
      </trkpt>
      <trkpt lat="50.19515" lon="4.38881">
        <ele>219.5</ele>
        <time>2016-8-7T11:19:55.000Z</time>
      </trkpt>
      <trkpt lat="50.19515" lon="4.38881">
        <ele>219.5</ele>
        <time>2016-8-7T11:19:55.000Z</time>
      </trkpt>
      <trkpt lat="50.19505" lon="4.38879">
        <ele>219.5</ele>
        <time>2016-8-7T11:19:55.000Z</time>
      </trkpt>
      <trkpt lat="50.19505" lon="4.38879">
        <ele>219.5</ele>
        <time>2016-8-7T11:19:55.000Z</time>
      </trkpt>
      <trkpt lat="50.19504" lon="4.38878">
        <ele>219.5</ele>
        <time>2016-8-7T11:19:55.000Z</time>
      </trkpt>
      <trkpt lat="50.19504" lon="4.38878">
        <ele>219.5</ele>
        <time>2016-8-7T11:19:55.000Z</time>
      </trkpt>
      <trkpt lat="50.19501" lon="4.38878">
        <ele>219.5</ele>
        <time>2016-8-7T11:19:55.000Z</time>
      </trkpt>
      <trkpt lat="50.19501" lon="4.38878">
        <ele>219.5</ele>
        <time>2016-8-7T11:19:55.000Z</time>
      </trkpt>
      <trkpt lat="50.19499" lon="4.38879">
        <ele>219.5</ele>
        <time>2016-8-7T11:19:55.000Z</time>
      </trkpt>
      <trkpt lat="50.19499" lon="4.38879">
        <ele>219.5</ele>
        <time>2016-8-7T11:19:55.000Z</time>
      </trkpt>
      <trkpt lat="50.19495" lon="4.38882">
        <ele>219.5</ele>
        <time>2016-8-7T11:19:55.000Z</time>
      </trkpt>
      <trkpt lat="50.19495" lon="4.38882">
        <ele>219.5</ele>
        <time>2016-8-7T11:19:55.000Z</time>
      </trkpt>
      <trkpt lat="50.19493" lon="4.38882">
        <ele>219.5</ele>
        <time>2016-8-7T11:19:55.000Z</time>
      </trkpt>
      <trkpt lat="50.19493" lon="4.38882">
        <ele>219.5</ele>
        <time>2016-8-7T11:19:55.000Z</time>
      </trkpt>
      <trkpt lat="50.19491" lon="4.38882">
        <ele>219.5</ele>
        <time>2016-8-7T11:19:55.000Z</time>
      </trkpt>
      <trkpt lat="50.19491" lon="4.38882">
        <ele>219.5</ele>
        <time>2016-8-7T11:19:55.000Z</time>
      </trkpt>
      <trkpt lat="50.1949" lon="4.38882">
        <ele>219.5</ele>
        <time>2016-8-7T11:19:55.000Z</time>
      </trkpt>
      <trkpt lat="50.1949" lon="4.38882">
        <ele>219.5</ele>
        <time>2016-8-7T11:19:55.000Z</time>
      </trkpt>
      <trkpt lat="50.19487" lon="4.38882">
        <ele>219.5</ele>
        <time>2016-8-7T11:19:55.000Z</time>
      </trkpt>
      <trkpt lat="50.19487" lon="4.38882">
        <ele>219.5</ele>
        <time>2016-8-7T11:19:55.000Z</time>
      </trkpt>
      <trkpt lat="50.19485" lon="4.38883">
        <ele>219.5</ele>
        <time>2016-8-7T11:19:55.000Z</time>
      </trkpt>
      <trkpt lat="50.19485" lon="4.38883">
        <ele>219.5</ele>
        <time>2016-8-7T11:19:55.000Z</time>
      </trkpt>
      <trkpt lat="50.19483" lon="4.38883">
        <ele>219.5</ele>
        <time>2016-8-7T11:19:55.000Z</time>
      </trkpt>
      <trkpt lat="50.19483" lon="4.38883">
        <ele>219.5</ele>
        <time>2016-8-7T11:19:55.000Z</time>
      </trkpt>
      <trkpt lat="50.19481" lon="4.38883">
        <ele>219.5</ele>
        <time>2016-8-7T11:19:55.000Z</time>
      </trkpt>
      <trkpt lat="50.19481" lon="4.38883">
        <ele>219.5</ele>
        <time>2016-8-7T11:19:55.000Z</time>
      </trkpt>
      <trkpt lat="50.19478" lon="4.38882">
        <ele>219.5</ele>
        <time>2016-8-7T11:19:55.000Z</time>
      </trkpt>
      <trkpt lat="50.19478" lon="4.38882">
        <ele>219.5</ele>
        <time>2016-8-7T11:19:55.000Z</time>
      </trkpt>
      <trkpt lat="50.19476" lon="4.38882">
        <ele>219.5</ele>
        <time>2016-8-7T11:19:55.000Z</time>
      </trkpt>
      <trkpt lat="50.19476" lon="4.38882">
        <ele>219.5</ele>
        <time>2016-8-7T11:19:55.000Z</time>
      </trkpt>
      <trkpt lat="50.19474" lon="4.38882">
        <ele>219.5</ele>
        <time>2016-8-7T11:19:55.000Z</time>
      </trkpt>
      <trkpt lat="50.19474" lon="4.38882">
        <ele>219.5</ele>
        <time>2016-8-7T11:19:55.000Z</time>
      </trkpt>
      <trkpt lat="50.19473" lon="4.38881">
        <ele>219.5</ele>
        <time>2016-8-7T11:19:55.000Z</time>
      </trkpt>
      <trkpt lat="50.19473" lon="4.38881">
        <ele>219.5</ele>
        <time>2016-8-7T11:19:55.000Z</time>
      </trkpt>
      <trkpt lat="50.19471" lon="4.38881">
        <ele>219.5</ele>
        <time>2016-8-7T11:19:55.000Z</time>
      </trkpt>
      <trkpt lat="50.19471" lon="4.38881">
        <ele>219.5</ele>
        <time>2016-8-7T11:19:55.000Z</time>
      </trkpt>
      <trkpt lat="50.19469" lon="4.3888">
        <ele>219.5</ele>
        <time>2016-8-7T11:19:55.000Z</time>
      </trkpt>
      <trkpt lat="50.19469" lon="4.3888">
        <ele>219.5</ele>
        <time>2016-8-7T11:19:55.000Z</time>
      </trkpt>
      <trkpt lat="50.19467" lon="4.38879">
        <ele>219.5</ele>
        <time>2016-8-7T11:19:55.000Z</time>
      </trkpt>
      <trkpt lat="50.19467" lon="4.38879">
        <ele>219.5</ele>
        <time>2016-8-7T11:19:55.000Z</time>
      </trkpt>
      <trkpt lat="50.19465" lon="4.38879">
        <ele>219.5</ele>
        <time>2016-8-7T11:23:2.000Z</time>
      </trkpt>
      <trkpt lat="50.19465" lon="4.38879">
        <ele>219.5</ele>
        <time>2016-8-7T11:23:2.000Z</time>
      </trkpt>
      <trkpt lat="50.19463" lon="4.38881">
        <ele>219.5</ele>
        <time>2016-8-7T11:23:2.000Z</time>
      </trkpt>
      <trkpt lat="50.19463" lon="4.38881">
        <ele>219.5</ele>
        <time>2016-8-7T11:23:2.000Z</time>
      </trkpt>
      <trkpt lat="50.19461" lon="4.38882">
        <ele>219.5</ele>
        <time>2016-8-7T11:23:2.000Z</time>
      </trkpt>
      <trkpt lat="50.19461" lon="4.38882">
        <ele>219.5</ele>
        <time>2016-8-7T11:23:2.000Z</time>
      </trkpt>
      <trkpt lat="50.1946" lon="4.38883">
        <ele>219.5</ele>
        <time>2016-8-7T11:23:2.000Z</time>
      </trkpt>
      <trkpt lat="50.1946" lon="4.38883">
        <ele>219.5</ele>
        <time>2016-8-7T11:23:2.000Z</time>
      </trkpt>
      <trkpt lat="50.19458" lon="4.38885">
        <ele>219.5</ele>
        <time>2016-8-7T11:23:2.000Z</time>
      </trkpt>
      <trkpt lat="50.19458" lon="4.38885">
        <ele>219.5</ele>
        <time>2016-8-7T11:23:2.000Z</time>
      </trkpt>
      <trkpt lat="50.19457" lon="4.38886">
        <ele>219.5</ele>
        <time>2016-8-7T11:23:2.000Z</time>
      </trkpt>
      <trkpt lat="50.19457" lon="4.38886">
        <ele>219.5</ele>
        <time>2016-8-7T11:23:2.000Z</time>
      </trkpt>
      <trkpt lat="50.19455" lon="4.38887">
        <ele>219.5</ele>
        <time>2016-8-7T11:23:2.000Z</time>
      </trkpt>
      <trkpt lat="50.19455" lon="4.38887">
        <ele>219.5</ele>
        <time>2016-8-7T11:23:2.000Z</time>
      </trkpt>
      <trkpt lat="50.19453" lon="4.38887">
        <ele>219.5</ele>
        <time>2016-8-7T11:23:2.000Z</time>
      </trkpt>
      <trkpt lat="50.19453" lon="4.38887">
        <ele>219.5</ele>
        <time>2016-8-7T11:23:2.000Z</time>
      </trkpt>
      <trkpt lat="50.19452" lon="4.38887">
        <ele>219.5</ele>
        <time>2016-8-7T11:23:2.000Z</time>
      </trkpt>
      <trkpt lat="50.19452" lon="4.38887">
        <ele>219.5</ele>
        <time>2016-8-7T11:23:2.000Z</time>
      </trkpt>
      <trkpt lat="50.19445" lon="4.38888">
        <ele>219.5</ele>
        <time>2016-8-7T11:23:2.000Z</time>
      </trkpt>
      <trkpt lat="50.19445" lon="4.38888">
        <ele>219.5</ele>
        <time>2016-8-7T11:23:2.000Z</time>
      </trkpt>
      <trkpt lat="50.19443" lon="4.38889">
        <ele>219.5</ele>
        <time>2016-8-7T11:23:2.000Z</time>
      </trkpt>
      <trkpt lat="50.19443" lon="4.38889">
        <ele>219.5</ele>
        <time>2016-8-7T11:23:2.000Z</time>
      </trkpt>
      <trkpt lat="50.19343" lon="4.38979">
        <ele>219.5</ele>
        <time>2016-8-7T11:23:2.000Z</time>
      </trkpt>
      <trkpt lat="50.19343" lon="4.38979">
        <ele>219.5</ele>
        <time>2016-8-7T11:23:2.000Z</time>
      </trkpt>
      <trkpt lat="50.19341" lon="4.3898">
        <ele>219.5</ele>
        <time>2016-8-7T11:23:2.000Z</time>
      </trkpt>
      <trkpt lat="50.19341" lon="4.3898">
        <ele>219.5</ele>
        <time>2016-8-7T11:23:2.000Z</time>
      </trkpt>
      <trkpt lat="50.1934" lon="4.38981">
        <ele>219</ele>
        <time>2016-8-7T11:23:2.000Z</time>
      </trkpt>
      <trkpt lat="50.1934" lon="4.38981">
        <ele>219</ele>
        <time>2016-8-7T11:23:2.000Z</time>
      </trkpt>
      <trkpt lat="50.19338" lon="4.38982">
        <ele>219</ele>
        <time>2016-8-7T11:23:2.000Z</time>
      </trkpt>
      <trkpt lat="50.19338" lon="4.38982">
        <ele>219</ele>
        <time>2016-8-7T11:23:2.000Z</time>
      </trkpt>
      <trkpt lat="50.19337" lon="4.38983">
        <ele>218.5</ele>
        <time>2016-8-7T11:23:2.000Z</time>
      </trkpt>
      <trkpt lat="50.19337" lon="4.38983">
        <ele>218.5</ele>
        <time>2016-8-7T11:23:2.000Z</time>
      </trkpt>
      <trkpt lat="50.19335" lon="4.38985">
        <ele>218</ele>
        <time>2016-8-7T11:23:2.000Z</time>
      </trkpt>
      <trkpt lat="50.19335" lon="4.38985">
        <ele>218</ele>
        <time>2016-8-7T11:23:2.000Z</time>
      </trkpt>
      <trkpt lat="50.19333" lon="4.38986">
        <ele>217.5</ele>
        <time>2016-8-7T11:23:2.000Z</time>
      </trkpt>
      <trkpt lat="50.19333" lon="4.38986">
        <ele>217.5</ele>
        <time>2016-8-7T11:23:2.000Z</time>
      </trkpt>
      <trkpt lat="50.19331" lon="4.38987">
        <ele>217</ele>
        <time>2016-8-7T11:23:2.000Z</time>
      </trkpt>
      <trkpt lat="50.19331" lon="4.38987">
        <ele>217</ele>
        <time>2016-8-7T11:23:2.000Z</time>
      </trkpt>
      <trkpt lat="50.19329" lon="4.38988">
        <ele>216.5</ele>
        <time>2016-8-7T11:23:2.000Z</time>
      </trkpt>
      <trkpt lat="50.19329" lon="4.38988">
        <ele>216.5</ele>
        <time>2016-8-7T11:23:2.000Z</time>
      </trkpt>
      <trkpt lat="50.19327" lon="4.38989">
        <ele>216.5</ele>
        <time>2016-8-7T11:23:2.000Z</time>
      </trkpt>
      <trkpt lat="50.19327" lon="4.38989">
        <ele>216.5</ele>
        <time>2016-8-7T11:23:2.000Z</time>
      </trkpt>
      <trkpt lat="50.19325" lon="4.38989">
        <ele>216.5</ele>
        <time>2016-8-7T11:23:2.000Z</time>
      </trkpt>
      <trkpt lat="50.19325" lon="4.38989">
        <ele>216.5</ele>
        <time>2016-8-7T11:23:2.000Z</time>
      </trkpt>
      <trkpt lat="50.19324" lon="4.3899">
        <ele>216.5</ele>
        <time>2016-8-7T11:23:2.000Z</time>
      </trkpt>
      <trkpt lat="50.19324" lon="4.3899">
        <ele>216.5</ele>
        <time>2016-8-7T11:23:2.000Z</time>
      </trkpt>
      <trkpt lat="50.19322" lon="4.3899">
        <ele>217</ele>
        <time>2016-8-7T11:23:2.000Z</time>
      </trkpt>
      <trkpt lat="50.19322" lon="4.3899">
        <ele>217</ele>
        <time>2016-8-7T11:23:2.000Z</time>
      </trkpt>
      <trkpt lat="50.1932" lon="4.38991">
        <ele>217</ele>
        <time>2016-8-7T11:23:2.000Z</time>
      </trkpt>
      <trkpt lat="50.1932" lon="4.38991">
        <ele>217</ele>
        <time>2016-8-7T11:23:2.000Z</time>
      </trkpt>
      <trkpt lat="50.19318" lon="4.38992">
        <ele>217</ele>
        <time>2016-8-7T11:23:2.000Z</time>
      </trkpt>
      <trkpt lat="50.19318" lon="4.38992">
        <ele>217</ele>
        <time>2016-8-7T11:23:2.000Z</time>
      </trkpt>
      <trkpt lat="50.19315" lon="4.38992">
        <ele>217.5</ele>
        <time>2016-8-7T11:23:2.000Z</time>
      </trkpt>
      <trkpt lat="50.19315" lon="4.38992">
        <ele>217.5</ele>
        <time>2016-8-7T11:23:2.000Z</time>
      </trkpt>
      <trkpt lat="50.19314" lon="4.38992">
        <ele>217.5</ele>
        <time>2016-8-7T11:23:2.000Z</time>
      </trkpt>
      <trkpt lat="50.19314" lon="4.38992">
        <ele>217.5</ele>
        <time>2016-8-7T11:23:2.000Z</time>
      </trkpt>
      <trkpt lat="50.19311" lon="4.38992">
        <ele>218</ele>
        <time>2016-8-7T11:23:2.000Z</time>
      </trkpt>
      <trkpt lat="50.19311" lon="4.38992">
        <ele>218</ele>
        <time>2016-8-7T11:23:2.000Z</time>
      </trkpt>
      <trkpt lat="50.19307" lon="4.38991">
        <ele>219</ele>
        <time>2016-8-7T11:23:2.000Z</time>
      </trkpt>
      <trkpt lat="50.19307" lon="4.38991">
        <ele>219</ele>
        <time>2016-8-7T11:23:2.000Z</time>
      </trkpt>
      <trkpt lat="50.19303" lon="4.38989">
        <ele>219.5</ele>
        <time>2016-8-7T11:23:2.000Z</time>
      </trkpt>
      <trkpt lat="50.19303" lon="4.38989">
        <ele>219.5</ele>
        <time>2016-8-7T11:23:2.000Z</time>
      </trkpt>
      <trkpt lat="50.19301" lon="4.38986">
        <ele>219.5</ele>
        <time>2016-8-7T11:23:2.000Z</time>
      </trkpt>
      <trkpt lat="50.19301" lon="4.38986">
        <ele>219.5</ele>
        <time>2016-8-7T11:23:2.000Z</time>
      </trkpt>
      <trkpt lat="50.193" lon="4.38985">
        <ele>219.5</ele>
        <time>2016-8-7T11:23:2.000Z</time>
      </trkpt>
      <trkpt lat="50.193" lon="4.38985">
        <ele>219.5</ele>
        <time>2016-8-7T11:23:2.000Z</time>
      </trkpt>
      <trkpt lat="50.19298" lon="4.38984">
        <ele>219.5</ele>
        <time>2016-8-7T11:23:2.000Z</time>
      </trkpt>
      <trkpt lat="50.19298" lon="4.38984">
        <ele>219.5</ele>
        <time>2016-8-7T11:23:2.000Z</time>
      </trkpt>
      <trkpt lat="50.19296" lon="4.38983">
        <ele>219.5</ele>
        <time>2016-8-7T11:23:2.000Z</time>
      </trkpt>
      <trkpt lat="50.19296" lon="4.38983">
        <ele>219.5</ele>
        <time>2016-8-7T11:23:2.000Z</time>
      </trkpt>
      <trkpt lat="50.19279" lon="4.38991">
        <ele>219</ele>
        <time>2016-8-7T11:23:2.000Z</time>
      </trkpt>
      <trkpt lat="50.19279" lon="4.38991">
        <ele>219</ele>
        <time>2016-8-7T11:23:2.000Z</time>
      </trkpt>
      <trkpt lat="50.19276" lon="4.38992">
        <ele>219</ele>
        <time>2016-8-7T11:23:2.000Z</time>
      </trkpt>
      <trkpt lat="50.19276" lon="4.38992">
        <ele>219</ele>
        <time>2016-8-7T11:23:2.000Z</time>
      </trkpt>
      <trkpt lat="50.19274" lon="4.38993">
        <ele>219</ele>
        <time>2016-8-7T11:23:2.000Z</time>
      </trkpt>
      <trkpt lat="50.19274" lon="4.38993">
        <ele>219</ele>
        <time>2016-8-7T11:23:2.000Z</time>
      </trkpt>
      <trkpt lat="50.19272" lon="4.38994">
        <ele>219.5</ele>
        <time>2016-8-7T11:23:2.000Z</time>
      </trkpt>
      <trkpt lat="50.19272" lon="4.38994">
        <ele>219.5</ele>
        <time>2016-8-7T11:23:2.000Z</time>
      </trkpt>
      <trkpt lat="50.1927" lon="4.38994">
        <ele>219.5</ele>
        <time>2016-8-7T11:23:2.000Z</time>
      </trkpt>
      <trkpt lat="50.1927" lon="4.38994">
        <ele>219.5</ele>
        <time>2016-8-7T11:23:2.000Z</time>
      </trkpt>
      <trkpt lat="50.19268" lon="4.38995">
        <ele>219.5</ele>
        <time>2016-8-7T11:23:2.000Z</time>
      </trkpt>
      <trkpt lat="50.19268" lon="4.38995">
        <ele>219.5</ele>
        <time>2016-8-7T11:23:2.000Z</time>
      </trkpt>
      <trkpt lat="50.19266" lon="4.38997">
        <ele>219.5</ele>
        <time>2016-8-7T11:23:2.000Z</time>
      </trkpt>
      <trkpt lat="50.19266" lon="4.38997">
        <ele>219.5</ele>
        <time>2016-8-7T11:23:2.000Z</time>
      </trkpt>
      <trkpt lat="50.19254" lon="4.39013">
        <ele>220</ele>
        <time>2016-8-7T11:23:2.000Z</time>
      </trkpt>
      <trkpt lat="50.19254" lon="4.39013">
        <ele>220</ele>
        <time>2016-8-7T11:23:2.000Z</time>
      </trkpt>
      <trkpt lat="50.19253" lon="4.39015">
        <ele>219.5</ele>
        <time>2016-8-7T11:23:2.000Z</time>
      </trkpt>
      <trkpt lat="50.19253" lon="4.39015">
        <ele>219.5</ele>
        <time>2016-8-7T11:23:2.000Z</time>
      </trkpt>
      <trkpt lat="50.19251" lon="4.39025">
        <ele>219.5</ele>
        <time>2016-8-7T11:23:2.000Z</time>
      </trkpt>
      <trkpt lat="50.19251" lon="4.39025">
        <ele>219.5</ele>
        <time>2016-8-7T11:23:2.000Z</time>
      </trkpt>
      <trkpt lat="50.19251" lon="4.39027">
        <ele>219.5</ele>
        <time>2016-8-7T11:23:2.000Z</time>
      </trkpt>
      <trkpt lat="50.19251" lon="4.39027">
        <ele>219.5</ele>
        <time>2016-8-7T11:23:2.000Z</time>
      </trkpt>
      <trkpt lat="50.19251" lon="4.39029">
        <ele>219.5</ele>
        <time>2016-8-7T11:23:2.000Z</time>
      </trkpt>
      <trkpt lat="50.19251" lon="4.39029">
        <ele>219.5</ele>
        <time>2016-8-7T11:23:2.000Z</time>
      </trkpt>
      <trkpt lat="50.19255" lon="4.39051">
        <ele>219.5</ele>
        <time>2016-8-7T11:23:2.000Z</time>
      </trkpt>
      <trkpt lat="50.19255" lon="4.39051">
        <ele>219.5</ele>
        <time>2016-8-7T11:23:2.000Z</time>
      </trkpt>
      <trkpt lat="50.19256" lon="4.39053">
        <ele>219.5</ele>
        <time>2016-8-7T11:23:2.000Z</time>
      </trkpt>
      <trkpt lat="50.19256" lon="4.39053">
        <ele>219.5</ele>
        <time>2016-8-7T11:23:2.000Z</time>
      </trkpt>
      <trkpt lat="50.19256" lon="4.39055">
        <ele>219.5</ele>
        <time>2016-8-7T11:23:2.000Z</time>
      </trkpt>
      <trkpt lat="50.19256" lon="4.39055">
        <ele>219.5</ele>
        <time>2016-8-7T11:23:2.000Z</time>
      </trkpt>
      <trkpt lat="50.19258" lon="4.3906">
        <ele>220.5</ele>
        <time>2016-8-7T11:23:2.000Z</time>
      </trkpt>
      <trkpt lat="50.19258" lon="4.3906">
        <ele>220.5</ele>
        <time>2016-8-7T11:24:54.000Z</time>
      </trkpt>
      <trkpt lat="50.19259" lon="4.39063">
        <ele>220.5</ele>
        <time>2016-8-7T11:24:54.000Z</time>
      </trkpt>
      <trkpt lat="50.19259" lon="4.39063">
        <ele>220.5</ele>
        <time>2016-8-7T11:24:54.000Z</time>
      </trkpt>
      <trkpt lat="50.1926" lon="4.39067">
        <ele>220.5</ele>
        <time>2016-8-7T11:24:54.000Z</time>
      </trkpt>
      <trkpt lat="50.1926" lon="4.39067">
        <ele>220.5</ele>
        <time>2016-8-7T11:24:54.000Z</time>
      </trkpt>
      <trkpt lat="50.19262" lon="4.39073">
        <ele>220.5</ele>
        <time>2016-8-7T11:24:54.000Z</time>
      </trkpt>
      <trkpt lat="50.19262" lon="4.39073">
        <ele>220.5</ele>
        <time>2016-8-7T11:24:54.000Z</time>
      </trkpt>
      <trkpt lat="50.19264" lon="4.39089">
        <ele>221.5</ele>
        <time>2016-8-7T11:24:54.000Z</time>
      </trkpt>
      <trkpt lat="50.19264" lon="4.39089">
        <ele>221.5</ele>
        <time>2016-8-7T11:24:54.000Z</time>
      </trkpt>
      <trkpt lat="50.19268" lon="4.3911">
        <ele>221.5</ele>
        <time>2016-8-7T11:24:54.000Z</time>
      </trkpt>
      <trkpt lat="50.19268" lon="4.3911">
        <ele>221.5</ele>
        <time>2016-8-7T11:24:54.000Z</time>
      </trkpt>
      <trkpt lat="50.19268" lon="4.39126">
        <ele>221.5</ele>
        <time>2016-8-7T11:24:54.000Z</time>
      </trkpt>
      <trkpt lat="50.19268" lon="4.39126">
        <ele>221.5</ele>
        <time>2016-8-7T11:24:54.000Z</time>
      </trkpt>
      <trkpt lat="50.19269" lon="4.39128">
        <ele>221.5</ele>
        <time>2016-8-7T11:24:54.000Z</time>
      </trkpt>
      <trkpt lat="50.19269" lon="4.39128">
        <ele>221.5</ele>
        <time>2016-8-7T11:24:54.000Z</time>
      </trkpt>
      <trkpt lat="50.19268" lon="4.39135">
        <ele>221.5</ele>
        <time>2016-8-7T11:24:54.000Z</time>
      </trkpt>
      <trkpt lat="50.19268" lon="4.39135">
        <ele>221.5</ele>
        <time>2016-8-7T11:24:54.000Z</time>
      </trkpt>
      <trkpt lat="50.19266" lon="4.39139">
        <ele>221.5</ele>
        <time>2016-8-7T11:24:54.000Z</time>
      </trkpt>
      <trkpt lat="50.19266" lon="4.39139">
        <ele>221.5</ele>
        <time>2016-8-7T11:24:54.000Z</time>
      </trkpt>
      <trkpt lat="50.19266" lon="4.39144">
        <ele>221.5</ele>
        <time>2016-8-7T11:24:54.000Z</time>
      </trkpt>
      <trkpt lat="50.19266" lon="4.39144">
        <ele>221.5</ele>
        <time>2016-8-7T11:24:54.000Z</time>
      </trkpt>
      <trkpt lat="50.19266" lon="4.39148">
        <ele>221.5</ele>
        <time>2016-8-7T11:24:54.000Z</time>
      </trkpt>
      <trkpt lat="50.19266" lon="4.39148">
        <ele>221.5</ele>
        <time>2016-8-7T11:24:54.000Z</time>
      </trkpt>
      <trkpt lat="50.19264" lon="4.39156">
        <ele>221</ele>
        <time>2016-8-7T11:24:54.000Z</time>
      </trkpt>
      <trkpt lat="50.19264" lon="4.39156">
        <ele>221</ele>
        <time>2016-8-7T11:24:54.000Z</time>
      </trkpt>
      <trkpt lat="50.19264" lon="4.39158">
        <ele>221</ele>
        <time>2016-8-7T11:24:54.000Z</time>
      </trkpt>
      <trkpt lat="50.19264" lon="4.39158">
        <ele>221</ele>
        <time>2016-8-7T11:24:54.000Z</time>
      </trkpt>
      <trkpt lat="50.19264" lon="4.39161">
        <ele>221</ele>
        <time>2016-8-7T11:24:54.000Z</time>
      </trkpt>
      <trkpt lat="50.19264" lon="4.39161">
        <ele>221</ele>
        <time>2016-8-7T11:24:54.000Z</time>
      </trkpt>
      <trkpt lat="50.19262" lon="4.39173">
        <ele>221</ele>
        <time>2016-8-7T11:24:54.000Z</time>
      </trkpt>
      <trkpt lat="50.19262" lon="4.39173">
        <ele>221</ele>
        <time>2016-8-7T11:24:54.000Z</time>
      </trkpt>
      <trkpt lat="50.19262" lon="4.39175">
        <ele>221</ele>
        <time>2016-8-7T11:24:54.000Z</time>
      </trkpt>
      <trkpt lat="50.19262" lon="4.39175">
        <ele>221</ele>
        <time>2016-8-7T11:24:54.000Z</time>
      </trkpt>
      <trkpt lat="50.1926" lon="4.39188">
        <ele>221</ele>
        <time>2016-8-7T11:24:54.000Z</time>
      </trkpt>
      <trkpt lat="50.1926" lon="4.39188">
        <ele>221</ele>
        <time>2016-8-7T11:24:54.000Z</time>
      </trkpt>
      <trkpt lat="50.1926" lon="4.39192">
        <ele>221</ele>
        <time>2016-8-7T11:24:54.000Z</time>
      </trkpt>
      <trkpt lat="50.1926" lon="4.39192">
        <ele>221</ele>
        <time>2016-8-7T11:24:54.000Z</time>
      </trkpt>
      <trkpt lat="50.19259" lon="4.39195">
        <ele>221</ele>
        <time>2016-8-7T11:24:54.000Z</time>
      </trkpt>
      <trkpt lat="50.19259" lon="4.39195">
        <ele>221</ele>
        <time>2016-8-7T11:24:54.000Z</time>
      </trkpt>
      <trkpt lat="50.19259" lon="4.39199">
        <ele>221</ele>
        <time>2016-8-7T11:24:54.000Z</time>
      </trkpt>
      <trkpt lat="50.19259" lon="4.39199">
        <ele>221</ele>
        <time>2016-8-7T11:24:54.000Z</time>
      </trkpt>
      <trkpt lat="50.19259" lon="4.39202">
        <ele>221</ele>
        <time>2016-8-7T11:24:54.000Z</time>
      </trkpt>
      <trkpt lat="50.19259" lon="4.39202">
        <ele>221</ele>
        <time>2016-8-7T11:24:54.000Z</time>
      </trkpt>
      <trkpt lat="50.19259" lon="4.39205">
        <ele>221</ele>
        <time>2016-8-7T11:24:54.000Z</time>
      </trkpt>
      <trkpt lat="50.19259" lon="4.39205">
        <ele>221</ele>
        <time>2016-8-7T11:24:54.000Z</time>
      </trkpt>
      <trkpt lat="50.1926" lon="4.3921">
        <ele>220.5</ele>
        <time>2016-8-7T11:24:54.000Z</time>
      </trkpt>
      <trkpt lat="50.1926" lon="4.3921">
        <ele>220.5</ele>
        <time>2016-8-7T11:24:54.000Z</time>
      </trkpt>
      <trkpt lat="50.1926" lon="4.39211">
        <ele>220.5</ele>
        <time>2016-8-7T11:24:54.000Z</time>
      </trkpt>
      <trkpt lat="50.1926" lon="4.39211">
        <ele>220.5</ele>
        <time>2016-8-7T11:24:54.000Z</time>
      </trkpt>
      <trkpt lat="50.1926" lon="4.39215">
        <ele>220.5</ele>
        <time>2016-8-7T11:24:54.000Z</time>
      </trkpt>
      <trkpt lat="50.1926" lon="4.39215">
        <ele>220.5</ele>
        <time>2016-8-7T11:24:54.000Z</time>
      </trkpt>
      <trkpt lat="50.1926" lon="4.39217">
        <ele>220.5</ele>
        <time>2016-8-7T11:24:54.000Z</time>
      </trkpt>
      <trkpt lat="50.1926" lon="4.39217">
        <ele>220.5</ele>
        <time>2016-8-7T11:24:54.000Z</time>
      </trkpt>
      <trkpt lat="50.1926" lon="4.39222">
        <ele>220.5</ele>
        <time>2016-8-7T11:24:54.000Z</time>
      </trkpt>
      <trkpt lat="50.1926" lon="4.39222">
        <ele>220.5</ele>
        <time>2016-8-7T11:24:54.000Z</time>
      </trkpt>
      <trkpt lat="50.1926" lon="4.39226">
        <ele>220.5</ele>
        <time>2016-8-7T11:24:54.000Z</time>
      </trkpt>
      <trkpt lat="50.1926" lon="4.39226">
        <ele>220.5</ele>
        <time>2016-8-7T11:24:54.000Z</time>
      </trkpt>
      <trkpt lat="50.19261" lon="4.39231">
        <ele>221.5</ele>
        <time>2016-8-7T11:24:54.000Z</time>
      </trkpt>
      <trkpt lat="50.19261" lon="4.39231">
        <ele>221.5</ele>
        <time>2016-8-7T11:24:54.000Z</time>
      </trkpt>
      <trkpt lat="50.19261" lon="4.39234">
        <ele>221.5</ele>
        <time>2016-8-7T11:24:54.000Z</time>
      </trkpt>
      <trkpt lat="50.19261" lon="4.39234">
        <ele>221.5</ele>
        <time>2016-8-7T11:24:54.000Z</time>
      </trkpt>
      <trkpt lat="50.19261" lon="4.39238">
        <ele>221.5</ele>
        <time>2016-8-7T11:24:54.000Z</time>
      </trkpt>
      <trkpt lat="50.19261" lon="4.39238">
        <ele>221.5</ele>
        <time>2016-8-7T11:24:54.000Z</time>
      </trkpt>
      <trkpt lat="50.19261" lon="4.39241">
        <ele>221.5</ele>
        <time>2016-8-7T11:24:54.000Z</time>
      </trkpt>
      <trkpt lat="50.19261" lon="4.39241">
        <ele>221.5</ele>
        <time>2016-8-7T11:24:54.000Z</time>
      </trkpt>
      <trkpt lat="50.19262" lon="4.39244">
        <ele>221</ele>
        <time>2016-8-7T11:24:54.000Z</time>
      </trkpt>
      <trkpt lat="50.19262" lon="4.39244">
        <ele>221</ele>
        <time>2016-8-7T11:24:54.000Z</time>
      </trkpt>
      <trkpt lat="50.19262" lon="4.39249">
        <ele>220.5</ele>
        <time>2016-8-7T11:24:54.000Z</time>
      </trkpt>
      <trkpt lat="50.19262" lon="4.39249">
        <ele>220.5</ele>
        <time>2016-8-7T11:24:54.000Z</time>
      </trkpt>
      <trkpt lat="50.19262" lon="4.39252">
        <ele>220.5</ele>
        <time>2016-8-7T11:24:54.000Z</time>
      </trkpt>
      <trkpt lat="50.19262" lon="4.39252">
        <ele>220.5</ele>
        <time>2016-8-7T11:24:54.000Z</time>
      </trkpt>
      <trkpt lat="50.19263" lon="4.39265">
        <ele>220.5</ele>
        <time>2016-8-7T11:24:54.000Z</time>
      </trkpt>
      <trkpt lat="50.19263" lon="4.39265">
        <ele>220.5</ele>
        <time>2016-8-7T11:24:54.000Z</time>
      </trkpt>
      <trkpt lat="50.19263" lon="4.39266">
        <ele>220.5</ele>
        <time>2016-8-7T11:24:54.000Z</time>
      </trkpt>
      <trkpt lat="50.19263" lon="4.39266">
        <ele>220.5</ele>
        <time>2016-8-7T11:24:54.000Z</time>
      </trkpt>
      <trkpt lat="50.19264" lon="4.3927">
        <ele>220.5</ele>
        <time>2016-8-7T11:24:54.000Z</time>
      </trkpt>
      <trkpt lat="50.19264" lon="4.3927">
        <ele>220.5</ele>
        <time>2016-8-7T11:24:54.000Z</time>
      </trkpt>
      <trkpt lat="50.19264" lon="4.39275">
        <ele>220.5</ele>
        <time>2016-8-7T11:24:54.000Z</time>
      </trkpt>
      <trkpt lat="50.19264" lon="4.39275">
        <ele>220.5</ele>
        <time>2016-8-7T11:24:54.000Z</time>
      </trkpt>
      <trkpt lat="50.19265" lon="4.39278">
        <ele>220.5</ele>
        <time>2016-8-7T11:24:54.000Z</time>
      </trkpt>
      <trkpt lat="50.19265" lon="4.39278">
        <ele>220.5</ele>
        <time>2016-8-7T11:24:54.000Z</time>
      </trkpt>
      <trkpt lat="50.19265" lon="4.39283">
        <ele>220.5</ele>
        <time>2016-8-7T11:24:54.000Z</time>
      </trkpt>
      <trkpt lat="50.19265" lon="4.39283">
        <ele>220.5</ele>
        <time>2016-8-7T11:24:54.000Z</time>
      </trkpt>
      <trkpt lat="50.19265" lon="4.39285">
        <ele>220</ele>
        <time>2016-8-7T11:24:54.000Z</time>
      </trkpt>
      <trkpt lat="50.19265" lon="4.39285">
        <ele>220</ele>
        <time>2016-8-7T11:24:54.000Z</time>
      </trkpt>
      <trkpt lat="50.19266" lon="4.39289">
        <ele>220</ele>
        <time>2016-8-7T11:24:54.000Z</time>
      </trkpt>
      <trkpt lat="50.19266" lon="4.39289">
        <ele>220</ele>
        <time>2016-8-7T11:24:54.000Z</time>
      </trkpt>
      <trkpt lat="50.19266" lon="4.39292">
        <ele>220.5</ele>
        <time>2016-8-7T11:24:54.000Z</time>
      </trkpt>
      <trkpt lat="50.19266" lon="4.39292">
        <ele>220.5</ele>
        <time>2016-8-7T11:24:54.000Z</time>
      </trkpt>
      <trkpt lat="50.19267" lon="4.39294">
        <ele>220.5</ele>
        <time>2016-8-7T11:24:54.000Z</time>
      </trkpt>
      <trkpt lat="50.19267" lon="4.39294">
        <ele>220.5</ele>
        <time>2016-8-7T11:24:54.000Z</time>
      </trkpt>
      <trkpt lat="50.19267" lon="4.39295">
        <ele>220</ele>
        <time>2016-8-7T11:24:54.000Z</time>
      </trkpt>
      <trkpt lat="50.19267" lon="4.39295">
        <ele>220</ele>
        <time>2016-8-7T11:24:54.000Z</time>
      </trkpt>
      <trkpt lat="50.19268" lon="4.39299">
        <ele>220</ele>
        <time>2016-8-7T11:24:54.000Z</time>
      </trkpt>
      <trkpt lat="50.19268" lon="4.39299">
        <ele>220</ele>
        <time>2016-8-7T11:24:54.000Z</time>
      </trkpt>
      <trkpt lat="50.19268" lon="4.39301">
        <ele>220</ele>
        <time>2016-8-7T11:24:54.000Z</time>
      </trkpt>
      <trkpt lat="50.19268" lon="4.39301">
        <ele>220</ele>
        <time>2016-8-7T11:24:54.000Z</time>
      </trkpt>
      <trkpt lat="50.19268" lon="4.39304">
        <ele>220</ele>
        <time>2016-8-7T11:24:54.000Z</time>
      </trkpt>
      <trkpt lat="50.19268" lon="4.39304">
        <ele>220</ele>
        <time>2016-8-7T11:24:54.000Z</time>
      </trkpt>
      <trkpt lat="50.19269" lon="4.39305">
        <ele>220</ele>
        <time>2016-8-7T11:24:54.000Z</time>
      </trkpt>
      <trkpt lat="50.19269" lon="4.39305">
        <ele>220</ele>
        <time>2016-8-7T11:24:54.000Z</time>
      </trkpt>
      <trkpt lat="50.19269" lon="4.39307">
        <ele>220.5</ele>
        <time>2016-8-7T11:26:52.000Z</time>
      </trkpt>
      <trkpt lat="50.19269" lon="4.39307">
        <ele>220.5</ele>
        <time>2016-8-7T11:26:52.000Z</time>
      </trkpt>
      <trkpt lat="50.1927" lon="4.3931">
        <ele>220.5</ele>
        <time>2016-8-7T11:26:52.000Z</time>
      </trkpt>
      <trkpt lat="50.1927" lon="4.3931">
        <ele>220.5</ele>
        <time>2016-8-7T11:26:52.000Z</time>
      </trkpt>
      <trkpt lat="50.1927" lon="4.39314">
        <ele>220.5</ele>
        <time>2016-8-7T11:26:52.000Z</time>
      </trkpt>
      <trkpt lat="50.1927" lon="4.39314">
        <ele>220.5</ele>
        <time>2016-8-7T11:26:52.000Z</time>
      </trkpt>
      <trkpt lat="50.1927" lon="4.39315">
        <ele>220.5</ele>
        <time>2016-8-7T11:26:52.000Z</time>
      </trkpt>
      <trkpt lat="50.1927" lon="4.39315">
        <ele>220.5</ele>
        <time>2016-8-7T11:26:52.000Z</time>
      </trkpt>
      <trkpt lat="50.19278" lon="4.39394">
        <ele>220.5</ele>
        <time>2016-8-7T11:26:52.000Z</time>
      </trkpt>
      <trkpt lat="50.19278" lon="4.39394">
        <ele>220.5</ele>
        <time>2016-8-7T11:26:52.000Z</time>
      </trkpt>
      <trkpt lat="50.19278" lon="4.39398">
        <ele>220</ele>
        <time>2016-8-7T11:26:52.000Z</time>
      </trkpt>
      <trkpt lat="50.19278" lon="4.39398">
        <ele>220</ele>
        <time>2016-8-7T11:26:52.000Z</time>
      </trkpt>
      <trkpt lat="50.19278" lon="4.394">
        <ele>220.5</ele>
        <time>2016-8-7T11:26:52.000Z</time>
      </trkpt>
      <trkpt lat="50.19278" lon="4.394">
        <ele>220.5</ele>
        <time>2016-8-7T11:26:52.000Z</time>
      </trkpt>
      <trkpt lat="50.19278" lon="4.39403">
        <ele>220.5</ele>
        <time>2016-8-7T11:26:52.000Z</time>
      </trkpt>
      <trkpt lat="50.19278" lon="4.39403">
        <ele>220.5</ele>
        <time>2016-8-7T11:26:52.000Z</time>
      </trkpt>
      <trkpt lat="50.19269" lon="4.39424">
        <ele>219.5</ele>
        <time>2016-8-7T11:26:52.000Z</time>
      </trkpt>
      <trkpt lat="50.19269" lon="4.39424">
        <ele>219.5</ele>
        <time>2016-8-7T11:26:52.000Z</time>
      </trkpt>
      <trkpt lat="50.19266" lon="4.39432">
        <ele>219.5</ele>
        <time>2016-8-7T11:26:52.000Z</time>
      </trkpt>
      <trkpt lat="50.19266" lon="4.39432">
        <ele>219.5</ele>
        <time>2016-8-7T11:26:52.000Z</time>
      </trkpt>
      <trkpt lat="50.19265" lon="4.39434">
        <ele>219.5</ele>
        <time>2016-8-7T11:26:52.000Z</time>
      </trkpt>
      <trkpt lat="50.19265" lon="4.39434">
        <ele>219.5</ele>
        <time>2016-8-7T11:26:52.000Z</time>
      </trkpt>
      <trkpt lat="50.19264" lon="4.39435">
        <ele>219.5</ele>
        <time>2016-8-7T11:26:52.000Z</time>
      </trkpt>
      <trkpt lat="50.19264" lon="4.39435">
        <ele>219.5</ele>
        <time>2016-8-7T11:26:52.000Z</time>
      </trkpt>
      <trkpt lat="50.19262" lon="4.39437">
        <ele>219.5</ele>
        <time>2016-8-7T11:26:52.000Z</time>
      </trkpt>
      <trkpt lat="50.19262" lon="4.39437">
        <ele>219.5</ele>
        <time>2016-8-7T11:26:52.000Z</time>
      </trkpt>
      <trkpt lat="50.19261" lon="4.39439">
        <ele>219.5</ele>
        <time>2016-8-7T11:26:52.000Z</time>
      </trkpt>
      <trkpt lat="50.19261" lon="4.39439">
        <ele>219.5</ele>
        <time>2016-8-7T11:26:52.000Z</time>
      </trkpt>
      <trkpt lat="50.1926" lon="4.3944">
        <ele>219.5</ele>
        <time>2016-8-7T11:26:52.000Z</time>
      </trkpt>
      <trkpt lat="50.1926" lon="4.3944">
        <ele>219.5</ele>
        <time>2016-8-7T11:26:52.000Z</time>
      </trkpt>
      <trkpt lat="50.19258" lon="4.39442">
        <ele>219.5</ele>
        <time>2016-8-7T11:26:52.000Z</time>
      </trkpt>
      <trkpt lat="50.19258" lon="4.39442">
        <ele>219.5</ele>
        <time>2016-8-7T11:26:52.000Z</time>
      </trkpt>
      <trkpt lat="50.19256" lon="4.39443">
        <ele>219.5</ele>
        <time>2016-8-7T11:26:52.000Z</time>
      </trkpt>
      <trkpt lat="50.19256" lon="4.39443">
        <ele>219.5</ele>
        <time>2016-8-7T11:26:52.000Z</time>
      </trkpt>
      <trkpt lat="50.19254" lon="4.39445">
        <ele>219.5</ele>
        <time>2016-8-7T11:26:52.000Z</time>
      </trkpt>
      <trkpt lat="50.19254" lon="4.39445">
        <ele>219.5</ele>
        <time>2016-8-7T11:26:52.000Z</time>
      </trkpt>
      <trkpt lat="50.19252" lon="4.39446">
        <ele>219</ele>
        <time>2016-8-7T11:26:52.000Z</time>
      </trkpt>
      <trkpt lat="50.19252" lon="4.39446">
        <ele>219</ele>
        <time>2016-8-7T11:26:52.000Z</time>
      </trkpt>
      <trkpt lat="50.1925" lon="4.39447">
        <ele>219</ele>
        <time>2016-8-7T11:26:52.000Z</time>
      </trkpt>
      <trkpt lat="50.1925" lon="4.39447">
        <ele>219</ele>
        <time>2016-8-7T11:26:52.000Z</time>
      </trkpt>
      <trkpt lat="50.19248" lon="4.39448">
        <ele>219.5</ele>
        <time>2016-8-7T11:26:52.000Z</time>
      </trkpt>
      <trkpt lat="50.19248" lon="4.39448">
        <ele>219.5</ele>
        <time>2016-8-7T11:26:52.000Z</time>
      </trkpt>
      <trkpt lat="50.19246" lon="4.39449">
        <ele>219.5</ele>
        <time>2016-8-7T11:26:52.000Z</time>
      </trkpt>
      <trkpt lat="50.19246" lon="4.39449">
        <ele>219.5</ele>
        <time>2016-8-7T11:26:52.000Z</time>
      </trkpt>
      <trkpt lat="50.19243" lon="4.39451">
        <ele>219.5</ele>
        <time>2016-8-7T11:26:52.000Z</time>
      </trkpt>
      <trkpt lat="50.19243" lon="4.39451">
        <ele>219.5</ele>
        <time>2016-8-7T11:26:52.000Z</time>
      </trkpt>
      <trkpt lat="50.19241" lon="4.39451">
        <ele>219.5</ele>
        <time>2016-8-7T11:26:52.000Z</time>
      </trkpt>
      <trkpt lat="50.19241" lon="4.39451">
        <ele>219.5</ele>
        <time>2016-8-7T11:26:52.000Z</time>
      </trkpt>
      <trkpt lat="50.19239" lon="4.39452">
        <ele>219.5</ele>
        <time>2016-8-7T11:26:52.000Z</time>
      </trkpt>
      <trkpt lat="50.19239" lon="4.39452">
        <ele>219.5</ele>
        <time>2016-8-7T11:26:52.000Z</time>
      </trkpt>
      <trkpt lat="50.19236" lon="4.39452">
        <ele>219.5</ele>
        <time>2016-8-7T11:26:52.000Z</time>
      </trkpt>
      <trkpt lat="50.19236" lon="4.39452">
        <ele>219.5</ele>
        <time>2016-8-7T11:26:52.000Z</time>
      </trkpt>
      <trkpt lat="50.19235" lon="4.39452">
        <ele>219.5</ele>
        <time>2016-8-7T11:26:52.000Z</time>
      </trkpt>
      <trkpt lat="50.19235" lon="4.39452">
        <ele>219.5</ele>
        <time>2016-8-7T11:26:52.000Z</time>
      </trkpt>
      <trkpt lat="50.19232" lon="4.39452">
        <ele>219.5</ele>
        <time>2016-8-7T11:26:52.000Z</time>
      </trkpt>
      <trkpt lat="50.19232" lon="4.39452">
        <ele>219.5</ele>
        <time>2016-8-7T11:26:52.000Z</time>
      </trkpt>
      <trkpt lat="50.19231" lon="4.39452">
        <ele>219.5</ele>
        <time>2016-8-7T11:26:52.000Z</time>
      </trkpt>
      <trkpt lat="50.19231" lon="4.39452">
        <ele>219.5</ele>
        <time>2016-8-7T11:26:52.000Z</time>
      </trkpt>
      <trkpt lat="50.19229" lon="4.39452">
        <ele>219.5</ele>
        <time>2016-8-7T11:26:52.000Z</time>
      </trkpt>
      <trkpt lat="50.19229" lon="4.39452">
        <ele>219.5</ele>
        <time>2016-8-7T11:26:52.000Z</time>
      </trkpt>
      <trkpt lat="50.19227" lon="4.39451">
        <ele>219.5</ele>
        <time>2016-8-7T11:26:52.000Z</time>
      </trkpt>
      <trkpt lat="50.19227" lon="4.39451">
        <ele>219.5</ele>
        <time>2016-8-7T11:26:52.000Z</time>
      </trkpt>
      <trkpt lat="50.19226" lon="4.39451">
        <ele>219.5</ele>
        <time>2016-8-7T11:26:52.000Z</time>
      </trkpt>
      <trkpt lat="50.19226" lon="4.39451">
        <ele>219.5</ele>
        <time>2016-8-7T11:26:52.000Z</time>
      </trkpt>
      <trkpt lat="50.19224" lon="4.39449">
        <ele>219</ele>
        <time>2016-8-7T11:26:52.000Z</time>
      </trkpt>
      <trkpt lat="50.19224" lon="4.39449">
        <ele>219</ele>
        <time>2016-8-7T11:26:52.000Z</time>
      </trkpt>
      <trkpt lat="50.19223" lon="4.39449">
        <ele>219</ele>
        <time>2016-8-7T11:26:52.000Z</time>
      </trkpt>
      <trkpt lat="50.19223" lon="4.39449">
        <ele>219</ele>
        <time>2016-8-7T11:26:52.000Z</time>
      </trkpt>
      <trkpt lat="50.19221" lon="4.39448">
        <ele>219</ele>
        <time>2016-8-7T11:26:52.000Z</time>
      </trkpt>
      <trkpt lat="50.19221" lon="4.39448">
        <ele>219</ele>
        <time>2016-8-7T11:26:52.000Z</time>
      </trkpt>
      <trkpt lat="50.19219" lon="4.39446">
        <ele>219</ele>
        <time>2016-8-7T11:26:52.000Z</time>
      </trkpt>
      <trkpt lat="50.19219" lon="4.39446">
        <ele>219</ele>
        <time>2016-8-7T11:26:52.000Z</time>
      </trkpt>
      <trkpt lat="50.19217" lon="4.39444">
        <ele>218.5</ele>
        <time>2016-8-7T11:26:52.000Z</time>
      </trkpt>
      <trkpt lat="50.19217" lon="4.39444">
        <ele>218.5</ele>
        <time>2016-8-7T11:26:52.000Z</time>
      </trkpt>
      <trkpt lat="50.19216" lon="4.39443">
        <ele>219</ele>
        <time>2016-8-7T11:26:52.000Z</time>
      </trkpt>
      <trkpt lat="50.19216" lon="4.39443">
        <ele>219</ele>
        <time>2016-8-7T11:26:52.000Z</time>
      </trkpt>
      <trkpt lat="50.19214" lon="4.39441">
        <ele>218.5</ele>
        <time>2016-8-7T11:26:52.000Z</time>
      </trkpt>
      <trkpt lat="50.19214" lon="4.39441">
        <ele>218.5</ele>
        <time>2016-8-7T11:26:52.000Z</time>
      </trkpt>
      <trkpt lat="50.19213" lon="4.3944">
        <ele>218</ele>
        <time>2016-8-7T11:26:52.000Z</time>
      </trkpt>
      <trkpt lat="50.19213" lon="4.3944">
        <ele>218</ele>
        <time>2016-8-7T11:26:52.000Z</time>
      </trkpt>
      <trkpt lat="50.19212" lon="4.39438">
        <ele>218.5</ele>
        <time>2016-8-7T11:26:52.000Z</time>
      </trkpt>
      <trkpt lat="50.19212" lon="4.39438">
        <ele>218.5</ele>
        <time>2016-8-7T11:26:52.000Z</time>
      </trkpt>
      <trkpt lat="50.1921" lon="4.39435">
        <ele>218.5</ele>
        <time>2016-8-7T11:26:52.000Z</time>
      </trkpt>
      <trkpt lat="50.1921" lon="4.39435">
        <ele>218.5</ele>
        <time>2016-8-7T11:26:52.000Z</time>
      </trkpt>
      <trkpt lat="50.19208" lon="4.39433">
        <ele>218.5</ele>
        <time>2016-8-7T11:26:52.000Z</time>
      </trkpt>
      <trkpt lat="50.19208" lon="4.39433">
        <ele>218.5</ele>
        <time>2016-8-7T11:26:52.000Z</time>
      </trkpt>
      <trkpt lat="50.19206" lon="4.39431">
        <ele>218.5</ele>
        <time>2016-8-7T11:26:52.000Z</time>
      </trkpt>
      <trkpt lat="50.19206" lon="4.39431">
        <ele>218.5</ele>
        <time>2016-8-7T11:26:52.000Z</time>
      </trkpt>
      <trkpt lat="50.19205" lon="4.3943">
        <ele>219.5</ele>
        <time>2016-8-7T11:26:52.000Z</time>
      </trkpt>
      <trkpt lat="50.19205" lon="4.3943">
        <ele>219.5</ele>
        <time>2016-8-7T11:26:52.000Z</time>
      </trkpt>
      <trkpt lat="50.19204" lon="4.39428">
        <ele>219.5</ele>
        <time>2016-8-7T11:26:52.000Z</time>
      </trkpt>
      <trkpt lat="50.19204" lon="4.39428">
        <ele>219.5</ele>
        <time>2016-8-7T11:26:52.000Z</time>
      </trkpt>
      <trkpt lat="50.19203" lon="4.39426">
        <ele>219.5</ele>
        <time>2016-8-7T11:26:52.000Z</time>
      </trkpt>
      <trkpt lat="50.19203" lon="4.39426">
        <ele>219.5</ele>
        <time>2016-8-7T11:26:52.000Z</time>
      </trkpt>
      <trkpt lat="50.19202" lon="4.39424">
        <ele>219.5</ele>
        <time>2016-8-7T11:26:52.000Z</time>
      </trkpt>
      <trkpt lat="50.19202" lon="4.39424">
        <ele>219.5</ele>
        <time>2016-8-7T11:26:52.000Z</time>
      </trkpt>
      <trkpt lat="50.19201" lon="4.39422">
        <ele>219.5</ele>
        <time>2016-8-7T11:26:52.000Z</time>
      </trkpt>
      <trkpt lat="50.19201" lon="4.39422">
        <ele>219.5</ele>
        <time>2016-8-7T11:26:52.000Z</time>
      </trkpt>
      <trkpt lat="50.192" lon="4.39419">
        <ele>219.5</ele>
        <time>2016-8-7T11:26:52.000Z</time>
      </trkpt>
      <trkpt lat="50.192" lon="4.39419">
        <ele>219.5</ele>
        <time>2016-8-7T11:26:52.000Z</time>
      </trkpt>
      <trkpt lat="50.19198" lon="4.39416">
        <ele>219.5</ele>
        <time>2016-8-7T11:26:52.000Z</time>
      </trkpt>
      <trkpt lat="50.19198" lon="4.39416">
        <ele>219.5</ele>
        <time>2016-8-7T11:28:0.000Z</time>
      </trkpt>
      <trkpt lat="50.19197" lon="4.39414">
        <ele>219.5</ele>
        <time>2016-8-7T11:28:0.000Z</time>
      </trkpt>
      <trkpt lat="50.19197" lon="4.39414">
        <ele>219.5</ele>
        <time>2016-8-7T11:28:0.000Z</time>
      </trkpt>
      <trkpt lat="50.19196" lon="4.39411">
        <ele>219.5</ele>
        <time>2016-8-7T11:28:0.000Z</time>
      </trkpt>
      <trkpt lat="50.19196" lon="4.39411">
        <ele>219.5</ele>
        <time>2016-8-7T11:28:0.000Z</time>
      </trkpt>
      <trkpt lat="50.19195" lon="4.39407">
        <ele>220</ele>
        <time>2016-8-7T11:28:0.000Z</time>
      </trkpt>
      <trkpt lat="50.19195" lon="4.39407">
        <ele>220</ele>
        <time>2016-8-7T11:28:0.000Z</time>
      </trkpt>
      <trkpt lat="50.19193" lon="4.39403">
        <ele>220</ele>
        <time>2016-8-7T11:28:0.000Z</time>
      </trkpt>
      <trkpt lat="50.19193" lon="4.39403">
        <ele>220</ele>
        <time>2016-8-7T11:28:0.000Z</time>
      </trkpt>
      <trkpt lat="50.19192" lon="4.394">
        <ele>220</ele>
        <time>2016-8-7T11:28:0.000Z</time>
      </trkpt>
      <trkpt lat="50.19192" lon="4.394">
        <ele>220</ele>
        <time>2016-8-7T11:28:0.000Z</time>
      </trkpt>
      <trkpt lat="50.19191" lon="4.39398">
        <ele>220</ele>
        <time>2016-8-7T11:28:0.000Z</time>
      </trkpt>
      <trkpt lat="50.19191" lon="4.39398">
        <ele>220</ele>
        <time>2016-8-7T11:28:0.000Z</time>
      </trkpt>
      <trkpt lat="50.19189" lon="4.39394">
        <ele>220.5</ele>
        <time>2016-8-7T11:28:0.000Z</time>
      </trkpt>
      <trkpt lat="50.19189" lon="4.39394">
        <ele>220.5</ele>
        <time>2016-8-7T11:28:0.000Z</time>
      </trkpt>
      <trkpt lat="50.19188" lon="4.39392">
        <ele>220.5</ele>
        <time>2016-8-7T11:28:0.000Z</time>
      </trkpt>
      <trkpt lat="50.19188" lon="4.39392">
        <ele>220.5</ele>
        <time>2016-8-7T11:28:0.000Z</time>
      </trkpt>
      <trkpt lat="50.19187" lon="4.39389">
        <ele>220.5</ele>
        <time>2016-8-7T11:28:0.000Z</time>
      </trkpt>
      <trkpt lat="50.19187" lon="4.39389">
        <ele>220.5</ele>
        <time>2016-8-7T11:28:0.000Z</time>
      </trkpt>
      <trkpt lat="50.19186" lon="4.39387">
        <ele>220.5</ele>
        <time>2016-8-7T11:28:0.000Z</time>
      </trkpt>
      <trkpt lat="50.19186" lon="4.39387">
        <ele>220.5</ele>
        <time>2016-8-7T11:28:0.000Z</time>
      </trkpt>
      <trkpt lat="50.19185" lon="4.39384">
        <ele>221</ele>
        <time>2016-8-7T11:28:0.000Z</time>
      </trkpt>
      <trkpt lat="50.19185" lon="4.39384">
        <ele>221</ele>
        <time>2016-8-7T11:28:0.000Z</time>
      </trkpt>
      <trkpt lat="50.19184" lon="4.39382">
        <ele>221</ele>
        <time>2016-8-7T11:28:0.000Z</time>
      </trkpt>
      <trkpt lat="50.19184" lon="4.39382">
        <ele>221</ele>
        <time>2016-8-7T11:28:0.000Z</time>
      </trkpt>
      <trkpt lat="50.19183" lon="4.39379">
        <ele>221.5</ele>
        <time>2016-8-7T11:28:0.000Z</time>
      </trkpt>
      <trkpt lat="50.19183" lon="4.39379">
        <ele>221.5</ele>
        <time>2016-8-7T11:28:0.000Z</time>
      </trkpt>
      <trkpt lat="50.19182" lon="4.39376">
        <ele>221.5</ele>
        <time>2016-8-7T11:28:0.000Z</time>
      </trkpt>
      <trkpt lat="50.19182" lon="4.39376">
        <ele>221.5</ele>
        <time>2016-8-7T11:28:0.000Z</time>
      </trkpt>
      <trkpt lat="50.1918" lon="4.39372">
        <ele>221.5</ele>
        <time>2016-8-7T11:28:0.000Z</time>
      </trkpt>
      <trkpt lat="50.1918" lon="4.39372">
        <ele>221.5</ele>
        <time>2016-8-7T11:28:0.000Z</time>
      </trkpt>
      <trkpt lat="50.19179" lon="4.39371">
        <ele>222</ele>
        <time>2016-8-7T11:28:0.000Z</time>
      </trkpt>
      <trkpt lat="50.19179" lon="4.39371">
        <ele>222</ele>
        <time>2016-8-7T11:28:0.000Z</time>
      </trkpt>
      <trkpt lat="50.19178" lon="4.39367">
        <ele>222</ele>
        <time>2016-8-7T11:28:0.000Z</time>
      </trkpt>
      <trkpt lat="50.19178" lon="4.39367">
        <ele>222</ele>
        <time>2016-8-7T11:28:0.000Z</time>
      </trkpt>
      <trkpt lat="50.19176" lon="4.39364">
        <ele>222.5</ele>
        <time>2016-8-7T11:28:0.000Z</time>
      </trkpt>
      <trkpt lat="50.19176" lon="4.39364">
        <ele>222.5</ele>
        <time>2016-8-7T11:28:0.000Z</time>
      </trkpt>
      <trkpt lat="50.19175" lon="4.39363">
        <ele>222.5</ele>
        <time>2016-8-7T11:28:0.000Z</time>
      </trkpt>
      <trkpt lat="50.19175" lon="4.39363">
        <ele>222.5</ele>
        <time>2016-8-7T11:28:0.000Z</time>
      </trkpt>
      <trkpt lat="50.19175" lon="4.39361">
        <ele>222.5</ele>
        <time>2016-8-7T11:28:0.000Z</time>
      </trkpt>
      <trkpt lat="50.19175" lon="4.39361">
        <ele>222.5</ele>
        <time>2016-8-7T11:28:0.000Z</time>
      </trkpt>
      <trkpt lat="50.19173" lon="4.39358">
        <ele>223</ele>
        <time>2016-8-7T11:28:0.000Z</time>
      </trkpt>
      <trkpt lat="50.19173" lon="4.39358">
        <ele>223</ele>
        <time>2016-8-7T11:28:0.000Z</time>
      </trkpt>
      <trkpt lat="50.19172" lon="4.39356">
        <ele>223</ele>
        <time>2016-8-7T11:28:0.000Z</time>
      </trkpt>
      <trkpt lat="50.19172" lon="4.39356">
        <ele>223</ele>
        <time>2016-8-7T11:28:0.000Z</time>
      </trkpt>
      <trkpt lat="50.1917" lon="4.39352">
        <ele>223</ele>
        <time>2016-8-7T11:28:0.000Z</time>
      </trkpt>
      <trkpt lat="50.1917" lon="4.39352">
        <ele>223</ele>
        <time>2016-8-7T11:28:0.000Z</time>
      </trkpt>
      <trkpt lat="50.19169" lon="4.39351">
        <ele>223</ele>
        <time>2016-8-7T11:28:0.000Z</time>
      </trkpt>
      <trkpt lat="50.19169" lon="4.39351">
        <ele>223</ele>
        <time>2016-8-7T11:28:0.000Z</time>
      </trkpt>
      <trkpt lat="50.19169" lon="4.39349">
        <ele>223</ele>
        <time>2016-8-7T11:28:0.000Z</time>
      </trkpt>
      <trkpt lat="50.19169" lon="4.39349">
        <ele>223</ele>
        <time>2016-8-7T11:28:0.000Z</time>
      </trkpt>
      <trkpt lat="50.19167" lon="4.39346">
        <ele>223</ele>
        <time>2016-8-7T11:28:0.000Z</time>
      </trkpt>
      <trkpt lat="50.19167" lon="4.39346">
        <ele>223</ele>
        <time>2016-8-7T11:28:0.000Z</time>
      </trkpt>
      <trkpt lat="50.19166" lon="4.39343">
        <ele>223</ele>
        <time>2016-8-7T11:28:0.000Z</time>
      </trkpt>
      <trkpt lat="50.19166" lon="4.39343">
        <ele>223</ele>
        <time>2016-8-7T11:28:0.000Z</time>
      </trkpt>
      <trkpt lat="50.19166" lon="4.39341">
        <ele>223</ele>
        <time>2016-8-7T11:28:0.000Z</time>
      </trkpt>
      <trkpt lat="50.19166" lon="4.39341">
        <ele>223</ele>
        <time>2016-8-7T11:28:0.000Z</time>
      </trkpt>
      <trkpt lat="50.19165" lon="4.39338">
        <ele>223.5</ele>
        <time>2016-8-7T11:28:0.000Z</time>
      </trkpt>
      <trkpt lat="50.19165" lon="4.39338">
        <ele>223.5</ele>
        <time>2016-8-7T11:28:0.000Z</time>
      </trkpt>
      <trkpt lat="50.19164" lon="4.39335">
        <ele>223.5</ele>
        <time>2016-8-7T11:28:0.000Z</time>
      </trkpt>
      <trkpt lat="50.19164" lon="4.39335">
        <ele>223.5</ele>
        <time>2016-8-7T11:28:0.000Z</time>
      </trkpt>
      <trkpt lat="50.19163" lon="4.39334">
        <ele>224</ele>
        <time>2016-8-7T11:28:0.000Z</time>
      </trkpt>
      <trkpt lat="50.19163" lon="4.39334">
        <ele>224</ele>
        <time>2016-8-7T11:28:0.000Z</time>
      </trkpt>
      <trkpt lat="50.19163" lon="4.39332">
        <ele>224</ele>
        <time>2016-8-7T11:28:0.000Z</time>
      </trkpt>
      <trkpt lat="50.19163" lon="4.39332">
        <ele>224</ele>
        <time>2016-8-7T11:28:0.000Z</time>
      </trkpt>
      <trkpt lat="50.19162" lon="4.39329">
        <ele>224</ele>
        <time>2016-8-7T11:28:0.000Z</time>
      </trkpt>
      <trkpt lat="50.19162" lon="4.39329">
        <ele>224</ele>
        <time>2016-8-7T11:28:0.000Z</time>
      </trkpt>
      <trkpt lat="50.19161" lon="4.39326">
        <ele>224.5</ele>
        <time>2016-8-7T11:28:0.000Z</time>
      </trkpt>
      <trkpt lat="50.19161" lon="4.39326">
        <ele>224.5</ele>
        <time>2016-8-7T11:28:0.000Z</time>
      </trkpt>
      <trkpt lat="50.1916" lon="4.39323">
        <ele>224.5</ele>
        <time>2016-8-7T11:28:0.000Z</time>
      </trkpt>
      <trkpt lat="50.1916" lon="4.39323">
        <ele>224.5</ele>
        <time>2016-8-7T11:28:0.000Z</time>
      </trkpt>
      <trkpt lat="50.19159" lon="4.39321">
        <ele>224.5</ele>
        <time>2016-8-7T11:28:0.000Z</time>
      </trkpt>
      <trkpt lat="50.19159" lon="4.39321">
        <ele>224.5</ele>
        <time>2016-8-7T11:28:0.000Z</time>
      </trkpt>
      <trkpt lat="50.19159" lon="4.39319">
        <ele>224.5</ele>
        <time>2016-8-7T11:28:0.000Z</time>
      </trkpt>
      <trkpt lat="50.19159" lon="4.39319">
        <ele>224.5</ele>
        <time>2016-8-7T11:28:0.000Z</time>
      </trkpt>
      <trkpt lat="50.19158" lon="4.39316">
        <ele>225</ele>
        <time>2016-8-7T11:28:0.000Z</time>
      </trkpt>
      <trkpt lat="50.19158" lon="4.39316">
        <ele>225</ele>
        <time>2016-8-7T11:28:0.000Z</time>
      </trkpt>
      <trkpt lat="50.19157" lon="4.39314">
        <ele>225</ele>
        <time>2016-8-7T11:28:0.000Z</time>
      </trkpt>
      <trkpt lat="50.19157" lon="4.39314">
        <ele>225</ele>
        <time>2016-8-7T11:28:0.000Z</time>
      </trkpt>
      <trkpt lat="50.19156" lon="4.39311">
        <ele>225</ele>
        <time>2016-8-7T11:28:0.000Z</time>
      </trkpt>
      <trkpt lat="50.19156" lon="4.39311">
        <ele>225</ele>
        <time>2016-8-7T11:28:0.000Z</time>
      </trkpt>
      <trkpt lat="50.19155" lon="4.39308">
        <ele>225.5</ele>
        <time>2016-8-7T11:28:0.000Z</time>
      </trkpt>
      <trkpt lat="50.19155" lon="4.39308">
        <ele>225.5</ele>
        <time>2016-8-7T11:28:0.000Z</time>
      </trkpt>
      <trkpt lat="50.19154" lon="4.39305">
        <ele>225.5</ele>
        <time>2016-8-7T11:28:0.000Z</time>
      </trkpt>
      <trkpt lat="50.19154" lon="4.39305">
        <ele>225.5</ele>
        <time>2016-8-7T11:28:0.000Z</time>
      </trkpt>
      <trkpt lat="50.19154" lon="4.39302">
        <ele>225.5</ele>
        <time>2016-8-7T11:28:0.000Z</time>
      </trkpt>
      <trkpt lat="50.19154" lon="4.39302">
        <ele>225.5</ele>
        <time>2016-8-7T11:28:0.000Z</time>
      </trkpt>
      <trkpt lat="50.19153" lon="4.39298">
        <ele>226</ele>
        <time>2016-8-7T11:28:0.000Z</time>
      </trkpt>
      <trkpt lat="50.19153" lon="4.39298">
        <ele>226</ele>
        <time>2016-8-7T11:28:0.000Z</time>
      </trkpt>
      <trkpt lat="50.19152" lon="4.39296">
        <ele>226</ele>
        <time>2016-8-7T11:28:0.000Z</time>
      </trkpt>
      <trkpt lat="50.19152" lon="4.39296">
        <ele>226</ele>
        <time>2016-8-7T11:28:0.000Z</time>
      </trkpt>
      <trkpt lat="50.19152" lon="4.39293">
        <ele>226</ele>
        <time>2016-8-7T11:28:0.000Z</time>
      </trkpt>
      <trkpt lat="50.19152" lon="4.39293">
        <ele>226</ele>
        <time>2016-8-7T11:28:0.000Z</time>
      </trkpt>
      <trkpt lat="50.19152" lon="4.39291">
        <ele>226</ele>
        <time>2016-8-7T11:28:0.000Z</time>
      </trkpt>
      <trkpt lat="50.19152" lon="4.39291">
        <ele>226</ele>
        <time>2016-8-7T11:28:0.000Z</time>
      </trkpt>
      <trkpt lat="50.19152" lon="4.39288">
        <ele>226.5</ele>
        <time>2016-8-7T11:28:0.000Z</time>
      </trkpt>
      <trkpt lat="50.19152" lon="4.39288">
        <ele>226.5</ele>
        <time>2016-8-7T11:28:0.000Z</time>
      </trkpt>
      <trkpt lat="50.19151" lon="4.39287">
        <ele>226.5</ele>
        <time>2016-8-7T11:28:0.000Z</time>
      </trkpt>
      <trkpt lat="50.19151" lon="4.39287">
        <ele>226.5</ele>
        <time>2016-8-7T11:28:0.000Z</time>
      </trkpt>
      <trkpt lat="50.19152" lon="4.39284">
        <ele>226.5</ele>
        <time>2016-8-7T11:28:0.000Z</time>
      </trkpt>
      <trkpt lat="50.19152" lon="4.39284">
        <ele>226.5</ele>
        <time>2016-8-7T11:28:0.000Z</time>
      </trkpt>
      <trkpt lat="50.19152" lon="4.39281">
        <ele>226.5</ele>
        <time>2016-8-7T11:29:15.000Z</time>
      </trkpt>
      <trkpt lat="50.19152" lon="4.39281">
        <ele>226.5</ele>
        <time>2016-8-7T11:29:15.000Z</time>
      </trkpt>
      <trkpt lat="50.19152" lon="4.3928">
        <ele>226.5</ele>
        <time>2016-8-7T11:29:15.000Z</time>
      </trkpt>
      <trkpt lat="50.19152" lon="4.3928">
        <ele>226.5</ele>
        <time>2016-8-7T11:29:15.000Z</time>
      </trkpt>
      <trkpt lat="50.19152" lon="4.39276">
        <ele>226.5</ele>
        <time>2016-8-7T11:29:15.000Z</time>
      </trkpt>
      <trkpt lat="50.19152" lon="4.39276">
        <ele>226.5</ele>
        <time>2016-8-7T11:29:15.000Z</time>
      </trkpt>
      <trkpt lat="50.19151" lon="4.39272">
        <ele>226.5</ele>
        <time>2016-8-7T11:29:15.000Z</time>
      </trkpt>
      <trkpt lat="50.19151" lon="4.39272">
        <ele>226.5</ele>
        <time>2016-8-7T11:29:15.000Z</time>
      </trkpt>
      <trkpt lat="50.19151" lon="4.39268">
        <ele>226.5</ele>
        <time>2016-8-7T11:29:15.000Z</time>
      </trkpt>
      <trkpt lat="50.19151" lon="4.39268">
        <ele>226.5</ele>
        <time>2016-8-7T11:29:15.000Z</time>
      </trkpt>
      <trkpt lat="50.19151" lon="4.39265">
        <ele>226</ele>
        <time>2016-8-7T11:29:15.000Z</time>
      </trkpt>
      <trkpt lat="50.19151" lon="4.39265">
        <ele>226</ele>
        <time>2016-8-7T11:29:15.000Z</time>
      </trkpt>
      <trkpt lat="50.19152" lon="4.39264">
        <ele>226</ele>
        <time>2016-8-7T11:29:15.000Z</time>
      </trkpt>
      <trkpt lat="50.19152" lon="4.39264">
        <ele>226</ele>
        <time>2016-8-7T11:29:15.000Z</time>
      </trkpt>
      <trkpt lat="50.19152" lon="4.39261">
        <ele>226</ele>
        <time>2016-8-7T11:29:15.000Z</time>
      </trkpt>
      <trkpt lat="50.19152" lon="4.39261">
        <ele>226</ele>
        <time>2016-8-7T11:29:15.000Z</time>
      </trkpt>
      <trkpt lat="50.19152" lon="4.39257">
        <ele>226</ele>
        <time>2016-8-7T11:29:15.000Z</time>
      </trkpt>
      <trkpt lat="50.19152" lon="4.39257">
        <ele>226</ele>
        <time>2016-8-7T11:29:15.000Z</time>
      </trkpt>
      <trkpt lat="50.19153" lon="4.39254">
        <ele>225.5</ele>
        <time>2016-8-7T11:29:15.000Z</time>
      </trkpt>
      <trkpt lat="50.19153" lon="4.39254">
        <ele>225.5</ele>
        <time>2016-8-7T11:29:15.000Z</time>
      </trkpt>
      <trkpt lat="50.19153" lon="4.39252">
        <ele>225.5</ele>
        <time>2016-8-7T11:29:15.000Z</time>
      </trkpt>
      <trkpt lat="50.19153" lon="4.39252">
        <ele>225.5</ele>
        <time>2016-8-7T11:29:15.000Z</time>
      </trkpt>
      <trkpt lat="50.19153" lon="4.39248">
        <ele>225.5</ele>
        <time>2016-8-7T11:29:15.000Z</time>
      </trkpt>
      <trkpt lat="50.19153" lon="4.39248">
        <ele>225.5</ele>
        <time>2016-8-7T11:29:15.000Z</time>
      </trkpt>
      <trkpt lat="50.19153" lon="4.39245">
        <ele>225.5</ele>
        <time>2016-8-7T11:29:15.000Z</time>
      </trkpt>
      <trkpt lat="50.19153" lon="4.39245">
        <ele>225.5</ele>
        <time>2016-8-7T11:29:15.000Z</time>
      </trkpt>
      <trkpt lat="50.19153" lon="4.39241">
        <ele>225.5</ele>
        <time>2016-8-7T11:29:15.000Z</time>
      </trkpt>
      <trkpt lat="50.19153" lon="4.39241">
        <ele>225.5</ele>
        <time>2016-8-7T11:29:15.000Z</time>
      </trkpt>
      <trkpt lat="50.19153" lon="4.3924">
        <ele>225</ele>
        <time>2016-8-7T11:29:15.000Z</time>
      </trkpt>
      <trkpt lat="50.19153" lon="4.3924">
        <ele>225</ele>
        <time>2016-8-7T11:29:15.000Z</time>
      </trkpt>
      <trkpt lat="50.19153" lon="4.39237">
        <ele>225</ele>
        <time>2016-8-7T11:29:15.000Z</time>
      </trkpt>
      <trkpt lat="50.19153" lon="4.39237">
        <ele>225</ele>
        <time>2016-8-7T11:29:15.000Z</time>
      </trkpt>
      <trkpt lat="50.19153" lon="4.39233">
        <ele>225.5</ele>
        <time>2016-8-7T11:29:15.000Z</time>
      </trkpt>
      <trkpt lat="50.19153" lon="4.39233">
        <ele>225.5</ele>
        <time>2016-8-7T11:29:15.000Z</time>
      </trkpt>
      <trkpt lat="50.19153" lon="4.3923">
        <ele>225.5</ele>
        <time>2016-8-7T11:29:15.000Z</time>
      </trkpt>
      <trkpt lat="50.19153" lon="4.3923">
        <ele>225.5</ele>
        <time>2016-8-7T11:29:15.000Z</time>
      </trkpt>
      <trkpt lat="50.19153" lon="4.39227">
        <ele>225.5</ele>
        <time>2016-8-7T11:29:15.000Z</time>
      </trkpt>
      <trkpt lat="50.19153" lon="4.39227">
        <ele>225.5</ele>
        <time>2016-8-7T11:29:15.000Z</time>
      </trkpt>
      <trkpt lat="50.19153" lon="4.39223">
        <ele>225.5</ele>
        <time>2016-8-7T11:29:15.000Z</time>
      </trkpt>
      <trkpt lat="50.19153" lon="4.39223">
        <ele>225.5</ele>
        <time>2016-8-7T11:29:15.000Z</time>
      </trkpt>
      <trkpt lat="50.19154" lon="4.3922">
        <ele>225.5</ele>
        <time>2016-8-7T11:29:15.000Z</time>
      </trkpt>
      <trkpt lat="50.19154" lon="4.3922">
        <ele>225.5</ele>
        <time>2016-8-7T11:29:15.000Z</time>
      </trkpt>
      <trkpt lat="50.19154" lon="4.39218">
        <ele>225.5</ele>
        <time>2016-8-7T11:29:15.000Z</time>
      </trkpt>
      <trkpt lat="50.19154" lon="4.39218">
        <ele>225.5</ele>
        <time>2016-8-7T11:29:15.000Z</time>
      </trkpt>
      <trkpt lat="50.19154" lon="4.39215">
        <ele>226</ele>
        <time>2016-8-7T11:29:15.000Z</time>
      </trkpt>
      <trkpt lat="50.19154" lon="4.39215">
        <ele>226</ele>
        <time>2016-8-7T11:29:15.000Z</time>
      </trkpt>
      <trkpt lat="50.19153" lon="4.39211">
        <ele>225.5</ele>
        <time>2016-8-7T11:29:15.000Z</time>
      </trkpt>
      <trkpt lat="50.19153" lon="4.39211">
        <ele>225.5</ele>
        <time>2016-8-7T11:29:15.000Z</time>
      </trkpt>
      <trkpt lat="50.19153" lon="4.39208">
        <ele>225.5</ele>
        <time>2016-8-7T11:29:15.000Z</time>
      </trkpt>
      <trkpt lat="50.19153" lon="4.39208">
        <ele>225.5</ele>
        <time>2016-8-7T11:29:15.000Z</time>
      </trkpt>
      <trkpt lat="50.19153" lon="4.39205">
        <ele>226</ele>
        <time>2016-8-7T11:29:15.000Z</time>
      </trkpt>
      <trkpt lat="50.19153" lon="4.39205">
        <ele>226</ele>
        <time>2016-8-7T11:29:15.000Z</time>
      </trkpt>
      <trkpt lat="50.19153" lon="4.39202">
        <ele>226</ele>
        <time>2016-8-7T11:29:15.000Z</time>
      </trkpt>
      <trkpt lat="50.19153" lon="4.39202">
        <ele>226</ele>
        <time>2016-8-7T11:29:15.000Z</time>
      </trkpt>
      <trkpt lat="50.19153" lon="4.39199">
        <ele>226</ele>
        <time>2016-8-7T11:29:15.000Z</time>
      </trkpt>
      <trkpt lat="50.19153" lon="4.39199">
        <ele>226</ele>
        <time>2016-8-7T11:29:15.000Z</time>
      </trkpt>
      <trkpt lat="50.19153" lon="4.39197">
        <ele>226</ele>
        <time>2016-8-7T11:29:15.000Z</time>
      </trkpt>
      <trkpt lat="50.19153" lon="4.39197">
        <ele>226</ele>
        <time>2016-8-7T11:29:15.000Z</time>
      </trkpt>
      <trkpt lat="50.19153" lon="4.39195">
        <ele>225.5</ele>
        <time>2016-8-7T11:29:15.000Z</time>
      </trkpt>
      <trkpt lat="50.19153" lon="4.39195">
        <ele>225.5</ele>
        <time>2016-8-7T11:29:15.000Z</time>
      </trkpt>
      <trkpt lat="50.19153" lon="4.39192">
        <ele>225.5</ele>
        <time>2016-8-7T11:29:15.000Z</time>
      </trkpt>
      <trkpt lat="50.19153" lon="4.39192">
        <ele>225.5</ele>
        <time>2016-8-7T11:29:15.000Z</time>
      </trkpt>
      <trkpt lat="50.19153" lon="4.3919">
        <ele>226</ele>
        <time>2016-8-7T11:29:15.000Z</time>
      </trkpt>
      <trkpt lat="50.19153" lon="4.3919">
        <ele>226</ele>
        <time>2016-8-7T11:29:15.000Z</time>
      </trkpt>
      <trkpt lat="50.19153" lon="4.39187">
        <ele>226</ele>
        <time>2016-8-7T11:29:15.000Z</time>
      </trkpt>
      <trkpt lat="50.19153" lon="4.39187">
        <ele>226</ele>
        <time>2016-8-7T11:29:15.000Z</time>
      </trkpt>
      <trkpt lat="50.19153" lon="4.39184">
        <ele>226</ele>
        <time>2016-8-7T11:29:15.000Z</time>
      </trkpt>
      <trkpt lat="50.19153" lon="4.39184">
        <ele>226</ele>
        <time>2016-8-7T11:29:15.000Z</time>
      </trkpt>
      <trkpt lat="50.19153" lon="4.39181">
        <ele>226.5</ele>
        <time>2016-8-7T11:29:15.000Z</time>
      </trkpt>
      <trkpt lat="50.19153" lon="4.39181">
        <ele>226.5</ele>
        <time>2016-8-7T11:29:15.000Z</time>
      </trkpt>
      <trkpt lat="50.19153" lon="4.3918">
        <ele>226.5</ele>
        <time>2016-8-7T11:29:15.000Z</time>
      </trkpt>
      <trkpt lat="50.19153" lon="4.3918">
        <ele>226.5</ele>
        <time>2016-8-7T11:29:15.000Z</time>
      </trkpt>
      <trkpt lat="50.19153" lon="4.39177">
        <ele>226.5</ele>
        <time>2016-8-7T11:29:15.000Z</time>
      </trkpt>
      <trkpt lat="50.19153" lon="4.39177">
        <ele>226.5</ele>
        <time>2016-8-7T11:29:15.000Z</time>
      </trkpt>
      <trkpt lat="50.19153" lon="4.39174">
        <ele>226.5</ele>
        <time>2016-8-7T11:29:15.000Z</time>
      </trkpt>
      <trkpt lat="50.19153" lon="4.39174">
        <ele>226.5</ele>
        <time>2016-8-7T11:29:15.000Z</time>
      </trkpt>
      <trkpt lat="50.19153" lon="4.39171">
        <ele>226.5</ele>
        <time>2016-8-7T11:29:15.000Z</time>
      </trkpt>
      <trkpt lat="50.19153" lon="4.39171">
        <ele>226.5</ele>
        <time>2016-8-7T11:29:15.000Z</time>
      </trkpt>
      <trkpt lat="50.19153" lon="4.3917">
        <ele>226.5</ele>
        <time>2016-8-7T11:29:15.000Z</time>
      </trkpt>
      <trkpt lat="50.19153" lon="4.3917">
        <ele>226.5</ele>
        <time>2016-8-7T11:29:15.000Z</time>
      </trkpt>
      <trkpt lat="50.19153" lon="4.39168">
        <ele>226.5</ele>
        <time>2016-8-7T11:29:15.000Z</time>
      </trkpt>
      <trkpt lat="50.19153" lon="4.39168">
        <ele>226.5</ele>
        <time>2016-8-7T11:29:15.000Z</time>
      </trkpt>
      <trkpt lat="50.19153" lon="4.39166">
        <ele>226.5</ele>
        <time>2016-8-7T11:29:15.000Z</time>
      </trkpt>
      <trkpt lat="50.19153" lon="4.39166">
        <ele>226.5</ele>
        <time>2016-8-7T11:29:15.000Z</time>
      </trkpt>
      <trkpt lat="50.19154" lon="4.39164">
        <ele>226.5</ele>
        <time>2016-8-7T11:29:15.000Z</time>
      </trkpt>
      <trkpt lat="50.19154" lon="4.39164">
        <ele>226.5</ele>
        <time>2016-8-7T11:29:15.000Z</time>
      </trkpt>
      <trkpt lat="50.19154" lon="4.39161">
        <ele>226</ele>
        <time>2016-8-7T11:29:15.000Z</time>
      </trkpt>
      <trkpt lat="50.19154" lon="4.39161">
        <ele>226</ele>
        <time>2016-8-7T11:29:15.000Z</time>
      </trkpt>
      <trkpt lat="50.19155" lon="4.39158">
        <ele>226</ele>
        <time>2016-8-7T11:29:15.000Z</time>
      </trkpt>
      <trkpt lat="50.19155" lon="4.39158">
        <ele>226</ele>
        <time>2016-8-7T11:29:15.000Z</time>
      </trkpt>
      <trkpt lat="50.19155" lon="4.39156">
        <ele>226</ele>
        <time>2016-8-7T11:29:15.000Z</time>
      </trkpt>
      <trkpt lat="50.19155" lon="4.39156">
        <ele>226</ele>
        <time>2016-8-7T11:29:15.000Z</time>
      </trkpt>
      <trkpt lat="50.19156" lon="4.39151">
        <ele>226</ele>
        <time>2016-8-7T11:29:15.000Z</time>
      </trkpt>
      <trkpt lat="50.19156" lon="4.39151">
        <ele>226</ele>
        <time>2016-8-7T11:29:15.000Z</time>
      </trkpt>
      <trkpt lat="50.19156" lon="4.39148">
        <ele>226</ele>
        <time>2016-8-7T11:29:15.000Z</time>
      </trkpt>
      <trkpt lat="50.19156" lon="4.39148">
        <ele>226</ele>
        <time>2016-8-7T11:29:15.000Z</time>
      </trkpt>
      <trkpt lat="50.19157" lon="4.39145">
        <ele>226.5</ele>
        <time>2016-8-7T11:29:15.000Z</time>
      </trkpt>
      <trkpt lat="50.19157" lon="4.39145">
        <ele>226.5</ele>
        <time>2016-8-7T11:29:15.000Z</time>
      </trkpt>
      <trkpt lat="50.19157" lon="4.39143">
        <ele>226.5</ele>
        <time>2016-8-7T11:29:15.000Z</time>
      </trkpt>
      <trkpt lat="50.19157" lon="4.39143">
        <ele>226.5</ele>
        <time>2016-8-7T11:29:15.000Z</time>
      </trkpt>
      <trkpt lat="50.19158" lon="4.3914">
        <ele>227</ele>
        <time>2016-8-7T11:29:15.000Z</time>
      </trkpt>
      <trkpt lat="50.19158" lon="4.3914">
        <ele>227</ele>
        <time>2016-8-7T11:30:24.000Z</time>
      </trkpt>
      <trkpt lat="50.19158" lon="4.39138">
        <ele>227</ele>
        <time>2016-8-7T11:30:24.000Z</time>
      </trkpt>
      <trkpt lat="50.19158" lon="4.39138">
        <ele>227</ele>
        <time>2016-8-7T11:30:24.000Z</time>
      </trkpt>
      <trkpt lat="50.1916" lon="4.39137">
        <ele>227</ele>
        <time>2016-8-7T11:30:24.000Z</time>
      </trkpt>
      <trkpt lat="50.1916" lon="4.39137">
        <ele>227</ele>
        <time>2016-8-7T11:30:24.000Z</time>
      </trkpt>
      <trkpt lat="50.1916" lon="4.39134">
        <ele>227.5</ele>
        <time>2016-8-7T11:30:24.000Z</time>
      </trkpt>
      <trkpt lat="50.1916" lon="4.39134">
        <ele>227.5</ele>
        <time>2016-8-7T11:30:24.000Z</time>
      </trkpt>
      <trkpt lat="50.1916" lon="4.39133">
        <ele>227.5</ele>
        <time>2016-8-7T11:30:24.000Z</time>
      </trkpt>
      <trkpt lat="50.1916" lon="4.39133">
        <ele>227.5</ele>
        <time>2016-8-7T11:30:24.000Z</time>
      </trkpt>
      <trkpt lat="50.1916" lon="4.39129">
        <ele>227.5</ele>
        <time>2016-8-7T11:30:24.000Z</time>
      </trkpt>
      <trkpt lat="50.1916" lon="4.39129">
        <ele>227.5</ele>
        <time>2016-8-7T11:30:24.000Z</time>
      </trkpt>
      <trkpt lat="50.1916" lon="4.39126">
        <ele>227.5</ele>
        <time>2016-8-7T11:30:24.000Z</time>
      </trkpt>
      <trkpt lat="50.1916" lon="4.39126">
        <ele>227.5</ele>
        <time>2016-8-7T11:30:24.000Z</time>
      </trkpt>
      <trkpt lat="50.19159" lon="4.39122">
        <ele>227.5</ele>
        <time>2016-8-7T11:30:24.000Z</time>
      </trkpt>
      <trkpt lat="50.19159" lon="4.39122">
        <ele>227.5</ele>
        <time>2016-8-7T11:30:24.000Z</time>
      </trkpt>
      <trkpt lat="50.19159" lon="4.3912">
        <ele>227.5</ele>
        <time>2016-8-7T11:30:24.000Z</time>
      </trkpt>
      <trkpt lat="50.19159" lon="4.3912">
        <ele>227.5</ele>
        <time>2016-8-7T11:30:24.000Z</time>
      </trkpt>
      <trkpt lat="50.19157" lon="4.39112">
        <ele>228</ele>
        <time>2016-8-7T11:30:24.000Z</time>
      </trkpt>
      <trkpt lat="50.19157" lon="4.39112">
        <ele>228</ele>
        <time>2016-8-7T11:30:24.000Z</time>
      </trkpt>
      <trkpt lat="50.19156" lon="4.3911">
        <ele>228</ele>
        <time>2016-8-7T11:30:24.000Z</time>
      </trkpt>
      <trkpt lat="50.19156" lon="4.3911">
        <ele>228</ele>
        <time>2016-8-7T11:30:24.000Z</time>
      </trkpt>
      <trkpt lat="50.19156" lon="4.39108">
        <ele>228</ele>
        <time>2016-8-7T11:30:24.000Z</time>
      </trkpt>
      <trkpt lat="50.19156" lon="4.39108">
        <ele>228</ele>
        <time>2016-8-7T11:30:24.000Z</time>
      </trkpt>
      <trkpt lat="50.19156" lon="4.39106">
        <ele>228</ele>
        <time>2016-8-7T11:30:24.000Z</time>
      </trkpt>
      <trkpt lat="50.19156" lon="4.39106">
        <ele>228</ele>
        <time>2016-8-7T11:30:24.000Z</time>
      </trkpt>
      <trkpt lat="50.19155" lon="4.39103">
        <ele>228</ele>
        <time>2016-8-7T11:30:24.000Z</time>
      </trkpt>
      <trkpt lat="50.19155" lon="4.39103">
        <ele>228</ele>
        <time>2016-8-7T11:30:24.000Z</time>
      </trkpt>
      <trkpt lat="50.19154" lon="4.39099">
        <ele>228</ele>
        <time>2016-8-7T11:30:24.000Z</time>
      </trkpt>
      <trkpt lat="50.19154" lon="4.39099">
        <ele>228</ele>
        <time>2016-8-7T11:30:24.000Z</time>
      </trkpt>
      <trkpt lat="50.19153" lon="4.39095">
        <ele>228</ele>
        <time>2016-8-7T11:30:24.000Z</time>
      </trkpt>
      <trkpt lat="50.19153" lon="4.39095">
        <ele>228</ele>
        <time>2016-8-7T11:30:24.000Z</time>
      </trkpt>
      <trkpt lat="50.19153" lon="4.39092">
        <ele>227.5</ele>
        <time>2016-8-7T11:30:24.000Z</time>
      </trkpt>
      <trkpt lat="50.19153" lon="4.39092">
        <ele>227.5</ele>
        <time>2016-8-7T11:30:24.000Z</time>
      </trkpt>
      <trkpt lat="50.19154" lon="4.39089">
        <ele>227.5</ele>
        <time>2016-8-7T11:30:24.000Z</time>
      </trkpt>
      <trkpt lat="50.19154" lon="4.39089">
        <ele>227.5</ele>
        <time>2016-8-7T11:30:24.000Z</time>
      </trkpt>
      <trkpt lat="50.19154" lon="4.39088">
        <ele>227.5</ele>
        <time>2016-8-7T11:30:24.000Z</time>
      </trkpt>
      <trkpt lat="50.19154" lon="4.39088">
        <ele>227.5</ele>
        <time>2016-8-7T11:30:24.000Z</time>
      </trkpt>
      <trkpt lat="50.19155" lon="4.39086">
        <ele>227.5</ele>
        <time>2016-8-7T11:30:24.000Z</time>
      </trkpt>
      <trkpt lat="50.19155" lon="4.39086">
        <ele>227.5</ele>
        <time>2016-8-7T11:30:24.000Z</time>
      </trkpt>
      <trkpt lat="50.19157" lon="4.39084">
        <ele>227</ele>
        <time>2016-8-7T11:30:24.000Z</time>
      </trkpt>
      <trkpt lat="50.19157" lon="4.39084">
        <ele>227</ele>
        <time>2016-8-7T11:30:24.000Z</time>
      </trkpt>
      <trkpt lat="50.19158" lon="4.39083">
        <ele>227</ele>
        <time>2016-8-7T11:30:24.000Z</time>
      </trkpt>
      <trkpt lat="50.19158" lon="4.39083">
        <ele>227</ele>
        <time>2016-8-7T11:30:24.000Z</time>
      </trkpt>
      <trkpt lat="50.19159" lon="4.39081">
        <ele>227</ele>
        <time>2016-8-7T11:30:24.000Z</time>
      </trkpt>
      <trkpt lat="50.19159" lon="4.39081">
        <ele>227</ele>
        <time>2016-8-7T11:30:24.000Z</time>
      </trkpt>
      <trkpt lat="50.1916" lon="4.3908">
        <ele>227</ele>
        <time>2016-8-7T11:30:24.000Z</time>
      </trkpt>
      <trkpt lat="50.1916" lon="4.3908">
        <ele>227</ele>
        <time>2016-8-7T11:30:24.000Z</time>
      </trkpt>
      <trkpt lat="50.19161" lon="4.39079">
        <ele>227</ele>
        <time>2016-8-7T11:30:24.000Z</time>
      </trkpt>
      <trkpt lat="50.19161" lon="4.39079">
        <ele>227</ele>
        <time>2016-8-7T11:30:24.000Z</time>
      </trkpt>
      <trkpt lat="50.19164" lon="4.39076">
        <ele>226.5</ele>
        <time>2016-8-7T11:30:24.000Z</time>
      </trkpt>
      <trkpt lat="50.19164" lon="4.39076">
        <ele>226.5</ele>
        <time>2016-8-7T11:30:24.000Z</time>
      </trkpt>
      <trkpt lat="50.19165" lon="4.39075">
        <ele>226.5</ele>
        <time>2016-8-7T11:30:24.000Z</time>
      </trkpt>
      <trkpt lat="50.19165" lon="4.39075">
        <ele>226.5</ele>
        <time>2016-8-7T11:30:24.000Z</time>
      </trkpt>
      <trkpt lat="50.19167" lon="4.39073">
        <ele>226.5</ele>
        <time>2016-8-7T11:30:24.000Z</time>
      </trkpt>
      <trkpt lat="50.19167" lon="4.39073">
        <ele>226.5</ele>
        <time>2016-8-7T11:30:24.000Z</time>
      </trkpt>
      <trkpt lat="50.19169" lon="4.39071">
        <ele>226.5</ele>
        <time>2016-8-7T11:30:24.000Z</time>
      </trkpt>
      <trkpt lat="50.19169" lon="4.39071">
        <ele>226.5</ele>
        <time>2016-8-7T11:30:24.000Z</time>
      </trkpt>
      <trkpt lat="50.19171" lon="4.39068">
        <ele>226.5</ele>
        <time>2016-8-7T11:30:24.000Z</time>
      </trkpt>
      <trkpt lat="50.19171" lon="4.39068">
        <ele>226.5</ele>
        <time>2016-8-7T11:30:24.000Z</time>
      </trkpt>
      <trkpt lat="50.19172" lon="4.39066">
        <ele>227</ele>
        <time>2016-8-7T11:30:24.000Z</time>
      </trkpt>
      <trkpt lat="50.19172" lon="4.39066">
        <ele>227</ele>
        <time>2016-8-7T11:30:24.000Z</time>
      </trkpt>
      <trkpt lat="50.19173" lon="4.39065">
        <ele>227</ele>
        <time>2016-8-7T11:30:24.000Z</time>
      </trkpt>
      <trkpt lat="50.19173" lon="4.39065">
        <ele>227</ele>
        <time>2016-8-7T11:30:24.000Z</time>
      </trkpt>
      <trkpt lat="50.19174" lon="4.39063">
        <ele>227</ele>
        <time>2016-8-7T11:30:24.000Z</time>
      </trkpt>
      <trkpt lat="50.19174" lon="4.39063">
        <ele>227</ele>
        <time>2016-8-7T11:30:24.000Z</time>
      </trkpt>
      <trkpt lat="50.19176" lon="4.3906">
        <ele>227</ele>
        <time>2016-8-7T11:30:24.000Z</time>
      </trkpt>
      <trkpt lat="50.19176" lon="4.3906">
        <ele>227</ele>
        <time>2016-8-7T11:30:24.000Z</time>
      </trkpt>
      <trkpt lat="50.19177" lon="4.39058">
        <ele>227.5</ele>
        <time>2016-8-7T11:30:24.000Z</time>
      </trkpt>
      <trkpt lat="50.19177" lon="4.39058">
        <ele>227.5</ele>
        <time>2016-8-7T11:30:24.000Z</time>
      </trkpt>
      <trkpt lat="50.19178" lon="4.39056">
        <ele>227.5</ele>
        <time>2016-8-7T11:30:24.000Z</time>
      </trkpt>
      <trkpt lat="50.19178" lon="4.39056">
        <ele>227.5</ele>
        <time>2016-8-7T11:30:24.000Z</time>
      </trkpt>
      <trkpt lat="50.19179" lon="4.39053">
        <ele>228</ele>
        <time>2016-8-7T11:30:24.000Z</time>
      </trkpt>
      <trkpt lat="50.19179" lon="4.39053">
        <ele>228</ele>
        <time>2016-8-7T11:30:24.000Z</time>
      </trkpt>
      <trkpt lat="50.1918" lon="4.39052">
        <ele>228</ele>
        <time>2016-8-7T11:30:24.000Z</time>
      </trkpt>
      <trkpt lat="50.1918" lon="4.39052">
        <ele>228</ele>
        <time>2016-8-7T11:30:24.000Z</time>
      </trkpt>
      <trkpt lat="50.19181" lon="4.39049">
        <ele>228</ele>
        <time>2016-8-7T11:30:24.000Z</time>
      </trkpt>
      <trkpt lat="50.19181" lon="4.39049">
        <ele>228</ele>
        <time>2016-8-7T11:30:24.000Z</time>
      </trkpt>
      <trkpt lat="50.19182" lon="4.39046">
        <ele>228</ele>
        <time>2016-8-7T11:30:24.000Z</time>
      </trkpt>
      <trkpt lat="50.19182" lon="4.39046">
        <ele>228</ele>
        <time>2016-8-7T11:30:24.000Z</time>
      </trkpt>
      <trkpt lat="50.19183" lon="4.39043">
        <ele>228.5</ele>
        <time>2016-8-7T11:30:24.000Z</time>
      </trkpt>
      <trkpt lat="50.19183" lon="4.39043">
        <ele>228.5</ele>
        <time>2016-8-7T11:30:24.000Z</time>
      </trkpt>
      <trkpt lat="50.19184" lon="4.39042">
        <ele>228.5</ele>
        <time>2016-8-7T11:30:24.000Z</time>
      </trkpt>
      <trkpt lat="50.19184" lon="4.39042">
        <ele>228.5</ele>
        <time>2016-8-7T11:30:24.000Z</time>
      </trkpt>
      <trkpt lat="50.19184" lon="4.39039">
        <ele>228.5</ele>
        <time>2016-8-7T11:30:24.000Z</time>
      </trkpt>
      <trkpt lat="50.19184" lon="4.39039">
        <ele>228.5</ele>
        <time>2016-8-7T11:30:24.000Z</time>
      </trkpt>
      <trkpt lat="50.19185" lon="4.39038">
        <ele>228.5</ele>
        <time>2016-8-7T11:30:24.000Z</time>
      </trkpt>
      <trkpt lat="50.19185" lon="4.39038">
        <ele>228.5</ele>
        <time>2016-8-7T11:30:24.000Z</time>
      </trkpt>
      <trkpt lat="50.19186" lon="4.39034">
        <ele>229</ele>
        <time>2016-8-7T11:30:24.000Z</time>
      </trkpt>
      <trkpt lat="50.19186" lon="4.39034">
        <ele>229</ele>
        <time>2016-8-7T11:30:24.000Z</time>
      </trkpt>
      <trkpt lat="50.19187" lon="4.39031">
        <ele>229</ele>
        <time>2016-8-7T11:30:24.000Z</time>
      </trkpt>
      <trkpt lat="50.19187" lon="4.39031">
        <ele>229</ele>
        <time>2016-8-7T11:30:24.000Z</time>
      </trkpt>
      <trkpt lat="50.19187" lon="4.39028">
        <ele>229</ele>
        <time>2016-8-7T11:30:24.000Z</time>
      </trkpt>
      <trkpt lat="50.19187" lon="4.39028">
        <ele>229</ele>
        <time>2016-8-7T11:30:24.000Z</time>
      </trkpt>
      <trkpt lat="50.19188" lon="4.39025">
        <ele>229</ele>
        <time>2016-8-7T11:30:24.000Z</time>
      </trkpt>
      <trkpt lat="50.19188" lon="4.39025">
        <ele>229</ele>
        <time>2016-8-7T11:30:24.000Z</time>
      </trkpt>
      <trkpt lat="50.19188" lon="4.39023">
        <ele>229</ele>
        <time>2016-8-7T11:30:24.000Z</time>
      </trkpt>
      <trkpt lat="50.19188" lon="4.39023">
        <ele>229</ele>
        <time>2016-8-7T11:30:24.000Z</time>
      </trkpt>
      <trkpt lat="50.19189" lon="4.3902">
        <ele>229</ele>
        <time>2016-8-7T11:30:24.000Z</time>
      </trkpt>
      <trkpt lat="50.19189" lon="4.3902">
        <ele>229</ele>
        <time>2016-8-7T11:30:24.000Z</time>
      </trkpt>
      <trkpt lat="50.19189" lon="4.39017">
        <ele>229</ele>
        <time>2016-8-7T11:30:24.000Z</time>
      </trkpt>
      <trkpt lat="50.19189" lon="4.39017">
        <ele>229</ele>
        <time>2016-8-7T11:30:24.000Z</time>
      </trkpt>
      <trkpt lat="50.19189" lon="4.39015">
        <ele>229</ele>
        <time>2016-8-7T11:31:34.000Z</time>
      </trkpt>
      <trkpt lat="50.19189" lon="4.39015">
        <ele>229</ele>
        <time>2016-8-7T11:31:34.000Z</time>
      </trkpt>
      <trkpt lat="50.1919" lon="4.39012">
        <ele>229.5</ele>
        <time>2016-8-7T11:31:34.000Z</time>
      </trkpt>
      <trkpt lat="50.1919" lon="4.39012">
        <ele>229.5</ele>
        <time>2016-8-7T11:31:34.000Z</time>
      </trkpt>
      <trkpt lat="50.1919" lon="4.39009">
        <ele>229.5</ele>
        <time>2016-8-7T11:31:34.000Z</time>
      </trkpt>
      <trkpt lat="50.1919" lon="4.39009">
        <ele>229.5</ele>
        <time>2016-8-7T11:31:34.000Z</time>
      </trkpt>
      <trkpt lat="50.1919" lon="4.39005">
        <ele>230</ele>
        <time>2016-8-7T11:31:34.000Z</time>
      </trkpt>
      <trkpt lat="50.1919" lon="4.39005">
        <ele>230</ele>
        <time>2016-8-7T11:31:34.000Z</time>
      </trkpt>
      <trkpt lat="50.19191" lon="4.39002">
        <ele>230</ele>
        <time>2016-8-7T11:31:34.000Z</time>
      </trkpt>
      <trkpt lat="50.19191" lon="4.39002">
        <ele>230</ele>
        <time>2016-8-7T11:31:34.000Z</time>
      </trkpt>
      <trkpt lat="50.19191" lon="4.39">
        <ele>230</ele>
        <time>2016-8-7T11:31:34.000Z</time>
      </trkpt>
      <trkpt lat="50.19191" lon="4.39">
        <ele>230</ele>
        <time>2016-8-7T11:31:34.000Z</time>
      </trkpt>
      <trkpt lat="50.19191" lon="4.38997">
        <ele>230.5</ele>
        <time>2016-8-7T11:31:34.000Z</time>
      </trkpt>
      <trkpt lat="50.19191" lon="4.38997">
        <ele>230.5</ele>
        <time>2016-8-7T11:31:34.000Z</time>
      </trkpt>
      <trkpt lat="50.19191" lon="4.38995">
        <ele>230.5</ele>
        <time>2016-8-7T11:31:34.000Z</time>
      </trkpt>
      <trkpt lat="50.19191" lon="4.38995">
        <ele>230.5</ele>
        <time>2016-8-7T11:31:34.000Z</time>
      </trkpt>
      <trkpt lat="50.19191" lon="4.38994">
        <ele>230.5</ele>
        <time>2016-8-7T11:31:34.000Z</time>
      </trkpt>
      <trkpt lat="50.19191" lon="4.38994">
        <ele>230.5</ele>
        <time>2016-8-7T11:31:34.000Z</time>
      </trkpt>
      <trkpt lat="50.19192" lon="4.3899">
        <ele>231</ele>
        <time>2016-8-7T11:31:34.000Z</time>
      </trkpt>
      <trkpt lat="50.19192" lon="4.3899">
        <ele>231</ele>
        <time>2016-8-7T11:31:34.000Z</time>
      </trkpt>
      <trkpt lat="50.19192" lon="4.38987">
        <ele>231.5</ele>
        <time>2016-8-7T11:31:34.000Z</time>
      </trkpt>
      <trkpt lat="50.19192" lon="4.38987">
        <ele>231.5</ele>
        <time>2016-8-7T11:31:34.000Z</time>
      </trkpt>
      <trkpt lat="50.19192" lon="4.38984">
        <ele>231.5</ele>
        <time>2016-8-7T11:31:34.000Z</time>
      </trkpt>
      <trkpt lat="50.19192" lon="4.38984">
        <ele>231.5</ele>
        <time>2016-8-7T11:31:34.000Z</time>
      </trkpt>
      <trkpt lat="50.19192" lon="4.38981">
        <ele>232.5</ele>
        <time>2016-8-7T11:31:34.000Z</time>
      </trkpt>
      <trkpt lat="50.19192" lon="4.38981">
        <ele>232.5</ele>
        <time>2016-8-7T11:31:34.000Z</time>
      </trkpt>
      <trkpt lat="50.19192" lon="4.3898">
        <ele>232.5</ele>
        <time>2016-8-7T11:31:34.000Z</time>
      </trkpt>
      <trkpt lat="50.19192" lon="4.3898">
        <ele>232.5</ele>
        <time>2016-8-7T11:31:34.000Z</time>
      </trkpt>
      <trkpt lat="50.19193" lon="4.38977">
        <ele>233</ele>
        <time>2016-8-7T11:31:34.000Z</time>
      </trkpt>
      <trkpt lat="50.19193" lon="4.38977">
        <ele>233</ele>
        <time>2016-8-7T11:31:34.000Z</time>
      </trkpt>
      <trkpt lat="50.19193" lon="4.38976">
        <ele>233.5</ele>
        <time>2016-8-7T11:31:34.000Z</time>
      </trkpt>
      <trkpt lat="50.19193" lon="4.38976">
        <ele>233.5</ele>
        <time>2016-8-7T11:31:34.000Z</time>
      </trkpt>
      <trkpt lat="50.19193" lon="4.38973">
        <ele>233.5</ele>
        <time>2016-8-7T11:31:34.000Z</time>
      </trkpt>
      <trkpt lat="50.19193" lon="4.38973">
        <ele>233.5</ele>
        <time>2016-8-7T11:31:34.000Z</time>
      </trkpt>
      <trkpt lat="50.19194" lon="4.38971">
        <ele>234</ele>
        <time>2016-8-7T11:31:34.000Z</time>
      </trkpt>
      <trkpt lat="50.19194" lon="4.38971">
        <ele>234</ele>
        <time>2016-8-7T11:31:34.000Z</time>
      </trkpt>
      <trkpt lat="50.19194" lon="4.3897">
        <ele>234</ele>
        <time>2016-8-7T11:31:34.000Z</time>
      </trkpt>
      <trkpt lat="50.19194" lon="4.3897">
        <ele>234</ele>
        <time>2016-8-7T11:31:34.000Z</time>
      </trkpt>
      <trkpt lat="50.19194" lon="4.38967">
        <ele>234.5</ele>
        <time>2016-8-7T11:31:34.000Z</time>
      </trkpt>
      <trkpt lat="50.19194" lon="4.38967">
        <ele>234.5</ele>
        <time>2016-8-7T11:31:34.000Z</time>
      </trkpt>
      <trkpt lat="50.19195" lon="4.38965">
        <ele>234.5</ele>
        <time>2016-8-7T11:31:34.000Z</time>
      </trkpt>
      <trkpt lat="50.19195" lon="4.38965">
        <ele>234.5</ele>
        <time>2016-8-7T11:31:34.000Z</time>
      </trkpt>
      <trkpt lat="50.19195" lon="4.38964">
        <ele>234.5</ele>
        <time>2016-8-7T11:31:34.000Z</time>
      </trkpt>
      <trkpt lat="50.19195" lon="4.38964">
        <ele>234.5</ele>
        <time>2016-8-7T11:31:34.000Z</time>
      </trkpt>
      <trkpt lat="50.19196" lon="4.38961">
        <ele>235</ele>
        <time>2016-8-7T11:31:34.000Z</time>
      </trkpt>
      <trkpt lat="50.19196" lon="4.38961">
        <ele>235</ele>
        <time>2016-8-7T11:31:34.000Z</time>
      </trkpt>
      <trkpt lat="50.19197" lon="4.3896">
        <ele>235</ele>
        <time>2016-8-7T11:31:34.000Z</time>
      </trkpt>
      <trkpt lat="50.19197" lon="4.3896">
        <ele>235</ele>
        <time>2016-8-7T11:31:34.000Z</time>
      </trkpt>
      <trkpt lat="50.19197" lon="4.38957">
        <ele>235</ele>
        <time>2016-8-7T11:31:34.000Z</time>
      </trkpt>
      <trkpt lat="50.19197" lon="4.38957">
        <ele>235</ele>
        <time>2016-8-7T11:31:34.000Z</time>
      </trkpt>
      <trkpt lat="50.19197" lon="4.38955">
        <ele>235</ele>
        <time>2016-8-7T11:31:34.000Z</time>
      </trkpt>
      <trkpt lat="50.19197" lon="4.38955">
        <ele>235</ele>
        <time>2016-8-7T11:31:34.000Z</time>
      </trkpt>
      <trkpt lat="50.19198" lon="4.38952">
        <ele>235</ele>
        <time>2016-8-7T11:31:34.000Z</time>
      </trkpt>
      <trkpt lat="50.19198" lon="4.38952">
        <ele>235</ele>
        <time>2016-8-7T11:31:34.000Z</time>
      </trkpt>
      <trkpt lat="50.19199" lon="4.3895">
        <ele>235</ele>
        <time>2016-8-7T11:31:34.000Z</time>
      </trkpt>
      <trkpt lat="50.19199" lon="4.3895">
        <ele>235</ele>
        <time>2016-8-7T11:31:34.000Z</time>
      </trkpt>
      <trkpt lat="50.19199" lon="4.38947">
        <ele>235</ele>
        <time>2016-8-7T11:31:34.000Z</time>
      </trkpt>
      <trkpt lat="50.19199" lon="4.38947">
        <ele>235</ele>
        <time>2016-8-7T11:31:34.000Z</time>
      </trkpt>
      <trkpt lat="50.192" lon="4.38945">
        <ele>235</ele>
        <time>2016-8-7T11:31:34.000Z</time>
      </trkpt>
      <trkpt lat="50.192" lon="4.38945">
        <ele>235</ele>
        <time>2016-8-7T11:31:34.000Z</time>
      </trkpt>
      <trkpt lat="50.192" lon="4.38944">
        <ele>235</ele>
        <time>2016-8-7T11:31:34.000Z</time>
      </trkpt>
      <trkpt lat="50.192" lon="4.38944">
        <ele>235</ele>
        <time>2016-8-7T11:31:34.000Z</time>
      </trkpt>
      <trkpt lat="50.192" lon="4.38942">
        <ele>235</ele>
        <time>2016-8-7T11:31:34.000Z</time>
      </trkpt>
      <trkpt lat="50.192" lon="4.38942">
        <ele>235</ele>
        <time>2016-8-7T11:31:34.000Z</time>
      </trkpt>
      <trkpt lat="50.19201" lon="4.38939">
        <ele>235</ele>
        <time>2016-8-7T11:31:34.000Z</time>
      </trkpt>
      <trkpt lat="50.19201" lon="4.38939">
        <ele>235</ele>
        <time>2016-8-7T11:31:34.000Z</time>
      </trkpt>
      <trkpt lat="50.19201" lon="4.38936">
        <ele>234.5</ele>
        <time>2016-8-7T11:31:34.000Z</time>
      </trkpt>
      <trkpt lat="50.19201" lon="4.38936">
        <ele>234.5</ele>
        <time>2016-8-7T11:31:34.000Z</time>
      </trkpt>
      <trkpt lat="50.19201" lon="4.38934">
        <ele>234.5</ele>
        <time>2016-8-7T11:31:34.000Z</time>
      </trkpt>
      <trkpt lat="50.19201" lon="4.38934">
        <ele>234.5</ele>
        <time>2016-8-7T11:31:34.000Z</time>
      </trkpt>
      <trkpt lat="50.19202" lon="4.38931">
        <ele>234.5</ele>
        <time>2016-8-7T11:31:34.000Z</time>
      </trkpt>
      <trkpt lat="50.19202" lon="4.38931">
        <ele>234.5</ele>
        <time>2016-8-7T11:31:34.000Z</time>
      </trkpt>
      <trkpt lat="50.19202" lon="4.38929">
        <ele>234.5</ele>
        <time>2016-8-7T11:31:34.000Z</time>
      </trkpt>
      <trkpt lat="50.19202" lon="4.38929">
        <ele>234.5</ele>
        <time>2016-8-7T11:31:34.000Z</time>
      </trkpt>
      <trkpt lat="50.19201" lon="4.38926">
        <ele>234.5</ele>
        <time>2016-8-7T11:31:34.000Z</time>
      </trkpt>
      <trkpt lat="50.19201" lon="4.38926">
        <ele>234.5</ele>
        <time>2016-8-7T11:31:34.000Z</time>
      </trkpt>
      <trkpt lat="50.19201" lon="4.38924">
        <ele>234.5</ele>
        <time>2016-8-7T11:31:34.000Z</time>
      </trkpt>
      <trkpt lat="50.19201" lon="4.38924">
        <ele>234.5</ele>
        <time>2016-8-7T11:31:34.000Z</time>
      </trkpt>
      <trkpt lat="50.19201" lon="4.38922">
        <ele>234.5</ele>
        <time>2016-8-7T11:31:34.000Z</time>
      </trkpt>
      <trkpt lat="50.19201" lon="4.38922">
        <ele>234.5</ele>
        <time>2016-8-7T11:31:34.000Z</time>
      </trkpt>
      <trkpt lat="50.19201" lon="4.38919">
        <ele>234.5</ele>
        <time>2016-8-7T11:31:34.000Z</time>
      </trkpt>
      <trkpt lat="50.19201" lon="4.38919">
        <ele>234.5</ele>
        <time>2016-8-7T11:31:34.000Z</time>
      </trkpt>
      <trkpt lat="50.19201" lon="4.38917">
        <ele>234.5</ele>
        <time>2016-8-7T11:31:34.000Z</time>
      </trkpt>
      <trkpt lat="50.19201" lon="4.38917">
        <ele>234.5</ele>
        <time>2016-8-7T11:31:34.000Z</time>
      </trkpt>
      <trkpt lat="50.19201" lon="4.38913">
        <ele>234.5</ele>
        <time>2016-8-7T11:31:34.000Z</time>
      </trkpt>
      <trkpt lat="50.19201" lon="4.38913">
        <ele>234.5</ele>
        <time>2016-8-7T11:31:34.000Z</time>
      </trkpt>
      <trkpt lat="50.19201" lon="4.38909">
        <ele>234.5</ele>
        <time>2016-8-7T11:31:34.000Z</time>
      </trkpt>
      <trkpt lat="50.19201" lon="4.38909">
        <ele>234.5</ele>
        <time>2016-8-7T11:31:34.000Z</time>
      </trkpt>
      <trkpt lat="50.192" lon="4.38905">
        <ele>234.5</ele>
        <time>2016-8-7T11:31:34.000Z</time>
      </trkpt>
      <trkpt lat="50.192" lon="4.38905">
        <ele>234.5</ele>
        <time>2016-8-7T11:31:34.000Z</time>
      </trkpt>
      <trkpt lat="50.192" lon="4.38902">
        <ele>235</ele>
        <time>2016-8-7T11:31:34.000Z</time>
      </trkpt>
      <trkpt lat="50.192" lon="4.38902">
        <ele>235</ele>
        <time>2016-8-7T11:31:34.000Z</time>
      </trkpt>
      <trkpt lat="50.192" lon="4.38898">
        <ele>235</ele>
        <time>2016-8-7T11:31:34.000Z</time>
      </trkpt>
      <trkpt lat="50.192" lon="4.38898">
        <ele>235</ele>
        <time>2016-8-7T11:31:34.000Z</time>
      </trkpt>
      <trkpt lat="50.19199" lon="4.38896">
        <ele>235</ele>
        <time>2016-8-7T11:31:34.000Z</time>
      </trkpt>
      <trkpt lat="50.19199" lon="4.38896">
        <ele>235</ele>
        <time>2016-8-7T11:31:34.000Z</time>
      </trkpt>
      <trkpt lat="50.19199" lon="4.38893">
        <ele>235</ele>
        <time>2016-8-7T11:31:34.000Z</time>
      </trkpt>
      <trkpt lat="50.19199" lon="4.38893">
        <ele>235</ele>
        <time>2016-8-7T11:31:34.000Z</time>
      </trkpt>
      <trkpt lat="50.19199" lon="4.38889">
        <ele>235</ele>
        <time>2016-8-7T11:31:34.000Z</time>
      </trkpt>
      <trkpt lat="50.19199" lon="4.38889">
        <ele>235</ele>
        <time>2016-8-7T11:31:34.000Z</time>
      </trkpt>
      <trkpt lat="50.19198" lon="4.38887">
        <ele>235</ele>
        <time>2016-8-7T11:31:34.000Z</time>
      </trkpt>
      <trkpt lat="50.19198" lon="4.38887">
        <ele>235</ele>
        <time>2016-8-7T11:32:46.000Z</time>
      </trkpt>
      <trkpt lat="50.19198" lon="4.38886">
        <ele>235</ele>
        <time>2016-8-7T11:32:46.000Z</time>
      </trkpt>
      <trkpt lat="50.19198" lon="4.38886">
        <ele>235</ele>
        <time>2016-8-7T11:32:46.000Z</time>
      </trkpt>
      <trkpt lat="50.19198" lon="4.38883">
        <ele>235.5</ele>
        <time>2016-8-7T11:32:46.000Z</time>
      </trkpt>
      <trkpt lat="50.19198" lon="4.38883">
        <ele>235.5</ele>
        <time>2016-8-7T11:32:46.000Z</time>
      </trkpt>
      <trkpt lat="50.19198" lon="4.38881">
        <ele>235.5</ele>
        <time>2016-8-7T11:32:46.000Z</time>
      </trkpt>
      <trkpt lat="50.19198" lon="4.38881">
        <ele>235.5</ele>
        <time>2016-8-7T11:32:46.000Z</time>
      </trkpt>
      <trkpt lat="50.19198" lon="4.38879">
        <ele>235.5</ele>
        <time>2016-8-7T11:32:46.000Z</time>
      </trkpt>
      <trkpt lat="50.19198" lon="4.38879">
        <ele>235.5</ele>
        <time>2016-8-7T11:32:46.000Z</time>
      </trkpt>
      <trkpt lat="50.19198" lon="4.38876">
        <ele>235.5</ele>
        <time>2016-8-7T11:32:46.000Z</time>
      </trkpt>
      <trkpt lat="50.19198" lon="4.38876">
        <ele>235.5</ele>
        <time>2016-8-7T11:32:46.000Z</time>
      </trkpt>
      <trkpt lat="50.19198" lon="4.38874">
        <ele>236</ele>
        <time>2016-8-7T11:32:46.000Z</time>
      </trkpt>
      <trkpt lat="50.19198" lon="4.38874">
        <ele>236</ele>
        <time>2016-8-7T11:32:46.000Z</time>
      </trkpt>
      <trkpt lat="50.19198" lon="4.38871">
        <ele>236</ele>
        <time>2016-8-7T11:32:46.000Z</time>
      </trkpt>
      <trkpt lat="50.19198" lon="4.38871">
        <ele>236</ele>
        <time>2016-8-7T11:32:46.000Z</time>
      </trkpt>
      <trkpt lat="50.19198" lon="4.3887">
        <ele>236.5</ele>
        <time>2016-8-7T11:32:46.000Z</time>
      </trkpt>
      <trkpt lat="50.19198" lon="4.3887">
        <ele>236.5</ele>
        <time>2016-8-7T11:32:46.000Z</time>
      </trkpt>
      <trkpt lat="50.19197" lon="4.38866">
        <ele>236.5</ele>
        <time>2016-8-7T11:32:46.000Z</time>
      </trkpt>
      <trkpt lat="50.19197" lon="4.38866">
        <ele>236.5</ele>
        <time>2016-8-7T11:32:46.000Z</time>
      </trkpt>
      <trkpt lat="50.19197" lon="4.38863">
        <ele>237</ele>
        <time>2016-8-7T11:32:46.000Z</time>
      </trkpt>
      <trkpt lat="50.19197" lon="4.38863">
        <ele>237</ele>
        <time>2016-8-7T11:32:46.000Z</time>
      </trkpt>
      <trkpt lat="50.19197" lon="4.38861">
        <ele>237</ele>
        <time>2016-8-7T11:32:46.000Z</time>
      </trkpt>
      <trkpt lat="50.19197" lon="4.38861">
        <ele>237</ele>
        <time>2016-8-7T11:32:46.000Z</time>
      </trkpt>
      <trkpt lat="50.19197" lon="4.3886">
        <ele>237</ele>
        <time>2016-8-7T11:32:46.000Z</time>
      </trkpt>
      <trkpt lat="50.19197" lon="4.3886">
        <ele>237</ele>
        <time>2016-8-7T11:32:46.000Z</time>
      </trkpt>
      <trkpt lat="50.19196" lon="4.38857">
        <ele>237</ele>
        <time>2016-8-7T11:32:46.000Z</time>
      </trkpt>
      <trkpt lat="50.19196" lon="4.38857">
        <ele>237</ele>
        <time>2016-8-7T11:32:46.000Z</time>
      </trkpt>
      <trkpt lat="50.19195" lon="4.38853">
        <ele>237</ele>
        <time>2016-8-7T11:32:46.000Z</time>
      </trkpt>
      <trkpt lat="50.19195" lon="4.38853">
        <ele>237</ele>
        <time>2016-8-7T11:32:46.000Z</time>
      </trkpt>
      <trkpt lat="50.19195" lon="4.3885">
        <ele>236.5</ele>
        <time>2016-8-7T11:32:46.000Z</time>
      </trkpt>
      <trkpt lat="50.19195" lon="4.3885">
        <ele>236.5</ele>
        <time>2016-8-7T11:32:46.000Z</time>
      </trkpt>
      <trkpt lat="50.19195" lon="4.38849">
        <ele>236.5</ele>
        <time>2016-8-7T11:32:46.000Z</time>
      </trkpt>
      <trkpt lat="50.19195" lon="4.38849">
        <ele>236.5</ele>
        <time>2016-8-7T11:32:46.000Z</time>
      </trkpt>
      <trkpt lat="50.19194" lon="4.38846">
        <ele>236.5</ele>
        <time>2016-8-7T11:32:46.000Z</time>
      </trkpt>
      <trkpt lat="50.19194" lon="4.38846">
        <ele>236.5</ele>
        <time>2016-8-7T11:32:46.000Z</time>
      </trkpt>
      <trkpt lat="50.19194" lon="4.38844">
        <ele>236</ele>
        <time>2016-8-7T11:32:46.000Z</time>
      </trkpt>
      <trkpt lat="50.19194" lon="4.38844">
        <ele>236</ele>
        <time>2016-8-7T11:32:46.000Z</time>
      </trkpt>
      <trkpt lat="50.19193" lon="4.3884">
        <ele>236</ele>
        <time>2016-8-7T11:32:46.000Z</time>
      </trkpt>
      <trkpt lat="50.19193" lon="4.3884">
        <ele>236</ele>
        <time>2016-8-7T11:32:46.000Z</time>
      </trkpt>
      <trkpt lat="50.19192" lon="4.38839">
        <ele>236</ele>
        <time>2016-8-7T11:32:46.000Z</time>
      </trkpt>
      <trkpt lat="50.19192" lon="4.38839">
        <ele>236</ele>
        <time>2016-8-7T11:32:46.000Z</time>
      </trkpt>
      <trkpt lat="50.19192" lon="4.38836">
        <ele>236</ele>
        <time>2016-8-7T11:32:46.000Z</time>
      </trkpt>
      <trkpt lat="50.19192" lon="4.38836">
        <ele>236</ele>
        <time>2016-8-7T11:32:46.000Z</time>
      </trkpt>
      <trkpt lat="50.19192" lon="4.38834">
        <ele>236.5</ele>
        <time>2016-8-7T11:32:46.000Z</time>
      </trkpt>
      <trkpt lat="50.19192" lon="4.38834">
        <ele>236.5</ele>
        <time>2016-8-7T11:32:46.000Z</time>
      </trkpt>
      <trkpt lat="50.19192" lon="4.38831">
        <ele>237</ele>
        <time>2016-8-7T11:32:46.000Z</time>
      </trkpt>
      <trkpt lat="50.19192" lon="4.38831">
        <ele>237</ele>
        <time>2016-8-7T11:32:46.000Z</time>
      </trkpt>
      <trkpt lat="50.19192" lon="4.38828">
        <ele>237</ele>
        <time>2016-8-7T11:32:46.000Z</time>
      </trkpt>
      <trkpt lat="50.19192" lon="4.38828">
        <ele>237</ele>
        <time>2016-8-7T11:32:46.000Z</time>
      </trkpt>
      <trkpt lat="50.19193" lon="4.38825">
        <ele>237.5</ele>
        <time>2016-8-7T11:32:46.000Z</time>
      </trkpt>
      <trkpt lat="50.19193" lon="4.38825">
        <ele>237.5</ele>
        <time>2016-8-7T11:32:46.000Z</time>
      </trkpt>
      <trkpt lat="50.19193" lon="4.38824">
        <ele>237.5</ele>
        <time>2016-8-7T11:32:46.000Z</time>
      </trkpt>
      <trkpt lat="50.19193" lon="4.38824">
        <ele>237.5</ele>
        <time>2016-8-7T11:32:46.000Z</time>
      </trkpt>
      <trkpt lat="50.19194" lon="4.38821">
        <ele>237.5</ele>
        <time>2016-8-7T11:32:46.000Z</time>
      </trkpt>
      <trkpt lat="50.19194" lon="4.38821">
        <ele>237.5</ele>
        <time>2016-8-7T11:32:46.000Z</time>
      </trkpt>
      <trkpt lat="50.19194" lon="4.38819">
        <ele>237.5</ele>
        <time>2016-8-7T11:32:46.000Z</time>
      </trkpt>
      <trkpt lat="50.19194" lon="4.38819">
        <ele>237.5</ele>
        <time>2016-8-7T11:32:46.000Z</time>
      </trkpt>
      <trkpt lat="50.19194" lon="4.38816">
        <ele>237.5</ele>
        <time>2016-8-7T11:32:46.000Z</time>
      </trkpt>
      <trkpt lat="50.19194" lon="4.38816">
        <ele>237.5</ele>
        <time>2016-8-7T11:32:46.000Z</time>
      </trkpt>
      <trkpt lat="50.19193" lon="4.38814">
        <ele>237.5</ele>
        <time>2016-8-7T11:32:46.000Z</time>
      </trkpt>
      <trkpt lat="50.19193" lon="4.38814">
        <ele>237.5</ele>
        <time>2016-8-7T11:32:46.000Z</time>
      </trkpt>
      <trkpt lat="50.19193" lon="4.38811">
        <ele>238</ele>
        <time>2016-8-7T11:32:46.000Z</time>
      </trkpt>
      <trkpt lat="50.19193" lon="4.38811">
        <ele>238</ele>
        <time>2016-8-7T11:32:46.000Z</time>
      </trkpt>
      <trkpt lat="50.19193" lon="4.38809">
        <ele>238</ele>
        <time>2016-8-7T11:32:46.000Z</time>
      </trkpt>
      <trkpt lat="50.19193" lon="4.38809">
        <ele>238</ele>
        <time>2016-8-7T11:32:46.000Z</time>
      </trkpt>
      <trkpt lat="50.19194" lon="4.38806">
        <ele>238.5</ele>
        <time>2016-8-7T11:32:46.000Z</time>
      </trkpt>
      <trkpt lat="50.19194" lon="4.38806">
        <ele>238.5</ele>
        <time>2016-8-7T11:32:46.000Z</time>
      </trkpt>
      <trkpt lat="50.19194" lon="4.38804">
        <ele>238.5</ele>
        <time>2016-8-7T11:32:46.000Z</time>
      </trkpt>
      <trkpt lat="50.19194" lon="4.38804">
        <ele>238.5</ele>
        <time>2016-8-7T11:32:46.000Z</time>
      </trkpt>
      <trkpt lat="50.19195" lon="4.38801">
        <ele>238.5</ele>
        <time>2016-8-7T11:32:46.000Z</time>
      </trkpt>
      <trkpt lat="50.19195" lon="4.38801">
        <ele>238.5</ele>
        <time>2016-8-7T11:32:46.000Z</time>
      </trkpt>
      <trkpt lat="50.19195" lon="4.38799">
        <ele>238.5</ele>
        <time>2016-8-7T11:32:46.000Z</time>
      </trkpt>
      <trkpt lat="50.19195" lon="4.38799">
        <ele>238.5</ele>
        <time>2016-8-7T11:32:46.000Z</time>
      </trkpt>
      <trkpt lat="50.19196" lon="4.38796">
        <ele>239</ele>
        <time>2016-8-7T11:32:46.000Z</time>
      </trkpt>
      <trkpt lat="50.19196" lon="4.38796">
        <ele>239</ele>
        <time>2016-8-7T11:32:46.000Z</time>
      </trkpt>
      <trkpt lat="50.19196" lon="4.38792">
        <ele>239.5</ele>
        <time>2016-8-7T11:32:46.000Z</time>
      </trkpt>
      <trkpt lat="50.19196" lon="4.38792">
        <ele>239.5</ele>
        <time>2016-8-7T11:32:46.000Z</time>
      </trkpt>
      <trkpt lat="50.19197" lon="4.38788">
        <ele>240.5</ele>
        <time>2016-8-7T11:32:46.000Z</time>
      </trkpt>
      <trkpt lat="50.19197" lon="4.38788">
        <ele>240.5</ele>
        <time>2016-8-7T11:32:46.000Z</time>
      </trkpt>
      <trkpt lat="50.19198" lon="4.38785">
        <ele>241</ele>
        <time>2016-8-7T11:32:46.000Z</time>
      </trkpt>
      <trkpt lat="50.19198" lon="4.38785">
        <ele>241</ele>
        <time>2016-8-7T11:32:46.000Z</time>
      </trkpt>
      <trkpt lat="50.19199" lon="4.38782">
        <ele>242</ele>
        <time>2016-8-7T11:32:46.000Z</time>
      </trkpt>
      <trkpt lat="50.19199" lon="4.38782">
        <ele>242</ele>
        <time>2016-8-7T11:32:46.000Z</time>
      </trkpt>
      <trkpt lat="50.19201" lon="4.3878">
        <ele>242.5</ele>
        <time>2016-8-7T11:32:46.000Z</time>
      </trkpt>
      <trkpt lat="50.19201" lon="4.3878">
        <ele>242.5</ele>
        <time>2016-8-7T11:32:46.000Z</time>
      </trkpt>
      <trkpt lat="50.19202" lon="4.38779">
        <ele>243</ele>
        <time>2016-8-7T11:32:46.000Z</time>
      </trkpt>
      <trkpt lat="50.19202" lon="4.38779">
        <ele>243</ele>
        <time>2016-8-7T11:32:46.000Z</time>
      </trkpt>
      <trkpt lat="50.19202" lon="4.38776">
        <ele>243.5</ele>
        <time>2016-8-7T11:32:46.000Z</time>
      </trkpt>
      <trkpt lat="50.19202" lon="4.38776">
        <ele>243.5</ele>
        <time>2016-8-7T11:32:46.000Z</time>
      </trkpt>
      <trkpt lat="50.19202" lon="4.38774">
        <ele>244</ele>
        <time>2016-8-7T11:32:46.000Z</time>
      </trkpt>
      <trkpt lat="50.19202" lon="4.38774">
        <ele>244</ele>
        <time>2016-8-7T11:32:46.000Z</time>
      </trkpt>
      <trkpt lat="50.19201" lon="4.38771">
        <ele>244.5</ele>
        <time>2016-8-7T11:32:46.000Z</time>
      </trkpt>
      <trkpt lat="50.19201" lon="4.38771">
        <ele>244.5</ele>
        <time>2016-8-7T11:32:46.000Z</time>
      </trkpt>
      <trkpt lat="50.19199" lon="4.38769">
        <ele>245</ele>
        <time>2016-8-7T11:32:46.000Z</time>
      </trkpt>
      <trkpt lat="50.19199" lon="4.38769">
        <ele>245</ele>
        <time>2016-8-7T11:32:46.000Z</time>
      </trkpt>
      <trkpt lat="50.19198" lon="4.38766">
        <ele>245.5</ele>
        <time>2016-8-7T11:32:46.000Z</time>
      </trkpt>
      <trkpt lat="50.19198" lon="4.38766">
        <ele>245.5</ele>
        <time>2016-8-7T11:32:46.000Z</time>
      </trkpt>
      <trkpt lat="50.19196" lon="4.38764">
        <ele>246.5</ele>
        <time>2016-8-7T11:32:46.000Z</time>
      </trkpt>
      <trkpt lat="50.19196" lon="4.38764">
        <ele>246.5</ele>
        <time>2016-8-7T11:32:46.000Z</time>
      </trkpt>
      <trkpt lat="50.19195" lon="4.38762">
        <ele>247</ele>
        <time>2016-8-7T11:32:46.000Z</time>
      </trkpt>
      <trkpt lat="50.19195" lon="4.38762">
        <ele>247</ele>
        <time>2016-8-7T11:32:46.000Z</time>
      </trkpt>
      <trkpt lat="50.19196" lon="4.3876">
        <ele>247</ele>
        <time>2016-8-7T11:34:32.000Z</time>
      </trkpt>
      <trkpt lat="50.19196" lon="4.3876">
        <ele>247</ele>
        <time>2016-8-7T11:34:32.000Z</time>
      </trkpt>
      <trkpt lat="50.19196" lon="4.38758">
        <ele>247.5</ele>
        <time>2016-8-7T11:34:32.000Z</time>
      </trkpt>
      <trkpt lat="50.19196" lon="4.38758">
        <ele>247.5</ele>
        <time>2016-8-7T11:34:32.000Z</time>
      </trkpt>
      <trkpt lat="50.19195" lon="4.38754">
        <ele>248</ele>
        <time>2016-8-7T11:34:32.000Z</time>
      </trkpt>
      <trkpt lat="50.19195" lon="4.38754">
        <ele>248</ele>
        <time>2016-8-7T11:34:32.000Z</time>
      </trkpt>
      <trkpt lat="50.19194" lon="4.38751">
        <ele>248</ele>
        <time>2016-8-7T11:34:32.000Z</time>
      </trkpt>
      <trkpt lat="50.19194" lon="4.38751">
        <ele>248</ele>
        <time>2016-8-7T11:34:32.000Z</time>
      </trkpt>
      <trkpt lat="50.19194" lon="4.38748">
        <ele>248</ele>
        <time>2016-8-7T11:34:32.000Z</time>
      </trkpt>
      <trkpt lat="50.19194" lon="4.38748">
        <ele>248</ele>
        <time>2016-8-7T11:34:32.000Z</time>
      </trkpt>
      <trkpt lat="50.19195" lon="4.38746">
        <ele>248</ele>
        <time>2016-8-7T11:34:32.000Z</time>
      </trkpt>
      <trkpt lat="50.19195" lon="4.38746">
        <ele>248</ele>
        <time>2016-8-7T11:34:32.000Z</time>
      </trkpt>
      <trkpt lat="50.19195" lon="4.38744">
        <ele>248</ele>
        <time>2016-8-7T11:34:32.000Z</time>
      </trkpt>
      <trkpt lat="50.19195" lon="4.38744">
        <ele>248</ele>
        <time>2016-8-7T11:34:32.000Z</time>
      </trkpt>
      <trkpt lat="50.19195" lon="4.38742">
        <ele>248</ele>
        <time>2016-8-7T11:34:32.000Z</time>
      </trkpt>
      <trkpt lat="50.19195" lon="4.38742">
        <ele>248</ele>
        <time>2016-8-7T11:34:32.000Z</time>
      </trkpt>
      <trkpt lat="50.19196" lon="4.38738">
        <ele>248</ele>
        <time>2016-8-7T11:34:32.000Z</time>
      </trkpt>
      <trkpt lat="50.19196" lon="4.38738">
        <ele>248</ele>
        <time>2016-8-7T11:34:32.000Z</time>
      </trkpt>
      <trkpt lat="50.19197" lon="4.38734">
        <ele>248</ele>
        <time>2016-8-7T11:34:32.000Z</time>
      </trkpt>
      <trkpt lat="50.19197" lon="4.38734">
        <ele>248</ele>
        <time>2016-8-7T11:34:32.000Z</time>
      </trkpt>
      <trkpt lat="50.19198" lon="4.38728">
        <ele>248</ele>
        <time>2016-8-7T11:34:32.000Z</time>
      </trkpt>
      <trkpt lat="50.19198" lon="4.38728">
        <ele>248</ele>
        <time>2016-8-7T11:34:32.000Z</time>
      </trkpt>
      <trkpt lat="50.19198" lon="4.38726">
        <ele>248</ele>
        <time>2016-8-7T11:34:32.000Z</time>
      </trkpt>
      <trkpt lat="50.19198" lon="4.38726">
        <ele>248</ele>
        <time>2016-8-7T11:34:32.000Z</time>
      </trkpt>
      <trkpt lat="50.19199" lon="4.38722">
        <ele>248</ele>
        <time>2016-8-7T11:34:32.000Z</time>
      </trkpt>
      <trkpt lat="50.19199" lon="4.38722">
        <ele>248</ele>
        <time>2016-8-7T11:34:32.000Z</time>
      </trkpt>
      <trkpt lat="50.192" lon="4.38717">
        <ele>247.5</ele>
        <time>2016-8-7T11:34:32.000Z</time>
      </trkpt>
      <trkpt lat="50.192" lon="4.38717">
        <ele>247.5</ele>
        <time>2016-8-7T11:34:32.000Z</time>
      </trkpt>
      <trkpt lat="50.19201" lon="4.38713">
        <ele>247.5</ele>
        <time>2016-8-7T11:34:32.000Z</time>
      </trkpt>
      <trkpt lat="50.19201" lon="4.38713">
        <ele>247.5</ele>
        <time>2016-8-7T11:34:32.000Z</time>
      </trkpt>
      <trkpt lat="50.19203" lon="4.38709">
        <ele>246.5</ele>
        <time>2016-8-7T11:34:32.000Z</time>
      </trkpt>
      <trkpt lat="50.19203" lon="4.38709">
        <ele>246.5</ele>
        <time>2016-8-7T11:34:32.000Z</time>
      </trkpt>
      <trkpt lat="50.19203" lon="4.38705">
        <ele>246</ele>
        <time>2016-8-7T11:34:32.000Z</time>
      </trkpt>
      <trkpt lat="50.19203" lon="4.38705">
        <ele>246</ele>
        <time>2016-8-7T11:34:32.000Z</time>
      </trkpt>
      <trkpt lat="50.19204" lon="4.38702">
        <ele>245.5</ele>
        <time>2016-8-7T11:34:32.000Z</time>
      </trkpt>
      <trkpt lat="50.19204" lon="4.38702">
        <ele>245.5</ele>
        <time>2016-8-7T11:34:32.000Z</time>
      </trkpt>
      <trkpt lat="50.19204" lon="4.38699">
        <ele>245.5</ele>
        <time>2016-8-7T11:34:32.000Z</time>
      </trkpt>
      <trkpt lat="50.19204" lon="4.38699">
        <ele>245.5</ele>
        <time>2016-8-7T11:34:32.000Z</time>
      </trkpt>
      <trkpt lat="50.19205" lon="4.38696">
        <ele>245.5</ele>
        <time>2016-8-7T11:34:32.000Z</time>
      </trkpt>
      <trkpt lat="50.19205" lon="4.38696">
        <ele>245.5</ele>
        <time>2016-8-7T11:34:32.000Z</time>
      </trkpt>
      <trkpt lat="50.19205" lon="4.38693">
        <ele>245.5</ele>
        <time>2016-8-7T11:34:32.000Z</time>
      </trkpt>
      <trkpt lat="50.19205" lon="4.38693">
        <ele>245.5</ele>
        <time>2016-8-7T11:34:32.000Z</time>
      </trkpt>
      <trkpt lat="50.19209" lon="4.38646">
        <ele>245</ele>
        <time>2016-8-7T11:34:32.000Z</time>
      </trkpt>
      <trkpt lat="50.19209" lon="4.38646">
        <ele>245</ele>
        <time>2016-8-7T11:34:32.000Z</time>
      </trkpt>
      <trkpt lat="50.19209" lon="4.38642">
        <ele>244.5</ele>
        <time>2016-8-7T11:34:32.000Z</time>
      </trkpt>
      <trkpt lat="50.19209" lon="4.38642">
        <ele>244.5</ele>
        <time>2016-8-7T11:34:32.000Z</time>
      </trkpt>
      <trkpt lat="50.1921" lon="4.38639">
        <ele>244.5</ele>
        <time>2016-8-7T11:34:32.000Z</time>
      </trkpt>
      <trkpt lat="50.1921" lon="4.38639">
        <ele>244.5</ele>
        <time>2016-8-7T11:34:32.000Z</time>
      </trkpt>
      <trkpt lat="50.19211" lon="4.38634">
        <ele>245</ele>
        <time>2016-8-7T11:34:32.000Z</time>
      </trkpt>
      <trkpt lat="50.19211" lon="4.38634">
        <ele>245</ele>
        <time>2016-8-7T11:34:32.000Z</time>
      </trkpt>
      <trkpt lat="50.19211" lon="4.38632">
        <ele>245</ele>
        <time>2016-8-7T11:34:32.000Z</time>
      </trkpt>
      <trkpt lat="50.19211" lon="4.38632">
        <ele>245</ele>
        <time>2016-8-7T11:34:32.000Z</time>
      </trkpt>
      <trkpt lat="50.19211" lon="4.38631">
        <ele>245</ele>
        <time>2016-8-7T11:34:32.000Z</time>
      </trkpt>
      <trkpt lat="50.19211" lon="4.38631">
        <ele>245</ele>
        <time>2016-8-7T11:34:32.000Z</time>
      </trkpt>
      <trkpt lat="50.19209" lon="4.38626">
        <ele>246.5</ele>
        <time>2016-8-7T11:34:32.000Z</time>
      </trkpt>
      <trkpt lat="50.19209" lon="4.38626">
        <ele>246.5</ele>
        <time>2016-8-7T11:34:32.000Z</time>
      </trkpt>
      <trkpt lat="50.19209" lon="4.38623">
        <ele>246.5</ele>
        <time>2016-8-7T11:34:32.000Z</time>
      </trkpt>
      <trkpt lat="50.19209" lon="4.38623">
        <ele>246.5</ele>
        <time>2016-8-7T11:34:32.000Z</time>
      </trkpt>
      <trkpt lat="50.1921" lon="4.38622">
        <ele>246</ele>
        <time>2016-8-7T11:34:32.000Z</time>
      </trkpt>
      <trkpt lat="50.1921" lon="4.38622">
        <ele>246</ele>
        <time>2016-8-7T11:34:32.000Z</time>
      </trkpt>
      <trkpt lat="50.1921" lon="4.38619">
        <ele>246.5</ele>
        <time>2016-8-7T11:34:32.000Z</time>
      </trkpt>
      <trkpt lat="50.1921" lon="4.38619">
        <ele>246.5</ele>
        <time>2016-8-7T11:34:32.000Z</time>
      </trkpt>
      <trkpt lat="50.19211" lon="4.38616">
        <ele>246.5</ele>
        <time>2016-8-7T11:34:32.000Z</time>
      </trkpt>
      <trkpt lat="50.19211" lon="4.38616">
        <ele>246.5</ele>
        <time>2016-8-7T11:34:32.000Z</time>
      </trkpt>
      <trkpt lat="50.19212" lon="4.38612">
        <ele>246</ele>
        <time>2016-8-7T11:34:32.000Z</time>
      </trkpt>
      <trkpt lat="50.19212" lon="4.38612">
        <ele>246</ele>
        <time>2016-8-7T11:34:32.000Z</time>
      </trkpt>
      <trkpt lat="50.19214" lon="4.38609">
        <ele>246</ele>
        <time>2016-8-7T11:34:32.000Z</time>
      </trkpt>
      <trkpt lat="50.19214" lon="4.38609">
        <ele>246</ele>
        <time>2016-8-7T11:34:32.000Z</time>
      </trkpt>
      <trkpt lat="50.19215" lon="4.38605">
        <ele>246.5</ele>
        <time>2016-8-7T11:34:32.000Z</time>
      </trkpt>
      <trkpt lat="50.19215" lon="4.38605">
        <ele>246.5</ele>
        <time>2016-8-7T11:34:32.000Z</time>
      </trkpt>
      <trkpt lat="50.19216" lon="4.38603">
        <ele>246.5</ele>
        <time>2016-8-7T11:34:32.000Z</time>
      </trkpt>
      <trkpt lat="50.19216" lon="4.38603">
        <ele>246.5</ele>
        <time>2016-8-7T11:34:32.000Z</time>
      </trkpt>
      <trkpt lat="50.19217" lon="4.38598">
        <ele>246.5</ele>
        <time>2016-8-7T11:34:32.000Z</time>
      </trkpt>
      <trkpt lat="50.19217" lon="4.38598">
        <ele>246.5</ele>
        <time>2016-8-7T11:34:32.000Z</time>
      </trkpt>
      <trkpt lat="50.19218" lon="4.38593">
        <ele>247</ele>
        <time>2016-8-7T11:34:32.000Z</time>
      </trkpt>
      <trkpt lat="50.19218" lon="4.38593">
        <ele>247</ele>
        <time>2016-8-7T11:34:32.000Z</time>
      </trkpt>
      <trkpt lat="50.19219" lon="4.3859">
        <ele>247</ele>
        <time>2016-8-7T11:34:32.000Z</time>
      </trkpt>
      <trkpt lat="50.19219" lon="4.3859">
        <ele>247</ele>
        <time>2016-8-7T11:34:32.000Z</time>
      </trkpt>
      <trkpt lat="50.1922" lon="4.38589">
        <ele>247</ele>
        <time>2016-8-7T11:34:32.000Z</time>
      </trkpt>
      <trkpt lat="50.1922" lon="4.38589">
        <ele>247</ele>
        <time>2016-8-7T11:34:32.000Z</time>
      </trkpt>
      <trkpt lat="50.1922" lon="4.38587">
        <ele>247</ele>
        <time>2016-8-7T11:34:32.000Z</time>
      </trkpt>
      <trkpt lat="50.1922" lon="4.38587">
        <ele>247</ele>
        <time>2016-8-7T11:34:32.000Z</time>
      </trkpt>
      <trkpt lat="50.19221" lon="4.38584">
        <ele>247</ele>
        <time>2016-8-7T11:34:32.000Z</time>
      </trkpt>
      <trkpt lat="50.19221" lon="4.38584">
        <ele>247</ele>
        <time>2016-8-7T11:34:32.000Z</time>
      </trkpt>
      <trkpt lat="50.19221" lon="4.38582">
        <ele>247.5</ele>
        <time>2016-8-7T11:34:32.000Z</time>
      </trkpt>
      <trkpt lat="50.19221" lon="4.38582">
        <ele>247.5</ele>
        <time>2016-8-7T11:34:32.000Z</time>
      </trkpt>
      <trkpt lat="50.19222" lon="4.38579">
        <ele>247.5</ele>
        <time>2016-8-7T11:34:32.000Z</time>
      </trkpt>
      <trkpt lat="50.19222" lon="4.38579">
        <ele>247.5</ele>
        <time>2016-8-7T11:34:32.000Z</time>
      </trkpt>
      <trkpt lat="50.19222" lon="4.38575">
        <ele>247.5</ele>
        <time>2016-8-7T11:34:32.000Z</time>
      </trkpt>
      <trkpt lat="50.19222" lon="4.38575">
        <ele>247.5</ele>
        <time>2016-8-7T11:34:32.000Z</time>
      </trkpt>
      <trkpt lat="50.19222" lon="4.38572">
        <ele>247</ele>
        <time>2016-8-7T11:34:32.000Z</time>
      </trkpt>
      <trkpt lat="50.19222" lon="4.38572">
        <ele>247</ele>
        <time>2016-8-7T11:34:32.000Z</time>
      </trkpt>
      <trkpt lat="50.19223" lon="4.3857">
        <ele>247</ele>
        <time>2016-8-7T11:34:32.000Z</time>
      </trkpt>
      <trkpt lat="50.19223" lon="4.3857">
        <ele>247</ele>
        <time>2016-8-7T11:34:32.000Z</time>
      </trkpt>
      <trkpt lat="50.19225" lon="4.38567">
        <ele>247</ele>
        <time>2016-8-7T11:34:32.000Z</time>
      </trkpt>
      <trkpt lat="50.19225" lon="4.38567">
        <ele>247</ele>
        <time>2016-8-7T11:34:32.000Z</time>
      </trkpt>
      <trkpt lat="50.19225" lon="4.38563">
        <ele>246.5</ele>
        <time>2016-8-7T11:34:32.000Z</time>
      </trkpt>
      <trkpt lat="50.19225" lon="4.38563">
        <ele>246.5</ele>
        <time>2016-8-7T11:34:32.000Z</time>
      </trkpt>
      <trkpt lat="50.19226" lon="4.38562">
        <ele>246.5</ele>
        <time>2016-8-7T11:34:32.000Z</time>
      </trkpt>
      <trkpt lat="50.19226" lon="4.38562">
        <ele>246.5</ele>
        <time>2016-8-7T11:34:32.000Z</time>
      </trkpt>
      <trkpt lat="50.19227" lon="4.38559">
        <ele>247</ele>
        <time>2016-8-7T11:34:32.000Z</time>
      </trkpt>
      <trkpt lat="50.19227" lon="4.38559">
        <ele>247</ele>
        <time>2016-8-7T11:35:44.000Z</time>
      </trkpt>
      <trkpt lat="50.19227" lon="4.38557">
        <ele>247</ele>
        <time>2016-8-7T11:35:44.000Z</time>
      </trkpt>
      <trkpt lat="50.19227" lon="4.38557">
        <ele>247</ele>
        <time>2016-8-7T11:35:44.000Z</time>
      </trkpt>
      <trkpt lat="50.19227" lon="4.38555">
        <ele>247</ele>
        <time>2016-8-7T11:35:44.000Z</time>
      </trkpt>
      <trkpt lat="50.19227" lon="4.38555">
        <ele>247</ele>
        <time>2016-8-7T11:35:44.000Z</time>
      </trkpt>
      <trkpt lat="50.19228" lon="4.38552">
        <ele>247</ele>
        <time>2016-8-7T11:35:44.000Z</time>
      </trkpt>
      <trkpt lat="50.19228" lon="4.38552">
        <ele>247</ele>
        <time>2016-8-7T11:35:44.000Z</time>
      </trkpt>
      <trkpt lat="50.1923" lon="4.38546">
        <ele>247.5</ele>
        <time>2016-8-7T11:35:44.000Z</time>
      </trkpt>
      <trkpt lat="50.1923" lon="4.38546">
        <ele>247.5</ele>
        <time>2016-8-7T11:35:44.000Z</time>
      </trkpt>
      <trkpt lat="50.1923" lon="4.38544">
        <ele>247.5</ele>
        <time>2016-8-7T11:35:44.000Z</time>
      </trkpt>
      <trkpt lat="50.1923" lon="4.38544">
        <ele>247.5</ele>
        <time>2016-8-7T11:35:44.000Z</time>
      </trkpt>
      <trkpt lat="50.19231" lon="4.3854">
        <ele>247.5</ele>
        <time>2016-8-7T11:35:44.000Z</time>
      </trkpt>
      <trkpt lat="50.19231" lon="4.3854">
        <ele>247.5</ele>
        <time>2016-8-7T11:35:44.000Z</time>
      </trkpt>
      <trkpt lat="50.19231" lon="4.38536">
        <ele>248</ele>
        <time>2016-8-7T11:35:44.000Z</time>
      </trkpt>
      <trkpt lat="50.19231" lon="4.38536">
        <ele>248</ele>
        <time>2016-8-7T11:35:44.000Z</time>
      </trkpt>
      <trkpt lat="50.19232" lon="4.38533">
        <ele>248</ele>
        <time>2016-8-7T11:35:44.000Z</time>
      </trkpt>
      <trkpt lat="50.19232" lon="4.38533">
        <ele>248</ele>
        <time>2016-8-7T11:35:44.000Z</time>
      </trkpt>
      <trkpt lat="50.19232" lon="4.38531">
        <ele>248</ele>
        <time>2016-8-7T11:35:44.000Z</time>
      </trkpt>
      <trkpt lat="50.19232" lon="4.38531">
        <ele>248</ele>
        <time>2016-8-7T11:35:44.000Z</time>
      </trkpt>
      <trkpt lat="50.19233" lon="4.38529">
        <ele>248</ele>
        <time>2016-8-7T11:35:44.000Z</time>
      </trkpt>
      <trkpt lat="50.19233" lon="4.38529">
        <ele>248</ele>
        <time>2016-8-7T11:35:44.000Z</time>
      </trkpt>
      <trkpt lat="50.19233" lon="4.38526">
        <ele>248.5</ele>
        <time>2016-8-7T11:35:44.000Z</time>
      </trkpt>
      <trkpt lat="50.19233" lon="4.38526">
        <ele>248.5</ele>
        <time>2016-8-7T11:35:44.000Z</time>
      </trkpt>
      <trkpt lat="50.19234" lon="4.38523">
        <ele>248.5</ele>
        <time>2016-8-7T11:35:44.000Z</time>
      </trkpt>
      <trkpt lat="50.19234" lon="4.38523">
        <ele>248.5</ele>
        <time>2016-8-7T11:35:44.000Z</time>
      </trkpt>
      <trkpt lat="50.19235" lon="4.38521">
        <ele>248.5</ele>
        <time>2016-8-7T11:35:44.000Z</time>
      </trkpt>
      <trkpt lat="50.19235" lon="4.38521">
        <ele>248.5</ele>
        <time>2016-8-7T11:35:44.000Z</time>
      </trkpt>
      <trkpt lat="50.19237" lon="4.38516">
        <ele>248.5</ele>
        <time>2016-8-7T11:35:44.000Z</time>
      </trkpt>
      <trkpt lat="50.19237" lon="4.38516">
        <ele>248.5</ele>
        <time>2016-8-7T11:35:44.000Z</time>
      </trkpt>
      <trkpt lat="50.19237" lon="4.38513">
        <ele>248</ele>
        <time>2016-8-7T11:35:44.000Z</time>
      </trkpt>
      <trkpt lat="50.19237" lon="4.38513">
        <ele>248</ele>
        <time>2016-8-7T11:35:44.000Z</time>
      </trkpt>
      <trkpt lat="50.19237" lon="4.38511">
        <ele>248</ele>
        <time>2016-8-7T11:35:44.000Z</time>
      </trkpt>
      <trkpt lat="50.19237" lon="4.38511">
        <ele>248</ele>
        <time>2016-8-7T11:35:44.000Z</time>
      </trkpt>
      <trkpt lat="50.19238" lon="4.38509">
        <ele>253.5</ele>
        <time>2016-8-7T11:35:44.000Z</time>
      </trkpt>
      <trkpt lat="50.19238" lon="4.38509">
        <ele>253.5</ele>
        <time>2016-8-7T11:35:44.000Z</time>
      </trkpt>
      <trkpt lat="50.19239" lon="4.38506">
        <ele>253.5</ele>
        <time>2016-8-7T11:35:44.000Z</time>
      </trkpt>
      <trkpt lat="50.19239" lon="4.38506">
        <ele>253.5</ele>
        <time>2016-8-7T11:35:44.000Z</time>
      </trkpt>
      <trkpt lat="50.19239" lon="4.38502">
        <ele>253.5</ele>
        <time>2016-8-7T11:35:44.000Z</time>
      </trkpt>
      <trkpt lat="50.19239" lon="4.38502">
        <ele>253.5</ele>
        <time>2016-8-7T11:35:44.000Z</time>
      </trkpt>
      <trkpt lat="50.1924" lon="4.385">
        <ele>249.5</ele>
        <time>2016-8-7T11:35:44.000Z</time>
      </trkpt>
      <trkpt lat="50.1924" lon="4.385">
        <ele>249.5</ele>
        <time>2016-8-7T11:35:44.000Z</time>
      </trkpt>
      <trkpt lat="50.1924" lon="4.38499">
        <ele>250</ele>
        <time>2016-8-7T11:35:44.000Z</time>
      </trkpt>
      <trkpt lat="50.1924" lon="4.38499">
        <ele>250</ele>
        <time>2016-8-7T11:35:44.000Z</time>
      </trkpt>
      <trkpt lat="50.1924" lon="4.38492">
        <ele>250.5</ele>
        <time>2016-8-7T11:35:44.000Z</time>
      </trkpt>
      <trkpt lat="50.1924" lon="4.38492">
        <ele>250.5</ele>
        <time>2016-8-7T11:35:44.000Z</time>
      </trkpt>
      <trkpt lat="50.1924" lon="4.38491">
        <ele>250.5</ele>
        <time>2016-8-7T11:35:44.000Z</time>
      </trkpt>
      <trkpt lat="50.1924" lon="4.38491">
        <ele>250.5</ele>
        <time>2016-8-7T11:35:44.000Z</time>
      </trkpt>
      <trkpt lat="50.1924" lon="4.38488">
        <ele>251</ele>
        <time>2016-8-7T11:35:44.000Z</time>
      </trkpt>
      <trkpt lat="50.1924" lon="4.38488">
        <ele>251</ele>
        <time>2016-8-7T11:35:44.000Z</time>
      </trkpt>
      <trkpt lat="50.1924" lon="4.38487">
        <ele>251</ele>
        <time>2016-8-7T11:35:44.000Z</time>
      </trkpt>
      <trkpt lat="50.1924" lon="4.38487">
        <ele>251</ele>
        <time>2016-8-7T11:35:44.000Z</time>
      </trkpt>
      <trkpt lat="50.19241" lon="4.38484">
        <ele>251.5</ele>
        <time>2016-8-7T11:35:44.000Z</time>
      </trkpt>
      <trkpt lat="50.19241" lon="4.38484">
        <ele>251.5</ele>
        <time>2016-8-7T11:35:44.000Z</time>
      </trkpt>
      <trkpt lat="50.19242" lon="4.38483">
        <ele>251.5</ele>
        <time>2016-8-7T11:35:44.000Z</time>
      </trkpt>
      <trkpt lat="50.19242" lon="4.38483">
        <ele>251.5</ele>
        <time>2016-8-7T11:35:44.000Z</time>
      </trkpt>
      <trkpt lat="50.19242" lon="4.3848">
        <ele>252</ele>
        <time>2016-8-7T11:35:44.000Z</time>
      </trkpt>
      <trkpt lat="50.19242" lon="4.3848">
        <ele>252</ele>
        <time>2016-8-7T11:35:44.000Z</time>
      </trkpt>
      <trkpt lat="50.19243" lon="4.38477">
        <ele>252</ele>
        <time>2016-8-7T11:35:44.000Z</time>
      </trkpt>
      <trkpt lat="50.19243" lon="4.38477">
        <ele>252</ele>
        <time>2016-8-7T11:35:44.000Z</time>
      </trkpt>
      <trkpt lat="50.19243" lon="4.38475">
        <ele>252.5</ele>
        <time>2016-8-7T11:35:44.000Z</time>
      </trkpt>
      <trkpt lat="50.19243" lon="4.38475">
        <ele>252.5</ele>
        <time>2016-8-7T11:35:44.000Z</time>
      </trkpt>
      <trkpt lat="50.19244" lon="4.38474">
        <ele>252.5</ele>
        <time>2016-8-7T11:35:44.000Z</time>
      </trkpt>
      <trkpt lat="50.19244" lon="4.38474">
        <ele>252.5</ele>
        <time>2016-8-7T11:35:44.000Z</time>
      </trkpt>
      <trkpt lat="50.19244" lon="4.38471">
        <ele>252.5</ele>
        <time>2016-8-7T11:35:44.000Z</time>
      </trkpt>
      <trkpt lat="50.19244" lon="4.38471">
        <ele>252.5</ele>
        <time>2016-8-7T11:35:44.000Z</time>
      </trkpt>
      <trkpt lat="50.19245" lon="4.38468">
        <ele>252.5</ele>
        <time>2016-8-7T11:35:44.000Z</time>
      </trkpt>
      <trkpt lat="50.19245" lon="4.38468">
        <ele>252.5</ele>
        <time>2016-8-7T11:35:44.000Z</time>
      </trkpt>
      <trkpt lat="50.19246" lon="4.38465">
        <ele>252.5</ele>
        <time>2016-8-7T11:35:44.000Z</time>
      </trkpt>
      <trkpt lat="50.19246" lon="4.38465">
        <ele>252.5</ele>
        <time>2016-8-7T11:35:44.000Z</time>
      </trkpt>
      <trkpt lat="50.19246" lon="4.38461">
        <ele>252.5</ele>
        <time>2016-8-7T11:35:44.000Z</time>
      </trkpt>
      <trkpt lat="50.19246" lon="4.38461">
        <ele>252.5</ele>
        <time>2016-8-7T11:35:44.000Z</time>
      </trkpt>
      <trkpt lat="50.19247" lon="4.38459">
        <ele>252.5</ele>
        <time>2016-8-7T11:35:44.000Z</time>
      </trkpt>
      <trkpt lat="50.19247" lon="4.38459">
        <ele>252.5</ele>
        <time>2016-8-7T11:35:44.000Z</time>
      </trkpt>
      <trkpt lat="50.19248" lon="4.38457">
        <ele>253</ele>
        <time>2016-8-7T11:35:44.000Z</time>
      </trkpt>
      <trkpt lat="50.19248" lon="4.38457">
        <ele>253</ele>
        <time>2016-8-7T11:35:44.000Z</time>
      </trkpt>
      <trkpt lat="50.19249" lon="4.38453">
        <ele>253</ele>
        <time>2016-8-7T11:35:44.000Z</time>
      </trkpt>
      <trkpt lat="50.19249" lon="4.38453">
        <ele>253</ele>
        <time>2016-8-7T11:35:44.000Z</time>
      </trkpt>
      <trkpt lat="50.1925" lon="4.38451">
        <ele>254</ele>
        <time>2016-8-7T11:35:44.000Z</time>
      </trkpt>
      <trkpt lat="50.1925" lon="4.38451">
        <ele>254</ele>
        <time>2016-8-7T11:35:44.000Z</time>
      </trkpt>
      <trkpt lat="50.19251" lon="4.38449">
        <ele>254</ele>
        <time>2016-8-7T11:35:44.000Z</time>
      </trkpt>
      <trkpt lat="50.19251" lon="4.38449">
        <ele>254</ele>
        <time>2016-8-7T11:35:44.000Z</time>
      </trkpt>
      <trkpt lat="50.19252" lon="4.38445">
        <ele>254</ele>
        <time>2016-8-7T11:35:44.000Z</time>
      </trkpt>
      <trkpt lat="50.19252" lon="4.38445">
        <ele>254</ele>
        <time>2016-8-7T11:35:44.000Z</time>
      </trkpt>
      <trkpt lat="50.19252" lon="4.38443">
        <ele>253.5</ele>
        <time>2016-8-7T11:35:44.000Z</time>
      </trkpt>
      <trkpt lat="50.19252" lon="4.38443">
        <ele>253.5</ele>
        <time>2016-8-7T11:35:44.000Z</time>
      </trkpt>
      <trkpt lat="50.19253" lon="4.3844">
        <ele>253.5</ele>
        <time>2016-8-7T11:35:44.000Z</time>
      </trkpt>
      <trkpt lat="50.19253" lon="4.3844">
        <ele>253.5</ele>
        <time>2016-8-7T11:35:44.000Z</time>
      </trkpt>
      <trkpt lat="50.19254" lon="4.38439">
        <ele>253.5</ele>
        <time>2016-8-7T11:35:44.000Z</time>
      </trkpt>
      <trkpt lat="50.19254" lon="4.38439">
        <ele>253.5</ele>
        <time>2016-8-7T11:35:44.000Z</time>
      </trkpt>
      <trkpt lat="50.19254" lon="4.38436">
        <ele>253.5</ele>
        <time>2016-8-7T11:35:44.000Z</time>
      </trkpt>
      <trkpt lat="50.19254" lon="4.38436">
        <ele>253.5</ele>
        <time>2016-8-7T11:35:44.000Z</time>
      </trkpt>
      <trkpt lat="50.19255" lon="4.38433">
        <ele>253.5</ele>
        <time>2016-8-7T11:35:44.000Z</time>
      </trkpt>
      <trkpt lat="50.19255" lon="4.38433">
        <ele>253.5</ele>
        <time>2016-8-7T11:35:44.000Z</time>
      </trkpt>
      <trkpt lat="50.19255" lon="4.3843">
        <ele>253.5</ele>
        <time>2016-8-7T11:35:44.000Z</time>
      </trkpt>
      <trkpt lat="50.19255" lon="4.3843">
        <ele>253.5</ele>
        <time>2016-8-7T11:35:44.000Z</time>
      </trkpt>
      <trkpt lat="50.19255" lon="4.38429">
        <ele>253.5</ele>
        <time>2016-8-7T11:35:44.000Z</time>
      </trkpt>
      <trkpt lat="50.19255" lon="4.38429">
        <ele>253.5</ele>
        <time>2016-8-7T11:35:44.000Z</time>
      </trkpt>
      <trkpt lat="50.19255" lon="4.38427">
        <ele>252</ele>
        <time>2016-8-7T11:35:44.000Z</time>
      </trkpt>
      <trkpt lat="50.19255" lon="4.38427">
        <ele>252</ele>
        <time>2016-8-7T11:35:44.000Z</time>
      </trkpt>
      <trkpt lat="50.19256" lon="4.38424">
        <ele>251.5</ele>
        <time>2016-8-7T11:35:44.000Z</time>
      </trkpt>
      <trkpt lat="50.19256" lon="4.38424">
        <ele>251.5</ele>
        <time>2016-8-7T11:35:44.000Z</time>
      </trkpt>
      <trkpt lat="50.19256" lon="4.38422">
        <ele>253</ele>
        <time>2016-8-7T11:36:52.000Z</time>
      </trkpt>
      <trkpt lat="50.19256" lon="4.38422">
        <ele>253</ele>
        <time>2016-8-7T11:36:52.000Z</time>
      </trkpt>
      <trkpt lat="50.19256" lon="4.38418">
        <ele>253.5</ele>
        <time>2016-8-7T11:36:52.000Z</time>
      </trkpt>
      <trkpt lat="50.19256" lon="4.38418">
        <ele>253.5</ele>
        <time>2016-8-7T11:36:52.000Z</time>
      </trkpt>
      <trkpt lat="50.19257" lon="4.38415">
        <ele>253.5</ele>
        <time>2016-8-7T11:36:52.000Z</time>
      </trkpt>
      <trkpt lat="50.19257" lon="4.38415">
        <ele>253.5</ele>
        <time>2016-8-7T11:36:52.000Z</time>
      </trkpt>
      <trkpt lat="50.19257" lon="4.38412">
        <ele>253.5</ele>
        <time>2016-8-7T11:36:52.000Z</time>
      </trkpt>
      <trkpt lat="50.19257" lon="4.38412">
        <ele>253.5</ele>
        <time>2016-8-7T11:36:52.000Z</time>
      </trkpt>
      <trkpt lat="50.19258" lon="4.38409">
        <ele>253.5</ele>
        <time>2016-8-7T11:36:52.000Z</time>
      </trkpt>
      <trkpt lat="50.19258" lon="4.38409">
        <ele>253.5</ele>
        <time>2016-8-7T11:36:52.000Z</time>
      </trkpt>
      <trkpt lat="50.19258" lon="4.38407">
        <ele>254</ele>
        <time>2016-8-7T11:36:52.000Z</time>
      </trkpt>
      <trkpt lat="50.19258" lon="4.38407">
        <ele>254</ele>
        <time>2016-8-7T11:36:52.000Z</time>
      </trkpt>
      <trkpt lat="50.19259" lon="4.38404">
        <ele>254</ele>
        <time>2016-8-7T11:36:52.000Z</time>
      </trkpt>
      <trkpt lat="50.19259" lon="4.38404">
        <ele>254</ele>
        <time>2016-8-7T11:36:52.000Z</time>
      </trkpt>
      <trkpt lat="50.19259" lon="4.38402">
        <ele>254</ele>
        <time>2016-8-7T11:36:52.000Z</time>
      </trkpt>
      <trkpt lat="50.19259" lon="4.38402">
        <ele>254</ele>
        <time>2016-8-7T11:36:52.000Z</time>
      </trkpt>
      <trkpt lat="50.19259" lon="4.38398">
        <ele>254.5</ele>
        <time>2016-8-7T11:36:52.000Z</time>
      </trkpt>
      <trkpt lat="50.19259" lon="4.38398">
        <ele>254.5</ele>
        <time>2016-8-7T11:36:52.000Z</time>
      </trkpt>
      <trkpt lat="50.1926" lon="4.38394">
        <ele>254.5</ele>
        <time>2016-8-7T11:36:52.000Z</time>
      </trkpt>
      <trkpt lat="50.1926" lon="4.38394">
        <ele>254.5</ele>
        <time>2016-8-7T11:36:52.000Z</time>
      </trkpt>
      <trkpt lat="50.1926" lon="4.3839">
        <ele>254.5</ele>
        <time>2016-8-7T11:36:52.000Z</time>
      </trkpt>
      <trkpt lat="50.1926" lon="4.3839">
        <ele>254.5</ele>
        <time>2016-8-7T11:36:52.000Z</time>
      </trkpt>
      <trkpt lat="50.19261" lon="4.38386">
        <ele>254</ele>
        <time>2016-8-7T11:36:52.000Z</time>
      </trkpt>
      <trkpt lat="50.19261" lon="4.38386">
        <ele>254</ele>
        <time>2016-8-7T11:36:52.000Z</time>
      </trkpt>
      <trkpt lat="50.19261" lon="4.38384">
        <ele>254</ele>
        <time>2016-8-7T11:36:52.000Z</time>
      </trkpt>
      <trkpt lat="50.19261" lon="4.38384">
        <ele>254</ele>
        <time>2016-8-7T11:36:52.000Z</time>
      </trkpt>
      <trkpt lat="50.19262" lon="4.38382">
        <ele>254</ele>
        <time>2016-8-7T11:36:52.000Z</time>
      </trkpt>
      <trkpt lat="50.19262" lon="4.38382">
        <ele>254</ele>
        <time>2016-8-7T11:36:52.000Z</time>
      </trkpt>
      <trkpt lat="50.19262" lon="4.38379">
        <ele>254</ele>
        <time>2016-8-7T11:36:52.000Z</time>
      </trkpt>
      <trkpt lat="50.19262" lon="4.38379">
        <ele>254</ele>
        <time>2016-8-7T11:36:52.000Z</time>
      </trkpt>
      <trkpt lat="50.19262" lon="4.38377">
        <ele>254</ele>
        <time>2016-8-7T11:36:52.000Z</time>
      </trkpt>
      <trkpt lat="50.19262" lon="4.38377">
        <ele>254</ele>
        <time>2016-8-7T11:36:52.000Z</time>
      </trkpt>
      <trkpt lat="50.19263" lon="4.38375">
        <ele>254</ele>
        <time>2016-8-7T11:36:52.000Z</time>
      </trkpt>
      <trkpt lat="50.19263" lon="4.38375">
        <ele>254</ele>
        <time>2016-8-7T11:36:52.000Z</time>
      </trkpt>
      <trkpt lat="50.19263" lon="4.38372">
        <ele>254</ele>
        <time>2016-8-7T11:36:52.000Z</time>
      </trkpt>
      <trkpt lat="50.19263" lon="4.38372">
        <ele>254</ele>
        <time>2016-8-7T11:36:52.000Z</time>
      </trkpt>
      <trkpt lat="50.19263" lon="4.3837">
        <ele>254</ele>
        <time>2016-8-7T11:36:52.000Z</time>
      </trkpt>
      <trkpt lat="50.19263" lon="4.3837">
        <ele>254</ele>
        <time>2016-8-7T11:36:52.000Z</time>
      </trkpt>
      <trkpt lat="50.19263" lon="4.38368">
        <ele>254</ele>
        <time>2016-8-7T11:36:52.000Z</time>
      </trkpt>
      <trkpt lat="50.19263" lon="4.38368">
        <ele>254</ele>
        <time>2016-8-7T11:36:52.000Z</time>
      </trkpt>
      <trkpt lat="50.19264" lon="4.38365">
        <ele>254</ele>
        <time>2016-8-7T11:36:52.000Z</time>
      </trkpt>
      <trkpt lat="50.19264" lon="4.38365">
        <ele>254</ele>
        <time>2016-8-7T11:36:52.000Z</time>
      </trkpt>
      <trkpt lat="50.19264" lon="4.38363">
        <ele>254.5</ele>
        <time>2016-8-7T11:36:52.000Z</time>
      </trkpt>
      <trkpt lat="50.19264" lon="4.38363">
        <ele>254.5</ele>
        <time>2016-8-7T11:36:52.000Z</time>
      </trkpt>
      <trkpt lat="50.19264" lon="4.38359">
        <ele>254.5</ele>
        <time>2016-8-7T11:36:52.000Z</time>
      </trkpt>
      <trkpt lat="50.19264" lon="4.38359">
        <ele>254.5</ele>
        <time>2016-8-7T11:36:52.000Z</time>
      </trkpt>
      <trkpt lat="50.19264" lon="4.38355">
        <ele>254.5</ele>
        <time>2016-8-7T11:36:52.000Z</time>
      </trkpt>
      <trkpt lat="50.19264" lon="4.38355">
        <ele>254.5</ele>
        <time>2016-8-7T11:36:52.000Z</time>
      </trkpt>
      <trkpt lat="50.19265" lon="4.38351">
        <ele>254.5</ele>
        <time>2016-8-7T11:36:52.000Z</time>
      </trkpt>
      <trkpt lat="50.19265" lon="4.38351">
        <ele>254.5</ele>
        <time>2016-8-7T11:36:52.000Z</time>
      </trkpt>
      <trkpt lat="50.19265" lon="4.38347">
        <ele>254.5</ele>
        <time>2016-8-7T11:36:52.000Z</time>
      </trkpt>
      <trkpt lat="50.19265" lon="4.38347">
        <ele>254.5</ele>
        <time>2016-8-7T11:36:52.000Z</time>
      </trkpt>
      <trkpt lat="50.19265" lon="4.38343">
        <ele>255</ele>
        <time>2016-8-7T11:36:52.000Z</time>
      </trkpt>
      <trkpt lat="50.19265" lon="4.38343">
        <ele>255</ele>
        <time>2016-8-7T11:36:52.000Z</time>
      </trkpt>
      <trkpt lat="50.19265" lon="4.38341">
        <ele>255</ele>
        <time>2016-8-7T11:36:52.000Z</time>
      </trkpt>
      <trkpt lat="50.19265" lon="4.38341">
        <ele>255</ele>
        <time>2016-8-7T11:36:52.000Z</time>
      </trkpt>
      <trkpt lat="50.19265" lon="4.38339">
        <ele>255</ele>
        <time>2016-8-7T11:36:52.000Z</time>
      </trkpt>
      <trkpt lat="50.19265" lon="4.38339">
        <ele>255</ele>
        <time>2016-8-7T11:36:52.000Z</time>
      </trkpt>
      <trkpt lat="50.19265" lon="4.38336">
        <ele>255</ele>
        <time>2016-8-7T11:36:52.000Z</time>
      </trkpt>
      <trkpt lat="50.19265" lon="4.38336">
        <ele>255</ele>
        <time>2016-8-7T11:36:52.000Z</time>
      </trkpt>
      <trkpt lat="50.19265" lon="4.38332">
        <ele>255.5</ele>
        <time>2016-8-7T11:36:52.000Z</time>
      </trkpt>
      <trkpt lat="50.19265" lon="4.38332">
        <ele>255.5</ele>
        <time>2016-8-7T11:36:52.000Z</time>
      </trkpt>
      <trkpt lat="50.19265" lon="4.38328">
        <ele>255.5</ele>
        <time>2016-8-7T11:36:52.000Z</time>
      </trkpt>
      <trkpt lat="50.19265" lon="4.38328">
        <ele>255.5</ele>
        <time>2016-8-7T11:36:52.000Z</time>
      </trkpt>
      <trkpt lat="50.19264" lon="4.38326">
        <ele>255.5</ele>
        <time>2016-8-7T11:36:52.000Z</time>
      </trkpt>
      <trkpt lat="50.19264" lon="4.38326">
        <ele>255.5</ele>
        <time>2016-8-7T11:36:52.000Z</time>
      </trkpt>
      <trkpt lat="50.19264" lon="4.38323">
        <ele>255.5</ele>
        <time>2016-8-7T11:36:52.000Z</time>
      </trkpt>
      <trkpt lat="50.19264" lon="4.38323">
        <ele>255.5</ele>
        <time>2016-8-7T11:36:52.000Z</time>
      </trkpt>
      <trkpt lat="50.19263" lon="4.38319">
        <ele>255.5</ele>
        <time>2016-8-7T11:36:52.000Z</time>
      </trkpt>
      <trkpt lat="50.19263" lon="4.38319">
        <ele>255.5</ele>
        <time>2016-8-7T11:36:52.000Z</time>
      </trkpt>
      <trkpt lat="50.19263" lon="4.38318">
        <ele>255.5</ele>
        <time>2016-8-7T11:36:52.000Z</time>
      </trkpt>
      <trkpt lat="50.19263" lon="4.38318">
        <ele>255.5</ele>
        <time>2016-8-7T11:36:52.000Z</time>
      </trkpt>
      <trkpt lat="50.19262" lon="4.38315">
        <ele>255.5</ele>
        <time>2016-8-7T11:36:52.000Z</time>
      </trkpt>
      <trkpt lat="50.19262" lon="4.38315">
        <ele>255.5</ele>
        <time>2016-8-7T11:36:52.000Z</time>
      </trkpt>
      <trkpt lat="50.19262" lon="4.38311">
        <ele>255.5</ele>
        <time>2016-8-7T11:36:52.000Z</time>
      </trkpt>
      <trkpt lat="50.19262" lon="4.38311">
        <ele>255.5</ele>
        <time>2016-8-7T11:36:52.000Z</time>
      </trkpt>
      <trkpt lat="50.19261" lon="4.38308">
        <ele>255.5</ele>
        <time>2016-8-7T11:36:52.000Z</time>
      </trkpt>
      <trkpt lat="50.19261" lon="4.38308">
        <ele>255.5</ele>
        <time>2016-8-7T11:36:52.000Z</time>
      </trkpt>
      <trkpt lat="50.1926" lon="4.38304">
        <ele>255.5</ele>
        <time>2016-8-7T11:36:52.000Z</time>
      </trkpt>
      <trkpt lat="50.1926" lon="4.38304">
        <ele>255.5</ele>
        <time>2016-8-7T11:36:52.000Z</time>
      </trkpt>
      <trkpt lat="50.1926" lon="4.38301">
        <ele>255</ele>
        <time>2016-8-7T11:36:52.000Z</time>
      </trkpt>
      <trkpt lat="50.1926" lon="4.38301">
        <ele>255</ele>
        <time>2016-8-7T11:36:52.000Z</time>
      </trkpt>
      <trkpt lat="50.19259" lon="4.38298">
        <ele>255.5</ele>
        <time>2016-8-7T11:36:52.000Z</time>
      </trkpt>
      <trkpt lat="50.19259" lon="4.38298">
        <ele>255.5</ele>
        <time>2016-8-7T11:36:52.000Z</time>
      </trkpt>
      <trkpt lat="50.19258" lon="4.38295">
        <ele>255.5</ele>
        <time>2016-8-7T11:36:52.000Z</time>
      </trkpt>
      <trkpt lat="50.19258" lon="4.38295">
        <ele>255.5</ele>
        <time>2016-8-7T11:36:52.000Z</time>
      </trkpt>
      <trkpt lat="50.19258" lon="4.38294">
        <ele>255.5</ele>
        <time>2016-8-7T11:36:52.000Z</time>
      </trkpt>
      <trkpt lat="50.19258" lon="4.38294">
        <ele>255.5</ele>
        <time>2016-8-7T11:36:52.000Z</time>
      </trkpt>
      <trkpt lat="50.19257" lon="4.38291">
        <ele>256</ele>
        <time>2016-8-7T11:36:52.000Z</time>
      </trkpt>
      <trkpt lat="50.19257" lon="4.38291">
        <ele>256</ele>
        <time>2016-8-7T11:36:52.000Z</time>
      </trkpt>
      <trkpt lat="50.19257" lon="4.38291">
        <ele>256.5</ele>
        <time>2016-8-7T11:36:52.000Z</time>
      </trkpt>
      <trkpt lat="50.19257" lon="4.38291">
        <ele>256.5</ele>
        <time>2016-8-7T11:36:52.000Z</time>
      </trkpt>
      <trkpt lat="50.19256" lon="4.38289">
        <ele>256.5</ele>
        <time>2016-8-7T11:36:52.000Z</time>
      </trkpt>
      <trkpt lat="50.19256" lon="4.38289">
        <ele>256.5</ele>
        <time>2016-8-7T11:36:52.000Z</time>
      </trkpt>
      <trkpt lat="50.19256" lon="4.38287">
        <ele>257.5</ele>
        <time>2016-8-7T11:36:52.000Z</time>
      </trkpt>
      <trkpt lat="50.19256" lon="4.38287">
        <ele>257.5</ele>
        <time>2016-8-7T11:36:52.000Z</time>
      </trkpt>
      <trkpt lat="50.19254" lon="4.38283">
        <ele>257.5</ele>
        <time>2016-8-7T11:36:52.000Z</time>
      </trkpt>
      <trkpt lat="50.19254" lon="4.38283">
        <ele>257.5</ele>
        <time>2016-8-7T11:36:52.000Z</time>
      </trkpt>
      <trkpt lat="50.19254" lon="4.38281">
        <ele>257.5</ele>
        <time>2016-8-7T11:36:52.000Z</time>
      </trkpt>
      <trkpt lat="50.19254" lon="4.38281">
        <ele>257.5</ele>
        <time>2016-8-7T11:36:52.000Z</time>
      </trkpt>
      <trkpt lat="50.19253" lon="4.38277">
        <ele>257.5</ele>
        <time>2016-8-7T11:36:52.000Z</time>
      </trkpt>
      <trkpt lat="50.19253" lon="4.38277">
        <ele>257.5</ele>
        <time>2016-8-7T11:38:2.000Z</time>
      </trkpt>
      <trkpt lat="50.19253" lon="4.38273">
        <ele>258.5</ele>
        <time>2016-8-7T11:38:2.000Z</time>
      </trkpt>
      <trkpt lat="50.19253" lon="4.38273">
        <ele>258.5</ele>
        <time>2016-8-7T11:38:2.000Z</time>
      </trkpt>
      <trkpt lat="50.19254" lon="4.38271">
        <ele>259</ele>
        <time>2016-8-7T11:38:2.000Z</time>
      </trkpt>
      <trkpt lat="50.19254" lon="4.38271">
        <ele>259</ele>
        <time>2016-8-7T11:38:2.000Z</time>
      </trkpt>
      <trkpt lat="50.19255" lon="4.38268">
        <ele>259.5</ele>
        <time>2016-8-7T11:38:2.000Z</time>
      </trkpt>
      <trkpt lat="50.19255" lon="4.38268">
        <ele>259.5</ele>
        <time>2016-8-7T11:38:2.000Z</time>
      </trkpt>
      <trkpt lat="50.19257" lon="4.38266">
        <ele>259.5</ele>
        <time>2016-8-7T11:38:2.000Z</time>
      </trkpt>
      <trkpt lat="50.19257" lon="4.38266">
        <ele>259.5</ele>
        <time>2016-8-7T11:38:2.000Z</time>
      </trkpt>
      <trkpt lat="50.19258" lon="4.38265">
        <ele>259.5</ele>
        <time>2016-8-7T11:38:2.000Z</time>
      </trkpt>
      <trkpt lat="50.19258" lon="4.38265">
        <ele>259.5</ele>
        <time>2016-8-7T11:38:2.000Z</time>
      </trkpt>
      <trkpt lat="50.1926" lon="4.38263">
        <ele>259.5</ele>
        <time>2016-8-7T11:38:2.000Z</time>
      </trkpt>
      <trkpt lat="50.1926" lon="4.38263">
        <ele>259.5</ele>
        <time>2016-8-7T11:38:2.000Z</time>
      </trkpt>
      <trkpt lat="50.19261" lon="4.38262">
        <ele>259.5</ele>
        <time>2016-8-7T11:38:2.000Z</time>
      </trkpt>
      <trkpt lat="50.19261" lon="4.38262">
        <ele>259.5</ele>
        <time>2016-8-7T11:38:2.000Z</time>
      </trkpt>
      <trkpt lat="50.19262" lon="4.3826">
        <ele>259.5</ele>
        <time>2016-8-7T11:38:2.000Z</time>
      </trkpt>
      <trkpt lat="50.19262" lon="4.3826">
        <ele>259.5</ele>
        <time>2016-8-7T11:38:2.000Z</time>
      </trkpt>
      <trkpt lat="50.19263" lon="4.38259">
        <ele>259.5</ele>
        <time>2016-8-7T11:38:2.000Z</time>
      </trkpt>
      <trkpt lat="50.19263" lon="4.38259">
        <ele>259.5</ele>
        <time>2016-8-7T11:38:2.000Z</time>
      </trkpt>
      <trkpt lat="50.19264" lon="4.38257">
        <ele>259.5</ele>
        <time>2016-8-7T11:38:2.000Z</time>
      </trkpt>
      <trkpt lat="50.19264" lon="4.38257">
        <ele>259.5</ele>
        <time>2016-8-7T11:38:2.000Z</time>
      </trkpt>
      <trkpt lat="50.19266" lon="4.38255">
        <ele>259.5</ele>
        <time>2016-8-7T11:38:2.000Z</time>
      </trkpt>
      <trkpt lat="50.19266" lon="4.38255">
        <ele>259.5</ele>
        <time>2016-8-7T11:38:2.000Z</time>
      </trkpt>
      <trkpt lat="50.19268" lon="4.38253">
        <ele>259.5</ele>
        <time>2016-8-7T11:38:2.000Z</time>
      </trkpt>
      <trkpt lat="50.19268" lon="4.38253">
        <ele>259.5</ele>
        <time>2016-8-7T11:38:2.000Z</time>
      </trkpt>
      <trkpt lat="50.19269" lon="4.38252">
        <ele>259</ele>
        <time>2016-8-7T11:38:2.000Z</time>
      </trkpt>
      <trkpt lat="50.19269" lon="4.38252">
        <ele>259</ele>
        <time>2016-8-7T11:38:2.000Z</time>
      </trkpt>
      <trkpt lat="50.1927" lon="4.38252">
        <ele>258.5</ele>
        <time>2016-8-7T11:38:2.000Z</time>
      </trkpt>
      <trkpt lat="50.1927" lon="4.38252">
        <ele>258.5</ele>
        <time>2016-8-7T11:38:2.000Z</time>
      </trkpt>
      <trkpt lat="50.19271" lon="4.38251">
        <ele>258.5</ele>
        <time>2016-8-7T11:38:2.000Z</time>
      </trkpt>
      <trkpt lat="50.19271" lon="4.38251">
        <ele>258.5</ele>
        <time>2016-8-7T11:38:2.000Z</time>
      </trkpt>
      <trkpt lat="50.19273" lon="4.38249">
        <ele>258.5</ele>
        <time>2016-8-7T11:38:2.000Z</time>
      </trkpt>
      <trkpt lat="50.19273" lon="4.38249">
        <ele>258.5</ele>
        <time>2016-8-7T11:38:2.000Z</time>
      </trkpt>
      <trkpt lat="50.19275" lon="4.38248">
        <ele>259</ele>
        <time>2016-8-7T11:38:2.000Z</time>
      </trkpt>
      <trkpt lat="50.19275" lon="4.38248">
        <ele>259</ele>
        <time>2016-8-7T11:38:2.000Z</time>
      </trkpt>
      <trkpt lat="50.19277" lon="4.38246">
        <ele>259</ele>
        <time>2016-8-7T11:38:2.000Z</time>
      </trkpt>
      <trkpt lat="50.19277" lon="4.38246">
        <ele>259</ele>
        <time>2016-8-7T11:38:2.000Z</time>
      </trkpt>
      <trkpt lat="50.19278" lon="4.38244">
        <ele>259.5</ele>
        <time>2016-8-7T11:38:2.000Z</time>
      </trkpt>
      <trkpt lat="50.19278" lon="4.38244">
        <ele>259.5</ele>
        <time>2016-8-7T11:38:2.000Z</time>
      </trkpt>
      <trkpt lat="50.19279" lon="4.38243">
        <ele>259.5</ele>
        <time>2016-8-7T11:38:2.000Z</time>
      </trkpt>
      <trkpt lat="50.19279" lon="4.38243">
        <ele>259.5</ele>
        <time>2016-8-7T11:38:2.000Z</time>
      </trkpt>
      <trkpt lat="50.19281" lon="4.38241">
        <ele>259.5</ele>
        <time>2016-8-7T11:38:2.000Z</time>
      </trkpt>
      <trkpt lat="50.19281" lon="4.38241">
        <ele>259.5</ele>
        <time>2016-8-7T11:38:2.000Z</time>
      </trkpt>
      <trkpt lat="50.19283" lon="4.3824">
        <ele>258.5</ele>
        <time>2016-8-7T11:38:2.000Z</time>
      </trkpt>
      <trkpt lat="50.19283" lon="4.3824">
        <ele>258.5</ele>
        <time>2016-8-7T11:38:2.000Z</time>
      </trkpt>
      <trkpt lat="50.19282" lon="4.38238">
        <ele>259.5</ele>
        <time>2016-8-7T11:38:2.000Z</time>
      </trkpt>
      <trkpt lat="50.19282" lon="4.38238">
        <ele>259.5</ele>
        <time>2016-8-7T11:38:2.000Z</time>
      </trkpt>
      <trkpt lat="50.19282" lon="4.38234">
        <ele>257.5</ele>
        <time>2016-8-7T11:38:2.000Z</time>
      </trkpt>
      <trkpt lat="50.19282" lon="4.38234">
        <ele>257.5</ele>
        <time>2016-8-7T11:38:2.000Z</time>
      </trkpt>
      <trkpt lat="50.19281" lon="4.3823">
        <ele>257.5</ele>
        <time>2016-8-7T11:38:2.000Z</time>
      </trkpt>
      <trkpt lat="50.19281" lon="4.3823">
        <ele>257.5</ele>
        <time>2016-8-7T11:38:2.000Z</time>
      </trkpt>
      <trkpt lat="50.19281" lon="4.38227">
        <ele>257.5</ele>
        <time>2016-8-7T11:38:2.000Z</time>
      </trkpt>
      <trkpt lat="50.19281" lon="4.38227">
        <ele>257.5</ele>
        <time>2016-8-7T11:38:2.000Z</time>
      </trkpt>
      <trkpt lat="50.19281" lon="4.38224">
        <ele>258.5</ele>
        <time>2016-8-7T11:38:2.000Z</time>
      </trkpt>
      <trkpt lat="50.19281" lon="4.38224">
        <ele>258.5</ele>
        <time>2016-8-7T11:38:2.000Z</time>
      </trkpt>
      <trkpt lat="50.19282" lon="4.38221">
        <ele>258.5</ele>
        <time>2016-8-7T11:38:2.000Z</time>
      </trkpt>
      <trkpt lat="50.19282" lon="4.38221">
        <ele>258.5</ele>
        <time>2016-8-7T11:38:2.000Z</time>
      </trkpt>
      <trkpt lat="50.19282" lon="4.38219">
        <ele>258.5</ele>
        <time>2016-8-7T11:38:2.000Z</time>
      </trkpt>
      <trkpt lat="50.19282" lon="4.38219">
        <ele>258.5</ele>
        <time>2016-8-7T11:38:2.000Z</time>
      </trkpt>
      <trkpt lat="50.19283" lon="4.38215">
        <ele>257.5</ele>
        <time>2016-8-7T11:38:2.000Z</time>
      </trkpt>
      <trkpt lat="50.19283" lon="4.38215">
        <ele>257.5</ele>
        <time>2016-8-7T11:38:2.000Z</time>
      </trkpt>
      <trkpt lat="50.19282" lon="4.38213">
        <ele>258.5</ele>
        <time>2016-8-7T11:38:2.000Z</time>
      </trkpt>
      <trkpt lat="50.19282" lon="4.38213">
        <ele>258.5</ele>
        <time>2016-8-7T11:38:2.000Z</time>
      </trkpt>
      <trkpt lat="50.19282" lon="4.3821">
        <ele>258.5</ele>
        <time>2016-8-7T11:38:2.000Z</time>
      </trkpt>
      <trkpt lat="50.19282" lon="4.3821">
        <ele>258.5</ele>
        <time>2016-8-7T11:38:2.000Z</time>
      </trkpt>
      <trkpt lat="50.19282" lon="4.38208">
        <ele>258.5</ele>
        <time>2016-8-7T11:38:2.000Z</time>
      </trkpt>
      <trkpt lat="50.19282" lon="4.38208">
        <ele>258.5</ele>
        <time>2016-8-7T11:38:2.000Z</time>
      </trkpt>
      <trkpt lat="50.19281" lon="4.38206">
        <ele>259.5</ele>
        <time>2016-8-7T11:38:2.000Z</time>
      </trkpt>
      <trkpt lat="50.19281" lon="4.38206">
        <ele>259.5</ele>
        <time>2016-8-7T11:38:2.000Z</time>
      </trkpt>
      <trkpt lat="50.19281" lon="4.38204">
        <ele>259.5</ele>
        <time>2016-8-7T11:38:2.000Z</time>
      </trkpt>
      <trkpt lat="50.19281" lon="4.38204">
        <ele>259.5</ele>
        <time>2016-8-7T11:38:2.000Z</time>
      </trkpt>
      <trkpt lat="50.1928" lon="4.38201">
        <ele>259.5</ele>
        <time>2016-8-7T11:38:2.000Z</time>
      </trkpt>
      <trkpt lat="50.1928" lon="4.38201">
        <ele>259.5</ele>
        <time>2016-8-7T11:38:2.000Z</time>
      </trkpt>
      <trkpt lat="50.1928" lon="4.38198">
        <ele>258.5</ele>
        <time>2016-8-7T11:38:2.000Z</time>
      </trkpt>
      <trkpt lat="50.1928" lon="4.38198">
        <ele>258.5</ele>
        <time>2016-8-7T11:38:2.000Z</time>
      </trkpt>
      <trkpt lat="50.19279" lon="4.38197">
        <ele>258.5</ele>
        <time>2016-8-7T11:38:2.000Z</time>
      </trkpt>
      <trkpt lat="50.19279" lon="4.38197">
        <ele>258.5</ele>
        <time>2016-8-7T11:38:2.000Z</time>
      </trkpt>
      <trkpt lat="50.19278" lon="4.38194">
        <ele>259</ele>
        <time>2016-8-7T11:38:2.000Z</time>
      </trkpt>
      <trkpt lat="50.19278" lon="4.38194">
        <ele>259</ele>
        <time>2016-8-7T11:38:2.000Z</time>
      </trkpt>
      <trkpt lat="50.19278" lon="4.38192">
        <ele>259</ele>
        <time>2016-8-7T11:38:2.000Z</time>
      </trkpt>
      <trkpt lat="50.19278" lon="4.38192">
        <ele>259</ele>
        <time>2016-8-7T11:38:2.000Z</time>
      </trkpt>
      <trkpt lat="50.19278" lon="4.38188">
        <ele>259</ele>
        <time>2016-8-7T11:38:3.000Z</time>
      </trkpt>
      <trkpt lat="50.19278" lon="4.38188">
        <ele>259</ele>
        <time>2016-8-7T11:38:3.000Z</time>
      </trkpt>
      <trkpt lat="50.19278" lon="4.38186">
        <ele>259</ele>
        <time>2016-8-7T11:38:3.000Z</time>
      </trkpt>
      <trkpt lat="50.19278" lon="4.38186">
        <ele>259</ele>
        <time>2016-8-7T11:38:3.000Z</time>
      </trkpt>
      <trkpt lat="50.19277" lon="4.38183">
        <ele>259.5</ele>
        <time>2016-8-7T11:38:3.000Z</time>
      </trkpt>
      <trkpt lat="50.19277" lon="4.38183">
        <ele>259.5</ele>
        <time>2016-8-7T11:38:3.000Z</time>
      </trkpt>
      <trkpt lat="50.19276" lon="4.38181">
        <ele>258.5</ele>
        <time>2016-8-7T11:38:3.000Z</time>
      </trkpt>
      <trkpt lat="50.19276" lon="4.38181">
        <ele>258.5</ele>
        <time>2016-8-7T11:38:3.000Z</time>
      </trkpt>
      <trkpt lat="50.19275" lon="4.38178">
        <ele>258.5</ele>
        <time>2016-8-7T11:38:3.000Z</time>
      </trkpt>
      <trkpt lat="50.19275" lon="4.38178">
        <ele>258.5</ele>
        <time>2016-8-7T11:38:3.000Z</time>
      </trkpt>
      <trkpt lat="50.19275" lon="4.38177">
        <ele>258.5</ele>
        <time>2016-8-7T11:38:3.000Z</time>
      </trkpt>
      <trkpt lat="50.19275" lon="4.38177">
        <ele>258.5</ele>
        <time>2016-8-7T11:38:3.000Z</time>
      </trkpt>
      <trkpt lat="50.19274" lon="4.38173">
        <ele>258.5</ele>
        <time>2016-8-7T11:38:3.000Z</time>
      </trkpt>
      <trkpt lat="50.19274" lon="4.38173">
        <ele>258.5</ele>
        <time>2016-8-7T11:38:3.000Z</time>
      </trkpt>
      <trkpt lat="50.19273" lon="4.3817">
        <ele>258.5</ele>
        <time>2016-8-7T11:38:3.000Z</time>
      </trkpt>
      <trkpt lat="50.19273" lon="4.3817">
        <ele>258.5</ele>
        <time>2016-8-7T11:38:3.000Z</time>
      </trkpt>
      <trkpt lat="50.19273" lon="4.38168">
        <ele>259</ele>
        <time>2016-8-7T11:38:3.000Z</time>
      </trkpt>
      <trkpt lat="50.19273" lon="4.38168">
        <ele>259</ele>
        <time>2016-8-7T11:38:3.000Z</time>
      </trkpt>
      <trkpt lat="50.19272" lon="4.38164">
        <ele>258.5</ele>
        <time>2016-8-7T11:38:3.000Z</time>
      </trkpt>
      <trkpt lat="50.19272" lon="4.38164">
        <ele>258.5</ele>
        <time>2016-8-7T11:38:3.000Z</time>
      </trkpt>
      <trkpt lat="50.19271" lon="4.38163">
        <ele>258.5</ele>
        <time>2016-8-7T11:39:15.000Z</time>
      </trkpt>
      <trkpt lat="50.19271" lon="4.38163">
        <ele>258.5</ele>
        <time>2016-8-7T11:39:15.000Z</time>
      </trkpt>
      <trkpt lat="50.19271" lon="4.38159">
        <ele>258.5</ele>
        <time>2016-8-7T11:39:15.000Z</time>
      </trkpt>
      <trkpt lat="50.19271" lon="4.38159">
        <ele>258.5</ele>
        <time>2016-8-7T11:39:15.000Z</time>
      </trkpt>
      <trkpt lat="50.1927" lon="4.38155">
        <ele>258.5</ele>
        <time>2016-8-7T11:39:15.000Z</time>
      </trkpt>
      <trkpt lat="50.1927" lon="4.38155">
        <ele>258.5</ele>
        <time>2016-8-7T11:39:15.000Z</time>
      </trkpt>
      <trkpt lat="50.19269" lon="4.38152">
        <ele>258</ele>
        <time>2016-8-7T11:39:15.000Z</time>
      </trkpt>
      <trkpt lat="50.19269" lon="4.38152">
        <ele>258</ele>
        <time>2016-8-7T11:39:15.000Z</time>
      </trkpt>
      <trkpt lat="50.19268" lon="4.38149">
        <ele>257.5</ele>
        <time>2016-8-7T11:39:15.000Z</time>
      </trkpt>
      <trkpt lat="50.19268" lon="4.38149">
        <ele>257.5</ele>
        <time>2016-8-7T11:39:15.000Z</time>
      </trkpt>
      <trkpt lat="50.19267" lon="4.38147">
        <ele>257.5</ele>
        <time>2016-8-7T11:39:15.000Z</time>
      </trkpt>
      <trkpt lat="50.19267" lon="4.38147">
        <ele>257.5</ele>
        <time>2016-8-7T11:39:15.000Z</time>
      </trkpt>
      <trkpt lat="50.19266" lon="4.38144">
        <ele>257.5</ele>
        <time>2016-8-7T11:39:15.000Z</time>
      </trkpt>
      <trkpt lat="50.19266" lon="4.38144">
        <ele>257.5</ele>
        <time>2016-8-7T11:39:15.000Z</time>
      </trkpt>
      <trkpt lat="50.19265" lon="4.38142">
        <ele>257.5</ele>
        <time>2016-8-7T11:39:15.000Z</time>
      </trkpt>
      <trkpt lat="50.19265" lon="4.38142">
        <ele>257.5</ele>
        <time>2016-8-7T11:39:15.000Z</time>
      </trkpt>
      <trkpt lat="50.19263" lon="4.3814">
        <ele>257</ele>
        <time>2016-8-7T11:39:15.000Z</time>
      </trkpt>
      <trkpt lat="50.19263" lon="4.3814">
        <ele>257</ele>
        <time>2016-8-7T11:39:15.000Z</time>
      </trkpt>
      <trkpt lat="50.19262" lon="4.38138">
        <ele>257</ele>
        <time>2016-8-7T11:39:15.000Z</time>
      </trkpt>
      <trkpt lat="50.19262" lon="4.38138">
        <ele>257</ele>
        <time>2016-8-7T11:39:15.000Z</time>
      </trkpt>
      <trkpt lat="50.19261" lon="4.38137">
        <ele>257</ele>
        <time>2016-8-7T11:39:15.000Z</time>
      </trkpt>
      <trkpt lat="50.19261" lon="4.38137">
        <ele>257</ele>
        <time>2016-8-7T11:39:15.000Z</time>
      </trkpt>
      <trkpt lat="50.19259" lon="4.38135">
        <ele>257</ele>
        <time>2016-8-7T11:39:15.000Z</time>
      </trkpt>
      <trkpt lat="50.19259" lon="4.38135">
        <ele>257</ele>
        <time>2016-8-7T11:39:15.000Z</time>
      </trkpt>
      <trkpt lat="50.19258" lon="4.38134">
        <ele>256.5</ele>
        <time>2016-8-7T11:39:15.000Z</time>
      </trkpt>
      <trkpt lat="50.19258" lon="4.38134">
        <ele>256.5</ele>
        <time>2016-8-7T11:39:15.000Z</time>
      </trkpt>
      <trkpt lat="50.19255" lon="4.38131">
        <ele>256.5</ele>
        <time>2016-8-7T11:39:15.000Z</time>
      </trkpt>
      <trkpt lat="50.19255" lon="4.38131">
        <ele>256.5</ele>
        <time>2016-8-7T11:39:15.000Z</time>
      </trkpt>
      <trkpt lat="50.19254" lon="4.3813">
        <ele>256.5</ele>
        <time>2016-8-7T11:39:15.000Z</time>
      </trkpt>
      <trkpt lat="50.19254" lon="4.3813">
        <ele>256.5</ele>
        <time>2016-8-7T11:39:15.000Z</time>
      </trkpt>
      <trkpt lat="50.19253" lon="4.38128">
        <ele>257</ele>
        <time>2016-8-7T11:39:15.000Z</time>
      </trkpt>
      <trkpt lat="50.19253" lon="4.38128">
        <ele>257</ele>
        <time>2016-8-7T11:39:15.000Z</time>
      </trkpt>
      <trkpt lat="50.19252" lon="4.38126">
        <ele>257</ele>
        <time>2016-8-7T11:39:15.000Z</time>
      </trkpt>
      <trkpt lat="50.19252" lon="4.38126">
        <ele>257</ele>
        <time>2016-8-7T11:39:15.000Z</time>
      </trkpt>
      <trkpt lat="50.19251" lon="4.38125">
        <ele>257</ele>
        <time>2016-8-7T11:39:15.000Z</time>
      </trkpt>
      <trkpt lat="50.19251" lon="4.38125">
        <ele>257</ele>
        <time>2016-8-7T11:39:15.000Z</time>
      </trkpt>
      <trkpt lat="50.1925" lon="4.38122">
        <ele>257</ele>
        <time>2016-8-7T11:39:15.000Z</time>
      </trkpt>
      <trkpt lat="50.1925" lon="4.38122">
        <ele>257</ele>
        <time>2016-8-7T11:39:15.000Z</time>
      </trkpt>
      <trkpt lat="50.19248" lon="4.38121">
        <ele>257.5</ele>
        <time>2016-8-7T11:39:15.000Z</time>
      </trkpt>
      <trkpt lat="50.19248" lon="4.38121">
        <ele>257.5</ele>
        <time>2016-8-7T11:39:15.000Z</time>
      </trkpt>
      <trkpt lat="50.19246" lon="4.3812">
        <ele>257</ele>
        <time>2016-8-7T11:39:15.000Z</time>
      </trkpt>
      <trkpt lat="50.19246" lon="4.3812">
        <ele>257</ele>
        <time>2016-8-7T11:39:15.000Z</time>
      </trkpt>
      <trkpt lat="50.19245" lon="4.3812">
        <ele>257</ele>
        <time>2016-8-7T11:39:15.000Z</time>
      </trkpt>
      <trkpt lat="50.19245" lon="4.3812">
        <ele>257</ele>
        <time>2016-8-7T11:39:15.000Z</time>
      </trkpt>
      <trkpt lat="50.19242" lon="4.38121">
        <ele>257</ele>
        <time>2016-8-7T11:39:15.000Z</time>
      </trkpt>
      <trkpt lat="50.19242" lon="4.38121">
        <ele>257</ele>
        <time>2016-8-7T11:39:15.000Z</time>
      </trkpt>
      <trkpt lat="50.1924" lon="4.38122">
        <ele>257</ele>
        <time>2016-8-7T11:39:15.000Z</time>
      </trkpt>
      <trkpt lat="50.1924" lon="4.38122">
        <ele>257</ele>
        <time>2016-8-7T11:39:15.000Z</time>
      </trkpt>
      <trkpt lat="50.19237" lon="4.38122">
        <ele>257.5</ele>
        <time>2016-8-7T11:39:15.000Z</time>
      </trkpt>
      <trkpt lat="50.19237" lon="4.38122">
        <ele>257.5</ele>
        <time>2016-8-7T11:39:15.000Z</time>
      </trkpt>
      <trkpt lat="50.19236" lon="4.38122">
        <ele>257.5</ele>
        <time>2016-8-7T11:39:15.000Z</time>
      </trkpt>
      <trkpt lat="50.19236" lon="4.38122">
        <ele>257.5</ele>
        <time>2016-8-7T11:39:15.000Z</time>
      </trkpt>
      <trkpt lat="50.19234" lon="4.38122">
        <ele>257.5</ele>
        <time>2016-8-7T11:39:15.000Z</time>
      </trkpt>
      <trkpt lat="50.19234" lon="4.38122">
        <ele>257.5</ele>
        <time>2016-8-7T11:39:15.000Z</time>
      </trkpt>
      <trkpt lat="50.19233" lon="4.38122">
        <ele>257.5</ele>
        <time>2016-8-7T11:39:15.000Z</time>
      </trkpt>
      <trkpt lat="50.19233" lon="4.38122">
        <ele>257.5</ele>
        <time>2016-8-7T11:39:15.000Z</time>
      </trkpt>
      <trkpt lat="50.19231" lon="4.38122">
        <ele>257.5</ele>
        <time>2016-8-7T11:39:15.000Z</time>
      </trkpt>
      <trkpt lat="50.19231" lon="4.38122">
        <ele>257.5</ele>
        <time>2016-8-7T11:39:15.000Z</time>
      </trkpt>
      <trkpt lat="50.19229" lon="4.38122">
        <ele>259</ele>
        <time>2016-8-7T11:39:15.000Z</time>
      </trkpt>
      <trkpt lat="50.19229" lon="4.38122">
        <ele>259</ele>
        <time>2016-8-7T11:39:15.000Z</time>
      </trkpt>
      <trkpt lat="50.19228" lon="4.38121">
        <ele>259.5</ele>
        <time>2016-8-7T11:39:15.000Z</time>
      </trkpt>
      <trkpt lat="50.19228" lon="4.38121">
        <ele>259.5</ele>
        <time>2016-8-7T11:39:15.000Z</time>
      </trkpt>
      <trkpt lat="50.19227" lon="4.38121">
        <ele>259.5</ele>
        <time>2016-8-7T11:39:15.000Z</time>
      </trkpt>
      <trkpt lat="50.19227" lon="4.38121">
        <ele>259.5</ele>
        <time>2016-8-7T11:39:15.000Z</time>
      </trkpt>
      <trkpt lat="50.19225" lon="4.3812">
        <ele>259.5</ele>
        <time>2016-8-7T11:39:15.000Z</time>
      </trkpt>
      <trkpt lat="50.19225" lon="4.3812">
        <ele>259.5</ele>
        <time>2016-8-7T11:39:15.000Z</time>
      </trkpt>
      <trkpt lat="50.19224" lon="4.38117">
        <ele>259.5</ele>
        <time>2016-8-7T11:39:15.000Z</time>
      </trkpt>
      <trkpt lat="50.19224" lon="4.38117">
        <ele>259.5</ele>
        <time>2016-8-7T11:39:15.000Z</time>
      </trkpt>
      <trkpt lat="50.19223" lon="4.38116">
        <ele>259.5</ele>
        <time>2016-8-7T11:39:15.000Z</time>
      </trkpt>
      <trkpt lat="50.19223" lon="4.38116">
        <ele>259.5</ele>
        <time>2016-8-7T11:39:15.000Z</time>
      </trkpt>
      <trkpt lat="50.19226" lon="4.38109">
        <ele>257.5</ele>
        <time>2016-8-7T11:39:15.000Z</time>
      </trkpt>
      <trkpt lat="50.19226" lon="4.38109">
        <ele>257.5</ele>
        <time>2016-8-7T11:39:15.000Z</time>
      </trkpt>
      <trkpt lat="50.19226" lon="4.38107">
        <ele>258.5</ele>
        <time>2016-8-7T11:39:15.000Z</time>
      </trkpt>
      <trkpt lat="50.19226" lon="4.38107">
        <ele>258.5</ele>
        <time>2016-8-7T11:39:15.000Z</time>
      </trkpt>
      <trkpt lat="50.19227" lon="4.38104">
        <ele>258.5</ele>
        <time>2016-8-7T11:39:15.000Z</time>
      </trkpt>
      <trkpt lat="50.19227" lon="4.38104">
        <ele>258.5</ele>
        <time>2016-8-7T11:39:15.000Z</time>
      </trkpt>
      <trkpt lat="50.19227" lon="4.38101">
        <ele>258.5</ele>
        <time>2016-8-7T11:39:15.000Z</time>
      </trkpt>
      <trkpt lat="50.19227" lon="4.38101">
        <ele>258.5</ele>
        <time>2016-8-7T11:39:15.000Z</time>
      </trkpt>
      <trkpt lat="50.19227" lon="4.38098">
        <ele>258.5</ele>
        <time>2016-8-7T11:39:15.000Z</time>
      </trkpt>
      <trkpt lat="50.19227" lon="4.38098">
        <ele>258.5</ele>
        <time>2016-8-7T11:39:15.000Z</time>
      </trkpt>
      <trkpt lat="50.19228" lon="4.38096">
        <ele>258.5</ele>
        <time>2016-8-7T11:39:15.000Z</time>
      </trkpt>
      <trkpt lat="50.19228" lon="4.38096">
        <ele>258.5</ele>
        <time>2016-8-7T11:39:15.000Z</time>
      </trkpt>
      <trkpt lat="50.19228" lon="4.38093">
        <ele>258.5</ele>
        <time>2016-8-7T11:39:15.000Z</time>
      </trkpt>
      <trkpt lat="50.19228" lon="4.38093">
        <ele>258.5</ele>
        <time>2016-8-7T11:39:15.000Z</time>
      </trkpt>
      <trkpt lat="50.19229" lon="4.3809">
        <ele>257.5</ele>
        <time>2016-8-7T11:39:15.000Z</time>
      </trkpt>
      <trkpt lat="50.19229" lon="4.3809">
        <ele>257.5</ele>
        <time>2016-8-7T11:39:15.000Z</time>
      </trkpt>
      <trkpt lat="50.1923" lon="4.38088">
        <ele>256.5</ele>
        <time>2016-8-7T11:39:15.000Z</time>
      </trkpt>
      <trkpt lat="50.1923" lon="4.38088">
        <ele>256.5</ele>
        <time>2016-8-7T11:39:15.000Z</time>
      </trkpt>
      <trkpt lat="50.19231" lon="4.38085">
        <ele>257.5</ele>
        <time>2016-8-7T11:39:15.000Z</time>
      </trkpt>
      <trkpt lat="50.19231" lon="4.38085">
        <ele>257.5</ele>
        <time>2016-8-7T11:39:15.000Z</time>
      </trkpt>
      <trkpt lat="50.19231" lon="4.38082">
        <ele>256.5</ele>
        <time>2016-8-7T11:39:15.000Z</time>
      </trkpt>
      <trkpt lat="50.19231" lon="4.38082">
        <ele>256.5</ele>
        <time>2016-8-7T11:39:15.000Z</time>
      </trkpt>
      <trkpt lat="50.19231" lon="4.38079">
        <ele>255.5</ele>
        <time>2016-8-7T11:39:15.000Z</time>
      </trkpt>
      <trkpt lat="50.19231" lon="4.38079">
        <ele>255.5</ele>
        <time>2016-8-7T11:39:15.000Z</time>
      </trkpt>
      <trkpt lat="50.19231" lon="4.38074">
        <ele>255.5</ele>
        <time>2016-8-7T11:39:15.000Z</time>
      </trkpt>
      <trkpt lat="50.19231" lon="4.38074">
        <ele>255.5</ele>
        <time>2016-8-7T11:39:15.000Z</time>
      </trkpt>
      <trkpt lat="50.19231" lon="4.38072">
        <ele>257</ele>
        <time>2016-8-7T11:39:15.000Z</time>
      </trkpt>
      <trkpt lat="50.19231" lon="4.38072">
        <ele>257</ele>
        <time>2016-8-7T11:39:15.000Z</time>
      </trkpt>
      <trkpt lat="50.19231" lon="4.3807">
        <ele>256.5</ele>
        <time>2016-8-7T11:39:15.000Z</time>
      </trkpt>
      <trkpt lat="50.19231" lon="4.3807">
        <ele>256.5</ele>
        <time>2016-8-7T11:39:15.000Z</time>
      </trkpt>
      <trkpt lat="50.19232" lon="4.38067">
        <ele>256</ele>
        <time>2016-8-7T11:39:15.000Z</time>
      </trkpt>
      <trkpt lat="50.19232" lon="4.38067">
        <ele>256</ele>
        <time>2016-8-7T11:39:42.000Z</time>
      </trkpt>
      <trkpt lat="50.19232" lon="4.38064">
        <ele>255.5</ele>
        <time>2016-8-7T11:39:42.000Z</time>
      </trkpt>
      <trkpt lat="50.19232" lon="4.38064">
        <ele>255.5</ele>
        <time>2016-8-7T11:39:42.000Z</time>
      </trkpt>
      <trkpt lat="50.19232" lon="4.38063">
        <ele>254.5</ele>
        <time>2016-8-7T11:39:42.000Z</time>
      </trkpt>
      <trkpt lat="50.19232" lon="4.38063">
        <ele>254.5</ele>
        <time>2016-8-7T11:39:42.000Z</time>
      </trkpt>
      <trkpt lat="50.19233" lon="4.38059">
        <ele>256.5</ele>
        <time>2016-8-7T11:39:42.000Z</time>
      </trkpt>
      <trkpt lat="50.19233" lon="4.38059">
        <ele>256.5</ele>
        <time>2016-8-7T11:39:42.000Z</time>
      </trkpt>
      <trkpt lat="50.19233" lon="4.38055">
        <ele>255</ele>
        <time>2016-8-7T11:39:42.000Z</time>
      </trkpt>
      <trkpt lat="50.19233" lon="4.38055">
        <ele>255</ele>
        <time>2016-8-7T11:39:42.000Z</time>
      </trkpt>
      <trkpt lat="50.19233" lon="4.38054">
        <ele>255.5</ele>
        <time>2016-8-7T11:39:42.000Z</time>
      </trkpt>
      <trkpt lat="50.19233" lon="4.38054">
        <ele>255.5</ele>
        <time>2016-8-7T11:39:42.000Z</time>
      </trkpt>
      <trkpt lat="50.19233" lon="4.38053">
        <ele>255.5</ele>
        <time>2016-8-7T11:39:42.000Z</time>
      </trkpt>
      <trkpt lat="50.19233" lon="4.38053">
        <ele>255.5</ele>
        <time>2016-8-7T11:39:42.000Z</time>
      </trkpt>
      <trkpt lat="50.19233" lon="4.38051">
        <ele>256</ele>
        <time>2016-8-7T11:39:42.000Z</time>
      </trkpt>
      <trkpt lat="50.19233" lon="4.38051">
        <ele>256</ele>
        <time>2016-8-7T11:39:42.000Z</time>
      </trkpt>
      <trkpt lat="50.19233" lon="4.38049">
        <ele>256.5</ele>
        <time>2016-8-7T11:39:42.000Z</time>
      </trkpt>
      <trkpt lat="50.19233" lon="4.38049">
        <ele>256.5</ele>
        <time>2016-8-7T11:39:42.000Z</time>
      </trkpt>
      <trkpt lat="50.19233" lon="4.38048">
        <ele>256.5</ele>
        <time>2016-8-7T11:39:42.000Z</time>
      </trkpt>
      <trkpt lat="50.19233" lon="4.38048">
        <ele>256.5</ele>
        <time>2016-8-7T11:39:42.000Z</time>
      </trkpt>
      <trkpt lat="50.19234" lon="4.38044">
        <ele>258.5</ele>
        <time>2016-8-7T11:39:42.000Z</time>
      </trkpt>
      <trkpt lat="50.19234" lon="4.38044">
        <ele>258.5</ele>
        <time>2016-8-7T11:39:42.000Z</time>
      </trkpt>
      <trkpt lat="50.19234" lon="4.38042">
        <ele>257.5</ele>
        <time>2016-8-7T11:39:42.000Z</time>
      </trkpt>
      <trkpt lat="50.19234" lon="4.38042">
        <ele>257.5</ele>
        <time>2016-8-7T11:39:42.000Z</time>
      </trkpt>
      <trkpt lat="50.19233" lon="4.38039">
        <ele>257.5</ele>
        <time>2016-8-7T11:39:42.000Z</time>
      </trkpt>
      <trkpt lat="50.19233" lon="4.38039">
        <ele>257.5</ele>
        <time>2016-8-7T11:39:42.000Z</time>
      </trkpt>
      <trkpt lat="50.19233" lon="4.38037">
        <ele>257.5</ele>
        <time>2016-8-7T11:39:42.000Z</time>
      </trkpt>
      <trkpt lat="50.19233" lon="4.38037">
        <ele>257.5</ele>
        <time>2016-8-7T11:39:42.000Z</time>
      </trkpt>
      <trkpt lat="50.19232" lon="4.38034">
        <ele>257.5</ele>
        <time>2016-8-7T11:39:42.000Z</time>
      </trkpt>
      <trkpt lat="50.19232" lon="4.38034">
        <ele>257.5</ele>
        <time>2016-8-7T11:39:42.000Z</time>
      </trkpt>
      <trkpt lat="50.19232" lon="4.38032">
        <ele>256.5</ele>
        <time>2016-8-7T11:39:42.000Z</time>
      </trkpt>
      <trkpt lat="50.19232" lon="4.38032">
        <ele>256.5</ele>
        <time>2016-8-7T11:39:42.000Z</time>
      </trkpt>
      <trkpt lat="50.19232" lon="4.38029">
        <ele>256.5</ele>
        <time>2016-8-7T11:39:42.000Z</time>
      </trkpt>
      <trkpt lat="50.19232" lon="4.38029">
        <ele>256.5</ele>
        <time>2016-8-7T11:39:42.000Z</time>
      </trkpt>
      <trkpt lat="50.19231" lon="4.38026">
        <ele>257</ele>
        <time>2016-8-7T11:39:42.000Z</time>
      </trkpt>
      <trkpt lat="50.19231" lon="4.38026">
        <ele>257</ele>
        <time>2016-8-7T11:39:42.000Z</time>
      </trkpt>
      <trkpt lat="50.19231" lon="4.38025">
        <ele>257</ele>
        <time>2016-8-7T11:39:42.000Z</time>
      </trkpt>
      <trkpt lat="50.19231" lon="4.38025">
        <ele>257</ele>
        <time>2016-8-7T11:39:42.000Z</time>
      </trkpt>
    </trkseg>
  </trk>
</gpx>